<?xml version="1.0"?>
<gpx
 version="1.1"
 creator="Satmap Active 20"
 xmlns:xsi="http://www.w3.org/2001/XMLSchema-instance"
 xmlns="http://www.topografix.com/GPX/1/1"
 xmlns:satmap="http://www.satmap.com/updates/xmlschemas/GpxExtensions/v2/GpxExtensions_v2.xsd"
 xsi:schemaLocation="http://www.topografix.com/GPX/1/1 http://www.topografix.com/GPX/1/1/gpx.xsd">
<metadata>
<time>2022-11-16T10:55:11Z</time>
<extensions>
<satmap:platform>43</satmap:platform>
<satmap:software version="3.13.037">SM15.exe</satmap:software>
<satmap:username>pieter metz</satmap:username>
<satmap:network_ids>
<satmap:network_id type="wifi">00-23-A7-CA-E3-5C</satmap:network_id>
<satmap:network_id type="bluetooth">80-BB-EB-78-4F-29</satmap:network_id>
</satmap:network_ids>
<satmap:snap_type>simple</satmap:snap_type>
</extensions>
</metadata>
<trk>
<name>2022-11-16_1055</name>
<desc>Track 1</desc>
<number>1</number>
<trkseg>
<trkpt lat="51.599256" lon="03.848100"><ele>-2</ele><time>2022-11-16T10:55:11Z</time><name>PT1</name></trkpt>
<trkpt lat="51.599259" lon="03.848090"><ele>-2.5</ele><time>2022-11-16T10:55:28Z</time><name>PT2</name></trkpt>
<trkpt lat="51.599261" lon="03.848081"><ele>-2.5</ele><time>2022-11-16T10:55:28Z</time><name>PT3</name></trkpt>
<trkpt lat="51.599262" lon="03.848071"><ele>-2.5</ele><time>2022-11-16T10:55:29Z</time><name>PT4</name></trkpt>
<trkpt lat="51.599261" lon="03.848070"><ele>-2.3</ele><time>2022-11-16T10:55:31Z</time><name>PT5</name></trkpt>
<trkpt lat="51.599261" lon="03.848068"><ele>-2</ele><time>2022-11-16T10:55:31Z</time><name>PT6</name></trkpt>
<trkpt lat="51.599261" lon="03.848071"><ele>-1.9</ele><time>2022-11-16T10:55:32Z</time><name>PT7</name></trkpt>
<trkpt lat="51.599261" lon="03.848068"><ele>-1.8</ele><time>2022-11-16T10:55:34Z</time><name>PT8</name></trkpt>
<trkpt lat="51.599265" lon="03.848064"><ele>-1.7</ele><time>2022-11-16T10:55:34Z</time><name>PT9</name></trkpt>
<trkpt lat="51.599270" lon="03.848060"><ele>-1.5</ele><time>2022-11-16T10:55:35Z</time><name>PT10</name></trkpt>
<trkpt lat="51.599273" lon="03.848061"><ele>-1.6</ele><time>2022-11-16T10:55:37Z</time><name>PT11</name></trkpt>
<trkpt lat="51.599277" lon="03.848061"><ele>-1.5</ele><time>2022-11-16T10:55:37Z</time><name>PT12</name></trkpt>
<trkpt lat="51.599283" lon="03.848060"><ele>-1.4</ele><time>2022-11-16T10:55:38Z</time><name>PT13</name></trkpt>
<trkpt lat="51.599290" lon="03.848065"><ele>-1.5</ele><time>2022-11-16T10:55:40Z</time><name>PT14</name></trkpt>
<trkpt lat="51.599300" lon="03.848069"><ele>-1.6</ele><time>2022-11-16T10:55:40Z</time><name>PT15</name></trkpt>
<trkpt lat="51.599315" lon="03.848074"><ele>-1.4</ele><time>2022-11-16T10:55:41Z</time><name>PT16</name></trkpt>
<trkpt lat="51.599327" lon="03.848075"><ele>-1.4</ele><time>2022-11-16T10:55:43Z</time><name>PT17</name></trkpt>
<trkpt lat="51.599337" lon="03.848074"><ele>-1.5</ele><time>2022-11-16T10:55:43Z</time><name>PT18</name></trkpt>
<trkpt lat="51.599345" lon="03.848079"><ele>-1.5</ele><time>2022-11-16T10:55:44Z</time><name>PT19</name></trkpt>
<trkpt lat="51.599356" lon="03.848086"><ele>-1.6</ele><time>2022-11-16T10:55:46Z</time><name>PT20</name></trkpt>
<trkpt lat="51.599371" lon="03.848090"><ele>-1.7</ele><time>2022-11-16T10:55:46Z</time><name>PT21</name></trkpt>
<trkpt lat="51.599387" lon="03.848095"><ele>-2</ele><time>2022-11-16T10:55:47Z</time><name>PT22</name></trkpt>
<trkpt lat="51.599404" lon="03.848091"><ele>-2.2</ele><time>2022-11-16T10:55:49Z</time><name>PT23</name></trkpt>
<trkpt lat="51.599421" lon="03.848090"><ele>-2.1</ele><time>2022-11-16T10:55:49Z</time><name>PT24</name></trkpt>
<trkpt lat="51.599438" lon="03.848091"><ele>-2</ele><time>2022-11-16T10:55:50Z</time><name>PT25</name></trkpt>
<trkpt lat="51.599450" lon="03.848097"><ele>-2.1</ele><time>2022-11-16T10:55:52Z</time><name>PT26</name></trkpt>
<trkpt lat="51.599458" lon="03.848106"><ele>-2</ele><time>2022-11-16T10:55:52Z</time><name>PT27</name></trkpt>
<trkpt lat="51.599467" lon="03.848104"><ele>-2.2</ele><time>2022-11-16T10:55:53Z</time><name>PT28</name></trkpt>
<trkpt lat="51.599475" lon="03.848108"><ele>-2.2</ele><time>2022-11-16T10:55:55Z</time><name>PT29</name></trkpt>
<trkpt lat="51.599481" lon="03.848110"><ele>-2.5</ele><time>2022-11-16T10:55:55Z</time><name>PT30</name></trkpt>
<trkpt lat="51.599490" lon="03.848114"><ele>-2.4</ele><time>2022-11-16T10:55:56Z</time><name>PT31</name></trkpt>
<trkpt lat="51.599501" lon="03.848111"><ele>-2.3</ele><time>2022-11-16T10:55:58Z</time><name>PT32</name></trkpt>
<trkpt lat="51.599511" lon="03.848110"><ele>-2.3</ele><time>2022-11-16T10:55:58Z</time><name>PT33</name></trkpt>
<trkpt lat="51.599525" lon="03.848106"><ele>-2.5</ele><time>2022-11-16T10:55:59Z</time><name>PT34</name></trkpt>
<trkpt lat="51.599537" lon="03.848109"><ele>-2.5</ele><time>2022-11-16T10:56:01Z</time><name>PT35</name></trkpt>
<trkpt lat="51.599544" lon="03.848113"><ele>-2.5</ele><time>2022-11-16T10:56:01Z</time><name>PT36</name></trkpt>
<trkpt lat="51.599547" lon="03.848117"><ele>-2.5</ele><time>2022-11-16T10:56:02Z</time><name>PT37</name></trkpt>
<trkpt lat="51.599549" lon="03.848118"><ele>-2.5</ele><time>2022-11-16T10:56:04Z</time><name>PT38</name></trkpt>
<trkpt lat="51.599551" lon="03.848121"><ele>-2.5</ele><time>2022-11-16T10:56:04Z</time><name>PT39</name></trkpt>
<trkpt lat="51.599555" lon="03.848116"><ele>-2.7</ele><time>2022-11-16T10:56:05Z</time><name>PT40</name></trkpt>
<trkpt lat="51.599562" lon="03.848114"><ele>-2.7</ele><time>2022-11-16T10:56:07Z</time><name>PT41</name></trkpt>
<trkpt lat="51.599574" lon="03.848120"><ele>-2.8</ele><time>2022-11-16T10:56:07Z</time><name>PT42</name></trkpt>
<trkpt lat="51.599584" lon="03.848118"><ele>-3</ele><time>2022-11-16T10:56:08Z</time><name>PT43</name></trkpt>
<trkpt lat="51.599594" lon="03.848121"><ele>-3</ele><time>2022-11-16T10:56:10Z</time><name>PT44</name></trkpt>
<trkpt lat="51.599604" lon="03.848120"><ele>-2.8</ele><time>2022-11-16T10:56:10Z</time><name>PT45</name></trkpt>
<trkpt lat="51.599621" lon="03.848110"><ele>-2.8</ele><time>2022-11-16T10:56:11Z</time><name>PT46</name></trkpt>
<trkpt lat="51.599637" lon="03.848112"><ele>-2.5</ele><time>2022-11-16T10:56:13Z</time><name>PT47</name></trkpt>
<trkpt lat="51.599648" lon="03.848113"><ele>-2.3</ele><time>2022-11-16T10:56:13Z</time><name>PT48</name></trkpt>
<trkpt lat="51.599655" lon="03.848112"><ele>-2.2</ele><time>2022-11-16T10:56:14Z</time><name>PT49</name></trkpt>
<trkpt lat="51.599662" lon="03.848112"><ele>-2.1</ele><time>2022-11-16T10:56:16Z</time><name>PT50</name></trkpt>
<trkpt lat="51.599669" lon="03.848104"><ele>-2.3</ele><time>2022-11-16T10:56:16Z</time><name>PT51</name></trkpt>
<trkpt lat="51.599672" lon="03.848091"><ele>-2.4</ele><time>2022-11-16T10:56:17Z</time><name>PT52</name></trkpt>
<trkpt lat="51.599677" lon="03.848090"><ele>-2.4</ele><time>2022-11-16T10:56:19Z</time><name>PT53</name></trkpt>
<trkpt lat="51.599680" lon="03.848090"><ele>-2.5</ele><time>2022-11-16T10:56:19Z</time><name>PT54</name></trkpt>
<trkpt lat="51.599685" lon="03.848083"><ele>-2.5</ele><time>2022-11-16T10:56:20Z</time><name>PT55</name></trkpt>
<trkpt lat="51.599696" lon="03.848077"><ele>-2.4</ele><time>2022-11-16T10:56:22Z</time><name>PT56</name></trkpt>
<trkpt lat="51.599709" lon="03.848078"><ele>-2.5</ele><time>2022-11-16T10:56:22Z</time><name>PT57</name></trkpt>
<trkpt lat="51.599727" lon="03.848083"><ele>-2.5</ele><time>2022-11-16T10:56:23Z</time><name>PT58</name></trkpt>
<trkpt lat="51.599744" lon="03.848073"><ele>-2.6</ele><time>2022-11-16T10:56:25Z</time><name>PT59</name></trkpt>
<trkpt lat="51.599757" lon="03.848057"><ele>-2.7</ele><time>2022-11-16T10:56:25Z</time><name>PT60</name></trkpt>
<trkpt lat="51.599767" lon="03.848049"><ele>-2.7</ele><time>2022-11-16T10:56:26Z</time><name>PT61</name></trkpt>
<trkpt lat="51.599776" lon="03.848046"><ele>-2.7</ele><time>2022-11-16T10:56:28Z</time><name>PT62</name></trkpt>
<trkpt lat="51.599775" lon="03.848037"><ele>-2.6</ele><time>2022-11-16T10:56:28Z</time><name>PT63</name></trkpt>
<trkpt lat="51.599776" lon="03.848012"><ele>-2.5</ele><time>2022-11-16T10:56:29Z</time><name>PT64</name></trkpt>
<trkpt lat="51.599772" lon="03.847997"><ele>-2.5</ele><time>2022-11-16T10:56:31Z</time><name>PT65</name></trkpt>
<trkpt lat="51.599777" lon="03.847983"><ele>-2.5</ele><time>2022-11-16T10:56:31Z</time><name>PT66</name></trkpt>
<trkpt lat="51.599783" lon="03.847959"><ele>-2.6</ele><time>2022-11-16T10:56:32Z</time><name>PT67</name></trkpt>
<trkpt lat="51.599793" lon="03.847945"><ele>-2.6</ele><time>2022-11-16T10:56:34Z</time><name>PT68</name></trkpt>
<trkpt lat="51.599800" lon="03.847932"><ele>-2.5</ele><time>2022-11-16T10:56:34Z</time><name>PT69</name></trkpt>
<trkpt lat="51.599805" lon="03.847918"><ele>-2.4</ele><time>2022-11-16T10:56:35Z</time><name>PT70</name></trkpt>
<trkpt lat="51.599808" lon="03.847902"><ele>-2.1</ele><time>2022-11-16T10:56:37Z</time><name>PT71</name></trkpt>
<trkpt lat="51.599812" lon="03.847884"><ele>-1.9</ele><time>2022-11-16T10:56:37Z</time><name>PT72</name></trkpt>
<trkpt lat="51.599816" lon="03.847875"><ele>-1.7</ele><time>2022-11-16T10:56:38Z</time><name>PT73</name></trkpt>
<trkpt lat="51.599821" lon="03.847867"><ele>-1.8</ele><time>2022-11-16T10:56:40Z</time><name>PT74</name></trkpt>
<trkpt lat="51.599829" lon="03.847861"><ele>-2.1</ele><time>2022-11-16T10:56:43Z</time><name>PT75</name></trkpt>
<trkpt lat="51.599839" lon="03.847858"><ele>-2.4</ele><time>2022-11-16T10:56:44Z</time><name>PT76</name></trkpt>
<trkpt lat="51.599848" lon="03.847854"><ele>-2.2</ele><time>2022-11-16T10:56:46Z</time><name>PT77</name></trkpt>
<trkpt lat="51.599857" lon="03.847848"><ele>-2.3</ele><time>2022-11-16T10:56:46Z</time><name>PT78</name></trkpt>
<trkpt lat="51.599864" lon="03.847843"><ele>-2.4</ele><time>2022-11-16T10:56:47Z</time><name>PT79</name></trkpt>
<trkpt lat="51.599871" lon="03.847841"><ele>-2.1</ele><time>2022-11-16T10:56:49Z</time><name>PT80</name></trkpt>
<trkpt lat="51.599881" lon="03.847842"><ele>-2</ele><time>2022-11-16T10:56:49Z</time><name>PT81</name></trkpt>
<trkpt lat="51.599886" lon="03.847844"><ele>-1.9</ele><time>2022-11-16T10:56:50Z</time><name>PT82</name></trkpt>
<trkpt lat="51.599894" lon="03.847840"><ele>-1.9</ele><time>2022-11-16T10:56:52Z</time><name>PT83</name></trkpt>
<trkpt lat="51.599901" lon="03.847834"><ele>-1.9</ele><time>2022-11-16T10:56:52Z</time><name>PT84</name></trkpt>
<trkpt lat="51.599908" lon="03.847830"><ele>-1.9</ele><time>2022-11-16T10:56:53Z</time><name>PT85</name></trkpt>
<trkpt lat="51.599920" lon="03.847826"><ele>-1.9</ele><time>2022-11-16T10:56:55Z</time><name>PT86</name></trkpt>
<trkpt lat="51.599930" lon="03.847826"><ele>-1.9</ele><time>2022-11-16T10:56:55Z</time><name>PT87</name></trkpt>
<trkpt lat="51.599935" lon="03.847823"><ele>-1.8</ele><time>2022-11-16T10:56:56Z</time><name>PT88</name></trkpt>
<trkpt lat="51.599941" lon="03.847819"><ele>-1.9</ele><time>2022-11-16T10:56:58Z</time><name>PT89</name></trkpt>
<trkpt lat="51.599949" lon="03.847816"><ele>-1.8</ele><time>2022-11-16T10:56:58Z</time><name>PT90</name></trkpt>
<trkpt lat="51.599959" lon="03.847816"><ele>-1.9</ele><time>2022-11-16T10:56:59Z</time><name>PT91</name></trkpt>
<trkpt lat="51.599966" lon="03.847812"><ele>-1.9</ele><time>2022-11-16T10:57:01Z</time><name>PT92</name></trkpt>
<trkpt lat="51.599976" lon="03.847808"><ele>-1.9</ele><time>2022-11-16T10:57:01Z</time><name>PT93</name></trkpt>
<trkpt lat="51.599985" lon="03.847805"><ele>-2</ele><time>2022-11-16T10:57:02Z</time><name>PT94</name></trkpt>
<trkpt lat="51.599999" lon="03.847803"><ele>-1.9</ele><time>2022-11-16T10:57:04Z</time><name>PT95</name></trkpt>
<trkpt lat="51.600006" lon="03.847796"><ele>-1.7</ele><time>2022-11-16T10:57:04Z</time><name>PT96</name></trkpt>
<trkpt lat="51.600015" lon="03.847791"><ele>-1.7</ele><time>2022-11-16T10:57:05Z</time><name>PT97</name></trkpt>
<trkpt lat="51.600019" lon="03.847785"><ele>-1.7</ele><time>2022-11-16T10:57:07Z</time><name>PT98</name></trkpt>
<trkpt lat="51.600025" lon="03.847783"><ele>-1.6</ele><time>2022-11-16T10:57:07Z</time><name>PT99</name></trkpt>
<trkpt lat="51.600031" lon="03.847779"><ele>-1.5</ele><time>2022-11-16T10:57:08Z</time><name>PT100</name></trkpt>
<trkpt lat="51.600040" lon="03.847780"><ele>-1.5</ele><time>2022-11-16T10:57:10Z</time><name>PT101</name></trkpt>
<trkpt lat="51.600045" lon="03.847777"><ele>-1.4</ele><time>2022-11-16T10:57:10Z</time><name>PT102</name></trkpt>
<trkpt lat="51.600052" lon="03.847775"><ele>-1.5</ele><time>2022-11-16T10:57:11Z</time><name>PT103</name></trkpt>
<trkpt lat="51.600060" lon="03.847775"><ele>-1.9</ele><time>2022-11-16T10:57:13Z</time><name>PT104</name></trkpt>
<trkpt lat="51.600070" lon="03.847776"><ele>-1.9</ele><time>2022-11-16T10:57:13Z</time><name>PT105</name></trkpt>
<trkpt lat="51.600079" lon="03.847773"><ele>-2.1</ele><time>2022-11-16T10:57:14Z</time><name>PT106</name></trkpt>
<trkpt lat="51.600089" lon="03.847770"><ele>-2.3</ele><time>2022-11-16T10:57:16Z</time><name>PT107</name></trkpt>
<trkpt lat="51.600099" lon="03.847768"><ele>-2.4</ele><time>2022-11-16T10:57:16Z</time><name>PT108</name></trkpt>
<trkpt lat="51.600113" lon="03.847766"><ele>-2.3</ele><time>2022-11-16T10:57:17Z</time><name>PT109</name></trkpt>
<trkpt lat="51.600130" lon="03.847761"><ele>-2.1</ele><time>2022-11-16T10:57:19Z</time><name>PT110</name></trkpt>
<trkpt lat="51.600144" lon="03.847760"><ele>-2.2</ele><time>2022-11-16T10:57:19Z</time><name>PT111</name></trkpt>
<trkpt lat="51.600158" lon="03.847755"><ele>-2.1</ele><time>2022-11-16T10:57:20Z</time><name>PT112</name></trkpt>
<trkpt lat="51.600169" lon="03.847752"><ele>-2.1</ele><time>2022-11-16T10:57:22Z</time><name>PT113</name></trkpt>
<trkpt lat="51.600180" lon="03.847749"><ele>-2.2</ele><time>2022-11-16T10:57:22Z</time><name>PT114</name></trkpt>
<trkpt lat="51.600192" lon="03.847745"><ele>-2.2</ele><time>2022-11-16T10:57:23Z</time><name>PT115</name></trkpt>
<trkpt lat="51.600206" lon="03.847748"><ele>-2</ele><time>2022-11-16T10:57:25Z</time><name>PT116</name></trkpt>
<trkpt lat="51.600218" lon="03.847751"><ele>-1.9</ele><time>2022-11-16T10:57:25Z</time><name>PT117</name></trkpt>
<trkpt lat="51.600229" lon="03.847747"><ele>-2</ele><time>2022-11-16T10:57:26Z</time><name>PT118</name></trkpt>
<trkpt lat="51.600242" lon="03.847744"><ele>-1.9</ele><time>2022-11-16T10:57:28Z</time><name>PT119</name></trkpt>
<trkpt lat="51.600254" lon="03.847737"><ele>-1.9</ele><time>2022-11-16T10:57:28Z</time><name>PT120</name></trkpt>
<trkpt lat="51.600268" lon="03.847732"><ele>-1.9</ele><time>2022-11-16T10:57:29Z</time><name>PT121</name></trkpt>
<trkpt lat="51.600277" lon="03.847728"><ele>-1.9</ele><time>2022-11-16T10:57:31Z</time><name>PT122</name></trkpt>
<trkpt lat="51.600286" lon="03.847725"><ele>-1.8</ele><time>2022-11-16T10:57:31Z</time><name>PT123</name></trkpt>
<trkpt lat="51.600296" lon="03.847724"><ele>-1.9</ele><time>2022-11-16T10:57:32Z</time><name>PT124</name></trkpt>
<trkpt lat="51.600301" lon="03.847720"><ele>-1.8</ele><time>2022-11-16T10:57:34Z</time><name>PT125</name></trkpt>
<trkpt lat="51.600311" lon="03.847719"><ele>-1.7</ele><time>2022-11-16T10:57:34Z</time><name>PT126</name></trkpt>
<trkpt lat="51.600320" lon="03.847715"><ele>-1.9</ele><time>2022-11-16T10:57:35Z</time><name>PT127</name></trkpt>
<trkpt lat="51.600329" lon="03.847708"><ele>-1.8</ele><time>2022-11-16T10:57:37Z</time><name>PT128</name></trkpt>
<trkpt lat="51.600340" lon="03.847704"><ele>-1.9</ele><time>2022-11-16T10:57:37Z</time><name>PT129</name></trkpt>
<trkpt lat="51.600351" lon="03.847705"><ele>-1.9</ele><time>2022-11-16T10:57:38Z</time><name>PT130</name></trkpt>
<trkpt lat="51.600359" lon="03.847705"><ele>-2</ele><time>2022-11-16T10:57:40Z</time><name>PT131</name></trkpt>
<trkpt lat="51.600369" lon="03.847703"><ele>-1.9</ele><time>2022-11-16T10:57:40Z</time><name>PT132</name></trkpt>
<trkpt lat="51.600379" lon="03.847702"><ele>-1.8</ele><time>2022-11-16T10:57:41Z</time><name>PT133</name></trkpt>
<trkpt lat="51.600388" lon="03.847701"><ele>-1.7</ele><time>2022-11-16T10:57:43Z</time><name>PT134</name></trkpt>
<trkpt lat="51.600399" lon="03.847699"><ele>-1.6</ele><time>2022-11-16T10:57:43Z</time><name>PT135</name></trkpt>
<trkpt lat="51.600408" lon="03.847699"><ele>-1.5</ele><time>2022-11-16T10:57:44Z</time><name>PT136</name></trkpt>
<trkpt lat="51.600414" lon="03.847698"><ele>-1.4</ele><time>2022-11-16T10:57:46Z</time><name>PT137</name></trkpt>
<trkpt lat="51.600418" lon="03.847697"><ele>-1.5</ele><time>2022-11-16T10:57:46Z</time><name>PT138</name></trkpt>
<trkpt lat="51.600421" lon="03.847696"><ele>-1.5</ele><time>2022-11-16T10:57:47Z</time><name>PT139</name></trkpt>
<trkpt lat="51.600422" lon="03.847695"><ele>-1.4</ele><time>2022-11-16T10:57:49Z</time><name>PT140</name></trkpt>
<trkpt lat="51.600427" lon="03.847691"><ele>-1.6</ele><time>2022-11-16T10:57:55Z</time><name>PT141</name></trkpt>
<trkpt lat="51.600444" lon="03.847685"><ele>-1.6</ele><time>2022-11-16T10:57:55Z</time><name>PT142</name></trkpt>
<trkpt lat="51.600461" lon="03.847681"><ele>-1.7</ele><time>2022-11-16T10:57:56Z</time><name>PT143</name></trkpt>
<trkpt lat="51.600475" lon="03.847675"><ele>-1.6</ele><time>2022-11-16T10:57:58Z</time><name>PT144</name></trkpt>
<trkpt lat="51.600493" lon="03.847673"><ele>-1.8</ele><time>2022-11-16T10:57:58Z</time><name>PT145</name></trkpt>
<trkpt lat="51.600507" lon="03.847676"><ele>-1.5</ele><time>2022-11-16T10:57:59Z</time><name>PT146</name></trkpt>
<trkpt lat="51.600517" lon="03.847676"><ele>-1.5</ele><time>2022-11-16T10:58:01Z</time><name>PT147</name></trkpt>
<trkpt lat="51.600528" lon="03.847674"><ele>-1.5</ele><time>2022-11-16T10:58:01Z</time><name>PT148</name></trkpt>
<trkpt lat="51.600539" lon="03.847667"><ele>-1.4</ele><time>2022-11-16T10:58:02Z</time><name>PT149</name></trkpt>
<trkpt lat="51.600552" lon="03.847662"><ele>-1.4</ele><time>2022-11-16T10:58:04Z</time><name>PT150</name></trkpt>
<trkpt lat="51.600562" lon="03.847661"><ele>-1.4</ele><time>2022-11-16T10:58:04Z</time><name>PT151</name></trkpt>
<trkpt lat="51.600568" lon="03.847659"><ele>-1.4</ele><time>2022-11-16T10:58:05Z</time><name>PT152</name></trkpt>
<trkpt lat="51.600576" lon="03.847656"><ele>-1.3</ele><time>2022-11-16T10:58:07Z</time><name>PT153</name></trkpt>
<trkpt lat="51.600581" lon="03.847650"><ele>-1.3</ele><time>2022-11-16T10:58:07Z</time><name>PT154</name></trkpt>
<trkpt lat="51.600589" lon="03.847649"><ele>-1.3</ele><time>2022-11-16T10:58:08Z</time><name>PT155</name></trkpt>
<trkpt lat="51.600598" lon="03.847648"><ele>-1.2</ele><time>2022-11-16T10:58:10Z</time><name>PT156</name></trkpt>
<trkpt lat="51.600603" lon="03.847645"><ele>-1.1</ele><time>2022-11-16T10:58:10Z</time><name>PT157</name></trkpt>
<trkpt lat="51.600608" lon="03.847645"><ele>-1.2</ele><time>2022-11-16T10:58:11Z</time><name>PT158</name></trkpt>
<trkpt lat="51.600611" lon="03.847642"><ele>-1.3</ele><time>2022-11-16T10:58:13Z</time><name>PT159</name></trkpt>
<trkpt lat="51.600613" lon="03.847639"><ele>-1.2</ele><time>2022-11-16T10:58:13Z</time><name>PT160</name></trkpt>
<trkpt lat="51.600617" lon="03.847639"><ele>-1.6</ele><time>2022-11-16T10:59:01Z</time><name>PT161</name></trkpt>
<trkpt lat="51.600622" lon="03.847643"><ele>-1.7</ele><time>2022-11-16T10:59:02Z</time><name>PT162</name></trkpt>
<trkpt lat="51.600623" lon="03.847645"><ele>-1.8</ele><time>2022-11-16T10:59:04Z</time><name>PT163</name></trkpt>
<trkpt lat="51.600624" lon="03.847645"><ele>-1.9</ele><time>2022-11-16T10:59:04Z</time><name>PT164</name></trkpt>
<trkpt lat="51.600624" lon="03.847646"><ele>-1.8</ele><time>2022-11-16T10:59:05Z</time><name>PT165</name></trkpt>
<trkpt lat="51.600628" lon="03.847639"><ele>-1.8</ele><time>2022-11-16T10:59:07Z</time><name>PT166</name></trkpt>
<trkpt lat="51.600630" lon="03.847639"><ele>-1.6</ele><time>2022-11-16T10:59:07Z</time><name>PT167</name></trkpt>
<trkpt lat="51.600636" lon="03.847634"><ele>-1.4</ele><time>2022-11-16T10:59:08Z</time><name>PT168</name></trkpt>
<trkpt lat="51.600641" lon="03.847626"><ele>-1.4</ele><time>2022-11-16T10:59:10Z</time><name>PT169</name></trkpt>
<trkpt lat="51.600644" lon="03.847621"><ele>-1.3</ele><time>2022-11-16T10:59:10Z</time><name>PT170</name></trkpt>
<trkpt lat="51.600645" lon="03.847618"><ele>-1.3</ele><time>2022-11-16T10:59:11Z</time><name>PT171</name></trkpt>
<trkpt lat="51.600646" lon="03.847618"><ele>-1.3</ele><time>2022-11-16T10:59:13Z</time><name>PT172</name></trkpt>
<trkpt lat="51.600646" lon="03.847618"><ele>-1.4</ele><time>2022-11-16T10:59:13Z</time><name>PT173</name></trkpt>
<trkpt lat="51.600652" lon="03.847612"><ele>-1</ele><time>2022-11-16T10:59:55Z</time><name>PT174</name></trkpt>
<trkpt lat="51.600662" lon="03.847610"><ele>-1.3</ele><time>2022-11-16T10:59:55Z</time><name>PT175</name></trkpt>
<trkpt lat="51.600671" lon="03.847604"><ele>-1.4</ele><time>2022-11-16T10:59:56Z</time><name>PT176</name></trkpt>
<trkpt lat="51.600679" lon="03.847605"><ele>-1.2</ele><time>2022-11-16T10:59:58Z</time><name>PT177</name></trkpt>
<trkpt lat="51.600688" lon="03.847608"><ele>-1.1</ele><time>2022-11-16T10:59:58Z</time><name>PT178</name></trkpt>
<trkpt lat="51.600701" lon="03.847609"><ele>-1</ele><time>2022-11-16T10:59:59Z</time><name>PT179</name></trkpt>
<trkpt lat="51.600701" lon="03.847611"><ele>0.8</ele><time>2022-11-16T11:00:01Z</time><name>PT180</name></trkpt>
<trkpt lat="51.600706" lon="03.847613"><ele>0.9</ele><time>2022-11-16T11:00:01Z</time><name>PT181</name></trkpt>
<trkpt lat="51.600712" lon="03.847615"><ele>0.9</ele><time>2022-11-16T11:00:02Z</time><name>PT182</name></trkpt>
<trkpt lat="51.600718" lon="03.847616"><ele>0.8</ele><time>2022-11-16T11:00:04Z</time><name>PT183</name></trkpt>
<trkpt lat="51.600730" lon="03.847615"><ele>0.8</ele><time>2022-11-16T11:00:04Z</time><name>PT184</name></trkpt>
<trkpt lat="51.600738" lon="03.847615"><ele>0.8</ele><time>2022-11-16T11:00:05Z</time><name>PT185</name></trkpt>
<trkpt lat="51.600745" lon="03.847614"><ele>0.7</ele><time>2022-11-16T11:00:07Z</time><name>PT186</name></trkpt>
<trkpt lat="51.600764" lon="03.847611"><ele>0.9</ele><time>2022-11-16T11:00:07Z</time><name>PT187</name></trkpt>
<trkpt lat="51.600782" lon="03.847626"><ele>-1.1</ele><time>2022-11-16T11:00:08Z</time><name>PT188</name></trkpt>
<trkpt lat="51.600790" lon="03.847622"><ele>-1</ele><time>2022-11-16T11:00:10Z</time><name>PT189</name></trkpt>
<trkpt lat="51.600797" lon="03.847618"><ele>-1</ele><time>2022-11-16T11:00:10Z</time><name>PT190</name></trkpt>
<trkpt lat="51.600806" lon="03.847616"><ele>-1.2</ele><time>2022-11-16T11:00:11Z</time><name>PT191</name></trkpt>
<trkpt lat="51.600824" lon="03.847611"><ele>-1</ele><time>2022-11-16T11:00:13Z</time><name>PT192</name></trkpt>
<trkpt lat="51.600845" lon="03.847611"><ele>-1.1</ele><time>2022-11-16T11:00:13Z</time><name>PT193</name></trkpt>
<trkpt lat="51.600860" lon="03.847614"><ele>-1.2</ele><time>2022-11-16T11:00:14Z</time><name>PT194</name></trkpt>
<trkpt lat="51.600870" lon="03.847614"><ele>-1.4</ele><time>2022-11-16T11:00:16Z</time><name>PT195</name></trkpt>
<trkpt lat="51.600877" lon="03.847612"><ele>-1.3</ele><time>2022-11-16T11:00:16Z</time><name>PT196</name></trkpt>
<trkpt lat="51.600881" lon="03.847611"><ele>-1.4</ele><time>2022-11-16T11:00:17Z</time><name>PT197</name></trkpt>
<trkpt lat="51.600890" lon="03.847601"><ele>-1.4</ele><time>2022-11-16T11:00:22Z</time><name>PT198</name></trkpt>
<trkpt lat="51.600912" lon="03.847591"><ele>-1.4</ele><time>2022-11-16T11:00:22Z</time><name>PT199</name></trkpt>
<trkpt lat="51.600931" lon="03.847571"><ele>-1.4</ele><time>2022-11-16T11:00:23Z</time><name>PT200</name></trkpt>
<trkpt lat="51.600951" lon="03.847558"><ele>-1.2</ele><time>2022-11-16T11:00:25Z</time><name>PT201</name></trkpt>
<trkpt lat="51.600971" lon="03.847553"><ele>-1</ele><time>2022-11-16T11:00:25Z</time><name>PT202</name></trkpt>
<trkpt lat="51.600991" lon="03.847546"><ele>-1</ele><time>2022-11-16T11:00:26Z</time><name>PT203</name></trkpt>
<trkpt lat="51.601008" lon="03.847541"><ele>-1</ele><time>2022-11-16T11:00:28Z</time><name>PT204</name></trkpt>
<trkpt lat="51.601024" lon="03.847537"><ele>0.9</ele><time>2022-11-16T11:00:28Z</time><name>PT205</name></trkpt>
<trkpt lat="51.601036" lon="03.847534"><ele>0.9</ele><time>2022-11-16T11:00:29Z</time><name>PT206</name></trkpt>
<trkpt lat="51.601041" lon="03.847534"><ele>-1</ele><time>2022-11-16T11:00:31Z</time><name>PT207</name></trkpt>
<trkpt lat="51.601049" lon="03.847533"><ele>0.9</ele><time>2022-11-16T11:00:31Z</time><name>PT208</name></trkpt>
<trkpt lat="51.601055" lon="03.847539"><ele>0.8</ele><time>2022-11-16T11:00:32Z</time><name>PT209</name></trkpt>
<trkpt lat="51.601061" lon="03.847542"><ele>0.9</ele><time>2022-11-16T11:00:34Z</time><name>PT210</name></trkpt>
<trkpt lat="51.601066" lon="03.847544"><ele>0.9</ele><time>2022-11-16T11:00:34Z</time><name>PT211</name></trkpt>
<trkpt lat="51.601070" lon="03.847543"><ele>0.9</ele><time>2022-11-16T11:00:35Z</time><name>PT212</name></trkpt>
<trkpt lat="51.601076" lon="03.847545"><ele>0.9</ele><time>2022-11-16T11:00:37Z</time><name>PT213</name></trkpt>
<trkpt lat="51.601092" lon="03.847544"><ele>0.9</ele><time>2022-11-16T11:00:37Z</time><name>PT214</name></trkpt>
<trkpt lat="51.601107" lon="03.847539"><ele>0.9</ele><time>2022-11-16T11:00:38Z</time><name>PT215</name></trkpt>
<trkpt lat="51.601125" lon="03.847535"><ele>-1</ele><time>2022-11-16T11:00:40Z</time><name>PT216</name></trkpt>
<trkpt lat="51.601144" lon="03.847532"><ele>-1.1</ele><time>2022-11-16T11:00:40Z</time><name>PT217</name></trkpt>
<trkpt lat="51.601155" lon="03.847533"><ele>-1.1</ele><time>2022-11-16T11:00:41Z</time><name>PT218</name></trkpt>
<trkpt lat="51.601162" lon="03.847532"><ele>-1.1</ele><time>2022-11-16T11:00:43Z</time><name>PT219</name></trkpt>
<trkpt lat="51.601165" lon="03.847533"><ele>-1.2</ele><time>2022-11-16T11:00:43Z</time><name>PT220</name></trkpt>
<trkpt lat="51.601166" lon="03.847535"><ele>0.9</ele><time>2022-11-16T11:00:44Z</time><name>PT221</name></trkpt>
<trkpt lat="51.601170" lon="03.847534"><ele>0.9</ele><time>2022-11-16T11:00:46Z</time><name>PT222</name></trkpt>
<trkpt lat="51.601180" lon="03.847538"><ele>0.9</ele><time>2022-11-16T11:00:46Z</time><name>PT223</name></trkpt>
<trkpt lat="51.601195" lon="03.847532"><ele>0.9</ele><time>2022-11-16T11:00:47Z</time><name>PT224</name></trkpt>
<trkpt lat="51.601211" lon="03.847519"><ele>0.9</ele><time>2022-11-16T11:00:49Z</time><name>PT225</name></trkpt>
<trkpt lat="51.601233" lon="03.847521"><ele>0.7</ele><time>2022-11-16T11:00:49Z</time><name>PT226</name></trkpt>
<trkpt lat="51.601254" lon="03.847522"><ele>0.6</ele><time>2022-11-16T11:00:50Z</time><name>PT227</name></trkpt>
<trkpt lat="51.601272" lon="03.847516"><ele>0.4</ele><time>2022-11-16T11:00:52Z</time><name>PT228</name></trkpt>
<trkpt lat="51.601288" lon="03.847511"><ele>0.4</ele><time>2022-11-16T11:00:52Z</time><name>PT229</name></trkpt>
<trkpt lat="51.601301" lon="03.847513"><ele>0.3</ele><time>2022-11-16T11:00:53Z</time><name>PT230</name></trkpt>
<trkpt lat="51.601308" lon="03.847517"><ele>0.4</ele><time>2022-11-16T11:00:55Z</time><name>PT231</name></trkpt>
<trkpt lat="51.601312" lon="03.847524"><ele>0.4</ele><time>2022-11-16T11:00:55Z</time><name>PT232</name></trkpt>
<trkpt lat="51.601317" lon="03.847531"><ele>0.5</ele><time>2022-11-16T11:00:56Z</time><name>PT233</name></trkpt>
<trkpt lat="51.601322" lon="03.847533"><ele>0.5</ele><time>2022-11-16T11:00:58Z</time><name>PT234</name></trkpt>
<trkpt lat="51.601333" lon="03.847535"><ele>0.5</ele><time>2022-11-16T11:00:58Z</time><name>PT235</name></trkpt>
<trkpt lat="51.601348" lon="03.847533"><ele>0.4</ele><time>2022-11-16T11:00:59Z</time><name>PT236</name></trkpt>
<trkpt lat="51.601366" lon="03.847527"><ele>0.4</ele><time>2022-11-16T11:01:01Z</time><name>PT237</name></trkpt>
<trkpt lat="51.601383" lon="03.847525"><ele>0.3</ele><time>2022-11-16T11:01:01Z</time><name>PT238</name></trkpt>
<trkpt lat="51.601397" lon="03.847530"><ele>0.2</ele><time>2022-11-16T11:01:02Z</time><name>PT239</name></trkpt>
<trkpt lat="51.601407" lon="03.847538"><ele>0.1</ele><time>2022-11-16T11:01:04Z</time><name>PT240</name></trkpt>
<trkpt lat="51.601413" lon="03.847544"><ele>0</ele><time>2022-11-16T11:01:04Z</time><name>PT241</name></trkpt>
<trkpt lat="51.601416" lon="03.847551"><ele>0.1</ele><time>2022-11-16T11:01:05Z</time><name>PT242</name></trkpt>
<trkpt lat="51.601421" lon="03.847558"><ele>0.4</ele><time>2022-11-16T11:01:07Z</time><name>PT243</name></trkpt>
<trkpt lat="51.601427" lon="03.847563"><ele>0.6</ele><time>2022-11-16T11:01:07Z</time><name>PT244</name></trkpt>
<trkpt lat="51.601428" lon="03.847563"><ele>0.7</ele><time>2022-11-16T11:01:08Z</time><name>PT245</name></trkpt>
<trkpt lat="51.601428" lon="03.847562"><ele>0.7</ele><time>2022-11-16T11:01:10Z</time><name>PT246</name></trkpt>
<trkpt lat="51.601428" lon="03.847563"><ele>0.7</ele><time>2022-11-16T11:01:10Z</time><name>PT247</name></trkpt>
<trkpt lat="51.601433" lon="03.847564"><ele>0.8</ele><time>2022-11-16T11:01:13Z</time><name>PT248</name></trkpt>
<trkpt lat="51.601445" lon="03.847570"><ele>0.8</ele><time>2022-11-16T11:01:13Z</time><name>PT249</name></trkpt>
<trkpt lat="51.601453" lon="03.847579"><ele>0.7</ele><time>2022-11-16T11:01:14Z</time><name>PT250</name></trkpt>
<trkpt lat="51.601462" lon="03.847586"><ele>0.8</ele><time>2022-11-16T11:01:16Z</time><name>PT251</name></trkpt>
<trkpt lat="51.601471" lon="03.847593"><ele>1</ele><time>2022-11-16T11:01:16Z</time><name>PT252</name></trkpt>
<trkpt lat="51.601478" lon="03.847599"><ele>1</ele><time>2022-11-16T11:01:17Z</time><name>PT253</name></trkpt>
<trkpt lat="51.601487" lon="03.847602"><ele>1.4</ele><time>2022-11-16T11:01:19Z</time><name>PT254</name></trkpt>
<trkpt lat="51.601496" lon="03.847602"><ele>1.6</ele><time>2022-11-16T11:01:19Z</time><name>PT255</name></trkpt>
<trkpt lat="51.601506" lon="03.847606"><ele>1.6</ele><time>2022-11-16T11:01:20Z</time><name>PT256</name></trkpt>
<trkpt lat="51.601515" lon="03.847613"><ele>1.8</ele><time>2022-11-16T11:01:22Z</time><name>PT257</name></trkpt>
<trkpt lat="51.601525" lon="03.847619"><ele>1.7</ele><time>2022-11-16T11:01:22Z</time><name>PT258</name></trkpt>
<trkpt lat="51.601536" lon="03.847625"><ele>1.6</ele><time>2022-11-16T11:01:23Z</time><name>PT259</name></trkpt>
<trkpt lat="51.601543" lon="03.847632"><ele>1.6</ele><time>2022-11-16T11:01:25Z</time><name>PT260</name></trkpt>
<trkpt lat="51.601550" lon="03.847638"><ele>1.7</ele><time>2022-11-16T11:01:25Z</time><name>PT261</name></trkpt>
<trkpt lat="51.601559" lon="03.847644"><ele>1.9</ele><time>2022-11-16T11:01:26Z</time><name>PT262</name></trkpt>
<trkpt lat="51.601568" lon="03.847650"><ele>2.1</ele><time>2022-11-16T11:01:28Z</time><name>PT263</name></trkpt>
<trkpt lat="51.601577" lon="03.847658"><ele>2</ele><time>2022-11-16T11:01:28Z</time><name>PT264</name></trkpt>
<trkpt lat="51.601583" lon="03.847669"><ele>2.1</ele><time>2022-11-16T11:01:29Z</time><name>PT265</name></trkpt>
<trkpt lat="51.601587" lon="03.847681"><ele>1.8</ele><time>2022-11-16T11:01:31Z</time><name>PT266</name></trkpt>
<trkpt lat="51.601592" lon="03.847693"><ele>1.5</ele><time>2022-11-16T11:01:31Z</time><name>PT267</name></trkpt>
<trkpt lat="51.601597" lon="03.847701"><ele>1.5</ele><time>2022-11-16T11:01:32Z</time><name>PT268</name></trkpt>
<trkpt lat="51.601602" lon="03.847707"><ele>1.3</ele><time>2022-11-16T11:01:34Z</time><name>PT269</name></trkpt>
<trkpt lat="51.601609" lon="03.847714"><ele>1.2</ele><time>2022-11-16T11:01:34Z</time><name>PT270</name></trkpt>
<trkpt lat="51.601617" lon="03.847721"><ele>1.2</ele><time>2022-11-16T11:01:35Z</time><name>PT271</name></trkpt>
<trkpt lat="51.601623" lon="03.847731"><ele>1.2</ele><time>2022-11-16T11:01:37Z</time><name>PT272</name></trkpt>
<trkpt lat="51.601629" lon="03.847742"><ele>1.1</ele><time>2022-11-16T11:01:37Z</time><name>PT273</name></trkpt>
<trkpt lat="51.601633" lon="03.847753"><ele>1.1</ele><time>2022-11-16T11:01:38Z</time><name>PT274</name></trkpt>
<trkpt lat="51.601638" lon="03.847764"><ele>1.1</ele><time>2022-11-16T11:01:40Z</time><name>PT275</name></trkpt>
<trkpt lat="51.601641" lon="03.847777"><ele>1.1</ele><time>2022-11-16T11:01:40Z</time><name>PT276</name></trkpt>
<trkpt lat="51.601647" lon="03.847789"><ele>1.1</ele><time>2022-11-16T11:01:41Z</time><name>PT277</name></trkpt>
<trkpt lat="51.601653" lon="03.847800"><ele>1.1</ele><time>2022-11-16T11:01:43Z</time><name>PT278</name></trkpt>
<trkpt lat="51.601661" lon="03.847809"><ele>1.1</ele><time>2022-11-16T11:01:43Z</time><name>PT279</name></trkpt>
<trkpt lat="51.601668" lon="03.847818"><ele>0.7</ele><time>2022-11-16T11:01:44Z</time><name>PT280</name></trkpt>
<trkpt lat="51.601674" lon="03.847826"><ele>0.7</ele><time>2022-11-16T11:01:46Z</time><name>PT281</name></trkpt>
<trkpt lat="51.601682" lon="03.847833"><ele>0.7</ele><time>2022-11-16T11:01:46Z</time><name>PT282</name></trkpt>
<trkpt lat="51.601692" lon="03.847839"><ele>0.7</ele><time>2022-11-16T11:01:47Z</time><name>PT283</name></trkpt>
<trkpt lat="51.601702" lon="03.847847"><ele>0.7</ele><time>2022-11-16T11:01:49Z</time><name>PT284</name></trkpt>
<trkpt lat="51.601713" lon="03.847853"><ele>0.7</ele><time>2022-11-16T11:01:49Z</time><name>PT285</name></trkpt>
<trkpt lat="51.601737" lon="03.847869"><ele>0</ele><time>2022-11-16T11:01:52Z</time><name>PT286</name></trkpt>
<trkpt lat="51.601749" lon="03.847882"><ele>0.1</ele><time>2022-11-16T11:01:52Z</time><name>PT287</name></trkpt>
<trkpt lat="51.601761" lon="03.847895"><ele>0</ele><time>2022-11-16T11:01:53Z</time><name>PT288</name></trkpt>
<trkpt lat="51.601773" lon="03.847907"><ele>0</ele><time>2022-11-16T11:01:55Z</time><name>PT289</name></trkpt>
<trkpt lat="51.601782" lon="03.847918"><ele>0</ele><time>2022-11-16T11:01:55Z</time><name>PT290</name></trkpt>
<trkpt lat="51.601791" lon="03.847926"><ele>0</ele><time>2022-11-16T11:01:56Z</time><name>PT291</name></trkpt>
<trkpt lat="51.601795" lon="03.847931"><ele>0</ele><time>2022-11-16T11:01:58Z</time><name>PT292</name></trkpt>
<trkpt lat="51.601800" lon="03.847937"><ele>0.1</ele><time>2022-11-16T11:01:58Z</time><name>PT293</name></trkpt>
<trkpt lat="51.601804" lon="03.847943"><ele>0.2</ele><time>2022-11-16T11:01:59Z</time><name>PT294</name></trkpt>
<trkpt lat="51.601811" lon="03.847951"><ele>0.1</ele><time>2022-11-16T11:02:01Z</time><name>PT295</name></trkpt>
<trkpt lat="51.601818" lon="03.847960"><ele>0.1</ele><time>2022-11-16T11:02:01Z</time><name>PT296</name></trkpt>
<trkpt lat="51.601827" lon="03.847969"><ele>0</ele><time>2022-11-16T11:02:02Z</time><name>PT297</name></trkpt>
<trkpt lat="51.601837" lon="03.847978"><ele>0</ele><time>2022-11-16T11:02:04Z</time><name>PT298</name></trkpt>
<trkpt lat="51.601848" lon="03.847987"><ele>0</ele><time>2022-11-16T11:02:04Z</time><name>PT299</name></trkpt>
<trkpt lat="51.601861" lon="03.847999"><ele>0.1</ele><time>2022-11-16T11:02:05Z</time><name>PT300</name></trkpt>
<trkpt lat="51.601875" lon="03.848010"><ele>0.2</ele><time>2022-11-16T11:02:07Z</time><name>PT301</name></trkpt>
<trkpt lat="51.601886" lon="03.848020"><ele>0.1</ele><time>2022-11-16T11:02:07Z</time><name>PT302</name></trkpt>
<trkpt lat="51.601895" lon="03.848029"><ele>0</ele><time>2022-11-16T11:02:08Z</time><name>PT303</name></trkpt>
<trkpt lat="51.601905" lon="03.848039"><ele>0</ele><time>2022-11-16T11:02:10Z</time><name>PT304</name></trkpt>
<trkpt lat="51.601916" lon="03.848050"><ele>0.3</ele><time>2022-11-16T11:02:10Z</time><name>PT305</name></trkpt>
<trkpt lat="51.601926" lon="03.848060"><ele>0.3</ele><time>2022-11-16T11:02:11Z</time><name>PT306</name></trkpt>
<trkpt lat="51.601934" lon="03.848072"><ele>0</ele><time>2022-11-16T11:02:13Z</time><name>PT307</name></trkpt>
<trkpt lat="51.601942" lon="03.848083"><ele>0</ele><time>2022-11-16T11:02:13Z</time><name>PT308</name></trkpt>
<trkpt lat="51.601945" lon="03.848089"><ele>0.2</ele><time>2022-11-16T11:02:14Z</time><name>PT309</name></trkpt>
<trkpt lat="51.601949" lon="03.848093"><ele>0.5</ele><time>2022-11-16T11:02:16Z</time><name>PT310</name></trkpt>
<trkpt lat="51.601955" lon="03.848097"><ele>0.6</ele><time>2022-11-16T11:02:16Z</time><name>PT311</name></trkpt>
<trkpt lat="51.601963" lon="03.848101"><ele>0.7</ele><time>2022-11-16T11:02:17Z</time><name>PT312</name></trkpt>
<trkpt lat="51.601975" lon="03.848106"><ele>0.7</ele><time>2022-11-16T11:02:19Z</time><name>PT313</name></trkpt>
<trkpt lat="51.601986" lon="03.848111"><ele>0.6</ele><time>2022-11-16T11:02:19Z</time><name>PT314</name></trkpt>
<trkpt lat="51.601997" lon="03.848110"><ele>0.2</ele><time>2022-11-16T11:02:20Z</time><name>PT315</name></trkpt>
<trkpt lat="51.602002" lon="03.848111"><ele>0.2</ele><time>2022-11-16T11:02:22Z</time><name>PT316</name></trkpt>
<trkpt lat="51.602006" lon="03.848116"><ele>0.4</ele><time>2022-11-16T11:02:22Z</time><name>PT317</name></trkpt>
<trkpt lat="51.602013" lon="03.848123"><ele>0.6</ele><time>2022-11-16T11:02:23Z</time><name>PT318</name></trkpt>
<trkpt lat="51.602026" lon="03.848130"><ele>0.6</ele><time>2022-11-16T11:02:25Z</time><name>PT319</name></trkpt>
<trkpt lat="51.602038" lon="03.848139"><ele>0.8</ele><time>2022-11-16T11:02:25Z</time><name>PT320</name></trkpt>
<trkpt lat="51.602052" lon="03.848148"><ele>0.6</ele><time>2022-11-16T11:02:26Z</time><name>PT321</name></trkpt>
<trkpt lat="51.602066" lon="03.848158"><ele>0.3</ele><time>2022-11-16T11:02:28Z</time><name>PT322</name></trkpt>
<trkpt lat="51.602075" lon="03.848166"><ele>0.2</ele><time>2022-11-16T11:02:28Z</time><name>PT323</name></trkpt>
<trkpt lat="51.602080" lon="03.848170"><ele>0.4</ele><time>2022-11-16T11:02:29Z</time><name>PT324</name></trkpt>
<trkpt lat="51.602085" lon="03.848175"><ele>0.7</ele><time>2022-11-16T11:02:31Z</time><name>PT325</name></trkpt>
<trkpt lat="51.602091" lon="03.848182"><ele>0.8</ele><time>2022-11-16T11:02:31Z</time><name>PT326</name></trkpt>
<trkpt lat="51.602095" lon="03.848183"><ele>0.7</ele><time>2022-11-16T11:02:32Z</time><name>PT327</name></trkpt>
<trkpt lat="51.602097" lon="03.848180"><ele>0.8</ele><time>2022-11-16T11:02:34Z</time><name>PT328</name></trkpt>
<trkpt lat="51.602105" lon="03.848183"><ele>0.7</ele><time>2022-11-16T11:02:34Z</time><name>PT329</name></trkpt>
<trkpt lat="51.602109" lon="03.848191"><ele>0.4</ele><time>2022-11-16T11:02:35Z</time><name>PT330</name></trkpt>
<trkpt lat="51.602115" lon="03.848198"><ele>0</ele><time>2022-11-16T11:02:37Z</time><name>PT331</name></trkpt>
<trkpt lat="51.602123" lon="03.848201"><ele>0.2</ele><time>2022-11-16T11:02:37Z</time><name>PT332</name></trkpt>
<trkpt lat="51.602124" lon="03.848202"><ele>0.5</ele><time>2022-11-16T11:02:38Z</time><name>PT333</name></trkpt>
<trkpt lat="51.602127" lon="03.848201"><ele>0.7</ele><time>2022-11-16T11:02:40Z</time><name>PT334</name></trkpt>
<trkpt lat="51.602133" lon="03.848201"><ele>0.6</ele><time>2022-11-16T11:02:40Z</time><name>PT335</name></trkpt>
<trkpt lat="51.602138" lon="03.848202"><ele>0.5</ele><time>2022-11-16T11:02:41Z</time><name>PT336</name></trkpt>
<trkpt lat="51.602139" lon="03.848201"><ele>0.5</ele><time>2022-11-16T11:02:43Z</time><name>PT337</name></trkpt>
<trkpt lat="51.602141" lon="03.848198"><ele>0.5</ele><time>2022-11-16T11:02:43Z</time><name>PT338</name></trkpt>
<trkpt lat="51.602145" lon="03.848197"><ele>0.6</ele><time>2022-11-16T11:02:44Z</time><name>PT339</name></trkpt>
<trkpt lat="51.602148" lon="03.848196"><ele>1</ele><time>2022-11-16T11:02:46Z</time><name>PT340</name></trkpt>
<trkpt lat="51.602151" lon="03.848194"><ele>1.2</ele><time>2022-11-16T11:02:46Z</time><name>PT341</name></trkpt>
<trkpt lat="51.602156" lon="03.848196"><ele>1.6</ele><time>2022-11-16T11:02:47Z</time><name>PT342</name></trkpt>
<trkpt lat="51.602162" lon="03.848200"><ele>1.9</ele><time>2022-11-16T11:02:49Z</time><name>PT343</name></trkpt>
<trkpt lat="51.602164" lon="03.848198"><ele>2.1</ele><time>2022-11-16T11:02:49Z</time><name>PT344</name></trkpt>
<trkpt lat="51.602167" lon="03.848197"><ele>2.7</ele><time>2022-11-16T11:02:50Z</time><name>PT345</name></trkpt>
<trkpt lat="51.602171" lon="03.848199"><ele>3.2</ele><time>2022-11-16T11:02:52Z</time><name>PT346</name></trkpt>
<trkpt lat="51.602177" lon="03.848203"><ele>3.4</ele><time>2022-11-16T11:02:52Z</time><name>PT347</name></trkpt>
<trkpt lat="51.602182" lon="03.848205"><ele>3.7</ele><time>2022-11-16T11:02:53Z</time><name>PT348</name></trkpt>
<trkpt lat="51.602185" lon="03.848207"><ele>3.7</ele><time>2022-11-16T11:02:55Z</time><name>PT349</name></trkpt>
<trkpt lat="51.602189" lon="03.848205"><ele>3.4</ele><time>2022-11-16T11:02:55Z</time><name>PT350</name></trkpt>
<trkpt lat="51.602196" lon="03.848205"><ele>3.4</ele><time>2022-11-16T11:02:56Z</time><name>PT351</name></trkpt>
<trkpt lat="51.602202" lon="03.848209"><ele>3.4</ele><time>2022-11-16T11:02:58Z</time><name>PT352</name></trkpt>
<trkpt lat="51.602205" lon="03.848218"><ele>3.4</ele><time>2022-11-16T11:02:58Z</time><name>PT353</name></trkpt>
<trkpt lat="51.602205" lon="03.848228"><ele>3.6</ele><time>2022-11-16T11:02:59Z</time><name>PT354</name></trkpt>
<trkpt lat="51.602205" lon="03.848241"><ele>3.9</ele><time>2022-11-16T11:03:01Z</time><name>PT355</name></trkpt>
<trkpt lat="51.602205" lon="03.848256"><ele>4.1</ele><time>2022-11-16T11:03:01Z</time><name>PT356</name></trkpt>
<trkpt lat="51.602204" lon="03.848281"><ele>4.2</ele><time>2022-11-16T11:03:02Z</time><name>PT357</name></trkpt>
<trkpt lat="51.602203" lon="03.848313"><ele>4.1</ele><time>2022-11-16T11:03:04Z</time><name>PT358</name></trkpt>
<trkpt lat="51.602201" lon="03.848346"><ele>4.3</ele><time>2022-11-16T11:03:04Z</time><name>PT359</name></trkpt>
<trkpt lat="51.602201" lon="03.848364"><ele>4.3</ele><time>2022-11-16T11:03:05Z</time><name>PT360</name></trkpt>
<trkpt lat="51.602200" lon="03.848376"><ele>4.3</ele><time>2022-11-16T11:03:07Z</time><name>PT361</name></trkpt>
<trkpt lat="51.602201" lon="03.848388"><ele>4.3</ele><time>2022-11-16T11:03:07Z</time><name>PT362</name></trkpt>
<trkpt lat="51.602200" lon="03.848403"><ele>4.6</ele><time>2022-11-16T11:03:08Z</time><name>PT363</name></trkpt>
<trkpt lat="51.602200" lon="03.848417"><ele>4.5</ele><time>2022-11-16T11:03:10Z</time><name>PT364</name></trkpt>
<trkpt lat="51.602200" lon="03.848427"><ele>4.6</ele><time>2022-11-16T11:03:10Z</time><name>PT365</name></trkpt>
<trkpt lat="51.602200" lon="03.848430"><ele>4.7</ele><time>2022-11-16T11:03:11Z</time><name>PT366</name></trkpt>
<trkpt lat="51.602198" lon="03.848438"><ele>4.6</ele><time>2022-11-16T11:03:13Z</time><name>PT367</name></trkpt>
<trkpt lat="51.602194" lon="03.848450"><ele>4.7</ele><time>2022-11-16T11:03:13Z</time><name>PT368</name></trkpt>
<trkpt lat="51.602190" lon="03.848463"><ele>4.8</ele><time>2022-11-16T11:03:14Z</time><name>PT369</name></trkpt>
<trkpt lat="51.602184" lon="03.848478"><ele>4.7</ele><time>2022-11-16T11:03:16Z</time><name>PT370</name></trkpt>
<trkpt lat="51.602178" lon="03.848491"><ele>4.8</ele><time>2022-11-16T11:03:16Z</time><name>PT371</name></trkpt>
<trkpt lat="51.602174" lon="03.848503"><ele>4.9</ele><time>2022-11-16T11:03:17Z</time><name>PT372</name></trkpt>
<trkpt lat="51.602173" lon="03.848509"><ele>4.7</ele><time>2022-11-16T11:03:19Z</time><name>PT373</name></trkpt>
<trkpt lat="51.602173" lon="03.848511"><ele>4.7</ele><time>2022-11-16T11:03:19Z</time><name>PT374</name></trkpt>
<trkpt lat="51.602173" lon="03.848511"><ele>4.6</ele><time>2022-11-16T11:03:20Z</time><name>PT375</name></trkpt>
<trkpt lat="51.602172" lon="03.848510"><ele>4.3</ele><time>2022-11-16T11:03:23Z</time><name>PT376</name></trkpt>
<trkpt lat="51.602171" lon="03.848517"><ele>4.3</ele><time>2022-11-16T11:03:25Z</time><name>PT377</name></trkpt>
<trkpt lat="51.602169" lon="03.848522"><ele>4.4</ele><time>2022-11-16T11:03:25Z</time><name>PT378</name></trkpt>
<trkpt lat="51.602165" lon="03.848528"><ele>4.2</ele><time>2022-11-16T11:03:26Z</time><name>PT379</name></trkpt>
<trkpt lat="51.602161" lon="03.848534"><ele>4.1</ele><time>2022-11-16T11:03:28Z</time><name>PT380</name></trkpt>
<trkpt lat="51.602158" lon="03.848542"><ele>4</ele><time>2022-11-16T11:03:28Z</time><name>PT381</name></trkpt>
<trkpt lat="51.602155" lon="03.848548"><ele>3.7</ele><time>2022-11-16T11:03:29Z</time><name>PT382</name></trkpt>
<trkpt lat="51.602152" lon="03.848556"><ele>3.7</ele><time>2022-11-16T11:03:31Z</time><name>PT383</name></trkpt>
<trkpt lat="51.602150" lon="03.848564"><ele>3.9</ele><time>2022-11-16T11:03:31Z</time><name>PT384</name></trkpt>
<trkpt lat="51.602150" lon="03.848569"><ele>3.8</ele><time>2022-11-16T11:03:32Z</time><name>PT385</name></trkpt>
<trkpt lat="51.602149" lon="03.848571"><ele>3.8</ele><time>2022-11-16T11:03:34Z</time><name>PT386</name></trkpt>
<trkpt lat="51.602148" lon="03.848571"><ele>3.7</ele><time>2022-11-16T11:03:34Z</time><name>PT387</name></trkpt>
<trkpt lat="51.602149" lon="03.848576"><ele>4.5</ele><time>2022-11-16T11:03:38Z</time><name>PT388</name></trkpt>
<trkpt lat="51.602146" lon="03.848588"><ele>5.1</ele><time>2022-11-16T11:03:40Z</time><name>PT389</name></trkpt>
<trkpt lat="51.602142" lon="03.848600"><ele>5.3</ele><time>2022-11-16T11:03:40Z</time><name>PT390</name></trkpt>
<trkpt lat="51.602137" lon="03.848613"><ele>5.3</ele><time>2022-11-16T11:03:41Z</time><name>PT391</name></trkpt>
<trkpt lat="51.602130" lon="03.848628"><ele>5.1</ele><time>2022-11-16T11:03:43Z</time><name>PT392</name></trkpt>
<trkpt lat="51.602125" lon="03.848643"><ele>4.9</ele><time>2022-11-16T11:03:43Z</time><name>PT393</name></trkpt>
<trkpt lat="51.602120" lon="03.848659"><ele>4.4</ele><time>2022-11-16T11:03:44Z</time><name>PT394</name></trkpt>
<trkpt lat="51.602116" lon="03.848676"><ele>4.4</ele><time>2022-11-16T11:03:46Z</time><name>PT395</name></trkpt>
<trkpt lat="51.602110" lon="03.848691"><ele>4.4</ele><time>2022-11-16T11:03:46Z</time><name>PT396</name></trkpt>
<trkpt lat="51.602106" lon="03.848706"><ele>4.7</ele><time>2022-11-16T11:03:47Z</time><name>PT397</name></trkpt>
<trkpt lat="51.602101" lon="03.848720"><ele>5.3</ele><time>2022-11-16T11:03:49Z</time><name>PT398</name></trkpt>
<trkpt lat="51.602096" lon="03.848734"><ele>5.5</ele><time>2022-11-16T11:03:49Z</time><name>PT399</name></trkpt>
<trkpt lat="51.602090" lon="03.848749"><ele>5.4</ele><time>2022-11-16T11:03:50Z</time><name>PT400</name></trkpt>
<trkpt lat="51.602083" lon="03.848764"><ele>5.6</ele><time>2022-11-16T11:03:52Z</time><name>PT401</name></trkpt>
<trkpt lat="51.602076" lon="03.848779"><ele>5.6</ele><time>2022-11-16T11:03:52Z</time><name>PT402</name></trkpt>
<trkpt lat="51.602069" lon="03.848795"><ele>5.3</ele><time>2022-11-16T11:03:53Z</time><name>PT403</name></trkpt>
<trkpt lat="51.602063" lon="03.848811"><ele>5.4</ele><time>2022-11-16T11:03:55Z</time><name>PT404</name></trkpt>
<trkpt lat="51.602056" lon="03.848829"><ele>5.3</ele><time>2022-11-16T11:03:55Z</time><name>PT405</name></trkpt>
<trkpt lat="51.602049" lon="03.848847"><ele>5.3</ele><time>2022-11-16T11:03:56Z</time><name>PT406</name></trkpt>
<trkpt lat="51.602044" lon="03.848866"><ele>5.3</ele><time>2022-11-16T11:03:58Z</time><name>PT407</name></trkpt>
<trkpt lat="51.602038" lon="03.848883"><ele>5.2</ele><time>2022-11-16T11:03:58Z</time><name>PT408</name></trkpt>
<trkpt lat="51.602033" lon="03.848898"><ele>5.1</ele><time>2022-11-16T11:03:59Z</time><name>PT409</name></trkpt>
<trkpt lat="51.602029" lon="03.848913"><ele>5.2</ele><time>2022-11-16T11:04:01Z</time><name>PT410</name></trkpt>
<trkpt lat="51.602023" lon="03.848928"><ele>5.3</ele><time>2022-11-16T11:04:01Z</time><name>PT411</name></trkpt>
<trkpt lat="51.602017" lon="03.848941"><ele>5.1</ele><time>2022-11-16T11:04:02Z</time><name>PT412</name></trkpt>
<trkpt lat="51.602011" lon="03.848956"><ele>5</ele><time>2022-11-16T11:04:04Z</time><name>PT413</name></trkpt>
<trkpt lat="51.602006" lon="03.848972"><ele>5</ele><time>2022-11-16T11:04:04Z</time><name>PT414</name></trkpt>
<trkpt lat="51.602000" lon="03.848988"><ele>5.1</ele><time>2022-11-16T11:04:05Z</time><name>PT415</name></trkpt>
<trkpt lat="51.601994" lon="03.849004"><ele>5</ele><time>2022-11-16T11:04:07Z</time><name>PT416</name></trkpt>
<trkpt lat="51.601989" lon="03.849019"><ele>5.1</ele><time>2022-11-16T11:04:07Z</time><name>PT417</name></trkpt>
<trkpt lat="51.601982" lon="03.849034"><ele>5.3</ele><time>2022-11-16T11:04:08Z</time><name>PT418</name></trkpt>
<trkpt lat="51.601975" lon="03.849050"><ele>5.2</ele><time>2022-11-16T11:04:10Z</time><name>PT419</name></trkpt>
<trkpt lat="51.601970" lon="03.849066"><ele>5.2</ele><time>2022-11-16T11:04:10Z</time><name>PT420</name></trkpt>
<trkpt lat="51.601962" lon="03.849084"><ele>4.8</ele><time>2022-11-16T11:04:11Z</time><name>PT421</name></trkpt>
<trkpt lat="51.601955" lon="03.849102"><ele>4.8</ele><time>2022-11-16T11:04:13Z</time><name>PT422</name></trkpt>
<trkpt lat="51.601949" lon="03.849119"><ele>4.7</ele><time>2022-11-16T11:04:13Z</time><name>PT423</name></trkpt>
<trkpt lat="51.601941" lon="03.849136"><ele>4.6</ele><time>2022-11-16T11:04:14Z</time><name>PT424</name></trkpt>
<trkpt lat="51.601934" lon="03.849152"><ele>4.5</ele><time>2022-11-16T11:04:16Z</time><name>PT425</name></trkpt>
<trkpt lat="51.601928" lon="03.849170"><ele>4.6</ele><time>2022-11-16T11:04:16Z</time><name>PT426</name></trkpt>
<trkpt lat="51.601923" lon="03.849187"><ele>4.6</ele><time>2022-11-16T11:04:17Z</time><name>PT427</name></trkpt>
<trkpt lat="51.601917" lon="03.849204"><ele>4.7</ele><time>2022-11-16T11:04:19Z</time><name>PT428</name></trkpt>
<trkpt lat="51.601912" lon="03.849222"><ele>4.7</ele><time>2022-11-16T11:04:19Z</time><name>PT429</name></trkpt>
<trkpt lat="51.601909" lon="03.849238"><ele>4.9</ele><time>2022-11-16T11:04:20Z</time><name>PT430</name></trkpt>
<trkpt lat="51.601905" lon="03.849252"><ele>5.1</ele><time>2022-11-16T11:04:22Z</time><name>PT431</name></trkpt>
<trkpt lat="51.601902" lon="03.849267"><ele>5.2</ele><time>2022-11-16T11:04:22Z</time><name>PT432</name></trkpt>
<trkpt lat="51.601898" lon="03.849283"><ele>5.3</ele><time>2022-11-16T11:04:23Z</time><name>PT433</name></trkpt>
<trkpt lat="51.601893" lon="03.849298"><ele>5.3</ele><time>2022-11-16T11:04:25Z</time><name>PT434</name></trkpt>
<trkpt lat="51.601889" lon="03.849312"><ele>5.3</ele><time>2022-11-16T11:04:25Z</time><name>PT435</name></trkpt>
<trkpt lat="51.601884" lon="03.849327"><ele>5.3</ele><time>2022-11-16T11:04:26Z</time><name>PT436</name></trkpt>
<trkpt lat="51.601878" lon="03.849342"><ele>5.3</ele><time>2022-11-16T11:04:28Z</time><name>PT437</name></trkpt>
<trkpt lat="51.601872" lon="03.849358"><ele>5.3</ele><time>2022-11-16T11:04:28Z</time><name>PT438</name></trkpt>
<trkpt lat="51.601866" lon="03.849374"><ele>5.3</ele><time>2022-11-16T11:04:29Z</time><name>PT439</name></trkpt>
<trkpt lat="51.601859" lon="03.849390"><ele>5.3</ele><time>2022-11-16T11:04:31Z</time><name>PT440</name></trkpt>
<trkpt lat="51.601851" lon="03.849406"><ele>5.2</ele><time>2022-11-16T11:04:31Z</time><name>PT441</name></trkpt>
<trkpt lat="51.601844" lon="03.849423"><ele>5.3</ele><time>2022-11-16T11:04:32Z</time><name>PT442</name></trkpt>
<trkpt lat="51.601835" lon="03.849439"><ele>5.3</ele><time>2022-11-16T11:04:34Z</time><name>PT443</name></trkpt>
<trkpt lat="51.601828" lon="03.849455"><ele>5.4</ele><time>2022-11-16T11:04:34Z</time><name>PT444</name></trkpt>
<trkpt lat="51.601821" lon="03.849471"><ele>5.5</ele><time>2022-11-16T11:04:35Z</time><name>PT445</name></trkpt>
<trkpt lat="51.601815" lon="03.849489"><ele>5.5</ele><time>2022-11-16T11:04:37Z</time><name>PT446</name></trkpt>
<trkpt lat="51.601808" lon="03.849507"><ele>5.6</ele><time>2022-11-16T11:04:37Z</time><name>PT447</name></trkpt>
<trkpt lat="51.601802" lon="03.849525"><ele>5.5</ele><time>2022-11-16T11:04:38Z</time><name>PT448</name></trkpt>
<trkpt lat="51.601797" lon="03.849542"><ele>5.4</ele><time>2022-11-16T11:04:40Z</time><name>PT449</name></trkpt>
<trkpt lat="51.601790" lon="03.849560"><ele>5.3</ele><time>2022-11-16T11:04:40Z</time><name>PT450</name></trkpt>
<trkpt lat="51.601784" lon="03.849576"><ele>5.3</ele><time>2022-11-16T11:04:41Z</time><name>PT451</name></trkpt>
<trkpt lat="51.601780" lon="03.849593"><ele>5.2</ele><time>2022-11-16T11:04:43Z</time><name>PT452</name></trkpt>
<trkpt lat="51.601779" lon="03.849610"><ele>5.2</ele><time>2022-11-16T11:04:43Z</time><name>PT453</name></trkpt>
<trkpt lat="51.601775" lon="03.849625"><ele>5</ele><time>2022-11-16T11:04:44Z</time><name>PT454</name></trkpt>
<trkpt lat="51.601769" lon="03.849640"><ele>5</ele><time>2022-11-16T11:04:46Z</time><name>PT455</name></trkpt>
<trkpt lat="51.601763" lon="03.849655"><ele>4.9</ele><time>2022-11-16T11:04:46Z</time><name>PT456</name></trkpt>
<trkpt lat="51.601758" lon="03.849672"><ele>4.7</ele><time>2022-11-16T11:04:47Z</time><name>PT457</name></trkpt>
<trkpt lat="51.601752" lon="03.849689"><ele>4.7</ele><time>2022-11-16T11:04:49Z</time><name>PT458</name></trkpt>
<trkpt lat="51.601747" lon="03.849704"><ele>4.7</ele><time>2022-11-16T11:04:49Z</time><name>PT459</name></trkpt>
<trkpt lat="51.601741" lon="03.849721"><ele>4.8</ele><time>2022-11-16T11:04:50Z</time><name>PT460</name></trkpt>
<trkpt lat="51.601734" lon="03.849738"><ele>4.9</ele><time>2022-11-16T11:04:52Z</time><name>PT461</name></trkpt>
<trkpt lat="51.601728" lon="03.849756"><ele>4.9</ele><time>2022-11-16T11:04:52Z</time><name>PT462</name></trkpt>
<trkpt lat="51.601722" lon="03.849773"><ele>5</ele><time>2022-11-16T11:04:53Z</time><name>PT463</name></trkpt>
<trkpt lat="51.601716" lon="03.849791"><ele>5.1</ele><time>2022-11-16T11:04:55Z</time><name>PT464</name></trkpt>
<trkpt lat="51.601711" lon="03.849809"><ele>5.3</ele><time>2022-11-16T11:04:55Z</time><name>PT465</name></trkpt>
<trkpt lat="51.601706" lon="03.849827"><ele>5.4</ele><time>2022-11-16T11:04:56Z</time><name>PT466</name></trkpt>
<trkpt lat="51.601702" lon="03.849846"><ele>5.5</ele><time>2022-11-16T11:04:58Z</time><name>PT467</name></trkpt>
<trkpt lat="51.601699" lon="03.849866"><ele>5.7</ele><time>2022-11-16T11:04:58Z</time><name>PT468</name></trkpt>
<trkpt lat="51.601696" lon="03.849885"><ele>5.5</ele><time>2022-11-16T11:04:59Z</time><name>PT469</name></trkpt>
<trkpt lat="51.601692" lon="03.849903"><ele>5.4</ele><time>2022-11-16T11:05:01Z</time><name>PT470</name></trkpt>
<trkpt lat="51.601689" lon="03.849921"><ele>5.4</ele><time>2022-11-16T11:05:01Z</time><name>PT471</name></trkpt>
<trkpt lat="51.601687" lon="03.849937"><ele>5.3</ele><time>2022-11-16T11:05:02Z</time><name>PT472</name></trkpt>
<trkpt lat="51.601683" lon="03.849955"><ele>5.3</ele><time>2022-11-16T11:05:04Z</time><name>PT473</name></trkpt>
<trkpt lat="51.601680" lon="03.849974"><ele>5.3</ele><time>2022-11-16T11:05:04Z</time><name>PT474</name></trkpt>
<trkpt lat="51.601676" lon="03.849992"><ele>5.4</ele><time>2022-11-16T11:05:05Z</time><name>PT475</name></trkpt>
<trkpt lat="51.601673" lon="03.850011"><ele>5.4</ele><time>2022-11-16T11:05:07Z</time><name>PT476</name></trkpt>
<trkpt lat="51.601670" lon="03.850029"><ele>5.6</ele><time>2022-11-16T11:05:07Z</time><name>PT477</name></trkpt>
<trkpt lat="51.601666" lon="03.850049"><ele>5.8</ele><time>2022-11-16T11:05:08Z</time><name>PT478</name></trkpt>
<trkpt lat="51.601662" lon="03.850069"><ele>6</ele><time>2022-11-16T11:05:10Z</time><name>PT479</name></trkpt>
<trkpt lat="51.601658" lon="03.850087"><ele>6</ele><time>2022-11-16T11:05:10Z</time><name>PT480</name></trkpt>
<trkpt lat="51.601653" lon="03.850105"><ele>6.1</ele><time>2022-11-16T11:05:11Z</time><name>PT481</name></trkpt>
<trkpt lat="51.601650" lon="03.850124"><ele>6</ele><time>2022-11-16T11:05:13Z</time><name>PT482</name></trkpt>
<trkpt lat="51.601647" lon="03.850142"><ele>6.1</ele><time>2022-11-16T11:05:13Z</time><name>PT483</name></trkpt>
<trkpt lat="51.601646" lon="03.850160"><ele>5.9</ele><time>2022-11-16T11:05:14Z</time><name>PT484</name></trkpt>
<trkpt lat="51.601644" lon="03.850179"><ele>5.8</ele><time>2022-11-16T11:05:16Z</time><name>PT485</name></trkpt>
<trkpt lat="51.601642" lon="03.850199"><ele>5.8</ele><time>2022-11-16T11:05:16Z</time><name>PT486</name></trkpt>
<trkpt lat="51.601641" lon="03.850219"><ele>5.8</ele><time>2022-11-16T11:05:17Z</time><name>PT487</name></trkpt>
<trkpt lat="51.601638" lon="03.850241"><ele>5.7</ele><time>2022-11-16T11:05:19Z</time><name>PT488</name></trkpt>
<trkpt lat="51.601637" lon="03.850262"><ele>5.7</ele><time>2022-11-16T11:05:19Z</time><name>PT489</name></trkpt>
<trkpt lat="51.601635" lon="03.850281"><ele>5.6</ele><time>2022-11-16T11:05:20Z</time><name>PT490</name></trkpt>
<trkpt lat="51.601633" lon="03.850300"><ele>5.6</ele><time>2022-11-16T11:05:22Z</time><name>PT491</name></trkpt>
<trkpt lat="51.601632" lon="03.850318"><ele>5.8</ele><time>2022-11-16T11:05:22Z</time><name>PT492</name></trkpt>
<trkpt lat="51.601629" lon="03.850336"><ele>5.6</ele><time>2022-11-16T11:05:23Z</time><name>PT493</name></trkpt>
<trkpt lat="51.601625" lon="03.850353"><ele>5.7</ele><time>2022-11-16T11:05:25Z</time><name>PT494</name></trkpt>
<trkpt lat="51.601622" lon="03.850371"><ele>5.7</ele><time>2022-11-16T11:05:25Z</time><name>PT495</name></trkpt>
<trkpt lat="51.601620" lon="03.850389"><ele>5.8</ele><time>2022-11-16T11:05:26Z</time><name>PT496</name></trkpt>
<trkpt lat="51.601616" lon="03.850408"><ele>5.8</ele><time>2022-11-16T11:05:28Z</time><name>PT497</name></trkpt>
<trkpt lat="51.601613" lon="03.850429"><ele>5.8</ele><time>2022-11-16T11:05:28Z</time><name>PT498</name></trkpt>
<trkpt lat="51.601609" lon="03.850447"><ele>5.7</ele><time>2022-11-16T11:05:29Z</time><name>PT499</name></trkpt>
<trkpt lat="51.601605" lon="03.850463"><ele>5.5</ele><time>2022-11-16T11:05:31Z</time><name>PT500</name></trkpt>
<trkpt lat="51.601602" lon="03.850481"><ele>5.4</ele><time>2022-11-16T11:05:31Z</time><name>PT501</name></trkpt>
<trkpt lat="51.601600" lon="03.850500"><ele>5.6</ele><time>2022-11-16T11:05:32Z</time><name>PT502</name></trkpt>
<trkpt lat="51.601598" lon="03.850519"><ele>5.8</ele><time>2022-11-16T11:05:34Z</time><name>PT503</name></trkpt>
<trkpt lat="51.601596" lon="03.850536"><ele>5.6</ele><time>2022-11-16T11:05:34Z</time><name>PT504</name></trkpt>
<trkpt lat="51.601594" lon="03.850553"><ele>5.8</ele><time>2022-11-16T11:05:35Z</time><name>PT505</name></trkpt>
<trkpt lat="51.601592" lon="03.850569"><ele>5.8</ele><time>2022-11-16T11:05:37Z</time><name>PT506</name></trkpt>
<trkpt lat="51.601589" lon="03.850585"><ele>5.8</ele><time>2022-11-16T11:05:37Z</time><name>PT507</name></trkpt>
<trkpt lat="51.601586" lon="03.850603"><ele>5.6</ele><time>2022-11-16T11:05:38Z</time><name>PT508</name></trkpt>
<trkpt lat="51.601583" lon="03.850621"><ele>5.6</ele><time>2022-11-16T11:05:40Z</time><name>PT509</name></trkpt>
<trkpt lat="51.601581" lon="03.850640"><ele>5.5</ele><time>2022-11-16T11:05:40Z</time><name>PT510</name></trkpt>
<trkpt lat="51.601579" lon="03.850655"><ele>5.4</ele><time>2022-11-16T11:05:41Z</time><name>PT511</name></trkpt>
<trkpt lat="51.601575" lon="03.850671"><ele>5.5</ele><time>2022-11-16T11:05:43Z</time><name>PT512</name></trkpt>
<trkpt lat="51.601572" lon="03.850689"><ele>5.6</ele><time>2022-11-16T11:05:43Z</time><name>PT513</name></trkpt>
<trkpt lat="51.601569" lon="03.850707"><ele>5.6</ele><time>2022-11-16T11:05:44Z</time><name>PT514</name></trkpt>
<trkpt lat="51.601567" lon="03.850728"><ele>5.6</ele><time>2022-11-16T11:05:46Z</time><name>PT515</name></trkpt>
<trkpt lat="51.601567" lon="03.850748"><ele>5.6</ele><time>2022-11-16T11:05:46Z</time><name>PT516</name></trkpt>
<trkpt lat="51.601565" lon="03.850769"><ele>5.5</ele><time>2022-11-16T11:05:47Z</time><name>PT517</name></trkpt>
<trkpt lat="51.601564" lon="03.850788"><ele>5.6</ele><time>2022-11-16T11:05:49Z</time><name>PT518</name></trkpt>
<trkpt lat="51.601562" lon="03.850804"><ele>5.6</ele><time>2022-11-16T11:05:49Z</time><name>PT519</name></trkpt>
<trkpt lat="51.601559" lon="03.850822"><ele>5.6</ele><time>2022-11-16T11:05:50Z</time><name>PT520</name></trkpt>
<trkpt lat="51.601556" lon="03.850840"><ele>5.7</ele><time>2022-11-16T11:05:52Z</time><name>PT521</name></trkpt>
<trkpt lat="51.601553" lon="03.850860"><ele>5.7</ele><time>2022-11-16T11:05:52Z</time><name>PT522</name></trkpt>
<trkpt lat="51.601549" lon="03.850880"><ele>5.7</ele><time>2022-11-16T11:05:53Z</time><name>PT523</name></trkpt>
<trkpt lat="51.601545" lon="03.850900"><ele>5.8</ele><time>2022-11-16T11:05:55Z</time><name>PT524</name></trkpt>
<trkpt lat="51.601541" lon="03.850920"><ele>5.8</ele><time>2022-11-16T11:05:55Z</time><name>PT525</name></trkpt>
<trkpt lat="51.601538" lon="03.850937"><ele>5.8</ele><time>2022-11-16T11:05:56Z</time><name>PT526</name></trkpt>
<trkpt lat="51.601536" lon="03.850957"><ele>5.9</ele><time>2022-11-16T11:05:58Z</time><name>PT527</name></trkpt>
<trkpt lat="51.601535" lon="03.850977"><ele>5.8</ele><time>2022-11-16T11:05:58Z</time><name>PT528</name></trkpt>
<trkpt lat="51.601533" lon="03.850996"><ele>6</ele><time>2022-11-16T11:05:59Z</time><name>PT529</name></trkpt>
<trkpt lat="51.601532" lon="03.851015"><ele>6.1</ele><time>2022-11-16T11:06:01Z</time><name>PT530</name></trkpt>
<trkpt lat="51.601532" lon="03.851034"><ele>6.2</ele><time>2022-11-16T11:06:01Z</time><name>PT531</name></trkpt>
<trkpt lat="51.601531" lon="03.851051"><ele>6.3</ele><time>2022-11-16T11:06:02Z</time><name>PT532</name></trkpt>
<trkpt lat="51.601531" lon="03.851061"><ele>6.6</ele><time>2022-11-16T11:06:04Z</time><name>PT533</name></trkpt>
<trkpt lat="51.601530" lon="03.851070"><ele>6.5</ele><time>2022-11-16T11:06:04Z</time><name>PT534</name></trkpt>
<trkpt lat="51.601527" lon="03.851085"><ele>6.3</ele><time>2022-11-16T11:06:05Z</time><name>PT535</name></trkpt>
<trkpt lat="51.601525" lon="03.851100"><ele>6.3</ele><time>2022-11-16T11:06:07Z</time><name>PT536</name></trkpt>
<trkpt lat="51.601524" lon="03.851116"><ele>6.2</ele><time>2022-11-16T11:06:07Z</time><name>PT537</name></trkpt>
<trkpt lat="51.601523" lon="03.851133"><ele>5.9</ele><time>2022-11-16T11:06:08Z</time><name>PT538</name></trkpt>
<trkpt lat="51.601523" lon="03.851151"><ele>6</ele><time>2022-11-16T11:06:10Z</time><name>PT539</name></trkpt>
<trkpt lat="51.601521" lon="03.851166"><ele>6</ele><time>2022-11-16T11:06:10Z</time><name>PT540</name></trkpt>
<trkpt lat="51.601517" lon="03.851180"><ele>6.1</ele><time>2022-11-16T11:06:11Z</time><name>PT541</name></trkpt>
<trkpt lat="51.601515" lon="03.851195"><ele>6.3</ele><time>2022-11-16T11:06:13Z</time><name>PT542</name></trkpt>
<trkpt lat="51.601512" lon="03.851211"><ele>6.5</ele><time>2022-11-16T11:06:13Z</time><name>PT543</name></trkpt>
<trkpt lat="51.601509" lon="03.851226"><ele>6.5</ele><time>2022-11-16T11:06:14Z</time><name>PT544</name></trkpt>
<trkpt lat="51.601507" lon="03.851239"><ele>6.7</ele><time>2022-11-16T11:06:16Z</time><name>PT545</name></trkpt>
<trkpt lat="51.601505" lon="03.851255"><ele>6.7</ele><time>2022-11-16T11:06:16Z</time><name>PT546</name></trkpt>
<trkpt lat="51.601503" lon="03.851273"><ele>6.8</ele><time>2022-11-16T11:06:17Z</time><name>PT547</name></trkpt>
<trkpt lat="51.601500" lon="03.851291"><ele>6.9</ele><time>2022-11-16T11:06:19Z</time><name>PT548</name></trkpt>
<trkpt lat="51.601498" lon="03.851305"><ele>7.1</ele><time>2022-11-16T11:06:19Z</time><name>PT549</name></trkpt>
<trkpt lat="51.601496" lon="03.851317"><ele>7.2</ele><time>2022-11-16T11:06:20Z</time><name>PT550</name></trkpt>
<trkpt lat="51.601495" lon="03.851328"><ele>7.1</ele><time>2022-11-16T11:06:22Z</time><name>PT551</name></trkpt>
<trkpt lat="51.601493" lon="03.851342"><ele>7.2</ele><time>2022-11-16T11:06:22Z</time><name>PT552</name></trkpt>
<trkpt lat="51.601494" lon="03.851360"><ele>7.4</ele><time>2022-11-16T11:06:23Z</time><name>PT553</name></trkpt>
<trkpt lat="51.601492" lon="03.851379"><ele>7.3</ele><time>2022-11-16T11:06:25Z</time><name>PT554</name></trkpt>
<trkpt lat="51.601490" lon="03.851395"><ele>7.4</ele><time>2022-11-16T11:06:25Z</time><name>PT555</name></trkpt>
<trkpt lat="51.601488" lon="03.851411"><ele>7.7</ele><time>2022-11-16T11:06:26Z</time><name>PT556</name></trkpt>
<trkpt lat="51.601486" lon="03.851424"><ele>7.6</ele><time>2022-11-16T11:06:28Z</time><name>PT557</name></trkpt>
<trkpt lat="51.601482" lon="03.851437"><ele>7.6</ele><time>2022-11-16T11:06:28Z</time><name>PT558</name></trkpt>
<trkpt lat="51.601478" lon="03.851451"><ele>7.7</ele><time>2022-11-16T11:06:29Z</time><name>PT559</name></trkpt>
<trkpt lat="51.601476" lon="03.851463"><ele>7.8</ele><time>2022-11-16T11:06:31Z</time><name>PT560</name></trkpt>
<trkpt lat="51.601476" lon="03.851471"><ele>7.9</ele><time>2022-11-16T11:06:31Z</time><name>PT561</name></trkpt>
<trkpt lat="51.601476" lon="03.851474"><ele>7.9</ele><time>2022-11-16T11:06:32Z</time><name>PT562</name></trkpt>
<trkpt lat="51.601475" lon="03.851476"><ele>8</ele><time>2022-11-16T11:06:34Z</time><name>PT563</name></trkpt>
<trkpt lat="51.601474" lon="03.851484"><ele>8.1</ele><time>2022-11-16T11:06:34Z</time><name>PT564</name></trkpt>
<trkpt lat="51.601470" lon="03.851497"><ele>8</ele><time>2022-11-16T11:06:35Z</time><name>PT565</name></trkpt>
<trkpt lat="51.601468" lon="03.851510"><ele>7.9</ele><time>2022-11-16T11:06:37Z</time><name>PT566</name></trkpt>
<trkpt lat="51.601467" lon="03.851520"><ele>7.9</ele><time>2022-11-16T11:06:37Z</time><name>PT567</name></trkpt>
<trkpt lat="51.601467" lon="03.851524"><ele>7.8</ele><time>2022-11-16T11:06:38Z</time><name>PT568</name></trkpt>
<trkpt lat="51.601467" lon="03.851524"><ele>7.8</ele><time>2022-11-16T11:06:40Z</time><name>PT569</name></trkpt>
<trkpt lat="51.601467" lon="03.851524"><ele>7.6</ele><time>2022-11-16T11:06:40Z</time><name>PT570</name></trkpt>
<trkpt lat="51.601457" lon="03.851502"><ele>6.9</ele><time>2022-11-16T11:07:11Z</time><name>PT571</name></trkpt>
<trkpt lat="51.601454" lon="03.851517"><ele>7.1</ele><time>2022-11-16T11:07:13Z</time><name>PT572</name></trkpt>
<trkpt lat="51.601452" lon="03.851530"><ele>7.3</ele><time>2022-11-16T11:07:13Z</time><name>PT573</name></trkpt>
<trkpt lat="51.601451" lon="03.851543"><ele>7.4</ele><time>2022-11-16T11:07:14Z</time><name>PT574</name></trkpt>
<trkpt lat="51.601449" lon="03.851557"><ele>7.5</ele><time>2022-11-16T11:07:16Z</time><name>PT575</name></trkpt>
<trkpt lat="51.601446" lon="03.851573"><ele>7.4</ele><time>2022-11-16T11:07:16Z</time><name>PT576</name></trkpt>
<trkpt lat="51.601444" lon="03.851584"><ele>7.5</ele><time>2022-11-16T11:07:17Z</time><name>PT577</name></trkpt>
<trkpt lat="51.601443" lon="03.851587"><ele>7.4</ele><time>2022-11-16T11:07:19Z</time><name>PT578</name></trkpt>
<trkpt lat="51.601442" lon="03.851588"><ele>7.4</ele><time>2022-11-16T11:07:19Z</time><name>PT579</name></trkpt>
<trkpt lat="51.601440" lon="03.851589"><ele>7.4</ele><time>2022-11-16T11:07:20Z</time><name>PT580</name></trkpt>
<trkpt lat="51.601438" lon="03.851595"><ele>7.8</ele><time>2022-11-16T11:07:22Z</time><name>PT581</name></trkpt>
<trkpt lat="51.601436" lon="03.851615"><ele>7.9</ele><time>2022-11-16T11:07:23Z</time><name>PT582</name></trkpt>
<trkpt lat="51.601432" lon="03.851633"><ele>8</ele><time>2022-11-16T11:07:25Z</time><name>PT583</name></trkpt>
<trkpt lat="51.601428" lon="03.851653"><ele>8</ele><time>2022-11-16T11:07:25Z</time><name>PT584</name></trkpt>
<trkpt lat="51.601424" lon="03.851673"><ele>7.8</ele><time>2022-11-16T11:07:26Z</time><name>PT585</name></trkpt>
<trkpt lat="51.601422" lon="03.851693"><ele>7.7</ele><time>2022-11-16T11:07:28Z</time><name>PT586</name></trkpt>
<trkpt lat="51.601419" lon="03.851711"><ele>7.6</ele><time>2022-11-16T11:07:28Z</time><name>PT587</name></trkpt>
<trkpt lat="51.601416" lon="03.851731"><ele>7.4</ele><time>2022-11-16T11:07:29Z</time><name>PT588</name></trkpt>
<trkpt lat="51.601413" lon="03.851749"><ele>7.2</ele><time>2022-11-16T11:07:31Z</time><name>PT589</name></trkpt>
<trkpt lat="51.601411" lon="03.851763"><ele>7.3</ele><time>2022-11-16T11:07:31Z</time><name>PT590</name></trkpt>
<trkpt lat="51.601410" lon="03.851780"><ele>7.2</ele><time>2022-11-16T11:07:32Z</time><name>PT591</name></trkpt>
<trkpt lat="51.601410" lon="03.851799"><ele>7.3</ele><time>2022-11-16T11:07:34Z</time><name>PT592</name></trkpt>
<trkpt lat="51.601408" lon="03.851818"><ele>7.2</ele><time>2022-11-16T11:07:34Z</time><name>PT593</name></trkpt>
<trkpt lat="51.601407" lon="03.851837"><ele>7.1</ele><time>2022-11-16T11:07:35Z</time><name>PT594</name></trkpt>
<trkpt lat="51.601404" lon="03.851856"><ele>7.1</ele><time>2022-11-16T11:07:37Z</time><name>PT595</name></trkpt>
<trkpt lat="51.601401" lon="03.851878"><ele>7</ele><time>2022-11-16T11:07:37Z</time><name>PT596</name></trkpt>
<trkpt lat="51.601399" lon="03.851895"><ele>6.9</ele><time>2022-11-16T11:07:38Z</time><name>PT597</name></trkpt>
<trkpt lat="51.601399" lon="03.851914"><ele>6.9</ele><time>2022-11-16T11:07:40Z</time><name>PT598</name></trkpt>
<trkpt lat="51.601397" lon="03.851932"><ele>7</ele><time>2022-11-16T11:07:40Z</time><name>PT599</name></trkpt>
<trkpt lat="51.601396" lon="03.851948"><ele>6.9</ele><time>2022-11-16T11:07:41Z</time><name>PT600</name></trkpt>
<trkpt lat="51.601395" lon="03.851964"><ele>6.8</ele><time>2022-11-16T11:07:43Z</time><name>PT601</name></trkpt>
<trkpt lat="51.601393" lon="03.851981"><ele>6.8</ele><time>2022-11-16T11:07:43Z</time><name>PT602</name></trkpt>
<trkpt lat="51.601390" lon="03.851998"><ele>6.6</ele><time>2022-11-16T11:07:44Z</time><name>PT603</name></trkpt>
<trkpt lat="51.601387" lon="03.852013"><ele>6.6</ele><time>2022-11-16T11:07:46Z</time><name>PT604</name></trkpt>
<trkpt lat="51.601385" lon="03.852033"><ele>6.6</ele><time>2022-11-16T11:07:46Z</time><name>PT605</name></trkpt>
<trkpt lat="51.601382" lon="03.852052"><ele>6.6</ele><time>2022-11-16T11:07:47Z</time><name>PT606</name></trkpt>
<trkpt lat="51.601379" lon="03.852070"><ele>6.7</ele><time>2022-11-16T11:07:49Z</time><name>PT607</name></trkpt>
<trkpt lat="51.601377" lon="03.852088"><ele>6.7</ele><time>2022-11-16T11:07:49Z</time><name>PT608</name></trkpt>
<trkpt lat="51.601375" lon="03.852106"><ele>6.6</ele><time>2022-11-16T11:07:50Z</time><name>PT609</name></trkpt>
<trkpt lat="51.601373" lon="03.852121"><ele>6.5</ele><time>2022-11-16T11:07:52Z</time><name>PT610</name></trkpt>
<trkpt lat="51.601371" lon="03.852137"><ele>6.6</ele><time>2022-11-16T11:07:52Z</time><name>PT611</name></trkpt>
<trkpt lat="51.601368" lon="03.852156"><ele>6.4</ele><time>2022-11-16T11:07:53Z</time><name>PT612</name></trkpt>
<trkpt lat="51.601365" lon="03.852174"><ele>6.3</ele><time>2022-11-16T11:07:55Z</time><name>PT613</name></trkpt>
<trkpt lat="51.601363" lon="03.852192"><ele>6.3</ele><time>2022-11-16T11:07:55Z</time><name>PT614</name></trkpt>
<trkpt lat="51.601361" lon="03.852210"><ele>6.3</ele><time>2022-11-16T11:07:56Z</time><name>PT615</name></trkpt>
<trkpt lat="51.601359" lon="03.852228"><ele>6.5</ele><time>2022-11-16T11:07:58Z</time><name>PT616</name></trkpt>
<trkpt lat="51.601359" lon="03.852244"><ele>6.5</ele><time>2022-11-16T11:07:58Z</time><name>PT617</name></trkpt>
<trkpt lat="51.601357" lon="03.852257"><ele>6.6</ele><time>2022-11-16T11:07:59Z</time><name>PT618</name></trkpt>
<trkpt lat="51.601355" lon="03.852275"><ele>6.6</ele><time>2022-11-16T11:08:01Z</time><name>PT619</name></trkpt>
<trkpt lat="51.601351" lon="03.852293"><ele>6.5</ele><time>2022-11-16T11:08:01Z</time><name>PT620</name></trkpt>
<trkpt lat="51.601349" lon="03.852310"><ele>6.5</ele><time>2022-11-16T11:08:02Z</time><name>PT621</name></trkpt>
<trkpt lat="51.601347" lon="03.852325"><ele>6.7</ele><time>2022-11-16T11:08:04Z</time><name>PT622</name></trkpt>
<trkpt lat="51.601345" lon="03.852341"><ele>6.8</ele><time>2022-11-16T11:08:04Z</time><name>PT623</name></trkpt>
<trkpt lat="51.601344" lon="03.852358"><ele>7</ele><time>2022-11-16T11:08:05Z</time><name>PT624</name></trkpt>
<trkpt lat="51.601343" lon="03.852378"><ele>7</ele><time>2022-11-16T11:08:07Z</time><name>PT625</name></trkpt>
<trkpt lat="51.601342" lon="03.852397"><ele>7</ele><time>2022-11-16T11:08:07Z</time><name>PT626</name></trkpt>
<trkpt lat="51.601340" lon="03.852414"><ele>6.8</ele><time>2022-11-16T11:08:08Z</time><name>PT627</name></trkpt>
<trkpt lat="51.601339" lon="03.852429"><ele>7.1</ele><time>2022-11-16T11:08:10Z</time><name>PT628</name></trkpt>
<trkpt lat="51.601339" lon="03.852445"><ele>7</ele><time>2022-11-16T11:08:10Z</time><name>PT629</name></trkpt>
<trkpt lat="51.601336" lon="03.852461"><ele>7.1</ele><time>2022-11-16T11:08:11Z</time><name>PT630</name></trkpt>
<trkpt lat="51.601333" lon="03.852479"><ele>7.2</ele><time>2022-11-16T11:08:13Z</time><name>PT631</name></trkpt>
<trkpt lat="51.601329" lon="03.852496"><ele>7.3</ele><time>2022-11-16T11:08:13Z</time><name>PT632</name></trkpt>
<trkpt lat="51.601328" lon="03.852515"><ele>7</ele><time>2022-11-16T11:08:14Z</time><name>PT633</name></trkpt>
<trkpt lat="51.601327" lon="03.852530"><ele>7</ele><time>2022-11-16T11:08:16Z</time><name>PT634</name></trkpt>
<trkpt lat="51.601324" lon="03.852545"><ele>6.8</ele><time>2022-11-16T11:08:16Z</time><name>PT635</name></trkpt>
<trkpt lat="51.601322" lon="03.852562"><ele>7</ele><time>2022-11-16T11:08:17Z</time><name>PT636</name></trkpt>
<trkpt lat="51.601320" lon="03.852581"><ele>7.4</ele><time>2022-11-16T11:08:19Z</time><name>PT637</name></trkpt>
<trkpt lat="51.601319" lon="03.852600"><ele>7.5</ele><time>2022-11-16T11:08:19Z</time><name>PT638</name></trkpt>
<trkpt lat="51.601318" lon="03.852618"><ele>7.7</ele><time>2022-11-16T11:08:20Z</time><name>PT639</name></trkpt>
<trkpt lat="51.601316" lon="03.852635"><ele>7.6</ele><time>2022-11-16T11:08:22Z</time><name>PT640</name></trkpt>
<trkpt lat="51.601315" lon="03.852651"><ele>7.6</ele><time>2022-11-16T11:08:22Z</time><name>PT641</name></trkpt>
<trkpt lat="51.601313" lon="03.852668"><ele>7.5</ele><time>2022-11-16T11:08:23Z</time><name>PT642</name></trkpt>
<trkpt lat="51.601309" lon="03.852686"><ele>7.4</ele><time>2022-11-16T11:08:25Z</time><name>PT643</name></trkpt>
<trkpt lat="51.601306" lon="03.852703"><ele>7.4</ele><time>2022-11-16T11:08:25Z</time><name>PT644</name></trkpt>
<trkpt lat="51.601303" lon="03.852720"><ele>7.4</ele><time>2022-11-16T11:08:26Z</time><name>PT645</name></trkpt>
<trkpt lat="51.601301" lon="03.852737"><ele>7.3</ele><time>2022-11-16T11:08:28Z</time><name>PT646</name></trkpt>
<trkpt lat="51.601300" lon="03.852754"><ele>7.4</ele><time>2022-11-16T11:08:28Z</time><name>PT647</name></trkpt>
<trkpt lat="51.601298" lon="03.852773"><ele>7.5</ele><time>2022-11-16T11:08:29Z</time><name>PT648</name></trkpt>
<trkpt lat="51.601297" lon="03.852791"><ele>7.7</ele><time>2022-11-16T11:08:31Z</time><name>PT649</name></trkpt>
<trkpt lat="51.601295" lon="03.852810"><ele>7.6</ele><time>2022-11-16T11:08:31Z</time><name>PT650</name></trkpt>
<trkpt lat="51.601293" lon="03.852828"><ele>7.4</ele><time>2022-11-16T11:08:32Z</time><name>PT651</name></trkpt>
<trkpt lat="51.601292" lon="03.852844"><ele>7.3</ele><time>2022-11-16T11:08:34Z</time><name>PT652</name></trkpt>
<trkpt lat="51.601290" lon="03.852861"><ele>7.3</ele><time>2022-11-16T11:08:34Z</time><name>PT653</name></trkpt>
<trkpt lat="51.601288" lon="03.852880"><ele>7.3</ele><time>2022-11-16T11:08:35Z</time><name>PT654</name></trkpt>
<trkpt lat="51.601286" lon="03.852899"><ele>7.4</ele><time>2022-11-16T11:08:37Z</time><name>PT655</name></trkpt>
<trkpt lat="51.601283" lon="03.852917"><ele>7.6</ele><time>2022-11-16T11:08:37Z</time><name>PT656</name></trkpt>
<trkpt lat="51.601279" lon="03.852933"><ele>7.9</ele><time>2022-11-16T11:08:38Z</time><name>PT657</name></trkpt>
<trkpt lat="51.601276" lon="03.852948"><ele>8</ele><time>2022-11-16T11:08:40Z</time><name>PT658</name></trkpt>
<trkpt lat="51.601275" lon="03.852964"><ele>8</ele><time>2022-11-16T11:08:40Z</time><name>PT659</name></trkpt>
<trkpt lat="51.601273" lon="03.852979"><ele>8.2</ele><time>2022-11-16T11:08:41Z</time><name>PT660</name></trkpt>
<trkpt lat="51.601271" lon="03.852991"><ele>8.3</ele><time>2022-11-16T11:08:43Z</time><name>PT661</name></trkpt>
<trkpt lat="51.601271" lon="03.853006"><ele>8.4</ele><time>2022-11-16T11:08:43Z</time><name>PT662</name></trkpt>
<trkpt lat="51.601269" lon="03.853023"><ele>8.4</ele><time>2022-11-16T11:08:44Z</time><name>PT663</name></trkpt>
<trkpt lat="51.601264" lon="03.853036"><ele>8.4</ele><time>2022-11-16T11:08:46Z</time><name>PT664</name></trkpt>
<trkpt lat="51.601261" lon="03.853051"><ele>8.3</ele><time>2022-11-16T11:08:46Z</time><name>PT665</name></trkpt>
<trkpt lat="51.601258" lon="03.853068"><ele>7.9</ele><time>2022-11-16T11:08:47Z</time><name>PT666</name></trkpt>
<trkpt lat="51.601254" lon="03.853084"><ele>7.9</ele><time>2022-11-16T11:08:49Z</time><name>PT667</name></trkpt>
<trkpt lat="51.601250" lon="03.853100"><ele>7.9</ele><time>2022-11-16T11:08:49Z</time><name>PT668</name></trkpt>
<trkpt lat="51.601247" lon="03.853115"><ele>7.9</ele><time>2022-11-16T11:08:50Z</time><name>PT669</name></trkpt>
<trkpt lat="51.601245" lon="03.853130"><ele>7.9</ele><time>2022-11-16T11:08:52Z</time><name>PT670</name></trkpt>
<trkpt lat="51.601244" lon="03.853147"><ele>7.9</ele><time>2022-11-16T11:08:52Z</time><name>PT671</name></trkpt>
<trkpt lat="51.601242" lon="03.853163"><ele>7.9</ele><time>2022-11-16T11:08:53Z</time><name>PT672</name></trkpt>
<trkpt lat="51.601240" lon="03.853181"><ele>7.7</ele><time>2022-11-16T11:08:55Z</time><name>PT673</name></trkpt>
<trkpt lat="51.601237" lon="03.853199"><ele>7.6</ele><time>2022-11-16T11:08:55Z</time><name>PT674</name></trkpt>
<trkpt lat="51.601235" lon="03.853216"><ele>7.7</ele><time>2022-11-16T11:08:56Z</time><name>PT675</name></trkpt>
<trkpt lat="51.601231" lon="03.853233"><ele>7.6</ele><time>2022-11-16T11:08:58Z</time><name>PT676</name></trkpt>
<trkpt lat="51.601228" lon="03.853250"><ele>7.5</ele><time>2022-11-16T11:08:58Z</time><name>PT677</name></trkpt>
<trkpt lat="51.601225" lon="03.853268"><ele>7.4</ele><time>2022-11-16T11:08:59Z</time><name>PT678</name></trkpt>
<trkpt lat="51.601222" lon="03.853285"><ele>7.4</ele><time>2022-11-16T11:09:01Z</time><name>PT679</name></trkpt>
<trkpt lat="51.601220" lon="03.853301"><ele>7.4</ele><time>2022-11-16T11:09:01Z</time><name>PT680</name></trkpt>
<trkpt lat="51.601218" lon="03.853318"><ele>7.4</ele><time>2022-11-16T11:09:02Z</time><name>PT681</name></trkpt>
<trkpt lat="51.601216" lon="03.853334"><ele>7.4</ele><time>2022-11-16T11:09:04Z</time><name>PT682</name></trkpt>
<trkpt lat="51.601215" lon="03.853351"><ele>7.4</ele><time>2022-11-16T11:09:04Z</time><name>PT683</name></trkpt>
<trkpt lat="51.601213" lon="03.853366"><ele>7.6</ele><time>2022-11-16T11:09:05Z</time><name>PT684</name></trkpt>
<trkpt lat="51.601210" lon="03.853381"><ele>7.7</ele><time>2022-11-16T11:09:07Z</time><name>PT685</name></trkpt>
<trkpt lat="51.601207" lon="03.853397"><ele>7.7</ele><time>2022-11-16T11:09:07Z</time><name>PT686</name></trkpt>
<trkpt lat="51.601204" lon="03.853412"><ele>7.4</ele><time>2022-11-16T11:09:08Z</time><name>PT687</name></trkpt>
<trkpt lat="51.601202" lon="03.853429"><ele>7.3</ele><time>2022-11-16T11:09:10Z</time><name>PT688</name></trkpt>
<trkpt lat="51.601200" lon="03.853444"><ele>7.1</ele><time>2022-11-16T11:09:10Z</time><name>PT689</name></trkpt>
<trkpt lat="51.601197" lon="03.853459"><ele>7.1</ele><time>2022-11-16T11:09:11Z</time><name>PT690</name></trkpt>
<trkpt lat="51.601195" lon="03.853476"><ele>7.2</ele><time>2022-11-16T11:09:13Z</time><name>PT691</name></trkpt>
<trkpt lat="51.601193" lon="03.853491"><ele>7.2</ele><time>2022-11-16T11:09:13Z</time><name>PT692</name></trkpt>
<trkpt lat="51.601191" lon="03.853504"><ele>6.9</ele><time>2022-11-16T11:09:14Z</time><name>PT693</name></trkpt>
<trkpt lat="51.601187" lon="03.853518"><ele>7.1</ele><time>2022-11-16T11:09:16Z</time><name>PT694</name></trkpt>
<trkpt lat="51.601183" lon="03.853534"><ele>7.1</ele><time>2022-11-16T11:09:16Z</time><name>PT695</name></trkpt>
<trkpt lat="51.601179" lon="03.853552"><ele>7.2</ele><time>2022-11-16T11:09:17Z</time><name>PT696</name></trkpt>
<trkpt lat="51.601176" lon="03.853566"><ele>7.7</ele><time>2022-11-16T11:09:19Z</time><name>PT697</name></trkpt>
<trkpt lat="51.601173" lon="03.853582"><ele>7.8</ele><time>2022-11-16T11:09:19Z</time><name>PT698</name></trkpt>
<trkpt lat="51.601169" lon="03.853599"><ele>8</ele><time>2022-11-16T11:09:20Z</time><name>PT699</name></trkpt>
<trkpt lat="51.601166" lon="03.853615"><ele>8.4</ele><time>2022-11-16T11:09:22Z</time><name>PT700</name></trkpt>
<trkpt lat="51.601164" lon="03.853634"><ele>8.7</ele><time>2022-11-16T11:09:22Z</time><name>PT701</name></trkpt>
<trkpt lat="51.601161" lon="03.853649"><ele>9</ele><time>2022-11-16T11:09:23Z</time><name>PT702</name></trkpt>
<trkpt lat="51.601159" lon="03.853669"><ele>9.2</ele><time>2022-11-16T11:09:25Z</time><name>PT703</name></trkpt>
<trkpt lat="51.601150" lon="03.853676"><ele>9.3</ele><time>2022-11-16T11:09:25Z</time><name>PT704</name></trkpt>
<trkpt lat="51.601140" lon="03.853685"><ele>9.3</ele><time>2022-11-16T11:09:26Z</time><name>PT705</name></trkpt>
<trkpt lat="51.601135" lon="03.853693"><ele>9.1</ele><time>2022-11-16T11:09:28Z</time><name>PT706</name></trkpt>
<trkpt lat="51.601128" lon="03.853708"><ele>9.2</ele><time>2022-11-16T11:09:28Z</time><name>PT707</name></trkpt>
<trkpt lat="51.601124" lon="03.853723"><ele>9.4</ele><time>2022-11-16T11:09:29Z</time><name>PT708</name></trkpt>
<trkpt lat="51.601119" lon="03.853736"><ele>9.3</ele><time>2022-11-16T11:09:31Z</time><name>PT709</name></trkpt>
<trkpt lat="51.601116" lon="03.853742"><ele>9.3</ele><time>2022-11-16T11:09:31Z</time><name>PT710</name></trkpt>
<trkpt lat="51.601115" lon="03.853743"><ele>9.2</ele><time>2022-11-16T11:09:32Z</time><name>PT711</name></trkpt>
<trkpt lat="51.601115" lon="03.853743"><ele>8.8</ele><time>2022-11-16T11:09:34Z</time><name>PT712</name></trkpt>
<trkpt lat="51.601114" lon="03.853750"><ele>9.5</ele><time>2022-11-16T11:09:47Z</time><name>PT713</name></trkpt>
<trkpt lat="51.601111" lon="03.853766"><ele>9.4</ele><time>2022-11-16T11:09:49Z</time><name>PT714</name></trkpt>
<trkpt lat="51.601103" lon="03.853784"><ele>9.4</ele><time>2022-11-16T11:09:49Z</time><name>PT715</name></trkpt>
<trkpt lat="51.601095" lon="03.853804"><ele>9.7</ele><time>2022-11-16T11:09:50Z</time><name>PT716</name></trkpt>
<trkpt lat="51.601090" lon="03.853819"><ele>9.7</ele><time>2022-11-16T11:09:52Z</time><name>PT717</name></trkpt>
<trkpt lat="51.601084" lon="03.853836"><ele>9.7</ele><time>2022-11-16T11:09:52Z</time><name>PT718</name></trkpt>
<trkpt lat="51.601080" lon="03.853853"><ele>9.7</ele><time>2022-11-16T11:09:53Z</time><name>PT719</name></trkpt>
<trkpt lat="51.601075" lon="03.853872"><ele>9.4</ele><time>2022-11-16T11:09:55Z</time><name>PT720</name></trkpt>
<trkpt lat="51.601071" lon="03.853892"><ele>8.9</ele><time>2022-11-16T11:09:55Z</time><name>PT721</name></trkpt>
<trkpt lat="51.601067" lon="03.853909"><ele>8.6</ele><time>2022-11-16T11:09:56Z</time><name>PT722</name></trkpt>
<trkpt lat="51.601063" lon="03.853927"><ele>8.4</ele><time>2022-11-16T11:09:58Z</time><name>PT723</name></trkpt>
<trkpt lat="51.601058" lon="03.853944"><ele>8.4</ele><time>2022-11-16T11:09:58Z</time><name>PT724</name></trkpt>
<trkpt lat="51.601052" lon="03.853958"><ele>8.6</ele><time>2022-11-16T11:09:59Z</time><name>PT725</name></trkpt>
<trkpt lat="51.601047" lon="03.853974"><ele>8.5</ele><time>2022-11-16T11:10:01Z</time><name>PT726</name></trkpt>
<trkpt lat="51.601041" lon="03.853990"><ele>8.4</ele><time>2022-11-16T11:10:01Z</time><name>PT727</name></trkpt>
<trkpt lat="51.601035" lon="03.854006"><ele>8</ele><time>2022-11-16T11:10:02Z</time><name>PT728</name></trkpt>
<trkpt lat="51.601031" lon="03.854022"><ele>7.9</ele><time>2022-11-16T11:10:04Z</time><name>PT729</name></trkpt>
<trkpt lat="51.601026" lon="03.854038"><ele>7.7</ele><time>2022-11-16T11:10:04Z</time><name>PT730</name></trkpt>
<trkpt lat="51.601022" lon="03.854055"><ele>7.7</ele><time>2022-11-16T11:10:05Z</time><name>PT731</name></trkpt>
<trkpt lat="51.601018" lon="03.854072"><ele>7.9</ele><time>2022-11-16T11:10:07Z</time><name>PT732</name></trkpt>
<trkpt lat="51.601014" lon="03.854092"><ele>7.8</ele><time>2022-11-16T11:10:07Z</time><name>PT733</name></trkpt>
<trkpt lat="51.601010" lon="03.854109"><ele>8</ele><time>2022-11-16T11:10:08Z</time><name>PT734</name></trkpt>
<trkpt lat="51.601008" lon="03.854127"><ele>7.9</ele><time>2022-11-16T11:10:10Z</time><name>PT735</name></trkpt>
<trkpt lat="51.601003" lon="03.854145"><ele>8.1</ele><time>2022-11-16T11:10:10Z</time><name>PT736</name></trkpt>
<trkpt lat="51.600997" lon="03.854161"><ele>8.3</ele><time>2022-11-16T11:10:11Z</time><name>PT737</name></trkpt>
<trkpt lat="51.600992" lon="03.854177"><ele>8.1</ele><time>2022-11-16T11:10:13Z</time><name>PT738</name></trkpt>
<trkpt lat="51.600986" lon="03.854193"><ele>7.9</ele><time>2022-11-16T11:10:13Z</time><name>PT739</name></trkpt>
<trkpt lat="51.600982" lon="03.854208"><ele>7.9</ele><time>2022-11-16T11:10:14Z</time><name>PT740</name></trkpt>
<trkpt lat="51.600977" lon="03.854223"><ele>7.9</ele><time>2022-11-16T11:10:16Z</time><name>PT741</name></trkpt>
<trkpt lat="51.600973" lon="03.854239"><ele>7.9</ele><time>2022-11-16T11:10:16Z</time><name>PT742</name></trkpt>
<trkpt lat="51.600968" lon="03.854257"><ele>7.9</ele><time>2022-11-16T11:10:17Z</time><name>PT743</name></trkpt>
<trkpt lat="51.600963" lon="03.854275"><ele>8</ele><time>2022-11-16T11:10:19Z</time><name>PT744</name></trkpt>
<trkpt lat="51.600958" lon="03.854293"><ele>7.9</ele><time>2022-11-16T11:10:19Z</time><name>PT745</name></trkpt>
<trkpt lat="51.600954" lon="03.854312"><ele>7.8</ele><time>2022-11-16T11:10:20Z</time><name>PT746</name></trkpt>
<trkpt lat="51.600951" lon="03.854329"><ele>7.9</ele><time>2022-11-16T11:10:22Z</time><name>PT747</name></trkpt>
<trkpt lat="51.600948" lon="03.854345"><ele>7.9</ele><time>2022-11-16T11:10:22Z</time><name>PT748</name></trkpt>
<trkpt lat="51.600944" lon="03.854361"><ele>8.1</ele><time>2022-11-16T11:10:23Z</time><name>PT749</name></trkpt>
<trkpt lat="51.600939" lon="03.854376"><ele>8.1</ele><time>2022-11-16T11:10:25Z</time><name>PT750</name></trkpt>
<trkpt lat="51.600934" lon="03.854392"><ele>8.2</ele><time>2022-11-16T11:10:25Z</time><name>PT751</name></trkpt>
<trkpt lat="51.600928" lon="03.854410"><ele>8.3</ele><time>2022-11-16T11:10:26Z</time><name>PT752</name></trkpt>
<trkpt lat="51.600924" lon="03.854426"><ele>8.3</ele><time>2022-11-16T11:10:28Z</time><name>PT753</name></trkpt>
<trkpt lat="51.600920" lon="03.854443"><ele>8.4</ele><time>2022-11-16T11:10:28Z</time><name>PT754</name></trkpt>
<trkpt lat="51.600915" lon="03.854459"><ele>8.4</ele><time>2022-11-16T11:10:29Z</time><name>PT755</name></trkpt>
<trkpt lat="51.600912" lon="03.854476"><ele>8.1</ele><time>2022-11-16T11:10:31Z</time><name>PT756</name></trkpt>
<trkpt lat="51.600909" lon="03.854494"><ele>7.9</ele><time>2022-11-16T11:10:31Z</time><name>PT757</name></trkpt>
<trkpt lat="51.600906" lon="03.854512"><ele>7.6</ele><time>2022-11-16T11:10:32Z</time><name>PT758</name></trkpt>
<trkpt lat="51.600904" lon="03.854530"><ele>7.5</ele><time>2022-11-16T11:10:34Z</time><name>PT759</name></trkpt>
<trkpt lat="51.600901" lon="03.854546"><ele>7.4</ele><time>2022-11-16T11:10:34Z</time><name>PT760</name></trkpt>
<trkpt lat="51.600898" lon="03.854561"><ele>7.4</ele><time>2022-11-16T11:10:35Z</time><name>PT761</name></trkpt>
<trkpt lat="51.600894" lon="03.854577"><ele>7.3</ele><time>2022-11-16T11:10:37Z</time><name>PT762</name></trkpt>
<trkpt lat="51.600890" lon="03.854591"><ele>7.2</ele><time>2022-11-16T11:10:37Z</time><name>PT763</name></trkpt>
<trkpt lat="51.600885" lon="03.854606"><ele>7.1</ele><time>2022-11-16T11:10:38Z</time><name>PT764</name></trkpt>
<trkpt lat="51.600882" lon="03.854624"><ele>7</ele><time>2022-11-16T11:10:40Z</time><name>PT765</name></trkpt>
<trkpt lat="51.600879" lon="03.854641"><ele>7</ele><time>2022-11-16T11:10:40Z</time><name>PT766</name></trkpt>
<trkpt lat="51.600877" lon="03.854659"><ele>7.1</ele><time>2022-11-16T11:10:41Z</time><name>PT767</name></trkpt>
<trkpt lat="51.600877" lon="03.854674"><ele>7.3</ele><time>2022-11-16T11:10:43Z</time><name>PT768</name></trkpt>
<trkpt lat="51.600877" lon="03.854688"><ele>7.4</ele><time>2022-11-16T11:10:43Z</time><name>PT769</name></trkpt>
<trkpt lat="51.600876" lon="03.854699"><ele>7.2</ele><time>2022-11-16T11:10:44Z</time><name>PT770</name></trkpt>
<trkpt lat="51.600876" lon="03.854702"><ele>7.2</ele><time>2022-11-16T11:10:46Z</time><name>PT771</name></trkpt>
<trkpt lat="51.600876" lon="03.854702"><ele>7.2</ele><time>2022-11-16T11:10:46Z</time><name>PT772</name></trkpt>
<trkpt lat="51.600876" lon="03.854702"><ele>7</ele><time>2022-11-16T11:10:47Z</time><name>PT773</name></trkpt>
<trkpt lat="51.600878" lon="03.854709"><ele>6.2</ele><time>2022-11-16T11:11:52Z</time><name>PT774</name></trkpt>
<trkpt lat="51.600872" lon="03.854718"><ele>6.3</ele><time>2022-11-16T11:11:53Z</time><name>PT775</name></trkpt>
<trkpt lat="51.600869" lon="03.854728"><ele>6.3</ele><time>2022-11-16T11:11:55Z</time><name>PT776</name></trkpt>
<trkpt lat="51.600861" lon="03.854746"><ele>6.4</ele><time>2022-11-16T11:11:55Z</time><name>PT777</name></trkpt>
<trkpt lat="51.600854" lon="03.854763"><ele>6.4</ele><time>2022-11-16T11:11:56Z</time><name>PT778</name></trkpt>
<trkpt lat="51.600851" lon="03.854781"><ele>6.5</ele><time>2022-11-16T11:11:58Z</time><name>PT779</name></trkpt>
<trkpt lat="51.600848" lon="03.854802"><ele>6.4</ele><time>2022-11-16T11:11:58Z</time><name>PT780</name></trkpt>
<trkpt lat="51.600844" lon="03.854822"><ele>6.5</ele><time>2022-11-16T11:11:59Z</time><name>PT781</name></trkpt>
<trkpt lat="51.600842" lon="03.854842"><ele>6.6</ele><time>2022-11-16T11:12:01Z</time><name>PT782</name></trkpt>
<trkpt lat="51.600841" lon="03.854862"><ele>6.7</ele><time>2022-11-16T11:12:01Z</time><name>PT783</name></trkpt>
<trkpt lat="51.600840" lon="03.854879"><ele>6.8</ele><time>2022-11-16T11:12:02Z</time><name>PT784</name></trkpt>
<trkpt lat="51.600839" lon="03.854895"><ele>6.8</ele><time>2022-11-16T11:12:04Z</time><name>PT785</name></trkpt>
<trkpt lat="51.600837" lon="03.854912"><ele>6.8</ele><time>2022-11-16T11:12:04Z</time><name>PT786</name></trkpt>
<trkpt lat="51.600835" lon="03.854928"><ele>6.8</ele><time>2022-11-16T11:12:05Z</time><name>PT787</name></trkpt>
<trkpt lat="51.600834" lon="03.854945"><ele>6.5</ele><time>2022-11-16T11:12:07Z</time><name>PT788</name></trkpt>
<trkpt lat="51.600832" lon="03.854961"><ele>6.5</ele><time>2022-11-16T11:12:07Z</time><name>PT789</name></trkpt>
<trkpt lat="51.600829" lon="03.854977"><ele>6.7</ele><time>2022-11-16T11:12:08Z</time><name>PT790</name></trkpt>
<trkpt lat="51.600826" lon="03.854992"><ele>6.7</ele><time>2022-11-16T11:12:10Z</time><name>PT791</name></trkpt>
<trkpt lat="51.600822" lon="03.855008"><ele>6.6</ele><time>2022-11-16T11:12:10Z</time><name>PT792</name></trkpt>
<trkpt lat="51.600819" lon="03.855024"><ele>6.9</ele><time>2022-11-16T11:12:11Z</time><name>PT793</name></trkpt>
<trkpt lat="51.600817" lon="03.855039"><ele>6.9</ele><time>2022-11-16T11:12:13Z</time><name>PT794</name></trkpt>
<trkpt lat="51.600814" lon="03.855055"><ele>6.8</ele><time>2022-11-16T11:12:13Z</time><name>PT795</name></trkpt>
<trkpt lat="51.600811" lon="03.855070"><ele>6.7</ele><time>2022-11-16T11:12:14Z</time><name>PT796</name></trkpt>
<trkpt lat="51.600810" lon="03.855087"><ele>6.5</ele><time>2022-11-16T11:12:16Z</time><name>PT797</name></trkpt>
<trkpt lat="51.600807" lon="03.855105"><ele>6.5</ele><time>2022-11-16T11:12:16Z</time><name>PT798</name></trkpt>
<trkpt lat="51.600805" lon="03.855123"><ele>6.5</ele><time>2022-11-16T11:12:17Z</time><name>PT799</name></trkpt>
<trkpt lat="51.600803" lon="03.855140"><ele>6.7</ele><time>2022-11-16T11:12:19Z</time><name>PT800</name></trkpt>
<trkpt lat="51.600799" lon="03.855153"><ele>6.5</ele><time>2022-11-16T11:12:19Z</time><name>PT801</name></trkpt>
<trkpt lat="51.600796" lon="03.855167"><ele>6.5</ele><time>2022-11-16T11:12:20Z</time><name>PT802</name></trkpt>
<trkpt lat="51.600794" lon="03.855183"><ele>6.5</ele><time>2022-11-16T11:12:22Z</time><name>PT803</name></trkpt>
<trkpt lat="51.600793" lon="03.855202"><ele>6.3</ele><time>2022-11-16T11:12:22Z</time><name>PT804</name></trkpt>
<trkpt lat="51.600791" lon="03.855221"><ele>6.4</ele><time>2022-11-16T11:12:23Z</time><name>PT805</name></trkpt>
<trkpt lat="51.600789" lon="03.855239"><ele>6.7</ele><time>2022-11-16T11:12:25Z</time><name>PT806</name></trkpt>
<trkpt lat="51.600787" lon="03.855258"><ele>6.6</ele><time>2022-11-16T11:12:25Z</time><name>PT807</name></trkpt>
<trkpt lat="51.600785" lon="03.855276"><ele>6.7</ele><time>2022-11-16T11:12:26Z</time><name>PT808</name></trkpt>
<trkpt lat="51.600783" lon="03.855293"><ele>7</ele><time>2022-11-16T11:12:28Z</time><name>PT809</name></trkpt>
<trkpt lat="51.600781" lon="03.855309"><ele>6.9</ele><time>2022-11-16T11:12:28Z</time><name>PT810</name></trkpt>
<trkpt lat="51.600779" lon="03.855325"><ele>7.1</ele><time>2022-11-16T11:12:29Z</time><name>PT811</name></trkpt>
<trkpt lat="51.600775" lon="03.855343"><ele>7.3</ele><time>2022-11-16T11:12:31Z</time><name>PT812</name></trkpt>
<trkpt lat="51.600771" lon="03.855363"><ele>7.4</ele><time>2022-11-16T11:12:31Z</time><name>PT813</name></trkpt>
<trkpt lat="51.600769" lon="03.855380"><ele>7.4</ele><time>2022-11-16T11:12:32Z</time><name>PT814</name></trkpt>
<trkpt lat="51.600768" lon="03.855397"><ele>7.3</ele><time>2022-11-16T11:12:34Z</time><name>PT815</name></trkpt>
<trkpt lat="51.600766" lon="03.855414"><ele>7.5</ele><time>2022-11-16T11:12:34Z</time><name>PT816</name></trkpt>
<trkpt lat="51.600763" lon="03.855430"><ele>7.4</ele><time>2022-11-16T11:12:35Z</time><name>PT817</name></trkpt>
<trkpt lat="51.600761" lon="03.855448"><ele>7.2</ele><time>2022-11-16T11:12:37Z</time><name>PT818</name></trkpt>
<trkpt lat="51.600759" lon="03.855468"><ele>7.1</ele><time>2022-11-16T11:12:37Z</time><name>PT819</name></trkpt>
<trkpt lat="51.600757" lon="03.855487"><ele>6.9</ele><time>2022-11-16T11:12:38Z</time><name>PT820</name></trkpt>
<trkpt lat="51.600756" lon="03.855504"><ele>6.8</ele><time>2022-11-16T11:12:40Z</time><name>PT821</name></trkpt>
<trkpt lat="51.600754" lon="03.855520"><ele>6.7</ele><time>2022-11-16T11:12:40Z</time><name>PT822</name></trkpt>
<trkpt lat="51.600753" lon="03.855536"><ele>6.8</ele><time>2022-11-16T11:12:41Z</time><name>PT823</name></trkpt>
<trkpt lat="51.600750" lon="03.855551"><ele>6.7</ele><time>2022-11-16T11:12:43Z</time><name>PT824</name></trkpt>
<trkpt lat="51.600748" lon="03.855567"><ele>6.6</ele><time>2022-11-16T11:12:43Z</time><name>PT825</name></trkpt>
<trkpt lat="51.600745" lon="03.855583"><ele>6.6</ele><time>2022-11-16T11:12:44Z</time><name>PT826</name></trkpt>
<trkpt lat="51.600742" lon="03.855600"><ele>6.6</ele><time>2022-11-16T11:12:46Z</time><name>PT827</name></trkpt>
<trkpt lat="51.600740" lon="03.855617"><ele>6.5</ele><time>2022-11-16T11:12:46Z</time><name>PT828</name></trkpt>
<trkpt lat="51.600737" lon="03.855635"><ele>6.8</ele><time>2022-11-16T11:12:47Z</time><name>PT829</name></trkpt>
<trkpt lat="51.600733" lon="03.855652"><ele>6.8</ele><time>2022-11-16T11:12:49Z</time><name>PT830</name></trkpt>
<trkpt lat="51.600731" lon="03.855669"><ele>6.8</ele><time>2022-11-16T11:12:49Z</time><name>PT831</name></trkpt>
<trkpt lat="51.600728" lon="03.855687"><ele>7</ele><time>2022-11-16T11:12:50Z</time><name>PT832</name></trkpt>
<trkpt lat="51.600727" lon="03.855705"><ele>7.1</ele><time>2022-11-16T11:12:52Z</time><name>PT833</name></trkpt>
<trkpt lat="51.600725" lon="03.855722"><ele>7.1</ele><time>2022-11-16T11:12:52Z</time><name>PT834</name></trkpt>
<trkpt lat="51.600723" lon="03.855740"><ele>7.2</ele><time>2022-11-16T11:12:53Z</time><name>PT835</name></trkpt>
<trkpt lat="51.600722" lon="03.855758"><ele>7.1</ele><time>2022-11-16T11:12:55Z</time><name>PT836</name></trkpt>
<trkpt lat="51.600720" lon="03.855777"><ele>7.2</ele><time>2022-11-16T11:12:55Z</time><name>PT837</name></trkpt>
<trkpt lat="51.600719" lon="03.855796"><ele>7.4</ele><time>2022-11-16T11:12:56Z</time><name>PT838</name></trkpt>
<trkpt lat="51.600717" lon="03.855815"><ele>7.6</ele><time>2022-11-16T11:12:58Z</time><name>PT839</name></trkpt>
<trkpt lat="51.600714" lon="03.855832"><ele>7.8</ele><time>2022-11-16T11:12:58Z</time><name>PT840</name></trkpt>
<trkpt lat="51.600713" lon="03.855849"><ele>7.8</ele><time>2022-11-16T11:12:59Z</time><name>PT841</name></trkpt>
<trkpt lat="51.600711" lon="03.855864"><ele>7.7</ele><time>2022-11-16T11:13:01Z</time><name>PT842</name></trkpt>
<trkpt lat="51.600708" lon="03.855879"><ele>7.4</ele><time>2022-11-16T11:13:01Z</time><name>PT843</name></trkpt>
<trkpt lat="51.600706" lon="03.855896"><ele>7.5</ele><time>2022-11-16T11:13:02Z</time><name>PT844</name></trkpt>
<trkpt lat="51.600703" lon="03.855912"><ele>7.4</ele><time>2022-11-16T11:13:04Z</time><name>PT845</name></trkpt>
<trkpt lat="51.600700" lon="03.855930"><ele>7.4</ele><time>2022-11-16T11:13:04Z</time><name>PT846</name></trkpt>
<trkpt lat="51.600697" lon="03.855948"><ele>7.6</ele><time>2022-11-16T11:13:05Z</time><name>PT847</name></trkpt>
<trkpt lat="51.600694" lon="03.855964"><ele>7.6</ele><time>2022-11-16T11:13:07Z</time><name>PT848</name></trkpt>
<trkpt lat="51.600691" lon="03.855981"><ele>7.6</ele><time>2022-11-16T11:13:07Z</time><name>PT849</name></trkpt>
<trkpt lat="51.600689" lon="03.855996"><ele>7.5</ele><time>2022-11-16T11:13:08Z</time><name>PT850</name></trkpt>
<trkpt lat="51.600687" lon="03.856014"><ele>7.4</ele><time>2022-11-16T11:13:10Z</time><name>PT851</name></trkpt>
<trkpt lat="51.600685" lon="03.856032"><ele>7.4</ele><time>2022-11-16T11:13:10Z</time><name>PT852</name></trkpt>
<trkpt lat="51.600683" lon="03.856050"><ele>7.4</ele><time>2022-11-16T11:13:11Z</time><name>PT853</name></trkpt>
<trkpt lat="51.600682" lon="03.856068"><ele>7.4</ele><time>2022-11-16T11:13:13Z</time><name>PT854</name></trkpt>
<trkpt lat="51.600681" lon="03.856086"><ele>7.4</ele><time>2022-11-16T11:13:13Z</time><name>PT855</name></trkpt>
<trkpt lat="51.600679" lon="03.856105"><ele>7.5</ele><time>2022-11-16T11:13:14Z</time><name>PT856</name></trkpt>
<trkpt lat="51.600677" lon="03.856121"><ele>7.4</ele><time>2022-11-16T11:13:16Z</time><name>PT857</name></trkpt>
<trkpt lat="51.600675" lon="03.856137"><ele>7.4</ele><time>2022-11-16T11:13:16Z</time><name>PT858</name></trkpt>
<trkpt lat="51.600673" lon="03.856153"><ele>7.6</ele><time>2022-11-16T11:13:17Z</time><name>PT859</name></trkpt>
<trkpt lat="51.600670" lon="03.856170"><ele>7.6</ele><time>2022-11-16T11:13:19Z</time><name>PT860</name></trkpt>
<trkpt lat="51.600667" lon="03.856188"><ele>7.5</ele><time>2022-11-16T11:13:19Z</time><name>PT861</name></trkpt>
<trkpt lat="51.600663" lon="03.856206"><ele>7.4</ele><time>2022-11-16T11:13:20Z</time><name>PT862</name></trkpt>
<trkpt lat="51.600661" lon="03.856223"><ele>7.3</ele><time>2022-11-16T11:13:22Z</time><name>PT863</name></trkpt>
<trkpt lat="51.600659" lon="03.856240"><ele>7.2</ele><time>2022-11-16T11:13:22Z</time><name>PT864</name></trkpt>
<trkpt lat="51.600657" lon="03.856257"><ele>7.2</ele><time>2022-11-16T11:13:23Z</time><name>PT865</name></trkpt>
<trkpt lat="51.600656" lon="03.856274"><ele>7.2</ele><time>2022-11-16T11:13:25Z</time><name>PT866</name></trkpt>
<trkpt lat="51.600654" lon="03.856291"><ele>7.3</ele><time>2022-11-16T11:13:25Z</time><name>PT867</name></trkpt>
<trkpt lat="51.600652" lon="03.856309"><ele>7.4</ele><time>2022-11-16T11:13:26Z</time><name>PT868</name></trkpt>
<trkpt lat="51.600649" lon="03.856326"><ele>7.5</ele><time>2022-11-16T11:13:28Z</time><name>PT869</name></trkpt>
<trkpt lat="51.600646" lon="03.856341"><ele>7.4</ele><time>2022-11-16T11:13:28Z</time><name>PT870</name></trkpt>
<trkpt lat="51.600645" lon="03.856357"><ele>7.4</ele><time>2022-11-16T11:13:29Z</time><name>PT871</name></trkpt>
<trkpt lat="51.600642" lon="03.856372"><ele>7.2</ele><time>2022-11-16T11:13:31Z</time><name>PT872</name></trkpt>
<trkpt lat="51.600639" lon="03.856388"><ele>7</ele><time>2022-11-16T11:13:31Z</time><name>PT873</name></trkpt>
<trkpt lat="51.600635" lon="03.856405"><ele>7</ele><time>2022-11-16T11:13:32Z</time><name>PT874</name></trkpt>
<trkpt lat="51.600632" lon="03.856423"><ele>6.9</ele><time>2022-11-16T11:13:34Z</time><name>PT875</name></trkpt>
<trkpt lat="51.600630" lon="03.856440"><ele>7</ele><time>2022-11-16T11:13:34Z</time><name>PT876</name></trkpt>
<trkpt lat="51.600626" lon="03.856457"><ele>7.4</ele><time>2022-11-16T11:13:35Z</time><name>PT877</name></trkpt>
<trkpt lat="51.600624" lon="03.856473"><ele>7.4</ele><time>2022-11-16T11:13:37Z</time><name>PT878</name></trkpt>
<trkpt lat="51.600622" lon="03.856490"><ele>7.5</ele><time>2022-11-16T11:13:37Z</time><name>PT879</name></trkpt>
<trkpt lat="51.600620" lon="03.856508"><ele>7.7</ele><time>2022-11-16T11:13:38Z</time><name>PT880</name></trkpt>
<trkpt lat="51.600618" lon="03.856525"><ele>7.6</ele><time>2022-11-16T11:13:40Z</time><name>PT881</name></trkpt>
<trkpt lat="51.600617" lon="03.856542"><ele>7.5</ele><time>2022-11-16T11:13:40Z</time><name>PT882</name></trkpt>
<trkpt lat="51.600615" lon="03.856560"><ele>7.6</ele><time>2022-11-16T11:13:41Z</time><name>PT883</name></trkpt>
<trkpt lat="51.600613" lon="03.856576"><ele>7.6</ele><time>2022-11-16T11:13:43Z</time><name>PT884</name></trkpt>
<trkpt lat="51.600610" lon="03.856591"><ele>7.5</ele><time>2022-11-16T11:13:43Z</time><name>PT885</name></trkpt>
<trkpt lat="51.600608" lon="03.856604"><ele>7.7</ele><time>2022-11-16T11:13:44Z</time><name>PT886</name></trkpt>
<trkpt lat="51.600605" lon="03.856619"><ele>7.4</ele><time>2022-11-16T11:13:46Z</time><name>PT887</name></trkpt>
<trkpt lat="51.600602" lon="03.856635"><ele>7.4</ele><time>2022-11-16T11:13:46Z</time><name>PT888</name></trkpt>
<trkpt lat="51.600599" lon="03.856651"><ele>7.4</ele><time>2022-11-16T11:13:47Z</time><name>PT889</name></trkpt>
<trkpt lat="51.600597" lon="03.856668"><ele>7.4</ele><time>2022-11-16T11:13:49Z</time><name>PT890</name></trkpt>
<trkpt lat="51.600594" lon="03.856684"><ele>7.4</ele><time>2022-11-16T11:13:49Z</time><name>PT891</name></trkpt>
<trkpt lat="51.600592" lon="03.856700"><ele>7.6</ele><time>2022-11-16T11:13:50Z</time><name>PT892</name></trkpt>
<trkpt lat="51.600590" lon="03.856717"><ele>7.8</ele><time>2022-11-16T11:13:52Z</time><name>PT893</name></trkpt>
<trkpt lat="51.600589" lon="03.856732"><ele>7.9</ele><time>2022-11-16T11:13:52Z</time><name>PT894</name></trkpt>
<trkpt lat="51.600588" lon="03.856749"><ele>7.9</ele><time>2022-11-16T11:13:53Z</time><name>PT895</name></trkpt>
<trkpt lat="51.600587" lon="03.856765"><ele>7.8</ele><time>2022-11-16T11:13:55Z</time><name>PT896</name></trkpt>
<trkpt lat="51.600585" lon="03.856782"><ele>7.6</ele><time>2022-11-16T11:13:55Z</time><name>PT897</name></trkpt>
<trkpt lat="51.600583" lon="03.856798"><ele>7.2</ele><time>2022-11-16T11:13:56Z</time><name>PT898</name></trkpt>
<trkpt lat="51.600581" lon="03.856815"><ele>7.1</ele><time>2022-11-16T11:13:58Z</time><name>PT899</name></trkpt>
<trkpt lat="51.600578" lon="03.856830"><ele>7</ele><time>2022-11-16T11:13:58Z</time><name>PT900</name></trkpt>
<trkpt lat="51.600575" lon="03.856845"><ele>6.9</ele><time>2022-11-16T11:13:59Z</time><name>PT901</name></trkpt>
<trkpt lat="51.600571" lon="03.856861"><ele>7</ele><time>2022-11-16T11:14:01Z</time><name>PT902</name></trkpt>
<trkpt lat="51.600567" lon="03.856877"><ele>6.9</ele><time>2022-11-16T11:14:01Z</time><name>PT903</name></trkpt>
<trkpt lat="51.600564" lon="03.856894"><ele>6.8</ele><time>2022-11-16T11:14:02Z</time><name>PT904</name></trkpt>
<trkpt lat="51.600562" lon="03.856912"><ele>6.8</ele><time>2022-11-16T11:14:04Z</time><name>PT905</name></trkpt>
<trkpt lat="51.600559" lon="03.856929"><ele>6.8</ele><time>2022-11-16T11:14:04Z</time><name>PT906</name></trkpt>
<trkpt lat="51.600557" lon="03.856946"><ele>6.8</ele><time>2022-11-16T11:14:05Z</time><name>PT907</name></trkpt>
<trkpt lat="51.600556" lon="03.856960"><ele>7.1</ele><time>2022-11-16T11:14:07Z</time><name>PT908</name></trkpt>
<trkpt lat="51.600555" lon="03.856975"><ele>7.1</ele><time>2022-11-16T11:14:07Z</time><name>PT909</name></trkpt>
<trkpt lat="51.600553" lon="03.856992"><ele>7.4</ele><time>2022-11-16T11:14:08Z</time><name>PT910</name></trkpt>
<trkpt lat="51.600552" lon="03.857009"><ele>7.7</ele><time>2022-11-16T11:14:10Z</time><name>PT911</name></trkpt>
<trkpt lat="51.600550" lon="03.857023"><ele>7.7</ele><time>2022-11-16T11:14:10Z</time><name>PT912</name></trkpt>
<trkpt lat="51.600548" lon="03.857036"><ele>7.8</ele><time>2022-11-16T11:14:11Z</time><name>PT913</name></trkpt>
<trkpt lat="51.600546" lon="03.857051"><ele>7.6</ele><time>2022-11-16T11:14:13Z</time><name>PT914</name></trkpt>
<trkpt lat="51.600543" lon="03.857066"><ele>7.4</ele><time>2022-11-16T11:14:13Z</time><name>PT915</name></trkpt>
<trkpt lat="51.600539" lon="03.857083"><ele>7.4</ele><time>2022-11-16T11:14:14Z</time><name>PT916</name></trkpt>
<trkpt lat="51.600538" lon="03.857100"><ele>7.6</ele><time>2022-11-16T11:14:16Z</time><name>PT917</name></trkpt>
<trkpt lat="51.600536" lon="03.857119"><ele>7.5</ele><time>2022-11-16T11:14:16Z</time><name>PT918</name></trkpt>
<trkpt lat="51.600534" lon="03.857135"><ele>7.4</ele><time>2022-11-16T11:14:17Z</time><name>PT919</name></trkpt>
<trkpt lat="51.600532" lon="03.857152"><ele>7.6</ele><time>2022-11-16T11:14:19Z</time><name>PT920</name></trkpt>
<trkpt lat="51.600531" lon="03.857168"><ele>7.4</ele><time>2022-11-16T11:14:19Z</time><name>PT921</name></trkpt>
<trkpt lat="51.600530" lon="03.857186"><ele>7.1</ele><time>2022-11-16T11:14:20Z</time><name>PT922</name></trkpt>
<trkpt lat="51.600527" lon="03.857203"><ele>7.2</ele><time>2022-11-16T11:14:22Z</time><name>PT923</name></trkpt>
<trkpt lat="51.600525" lon="03.857220"><ele>7.1</ele><time>2022-11-16T11:14:22Z</time><name>PT924</name></trkpt>
<trkpt lat="51.600524" lon="03.857237"><ele>7.2</ele><time>2022-11-16T11:14:23Z</time><name>PT925</name></trkpt>
<trkpt lat="51.600523" lon="03.857254"><ele>7.4</ele><time>2022-11-16T11:14:25Z</time><name>PT926</name></trkpt>
<trkpt lat="51.600521" lon="03.857269"><ele>7.4</ele><time>2022-11-16T11:14:25Z</time><name>PT927</name></trkpt>
<trkpt lat="51.600518" lon="03.857282"><ele>8.1</ele><time>2022-11-16T11:14:26Z</time><name>PT928</name></trkpt>
<trkpt lat="51.600515" lon="03.857296"><ele>8.5</ele><time>2022-11-16T11:14:28Z</time><name>PT929</name></trkpt>
<trkpt lat="51.600511" lon="03.857311"><ele>8.5</ele><time>2022-11-16T11:14:28Z</time><name>PT930</name></trkpt>
<trkpt lat="51.600510" lon="03.857326"><ele>8.6</ele><time>2022-11-16T11:14:29Z</time><name>PT931</name></trkpt>
<trkpt lat="51.600508" lon="03.857343"><ele>8.2</ele><time>2022-11-16T11:14:31Z</time><name>PT932</name></trkpt>
<trkpt lat="51.600506" lon="03.857359"><ele>8</ele><time>2022-11-16T11:14:31Z</time><name>PT933</name></trkpt>
<trkpt lat="51.600504" lon="03.857375"><ele>7.9</ele><time>2022-11-16T11:14:32Z</time><name>PT934</name></trkpt>
<trkpt lat="51.600502" lon="03.857392"><ele>7.7</ele><time>2022-11-16T11:14:34Z</time><name>PT935</name></trkpt>
<trkpt lat="51.600498" lon="03.857409"><ele>7.5</ele><time>2022-11-16T11:14:34Z</time><name>PT936</name></trkpt>
<trkpt lat="51.600496" lon="03.857424"><ele>7.3</ele><time>2022-11-16T11:14:35Z</time><name>PT937</name></trkpt>
<trkpt lat="51.600495" lon="03.857437"><ele>7.2</ele><time>2022-11-16T11:14:37Z</time><name>PT938</name></trkpt>
<trkpt lat="51.600493" lon="03.857451"><ele>7</ele><time>2022-11-16T11:14:37Z</time><name>PT939</name></trkpt>
<trkpt lat="51.600490" lon="03.857464"><ele>6.9</ele><time>2022-11-16T11:14:38Z</time><name>PT940</name></trkpt>
<trkpt lat="51.600487" lon="03.857478"><ele>7.1</ele><time>2022-11-16T11:14:40Z</time><name>PT941</name></trkpt>
<trkpt lat="51.600484" lon="03.857493"><ele>7.2</ele><time>2022-11-16T11:14:40Z</time><name>PT942</name></trkpt>
<trkpt lat="51.600482" lon="03.857507"><ele>7.4</ele><time>2022-11-16T11:14:41Z</time><name>PT943</name></trkpt>
<trkpt lat="51.600481" lon="03.857522"><ele>7.8</ele><time>2022-11-16T11:14:43Z</time><name>PT944</name></trkpt>
<trkpt lat="51.600479" lon="03.857537"><ele>7.9</ele><time>2022-11-16T11:14:43Z</time><name>PT945</name></trkpt>
<trkpt lat="51.600477" lon="03.857552"><ele>8.1</ele><time>2022-11-16T11:14:44Z</time><name>PT946</name></trkpt>
<trkpt lat="51.600476" lon="03.857568"><ele>8.1</ele><time>2022-11-16T11:14:46Z</time><name>PT947</name></trkpt>
<trkpt lat="51.600475" lon="03.857583"><ele>8.3</ele><time>2022-11-16T11:14:46Z</time><name>PT948</name></trkpt>
<trkpt lat="51.600474" lon="03.857598"><ele>8.4</ele><time>2022-11-16T11:14:47Z</time><name>PT949</name></trkpt>
<trkpt lat="51.600472" lon="03.857613"><ele>8.2</ele><time>2022-11-16T11:14:49Z</time><name>PT950</name></trkpt>
<trkpt lat="51.600469" lon="03.857628"><ele>8.3</ele><time>2022-11-16T11:14:49Z</time><name>PT951</name></trkpt>
<trkpt lat="51.600466" lon="03.857644"><ele>8.4</ele><time>2022-11-16T11:14:50Z</time><name>PT952</name></trkpt>
<trkpt lat="51.600464" lon="03.857657"><ele>8.4</ele><time>2022-11-16T11:14:52Z</time><name>PT953</name></trkpt>
<trkpt lat="51.600461" lon="03.857673"><ele>8.4</ele><time>2022-11-16T11:14:52Z</time><name>PT954</name></trkpt>
<trkpt lat="51.600460" lon="03.857688"><ele>8.4</ele><time>2022-11-16T11:14:53Z</time><name>PT955</name></trkpt>
<trkpt lat="51.600459" lon="03.857703"><ele>8.4</ele><time>2022-11-16T11:14:55Z</time><name>PT956</name></trkpt>
<trkpt lat="51.600458" lon="03.857717"><ele>8.2</ele><time>2022-11-16T11:14:55Z</time><name>PT957</name></trkpt>
<trkpt lat="51.600454" lon="03.857731"><ele>8.4</ele><time>2022-11-16T11:14:56Z</time><name>PT958</name></trkpt>
<trkpt lat="51.600449" lon="03.857746"><ele>8.6</ele><time>2022-11-16T11:14:58Z</time><name>PT959</name></trkpt>
<trkpt lat="51.600446" lon="03.857762"><ele>8.5</ele><time>2022-11-16T11:14:58Z</time><name>PT960</name></trkpt>
<trkpt lat="51.600444" lon="03.857777"><ele>8.4</ele><time>2022-11-16T11:14:59Z</time><name>PT961</name></trkpt>
<trkpt lat="51.600443" lon="03.857792"><ele>8.3</ele><time>2022-11-16T11:15:01Z</time><name>PT962</name></trkpt>
<trkpt lat="51.600443" lon="03.857808"><ele>7.9</ele><time>2022-11-16T11:15:01Z</time><name>PT963</name></trkpt>
<trkpt lat="51.600441" lon="03.857824"><ele>7.9</ele><time>2022-11-16T11:15:02Z</time><name>PT964</name></trkpt>
<trkpt lat="51.600439" lon="03.857839"><ele>7.9</ele><time>2022-11-16T11:15:04Z</time><name>PT965</name></trkpt>
<trkpt lat="51.600437" lon="03.857853"><ele>8</ele><time>2022-11-16T11:15:04Z</time><name>PT966</name></trkpt>
<trkpt lat="51.600435" lon="03.857868"><ele>8.2</ele><time>2022-11-16T11:15:05Z</time><name>PT967</name></trkpt>
<trkpt lat="51.600432" lon="03.857884"><ele>8.4</ele><time>2022-11-16T11:15:07Z</time><name>PT968</name></trkpt>
<trkpt lat="51.600430" lon="03.857900"><ele>8.6</ele><time>2022-11-16T11:15:07Z</time><name>PT969</name></trkpt>
<trkpt lat="51.600429" lon="03.857916"><ele>8.9</ele><time>2022-11-16T11:15:08Z</time><name>PT970</name></trkpt>
<trkpt lat="51.600429" lon="03.857932"><ele>9.4</ele><time>2022-11-16T11:15:10Z</time><name>PT971</name></trkpt>
<trkpt lat="51.600428" lon="03.857947"><ele>9.4</ele><time>2022-11-16T11:15:10Z</time><name>PT972</name></trkpt>
<trkpt lat="51.600426" lon="03.857963"><ele>9.4</ele><time>2022-11-16T11:15:11Z</time><name>PT973</name></trkpt>
<trkpt lat="51.600425" lon="03.857979"><ele>9.1</ele><time>2022-11-16T11:15:13Z</time><name>PT974</name></trkpt>
<trkpt lat="51.600423" lon="03.857994"><ele>8.9</ele><time>2022-11-16T11:15:13Z</time><name>PT975</name></trkpt>
<trkpt lat="51.600421" lon="03.858009"><ele>8.7</ele><time>2022-11-16T11:15:14Z</time><name>PT976</name></trkpt>
<trkpt lat="51.600418" lon="03.858025"><ele>8.8</ele><time>2022-11-16T11:15:16Z</time><name>PT977</name></trkpt>
<trkpt lat="51.600415" lon="03.858041"><ele>8.7</ele><time>2022-11-16T11:15:16Z</time><name>PT978</name></trkpt>
<trkpt lat="51.600412" lon="03.858057"><ele>8.6</ele><time>2022-11-16T11:15:17Z</time><name>PT979</name></trkpt>
<trkpt lat="51.600411" lon="03.858073"><ele>8.7</ele><time>2022-11-16T11:15:19Z</time><name>PT980</name></trkpt>
<trkpt lat="51.600408" lon="03.858089"><ele>8.6</ele><time>2022-11-16T11:15:19Z</time><name>PT981</name></trkpt>
<trkpt lat="51.600406" lon="03.858105"><ele>8.4</ele><time>2022-11-16T11:15:20Z</time><name>PT982</name></trkpt>
<trkpt lat="51.600405" lon="03.858121"><ele>8.5</ele><time>2022-11-16T11:15:22Z</time><name>PT983</name></trkpt>
<trkpt lat="51.600404" lon="03.858138"><ele>8.5</ele><time>2022-11-16T11:15:22Z</time><name>PT984</name></trkpt>
<trkpt lat="51.600402" lon="03.858155"><ele>8.4</ele><time>2022-11-16T11:15:23Z</time><name>PT985</name></trkpt>
<trkpt lat="51.600401" lon="03.858173"><ele>8.4</ele><time>2022-11-16T11:15:25Z</time><name>PT986</name></trkpt>
<trkpt lat="51.600398" lon="03.858191"><ele>8.4</ele><time>2022-11-16T11:15:25Z</time><name>PT987</name></trkpt>
<trkpt lat="51.600396" lon="03.858207"><ele>8.6</ele><time>2022-11-16T11:15:26Z</time><name>PT988</name></trkpt>
<trkpt lat="51.600394" lon="03.858222"><ele>8.8</ele><time>2022-11-16T11:15:28Z</time><name>PT989</name></trkpt>
<trkpt lat="51.600391" lon="03.858237"><ele>8.7</ele><time>2022-11-16T11:15:28Z</time><name>PT990</name></trkpt>
<trkpt lat="51.600389" lon="03.858251"><ele>8.9</ele><time>2022-11-16T11:15:29Z</time><name>PT991</name></trkpt>
<trkpt lat="51.600386" lon="03.858265"><ele>8.9</ele><time>2022-11-16T11:15:31Z</time><name>PT992</name></trkpt>
<trkpt lat="51.600383" lon="03.858279"><ele>8.9</ele><time>2022-11-16T11:15:31Z</time><name>PT993</name></trkpt>
<trkpt lat="51.600382" lon="03.858295"><ele>9.1</ele><time>2022-11-16T11:15:32Z</time><name>PT994</name></trkpt>
<trkpt lat="51.600380" lon="03.858312"><ele>9.1</ele><time>2022-11-16T11:15:34Z</time><name>PT995</name></trkpt>
<trkpt lat="51.600379" lon="03.858327"><ele>9</ele><time>2022-11-16T11:15:34Z</time><name>PT996</name></trkpt>
<trkpt lat="51.600376" lon="03.858342"><ele>8.9</ele><time>2022-11-16T11:15:35Z</time><name>PT997</name></trkpt>
<trkpt lat="51.600373" lon="03.858356"><ele>8.8</ele><time>2022-11-16T11:15:37Z</time><name>PT998</name></trkpt>
<trkpt lat="51.600369" lon="03.858373"><ele>8.9</ele><time>2022-11-16T11:15:37Z</time><name>PT999</name></trkpt>
<trkpt lat="51.600366" lon="03.858388"><ele>8.9</ele><time>2022-11-16T11:15:38Z</time><name>PT1000</name></trkpt>
<trkpt lat="51.600364" lon="03.858404"><ele>9</ele><time>2022-11-16T11:15:40Z</time><name>PT1001</name></trkpt>
<trkpt lat="51.600360" lon="03.858419"><ele>9</ele><time>2022-11-16T11:15:40Z</time><name>PT1002</name></trkpt>
<trkpt lat="51.600359" lon="03.858432"><ele>9</ele><time>2022-11-16T11:15:41Z</time><name>PT1003</name></trkpt>
<trkpt lat="51.600357" lon="03.858446"><ele>8.9</ele><time>2022-11-16T11:15:43Z</time><name>PT1004</name></trkpt>
<trkpt lat="51.600356" lon="03.858462"><ele>9</ele><time>2022-11-16T11:15:43Z</time><name>PT1005</name></trkpt>
<trkpt lat="51.600354" lon="03.858476"><ele>9</ele><time>2022-11-16T11:15:44Z</time><name>PT1006</name></trkpt>
<trkpt lat="51.600352" lon="03.858489"><ele>9</ele><time>2022-11-16T11:15:46Z</time><name>PT1007</name></trkpt>
<trkpt lat="51.600349" lon="03.858505"><ele>9.2</ele><time>2022-11-16T11:15:46Z</time><name>PT1008</name></trkpt>
<trkpt lat="51.600345" lon="03.858521"><ele>9.3</ele><time>2022-11-16T11:15:47Z</time><name>PT1009</name></trkpt>
<trkpt lat="51.600344" lon="03.858536"><ele>9.4</ele><time>2022-11-16T11:15:49Z</time><name>PT1010</name></trkpt>
<trkpt lat="51.600343" lon="03.858551"><ele>9.4</ele><time>2022-11-16T11:15:49Z</time><name>PT1011</name></trkpt>
<trkpt lat="51.600341" lon="03.858567"><ele>9.4</ele><time>2022-11-16T11:15:50Z</time><name>PT1012</name></trkpt>
<trkpt lat="51.600340" lon="03.858583"><ele>9.3</ele><time>2022-11-16T11:15:52Z</time><name>PT1013</name></trkpt>
<trkpt lat="51.600339" lon="03.858598"><ele>9</ele><time>2022-11-16T11:15:52Z</time><name>PT1014</name></trkpt>
<trkpt lat="51.600338" lon="03.858612"><ele>9</ele><time>2022-11-16T11:15:53Z</time><name>PT1015</name></trkpt>
<trkpt lat="51.600336" lon="03.858626"><ele>8.9</ele><time>2022-11-16T11:15:55Z</time><name>PT1016</name></trkpt>
<trkpt lat="51.600333" lon="03.858641"><ele>9.1</ele><time>2022-11-16T11:15:55Z</time><name>PT1017</name></trkpt>
<trkpt lat="51.600330" lon="03.858658"><ele>9</ele><time>2022-11-16T11:15:56Z</time><name>PT1018</name></trkpt>
<trkpt lat="51.600329" lon="03.858674"><ele>9</ele><time>2022-11-16T11:15:58Z</time><name>PT1019</name></trkpt>
<trkpt lat="51.600327" lon="03.858690"><ele>9.1</ele><time>2022-11-16T11:15:58Z</time><name>PT1020</name></trkpt>
<trkpt lat="51.600326" lon="03.858707"><ele>9.4</ele><time>2022-11-16T11:15:59Z</time><name>PT1021</name></trkpt>
<trkpt lat="51.600324" lon="03.858725"><ele>9.7</ele><time>2022-11-16T11:16:01Z</time><name>PT1022</name></trkpt>
<trkpt lat="51.600322" lon="03.858742"><ele>9.7</ele><time>2022-11-16T11:16:01Z</time><name>PT1023</name></trkpt>
<trkpt lat="51.600320" lon="03.858758"><ele>9.5</ele><time>2022-11-16T11:16:02Z</time><name>PT1024</name></trkpt>
<trkpt lat="51.600318" lon="03.858773"><ele>9.3</ele><time>2022-11-16T11:16:04Z</time><name>PT1025</name></trkpt>
<trkpt lat="51.600316" lon="03.858788"><ele>9.2</ele><time>2022-11-16T11:16:04Z</time><name>PT1026</name></trkpt>
<trkpt lat="51.600313" lon="03.858803"><ele>9.1</ele><time>2022-11-16T11:16:05Z</time><name>PT1027</name></trkpt>
<trkpt lat="51.600310" lon="03.858820"><ele>9.1</ele><time>2022-11-16T11:16:07Z</time><name>PT1028</name></trkpt>
<trkpt lat="51.600307" lon="03.858837"><ele>9</ele><time>2022-11-16T11:16:07Z</time><name>PT1029</name></trkpt>
<trkpt lat="51.600303" lon="03.858856"><ele>8.9</ele><time>2022-11-16T11:16:08Z</time><name>PT1030</name></trkpt>
<trkpt lat="51.600301" lon="03.858872"><ele>8.7</ele><time>2022-11-16T11:16:10Z</time><name>PT1031</name></trkpt>
<trkpt lat="51.600300" lon="03.858889"><ele>8.5</ele><time>2022-11-16T11:16:10Z</time><name>PT1032</name></trkpt>
<trkpt lat="51.600299" lon="03.858905"><ele>8.7</ele><time>2022-11-16T11:16:11Z</time><name>PT1033</name></trkpt>
<trkpt lat="51.600297" lon="03.858923"><ele>8.8</ele><time>2022-11-16T11:16:13Z</time><name>PT1034</name></trkpt>
<trkpt lat="51.600295" lon="03.858941"><ele>9</ele><time>2022-11-16T11:16:13Z</time><name>PT1035</name></trkpt>
<trkpt lat="51.600294" lon="03.858958"><ele>9.2</ele><time>2022-11-16T11:16:14Z</time><name>PT1036</name></trkpt>
<trkpt lat="51.600291" lon="03.858973"><ele>9.4</ele><time>2022-11-16T11:16:16Z</time><name>PT1037</name></trkpt>
<trkpt lat="51.600289" lon="03.858987"><ele>9.2</ele><time>2022-11-16T11:16:16Z</time><name>PT1038</name></trkpt>
<trkpt lat="51.600287" lon="03.859002"><ele>8.9</ele><time>2022-11-16T11:16:17Z</time><name>PT1039</name></trkpt>
<trkpt lat="51.600283" lon="03.859018"><ele>8.4</ele><time>2022-11-16T11:16:19Z</time><name>PT1040</name></trkpt>
<trkpt lat="51.600281" lon="03.859036"><ele>8.3</ele><time>2022-11-16T11:16:19Z</time><name>PT1041</name></trkpt>
<trkpt lat="51.600279" lon="03.859053"><ele>8</ele><time>2022-11-16T11:16:20Z</time><name>PT1042</name></trkpt>
<trkpt lat="51.600278" lon="03.859068"><ele>8.1</ele><time>2022-11-16T11:16:22Z</time><name>PT1043</name></trkpt>
<trkpt lat="51.600277" lon="03.859082"><ele>8.2</ele><time>2022-11-16T11:16:22Z</time><name>PT1044</name></trkpt>
<trkpt lat="51.600275" lon="03.859096"><ele>8.5</ele><time>2022-11-16T11:16:23Z</time><name>PT1045</name></trkpt>
<trkpt lat="51.600273" lon="03.859112"><ele>8.8</ele><time>2022-11-16T11:16:25Z</time><name>PT1046</name></trkpt>
<trkpt lat="51.600272" lon="03.859127"><ele>8.9</ele><time>2022-11-16T11:16:25Z</time><name>PT1047</name></trkpt>
<trkpt lat="51.600269" lon="03.859141"><ele>8.9</ele><time>2022-11-16T11:16:26Z</time><name>PT1048</name></trkpt>
<trkpt lat="51.600266" lon="03.859155"><ele>8.7</ele><time>2022-11-16T11:16:28Z</time><name>PT1049</name></trkpt>
<trkpt lat="51.600264" lon="03.859169"><ele>8.5</ele><time>2022-11-16T11:16:28Z</time><name>PT1050</name></trkpt>
<trkpt lat="51.600262" lon="03.859185"><ele>8.6</ele><time>2022-11-16T11:16:29Z</time><name>PT1051</name></trkpt>
<trkpt lat="51.600259" lon="03.859202"><ele>8.4</ele><time>2022-11-16T11:16:31Z</time><name>PT1052</name></trkpt>
<trkpt lat="51.600257" lon="03.859217"><ele>8.4</ele><time>2022-11-16T11:16:31Z</time><name>PT1053</name></trkpt>
<trkpt lat="51.600255" lon="03.859232"><ele>8.5</ele><time>2022-11-16T11:16:32Z</time><name>PT1054</name></trkpt>
<trkpt lat="51.600254" lon="03.859248"><ele>8.4</ele><time>2022-11-16T11:16:34Z</time><name>PT1055</name></trkpt>
<trkpt lat="51.600253" lon="03.859263"><ele>8.3</ele><time>2022-11-16T11:16:34Z</time><name>PT1056</name></trkpt>
<trkpt lat="51.600251" lon="03.859279"><ele>8.2</ele><time>2022-11-16T11:16:35Z</time><name>PT1057</name></trkpt>
<trkpt lat="51.600250" lon="03.859293"><ele>7.9</ele><time>2022-11-16T11:16:37Z</time><name>PT1058</name></trkpt>
<trkpt lat="51.600248" lon="03.859308"><ele>7.9</ele><time>2022-11-16T11:16:37Z</time><name>PT1059</name></trkpt>
<trkpt lat="51.600245" lon="03.859325"><ele>7.9</ele><time>2022-11-16T11:16:38Z</time><name>PT1060</name></trkpt>
<trkpt lat="51.600242" lon="03.859342"><ele>7.9</ele><time>2022-11-16T11:16:40Z</time><name>PT1061</name></trkpt>
<trkpt lat="51.600238" lon="03.859360"><ele>8.1</ele><time>2022-11-16T11:16:40Z</time><name>PT1062</name></trkpt>
<trkpt lat="51.600235" lon="03.859377"><ele>7.9</ele><time>2022-11-16T11:16:41Z</time><name>PT1063</name></trkpt>
<trkpt lat="51.600232" lon="03.859391"><ele>7.9</ele><time>2022-11-16T11:16:43Z</time><name>PT1064</name></trkpt>
<trkpt lat="51.600231" lon="03.859406"><ele>8</ele><time>2022-11-16T11:16:43Z</time><name>PT1065</name></trkpt>
<trkpt lat="51.600231" lon="03.859423"><ele>8</ele><time>2022-11-16T11:16:44Z</time><name>PT1066</name></trkpt>
<trkpt lat="51.600229" lon="03.859439"><ele>8.2</ele><time>2022-11-16T11:16:46Z</time><name>PT1067</name></trkpt>
<trkpt lat="51.600228" lon="03.859454"><ele>8.2</ele><time>2022-11-16T11:16:46Z</time><name>PT1068</name></trkpt>
<trkpt lat="51.600226" lon="03.859469"><ele>8.1</ele><time>2022-11-16T11:16:47Z</time><name>PT1069</name></trkpt>
<trkpt lat="51.600223" lon="03.859485"><ele>7.9</ele><time>2022-11-16T11:16:49Z</time><name>PT1070</name></trkpt>
<trkpt lat="51.600220" lon="03.859502"><ele>7.8</ele><time>2022-11-16T11:16:49Z</time><name>PT1071</name></trkpt>
<trkpt lat="51.600217" lon="03.859518"><ele>7.6</ele><time>2022-11-16T11:16:50Z</time><name>PT1072</name></trkpt>
<trkpt lat="51.600216" lon="03.859533"><ele>7.4</ele><time>2022-11-16T11:16:52Z</time><name>PT1073</name></trkpt>
<trkpt lat="51.600215" lon="03.859551"><ele>7.4</ele><time>2022-11-16T11:16:52Z</time><name>PT1074</name></trkpt>
<trkpt lat="51.600213" lon="03.859568"><ele>7.2</ele><time>2022-11-16T11:16:53Z</time><name>PT1075</name></trkpt>
<trkpt lat="51.600212" lon="03.859584"><ele>7.3</ele><time>2022-11-16T11:16:55Z</time><name>PT1076</name></trkpt>
<trkpt lat="51.600212" lon="03.859598"><ele>7.3</ele><time>2022-11-16T11:16:55Z</time><name>PT1077</name></trkpt>
<trkpt lat="51.600210" lon="03.859613"><ele>7.3</ele><time>2022-11-16T11:16:56Z</time><name>PT1078</name></trkpt>
<trkpt lat="51.600208" lon="03.859628"><ele>7.5</ele><time>2022-11-16T11:16:58Z</time><name>PT1079</name></trkpt>
<trkpt lat="51.600205" lon="03.859645"><ele>7.4</ele><time>2022-11-16T11:16:58Z</time><name>PT1080</name></trkpt>
<trkpt lat="51.600203" lon="03.859660"><ele>7.8</ele><time>2022-11-16T11:16:59Z</time><name>PT1081</name></trkpt>
<trkpt lat="51.600201" lon="03.859674"><ele>8.1</ele><time>2022-11-16T11:17:01Z</time><name>PT1082</name></trkpt>
<trkpt lat="51.600201" lon="03.859688"><ele>8.4</ele><time>2022-11-16T11:17:01Z</time><name>PT1083</name></trkpt>
<trkpt lat="51.600199" lon="03.859703"><ele>8.5</ele><time>2022-11-16T11:17:02Z</time><name>PT1084</name></trkpt>
<trkpt lat="51.600196" lon="03.859716"><ele>8.4</ele><time>2022-11-16T11:17:04Z</time><name>PT1085</name></trkpt>
<trkpt lat="51.600193" lon="03.859729"><ele>8.3</ele><time>2022-11-16T11:17:04Z</time><name>PT1086</name></trkpt>
<trkpt lat="51.600191" lon="03.859744"><ele>7.9</ele><time>2022-11-16T11:17:05Z</time><name>PT1087</name></trkpt>
<trkpt lat="51.600188" lon="03.859758"><ele>7.8</ele><time>2022-11-16T11:17:07Z</time><name>PT1088</name></trkpt>
<trkpt lat="51.600186" lon="03.859774"><ele>7.6</ele><time>2022-11-16T11:17:07Z</time><name>PT1089</name></trkpt>
<trkpt lat="51.600184" lon="03.859790"><ele>7.6</ele><time>2022-11-16T11:17:08Z</time><name>PT1090</name></trkpt>
<trkpt lat="51.600181" lon="03.859805"><ele>7.7</ele><time>2022-11-16T11:17:10Z</time><name>PT1091</name></trkpt>
<trkpt lat="51.600180" lon="03.859819"><ele>7.8</ele><time>2022-11-16T11:17:10Z</time><name>PT1092</name></trkpt>
<trkpt lat="51.600177" lon="03.859832"><ele>7.9</ele><time>2022-11-16T11:17:11Z</time><name>PT1093</name></trkpt>
<trkpt lat="51.600173" lon="03.859846"><ele>8.2</ele><time>2022-11-16T11:17:13Z</time><name>PT1094</name></trkpt>
<trkpt lat="51.600171" lon="03.859865"><ele>8.2</ele><time>2022-11-16T11:17:13Z</time><name>PT1095</name></trkpt>
<trkpt lat="51.600169" lon="03.859879"><ele>8.3</ele><time>2022-11-16T11:17:14Z</time><name>PT1096</name></trkpt>
<trkpt lat="51.600167" lon="03.859895"><ele>8.4</ele><time>2022-11-16T11:17:16Z</time><name>PT1097</name></trkpt>
<trkpt lat="51.600167" lon="03.859911"><ele>8.4</ele><time>2022-11-16T11:17:16Z</time><name>PT1098</name></trkpt>
<trkpt lat="51.600166" lon="03.859925"><ele>8.7</ele><time>2022-11-16T11:17:17Z</time><name>PT1099</name></trkpt>
<trkpt lat="51.600164" lon="03.859940"><ele>8.8</ele><time>2022-11-16T11:17:19Z</time><name>PT1100</name></trkpt>
<trkpt lat="51.600161" lon="03.859956"><ele>8.8</ele><time>2022-11-16T11:17:19Z</time><name>PT1101</name></trkpt>
<trkpt lat="51.600159" lon="03.859969"><ele>8.9</ele><time>2022-11-16T11:17:20Z</time><name>PT1102</name></trkpt>
<trkpt lat="51.600158" lon="03.859984"><ele>8.7</ele><time>2022-11-16T11:17:22Z</time><name>PT1103</name></trkpt>
<trkpt lat="51.600156" lon="03.859999"><ele>8.5</ele><time>2022-11-16T11:17:22Z</time><name>PT1104</name></trkpt>
<trkpt lat="51.600154" lon="03.860013"><ele>8.5</ele><time>2022-11-16T11:17:23Z</time><name>PT1105</name></trkpt>
<trkpt lat="51.600152" lon="03.860029"><ele>8.3</ele><time>2022-11-16T11:17:24Z</time><name>PT1106</name></trkpt>
<trkpt lat="51.600151" lon="03.860044"><ele>8.3</ele><time>2022-11-16T11:17:25Z</time><name>PT1107</name></trkpt>
<trkpt lat="51.600150" lon="03.860059"><ele>8.3</ele><time>2022-11-16T11:17:26Z</time><name>PT1108</name></trkpt>
<trkpt lat="51.600145" lon="03.860074"><ele>8.4</ele><time>2022-11-16T11:17:28Z</time><name>PT1109</name></trkpt>
<trkpt lat="51.600142" lon="03.860088"><ele>8.4</ele><time>2022-11-16T11:17:28Z</time><name>PT1110</name></trkpt>
<trkpt lat="51.600140" lon="03.860100"><ele>8.4</ele><time>2022-11-16T11:17:29Z</time><name>PT1111</name></trkpt>
<trkpt lat="51.600139" lon="03.860111"><ele>8.5</ele><time>2022-11-16T11:17:31Z</time><name>PT1112</name></trkpt>
<trkpt lat="51.600136" lon="03.860120"><ele>8.4</ele><time>2022-11-16T11:17:31Z</time><name>PT1113</name></trkpt>
<trkpt lat="51.600133" lon="03.860129"><ele>8.4</ele><time>2022-11-16T11:17:32Z</time><name>PT1114</name></trkpt>
<trkpt lat="51.600131" lon="03.860140"><ele>8.4</ele><time>2022-11-16T11:17:34Z</time><name>PT1115</name></trkpt>
<trkpt lat="51.600129" lon="03.860156"><ele>8.3</ele><time>2022-11-16T11:17:34Z</time><name>PT1116</name></trkpt>
<trkpt lat="51.600128" lon="03.860171"><ele>8.4</ele><time>2022-11-16T11:17:35Z</time><name>PT1117</name></trkpt>
<trkpt lat="51.600127" lon="03.860184"><ele>8.1</ele><time>2022-11-16T11:17:37Z</time><name>PT1118</name></trkpt>
<trkpt lat="51.600125" lon="03.860198"><ele>8.2</ele><time>2022-11-16T11:17:37Z</time><name>PT1119</name></trkpt>
<trkpt lat="51.600124" lon="03.860213"><ele>8.3</ele><time>2022-11-16T11:17:38Z</time><name>PT1120</name></trkpt>
<trkpt lat="51.600123" lon="03.860226"><ele>8.4</ele><time>2022-11-16T11:17:40Z</time><name>PT1121</name></trkpt>
<trkpt lat="51.600122" lon="03.860240"><ele>8.4</ele><time>2022-11-16T11:17:40Z</time><name>PT1122</name></trkpt>
<trkpt lat="51.600121" lon="03.860252"><ele>8.1</ele><time>2022-11-16T11:17:41Z</time><name>PT1123</name></trkpt>
<trkpt lat="51.600120" lon="03.860266"><ele>7.9</ele><time>2022-11-16T11:17:43Z</time><name>PT1124</name></trkpt>
<trkpt lat="51.600117" lon="03.860281"><ele>7.9</ele><time>2022-11-16T11:17:43Z</time><name>PT1125</name></trkpt>
<trkpt lat="51.600115" lon="03.860295"><ele>7.9</ele><time>2022-11-16T11:17:44Z</time><name>PT1126</name></trkpt>
<trkpt lat="51.600113" lon="03.860309"><ele>7.9</ele><time>2022-11-16T11:17:46Z</time><name>PT1127</name></trkpt>
<trkpt lat="51.600112" lon="03.860324"><ele>7.9</ele><time>2022-11-16T11:17:46Z</time><name>PT1128</name></trkpt>
<trkpt lat="51.600111" lon="03.860337"><ele>8</ele><time>2022-11-16T11:17:47Z</time><name>PT1129</name></trkpt>
<trkpt lat="51.600109" lon="03.860352"><ele>8.1</ele><time>2022-11-16T11:17:49Z</time><name>PT1130</name></trkpt>
<trkpt lat="51.600108" lon="03.860367"><ele>8.4</ele><time>2022-11-16T11:17:49Z</time><name>PT1131</name></trkpt>
<trkpt lat="51.600106" lon="03.860380"><ele>8.6</ele><time>2022-11-16T11:17:50Z</time><name>PT1132</name></trkpt>
<trkpt lat="51.600105" lon="03.860395"><ele>8.9</ele><time>2022-11-16T11:17:52Z</time><name>PT1133</name></trkpt>
<trkpt lat="51.600104" lon="03.860409"><ele>8.9</ele><time>2022-11-16T11:17:52Z</time><name>PT1134</name></trkpt>
<trkpt lat="51.600102" lon="03.860422"><ele>8.9</ele><time>2022-11-16T11:17:53Z</time><name>PT1135</name></trkpt>
<trkpt lat="51.600100" lon="03.860436"><ele>9.1</ele><time>2022-11-16T11:17:55Z</time><name>PT1136</name></trkpt>
<trkpt lat="51.600097" lon="03.860449"><ele>9</ele><time>2022-11-16T11:17:55Z</time><name>PT1137</name></trkpt>
<trkpt lat="51.600094" lon="03.860462"><ele>8.9</ele><time>2022-11-16T11:17:56Z</time><name>PT1138</name></trkpt>
<trkpt lat="51.600094" lon="03.860476"><ele>8.9</ele><time>2022-11-16T11:17:58Z</time><name>PT1139</name></trkpt>
<trkpt lat="51.600092" lon="03.860492"><ele>8.9</ele><time>2022-11-16T11:17:58Z</time><name>PT1140</name></trkpt>
<trkpt lat="51.600091" lon="03.860505"><ele>8.7</ele><time>2022-11-16T11:17:59Z</time><name>PT1141</name></trkpt>
<trkpt lat="51.600088" lon="03.860518"><ele>8.6</ele><time>2022-11-16T11:18:01Z</time><name>PT1142</name></trkpt>
<trkpt lat="51.600084" lon="03.860532"><ele>8.7</ele><time>2022-11-16T11:18:01Z</time><name>PT1143</name></trkpt>
<trkpt lat="51.600081" lon="03.860546"><ele>8.9</ele><time>2022-11-16T11:18:02Z</time><name>PT1144</name></trkpt>
<trkpt lat="51.600080" lon="03.860560"><ele>9.2</ele><time>2022-11-16T11:18:04Z</time><name>PT1145</name></trkpt>
<trkpt lat="51.600078" lon="03.860577"><ele>9.3</ele><time>2022-11-16T11:18:04Z</time><name>PT1146</name></trkpt>
<trkpt lat="51.600076" lon="03.860593"><ele>9.4</ele><time>2022-11-16T11:18:05Z</time><name>PT1147</name></trkpt>
<trkpt lat="51.600074" lon="03.860606"><ele>9</ele><time>2022-11-16T11:18:07Z</time><name>PT1148</name></trkpt>
<trkpt lat="51.600071" lon="03.860620"><ele>8.8</ele><time>2022-11-16T11:18:07Z</time><name>PT1149</name></trkpt>
<trkpt lat="51.600067" lon="03.860635"><ele>8.5</ele><time>2022-11-16T11:18:08Z</time><name>PT1150</name></trkpt>
<trkpt lat="51.600065" lon="03.860650"><ele>8.4</ele><time>2022-11-16T11:18:10Z</time><name>PT1151</name></trkpt>
<trkpt lat="51.600062" lon="03.860667"><ele>8.4</ele><time>2022-11-16T11:18:10Z</time><name>PT1152</name></trkpt>
<trkpt lat="51.600060" lon="03.860683"><ele>8.3</ele><time>2022-11-16T11:18:11Z</time><name>PT1153</name></trkpt>
<trkpt lat="51.600060" lon="03.860698"><ele>8.3</ele><time>2022-11-16T11:18:13Z</time><name>PT1154</name></trkpt>
<trkpt lat="51.600059" lon="03.860713"><ele>8.2</ele><time>2022-11-16T11:18:13Z</time><name>PT1155</name></trkpt>
<trkpt lat="51.600057" lon="03.860725"><ele>8.3</ele><time>2022-11-16T11:18:14Z</time><name>PT1156</name></trkpt>
<trkpt lat="51.600055" lon="03.860737"><ele>8.1</ele><time>2022-11-16T11:18:16Z</time><name>PT1157</name></trkpt>
<trkpt lat="51.600052" lon="03.860751"><ele>7.9</ele><time>2022-11-16T11:18:16Z</time><name>PT1158</name></trkpt>
<trkpt lat="51.600050" lon="03.860761"><ele>7.8</ele><time>2022-11-16T11:18:17Z</time><name>PT1159</name></trkpt>
<trkpt lat="51.600049" lon="03.860767"><ele>7.7</ele><time>2022-11-16T11:18:19Z</time><name>PT1160</name></trkpt>
<trkpt lat="51.600049" lon="03.860767"><ele>7.9</ele><time>2022-11-16T11:18:19Z</time><name>PT1161</name></trkpt>
<trkpt lat="51.600049" lon="03.860767"><ele>8.2</ele><time>2022-11-16T11:18:20Z</time><name>PT1162</name></trkpt>
<trkpt lat="51.600049" lon="03.860767"><ele>8.4</ele><time>2022-11-16T11:18:22Z</time><name>PT1163</name></trkpt>
<trkpt lat="51.600049" lon="03.860770"><ele>7.5</ele><time>2022-11-16T11:18:55Z</time><name>PT1164</name></trkpt>
<trkpt lat="51.600050" lon="03.860783"><ele>7.7</ele><time>2022-11-16T11:18:55Z</time><name>PT1165</name></trkpt>
<trkpt lat="51.600049" lon="03.860793"><ele>7.7</ele><time>2022-11-16T11:18:56Z</time><name>PT1166</name></trkpt>
<trkpt lat="51.600046" lon="03.860806"><ele>7.9</ele><time>2022-11-16T11:18:58Z</time><name>PT1167</name></trkpt>
<trkpt lat="51.600042" lon="03.860819"><ele>8</ele><time>2022-11-16T11:18:58Z</time><name>PT1168</name></trkpt>
<trkpt lat="51.600034" lon="03.860824"><ele>7.8</ele><time>2022-11-16T11:18:59Z</time><name>PT1169</name></trkpt>
<trkpt lat="51.600029" lon="03.860838"><ele>7.8</ele><time>2022-11-16T11:19:01Z</time><name>PT1170</name></trkpt>
<trkpt lat="51.600026" lon="03.860856"><ele>7.8</ele><time>2022-11-16T11:19:01Z</time><name>PT1171</name></trkpt>
<trkpt lat="51.600023" lon="03.860873"><ele>8.3</ele><time>2022-11-16T11:19:02Z</time><name>PT1172</name></trkpt>
<trkpt lat="51.600020" lon="03.860891"><ele>8.9</ele><time>2022-11-16T11:19:04Z</time><name>PT1173</name></trkpt>
<trkpt lat="51.600015" lon="03.860907"><ele>9</ele><time>2022-11-16T11:19:04Z</time><name>PT1174</name></trkpt>
<trkpt lat="51.600012" lon="03.860921"><ele>9.2</ele><time>2022-11-16T11:19:05Z</time><name>PT1175</name></trkpt>
<trkpt lat="51.600007" lon="03.860936"><ele>9</ele><time>2022-11-16T11:19:07Z</time><name>PT1176</name></trkpt>
<trkpt lat="51.600005" lon="03.860951"><ele>8.9</ele><time>2022-11-16T11:19:07Z</time><name>PT1177</name></trkpt>
<trkpt lat="51.600002" lon="03.860965"><ele>9</ele><time>2022-11-16T11:19:08Z</time><name>PT1178</name></trkpt>
<trkpt lat="51.599997" lon="03.860977"><ele>8.9</ele><time>2022-11-16T11:19:10Z</time><name>PT1179</name></trkpt>
<trkpt lat="51.599994" lon="03.860991"><ele>9</ele><time>2022-11-16T11:19:10Z</time><name>PT1180</name></trkpt>
<trkpt lat="51.599992" lon="03.861005"><ele>9</ele><time>2022-11-16T11:19:11Z</time><name>PT1181</name></trkpt>
<trkpt lat="51.599989" lon="03.861021"><ele>9.2</ele><time>2022-11-16T11:19:13Z</time><name>PT1182</name></trkpt>
<trkpt lat="51.599985" lon="03.861036"><ele>9.2</ele><time>2022-11-16T11:19:13Z</time><name>PT1183</name></trkpt>
<trkpt lat="51.599979" lon="03.861048"><ele>9.2</ele><time>2022-11-16T11:19:14Z</time><name>PT1184</name></trkpt>
<trkpt lat="51.599975" lon="03.861061"><ele>9.1</ele><time>2022-11-16T11:19:16Z</time><name>PT1185</name></trkpt>
<trkpt lat="51.599969" lon="03.861074"><ele>9.2</ele><time>2022-11-16T11:19:16Z</time><name>PT1186</name></trkpt>
<trkpt lat="51.599965" lon="03.861088"><ele>9.2</ele><time>2022-11-16T11:19:17Z</time><name>PT1187</name></trkpt>
<trkpt lat="51.599962" lon="03.861103"><ele>9.3</ele><time>2022-11-16T11:19:18Z</time><name>PT1188</name></trkpt>
<trkpt lat="51.599959" lon="03.861119"><ele>9.3</ele><time>2022-11-16T11:19:19Z</time><name>PT1189</name></trkpt>
<trkpt lat="51.599953" lon="03.861134"><ele>9.4</ele><time>2022-11-16T11:19:20Z</time><name>PT1190</name></trkpt>
<trkpt lat="51.599947" lon="03.861146"><ele>9.1</ele><time>2022-11-16T11:19:22Z</time><name>PT1191</name></trkpt>
<trkpt lat="51.599941" lon="03.861157"><ele>9.1</ele><time>2022-11-16T11:19:22Z</time><name>PT1192</name></trkpt>
<trkpt lat="51.599936" lon="03.861169"><ele>8.8</ele><time>2022-11-16T11:19:23Z</time><name>PT1193</name></trkpt>
<trkpt lat="51.599932" lon="03.861182"><ele>8.7</ele><time>2022-11-16T11:19:25Z</time><name>PT1194</name></trkpt>
<trkpt lat="51.599929" lon="03.861195"><ele>8.5</ele><time>2022-11-16T11:19:25Z</time><name>PT1195</name></trkpt>
<trkpt lat="51.599925" lon="03.861209"><ele>8.6</ele><time>2022-11-16T11:19:26Z</time><name>PT1196</name></trkpt>
<trkpt lat="51.599921" lon="03.861224"><ele>8.5</ele><time>2022-11-16T11:19:27Z</time><name>PT1197</name></trkpt>
<trkpt lat="51.599918" lon="03.861237"><ele>8.5</ele><time>2022-11-16T11:19:28Z</time><name>PT1198</name></trkpt>
<trkpt lat="51.599913" lon="03.861248"><ele>8.5</ele><time>2022-11-16T11:19:29Z</time><name>PT1199</name></trkpt>
<trkpt lat="51.599908" lon="03.861261"><ele>8.4</ele><time>2022-11-16T11:19:31Z</time><name>PT1200</name></trkpt>
<trkpt lat="51.599903" lon="03.861275"><ele>8.4</ele><time>2022-11-16T11:19:31Z</time><name>PT1201</name></trkpt>
<trkpt lat="51.599899" lon="03.861289"><ele>8.4</ele><time>2022-11-16T11:19:32Z</time><name>PT1202</name></trkpt>
<trkpt lat="51.599899" lon="03.861303"><ele>8.4</ele><time>2022-11-16T11:19:33Z</time><name>PT1203</name></trkpt>
<trkpt lat="51.599898" lon="03.861318"><ele>8.4</ele><time>2022-11-16T11:19:34Z</time><name>PT1204</name></trkpt>
<trkpt lat="51.599897" lon="03.861330"><ele>8.3</ele><time>2022-11-16T11:19:35Z</time><name>PT1205</name></trkpt>
<trkpt lat="51.599894" lon="03.861342"><ele>8.3</ele><time>2022-11-16T11:19:37Z</time><name>PT1206</name></trkpt>
<trkpt lat="51.599891" lon="03.861353"><ele>8.4</ele><time>2022-11-16T11:19:37Z</time><name>PT1207</name></trkpt>
<trkpt lat="51.599886" lon="03.861364"><ele>8.4</ele><time>2022-11-16T11:19:38Z</time><name>PT1208</name></trkpt>
<trkpt lat="51.599881" lon="03.861375"><ele>8.4</ele><time>2022-11-16T11:19:39Z</time><name>PT1209</name></trkpt>
<trkpt lat="51.599876" lon="03.861386"><ele>8.5</ele><time>2022-11-16T11:19:40Z</time><name>PT1210</name></trkpt>
<trkpt lat="51.599870" lon="03.861394"><ele>8.5</ele><time>2022-11-16T11:19:41Z</time><name>PT1211</name></trkpt>
<trkpt lat="51.599866" lon="03.861404"><ele>8.4</ele><time>2022-11-16T11:19:42Z</time><name>PT1212</name></trkpt>
<trkpt lat="51.599862" lon="03.861415"><ele>8.5</ele><time>2022-11-16T11:19:43Z</time><name>PT1213</name></trkpt>
<trkpt lat="51.599856" lon="03.861425"><ele>8.6</ele><time>2022-11-16T11:19:44Z</time><name>PT1214</name></trkpt>
<trkpt lat="51.599849" lon="03.861437"><ele>8.9</ele><time>2022-11-16T11:19:45Z</time><name>PT1215</name></trkpt>
<trkpt lat="51.599842" lon="03.861447"><ele>8.9</ele><time>2022-11-16T11:19:46Z</time><name>PT1216</name></trkpt>
<trkpt lat="51.599837" lon="03.861458"><ele>8.9</ele><time>2022-11-16T11:19:47Z</time><name>PT1217</name></trkpt>
<trkpt lat="51.599832" lon="03.861472"><ele>8.9</ele><time>2022-11-16T11:19:49Z</time><name>PT1218</name></trkpt>
<trkpt lat="51.599826" lon="03.861485"><ele>8.7</ele><time>2022-11-16T11:19:49Z</time><name>PT1219</name></trkpt>
<trkpt lat="51.599822" lon="03.861495"><ele>8.5</ele><time>2022-11-16T11:19:50Z</time><name>PT1220</name></trkpt>
<trkpt lat="51.599818" lon="03.861506"><ele>8.4</ele><time>2022-11-16T11:19:52Z</time><name>PT1221</name></trkpt>
<trkpt lat="51.599813" lon="03.861518"><ele>8.4</ele><time>2022-11-16T11:19:52Z</time><name>PT1222</name></trkpt>
<trkpt lat="51.599809" lon="03.861531"><ele>8.3</ele><time>2022-11-16T11:19:53Z</time><name>PT1223</name></trkpt>
<trkpt lat="51.599806" lon="03.861545"><ele>8.4</ele><time>2022-11-16T11:19:54Z</time><name>PT1224</name></trkpt>
<trkpt lat="51.599802" lon="03.861559"><ele>8.6</ele><time>2022-11-16T11:19:55Z</time><name>PT1225</name></trkpt>
<trkpt lat="51.599797" lon="03.861572"><ele>8.9</ele><time>2022-11-16T11:19:56Z</time><name>PT1226</name></trkpt>
<trkpt lat="51.599791" lon="03.861583"><ele>8.9</ele><time>2022-11-16T11:19:57Z</time><name>PT1227</name></trkpt>
<trkpt lat="51.599786" lon="03.861595"><ele>9.2</ele><time>2022-11-16T11:19:58Z</time><name>PT1228</name></trkpt>
<trkpt lat="51.599782" lon="03.861607"><ele>9.4</ele><time>2022-11-16T11:19:59Z</time><name>PT1229</name></trkpt>
<trkpt lat="51.599778" lon="03.861619"><ele>9.3</ele><time>2022-11-16T11:20:00Z</time><name>PT1230</name></trkpt>
<trkpt lat="51.599774" lon="03.861631"><ele>9.3</ele><time>2022-11-16T11:20:01Z</time><name>PT1231</name></trkpt>
<trkpt lat="51.599771" lon="03.861642"><ele>8.9</ele><time>2022-11-16T11:20:02Z</time><name>PT1232</name></trkpt>
<trkpt lat="51.599770" lon="03.861652"><ele>8.7</ele><time>2022-11-16T11:20:04Z</time><name>PT1233</name></trkpt>
<trkpt lat="51.599771" lon="03.861660"><ele>8.5</ele><time>2022-11-16T11:20:04Z</time><name>PT1234</name></trkpt>
<trkpt lat="51.599773" lon="03.861665"><ele>8.3</ele><time>2022-11-16T11:20:05Z</time><name>PT1235</name></trkpt>
<trkpt lat="51.599775" lon="03.861670"><ele>7.9</ele><time>2022-11-16T11:20:06Z</time><name>PT1236</name></trkpt>
<trkpt lat="51.599777" lon="03.861674"><ele>7.7</ele><time>2022-11-16T11:20:07Z</time><name>PT1237</name></trkpt>
<trkpt lat="51.599778" lon="03.861679"><ele>7.1</ele><time>2022-11-16T11:20:08Z</time><name>PT1238</name></trkpt>
<trkpt lat="51.599779" lon="03.861683"><ele>6.8</ele><time>2022-11-16T11:20:10Z</time><name>PT1239</name></trkpt>
<trkpt lat="51.599784" lon="03.861683"><ele>6.7</ele><time>2022-11-16T11:20:10Z</time><name>PT1240</name></trkpt>
<trkpt lat="51.599785" lon="03.861687"><ele>6.8</ele><time>2022-11-16T11:20:11Z</time><name>PT1241</name></trkpt>
<trkpt lat="51.599787" lon="03.861688"><ele>7</ele><time>2022-11-16T11:20:13Z</time><name>PT1242</name></trkpt>
<trkpt lat="51.599789" lon="03.861688"><ele>7.2</ele><time>2022-11-16T11:20:13Z</time><name>PT1243</name></trkpt>
<trkpt lat="51.599788" lon="03.861691"><ele>7.3</ele><time>2022-11-16T11:20:14Z</time><name>PT1244</name></trkpt>
<trkpt lat="51.599790" lon="03.861693"><ele>7.1</ele><time>2022-11-16T11:20:16Z</time><name>PT1245</name></trkpt>
<trkpt lat="51.599791" lon="03.861697"><ele>7.2</ele><time>2022-11-16T11:20:16Z</time><name>PT1246</name></trkpt>
<trkpt lat="51.599792" lon="03.861701"><ele>7</ele><time>2022-11-16T11:20:17Z</time><name>PT1247</name></trkpt>
<trkpt lat="51.599794" lon="03.861704"><ele>6.8</ele><time>2022-11-16T11:20:19Z</time><name>PT1248</name></trkpt>
<trkpt lat="51.599794" lon="03.861709"><ele>6.7</ele><time>2022-11-16T11:20:19Z</time><name>PT1249</name></trkpt>
<trkpt lat="51.599797" lon="03.861712"><ele>6.5</ele><time>2022-11-16T11:20:20Z</time><name>PT1250</name></trkpt>
<trkpt lat="51.599799" lon="03.861716"><ele>6.5</ele><time>2022-11-16T11:20:22Z</time><name>PT1251</name></trkpt>
<trkpt lat="51.599802" lon="03.861717"><ele>6.3</ele><time>2022-11-16T11:20:22Z</time><name>PT1252</name></trkpt>
<trkpt lat="51.599803" lon="03.861721"><ele>6.1</ele><time>2022-11-16T11:20:23Z</time><name>PT1253</name></trkpt>
<trkpt lat="51.599805" lon="03.861723"><ele>5.8</ele><time>2022-11-16T11:20:25Z</time><name>PT1254</name></trkpt>
<trkpt lat="51.599807" lon="03.861723"><ele>5.6</ele><time>2022-11-16T11:20:25Z</time><name>PT1255</name></trkpt>
<trkpt lat="51.599807" lon="03.861724"><ele>5.3</ele><time>2022-11-16T11:20:26Z</time><name>PT1256</name></trkpt>
<trkpt lat="51.599806" lon="03.861727"><ele>5.3</ele><time>2022-11-16T11:20:28Z</time><name>PT1257</name></trkpt>
<trkpt lat="51.599807" lon="03.861730"><ele>5.3</ele><time>2022-11-16T11:20:28Z</time><name>PT1258</name></trkpt>
<trkpt lat="51.599810" lon="03.861734"><ele>5.3</ele><time>2022-11-16T11:20:29Z</time><name>PT1259</name></trkpt>
<trkpt lat="51.599814" lon="03.861740"><ele>5.1</ele><time>2022-11-16T11:20:30Z</time><name>PT1260</name></trkpt>
<trkpt lat="51.599821" lon="03.861745"><ele>4.9</ele><time>2022-11-16T11:20:31Z</time><name>PT1261</name></trkpt>
<trkpt lat="51.599829" lon="03.861750"><ele>4.7</ele><time>2022-11-16T11:20:32Z</time><name>PT1262</name></trkpt>
<trkpt lat="51.599834" lon="03.861759"><ele>4.6</ele><time>2022-11-16T11:20:33Z</time><name>PT1263</name></trkpt>
<trkpt lat="51.599842" lon="03.861763"><ele>4.5</ele><time>2022-11-16T11:20:34Z</time><name>PT1264</name></trkpt>
<trkpt lat="51.599847" lon="03.861771"><ele>4.3</ele><time>2022-11-16T11:20:35Z</time><name>PT1265</name></trkpt>
<trkpt lat="51.599851" lon="03.861777"><ele>4.2</ele><time>2022-11-16T11:20:37Z</time><name>PT1266</name></trkpt>
<trkpt lat="51.599857" lon="03.861775"><ele>4.1</ele><time>2022-11-16T11:20:37Z</time><name>PT1267</name></trkpt>
<trkpt lat="51.599864" lon="03.861780"><ele>4.2</ele><time>2022-11-16T11:20:38Z</time><name>PT1268</name></trkpt>
<trkpt lat="51.599871" lon="03.861783"><ele>4.1</ele><time>2022-11-16T11:20:40Z</time><name>PT1269</name></trkpt>
<trkpt lat="51.599877" lon="03.861789"><ele>4.1</ele><time>2022-11-16T11:20:40Z</time><name>PT1270</name></trkpt>
<trkpt lat="51.599881" lon="03.861795"><ele>4</ele><time>2022-11-16T11:20:41Z</time><name>PT1271</name></trkpt>
<trkpt lat="51.599887" lon="03.861797"><ele>3.7</ele><time>2022-11-16T11:20:43Z</time><name>PT1272</name></trkpt>
<trkpt lat="51.599896" lon="03.861804"><ele>3.8</ele><time>2022-11-16T11:20:43Z</time><name>PT1273</name></trkpt>
<trkpt lat="51.599901" lon="03.861809"><ele>3.7</ele><time>2022-11-16T11:20:44Z</time><name>PT1274</name></trkpt>
<trkpt lat="51.599906" lon="03.861816"><ele>3.5</ele><time>2022-11-16T11:20:45Z</time><name>PT1275</name></trkpt>
<trkpt lat="51.599912" lon="03.861821"><ele>3.6</ele><time>2022-11-16T11:20:46Z</time><name>PT1276</name></trkpt>
<trkpt lat="51.599914" lon="03.861828"><ele>3.4</ele><time>2022-11-16T11:20:47Z</time><name>PT1277</name></trkpt>
<trkpt lat="51.599920" lon="03.861832"><ele>3.3</ele><time>2022-11-16T11:20:49Z</time><name>PT1278</name></trkpt>
<trkpt lat="51.599925" lon="03.861835"><ele>3.5</ele><time>2022-11-16T11:20:49Z</time><name>PT1279</name></trkpt>
<trkpt lat="51.599930" lon="03.861840"><ele>3.6</ele><time>2022-11-16T11:20:50Z</time><name>PT1280</name></trkpt>
<trkpt lat="51.599934" lon="03.861843"><ele>3.7</ele><time>2022-11-16T11:20:52Z</time><name>PT1281</name></trkpt>
<trkpt lat="51.599938" lon="03.861845"><ele>3.7</ele><time>2022-11-16T11:20:52Z</time><name>PT1282</name></trkpt>
<trkpt lat="51.599942" lon="03.861843"><ele>3.5</ele><time>2022-11-16T11:20:53Z</time><name>PT1283</name></trkpt>
<trkpt lat="51.599948" lon="03.861844"><ele>3.6</ele><time>2022-11-16T11:20:55Z</time><name>PT1284</name></trkpt>
<trkpt lat="51.599954" lon="03.861843"><ele>3.8</ele><time>2022-11-16T11:20:55Z</time><name>PT1285</name></trkpt>
<trkpt lat="51.599957" lon="03.861843"><ele>4.2</ele><time>2022-11-16T11:20:56Z</time><name>PT1286</name></trkpt>
<trkpt lat="51.599961" lon="03.861845"><ele>5.1</ele><time>2022-11-16T11:20:58Z</time><name>PT1287</name></trkpt>
<trkpt lat="51.599967" lon="03.861846"><ele>5.5</ele><time>2022-11-16T11:20:58Z</time><name>PT1288</name></trkpt>
<trkpt lat="51.599973" lon="03.861845"><ele>6</ele><time>2022-11-16T11:20:59Z</time><name>PT1289</name></trkpt>
<trkpt lat="51.599979" lon="03.861840"><ele>6</ele><time>2022-11-16T11:21:00Z</time><name>PT1290</name></trkpt>
<trkpt lat="51.599985" lon="03.861836"><ele>5.8</ele><time>2022-11-16T11:21:01Z</time><name>PT1291</name></trkpt>
<trkpt lat="51.599988" lon="03.861830"><ele>5.3</ele><time>2022-11-16T11:21:02Z</time><name>PT1292</name></trkpt>
<trkpt lat="51.599990" lon="03.861827"><ele>4.8</ele><time>2022-11-16T11:21:03Z</time><name>PT1293</name></trkpt>
<trkpt lat="51.599995" lon="03.861821"><ele>4.7</ele><time>2022-11-16T11:21:04Z</time><name>PT1294</name></trkpt>
<trkpt lat="51.600001" lon="03.861815"><ele>4.7</ele><time>2022-11-16T11:21:05Z</time><name>PT1295</name></trkpt>
<trkpt lat="51.600007" lon="03.861811"><ele>4.4</ele><time>2022-11-16T11:21:07Z</time><name>PT1296</name></trkpt>
<trkpt lat="51.600014" lon="03.861807"><ele>4.3</ele><time>2022-11-16T11:21:07Z</time><name>PT1297</name></trkpt>
<trkpt lat="51.600022" lon="03.861805"><ele>4.2</ele><time>2022-11-16T11:21:08Z</time><name>PT1298</name></trkpt>
<trkpt lat="51.600030" lon="03.861801"><ele>4.1</ele><time>2022-11-16T11:21:10Z</time><name>PT1299</name></trkpt>
<trkpt lat="51.600035" lon="03.861794"><ele>4</ele><time>2022-11-16T11:21:10Z</time><name>PT1300</name></trkpt>
<trkpt lat="51.600038" lon="03.861783"><ele>3.5</ele><time>2022-11-16T11:21:11Z</time><name>PT1301</name></trkpt>
<trkpt lat="51.600043" lon="03.861777"><ele>2.4</ele><time>2022-11-16T11:21:13Z</time><name>PT1302</name></trkpt>
<trkpt lat="51.600043" lon="03.861774"><ele>1.6</ele><time>2022-11-16T11:21:13Z</time><name>PT1303</name></trkpt>
<trkpt lat="51.600044" lon="03.861773"><ele>0.8</ele><time>2022-11-16T11:21:14Z</time><name>PT1304</name></trkpt>
<trkpt lat="51.600046" lon="03.861767"><ele>0.7</ele><time>2022-11-16T11:21:16Z</time><name>PT1305</name></trkpt>
<trkpt lat="51.600046" lon="03.861763"><ele>0.9</ele><time>2022-11-16T11:21:16Z</time><name>PT1306</name></trkpt>
<trkpt lat="51.600048" lon="03.861757"><ele>1.9</ele><time>2022-11-16T11:21:17Z</time><name>PT1307</name></trkpt>
<trkpt lat="51.600051" lon="03.861749"><ele>2.7</ele><time>2022-11-16T11:21:19Z</time><name>PT1308</name></trkpt>
<trkpt lat="51.600054" lon="03.861739"><ele>2.9</ele><time>2022-11-16T11:21:19Z</time><name>PT1309</name></trkpt>
<trkpt lat="51.600054" lon="03.861729"><ele>3.2</ele><time>2022-11-16T11:21:20Z</time><name>PT1310</name></trkpt>
<trkpt lat="51.600056" lon="03.861719"><ele>3.6</ele><time>2022-11-16T11:21:22Z</time><name>PT1311</name></trkpt>
<trkpt lat="51.600059" lon="03.861710"><ele>3.7</ele><time>2022-11-16T11:21:22Z</time><name>PT1312</name></trkpt>
<trkpt lat="51.600063" lon="03.861697"><ele>3.6</ele><time>2022-11-16T11:21:23Z</time><name>PT1313</name></trkpt>
<trkpt lat="51.600064" lon="03.861682"><ele>3.4</ele><time>2022-11-16T11:21:24Z</time><name>PT1314</name></trkpt>
<trkpt lat="51.600065" lon="03.861668"><ele>3.3</ele><time>2022-11-16T11:21:25Z</time><name>PT1315</name></trkpt>
<trkpt lat="51.600067" lon="03.861655"><ele>3.3</ele><time>2022-11-16T11:21:26Z</time><name>PT1316</name></trkpt>
<trkpt lat="51.600072" lon="03.861643"><ele>3.2</ele><time>2022-11-16T11:21:28Z</time><name>PT1317</name></trkpt>
<trkpt lat="51.600076" lon="03.861630"><ele>3.4</ele><time>2022-11-16T11:21:28Z</time><name>PT1318</name></trkpt>
<trkpt lat="51.600080" lon="03.861618"><ele>3.5</ele><time>2022-11-16T11:21:29Z</time><name>PT1319</name></trkpt>
<trkpt lat="51.600081" lon="03.861609"><ele>3.2</ele><time>2022-11-16T11:21:31Z</time><name>PT1320</name></trkpt>
<trkpt lat="51.600083" lon="03.861607"><ele>3</ele><time>2022-11-16T11:21:31Z</time><name>PT1321</name></trkpt>
<trkpt lat="51.600081" lon="03.861611"><ele>3.1</ele><time>2022-11-16T11:21:32Z</time><name>PT1322</name></trkpt>
<trkpt lat="51.600080" lon="03.861611"><ele>2.8</ele><time>2022-11-16T11:21:34Z</time><name>PT1323</name></trkpt>
<trkpt lat="51.600083" lon="03.861605"><ele>3</ele><time>2022-11-16T11:21:35Z</time><name>PT1324</name></trkpt>
<trkpt lat="51.600086" lon="03.861587"><ele>2.6</ele><time>2022-11-16T11:21:37Z</time><name>PT1325</name></trkpt>
<trkpt lat="51.600089" lon="03.861569"><ele>2.6</ele><time>2022-11-16T11:21:37Z</time><name>PT1326</name></trkpt>
<trkpt lat="51.600092" lon="03.861553"><ele>2.8</ele><time>2022-11-16T11:21:38Z</time><name>PT1327</name></trkpt>
<trkpt lat="51.600094" lon="03.861540"><ele>2.6</ele><time>2022-11-16T11:21:40Z</time><name>PT1328</name></trkpt>
<trkpt lat="51.600097" lon="03.861526"><ele>2.6</ele><time>2022-11-16T11:21:40Z</time><name>PT1329</name></trkpt>
<trkpt lat="51.600099" lon="03.861512"><ele>2.7</ele><time>2022-11-16T11:21:41Z</time><name>PT1330</name></trkpt>
<trkpt lat="51.600101" lon="03.861498"><ele>2.6</ele><time>2022-11-16T11:21:43Z</time><name>PT1331</name></trkpt>
<trkpt lat="51.600103" lon="03.861482"><ele>2.6</ele><time>2022-11-16T11:21:43Z</time><name>PT1332</name></trkpt>
<trkpt lat="51.600105" lon="03.861464"><ele>2.6</ele><time>2022-11-16T11:21:44Z</time><name>PT1333</name></trkpt>
<trkpt lat="51.600107" lon="03.861448"><ele>2.9</ele><time>2022-11-16T11:21:46Z</time><name>PT1334</name></trkpt>
<trkpt lat="51.600109" lon="03.861430"><ele>2.9</ele><time>2022-11-16T11:21:46Z</time><name>PT1335</name></trkpt>
<trkpt lat="51.600111" lon="03.861413"><ele>2.9</ele><time>2022-11-16T11:21:47Z</time><name>PT1336</name></trkpt>
<trkpt lat="51.600114" lon="03.861397"><ele>2.9</ele><time>2022-11-16T11:21:49Z</time><name>PT1337</name></trkpt>
<trkpt lat="51.600115" lon="03.861379"><ele>3</ele><time>2022-11-16T11:21:49Z</time><name>PT1338</name></trkpt>
<trkpt lat="51.600117" lon="03.861360"><ele>3.1</ele><time>2022-11-16T11:21:50Z</time><name>PT1339</name></trkpt>
<trkpt lat="51.600121" lon="03.861345"><ele>3.2</ele><time>2022-11-16T11:21:52Z</time><name>PT1340</name></trkpt>
<trkpt lat="51.600122" lon="03.861329"><ele>3.2</ele><time>2022-11-16T11:21:52Z</time><name>PT1341</name></trkpt>
<trkpt lat="51.600123" lon="03.861312"><ele>3.3</ele><time>2022-11-16T11:21:53Z</time><name>PT1342</name></trkpt>
<trkpt lat="51.600126" lon="03.861294"><ele>3.2</ele><time>2022-11-16T11:21:55Z</time><name>PT1343</name></trkpt>
<trkpt lat="51.600128" lon="03.861277"><ele>3.2</ele><time>2022-11-16T11:21:55Z</time><name>PT1344</name></trkpt>
<trkpt lat="51.600131" lon="03.861259"><ele>3</ele><time>2022-11-16T11:21:56Z</time><name>PT1345</name></trkpt>
<trkpt lat="51.600132" lon="03.861241"><ele>2.8</ele><time>2022-11-16T11:21:58Z</time><name>PT1346</name></trkpt>
<trkpt lat="51.600135" lon="03.861222"><ele>3</ele><time>2022-11-16T11:21:58Z</time><name>PT1347</name></trkpt>
<trkpt lat="51.600135" lon="03.861203"><ele>3</ele><time>2022-11-16T11:21:59Z</time><name>PT1348</name></trkpt>
<trkpt lat="51.600137" lon="03.861184"><ele>3</ele><time>2022-11-16T11:22:00Z</time><name>PT1349</name></trkpt>
<trkpt lat="51.600140" lon="03.861167"><ele>3</ele><time>2022-11-16T11:22:01Z</time><name>PT1350</name></trkpt>
<trkpt lat="51.600142" lon="03.861150"><ele>3</ele><time>2022-11-16T11:22:02Z</time><name>PT1351</name></trkpt>
<trkpt lat="51.600145" lon="03.861134"><ele>3</ele><time>2022-11-16T11:22:03Z</time><name>PT1352</name></trkpt>
<trkpt lat="51.600149" lon="03.861116"><ele>3</ele><time>2022-11-16T11:22:04Z</time><name>PT1353</name></trkpt>
<trkpt lat="51.600151" lon="03.861098"><ele>3.1</ele><time>2022-11-16T11:22:05Z</time><name>PT1354</name></trkpt>
<trkpt lat="51.600153" lon="03.861082"><ele>3.2</ele><time>2022-11-16T11:22:06Z</time><name>PT1355</name></trkpt>
<trkpt lat="51.600154" lon="03.861064"><ele>3.1</ele><time>2022-11-16T11:22:07Z</time><name>PT1356</name></trkpt>
<trkpt lat="51.600157" lon="03.861045"><ele>3.2</ele><time>2022-11-16T11:22:08Z</time><name>PT1357</name></trkpt>
<trkpt lat="51.600159" lon="03.861025"><ele>3.3</ele><time>2022-11-16T11:22:10Z</time><name>PT1358</name></trkpt>
<trkpt lat="51.600162" lon="03.861006"><ele>3.2</ele><time>2022-11-16T11:22:10Z</time><name>PT1359</name></trkpt>
<trkpt lat="51.600165" lon="03.860991"><ele>3.1</ele><time>2022-11-16T11:22:11Z</time><name>PT1360</name></trkpt>
<trkpt lat="51.600169" lon="03.860973"><ele>2.8</ele><time>2022-11-16T11:22:12Z</time><name>PT1361</name></trkpt>
<trkpt lat="51.600172" lon="03.860954"><ele>2.7</ele><time>2022-11-16T11:22:13Z</time><name>PT1362</name></trkpt>
<trkpt lat="51.600176" lon="03.860935"><ele>2.7</ele><time>2022-11-16T11:22:14Z</time><name>PT1363</name></trkpt>
<trkpt lat="51.600179" lon="03.860917"><ele>2.8</ele><time>2022-11-16T11:22:16Z</time><name>PT1364</name></trkpt>
<trkpt lat="51.600182" lon="03.860902"><ele>3</ele><time>2022-11-16T11:22:16Z</time><name>PT1365</name></trkpt>
<trkpt lat="51.600183" lon="03.860885"><ele>3</ele><time>2022-11-16T11:22:17Z</time><name>PT1366</name></trkpt>
<trkpt lat="51.600184" lon="03.860867"><ele>2.8</ele><time>2022-11-16T11:22:18Z</time><name>PT1367</name></trkpt>
<trkpt lat="51.600185" lon="03.860847"><ele>2.9</ele><time>2022-11-16T11:22:19Z</time><name>PT1368</name></trkpt>
<trkpt lat="51.600186" lon="03.860830"><ele>3.2</ele><time>2022-11-16T11:22:20Z</time><name>PT1369</name></trkpt>
<trkpt lat="51.600188" lon="03.860814"><ele>3.5</ele><time>2022-11-16T11:22:22Z</time><name>PT1370</name></trkpt>
<trkpt lat="51.600191" lon="03.860800"><ele>3.7</ele><time>2022-11-16T11:22:22Z</time><name>PT1371</name></trkpt>
<trkpt lat="51.600193" lon="03.860784"><ele>3.7</ele><time>2022-11-16T11:22:23Z</time><name>PT1372</name></trkpt>
<trkpt lat="51.600197" lon="03.860768"><ele>3.6</ele><time>2022-11-16T11:22:24Z</time><name>PT1373</name></trkpt>
<trkpt lat="51.600200" lon="03.860752"><ele>3.4</ele><time>2022-11-16T11:22:25Z</time><name>PT1374</name></trkpt>
<trkpt lat="51.600202" lon="03.860733"><ele>3.3</ele><time>2022-11-16T11:22:26Z</time><name>PT1375</name></trkpt>
<trkpt lat="51.600204" lon="03.860718"><ele>3.3</ele><time>2022-11-16T11:22:27Z</time><name>PT1376</name></trkpt>
<trkpt lat="51.600206" lon="03.860702"><ele>3.2</ele><time>2022-11-16T11:22:28Z</time><name>PT1377</name></trkpt>
<trkpt lat="51.600208" lon="03.860686"><ele>3</ele><time>2022-11-16T11:22:29Z</time><name>PT1378</name></trkpt>
<trkpt lat="51.600209" lon="03.860669"><ele>3</ele><time>2022-11-16T11:22:31Z</time><name>PT1379</name></trkpt>
<trkpt lat="51.600210" lon="03.860653"><ele>3.2</ele><time>2022-11-16T11:22:31Z</time><name>PT1380</name></trkpt>
<trkpt lat="51.600210" lon="03.860635"><ele>3.4</ele><time>2022-11-16T11:22:32Z</time><name>PT1381</name></trkpt>
<trkpt lat="51.600211" lon="03.860617"><ele>3.8</ele><time>2022-11-16T11:22:34Z</time><name>PT1382</name></trkpt>
<trkpt lat="51.600213" lon="03.860599"><ele>3.8</ele><time>2022-11-16T11:22:34Z</time><name>PT1383</name></trkpt>
<trkpt lat="51.600215" lon="03.860585"><ele>3.7</ele><time>2022-11-16T11:22:35Z</time><name>PT1384</name></trkpt>
<trkpt lat="51.600217" lon="03.860570"><ele>3.7</ele><time>2022-11-16T11:22:36Z</time><name>PT1385</name></trkpt>
<trkpt lat="51.600220" lon="03.860556"><ele>3.7</ele><time>2022-11-16T11:22:37Z</time><name>PT1386</name></trkpt>
<trkpt lat="51.600224" lon="03.860541"><ele>3.7</ele><time>2022-11-16T11:22:38Z</time><name>PT1387</name></trkpt>
<trkpt lat="51.600225" lon="03.860523"><ele>3.7</ele><time>2022-11-16T11:22:40Z</time><name>PT1388</name></trkpt>
<trkpt lat="51.600227" lon="03.860505"><ele>3.6</ele><time>2022-11-16T11:22:40Z</time><name>PT1389</name></trkpt>
<trkpt lat="51.600230" lon="03.860491"><ele>3.2</ele><time>2022-11-16T11:22:41Z</time><name>PT1390</name></trkpt>
<trkpt lat="51.600234" lon="03.860473"><ele>2.9</ele><time>2022-11-16T11:22:42Z</time><name>PT1391</name></trkpt>
<trkpt lat="51.600237" lon="03.860457"><ele>2.8</ele><time>2022-11-16T11:22:43Z</time><name>PT1392</name></trkpt>
<trkpt lat="51.600242" lon="03.860439"><ele>2.6</ele><time>2022-11-16T11:22:44Z</time><name>PT1393</name></trkpt>
<trkpt lat="51.600245" lon="03.860423"><ele>2.6</ele><time>2022-11-16T11:22:46Z</time><name>PT1394</name></trkpt>
<trkpt lat="51.600249" lon="03.860405"><ele>2.8</ele><time>2022-11-16T11:22:46Z</time><name>PT1395</name></trkpt>
<trkpt lat="51.600249" lon="03.860388"><ele>2.6</ele><time>2022-11-16T11:22:47Z</time><name>PT1396</name></trkpt>
<trkpt lat="51.600250" lon="03.860371"><ele>2.6</ele><time>2022-11-16T11:22:48Z</time><name>PT1397</name></trkpt>
<trkpt lat="51.600251" lon="03.860355"><ele>2.6</ele><time>2022-11-16T11:22:49Z</time><name>PT1398</name></trkpt>
<trkpt lat="51.600253" lon="03.860338"><ele>2.6</ele><time>2022-11-16T11:22:50Z</time><name>PT1399</name></trkpt>
<trkpt lat="51.600257" lon="03.860321"><ele>3.1</ele><time>2022-11-16T11:22:52Z</time><name>PT1400</name></trkpt>
<trkpt lat="51.600261" lon="03.860305"><ele>3.2</ele><time>2022-11-16T11:22:52Z</time><name>PT1401</name></trkpt>
<trkpt lat="51.600263" lon="03.860289"><ele>3.7</ele><time>2022-11-16T11:22:53Z</time><name>PT1402</name></trkpt>
<trkpt lat="51.600265" lon="03.860271"><ele>3.7</ele><time>2022-11-16T11:22:55Z</time><name>PT1403</name></trkpt>
<trkpt lat="51.600266" lon="03.860253"><ele>3.7</ele><time>2022-11-16T11:22:55Z</time><name>PT1404</name></trkpt>
<trkpt lat="51.600268" lon="03.860238"><ele>3.5</ele><time>2022-11-16T11:22:56Z</time><name>PT1405</name></trkpt>
<trkpt lat="51.600270" lon="03.860224"><ele>3.2</ele><time>2022-11-16T11:22:58Z</time><name>PT1406</name></trkpt>
<trkpt lat="51.600273" lon="03.860208"><ele>3.2</ele><time>2022-11-16T11:22:58Z</time><name>PT1407</name></trkpt>
<trkpt lat="51.600276" lon="03.860191"><ele>3.2</ele><time>2022-11-16T11:22:59Z</time><name>PT1408</name></trkpt>
<trkpt lat="51.600280" lon="03.860175"><ele>3.3</ele><time>2022-11-16T11:23:00Z</time><name>PT1409</name></trkpt>
<trkpt lat="51.600281" lon="03.860158"><ele>3.5</ele><time>2022-11-16T11:23:01Z</time><name>PT1410</name></trkpt>
<trkpt lat="51.600283" lon="03.860140"><ele>3.6</ele><time>2022-11-16T11:23:02Z</time><name>PT1411</name></trkpt>
<trkpt lat="51.600285" lon="03.860122"><ele>3.7</ele><time>2022-11-16T11:23:03Z</time><name>PT1412</name></trkpt>
<trkpt lat="51.600288" lon="03.860107"><ele>3.7</ele><time>2022-11-16T11:23:04Z</time><name>PT1413</name></trkpt>
<trkpt lat="51.600291" lon="03.860092"><ele>3.4</ele><time>2022-11-16T11:23:05Z</time><name>PT1414</name></trkpt>
<trkpt lat="51.600293" lon="03.860076"><ele>3.2</ele><time>2022-11-16T11:23:07Z</time><name>PT1415</name></trkpt>
<trkpt lat="51.600297" lon="03.860059"><ele>3.2</ele><time>2022-11-16T11:23:07Z</time><name>PT1416</name></trkpt>
<trkpt lat="51.600300" lon="03.860042"><ele>2.9</ele><time>2022-11-16T11:23:08Z</time><name>PT1417</name></trkpt>
<trkpt lat="51.600303" lon="03.860025"><ele>3</ele><time>2022-11-16T11:23:10Z</time><name>PT1418</name></trkpt>
<trkpt lat="51.600304" lon="03.860006"><ele>3.1</ele><time>2022-11-16T11:23:10Z</time><name>PT1419</name></trkpt>
<trkpt lat="51.600306" lon="03.859986"><ele>2.9</ele><time>2022-11-16T11:23:11Z</time><name>PT1420</name></trkpt>
<trkpt lat="51.600308" lon="03.859966"><ele>3</ele><time>2022-11-16T11:23:13Z</time><name>PT1421</name></trkpt>
<trkpt lat="51.600309" lon="03.859947"><ele>3.1</ele><time>2022-11-16T11:23:13Z</time><name>PT1422</name></trkpt>
<trkpt lat="51.600311" lon="03.859928"><ele>2.9</ele><time>2022-11-16T11:23:14Z</time><name>PT1423</name></trkpt>
<trkpt lat="51.600314" lon="03.859911"><ele>2.6</ele><time>2022-11-16T11:23:15Z</time><name>PT1424</name></trkpt>
<trkpt lat="51.600317" lon="03.859890"><ele>2.7</ele><time>2022-11-16T11:23:16Z</time><name>PT1425</name></trkpt>
<trkpt lat="51.600321" lon="03.859872"><ele>2.6</ele><time>2022-11-16T11:23:17Z</time><name>PT1426</name></trkpt>
<trkpt lat="51.600324" lon="03.859854"><ele>2.5</ele><time>2022-11-16T11:23:19Z</time><name>PT1427</name></trkpt>
<trkpt lat="51.600325" lon="03.859836"><ele>2.3</ele><time>2022-11-16T11:23:19Z</time><name>PT1428</name></trkpt>
<trkpt lat="51.600327" lon="03.859817"><ele>2.2</ele><time>2022-11-16T11:23:20Z</time><name>PT1429</name></trkpt>
<trkpt lat="51.600328" lon="03.859802"><ele>2.1</ele><time>2022-11-16T11:23:21Z</time><name>PT1430</name></trkpt>
<trkpt lat="51.600330" lon="03.859788"><ele>2.1</ele><time>2022-11-16T11:23:22Z</time><name>PT1431</name></trkpt>
<trkpt lat="51.600334" lon="03.859771"><ele>2.1</ele><time>2022-11-16T11:23:23Z</time><name>PT1432</name></trkpt>
<trkpt lat="51.600338" lon="03.859755"><ele>2.3</ele><time>2022-11-16T11:23:25Z</time><name>PT1433</name></trkpt>
<trkpt lat="51.600342" lon="03.859740"><ele>2.3</ele><time>2022-11-16T11:23:25Z</time><name>PT1434</name></trkpt>
<trkpt lat="51.600343" lon="03.859724"><ele>2.3</ele><time>2022-11-16T11:23:26Z</time><name>PT1435</name></trkpt>
<trkpt lat="51.600344" lon="03.859707"><ele>2.1</ele><time>2022-11-16T11:23:27Z</time><name>PT1436</name></trkpt>
<trkpt lat="51.600346" lon="03.859690"><ele>2.2</ele><time>2022-11-16T11:23:28Z</time><name>PT1437</name></trkpt>
<trkpt lat="51.600347" lon="03.859674"><ele>2.1</ele><time>2022-11-16T11:23:29Z</time><name>PT1438</name></trkpt>
<trkpt lat="51.600350" lon="03.859656"><ele>2.1</ele><time>2022-11-16T11:23:30Z</time><name>PT1439</name></trkpt>
<trkpt lat="51.600353" lon="03.859639"><ele>2.4</ele><time>2022-11-16T11:23:31Z</time><name>PT1440</name></trkpt>
<trkpt lat="51.600356" lon="03.859623"><ele>2.5</ele><time>2022-11-16T11:23:32Z</time><name>PT1441</name></trkpt>
<trkpt lat="51.600359" lon="03.859607"><ele>2.2</ele><time>2022-11-16T11:23:33Z</time><name>PT1442</name></trkpt>
<trkpt lat="51.600361" lon="03.859590"><ele>2.3</ele><time>2022-11-16T11:23:34Z</time><name>PT1443</name></trkpt>
<trkpt lat="51.600362" lon="03.859569"><ele>2.3</ele><time>2022-11-16T11:23:35Z</time><name>PT1444</name></trkpt>
<trkpt lat="51.600363" lon="03.859551"><ele>2.3</ele><time>2022-11-16T11:23:37Z</time><name>PT1445</name></trkpt>
<trkpt lat="51.600365" lon="03.859534"><ele>2.6</ele><time>2022-11-16T11:23:37Z</time><name>PT1446</name></trkpt>
<trkpt lat="51.600368" lon="03.859519"><ele>2.5</ele><time>2022-11-16T11:23:38Z</time><name>PT1447</name></trkpt>
<trkpt lat="51.600372" lon="03.859502"><ele>2.6</ele><time>2022-11-16T11:23:40Z</time><name>PT1448</name></trkpt>
<trkpt lat="51.600375" lon="03.859486"><ele>2.6</ele><time>2022-11-16T11:23:40Z</time><name>PT1449</name></trkpt>
<trkpt lat="51.600377" lon="03.859472"><ele>2.8</ele><time>2022-11-16T11:23:41Z</time><name>PT1450</name></trkpt>
<trkpt lat="51.600379" lon="03.859455"><ele>2.7</ele><time>2022-11-16T11:23:42Z</time><name>PT1451</name></trkpt>
<trkpt lat="51.600380" lon="03.859437"><ele>2.6</ele><time>2022-11-16T11:23:43Z</time><name>PT1452</name></trkpt>
<trkpt lat="51.600381" lon="03.859419"><ele>2.5</ele><time>2022-11-16T11:23:44Z</time><name>PT1453</name></trkpt>
<trkpt lat="51.600381" lon="03.859402"><ele>2.4</ele><time>2022-11-16T11:23:46Z</time><name>PT1454</name></trkpt>
<trkpt lat="51.600383" lon="03.859388"><ele>2.3</ele><time>2022-11-16T11:23:46Z</time><name>PT1455</name></trkpt>
<trkpt lat="51.600386" lon="03.859373"><ele>2.3</ele><time>2022-11-16T11:23:47Z</time><name>PT1456</name></trkpt>
<trkpt lat="51.600389" lon="03.859358"><ele>2.4</ele><time>2022-11-16T11:23:49Z</time><name>PT1457</name></trkpt>
<trkpt lat="51.600392" lon="03.859338"><ele>2.1</ele><time>2022-11-16T11:23:49Z</time><name>PT1458</name></trkpt>
<trkpt lat="51.600394" lon="03.859323"><ele>2.1</ele><time>2022-11-16T11:23:50Z</time><name>PT1459</name></trkpt>
<trkpt lat="51.600396" lon="03.859306"><ele>2.2</ele><time>2022-11-16T11:23:51Z</time><name>PT1460</name></trkpt>
<trkpt lat="51.600397" lon="03.859290"><ele>2.1</ele><time>2022-11-16T11:23:52Z</time><name>PT1461</name></trkpt>
<trkpt lat="51.600399" lon="03.859273"><ele>2.1</ele><time>2022-11-16T11:23:53Z</time><name>PT1462</name></trkpt>
<trkpt lat="51.600402" lon="03.859256"><ele>2.1</ele><time>2022-11-16T11:23:54Z</time><name>PT1463</name></trkpt>
<trkpt lat="51.600404" lon="03.859241"><ele>2.1</ele><time>2022-11-16T11:23:55Z</time><name>PT1464</name></trkpt>
<trkpt lat="51.600408" lon="03.859224"><ele>2.1</ele><time>2022-11-16T11:23:56Z</time><name>PT1465</name></trkpt>
<trkpt lat="51.600409" lon="03.859207"><ele>2.1</ele><time>2022-11-16T11:23:57Z</time><name>PT1466</name></trkpt>
<trkpt lat="51.600412" lon="03.859191"><ele>2.2</ele><time>2022-11-16T11:23:58Z</time><name>PT1467</name></trkpt>
<trkpt lat="51.600414" lon="03.859175"><ele>2.3</ele><time>2022-11-16T11:23:59Z</time><name>PT1468</name></trkpt>
<trkpt lat="51.600416" lon="03.859159"><ele>2.6</ele><time>2022-11-16T11:24:01Z</time><name>PT1469</name></trkpt>
<trkpt lat="51.600418" lon="03.859140"><ele>2.6</ele><time>2022-11-16T11:24:01Z</time><name>PT1470</name></trkpt>
<trkpt lat="51.600420" lon="03.859121"><ele>2.9</ele><time>2022-11-16T11:24:02Z</time><name>PT1471</name></trkpt>
<trkpt lat="51.600420" lon="03.859105"><ele>3</ele><time>2022-11-16T11:24:03Z</time><name>PT1472</name></trkpt>
<trkpt lat="51.600420" lon="03.859089"><ele>2.9</ele><time>2022-11-16T11:24:04Z</time><name>PT1473</name></trkpt>
<trkpt lat="51.600422" lon="03.859073"><ele>2.8</ele><time>2022-11-16T11:24:05Z</time><name>PT1474</name></trkpt>
<trkpt lat="51.600425" lon="03.859055"><ele>2.9</ele><time>2022-11-16T11:24:07Z</time><name>PT1475</name></trkpt>
<trkpt lat="51.600428" lon="03.859038"><ele>2.7</ele><time>2022-11-16T11:24:07Z</time><name>PT1476</name></trkpt>
<trkpt lat="51.600430" lon="03.859021"><ele>2.6</ele><time>2022-11-16T11:24:08Z</time><name>PT1477</name></trkpt>
<trkpt lat="51.600432" lon="03.859005"><ele>2.4</ele><time>2022-11-16T11:24:10Z</time><name>PT1478</name></trkpt>
<trkpt lat="51.600434" lon="03.858987"><ele>2.4</ele><time>2022-11-16T11:24:10Z</time><name>PT1479</name></trkpt>
<trkpt lat="51.600436" lon="03.858973"><ele>2.4</ele><time>2022-11-16T11:24:11Z</time><name>PT1480</name></trkpt>
<trkpt lat="51.600439" lon="03.858959"><ele>2.6</ele><time>2022-11-16T11:24:12Z</time><name>PT1481</name></trkpt>
<trkpt lat="51.600442" lon="03.858939"><ele>2.7</ele><time>2022-11-16T11:24:13Z</time><name>PT1482</name></trkpt>
<trkpt lat="51.600444" lon="03.858922"><ele>2.8</ele><time>2022-11-16T11:24:14Z</time><name>PT1483</name></trkpt>
<trkpt lat="51.600447" lon="03.858907"><ele>2.9</ele><time>2022-11-16T11:24:15Z</time><name>PT1484</name></trkpt>
<trkpt lat="51.600450" lon="03.858891"><ele>3</ele><time>2022-11-16T11:24:16Z</time><name>PT1485</name></trkpt>
<trkpt lat="51.600452" lon="03.858875"><ele>3</ele><time>2022-11-16T11:24:17Z</time><name>PT1486</name></trkpt>
<trkpt lat="51.600453" lon="03.858859"><ele>3.1</ele><time>2022-11-16T11:24:18Z</time><name>PT1487</name></trkpt>
<trkpt lat="51.600453" lon="03.858841"><ele>3</ele><time>2022-11-16T11:24:19Z</time><name>PT1488</name></trkpt>
<trkpt lat="51.600456" lon="03.858826"><ele>2.8</ele><time>2022-11-16T11:24:20Z</time><name>PT1489</name></trkpt>
<trkpt lat="51.600462" lon="03.858807"><ele>2.7</ele><time>2022-11-16T11:24:21Z</time><name>PT1490</name></trkpt>
<trkpt lat="51.600470" lon="03.858781"><ele>2.8</ele><time>2022-11-16T11:24:22Z</time><name>PT1491</name></trkpt>
<trkpt lat="51.600473" lon="03.858768"><ele>2.9</ele><time>2022-11-16T11:24:23Z</time><name>PT1492</name></trkpt>
<trkpt lat="51.600476" lon="03.858760"><ele>3.2</ele><time>2022-11-16T11:24:24Z</time><name>PT1493</name></trkpt>
<trkpt lat="51.600481" lon="03.858740"><ele>3.3</ele><time>2022-11-16T11:24:25Z</time><name>PT1494</name></trkpt>
<trkpt lat="51.600483" lon="03.858720"><ele>3.5</ele><time>2022-11-16T11:24:26Z</time><name>PT1495</name></trkpt>
<trkpt lat="51.600489" lon="03.858699"><ele>3.6</ele><time>2022-11-16T11:24:28Z</time><name>PT1496</name></trkpt>
<trkpt lat="51.600496" lon="03.858681"><ele>3.4</ele><time>2022-11-16T11:24:28Z</time><name>PT1497</name></trkpt>
<trkpt lat="51.600499" lon="03.858666"><ele>3.2</ele><time>2022-11-16T11:24:29Z</time><name>PT1498</name></trkpt>
<trkpt lat="51.600502" lon="03.858652"><ele>3.4</ele><time>2022-11-16T11:24:30Z</time><name>PT1499</name></trkpt>
<trkpt lat="51.600503" lon="03.858638"><ele>3.4</ele><time>2022-11-16T11:24:31Z</time><name>PT1500</name></trkpt>
<trkpt lat="51.600504" lon="03.858623"><ele>3.5</ele><time>2022-11-16T11:24:32Z</time><name>PT1501</name></trkpt>
<trkpt lat="51.600505" lon="03.858608"><ele>3.5</ele><time>2022-11-16T11:24:33Z</time><name>PT1502</name></trkpt>
<trkpt lat="51.600508" lon="03.858592"><ele>3.6</ele><time>2022-11-16T11:24:34Z</time><name>PT1503</name></trkpt>
<trkpt lat="51.600511" lon="03.858576"><ele>3.5</ele><time>2022-11-16T11:24:35Z</time><name>PT1504</name></trkpt>
<trkpt lat="51.600514" lon="03.858561"><ele>3.5</ele><time>2022-11-16T11:24:37Z</time><name>PT1505</name></trkpt>
<trkpt lat="51.600517" lon="03.858547"><ele>3.7</ele><time>2022-11-16T11:24:37Z</time><name>PT1506</name></trkpt>
<trkpt lat="51.600519" lon="03.858531"><ele>3.8</ele><time>2022-11-16T11:24:38Z</time><name>PT1507</name></trkpt>
<trkpt lat="51.600519" lon="03.858517"><ele>3.8</ele><time>2022-11-16T11:24:40Z</time><name>PT1508</name></trkpt>
<trkpt lat="51.600519" lon="03.858506"><ele>3.7</ele><time>2022-11-16T11:24:40Z</time><name>PT1509</name></trkpt>
<trkpt lat="51.600519" lon="03.858502"><ele>3.4</ele><time>2022-11-16T11:24:41Z</time><name>PT1510</name></trkpt>
<trkpt lat="51.600519" lon="03.858501"><ele>3.2</ele><time>2022-11-16T11:24:43Z</time><name>PT1511</name></trkpt>
<trkpt lat="51.600521" lon="03.858496"><ele>3.2</ele><time>2022-11-16T11:24:43Z</time><name>PT1512</name></trkpt>
<trkpt lat="51.600521" lon="03.858493"><ele>3.2</ele><time>2022-11-16T11:24:44Z</time><name>PT1513</name></trkpt>
<trkpt lat="51.600521" lon="03.858490"><ele>3</ele><time>2022-11-16T11:24:45Z</time><name>PT1514</name></trkpt>
<trkpt lat="51.600520" lon="03.858490"><ele>3.1</ele><time>2022-11-16T11:24:46Z</time><name>PT1515</name></trkpt>
<trkpt lat="51.600521" lon="03.858484"><ele>3</ele><time>2022-11-16T11:24:49Z</time><name>PT1516</name></trkpt>
<trkpt lat="51.600524" lon="03.858468"><ele>3</ele><time>2022-11-16T11:24:49Z</time><name>PT1517</name></trkpt>
<trkpt lat="51.600527" lon="03.858447"><ele>3.2</ele><time>2022-11-16T11:24:50Z</time><name>PT1518</name></trkpt>
<trkpt lat="51.600528" lon="03.858430"><ele>3.4</ele><time>2022-11-16T11:24:52Z</time><name>PT1519</name></trkpt>
<trkpt lat="51.600529" lon="03.858412"><ele>3.5</ele><time>2022-11-16T11:24:52Z</time><name>PT1520</name></trkpt>
<trkpt lat="51.600529" lon="03.858397"><ele>3.7</ele><time>2022-11-16T11:24:53Z</time><name>PT1521</name></trkpt>
<trkpt lat="51.600530" lon="03.858380"><ele>3.9</ele><time>2022-11-16T11:24:54Z</time><name>PT1522</name></trkpt>
<trkpt lat="51.600532" lon="03.858360"><ele>3.9</ele><time>2022-11-16T11:24:55Z</time><name>PT1523</name></trkpt>
<trkpt lat="51.600535" lon="03.858344"><ele>3.7</ele><time>2022-11-16T11:24:56Z</time><name>PT1524</name></trkpt>
<trkpt lat="51.600537" lon="03.858326"><ele>3.7</ele><time>2022-11-16T11:24:57Z</time><name>PT1525</name></trkpt>
<trkpt lat="51.600541" lon="03.858310"><ele>3.8</ele><time>2022-11-16T11:24:58Z</time><name>PT1526</name></trkpt>
<trkpt lat="51.600545" lon="03.858293"><ele>3.7</ele><time>2022-11-16T11:24:59Z</time><name>PT1527</name></trkpt>
<trkpt lat="51.600549" lon="03.858276"><ele>3.5</ele><time>2022-11-16T11:25:00Z</time><name>PT1528</name></trkpt>
<trkpt lat="51.600552" lon="03.858258"><ele>3.5</ele><time>2022-11-16T11:25:01Z</time><name>PT1529</name></trkpt>
<trkpt lat="51.600554" lon="03.858242"><ele>3.2</ele><time>2022-11-16T11:25:02Z</time><name>PT1530</name></trkpt>
<trkpt lat="51.600556" lon="03.858224"><ele>3.2</ele><time>2022-11-16T11:25:04Z</time><name>PT1531</name></trkpt>
<trkpt lat="51.600556" lon="03.858205"><ele>3</ele><time>2022-11-16T11:25:04Z</time><name>PT1532</name></trkpt>
<trkpt lat="51.600558" lon="03.858189"><ele>3</ele><time>2022-11-16T11:25:05Z</time><name>PT1533</name></trkpt>
<trkpt lat="51.600560" lon="03.858173"><ele>2.9</ele><time>2022-11-16T11:25:06Z</time><name>PT1534</name></trkpt>
<trkpt lat="51.600562" lon="03.858157"><ele>2.9</ele><time>2022-11-16T11:25:07Z</time><name>PT1535</name></trkpt>
<trkpt lat="51.600566" lon="03.858141"><ele>3.1</ele><time>2022-11-16T11:25:08Z</time><name>PT1536</name></trkpt>
<trkpt lat="51.600568" lon="03.858124"><ele>3.2</ele><time>2022-11-16T11:25:10Z</time><name>PT1537</name></trkpt>
<trkpt lat="51.600571" lon="03.858108"><ele>3.2</ele><time>2022-11-16T11:25:10Z</time><name>PT1538</name></trkpt>
<trkpt lat="51.600574" lon="03.858091"><ele>3.2</ele><time>2022-11-16T11:25:11Z</time><name>PT1539</name></trkpt>
<trkpt lat="51.600577" lon="03.858074"><ele>3.2</ele><time>2022-11-16T11:25:12Z</time><name>PT1540</name></trkpt>
<trkpt lat="51.600579" lon="03.858057"><ele>3.1</ele><time>2022-11-16T11:25:13Z</time><name>PT1541</name></trkpt>
<trkpt lat="51.600582" lon="03.858041"><ele>3.1</ele><time>2022-11-16T11:25:14Z</time><name>PT1542</name></trkpt>
<trkpt lat="51.600582" lon="03.858025"><ele>3.2</ele><time>2022-11-16T11:25:15Z</time><name>PT1543</name></trkpt>
<trkpt lat="51.600583" lon="03.858009"><ele>3.3</ele><time>2022-11-16T11:25:16Z</time><name>PT1544</name></trkpt>
<trkpt lat="51.600585" lon="03.857994"><ele>3.4</ele><time>2022-11-16T11:25:17Z</time><name>PT1545</name></trkpt>
<trkpt lat="51.600588" lon="03.857978"><ele>3.3</ele><time>2022-11-16T11:25:18Z</time><name>PT1546</name></trkpt>
<trkpt lat="51.600591" lon="03.857961"><ele>3.3</ele><time>2022-11-16T11:25:19Z</time><name>PT1547</name></trkpt>
<trkpt lat="51.600595" lon="03.857944"><ele>3.1</ele><time>2022-11-16T11:25:20Z</time><name>PT1548</name></trkpt>
<trkpt lat="51.600598" lon="03.857928"><ele>3.1</ele><time>2022-11-16T11:25:21Z</time><name>PT1549</name></trkpt>
<trkpt lat="51.600600" lon="03.857912"><ele>2.9</ele><time>2022-11-16T11:25:22Z</time><name>PT1550</name></trkpt>
<trkpt lat="51.600602" lon="03.857895"><ele>2.6</ele><time>2022-11-16T11:25:23Z</time><name>PT1551</name></trkpt>
<trkpt lat="51.600604" lon="03.857878"><ele>2.9</ele><time>2022-11-16T11:25:24Z</time><name>PT1552</name></trkpt>
<trkpt lat="51.600603" lon="03.857857"><ele>2.8</ele><time>2022-11-16T11:25:25Z</time><name>PT1553</name></trkpt>
<trkpt lat="51.600604" lon="03.857846"><ele>2.8</ele><time>2022-11-16T11:25:26Z</time><name>PT1554</name></trkpt>
<trkpt lat="51.600603" lon="03.857835"><ele>2.8</ele><time>2022-11-16T11:25:27Z</time><name>PT1555</name></trkpt>
<trkpt lat="51.600603" lon="03.857823"><ele>2.8</ele><time>2022-11-16T11:25:28Z</time><name>PT1556</name></trkpt>
<trkpt lat="51.600603" lon="03.857814"><ele>2.6</ele><time>2022-11-16T11:25:29Z</time><name>PT1557</name></trkpt>
<trkpt lat="51.600605" lon="03.857799"><ele>2.5</ele><time>2022-11-16T11:25:31Z</time><name>PT1558</name></trkpt>
<trkpt lat="51.600608" lon="03.857784"><ele>2.3</ele><time>2022-11-16T11:25:31Z</time><name>PT1559</name></trkpt>
<trkpt lat="51.600611" lon="03.857771"><ele>2.1</ele><time>2022-11-16T11:25:32Z</time><name>PT1560</name></trkpt>
<trkpt lat="51.600616" lon="03.857754"><ele>2.2</ele><time>2022-11-16T11:25:34Z</time><name>PT1561</name></trkpt>
<trkpt lat="51.600620" lon="03.857732"><ele>2.3</ele><time>2022-11-16T11:25:34Z</time><name>PT1562</name></trkpt>
<trkpt lat="51.600625" lon="03.857707"><ele>2.3</ele><time>2022-11-16T11:25:35Z</time><name>PT1563</name></trkpt>
<trkpt lat="51.600630" lon="03.857679"><ele>2.6</ele><time>2022-11-16T11:25:37Z</time><name>PT1564</name></trkpt>
<trkpt lat="51.600634" lon="03.857651"><ele>2.5</ele><time>2022-11-16T11:25:37Z</time><name>PT1565</name></trkpt>
<trkpt lat="51.600638" lon="03.857620"><ele>2.5</ele><time>2022-11-16T11:25:38Z</time><name>PT1566</name></trkpt>
<trkpt lat="51.600640" lon="03.857593"><ele>2.4</ele><time>2022-11-16T11:25:39Z</time><name>PT1567</name></trkpt>
<trkpt lat="51.600640" lon="03.857573"><ele>2.2</ele><time>2022-11-16T11:25:40Z</time><name>PT1568</name></trkpt>
<trkpt lat="51.600640" lon="03.857559"><ele>2.1</ele><time>2022-11-16T11:25:41Z</time><name>PT1569</name></trkpt>
<trkpt lat="51.600642" lon="03.857546"><ele>2.1</ele><time>2022-11-16T11:25:43Z</time><name>PT1570</name></trkpt>
<trkpt lat="51.600643" lon="03.857533"><ele>2.2</ele><time>2022-11-16T11:25:43Z</time><name>PT1571</name></trkpt>
<trkpt lat="51.600646" lon="03.857518"><ele>2.6</ele><time>2022-11-16T11:25:44Z</time><name>PT1572</name></trkpt>
<trkpt lat="51.600650" lon="03.857501"><ele>3</ele><time>2022-11-16T11:25:45Z</time><name>PT1573</name></trkpt>
<trkpt lat="51.600654" lon="03.857482"><ele>3.1</ele><time>2022-11-16T11:25:46Z</time><name>PT1574</name></trkpt>
<trkpt lat="51.600658" lon="03.857460"><ele>2.8</ele><time>2022-11-16T11:25:47Z</time><name>PT1575</name></trkpt>
<trkpt lat="51.600659" lon="03.857436"><ele>2.7</ele><time>2022-11-16T11:25:49Z</time><name>PT1576</name></trkpt>
<trkpt lat="51.600661" lon="03.857410"><ele>2.6</ele><time>2022-11-16T11:25:49Z</time><name>PT1577</name></trkpt>
<trkpt lat="51.600665" lon="03.857386"><ele>2.4</ele><time>2022-11-16T11:25:50Z</time><name>PT1578</name></trkpt>
<trkpt lat="51.600665" lon="03.857365"><ele>2.6</ele><time>2022-11-16T11:25:51Z</time><name>PT1579</name></trkpt>
<trkpt lat="51.600665" lon="03.857351"><ele>2.6</ele><time>2022-11-16T11:25:52Z</time><name>PT1580</name></trkpt>
<trkpt lat="51.600665" lon="03.857338"><ele>2.6</ele><time>2022-11-16T11:25:53Z</time><name>PT1581</name></trkpt>
<trkpt lat="51.600667" lon="03.857323"><ele>2.7</ele><time>2022-11-16T11:25:55Z</time><name>PT1582</name></trkpt>
<trkpt lat="51.600669" lon="03.857306"><ele>2.7</ele><time>2022-11-16T11:25:55Z</time><name>PT1583</name></trkpt>
<trkpt lat="51.600672" lon="03.857287"><ele>2.6</ele><time>2022-11-16T11:25:56Z</time><name>PT1584</name></trkpt>
<trkpt lat="51.600675" lon="03.857271"><ele>2.6</ele><time>2022-11-16T11:25:58Z</time><name>PT1585</name></trkpt>
<trkpt lat="51.600678" lon="03.857255"><ele>2.7</ele><time>2022-11-16T11:25:58Z</time><name>PT1586</name></trkpt>
<trkpt lat="51.600682" lon="03.857237"><ele>2.7</ele><time>2022-11-16T11:25:59Z</time><name>PT1587</name></trkpt>
<trkpt lat="51.600687" lon="03.857213"><ele>2.5</ele><time>2022-11-16T11:26:00Z</time><name>PT1588</name></trkpt>
<trkpt lat="51.600691" lon="03.857188"><ele>2.6</ele><time>2022-11-16T11:26:01Z</time><name>PT1589</name></trkpt>
<trkpt lat="51.600694" lon="03.857162"><ele>2.6</ele><time>2022-11-16T11:26:02Z</time><name>PT1590</name></trkpt>
<trkpt lat="51.600696" lon="03.857142"><ele>2.6</ele><time>2022-11-16T11:26:03Z</time><name>PT1591</name></trkpt>
<trkpt lat="51.600696" lon="03.857126"><ele>2.6</ele><time>2022-11-16T11:26:04Z</time><name>PT1592</name></trkpt>
<trkpt lat="51.600696" lon="03.857113"><ele>2.8</ele><time>2022-11-16T11:26:05Z</time><name>PT1593</name></trkpt>
<trkpt lat="51.600698" lon="03.857099"><ele>2.6</ele><time>2022-11-16T11:26:07Z</time><name>PT1594</name></trkpt>
<trkpt lat="51.600701" lon="03.857084"><ele>2.8</ele><time>2022-11-16T11:26:07Z</time><name>PT1595</name></trkpt>
<trkpt lat="51.600703" lon="03.857070"><ele>3.1</ele><time>2022-11-16T11:26:08Z</time><name>PT1596</name></trkpt>
<trkpt lat="51.600705" lon="03.857056"><ele>3</ele><time>2022-11-16T11:26:09Z</time><name>PT1597</name></trkpt>
<trkpt lat="51.600709" lon="03.857038"><ele>2.9</ele><time>2022-11-16T11:26:10Z</time><name>PT1598</name></trkpt>
<trkpt lat="51.600710" lon="03.857017"><ele>2.8</ele><time>2022-11-16T11:26:11Z</time><name>PT1599</name></trkpt>
<trkpt lat="51.600712" lon="03.856999"><ele>2.6</ele><time>2022-11-16T11:26:12Z</time><name>PT1600</name></trkpt>
<trkpt lat="51.600711" lon="03.856977"><ele>2.5</ele><time>2022-11-16T11:26:13Z</time><name>PT1601</name></trkpt>
<trkpt lat="51.600710" lon="03.856960"><ele>2.4</ele><time>2022-11-16T11:26:14Z</time><name>PT1602</name></trkpt>
<trkpt lat="51.600709" lon="03.856942"><ele>2.3</ele><time>2022-11-16T11:26:15Z</time><name>PT1603</name></trkpt>
<trkpt lat="51.600711" lon="03.856927"><ele>2.5</ele><time>2022-11-16T11:26:16Z</time><name>PT1604</name></trkpt>
<trkpt lat="51.600712" lon="03.856915"><ele>2.6</ele><time>2022-11-16T11:26:17Z</time><name>PT1605</name></trkpt>
<trkpt lat="51.600713" lon="03.856899"><ele>2.6</ele><time>2022-11-16T11:26:19Z</time><name>PT1606</name></trkpt>
<trkpt lat="51.600718" lon="03.856883"><ele>2.8</ele><time>2022-11-16T11:26:19Z</time><name>PT1607</name></trkpt>
<trkpt lat="51.600722" lon="03.856869"><ele>2.7</ele><time>2022-11-16T11:26:20Z</time><name>PT1608</name></trkpt>
<trkpt lat="51.600725" lon="03.856854"><ele>2.6</ele><time>2022-11-16T11:26:21Z</time><name>PT1609</name></trkpt>
<trkpt lat="51.600729" lon="03.856836"><ele>2.6</ele><time>2022-11-16T11:26:22Z</time><name>PT1610</name></trkpt>
<trkpt lat="51.600732" lon="03.856818"><ele>2.5</ele><time>2022-11-16T11:26:23Z</time><name>PT1611</name></trkpt>
<trkpt lat="51.600735" lon="03.856798"><ele>2.6</ele><time>2022-11-16T11:26:24Z</time><name>PT1612</name></trkpt>
<trkpt lat="51.600738" lon="03.856775"><ele>2.6</ele><time>2022-11-16T11:26:25Z</time><name>PT1613</name></trkpt>
<trkpt lat="51.600743" lon="03.856756"><ele>2.6</ele><time>2022-11-16T11:26:26Z</time><name>PT1614</name></trkpt>
<trkpt lat="51.600745" lon="03.856733"><ele>2.5</ele><time>2022-11-16T11:26:27Z</time><name>PT1615</name></trkpt>
<trkpt lat="51.600747" lon="03.856714"><ele>2.6</ele><time>2022-11-16T11:26:28Z</time><name>PT1616</name></trkpt>
<trkpt lat="51.600747" lon="03.856694"><ele>2.6</ele><time>2022-11-16T11:26:29Z</time><name>PT1617</name></trkpt>
<trkpt lat="51.600747" lon="03.856677"><ele>2.6</ele><time>2022-11-16T11:26:30Z</time><name>PT1618</name></trkpt>
<trkpt lat="51.600747" lon="03.856660"><ele>2.6</ele><time>2022-11-16T11:26:31Z</time><name>PT1619</name></trkpt>
<trkpt lat="51.600748" lon="03.856646"><ele>2.6</ele><time>2022-11-16T11:26:32Z</time><name>PT1620</name></trkpt>
<trkpt lat="51.600750" lon="03.856636"><ele>2.6</ele><time>2022-11-16T11:26:34Z</time><name>PT1621</name></trkpt>
<trkpt lat="51.600752" lon="03.856623"><ele>2.6</ele><time>2022-11-16T11:26:34Z</time><name>PT1622</name></trkpt>
<trkpt lat="51.600753" lon="03.856609"><ele>2.4</ele><time>2022-11-16T11:26:35Z</time><name>PT1623</name></trkpt>
<trkpt lat="51.600757" lon="03.856593"><ele>2.6</ele><time>2022-11-16T11:26:36Z</time><name>PT1624</name></trkpt>
<trkpt lat="51.600758" lon="03.856577"><ele>2.6</ele><time>2022-11-16T11:26:37Z</time><name>PT1625</name></trkpt>
<trkpt lat="51.600761" lon="03.856560"><ele>2.4</ele><time>2022-11-16T11:26:38Z</time><name>PT1626</name></trkpt>
<trkpt lat="51.600765" lon="03.856542"><ele>2.1</ele><time>2022-11-16T11:26:39Z</time><name>PT1627</name></trkpt>
<trkpt lat="51.600769" lon="03.856522"><ele>2.2</ele><time>2022-11-16T11:26:40Z</time><name>PT1628</name></trkpt>
<trkpt lat="51.600771" lon="03.856501"><ele>2.3</ele><time>2022-11-16T11:26:41Z</time><name>PT1629</name></trkpt>
<trkpt lat="51.600774" lon="03.856479"><ele>2.4</ele><time>2022-11-16T11:26:42Z</time><name>PT1630</name></trkpt>
<trkpt lat="51.600776" lon="03.856455"><ele>2.4</ele><time>2022-11-16T11:26:43Z</time><name>PT1631</name></trkpt>
<trkpt lat="51.600776" lon="03.856437"><ele>2.6</ele><time>2022-11-16T11:26:44Z</time><name>PT1632</name></trkpt>
<trkpt lat="51.600777" lon="03.856421"><ele>2.3</ele><time>2022-11-16T11:26:45Z</time><name>PT1633</name></trkpt>
<trkpt lat="51.600779" lon="03.856405"><ele>2.4</ele><time>2022-11-16T11:26:46Z</time><name>PT1634</name></trkpt>
<trkpt lat="51.600781" lon="03.856389"><ele>2.3</ele><time>2022-11-16T11:26:47Z</time><name>PT1635</name></trkpt>
<trkpt lat="51.600783" lon="03.856374"><ele>2.2</ele><time>2022-11-16T11:26:48Z</time><name>PT1636</name></trkpt>
<trkpt lat="51.600785" lon="03.856360"><ele>2.2</ele><time>2022-11-16T11:26:49Z</time><name>PT1637</name></trkpt>
<trkpt lat="51.600788" lon="03.856345"><ele>2.3</ele><time>2022-11-16T11:26:50Z</time><name>PT1638</name></trkpt>
<trkpt lat="51.600790" lon="03.856328"><ele>2.2</ele><time>2022-11-16T11:26:51Z</time><name>PT1639</name></trkpt>
<trkpt lat="51.600795" lon="03.856311"><ele>2.2</ele><time>2022-11-16T11:26:52Z</time><name>PT1640</name></trkpt>
<trkpt lat="51.600798" lon="03.856292"><ele>2.2</ele><time>2022-11-16T11:26:53Z</time><name>PT1641</name></trkpt>
<trkpt lat="51.600802" lon="03.856273"><ele>2.1</ele><time>2022-11-16T11:26:54Z</time><name>PT1642</name></trkpt>
<trkpt lat="51.600805" lon="03.856252"><ele>2.1</ele><time>2022-11-16T11:26:55Z</time><name>PT1643</name></trkpt>
<trkpt lat="51.600808" lon="03.856232"><ele>2.1</ele><time>2022-11-16T11:26:56Z</time><name>PT1644</name></trkpt>
<trkpt lat="51.600811" lon="03.856210"><ele>2.2</ele><time>2022-11-16T11:26:57Z</time><name>PT1645</name></trkpt>
<trkpt lat="51.600812" lon="03.856189"><ele>2.3</ele><time>2022-11-16T11:26:58Z</time><name>PT1646</name></trkpt>
<trkpt lat="51.600814" lon="03.856167"><ele>2.2</ele><time>2022-11-16T11:26:59Z</time><name>PT1647</name></trkpt>
<trkpt lat="51.600815" lon="03.856147"><ele>2.2</ele><time>2022-11-16T11:27:00Z</time><name>PT1648</name></trkpt>
<trkpt lat="51.600816" lon="03.856133"><ele>2.2</ele><time>2022-11-16T11:27:01Z</time><name>PT1649</name></trkpt>
<trkpt lat="51.600816" lon="03.856116"><ele>2</ele><time>2022-11-16T11:27:02Z</time><name>PT1650</name></trkpt>
<trkpt lat="51.600818" lon="03.856103"><ele>2.1</ele><time>2022-11-16T11:27:03Z</time><name>PT1651</name></trkpt>
<trkpt lat="51.600821" lon="03.856087"><ele>2.1</ele><time>2022-11-16T11:27:04Z</time><name>PT1652</name></trkpt>
<trkpt lat="51.600824" lon="03.856070"><ele>2.1</ele><time>2022-11-16T11:27:05Z</time><name>PT1653</name></trkpt>
<trkpt lat="51.600828" lon="03.856054"><ele>2.2</ele><time>2022-11-16T11:27:06Z</time><name>PT1654</name></trkpt>
<trkpt lat="51.600829" lon="03.856038"><ele>2.3</ele><time>2022-11-16T11:27:07Z</time><name>PT1655</name></trkpt>
<trkpt lat="51.600832" lon="03.856018"><ele>2.4</ele><time>2022-11-16T11:27:08Z</time><name>PT1656</name></trkpt>
<trkpt lat="51.600834" lon="03.855996"><ele>2.6</ele><time>2022-11-16T11:27:10Z</time><name>PT1657</name></trkpt>
<trkpt lat="51.600838" lon="03.855973"><ele>2.6</ele><time>2022-11-16T11:27:10Z</time><name>PT1658</name></trkpt>
<trkpt lat="51.600840" lon="03.855948"><ele>2.6</ele><time>2022-11-16T11:27:11Z</time><name>PT1659</name></trkpt>
<trkpt lat="51.600843" lon="03.855927"><ele>2.7</ele><time>2022-11-16T11:27:12Z</time><name>PT1660</name></trkpt>
<trkpt lat="51.600843" lon="03.855912"><ele>2.7</ele><time>2022-11-16T11:27:13Z</time><name>PT1661</name></trkpt>
<trkpt lat="51.600844" lon="03.855901"><ele>2.6</ele><time>2022-11-16T11:27:14Z</time><name>PT1662</name></trkpt>
<trkpt lat="51.600845" lon="03.855889"><ele>2.5</ele><time>2022-11-16T11:27:15Z</time><name>PT1663</name></trkpt>
<trkpt lat="51.600848" lon="03.855875"><ele>2.3</ele><time>2022-11-16T11:27:16Z</time><name>PT1664</name></trkpt>
<trkpt lat="51.600850" lon="03.855858"><ele>2.3</ele><time>2022-11-16T11:27:17Z</time><name>PT1665</name></trkpt>
<trkpt lat="51.600853" lon="03.855837"><ele>2.3</ele><time>2022-11-16T11:27:18Z</time><name>PT1666</name></trkpt>
<trkpt lat="51.600856" lon="03.855813"><ele>2.2</ele><time>2022-11-16T11:27:19Z</time><name>PT1667</name></trkpt>
<trkpt lat="51.600857" lon="03.855790"><ele>2.4</ele><time>2022-11-16T11:27:20Z</time><name>PT1668</name></trkpt>
<trkpt lat="51.600858" lon="03.855770"><ele>2.6</ele><time>2022-11-16T11:27:21Z</time><name>PT1669</name></trkpt>
<trkpt lat="51.600855" lon="03.855754"><ele>2.5</ele><time>2022-11-16T11:27:22Z</time><name>PT1670</name></trkpt>
<trkpt lat="51.600854" lon="03.855735"><ele>2.5</ele><time>2022-11-16T11:27:23Z</time><name>PT1671</name></trkpt>
<trkpt lat="51.600853" lon="03.855720"><ele>2.4</ele><time>2022-11-16T11:27:24Z</time><name>PT1672</name></trkpt>
<trkpt lat="51.600855" lon="03.855708"><ele>2.5</ele><time>2022-11-16T11:27:25Z</time><name>PT1673</name></trkpt>
<trkpt lat="51.600856" lon="03.855697"><ele>2.3</ele><time>2022-11-16T11:27:26Z</time><name>PT1674</name></trkpt>
<trkpt lat="51.600857" lon="03.855686"><ele>2.4</ele><time>2022-11-16T11:27:27Z</time><name>PT1675</name></trkpt>
<trkpt lat="51.600860" lon="03.855673"><ele>2.5</ele><time>2022-11-16T11:27:28Z</time><name>PT1676</name></trkpt>
<trkpt lat="51.600864" lon="03.855657"><ele>2.6</ele><time>2022-11-16T11:27:29Z</time><name>PT1677</name></trkpt>
<trkpt lat="51.600868" lon="03.855637"><ele>2.6</ele><time>2022-11-16T11:27:30Z</time><name>PT1678</name></trkpt>
<trkpt lat="51.600873" lon="03.855611"><ele>2.6</ele><time>2022-11-16T11:27:31Z</time><name>PT1679</name></trkpt>
<trkpt lat="51.600878" lon="03.855587"><ele>2.5</ele><time>2022-11-16T11:27:32Z</time><name>PT1680</name></trkpt>
<trkpt lat="51.600880" lon="03.855570"><ele>2.4</ele><time>2022-11-16T11:27:33Z</time><name>PT1681</name></trkpt>
<trkpt lat="51.600879" lon="03.855558"><ele>2.3</ele><time>2022-11-16T11:27:34Z</time><name>PT1682</name></trkpt>
<trkpt lat="51.600880" lon="03.855547"><ele>2.4</ele><time>2022-11-16T11:27:35Z</time><name>PT1683</name></trkpt>
<trkpt lat="51.600881" lon="03.855536"><ele>2.6</ele><time>2022-11-16T11:27:37Z</time><name>PT1684</name></trkpt>
<trkpt lat="51.600885" lon="03.855518"><ele>2.6</ele><time>2022-11-16T11:27:37Z</time><name>PT1685</name></trkpt>
<trkpt lat="51.600889" lon="03.855494"><ele>2.8</ele><time>2022-11-16T11:27:38Z</time><name>PT1686</name></trkpt>
<trkpt lat="51.600893" lon="03.855471"><ele>3.1</ele><time>2022-11-16T11:27:40Z</time><name>PT1687</name></trkpt>
<trkpt lat="51.600896" lon="03.855451"><ele>3</ele><time>2022-11-16T11:27:40Z</time><name>PT1688</name></trkpt>
<trkpt lat="51.600898" lon="03.855429"><ele>2.8</ele><time>2022-11-16T11:27:41Z</time><name>PT1689</name></trkpt>
<trkpt lat="51.600898" lon="03.855413"><ele>2.8</ele><time>2022-11-16T11:27:42Z</time><name>PT1690</name></trkpt>
<trkpt lat="51.600899" lon="03.855399"><ele>2.9</ele><time>2022-11-16T11:27:43Z</time><name>PT1691</name></trkpt>
<trkpt lat="51.600901" lon="03.855385"><ele>2.8</ele><time>2022-11-16T11:27:44Z</time><name>PT1692</name></trkpt>
<trkpt lat="51.600903" lon="03.855368"><ele>2.6</ele><time>2022-11-16T11:27:45Z</time><name>PT1693</name></trkpt>
<trkpt lat="51.600909" lon="03.855349"><ele>2.6</ele><time>2022-11-16T11:27:46Z</time><name>PT1694</name></trkpt>
<trkpt lat="51.600911" lon="03.855328"><ele>2.5</ele><time>2022-11-16T11:27:47Z</time><name>PT1695</name></trkpt>
<trkpt lat="51.600914" lon="03.855305"><ele>2.6</ele><time>2022-11-16T11:27:49Z</time><name>PT1696</name></trkpt>
<trkpt lat="51.600919" lon="03.855279"><ele>2.3</ele><time>2022-11-16T11:27:49Z</time><name>PT1697</name></trkpt>
<trkpt lat="51.600920" lon="03.855255"><ele>2.4</ele><time>2022-11-16T11:27:50Z</time><name>PT1698</name></trkpt>
<trkpt lat="51.600920" lon="03.855237"><ele>2.6</ele><time>2022-11-16T11:27:51Z</time><name>PT1699</name></trkpt>
<trkpt lat="51.600919" lon="03.855225"><ele>2.6</ele><time>2022-11-16T11:27:52Z</time><name>PT1700</name></trkpt>
<trkpt lat="51.600920" lon="03.855211"><ele>2.6</ele><time>2022-11-16T11:27:53Z</time><name>PT1701</name></trkpt>
<trkpt lat="51.600922" lon="03.855201"><ele>2.9</ele><time>2022-11-16T11:27:54Z</time><name>PT1702</name></trkpt>
<trkpt lat="51.600923" lon="03.855189"><ele>2.8</ele><time>2022-11-16T11:27:55Z</time><name>PT1703</name></trkpt>
<trkpt lat="51.600927" lon="03.855174"><ele>2.6</ele><time>2022-11-16T11:27:56Z</time><name>PT1704</name></trkpt>
<trkpt lat="51.600932" lon="03.855153"><ele>2.5</ele><time>2022-11-16T11:27:57Z</time><name>PT1705</name></trkpt>
<trkpt lat="51.600934" lon="03.855132"><ele>2.5</ele><time>2022-11-16T11:27:58Z</time><name>PT1706</name></trkpt>
<trkpt lat="51.600937" lon="03.855111"><ele>2.6</ele><time>2022-11-16T11:27:59Z</time><name>PT1707</name></trkpt>
<trkpt lat="51.600938" lon="03.855088"><ele>2.8</ele><time>2022-11-16T11:28:01Z</time><name>PT1708</name></trkpt>
<trkpt lat="51.600939" lon="03.855070"><ele>2.8</ele><time>2022-11-16T11:28:01Z</time><name>PT1709</name></trkpt>
<trkpt lat="51.600939" lon="03.855054"><ele>2.6</ele><time>2022-11-16T11:28:02Z</time><name>PT1710</name></trkpt>
<trkpt lat="51.600939" lon="03.855041"><ele>2.2</ele><time>2022-11-16T11:28:03Z</time><name>PT1711</name></trkpt>
<trkpt lat="51.600944" lon="03.855031"><ele>2.1</ele><time>2022-11-16T11:28:04Z</time><name>PT1712</name></trkpt>
<trkpt lat="51.600950" lon="03.855019"><ele>2.1</ele><time>2022-11-16T11:28:05Z</time><name>PT1713</name></trkpt>
<trkpt lat="51.600952" lon="03.854999"><ele>2.3</ele><time>2022-11-16T11:28:07Z</time><name>PT1714</name></trkpt>
<trkpt lat="51.600955" lon="03.854976"><ele>2.4</ele><time>2022-11-16T11:28:07Z</time><name>PT1715</name></trkpt>
<trkpt lat="51.600955" lon="03.854955"><ele>2.6</ele><time>2022-11-16T11:28:08Z</time><name>PT1716</name></trkpt>
<trkpt lat="51.600955" lon="03.854935"><ele>2.6</ele><time>2022-11-16T11:28:10Z</time><name>PT1717</name></trkpt>
<trkpt lat="51.600955" lon="03.854920"><ele>2.5</ele><time>2022-11-16T11:28:10Z</time><name>PT1718</name></trkpt>
<trkpt lat="51.600956" lon="03.854906"><ele>2.3</ele><time>2022-11-16T11:28:11Z</time><name>PT1719</name></trkpt>
<trkpt lat="51.600956" lon="03.854893"><ele>2.1</ele><time>2022-11-16T11:28:13Z</time><name>PT1720</name></trkpt>
<trkpt lat="51.600962" lon="03.854877"><ele>2.1</ele><time>2022-11-16T11:28:13Z</time><name>PT1721</name></trkpt>
<trkpt lat="51.600967" lon="03.854855"><ele>2.1</ele><time>2022-11-16T11:28:14Z</time><name>PT1722</name></trkpt>
<trkpt lat="51.600970" lon="03.854831"><ele>2.2</ele><time>2022-11-16T11:28:15Z</time><name>PT1723</name></trkpt>
<trkpt lat="51.600971" lon="03.854808"><ele>2.3</ele><time>2022-11-16T11:28:16Z</time><name>PT1724</name></trkpt>
<trkpt lat="51.600973" lon="03.854789"><ele>2.6</ele><time>2022-11-16T11:28:17Z</time><name>PT1725</name></trkpt>
<trkpt lat="51.600980" lon="03.854779"><ele>2.6</ele><time>2022-11-16T11:28:18Z</time><name>PT1726</name></trkpt>
<trkpt lat="51.600986" lon="03.854767"><ele>2.6</ele><time>2022-11-16T11:28:19Z</time><name>PT1727</name></trkpt>
<trkpt lat="51.600990" lon="03.854755"><ele>2.7</ele><time>2022-11-16T11:28:20Z</time><name>PT1728</name></trkpt>
<trkpt lat="51.600994" lon="03.854739"><ele>2.6</ele><time>2022-11-16T11:28:22Z</time><name>PT1729</name></trkpt>
<trkpt lat="51.601000" lon="03.854718"><ele>2.5</ele><time>2022-11-16T11:28:22Z</time><name>PT1730</name></trkpt>
<trkpt lat="51.601006" lon="03.854696"><ele>2.3</ele><time>2022-11-16T11:28:23Z</time><name>PT1731</name></trkpt>
<trkpt lat="51.601009" lon="03.854674"><ele>2.2</ele><time>2022-11-16T11:28:24Z</time><name>PT1732</name></trkpt>
<trkpt lat="51.601011" lon="03.854657"><ele>2.2</ele><time>2022-11-16T11:28:25Z</time><name>PT1733</name></trkpt>
<trkpt lat="51.601013" lon="03.854642"><ele>2.3</ele><time>2022-11-16T11:28:26Z</time><name>PT1734</name></trkpt>
<trkpt lat="51.601016" lon="03.854627"><ele>2.5</ele><time>2022-11-16T11:28:27Z</time><name>PT1735</name></trkpt>
<trkpt lat="51.601020" lon="03.854613"><ele>2.6</ele><time>2022-11-16T11:28:28Z</time><name>PT1736</name></trkpt>
<trkpt lat="51.601025" lon="03.854597"><ele>2.7</ele><time>2022-11-16T11:28:29Z</time><name>PT1737</name></trkpt>
<trkpt lat="51.601030" lon="03.854576"><ele>2.7</ele><time>2022-11-16T11:28:30Z</time><name>PT1738</name></trkpt>
<trkpt lat="51.601035" lon="03.854554"><ele>2.6</ele><time>2022-11-16T11:28:31Z</time><name>PT1739</name></trkpt>
<trkpt lat="51.601037" lon="03.854535"><ele>2.6</ele><time>2022-11-16T11:28:32Z</time><name>PT1740</name></trkpt>
<trkpt lat="51.601039" lon="03.854520"><ele>2.6</ele><time>2022-11-16T11:28:33Z</time><name>PT1741</name></trkpt>
<trkpt lat="51.601041" lon="03.854507"><ele>2.6</ele><time>2022-11-16T11:28:34Z</time><name>PT1742</name></trkpt>
<trkpt lat="51.601044" lon="03.854493"><ele>2.6</ele><time>2022-11-16T11:28:35Z</time><name>PT1743</name></trkpt>
<trkpt lat="51.601047" lon="03.854479"><ele>2.6</ele><time>2022-11-16T11:28:36Z</time><name>PT1744</name></trkpt>
<trkpt lat="51.601052" lon="03.854466"><ele>2.6</ele><time>2022-11-16T11:28:37Z</time><name>PT1745</name></trkpt>
<trkpt lat="51.601057" lon="03.854450"><ele>2.3</ele><time>2022-11-16T11:28:38Z</time><name>PT1746</name></trkpt>
<trkpt lat="51.601064" lon="03.854431"><ele>2.2</ele><time>2022-11-16T11:28:40Z</time><name>PT1747</name></trkpt>
<trkpt lat="51.601069" lon="03.854410"><ele>2.1</ele><time>2022-11-16T11:28:40Z</time><name>PT1748</name></trkpt>
<trkpt lat="51.601073" lon="03.854389"><ele>2.1</ele><time>2022-11-16T11:28:41Z</time><name>PT1749</name></trkpt>
<trkpt lat="51.601077" lon="03.854371"><ele>2.1</ele><time>2022-11-16T11:28:42Z</time><name>PT1750</name></trkpt>
<trkpt lat="51.601080" lon="03.854360"><ele>2.1</ele><time>2022-11-16T11:28:43Z</time><name>PT1751</name></trkpt>
<trkpt lat="51.601083" lon="03.854348"><ele>2.2</ele><time>2022-11-16T11:28:44Z</time><name>PT1752</name></trkpt>
<trkpt lat="51.601088" lon="03.854335"><ele>2.4</ele><time>2022-11-16T11:28:45Z</time><name>PT1753</name></trkpt>
<trkpt lat="51.601093" lon="03.854319"><ele>2.3</ele><time>2022-11-16T11:28:46Z</time><name>PT1754</name></trkpt>
<trkpt lat="51.601102" lon="03.854298"><ele>2.3</ele><time>2022-11-16T11:28:47Z</time><name>PT1755</name></trkpt>
<trkpt lat="51.601109" lon="03.854279"><ele>2.3</ele><time>2022-11-16T11:28:48Z</time><name>PT1756</name></trkpt>
<trkpt lat="51.601114" lon="03.854259"><ele>2.3</ele><time>2022-11-16T11:28:49Z</time><name>PT1757</name></trkpt>
<trkpt lat="51.601118" lon="03.854242"><ele>2.2</ele><time>2022-11-16T11:28:50Z</time><name>PT1758</name></trkpt>
<trkpt lat="51.601121" lon="03.854228"><ele>2.2</ele><time>2022-11-16T11:28:52Z</time><name>PT1759</name></trkpt>
<trkpt lat="51.601125" lon="03.854215"><ele>2.1</ele><time>2022-11-16T11:28:52Z</time><name>PT1760</name></trkpt>
<trkpt lat="51.601130" lon="03.854200"><ele>2.1</ele><time>2022-11-16T11:28:53Z</time><name>PT1761</name></trkpt>
<trkpt lat="51.601137" lon="03.854191"><ele>2.6</ele><time>2022-11-16T11:28:54Z</time><name>PT1762</name></trkpt>
<trkpt lat="51.601144" lon="03.854175"><ele>2.7</ele><time>2022-11-16T11:28:55Z</time><name>PT1763</name></trkpt>
<trkpt lat="51.601151" lon="03.854161"><ele>3.1</ele><time>2022-11-16T11:28:56Z</time><name>PT1764</name></trkpt>
<trkpt lat="51.601157" lon="03.854147"><ele>3.3</ele><time>2022-11-16T11:28:57Z</time><name>PT1765</name></trkpt>
<trkpt lat="51.601163" lon="03.854132"><ele>3.2</ele><time>2022-11-16T11:28:58Z</time><name>PT1766</name></trkpt>
<trkpt lat="51.601169" lon="03.854119"><ele>3.1</ele><time>2022-11-16T11:28:59Z</time><name>PT1767</name></trkpt>
<trkpt lat="51.601174" lon="03.854106"><ele>3.1</ele><time>2022-11-16T11:29:00Z</time><name>PT1768</name></trkpt>
<trkpt lat="51.601177" lon="03.854089"><ele>3.1</ele><time>2022-11-16T11:29:01Z</time><name>PT1769</name></trkpt>
<trkpt lat="51.601177" lon="03.854079"><ele>2.7</ele><time>2022-11-16T11:29:02Z</time><name>PT1770</name></trkpt>
<trkpt lat="51.601180" lon="03.854068"><ele>2.7</ele><time>2022-11-16T11:29:04Z</time><name>PT1771</name></trkpt>
<trkpt lat="51.601185" lon="03.854054"><ele>2.6</ele><time>2022-11-16T11:29:04Z</time><name>PT1772</name></trkpt>
<trkpt lat="51.601191" lon="03.854037"><ele>2.4</ele><time>2022-11-16T11:29:05Z</time><name>PT1773</name></trkpt>
<trkpt lat="51.601202" lon="03.854013"><ele>2.3</ele><time>2022-11-16T11:29:06Z</time><name>PT1774</name></trkpt>
<trkpt lat="51.601210" lon="03.853994"><ele>2.6</ele><time>2022-11-16T11:29:07Z</time><name>PT1775</name></trkpt>
<trkpt lat="51.601217" lon="03.853978"><ele>2.6</ele><time>2022-11-16T11:29:08Z</time><name>PT1776</name></trkpt>
<trkpt lat="51.601225" lon="03.853959"><ele>2.9</ele><time>2022-11-16T11:29:09Z</time><name>PT1777</name></trkpt>
<trkpt lat="51.601229" lon="03.853943"><ele>3</ele><time>2022-11-16T11:29:10Z</time><name>PT1778</name></trkpt>
<trkpt lat="51.601233" lon="03.853929"><ele>3.2</ele><time>2022-11-16T11:29:11Z</time><name>PT1779</name></trkpt>
<trkpt lat="51.601236" lon="03.853914"><ele>3.1</ele><time>2022-11-16T11:29:12Z</time><name>PT1780</name></trkpt>
<trkpt lat="51.601241" lon="03.853899"><ele>3.2</ele><time>2022-11-16T11:29:13Z</time><name>PT1781</name></trkpt>
<trkpt lat="51.601243" lon="03.853880"><ele>3</ele><time>2022-11-16T11:29:14Z</time><name>PT1782</name></trkpt>
<trkpt lat="51.601246" lon="03.853863"><ele>2.8</ele><time>2022-11-16T11:29:16Z</time><name>PT1783</name></trkpt>
<trkpt lat="51.601248" lon="03.853852"><ele>2.8</ele><time>2022-11-16T11:29:16Z</time><name>PT1784</name></trkpt>
<trkpt lat="51.601252" lon="03.853830"><ele>2.6</ele><time>2022-11-16T11:29:17Z</time><name>PT1785</name></trkpt>
<trkpt lat="51.601258" lon="03.853805"><ele>2.5</ele><time>2022-11-16T11:29:18Z</time><name>PT1786</name></trkpt>
<trkpt lat="51.601263" lon="03.853778"><ele>2.5</ele><time>2022-11-16T11:29:19Z</time><name>PT1787</name></trkpt>
<trkpt lat="51.601267" lon="03.853752"><ele>2.6</ele><time>2022-11-16T11:29:20Z</time><name>PT1788</name></trkpt>
<trkpt lat="51.601271" lon="03.853736"><ele>2.5</ele><time>2022-11-16T11:29:21Z</time><name>PT1789</name></trkpt>
<trkpt lat="51.601273" lon="03.853724"><ele>2.5</ele><time>2022-11-16T11:29:22Z</time><name>PT1790</name></trkpt>
<trkpt lat="51.601275" lon="03.853712"><ele>2.6</ele><time>2022-11-16T11:29:23Z</time><name>PT1791</name></trkpt>
<trkpt lat="51.601276" lon="03.853701"><ele>2.8</ele><time>2022-11-16T11:29:25Z</time><name>PT1792</name></trkpt>
<trkpt lat="51.601278" lon="03.853689"><ele>2.8</ele><time>2022-11-16T11:29:25Z</time><name>PT1793</name></trkpt>
<trkpt lat="51.601281" lon="03.853674"><ele>2.8</ele><time>2022-11-16T11:29:26Z</time><name>PT1794</name></trkpt>
<trkpt lat="51.601286" lon="03.853660"><ele>3</ele><time>2022-11-16T11:29:28Z</time><name>PT1795</name></trkpt>
<trkpt lat="51.601291" lon="03.853645"><ele>3.1</ele><time>2022-11-16T11:29:28Z</time><name>PT1796</name></trkpt>
<trkpt lat="51.601295" lon="03.853627"><ele>3.2</ele><time>2022-11-16T11:29:29Z</time><name>PT1797</name></trkpt>
<trkpt lat="51.601301" lon="03.853604"><ele>3</ele><time>2022-11-16T11:29:30Z</time><name>PT1798</name></trkpt>
<trkpt lat="51.601306" lon="03.853577"><ele>3.1</ele><time>2022-11-16T11:29:31Z</time><name>PT1799</name></trkpt>
<trkpt lat="51.601308" lon="03.853553"><ele>2.8</ele><time>2022-11-16T11:29:32Z</time><name>PT1800</name></trkpt>
<trkpt lat="51.601309" lon="03.853536"><ele>2.5</ele><time>2022-11-16T11:29:34Z</time><name>PT1801</name></trkpt>
<trkpt lat="51.601310" lon="03.853521"><ele>2.3</ele><time>2022-11-16T11:29:34Z</time><name>PT1802</name></trkpt>
<trkpt lat="51.601312" lon="03.853508"><ele>2.1</ele><time>2022-11-16T11:29:35Z</time><name>PT1803</name></trkpt>
<trkpt lat="51.601316" lon="03.853493"><ele>2</ele><time>2022-11-16T11:29:37Z</time><name>PT1804</name></trkpt>
<trkpt lat="51.601321" lon="03.853477"><ele>2</ele><time>2022-11-16T11:29:37Z</time><name>PT1805</name></trkpt>
<trkpt lat="51.601325" lon="03.853458"><ele>2.3</ele><time>2022-11-16T11:29:38Z</time><name>PT1806</name></trkpt>
<trkpt lat="51.601329" lon="03.853435"><ele>2.4</ele><time>2022-11-16T11:29:39Z</time><name>PT1807</name></trkpt>
<trkpt lat="51.601332" lon="03.853411"><ele>2.5</ele><time>2022-11-16T11:29:40Z</time><name>PT1808</name></trkpt>
<trkpt lat="51.601334" lon="03.853388"><ele>2.5</ele><time>2022-11-16T11:29:41Z</time><name>PT1809</name></trkpt>
<trkpt lat="51.601336" lon="03.853365"><ele>2.4</ele><time>2022-11-16T11:29:43Z</time><name>PT1810</name></trkpt>
<trkpt lat="51.601337" lon="03.853344"><ele>2.4</ele><time>2022-11-16T11:29:43Z</time><name>PT1811</name></trkpt>
<trkpt lat="51.601338" lon="03.853328"><ele>2.4</ele><time>2022-11-16T11:29:44Z</time><name>PT1812</name></trkpt>
<trkpt lat="51.601337" lon="03.853321"><ele>2.3</ele><time>2022-11-16T11:29:45Z</time><name>PT1813</name></trkpt>
<trkpt lat="51.601336" lon="03.853316"><ele>2.2</ele><time>2022-11-16T11:29:46Z</time><name>PT1814</name></trkpt>
<trkpt lat="51.601337" lon="03.853307"><ele>2.2</ele><time>2022-11-16T11:29:47Z</time><name>PT1815</name></trkpt>
<trkpt lat="51.601340" lon="03.853294"><ele>2.2</ele><time>2022-11-16T11:29:48Z</time><name>PT1816</name></trkpt>
<trkpt lat="51.601344" lon="03.853281"><ele>2.2</ele><time>2022-11-16T11:29:49Z</time><name>PT1817</name></trkpt>
<trkpt lat="51.601346" lon="03.853267"><ele>2.3</ele><time>2022-11-16T11:29:50Z</time><name>PT1818</name></trkpt>
<trkpt lat="51.601350" lon="03.853252"><ele>2.4</ele><time>2022-11-16T11:29:51Z</time><name>PT1819</name></trkpt>
<trkpt lat="51.601354" lon="03.853235"><ele>2.4</ele><time>2022-11-16T11:29:52Z</time><name>PT1820</name></trkpt>
<trkpt lat="51.601358" lon="03.853217"><ele>2.4</ele><time>2022-11-16T11:29:53Z</time><name>PT1821</name></trkpt>
<trkpt lat="51.601362" lon="03.853196"><ele>2.6</ele><time>2022-11-16T11:29:55Z</time><name>PT1822</name></trkpt>
<trkpt lat="51.601365" lon="03.853174"><ele>2.6</ele><time>2022-11-16T11:29:55Z</time><name>PT1823</name></trkpt>
<trkpt lat="51.601371" lon="03.853146"><ele>2.7</ele><time>2022-11-16T11:29:56Z</time><name>PT1824</name></trkpt>
<trkpt lat="51.601375" lon="03.853115"><ele>2.6</ele><time>2022-11-16T11:29:57Z</time><name>PT1825</name></trkpt>
<trkpt lat="51.601379" lon="03.853090"><ele>2.4</ele><time>2022-11-16T11:29:58Z</time><name>PT1826</name></trkpt>
<trkpt lat="51.601382" lon="03.853068"><ele>2.5</ele><time>2022-11-16T11:29:59Z</time><name>PT1827</name></trkpt>
<trkpt lat="51.601382" lon="03.853052"><ele>2.6</ele><time>2022-11-16T11:30:01Z</time><name>PT1828</name></trkpt>
<trkpt lat="51.601382" lon="03.853038"><ele>2.6</ele><time>2022-11-16T11:30:01Z</time><name>PT1829</name></trkpt>
<trkpt lat="51.601384" lon="03.853020"><ele>3</ele><time>2022-11-16T11:30:02Z</time><name>PT1830</name></trkpt>
<trkpt lat="51.601388" lon="03.853006"><ele>3.1</ele><time>2022-11-16T11:30:04Z</time><name>PT1831</name></trkpt>
<trkpt lat="51.601390" lon="03.852993"><ele>3.2</ele><time>2022-11-16T11:30:04Z</time><name>PT1832</name></trkpt>
<trkpt lat="51.601393" lon="03.852978"><ele>3.5</ele><time>2022-11-16T11:30:05Z</time><name>PT1833</name></trkpt>
<trkpt lat="51.601395" lon="03.852960"><ele>3.5</ele><time>2022-11-16T11:30:07Z</time><name>PT1834</name></trkpt>
<trkpt lat="51.601399" lon="03.852945"><ele>3.5</ele><time>2022-11-16T11:30:07Z</time><name>PT1835</name></trkpt>
<trkpt lat="51.601401" lon="03.852928"><ele>3.5</ele><time>2022-11-16T11:30:08Z</time><name>PT1836</name></trkpt>
<trkpt lat="51.601403" lon="03.852913"><ele>3.3</ele><time>2022-11-16T11:30:09Z</time><name>PT1837</name></trkpt>
<trkpt lat="51.601405" lon="03.852894"><ele>3.2</ele><time>2022-11-16T11:30:10Z</time><name>PT1838</name></trkpt>
<trkpt lat="51.601406" lon="03.852877"><ele>3.2</ele><time>2022-11-16T11:30:11Z</time><name>PT1839</name></trkpt>
<trkpt lat="51.601407" lon="03.852859"><ele>3.2</ele><time>2022-11-16T11:30:12Z</time><name>PT1840</name></trkpt>
<trkpt lat="51.601405" lon="03.852854"><ele>3.3</ele><time>2022-11-16T11:30:13Z</time><name>PT1841</name></trkpt>
<trkpt lat="51.601406" lon="03.852848"><ele>3.1</ele><time>2022-11-16T11:30:14Z</time><name>PT1842</name></trkpt>
<trkpt lat="51.601408" lon="03.852838"><ele>3</ele><time>2022-11-16T11:30:15Z</time><name>PT1843</name></trkpt>
<trkpt lat="51.601408" lon="03.852826"><ele>2.9</ele><time>2022-11-16T11:30:16Z</time><name>PT1844</name></trkpt>
<trkpt lat="51.601410" lon="03.852814"><ele>2.7</ele><time>2022-11-16T11:30:17Z</time><name>PT1845</name></trkpt>
<trkpt lat="51.601413" lon="03.852801"><ele>2.6</ele><time>2022-11-16T11:30:19Z</time><name>PT1846</name></trkpt>
<trkpt lat="51.601419" lon="03.852784"><ele>2.8</ele><time>2022-11-16T11:30:19Z</time><name>PT1847</name></trkpt>
<trkpt lat="51.601424" lon="03.852763"><ele>2.8</ele><time>2022-11-16T11:30:20Z</time><name>PT1848</name></trkpt>
<trkpt lat="51.601429" lon="03.852738"><ele>2.6</ele><time>2022-11-16T11:30:21Z</time><name>PT1849</name></trkpt>
<trkpt lat="51.601433" lon="03.852716"><ele>2.6</ele><time>2022-11-16T11:30:22Z</time><name>PT1850</name></trkpt>
<trkpt lat="51.601437" lon="03.852693"><ele>2.6</ele><time>2022-11-16T11:30:23Z</time><name>PT1851</name></trkpt>
<trkpt lat="51.601438" lon="03.852675"><ele>2.4</ele><time>2022-11-16T11:30:24Z</time><name>PT1852</name></trkpt>
<trkpt lat="51.601439" lon="03.852662"><ele>2.4</ele><time>2022-11-16T11:30:25Z</time><name>PT1853</name></trkpt>
<trkpt lat="51.601438" lon="03.852655"><ele>2.6</ele><time>2022-11-16T11:30:26Z</time><name>PT1854</name></trkpt>
<trkpt lat="51.601440" lon="03.852644"><ele>2.6</ele><time>2022-11-16T11:30:27Z</time><name>PT1855</name></trkpt>
<trkpt lat="51.601445" lon="03.852625"><ele>2.7</ele><time>2022-11-16T11:30:28Z</time><name>PT1856</name></trkpt>
<trkpt lat="51.601452" lon="03.852600"><ele>2.8</ele><time>2022-11-16T11:30:29Z</time><name>PT1857</name></trkpt>
<trkpt lat="51.601455" lon="03.852574"><ele>2.9</ele><time>2022-11-16T11:30:30Z</time><name>PT1858</name></trkpt>
<trkpt lat="51.601456" lon="03.852554"><ele>2.9</ele><time>2022-11-16T11:30:31Z</time><name>PT1859</name></trkpt>
<trkpt lat="51.601456" lon="03.852539"><ele>3.1</ele><time>2022-11-16T11:30:32Z</time><name>PT1860</name></trkpt>
<trkpt lat="51.601457" lon="03.852527"><ele>3</ele><time>2022-11-16T11:30:33Z</time><name>PT1861</name></trkpt>
<trkpt lat="51.601459" lon="03.852515"><ele>3</ele><time>2022-11-16T11:30:34Z</time><name>PT1862</name></trkpt>
<trkpt lat="51.601461" lon="03.852500"><ele>3</ele><time>2022-11-16T11:30:35Z</time><name>PT1863</name></trkpt>
<trkpt lat="51.601464" lon="03.852486"><ele>3.1</ele><time>2022-11-16T11:30:36Z</time><name>PT1864</name></trkpt>
<trkpt lat="51.601467" lon="03.852468"><ele>3.2</ele><time>2022-11-16T11:30:37Z</time><name>PT1865</name></trkpt>
<trkpt lat="51.601472" lon="03.852447"><ele>3.2</ele><time>2022-11-16T11:30:38Z</time><name>PT1866</name></trkpt>
<trkpt lat="51.601475" lon="03.852421"><ele>3.4</ele><time>2022-11-16T11:30:39Z</time><name>PT1867</name></trkpt>
<trkpt lat="51.601478" lon="03.852398"><ele>3.4</ele><time>2022-11-16T11:30:40Z</time><name>PT1868</name></trkpt>
<trkpt lat="51.601479" lon="03.852376"><ele>3.3</ele><time>2022-11-16T11:30:41Z</time><name>PT1869</name></trkpt>
<trkpt lat="51.601481" lon="03.852358"><ele>3.2</ele><time>2022-11-16T11:30:42Z</time><name>PT1870</name></trkpt>
<trkpt lat="51.601482" lon="03.852343"><ele>3.1</ele><time>2022-11-16T11:30:43Z</time><name>PT1871</name></trkpt>
<trkpt lat="51.601483" lon="03.852329"><ele>2.7</ele><time>2022-11-16T11:30:44Z</time><name>PT1872</name></trkpt>
<trkpt lat="51.601486" lon="03.852317"><ele>2.6</ele><time>2022-11-16T11:30:46Z</time><name>PT1873</name></trkpt>
<trkpt lat="51.601490" lon="03.852303"><ele>2.5</ele><time>2022-11-16T11:30:46Z</time><name>PT1874</name></trkpt>
<trkpt lat="51.601494" lon="03.852284"><ele>2.5</ele><time>2022-11-16T11:30:47Z</time><name>PT1875</name></trkpt>
<trkpt lat="51.601500" lon="03.852260"><ele>2.6</ele><time>2022-11-16T11:30:48Z</time><name>PT1876</name></trkpt>
<trkpt lat="51.601504" lon="03.852237"><ele>2.6</ele><time>2022-11-16T11:30:49Z</time><name>PT1877</name></trkpt>
<trkpt lat="51.601507" lon="03.852212"><ele>2.9</ele><time>2022-11-16T11:30:50Z</time><name>PT1878</name></trkpt>
<trkpt lat="51.601509" lon="03.852185"><ele>3</ele><time>2022-11-16T11:30:52Z</time><name>PT1879</name></trkpt>
<trkpt lat="51.601511" lon="03.852161"><ele>3</ele><time>2022-11-16T11:30:52Z</time><name>PT1880</name></trkpt>
<trkpt lat="51.601513" lon="03.852138"><ele>3.1</ele><time>2022-11-16T11:30:53Z</time><name>PT1881</name></trkpt>
<trkpt lat="51.601514" lon="03.852119"><ele>3.3</ele><time>2022-11-16T11:30:54Z</time><name>PT1882</name></trkpt>
<trkpt lat="51.601515" lon="03.852107"><ele>3.2</ele><time>2022-11-16T11:30:55Z</time><name>PT1883</name></trkpt>
<trkpt lat="51.601516" lon="03.852097"><ele>3.2</ele><time>2022-11-16T11:30:56Z</time><name>PT1884</name></trkpt>
<trkpt lat="51.601523" lon="03.852081"><ele>3.3</ele><time>2022-11-16T11:30:58Z</time><name>PT1885</name></trkpt>
<trkpt lat="51.601525" lon="03.852072"><ele>3.4</ele><time>2022-11-16T11:30:58Z</time><name>PT1886</name></trkpt>
<trkpt lat="51.601523" lon="03.852068"><ele>3.5</ele><time>2022-11-16T11:30:59Z</time><name>PT1887</name></trkpt>
<trkpt lat="51.601522" lon="03.852071"><ele>3.6</ele><time>2022-11-16T11:31:00Z</time><name>PT1888</name></trkpt>
<trkpt lat="51.601522" lon="03.852071"><ele>3.7</ele><time>2022-11-16T11:31:01Z</time><name>PT1889</name></trkpt>
<trkpt lat="51.601522" lon="03.852068"><ele>3.6</ele><time>2022-11-16T11:31:02Z</time><name>PT1890</name></trkpt>
<trkpt lat="51.601524" lon="03.852058"><ele>3.5</ele><time>2022-11-16T11:31:03Z</time><name>PT1891</name></trkpt>
<trkpt lat="51.601526" lon="03.852046"><ele>3.6</ele><time>2022-11-16T11:31:04Z</time><name>PT1892</name></trkpt>
<trkpt lat="51.601527" lon="03.852031"><ele>3.5</ele><time>2022-11-16T11:31:05Z</time><name>PT1893</name></trkpt>
<trkpt lat="51.601529" lon="03.852015"><ele>3.5</ele><time>2022-11-16T11:31:06Z</time><name>PT1894</name></trkpt>
<trkpt lat="51.601531" lon="03.852001"><ele>3.4</ele><time>2022-11-16T11:31:07Z</time><name>PT1895</name></trkpt>
<trkpt lat="51.601533" lon="03.851986"><ele>3.2</ele><time>2022-11-16T11:31:08Z</time><name>PT1896</name></trkpt>
<trkpt lat="51.601536" lon="03.851977"><ele>2.9</ele><time>2022-11-16T11:31:10Z</time><name>PT1897</name></trkpt>
<trkpt lat="51.601540" lon="03.851961"><ele>2.9</ele><time>2022-11-16T11:31:10Z</time><name>PT1898</name></trkpt>
<trkpt lat="51.601544" lon="03.851939"><ele>2.9</ele><time>2022-11-16T11:31:11Z</time><name>PT1899</name></trkpt>
<trkpt lat="51.601546" lon="03.851918"><ele>3</ele><time>2022-11-16T11:31:12Z</time><name>PT1900</name></trkpt>
<trkpt lat="51.601547" lon="03.851899"><ele>3.2</ele><time>2022-11-16T11:31:13Z</time><name>PT1901</name></trkpt>
<trkpt lat="51.601548" lon="03.851884"><ele>3</ele><time>2022-11-16T11:31:14Z</time><name>PT1902</name></trkpt>
<trkpt lat="51.601549" lon="03.851872"><ele>3.2</ele><time>2022-11-16T11:31:15Z</time><name>PT1903</name></trkpt>
<trkpt lat="51.601551" lon="03.851859"><ele>3.2</ele><time>2022-11-16T11:31:16Z</time><name>PT1904</name></trkpt>
<trkpt lat="51.601554" lon="03.851845"><ele>3.1</ele><time>2022-11-16T11:31:17Z</time><name>PT1905</name></trkpt>
<trkpt lat="51.601557" lon="03.851830"><ele>3.3</ele><time>2022-11-16T11:31:18Z</time><name>PT1906</name></trkpt>
<trkpt lat="51.601560" lon="03.851808"><ele>3.4</ele><time>2022-11-16T11:31:19Z</time><name>PT1907</name></trkpt>
<trkpt lat="51.601561" lon="03.851785"><ele>3.4</ele><time>2022-11-16T11:31:20Z</time><name>PT1908</name></trkpt>
<trkpt lat="51.601560" lon="03.851768"><ele>3.9</ele><time>2022-11-16T11:31:22Z</time><name>PT1909</name></trkpt>
<trkpt lat="51.601557" lon="03.851753"><ele>4</ele><time>2022-11-16T11:31:22Z</time><name>PT1910</name></trkpt>
<trkpt lat="51.601557" lon="03.851741"><ele>4.2</ele><time>2022-11-16T11:31:23Z</time><name>PT1911</name></trkpt>
<trkpt lat="51.601563" lon="03.851734"><ele>4.1</ele><time>2022-11-16T11:31:24Z</time><name>PT1912</name></trkpt>
<trkpt lat="51.601571" lon="03.851728"><ele>4</ele><time>2022-11-16T11:31:25Z</time><name>PT1913</name></trkpt>
<trkpt lat="51.601580" lon="03.851719"><ele>3.7</ele><time>2022-11-16T11:31:26Z</time><name>PT1914</name></trkpt>
<trkpt lat="51.601592" lon="03.851706"><ele>3.4</ele><time>2022-11-16T11:31:27Z</time><name>PT1915</name></trkpt>
<trkpt lat="51.601602" lon="03.851689"><ele>3.3</ele><time>2022-11-16T11:31:28Z</time><name>PT1916</name></trkpt>
<trkpt lat="51.601610" lon="03.851673"><ele>3.4</ele><time>2022-11-16T11:31:29Z</time><name>PT1917</name></trkpt>
<trkpt lat="51.601616" lon="03.851657"><ele>3.4</ele><time>2022-11-16T11:31:30Z</time><name>PT1918</name></trkpt>
<trkpt lat="51.601620" lon="03.851642"><ele>3.3</ele><time>2022-11-16T11:31:31Z</time><name>PT1919</name></trkpt>
<trkpt lat="51.601625" lon="03.851630"><ele>3.4</ele><time>2022-11-16T11:31:32Z</time><name>PT1920</name></trkpt>
<trkpt lat="51.601631" lon="03.851619"><ele>3.3</ele><time>2022-11-16T11:31:33Z</time><name>PT1921</name></trkpt>
<trkpt lat="51.601637" lon="03.851608"><ele>3.1</ele><time>2022-11-16T11:31:34Z</time><name>PT1922</name></trkpt>
<trkpt lat="51.601643" lon="03.851596"><ele>3</ele><time>2022-11-16T11:31:35Z</time><name>PT1923</name></trkpt>
<trkpt lat="51.601651" lon="03.851583"><ele>2.7</ele><time>2022-11-16T11:31:36Z</time><name>PT1924</name></trkpt>
<trkpt lat="51.601661" lon="03.851567"><ele>2.8</ele><time>2022-11-16T11:31:37Z</time><name>PT1925</name></trkpt>
<trkpt lat="51.601672" lon="03.851550"><ele>2.8</ele><time>2022-11-16T11:31:38Z</time><name>PT1926</name></trkpt>
<trkpt lat="51.601682" lon="03.851533"><ele>2.8</ele><time>2022-11-16T11:31:39Z</time><name>PT1927</name></trkpt>
<trkpt lat="51.601690" lon="03.851517"><ele>2.9</ele><time>2022-11-16T11:31:40Z</time><name>PT1928</name></trkpt>
<trkpt lat="51.601694" lon="03.851504"><ele>2.9</ele><time>2022-11-16T11:31:41Z</time><name>PT1929</name></trkpt>
<trkpt lat="51.601699" lon="03.851494"><ele>2.7</ele><time>2022-11-16T11:31:42Z</time><name>PT1930</name></trkpt>
<trkpt lat="51.601703" lon="03.851484"><ele>2.8</ele><time>2022-11-16T11:31:43Z</time><name>PT1931</name></trkpt>
<trkpt lat="51.601711" lon="03.851473"><ele>2.8</ele><time>2022-11-16T11:31:44Z</time><name>PT1932</name></trkpt>
<trkpt lat="51.601724" lon="03.851461"><ele>3.1</ele><time>2022-11-16T11:31:45Z</time><name>PT1933</name></trkpt>
<trkpt lat="51.601732" lon="03.851447"><ele>3.1</ele><time>2022-11-16T11:31:46Z</time><name>PT1934</name></trkpt>
<trkpt lat="51.601739" lon="03.851433"><ele>3.3</ele><time>2022-11-16T11:31:47Z</time><name>PT1935</name></trkpt>
<trkpt lat="51.601744" lon="03.851422"><ele>3.6</ele><time>2022-11-16T11:31:49Z</time><name>PT1936</name></trkpt>
<trkpt lat="51.601746" lon="03.851411"><ele>3.4</ele><time>2022-11-16T11:31:49Z</time><name>PT1937</name></trkpt>
<trkpt lat="51.601749" lon="03.851399"><ele>3.2</ele><time>2022-11-16T11:31:50Z</time><name>PT1938</name></trkpt>
<trkpt lat="51.601755" lon="03.851390"><ele>3.1</ele><time>2022-11-16T11:31:51Z</time><name>PT1939</name></trkpt>
<trkpt lat="51.601763" lon="03.851381"><ele>3.2</ele><time>2022-11-16T11:31:52Z</time><name>PT1940</name></trkpt>
<trkpt lat="51.601771" lon="03.851369"><ele>3</ele><time>2022-11-16T11:31:53Z</time><name>PT1941</name></trkpt>
<trkpt lat="51.601782" lon="03.851355"><ele>3.2</ele><time>2022-11-16T11:31:54Z</time><name>PT1942</name></trkpt>
<trkpt lat="51.601793" lon="03.851340"><ele>3.3</ele><time>2022-11-16T11:31:55Z</time><name>PT1943</name></trkpt>
<trkpt lat="51.601805" lon="03.851323"><ele>3.2</ele><time>2022-11-16T11:31:56Z</time><name>PT1944</name></trkpt>
<trkpt lat="51.601814" lon="03.851304"><ele>3.2</ele><time>2022-11-16T11:31:57Z</time><name>PT1945</name></trkpt>
<trkpt lat="51.601821" lon="03.851289"><ele>3.2</ele><time>2022-11-16T11:31:58Z</time><name>PT1946</name></trkpt>
<trkpt lat="51.601825" lon="03.851276"><ele>3</ele><time>2022-11-16T11:31:59Z</time><name>PT1947</name></trkpt>
<trkpt lat="51.601829" lon="03.851264"><ele>3.2</ele><time>2022-11-16T11:32:00Z</time><name>PT1948</name></trkpt>
<trkpt lat="51.601833" lon="03.851254"><ele>3.2</ele><time>2022-11-16T11:32:01Z</time><name>PT1949</name></trkpt>
<trkpt lat="51.601839" lon="03.851247"><ele>3.2</ele><time>2022-11-16T11:32:02Z</time><name>PT1950</name></trkpt>
<trkpt lat="51.601845" lon="03.851240"><ele>3.2</ele><time>2022-11-16T11:32:03Z</time><name>PT1951</name></trkpt>
<trkpt lat="51.601854" lon="03.851232"><ele>3.2</ele><time>2022-11-16T11:32:04Z</time><name>PT1952</name></trkpt>
<trkpt lat="51.601865" lon="03.851221"><ele>2.9</ele><time>2022-11-16T11:32:05Z</time><name>PT1953</name></trkpt>
<trkpt lat="51.601877" lon="03.851207"><ele>2.7</ele><time>2022-11-16T11:32:06Z</time><name>PT1954</name></trkpt>
<trkpt lat="51.601891" lon="03.851193"><ele>2.7</ele><time>2022-11-16T11:32:07Z</time><name>PT1955</name></trkpt>
<trkpt lat="51.601905" lon="03.851174"><ele>2.6</ele><time>2022-11-16T11:32:08Z</time><name>PT1956</name></trkpt>
<trkpt lat="51.601918" lon="03.851156"><ele>2.6</ele><time>2022-11-16T11:32:09Z</time><name>PT1957</name></trkpt>
<trkpt lat="51.601928" lon="03.851138"><ele>2.7</ele><time>2022-11-16T11:32:10Z</time><name>PT1958</name></trkpt>
<trkpt lat="51.601936" lon="03.851124"><ele>2.8</ele><time>2022-11-16T11:32:11Z</time><name>PT1959</name></trkpt>
<trkpt lat="51.601945" lon="03.851112"><ele>2.9</ele><time>2022-11-16T11:32:12Z</time><name>PT1960</name></trkpt>
<trkpt lat="51.601953" lon="03.851104"><ele>2.9</ele><time>2022-11-16T11:32:13Z</time><name>PT1961</name></trkpt>
<trkpt lat="51.601962" lon="03.851097"><ele>2.7</ele><time>2022-11-16T11:32:14Z</time><name>PT1962</name></trkpt>
<trkpt lat="51.601971" lon="03.851087"><ele>2.9</ele><time>2022-11-16T11:32:15Z</time><name>PT1963</name></trkpt>
<trkpt lat="51.601982" lon="03.851078"><ele>3.1</ele><time>2022-11-16T11:32:16Z</time><name>PT1964</name></trkpt>
<trkpt lat="51.601991" lon="03.851068"><ele>3.3</ele><time>2022-11-16T11:32:17Z</time><name>PT1965</name></trkpt>
<trkpt lat="51.602000" lon="03.851056"><ele>3.4</ele><time>2022-11-16T11:32:18Z</time><name>PT1966</name></trkpt>
<trkpt lat="51.602010" lon="03.851044"><ele>3.5</ele><time>2022-11-16T11:32:19Z</time><name>PT1967</name></trkpt>
<trkpt lat="51.602024" lon="03.851031"><ele>3.2</ele><time>2022-11-16T11:32:20Z</time><name>PT1968</name></trkpt>
<trkpt lat="51.602040" lon="03.851018"><ele>3.1</ele><time>2022-11-16T11:32:21Z</time><name>PT1969</name></trkpt>
<trkpt lat="51.602051" lon="03.850994"><ele>3.1</ele><time>2022-11-16T11:32:22Z</time><name>PT1970</name></trkpt>
<trkpt lat="51.602063" lon="03.850978"><ele>2.8</ele><time>2022-11-16T11:32:23Z</time><name>PT1971</name></trkpt>
<trkpt lat="51.602074" lon="03.850967"><ele>2.6</ele><time>2022-11-16T11:32:25Z</time><name>PT1972</name></trkpt>
<trkpt lat="51.602080" lon="03.850958"><ele>2.6</ele><time>2022-11-16T11:32:25Z</time><name>PT1973</name></trkpt>
<trkpt lat="51.602085" lon="03.850953"><ele>2.6</ele><time>2022-11-16T11:32:26Z</time><name>PT1974</name></trkpt>
<trkpt lat="51.602094" lon="03.850950"><ele>2.5</ele><time>2022-11-16T11:32:27Z</time><name>PT1975</name></trkpt>
<trkpt lat="51.602102" lon="03.850950"><ele>2.4</ele><time>2022-11-16T11:32:28Z</time><name>PT1976</name></trkpt>
<trkpt lat="51.602110" lon="03.850949"><ele>2.6</ele><time>2022-11-16T11:32:29Z</time><name>PT1977</name></trkpt>
<trkpt lat="51.602117" lon="03.850950"><ele>2.6</ele><time>2022-11-16T11:32:30Z</time><name>PT1978</name></trkpt>
<trkpt lat="51.602133" lon="03.850954"><ele>2.5</ele><time>2022-11-16T11:32:31Z</time><name>PT1979</name></trkpt>
<trkpt lat="51.602146" lon="03.850953"><ele>2.6</ele><time>2022-11-16T11:32:32Z</time><name>PT1980</name></trkpt>
<trkpt lat="51.602169" lon="03.850949"><ele>2.6</ele><time>2022-11-16T11:32:33Z</time><name>PT1981</name></trkpt>
<trkpt lat="51.602182" lon="03.850944"><ele>2.3</ele><time>2022-11-16T11:32:34Z</time><name>PT1982</name></trkpt>
<trkpt lat="51.602193" lon="03.850931"><ele>2.4</ele><time>2022-11-16T11:32:35Z</time><name>PT1983</name></trkpt>
<trkpt lat="51.602205" lon="03.850919"><ele>2.3</ele><time>2022-11-16T11:32:36Z</time><name>PT1984</name></trkpt>
<trkpt lat="51.602213" lon="03.850911"><ele>2.4</ele><time>2022-11-16T11:32:37Z</time><name>PT1985</name></trkpt>
<trkpt lat="51.602216" lon="03.850898"><ele>2.1</ele><time>2022-11-16T11:32:38Z</time><name>PT1986</name></trkpt>
<trkpt lat="51.602222" lon="03.850885"><ele>2.1</ele><time>2022-11-16T11:32:39Z</time><name>PT1987</name></trkpt>
<trkpt lat="51.602227" lon="03.850877"><ele>2.1</ele><time>2022-11-16T11:32:40Z</time><name>PT1988</name></trkpt>
<trkpt lat="51.602231" lon="03.850870"><ele>2.1</ele><time>2022-11-16T11:32:41Z</time><name>PT1989</name></trkpt>
<trkpt lat="51.602237" lon="03.850868"><ele>2.1</ele><time>2022-11-16T11:32:42Z</time><name>PT1990</name></trkpt>
<trkpt lat="51.602244" lon="03.850863"><ele>2.1</ele><time>2022-11-16T11:32:43Z</time><name>PT1991</name></trkpt>
<trkpt lat="51.602250" lon="03.850859"><ele>1.9</ele><time>2022-11-16T11:32:44Z</time><name>PT1992</name></trkpt>
<trkpt lat="51.602258" lon="03.850852"><ele>1.7</ele><time>2022-11-16T11:32:45Z</time><name>PT1993</name></trkpt>
<trkpt lat="51.602272" lon="03.850845"><ele>1.9</ele><time>2022-11-16T11:32:46Z</time><name>PT1994</name></trkpt>
<trkpt lat="51.602283" lon="03.850835"><ele>2</ele><time>2022-11-16T11:32:47Z</time><name>PT1995</name></trkpt>
<trkpt lat="51.602293" lon="03.850822"><ele>2.1</ele><time>2022-11-16T11:32:48Z</time><name>PT1996</name></trkpt>
<trkpt lat="51.602298" lon="03.850805"><ele>2.1</ele><time>2022-11-16T11:32:49Z</time><name>PT1997</name></trkpt>
<trkpt lat="51.602300" lon="03.850792"><ele>2.1</ele><time>2022-11-16T11:32:50Z</time><name>PT1998</name></trkpt>
<trkpt lat="51.602300" lon="03.850781"><ele>2</ele><time>2022-11-16T11:32:52Z</time><name>PT1999</name></trkpt>
<trkpt lat="51.602300" lon="03.850769"><ele>2</ele><time>2022-11-16T11:32:52Z</time><name>PT2000</name></trkpt>
<trkpt lat="51.602303" lon="03.850758"><ele>2</ele><time>2022-11-16T11:32:53Z</time><name>PT2001</name></trkpt>
<trkpt lat="51.602302" lon="03.850741"><ele>2</ele><time>2022-11-16T11:32:54Z</time><name>PT2002</name></trkpt>
<trkpt lat="51.602303" lon="03.850718"><ele>1.9</ele><time>2022-11-16T11:32:55Z</time><name>PT2003</name></trkpt>
<trkpt lat="51.602304" lon="03.850697"><ele>1.8</ele><time>2022-11-16T11:32:56Z</time><name>PT2004</name></trkpt>
<trkpt lat="51.602297" lon="03.850673"><ele>1.7</ele><time>2022-11-16T11:32:57Z</time><name>PT2005</name></trkpt>
<trkpt lat="51.602293" lon="03.850656"><ele>1.8</ele><time>2022-11-16T11:32:58Z</time><name>PT2006</name></trkpt>
<trkpt lat="51.602285" lon="03.850643"><ele>1.6</ele><time>2022-11-16T11:32:59Z</time><name>PT2007</name></trkpt>
<trkpt lat="51.602281" lon="03.850631"><ele>1.6</ele><time>2022-11-16T11:33:00Z</time><name>PT2008</name></trkpt>
<trkpt lat="51.602280" lon="03.850622"><ele>1.6</ele><time>2022-11-16T11:33:01Z</time><name>PT2009</name></trkpt>
<trkpt lat="51.602278" lon="03.850610"><ele>1.6</ele><time>2022-11-16T11:33:02Z</time><name>PT2010</name></trkpt>
<trkpt lat="51.602275" lon="03.850599"><ele>1.6</ele><time>2022-11-16T11:33:03Z</time><name>PT2011</name></trkpt>
<trkpt lat="51.602269" lon="03.850579"><ele>1.7</ele><time>2022-11-16T11:33:04Z</time><name>PT2012</name></trkpt>
<trkpt lat="51.602264" lon="03.850555"><ele>1.8</ele><time>2022-11-16T11:33:05Z</time><name>PT2013</name></trkpt>
<trkpt lat="51.602256" lon="03.850532"><ele>2</ele><time>2022-11-16T11:33:06Z</time><name>PT2014</name></trkpt>
<trkpt lat="51.602249" lon="03.850512"><ele>2.1</ele><time>2022-11-16T11:33:07Z</time><name>PT2015</name></trkpt>
<trkpt lat="51.602244" lon="03.850493"><ele>2.3</ele><time>2022-11-16T11:33:08Z</time><name>PT2016</name></trkpt>
<trkpt lat="51.602239" lon="03.850477"><ele>2.4</ele><time>2022-11-16T11:33:09Z</time><name>PT2017</name></trkpt>
<trkpt lat="51.602235" lon="03.850465"><ele>2.4</ele><time>2022-11-16T11:33:10Z</time><name>PT2018</name></trkpt>
<trkpt lat="51.602232" lon="03.850452"><ele>2.5</ele><time>2022-11-16T11:33:11Z</time><name>PT2019</name></trkpt>
<trkpt lat="51.602231" lon="03.850439"><ele>2.3</ele><time>2022-11-16T11:33:12Z</time><name>PT2020</name></trkpt>
<trkpt lat="51.602228" lon="03.850430"><ele>2.3</ele><time>2022-11-16T11:33:13Z</time><name>PT2021</name></trkpt>
<trkpt lat="51.602229" lon="03.850416"><ele>2.1</ele><time>2022-11-16T11:33:14Z</time><name>PT2022</name></trkpt>
<trkpt lat="51.602231" lon="03.850401"><ele>1.7</ele><time>2022-11-16T11:33:16Z</time><name>PT2023</name></trkpt>
<trkpt lat="51.602233" lon="03.850382"><ele>1.6</ele><time>2022-11-16T11:33:16Z</time><name>PT2024</name></trkpt>
<trkpt lat="51.602233" lon="03.850359"><ele>1.5</ele><time>2022-11-16T11:33:17Z</time><name>PT2025</name></trkpt>
<trkpt lat="51.602232" lon="03.850335"><ele>1.3</ele><time>2022-11-16T11:33:18Z</time><name>PT2026</name></trkpt>
<trkpt lat="51.602232" lon="03.850311"><ele>1.6</ele><time>2022-11-16T11:33:19Z</time><name>PT2027</name></trkpt>
<trkpt lat="51.602234" lon="03.850290"><ele>1.7</ele><time>2022-11-16T11:33:20Z</time><name>PT2028</name></trkpt>
<trkpt lat="51.602233" lon="03.850274"><ele>1.9</ele><time>2022-11-16T11:33:21Z</time><name>PT2029</name></trkpt>
<trkpt lat="51.602234" lon="03.850261"><ele>1.8</ele><time>2022-11-16T11:33:22Z</time><name>PT2030</name></trkpt>
<trkpt lat="51.602235" lon="03.850251"><ele>2</ele><time>2022-11-16T11:33:23Z</time><name>PT2031</name></trkpt>
<trkpt lat="51.602235" lon="03.850241"><ele>2</ele><time>2022-11-16T11:33:24Z</time><name>PT2032</name></trkpt>
<trkpt lat="51.602236" lon="03.850228"><ele>2</ele><time>2022-11-16T11:33:25Z</time><name>PT2033</name></trkpt>
<trkpt lat="51.602237" lon="03.850213"><ele>2.4</ele><time>2022-11-16T11:33:26Z</time><name>PT2034</name></trkpt>
<trkpt lat="51.602243" lon="03.850192"><ele>2.6</ele><time>2022-11-16T11:33:28Z</time><name>PT2035</name></trkpt>
<trkpt lat="51.602247" lon="03.850169"><ele>2.6</ele><time>2022-11-16T11:33:28Z</time><name>PT2036</name></trkpt>
<trkpt lat="51.602249" lon="03.850146"><ele>2.6</ele><time>2022-11-16T11:33:29Z</time><name>PT2037</name></trkpt>
<trkpt lat="51.602249" lon="03.850128"><ele>2.7</ele><time>2022-11-16T11:33:30Z</time><name>PT2038</name></trkpt>
<trkpt lat="51.602248" lon="03.850111"><ele>2.6</ele><time>2022-11-16T11:33:31Z</time><name>PT2039</name></trkpt>
<trkpt lat="51.602249" lon="03.850096"><ele>2.6</ele><time>2022-11-16T11:33:32Z</time><name>PT2040</name></trkpt>
<trkpt lat="51.602249" lon="03.850085"><ele>2.6</ele><time>2022-11-16T11:33:33Z</time><name>PT2041</name></trkpt>
<trkpt lat="51.602248" lon="03.850074"><ele>2.7</ele><time>2022-11-16T11:33:34Z</time><name>PT2042</name></trkpt>
<trkpt lat="51.602249" lon="03.850059"><ele>2.7</ele><time>2022-11-16T11:33:35Z</time><name>PT2043</name></trkpt>
<trkpt lat="51.602250" lon="03.850043"><ele>2.6</ele><time>2022-11-16T11:33:36Z</time><name>PT2044</name></trkpt>
<trkpt lat="51.602253" lon="03.850023"><ele>2.7</ele><time>2022-11-16T11:33:37Z</time><name>PT2045</name></trkpt>
<trkpt lat="51.602254" lon="03.850000"><ele>2.8</ele><time>2022-11-16T11:33:38Z</time><name>PT2046</name></trkpt>
<trkpt lat="51.602255" lon="03.849976"><ele>2.6</ele><time>2022-11-16T11:33:39Z</time><name>PT2047</name></trkpt>
<trkpt lat="51.602254" lon="03.849954"><ele>2.5</ele><time>2022-11-16T11:33:40Z</time><name>PT2048</name></trkpt>
<trkpt lat="51.602254" lon="03.849941"><ele>2.6</ele><time>2022-11-16T11:33:41Z</time><name>PT2049</name></trkpt>
<trkpt lat="51.602255" lon="03.849928"><ele>2.5</ele><time>2022-11-16T11:33:42Z</time><name>PT2050</name></trkpt>
<trkpt lat="51.602257" lon="03.849918"><ele>2.6</ele><time>2022-11-16T11:33:43Z</time><name>PT2051</name></trkpt>
<trkpt lat="51.602258" lon="03.849906"><ele>2.6</ele><time>2022-11-16T11:33:44Z</time><name>PT2052</name></trkpt>
<trkpt lat="51.602262" lon="03.849888"><ele>2.7</ele><time>2022-11-16T11:33:45Z</time><name>PT2053</name></trkpt>
<trkpt lat="51.602264" lon="03.849865"><ele>2.7</ele><time>2022-11-16T11:33:46Z</time><name>PT2054</name></trkpt>
<trkpt lat="51.602266" lon="03.849840"><ele>2.8</ele><time>2022-11-16T11:33:47Z</time><name>PT2055</name></trkpt>
<trkpt lat="51.602266" lon="03.849811"><ele>2.7</ele><time>2022-11-16T11:33:48Z</time><name>PT2056</name></trkpt>
<trkpt lat="51.602272" lon="03.849790"><ele>2.6</ele><time>2022-11-16T11:33:49Z</time><name>PT2057</name></trkpt>
<trkpt lat="51.602277" lon="03.849772"><ele>2.6</ele><time>2022-11-16T11:33:50Z</time><name>PT2058</name></trkpt>
<trkpt lat="51.602280" lon="03.849754"><ele>2.6</ele><time>2022-11-16T11:33:51Z</time><name>PT2059</name></trkpt>
<trkpt lat="51.602282" lon="03.849738"><ele>2.4</ele><time>2022-11-16T11:33:52Z</time><name>PT2060</name></trkpt>
<trkpt lat="51.602286" lon="03.849722"><ele>2.4</ele><time>2022-11-16T11:33:53Z</time><name>PT2061</name></trkpt>
<trkpt lat="51.602288" lon="03.849705"><ele>2.5</ele><time>2022-11-16T11:33:54Z</time><name>PT2062</name></trkpt>
<trkpt lat="51.602293" lon="03.849691"><ele>2.5</ele><time>2022-11-16T11:33:55Z</time><name>PT2063</name></trkpt>
<trkpt lat="51.602294" lon="03.849674"><ele>2.5</ele><time>2022-11-16T11:33:56Z</time><name>PT2064</name></trkpt>
<trkpt lat="51.602296" lon="03.849660"><ele>2.6</ele><time>2022-11-16T11:33:57Z</time><name>PT2065</name></trkpt>
<trkpt lat="51.602297" lon="03.849646"><ele>2.6</ele><time>2022-11-16T11:33:58Z</time><name>PT2066</name></trkpt>
<trkpt lat="51.602298" lon="03.849630"><ele>2.6</ele><time>2022-11-16T11:33:59Z</time><name>PT2067</name></trkpt>
<trkpt lat="51.602299" lon="03.849614"><ele>2.6</ele><time>2022-11-16T11:34:00Z</time><name>PT2068</name></trkpt>
<trkpt lat="51.602298" lon="03.849601"><ele>2.3</ele><time>2022-11-16T11:34:01Z</time><name>PT2069</name></trkpt>
<trkpt lat="51.602298" lon="03.849591"><ele>2.1</ele><time>2022-11-16T11:34:02Z</time><name>PT2070</name></trkpt>
<trkpt lat="51.602298" lon="03.849581"><ele>1.9</ele><time>2022-11-16T11:34:03Z</time><name>PT2071</name></trkpt>
<trkpt lat="51.602299" lon="03.849572"><ele>1.9</ele><time>2022-11-16T11:34:04Z</time><name>PT2072</name></trkpt>
<trkpt lat="51.602300" lon="03.849560"><ele>1.8</ele><time>2022-11-16T11:34:05Z</time><name>PT2073</name></trkpt>
<trkpt lat="51.602300" lon="03.849545"><ele>2</ele><time>2022-11-16T11:34:06Z</time><name>PT2074</name></trkpt>
<trkpt lat="51.602303" lon="03.849528"><ele>2.1</ele><time>2022-11-16T11:34:07Z</time><name>PT2075</name></trkpt>
<trkpt lat="51.602307" lon="03.849507"><ele>2.1</ele><time>2022-11-16T11:34:08Z</time><name>PT2076</name></trkpt>
<trkpt lat="51.602309" lon="03.849481"><ele>2</ele><time>2022-11-16T11:34:09Z</time><name>PT2077</name></trkpt>
<trkpt lat="51.602313" lon="03.849456"><ele>2</ele><time>2022-11-16T11:34:10Z</time><name>PT2078</name></trkpt>
<trkpt lat="51.602317" lon="03.849434"><ele>1.9</ele><time>2022-11-16T11:34:11Z</time><name>PT2079</name></trkpt>
<trkpt lat="51.602321" lon="03.849413"><ele>1.9</ele><time>2022-11-16T11:34:12Z</time><name>PT2080</name></trkpt>
<trkpt lat="51.602326" lon="03.849395"><ele>2</ele><time>2022-11-16T11:34:13Z</time><name>PT2081</name></trkpt>
<trkpt lat="51.602330" lon="03.849384"><ele>2</ele><time>2022-11-16T11:34:14Z</time><name>PT2082</name></trkpt>
<trkpt lat="51.602332" lon="03.849380"><ele>1.8</ele><time>2022-11-16T11:34:15Z</time><name>PT2083</name></trkpt>
<trkpt lat="51.602331" lon="03.849378"><ele>1.6</ele><time>2022-11-16T11:34:16Z</time><name>PT2084</name></trkpt>
<trkpt lat="51.602330" lon="03.849377"><ele>1.4</ele><time>2022-11-16T11:34:17Z</time><name>PT2085</name></trkpt>
<trkpt lat="51.602330" lon="03.849377"><ele>1.3</ele><time>2022-11-16T11:34:19Z</time><name>PT2086</name></trkpt>
<trkpt lat="51.602330" lon="03.849377"><ele>1.6</ele><time>2022-11-16T11:34:19Z</time><name>PT2087</name></trkpt>
<trkpt lat="51.602328" lon="03.849373"><ele>2.4</ele><time>2022-11-16T11:34:24Z</time><name>PT2088</name></trkpt>
<trkpt lat="51.602328" lon="03.849366"><ele>2.5</ele><time>2022-11-16T11:34:25Z</time><name>PT2089</name></trkpt>
<trkpt lat="51.602328" lon="03.849360"><ele>2.5</ele><time>2022-11-16T11:34:26Z</time><name>PT2090</name></trkpt>
<trkpt lat="51.602325" lon="03.849341"><ele>2.6</ele><time>2022-11-16T11:34:28Z</time><name>PT2091</name></trkpt>
<trkpt lat="51.602321" lon="03.849319"><ele>2.6</ele><time>2022-11-16T11:34:29Z</time><name>PT2092</name></trkpt>
<trkpt lat="51.602319" lon="03.849300"><ele>2.6</ele><time>2022-11-16T11:34:30Z</time><name>PT2093</name></trkpt>
<trkpt lat="51.602318" lon="03.849284"><ele>2.4</ele><time>2022-11-16T11:34:31Z</time><name>PT2094</name></trkpt>
<trkpt lat="51.602317" lon="03.849271"><ele>2.5</ele><time>2022-11-16T11:34:32Z</time><name>PT2095</name></trkpt>
<trkpt lat="51.602318" lon="03.849251"><ele>2.6</ele><time>2022-11-16T11:34:33Z</time><name>PT2096</name></trkpt>
<trkpt lat="51.602321" lon="03.849224"><ele>2.6</ele><time>2022-11-16T11:34:34Z</time><name>PT2097</name></trkpt>
<trkpt lat="51.602324" lon="03.849203"><ele>3.1</ele><time>2022-11-16T11:34:35Z</time><name>PT2098</name></trkpt>
<trkpt lat="51.602324" lon="03.849180"><ele>3.7</ele><time>2022-11-16T11:34:36Z</time><name>PT2099</name></trkpt>
<trkpt lat="51.602323" lon="03.849159"><ele>3.7</ele><time>2022-11-16T11:34:37Z</time><name>PT2100</name></trkpt>
<trkpt lat="51.602323" lon="03.849141"><ele>3.9</ele><time>2022-11-16T11:34:38Z</time><name>PT2101</name></trkpt>
<trkpt lat="51.602323" lon="03.849126"><ele>4</ele><time>2022-11-16T11:34:39Z</time><name>PT2102</name></trkpt>
<trkpt lat="51.602322" lon="03.849113"><ele>3.7</ele><time>2022-11-16T11:34:40Z</time><name>PT2103</name></trkpt>
<trkpt lat="51.602322" lon="03.849099"><ele>3.5</ele><time>2022-11-16T11:34:41Z</time><name>PT2104</name></trkpt>
<trkpt lat="51.602322" lon="03.849085"><ele>3.6</ele><time>2022-11-16T11:34:42Z</time><name>PT2105</name></trkpt>
<trkpt lat="51.602324" lon="03.849069"><ele>3.6</ele><time>2022-11-16T11:34:43Z</time><name>PT2106</name></trkpt>
<trkpt lat="51.602325" lon="03.849053"><ele>3.7</ele><time>2022-11-16T11:34:44Z</time><name>PT2107</name></trkpt>
<trkpt lat="51.602327" lon="03.849036"><ele>3.7</ele><time>2022-11-16T11:34:46Z</time><name>PT2108</name></trkpt>
<trkpt lat="51.602328" lon="03.849012"><ele>3.7</ele><time>2022-11-16T11:34:46Z</time><name>PT2109</name></trkpt>
<trkpt lat="51.602326" lon="03.848987"><ele>3.4</ele><time>2022-11-16T11:34:47Z</time><name>PT2110</name></trkpt>
<trkpt lat="51.602322" lon="03.848962"><ele>3</ele><time>2022-11-16T11:34:48Z</time><name>PT2111</name></trkpt>
<trkpt lat="51.602319" lon="03.848945"><ele>2.7</ele><time>2022-11-16T11:34:49Z</time><name>PT2112</name></trkpt>
<trkpt lat="51.602319" lon="03.848932"><ele>2.6</ele><time>2022-11-16T11:34:50Z</time><name>PT2113</name></trkpt>
<trkpt lat="51.602320" lon="03.848923"><ele>2.9</ele><time>2022-11-16T11:34:51Z</time><name>PT2114</name></trkpt>
<trkpt lat="51.602322" lon="03.848912"><ele>3</ele><time>2022-11-16T11:34:52Z</time><name>PT2115</name></trkpt>
<trkpt lat="51.602322" lon="03.848897"><ele>3.2</ele><time>2022-11-16T11:34:53Z</time><name>PT2116</name></trkpt>
<trkpt lat="51.602326" lon="03.848878"><ele>3.4</ele><time>2022-11-16T11:34:55Z</time><name>PT2117</name></trkpt>
<trkpt lat="51.602325" lon="03.848856"><ele>3.5</ele><time>2022-11-16T11:34:55Z</time><name>PT2118</name></trkpt>
<trkpt lat="51.602328" lon="03.848832"><ele>3.5</ele><time>2022-11-16T11:34:56Z</time><name>PT2119</name></trkpt>
<trkpt lat="51.602327" lon="03.848811"><ele>3.3</ele><time>2022-11-16T11:34:57Z</time><name>PT2120</name></trkpt>
<trkpt lat="51.602325" lon="03.848793"><ele>3.5</ele><time>2022-11-16T11:34:58Z</time><name>PT2121</name></trkpt>
<trkpt lat="51.602323" lon="03.848780"><ele>3.6</ele><time>2022-11-16T11:34:59Z</time><name>PT2122</name></trkpt>
<trkpt lat="51.602322" lon="03.848767"><ele>3.7</ele><time>2022-11-16T11:35:01Z</time><name>PT2123</name></trkpt>
<trkpt lat="51.602323" lon="03.848757"><ele>3.8</ele><time>2022-11-16T11:35:01Z</time><name>PT2124</name></trkpt>
<trkpt lat="51.602325" lon="03.848744"><ele>3.5</ele><time>2022-11-16T11:35:02Z</time><name>PT2125</name></trkpt>
<trkpt lat="51.602329" lon="03.848727"><ele>3.4</ele><time>2022-11-16T11:35:03Z</time><name>PT2126</name></trkpt>
<trkpt lat="51.602333" lon="03.848705"><ele>3.3</ele><time>2022-11-16T11:35:04Z</time><name>PT2127</name></trkpt>
<trkpt lat="51.602334" lon="03.848679"><ele>3</ele><time>2022-11-16T11:35:05Z</time><name>PT2128</name></trkpt>
<trkpt lat="51.602332" lon="03.848657"><ele>2.8</ele><time>2022-11-16T11:35:06Z</time><name>PT2129</name></trkpt>
<trkpt lat="51.602331" lon="03.848638"><ele>2.9</ele><time>2022-11-16T11:35:07Z</time><name>PT2130</name></trkpt>
<trkpt lat="51.602329" lon="03.848620"><ele>2.8</ele><time>2022-11-16T11:35:08Z</time><name>PT2131</name></trkpt>
<trkpt lat="51.602329" lon="03.848606"><ele>2.6</ele><time>2022-11-16T11:35:09Z</time><name>PT2132</name></trkpt>
<trkpt lat="51.602327" lon="03.848597"><ele>2.6</ele><time>2022-11-16T11:35:10Z</time><name>PT2133</name></trkpt>
<trkpt lat="51.602325" lon="03.848584"><ele>2.3</ele><time>2022-11-16T11:35:11Z</time><name>PT2134</name></trkpt>
<trkpt lat="51.602327" lon="03.848570"><ele>2.3</ele><time>2022-11-16T11:35:12Z</time><name>PT2135</name></trkpt>
<trkpt lat="51.602328" lon="03.848550"><ele>2.3</ele><time>2022-11-16T11:35:13Z</time><name>PT2136</name></trkpt>
<trkpt lat="51.602329" lon="03.848528"><ele>2.4</ele><time>2022-11-16T11:35:14Z</time><name>PT2137</name></trkpt>
<trkpt lat="51.602328" lon="03.848504"><ele>2.5</ele><time>2022-11-16T11:35:15Z</time><name>PT2138</name></trkpt>
<trkpt lat="51.602328" lon="03.848479"><ele>2.5</ele><time>2022-11-16T11:35:16Z</time><name>PT2139</name></trkpt>
<trkpt lat="51.602327" lon="03.848456"><ele>2.6</ele><time>2022-11-16T11:35:17Z</time><name>PT2140</name></trkpt>
<trkpt lat="51.602327" lon="03.848439"><ele>2.6</ele><time>2022-11-16T11:35:18Z</time><name>PT2141</name></trkpt>
<trkpt lat="51.602326" lon="03.848425"><ele>2.5</ele><time>2022-11-16T11:35:19Z</time><name>PT2142</name></trkpt>
<trkpt lat="51.602325" lon="03.848412"><ele>2.5</ele><time>2022-11-16T11:35:20Z</time><name>PT2143</name></trkpt>
<trkpt lat="51.602325" lon="03.848400"><ele>2.5</ele><time>2022-11-16T11:35:21Z</time><name>PT2144</name></trkpt>
<trkpt lat="51.602325" lon="03.848389"><ele>2.6</ele><time>2022-11-16T11:35:22Z</time><name>PT2145</name></trkpt>
<trkpt lat="51.602325" lon="03.848378"><ele>2.4</ele><time>2022-11-16T11:35:23Z</time><name>PT2146</name></trkpt>
<trkpt lat="51.602329" lon="03.848363"><ele>2.4</ele><time>2022-11-16T11:35:25Z</time><name>PT2147</name></trkpt>
<trkpt lat="51.602334" lon="03.848338"><ele>2.6</ele><time>2022-11-16T11:35:25Z</time><name>PT2148</name></trkpt>
<trkpt lat="51.602337" lon="03.848319"><ele>2.6</ele><time>2022-11-16T11:35:26Z</time><name>PT2149</name></trkpt>
<trkpt lat="51.602339" lon="03.848298"><ele>2.7</ele><time>2022-11-16T11:35:27Z</time><name>PT2150</name></trkpt>
<trkpt lat="51.602341" lon="03.848269"><ele>2.7</ele><time>2022-11-16T11:35:28Z</time><name>PT2151</name></trkpt>
<trkpt lat="51.602342" lon="03.848245"><ele>2.8</ele><time>2022-11-16T11:35:29Z</time><name>PT2152</name></trkpt>
<trkpt lat="51.602340" lon="03.848222"><ele>2.7</ele><time>2022-11-16T11:35:30Z</time><name>PT2153</name></trkpt>
<trkpt lat="51.602339" lon="03.848202"><ele>2.6</ele><time>2022-11-16T11:35:31Z</time><name>PT2154</name></trkpt>
<trkpt lat="51.602338" lon="03.848184"><ele>2.6</ele><time>2022-11-16T11:35:32Z</time><name>PT2155</name></trkpt>
<trkpt lat="51.602338" lon="03.848169"><ele>2.7</ele><time>2022-11-16T11:35:33Z</time><name>PT2156</name></trkpt>
<trkpt lat="51.602338" lon="03.848156"><ele>2.7</ele><time>2022-11-16T11:35:34Z</time><name>PT2157</name></trkpt>
<trkpt lat="51.602338" lon="03.848144"><ele>2.6</ele><time>2022-11-16T11:35:35Z</time><name>PT2158</name></trkpt>
<trkpt lat="51.602340" lon="03.848130"><ele>2.6</ele><time>2022-11-16T11:35:36Z</time><name>PT2159</name></trkpt>
<trkpt lat="51.602341" lon="03.848117"><ele>2.6</ele><time>2022-11-16T11:35:37Z</time><name>PT2160</name></trkpt>
<trkpt lat="51.602342" lon="03.848104"><ele>2.6</ele><time>2022-11-16T11:35:38Z</time><name>PT2161</name></trkpt>
<trkpt lat="51.602345" lon="03.848090"><ele>2.4</ele><time>2022-11-16T11:35:39Z</time><name>PT2162</name></trkpt>
<trkpt lat="51.602348" lon="03.848073"><ele>2.5</ele><time>2022-11-16T11:35:40Z</time><name>PT2163</name></trkpt>
<trkpt lat="51.602352" lon="03.848053"><ele>2.6</ele><time>2022-11-16T11:35:41Z</time><name>PT2164</name></trkpt>
<trkpt lat="51.602353" lon="03.848030"><ele>2.5</ele><time>2022-11-16T11:35:42Z</time><name>PT2165</name></trkpt>
<trkpt lat="51.602354" lon="03.848006"><ele>2.5</ele><time>2022-11-16T11:35:43Z</time><name>PT2166</name></trkpt>
<trkpt lat="51.602355" lon="03.847983"><ele>2.5</ele><time>2022-11-16T11:35:44Z</time><name>PT2167</name></trkpt>
<trkpt lat="51.602354" lon="03.847960"><ele>2.5</ele><time>2022-11-16T11:35:45Z</time><name>PT2168</name></trkpt>
<trkpt lat="51.602353" lon="03.847939"><ele>2.3</ele><time>2022-11-16T11:35:46Z</time><name>PT2169</name></trkpt>
<trkpt lat="51.602354" lon="03.847919"><ele>2.3</ele><time>2022-11-16T11:35:47Z</time><name>PT2170</name></trkpt>
<trkpt lat="51.602354" lon="03.847904"><ele>2.6</ele><time>2022-11-16T11:35:48Z</time><name>PT2171</name></trkpt>
<trkpt lat="51.602354" lon="03.847893"><ele>2.6</ele><time>2022-11-16T11:35:49Z</time><name>PT2172</name></trkpt>
<trkpt lat="51.602355" lon="03.847883"><ele>2.3</ele><time>2022-11-16T11:35:50Z</time><name>PT2173</name></trkpt>
<trkpt lat="51.602355" lon="03.847868"><ele>2.4</ele><time>2022-11-16T11:35:51Z</time><name>PT2174</name></trkpt>
<trkpt lat="51.602357" lon="03.847851"><ele>2.4</ele><time>2022-11-16T11:35:52Z</time><name>PT2175</name></trkpt>
<trkpt lat="51.602359" lon="03.847831"><ele>2.1</ele><time>2022-11-16T11:35:53Z</time><name>PT2176</name></trkpt>
<trkpt lat="51.602359" lon="03.847808"><ele>2.2</ele><time>2022-11-16T11:35:54Z</time><name>PT2177</name></trkpt>
<trkpt lat="51.602361" lon="03.847783"><ele>2.4</ele><time>2022-11-16T11:35:55Z</time><name>PT2178</name></trkpt>
<trkpt lat="51.602362" lon="03.847759"><ele>2.5</ele><time>2022-11-16T11:35:56Z</time><name>PT2179</name></trkpt>
<trkpt lat="51.602362" lon="03.847736"><ele>2.5</ele><time>2022-11-16T11:35:57Z</time><name>PT2180</name></trkpt>
<trkpt lat="51.602362" lon="03.847709"><ele>2.6</ele><time>2022-11-16T11:35:58Z</time><name>PT2181</name></trkpt>
<trkpt lat="51.602363" lon="03.847683"><ele>2.7</ele><time>2022-11-16T11:35:59Z</time><name>PT2182</name></trkpt>
<trkpt lat="51.602363" lon="03.847657"><ele>2.6</ele><time>2022-11-16T11:36:00Z</time><name>PT2183</name></trkpt>
<trkpt lat="51.602362" lon="03.847639"><ele>2.5</ele><time>2022-11-16T11:36:01Z</time><name>PT2184</name></trkpt>
<trkpt lat="51.602362" lon="03.847622"><ele>2.5</ele><time>2022-11-16T11:36:02Z</time><name>PT2185</name></trkpt>
<trkpt lat="51.602362" lon="03.847607"><ele>2.3</ele><time>2022-11-16T11:36:03Z</time><name>PT2186</name></trkpt>
<trkpt lat="51.602362" lon="03.847594"><ele>2.2</ele><time>2022-11-16T11:36:04Z</time><name>PT2187</name></trkpt>
<trkpt lat="51.602363" lon="03.847581"><ele>2.2</ele><time>2022-11-16T11:36:05Z</time><name>PT2188</name></trkpt>
<trkpt lat="51.602364" lon="03.847569"><ele>2.4</ele><time>2022-11-16T11:36:06Z</time><name>PT2189</name></trkpt>
<trkpt lat="51.602364" lon="03.847554"><ele>2.4</ele><time>2022-11-16T11:36:07Z</time><name>PT2190</name></trkpt>
<trkpt lat="51.602365" lon="03.847539"><ele>2.6</ele><time>2022-11-16T11:36:08Z</time><name>PT2191</name></trkpt>
<trkpt lat="51.602367" lon="03.847524"><ele>2.7</ele><time>2022-11-16T11:36:09Z</time><name>PT2192</name></trkpt>
<trkpt lat="51.602370" lon="03.847509"><ele>2.7</ele><time>2022-11-16T11:36:10Z</time><name>PT2193</name></trkpt>
<trkpt lat="51.602374" lon="03.847493"><ele>2.7</ele><time>2022-11-16T11:36:11Z</time><name>PT2194</name></trkpt>
<trkpt lat="51.602376" lon="03.847473"><ele>2.8</ele><time>2022-11-16T11:36:13Z</time><name>PT2195</name></trkpt>
<trkpt lat="51.602376" lon="03.847448"><ele>2.7</ele><time>2022-11-16T11:36:13Z</time><name>PT2196</name></trkpt>
<trkpt lat="51.602376" lon="03.847423"><ele>2.7</ele><time>2022-11-16T11:36:14Z</time><name>PT2197</name></trkpt>
<trkpt lat="51.602377" lon="03.847398"><ele>2.7</ele><time>2022-11-16T11:36:15Z</time><name>PT2198</name></trkpt>
<trkpt lat="51.602377" lon="03.847378"><ele>2.6</ele><time>2022-11-16T11:36:16Z</time><name>PT2199</name></trkpt>
<trkpt lat="51.602375" lon="03.847363"><ele>2.6</ele><time>2022-11-16T11:36:17Z</time><name>PT2200</name></trkpt>
<trkpt lat="51.602374" lon="03.847348"><ele>2.8</ele><time>2022-11-16T11:36:18Z</time><name>PT2201</name></trkpt>
<trkpt lat="51.602374" lon="03.847333"><ele>2.9</ele><time>2022-11-16T11:36:19Z</time><name>PT2202</name></trkpt>
<trkpt lat="51.602373" lon="03.847319"><ele>2.9</ele><time>2022-11-16T11:36:20Z</time><name>PT2203</name></trkpt>
<trkpt lat="51.602373" lon="03.847306"><ele>2.9</ele><time>2022-11-16T11:36:21Z</time><name>PT2204</name></trkpt>
<trkpt lat="51.602374" lon="03.847293"><ele>2.9</ele><time>2022-11-16T11:36:22Z</time><name>PT2205</name></trkpt>
<trkpt lat="51.602373" lon="03.847278"><ele>2.8</ele><time>2022-11-16T11:36:23Z</time><name>PT2206</name></trkpt>
<trkpt lat="51.602375" lon="03.847262"><ele>2.7</ele><time>2022-11-16T11:36:24Z</time><name>PT2207</name></trkpt>
<trkpt lat="51.602377" lon="03.847242"><ele>2.6</ele><time>2022-11-16T11:36:25Z</time><name>PT2208</name></trkpt>
<trkpt lat="51.602379" lon="03.847222"><ele>2.6</ele><time>2022-11-16T11:36:26Z</time><name>PT2209</name></trkpt>
<trkpt lat="51.602378" lon="03.847197"><ele>2.6</ele><time>2022-11-16T11:36:27Z</time><name>PT2210</name></trkpt>
<trkpt lat="51.602377" lon="03.847176"><ele>2.7</ele><time>2022-11-16T11:36:28Z</time><name>PT2211</name></trkpt>
<trkpt lat="51.602379" lon="03.847152"><ele>2.7</ele><time>2022-11-16T11:36:29Z</time><name>PT2212</name></trkpt>
<trkpt lat="51.602379" lon="03.847130"><ele>2.8</ele><time>2022-11-16T11:36:30Z</time><name>PT2213</name></trkpt>
<trkpt lat="51.602379" lon="03.847113"><ele>2.8</ele><time>2022-11-16T11:36:31Z</time><name>PT2214</name></trkpt>
<trkpt lat="51.602379" lon="03.847101"><ele>2.8</ele><time>2022-11-16T11:36:32Z</time><name>PT2215</name></trkpt>
<trkpt lat="51.602378" lon="03.847088"><ele>2.9</ele><time>2022-11-16T11:36:33Z</time><name>PT2216</name></trkpt>
<trkpt lat="51.602378" lon="03.847074"><ele>2.9</ele><time>2022-11-16T11:36:34Z</time><name>PT2217</name></trkpt>
<trkpt lat="51.602379" lon="03.847062"><ele>2.8</ele><time>2022-11-16T11:36:35Z</time><name>PT2218</name></trkpt>
<trkpt lat="51.602378" lon="03.847051"><ele>2.8</ele><time>2022-11-16T11:36:36Z</time><name>PT2219</name></trkpt>
<trkpt lat="51.602378" lon="03.847041"><ele>2.8</ele><time>2022-11-16T11:36:37Z</time><name>PT2220</name></trkpt>
<trkpt lat="51.602379" lon="03.847028"><ele>2.8</ele><time>2022-11-16T11:36:38Z</time><name>PT2221</name></trkpt>
<trkpt lat="51.602380" lon="03.847007"><ele>3</ele><time>2022-11-16T11:36:39Z</time><name>PT2222</name></trkpt>
<trkpt lat="51.602381" lon="03.846980"><ele>3</ele><time>2022-11-16T11:36:40Z</time><name>PT2223</name></trkpt>
<trkpt lat="51.602384" lon="03.846956"><ele>3</ele><time>2022-11-16T11:36:41Z</time><name>PT2224</name></trkpt>
<trkpt lat="51.602386" lon="03.846932"><ele>2.9</ele><time>2022-11-16T11:36:43Z</time><name>PT2225</name></trkpt>
<trkpt lat="51.602385" lon="03.846909"><ele>2.9</ele><time>2022-11-16T11:36:43Z</time><name>PT2226</name></trkpt>
<trkpt lat="51.602382" lon="03.846890"><ele>2.8</ele><time>2022-11-16T11:36:44Z</time><name>PT2227</name></trkpt>
<trkpt lat="51.602383" lon="03.846869"><ele>2.8</ele><time>2022-11-16T11:36:45Z</time><name>PT2228</name></trkpt>
<trkpt lat="51.602382" lon="03.846850"><ele>2.8</ele><time>2022-11-16T11:36:46Z</time><name>PT2229</name></trkpt>
<trkpt lat="51.602382" lon="03.846837"><ele>2.7</ele><time>2022-11-16T11:36:47Z</time><name>PT2230</name></trkpt>
<trkpt lat="51.602383" lon="03.846828"><ele>2.6</ele><time>2022-11-16T11:36:48Z</time><name>PT2231</name></trkpt>
<trkpt lat="51.602384" lon="03.846820"><ele>2.7</ele><time>2022-11-16T11:36:49Z</time><name>PT2232</name></trkpt>
<trkpt lat="51.602386" lon="03.846807"><ele>2.8</ele><time>2022-11-16T11:36:50Z</time><name>PT2233</name></trkpt>
<trkpt lat="51.602387" lon="03.846792"><ele>2.9</ele><time>2022-11-16T11:36:51Z</time><name>PT2234</name></trkpt>
<trkpt lat="51.602389" lon="03.846772"><ele>3</ele><time>2022-11-16T11:36:52Z</time><name>PT2235</name></trkpt>
<trkpt lat="51.602390" lon="03.846750"><ele>3</ele><time>2022-11-16T11:36:53Z</time><name>PT2236</name></trkpt>
<trkpt lat="51.602391" lon="03.846728"><ele>2.8</ele><time>2022-11-16T11:36:54Z</time><name>PT2237</name></trkpt>
<trkpt lat="51.602392" lon="03.846707"><ele>2.7</ele><time>2022-11-16T11:36:55Z</time><name>PT2238</name></trkpt>
<trkpt lat="51.602393" lon="03.846687"><ele>2.8</ele><time>2022-11-16T11:36:56Z</time><name>PT2239</name></trkpt>
<trkpt lat="51.602391" lon="03.846669"><ele>2.9</ele><time>2022-11-16T11:36:57Z</time><name>PT2240</name></trkpt>
<trkpt lat="51.602388" lon="03.846654"><ele>2.9</ele><time>2022-11-16T11:36:58Z</time><name>PT2241</name></trkpt>
<trkpt lat="51.602387" lon="03.846641"><ele>3.1</ele><time>2022-11-16T11:36:59Z</time><name>PT2242</name></trkpt>
<trkpt lat="51.602386" lon="03.846628"><ele>3</ele><time>2022-11-16T11:37:00Z</time><name>PT2243</name></trkpt>
<trkpt lat="51.602386" lon="03.846617"><ele>2.9</ele><time>2022-11-16T11:37:01Z</time><name>PT2244</name></trkpt>
<trkpt lat="51.602388" lon="03.846604"><ele>2.9</ele><time>2022-11-16T11:37:02Z</time><name>PT2245</name></trkpt>
<trkpt lat="51.602389" lon="03.846589"><ele>2.8</ele><time>2022-11-16T11:37:03Z</time><name>PT2246</name></trkpt>
<trkpt lat="51.602392" lon="03.846573"><ele>2.7</ele><time>2022-11-16T11:37:04Z</time><name>PT2247</name></trkpt>
<trkpt lat="51.602394" lon="03.846553"><ele>2.7</ele><time>2022-11-16T11:37:05Z</time><name>PT2248</name></trkpt>
<trkpt lat="51.602396" lon="03.846531"><ele>2.7</ele><time>2022-11-16T11:37:06Z</time><name>PT2249</name></trkpt>
<trkpt lat="51.602397" lon="03.846507"><ele>2.7</ele><time>2022-11-16T11:37:07Z</time><name>PT2250</name></trkpt>
<trkpt lat="51.602395" lon="03.846483"><ele>2.7</ele><time>2022-11-16T11:37:08Z</time><name>PT2251</name></trkpt>
<trkpt lat="51.602392" lon="03.846460"><ele>2.7</ele><time>2022-11-16T11:37:09Z</time><name>PT2252</name></trkpt>
<trkpt lat="51.602390" lon="03.846439"><ele>2.9</ele><time>2022-11-16T11:37:10Z</time><name>PT2253</name></trkpt>
<trkpt lat="51.602388" lon="03.846419"><ele>2.9</ele><time>2022-11-16T11:37:11Z</time><name>PT2254</name></trkpt>
<trkpt lat="51.602388" lon="03.846404"><ele>2.9</ele><time>2022-11-16T11:37:12Z</time><name>PT2255</name></trkpt>
<trkpt lat="51.602387" lon="03.846392"><ele>3</ele><time>2022-11-16T11:37:13Z</time><name>PT2256</name></trkpt>
<trkpt lat="51.602386" lon="03.846381"><ele>2.9</ele><time>2022-11-16T11:37:14Z</time><name>PT2257</name></trkpt>
<trkpt lat="51.602383" lon="03.846368"><ele>2.8</ele><time>2022-11-16T11:37:15Z</time><name>PT2258</name></trkpt>
<trkpt lat="51.602383" lon="03.846354"><ele>2.9</ele><time>2022-11-16T11:37:16Z</time><name>PT2259</name></trkpt>
<trkpt lat="51.602383" lon="03.846335"><ele>2.6</ele><time>2022-11-16T11:37:17Z</time><name>PT2260</name></trkpt>
<trkpt lat="51.602383" lon="03.846315"><ele>2.7</ele><time>2022-11-16T11:37:18Z</time><name>PT2261</name></trkpt>
<trkpt lat="51.602384" lon="03.846297"><ele>2.7</ele><time>2022-11-16T11:37:19Z</time><name>PT2262</name></trkpt>
<trkpt lat="51.602384" lon="03.846282"><ele>2.8</ele><time>2022-11-16T11:37:20Z</time><name>PT2263</name></trkpt>
<trkpt lat="51.602380" lon="03.846267"><ele>2.9</ele><time>2022-11-16T11:37:21Z</time><name>PT2264</name></trkpt>
<trkpt lat="51.602374" lon="03.846258"><ele>3</ele><time>2022-11-16T11:37:22Z</time><name>PT2265</name></trkpt>
<trkpt lat="51.602372" lon="03.846253"><ele>2.9</ele><time>2022-11-16T11:37:23Z</time><name>PT2266</name></trkpt>
<trkpt lat="51.602370" lon="03.846246"><ele>3.1</ele><time>2022-11-16T11:37:24Z</time><name>PT2267</name></trkpt>
<trkpt lat="51.602369" lon="03.846233"><ele>3</ele><time>2022-11-16T11:37:25Z</time><name>PT2268</name></trkpt>
<trkpt lat="51.602367" lon="03.846214"><ele>3</ele><time>2022-11-16T11:37:26Z</time><name>PT2269</name></trkpt>
<trkpt lat="51.602363" lon="03.846193"><ele>3</ele><time>2022-11-16T11:37:27Z</time><name>PT2270</name></trkpt>
<trkpt lat="51.602359" lon="03.846180"><ele>3</ele><time>2022-11-16T11:37:28Z</time><name>PT2271</name></trkpt>
<trkpt lat="51.602355" lon="03.846169"><ele>2.7</ele><time>2022-11-16T11:37:29Z</time><name>PT2272</name></trkpt>
<trkpt lat="51.602351" lon="03.846161"><ele>2.8</ele><time>2022-11-16T11:37:30Z</time><name>PT2273</name></trkpt>
<trkpt lat="51.602348" lon="03.846151"><ele>2.8</ele><time>2022-11-16T11:37:31Z</time><name>PT2274</name></trkpt>
<trkpt lat="51.602344" lon="03.846138"><ele>3.1</ele><time>2022-11-16T11:37:32Z</time><name>PT2275</name></trkpt>
<trkpt lat="51.602339" lon="03.846119"><ele>3.3</ele><time>2022-11-16T11:37:33Z</time><name>PT2276</name></trkpt>
<trkpt lat="51.602333" lon="03.846104"><ele>3.5</ele><time>2022-11-16T11:37:34Z</time><name>PT2277</name></trkpt>
<trkpt lat="51.602329" lon="03.846100"><ele>3.7</ele><time>2022-11-16T11:37:35Z</time><name>PT2278</name></trkpt>
<trkpt lat="51.602327" lon="03.846095"><ele>3.7</ele><time>2022-11-16T11:37:36Z</time><name>PT2279</name></trkpt>
<trkpt lat="51.602323" lon="03.846086"><ele>3.6</ele><time>2022-11-16T11:37:37Z</time><name>PT2280</name></trkpt>
<trkpt lat="51.602318" lon="03.846073"><ele>3.7</ele><time>2022-11-16T11:37:38Z</time><name>PT2281</name></trkpt>
<trkpt lat="51.602313" lon="03.846054"><ele>3.7</ele><time>2022-11-16T11:37:39Z</time><name>PT2282</name></trkpt>
<trkpt lat="51.602307" lon="03.846037"><ele>3.7</ele><time>2022-11-16T11:37:40Z</time><name>PT2283</name></trkpt>
<trkpt lat="51.602299" lon="03.846024"><ele>3.7</ele><time>2022-11-16T11:37:41Z</time><name>PT2284</name></trkpt>
<trkpt lat="51.602292" lon="03.846012"><ele>3.5</ele><time>2022-11-16T11:37:42Z</time><name>PT2285</name></trkpt>
<trkpt lat="51.602285" lon="03.846001"><ele>3.5</ele><time>2022-11-16T11:37:43Z</time><name>PT2286</name></trkpt>
<trkpt lat="51.602279" lon="03.845989"><ele>3.4</ele><time>2022-11-16T11:37:44Z</time><name>PT2287</name></trkpt>
<trkpt lat="51.602274" lon="03.845976"><ele>3.2</ele><time>2022-11-16T11:37:45Z</time><name>PT2288</name></trkpt>
<trkpt lat="51.602269" lon="03.845964"><ele>3.2</ele><time>2022-11-16T11:37:46Z</time><name>PT2289</name></trkpt>
<trkpt lat="51.602262" lon="03.845947"><ele>3.2</ele><time>2022-11-16T11:37:47Z</time><name>PT2290</name></trkpt>
<trkpt lat="51.602253" lon="03.845928"><ele>3.3</ele><time>2022-11-16T11:37:48Z</time><name>PT2291</name></trkpt>
<trkpt lat="51.602244" lon="03.845912"><ele>3.3</ele><time>2022-11-16T11:37:49Z</time><name>PT2292</name></trkpt>
<trkpt lat="51.602237" lon="03.845897"><ele>3.5</ele><time>2022-11-16T11:37:50Z</time><name>PT2293</name></trkpt>
<trkpt lat="51.602232" lon="03.845887"><ele>3.4</ele><time>2022-11-16T11:37:51Z</time><name>PT2294</name></trkpt>
<trkpt lat="51.602230" lon="03.845875"><ele>3.4</ele><time>2022-11-16T11:37:52Z</time><name>PT2295</name></trkpt>
<trkpt lat="51.602226" lon="03.845859"><ele>3.6</ele><time>2022-11-16T11:37:53Z</time><name>PT2296</name></trkpt>
<trkpt lat="51.602218" lon="03.845843"><ele>3.5</ele><time>2022-11-16T11:37:54Z</time><name>PT2297</name></trkpt>
<trkpt lat="51.602210" lon="03.845825"><ele>3.6</ele><time>2022-11-16T11:37:55Z</time><name>PT2298</name></trkpt>
<trkpt lat="51.602203" lon="03.845814"><ele>3.4</ele><time>2022-11-16T11:37:56Z</time><name>PT2299</name></trkpt>
<trkpt lat="51.602198" lon="03.845806"><ele>3.5</ele><time>2022-11-16T11:37:57Z</time><name>PT2300</name></trkpt>
<trkpt lat="51.602193" lon="03.845798"><ele>3.3</ele><time>2022-11-16T11:37:58Z</time><name>PT2301</name></trkpt>
<trkpt lat="51.602188" lon="03.845787"><ele>3.1</ele><time>2022-11-16T11:37:59Z</time><name>PT2302</name></trkpt>
<trkpt lat="51.602183" lon="03.845768"><ele>2.8</ele><time>2022-11-16T11:38:00Z</time><name>PT2303</name></trkpt>
<trkpt lat="51.602173" lon="03.845752"><ele>2.7</ele><time>2022-11-16T11:38:01Z</time><name>PT2304</name></trkpt>
<trkpt lat="51.602166" lon="03.845739"><ele>2.5</ele><time>2022-11-16T11:38:02Z</time><name>PT2305</name></trkpt>
<trkpt lat="51.602161" lon="03.845732"><ele>2.6</ele><time>2022-11-16T11:38:03Z</time><name>PT2306</name></trkpt>
<trkpt lat="51.602157" lon="03.845725"><ele>2.8</ele><time>2022-11-16T11:38:04Z</time><name>PT2307</name></trkpt>
<trkpt lat="51.602153" lon="03.845712"><ele>2.9</ele><time>2022-11-16T11:38:05Z</time><name>PT2308</name></trkpt>
<trkpt lat="51.602146" lon="03.845699"><ele>2.8</ele><time>2022-11-16T11:38:07Z</time><name>PT2309</name></trkpt>
<trkpt lat="51.602142" lon="03.845686"><ele>3</ele><time>2022-11-16T11:38:07Z</time><name>PT2310</name></trkpt>
<trkpt lat="51.602141" lon="03.845681"><ele>2.8</ele><time>2022-11-16T11:38:08Z</time><name>PT2311</name></trkpt>
<trkpt lat="51.602141" lon="03.845682"><ele>2.9</ele><time>2022-11-16T11:38:09Z</time><name>PT2312</name></trkpt>
<trkpt lat="51.602141" lon="03.845681"><ele>2.7</ele><time>2022-11-16T11:38:10Z</time><name>PT2313</name></trkpt>
<trkpt lat="51.602134" lon="03.845682"><ele>2.9</ele><time>2022-11-16T11:38:12Z</time><name>PT2314</name></trkpt>
<trkpt lat="51.602123" lon="03.845684"><ele>3</ele><time>2022-11-16T11:38:13Z</time><name>PT2315</name></trkpt>
<trkpt lat="51.602115" lon="03.845684"><ele>3</ele><time>2022-11-16T11:38:14Z</time><name>PT2316</name></trkpt>
<trkpt lat="51.602109" lon="03.845682"><ele>3.2</ele><time>2022-11-16T11:38:15Z</time><name>PT2317</name></trkpt>
<trkpt lat="51.602102" lon="03.845676"><ele>3</ele><time>2022-11-16T11:38:16Z</time><name>PT2318</name></trkpt>
<trkpt lat="51.602093" lon="03.845671"><ele>3.1</ele><time>2022-11-16T11:38:17Z</time><name>PT2319</name></trkpt>
<trkpt lat="51.602085" lon="03.845670"><ele>3.1</ele><time>2022-11-16T11:38:18Z</time><name>PT2320</name></trkpt>
<trkpt lat="51.602080" lon="03.845667"><ele>3.2</ele><time>2022-11-16T11:38:19Z</time><name>PT2321</name></trkpt>
<trkpt lat="51.602074" lon="03.845662"><ele>3</ele><time>2022-11-16T11:38:20Z</time><name>PT2322</name></trkpt>
<trkpt lat="51.602066" lon="03.845658"><ele>2.9</ele><time>2022-11-16T11:38:21Z</time><name>PT2323</name></trkpt>
<trkpt lat="51.602059" lon="03.845653"><ele>3</ele><time>2022-11-16T11:38:22Z</time><name>PT2324</name></trkpt>
<trkpt lat="51.602055" lon="03.845650"><ele>2.8</ele><time>2022-11-16T11:38:23Z</time><name>PT2325</name></trkpt>
<trkpt lat="51.602049" lon="03.845648"><ele>2.7</ele><time>2022-11-16T11:38:24Z</time><name>PT2326</name></trkpt>
<trkpt lat="51.602046" lon="03.845645"><ele>2.6</ele><time>2022-11-16T11:38:25Z</time><name>PT2327</name></trkpt>
<trkpt lat="51.602044" lon="03.845645"><ele>2.6</ele><time>2022-11-16T11:38:26Z</time><name>PT2328</name></trkpt>
<trkpt lat="51.602043" lon="03.845645"><ele>2.5</ele><time>2022-11-16T11:38:27Z</time><name>PT2329</name></trkpt>
<trkpt lat="51.602042" lon="03.845647"><ele>2.4</ele><time>2022-11-16T11:38:28Z</time><name>PT2330</name></trkpt>
<trkpt lat="51.602037" lon="03.845647"><ele>2.4</ele><time>2022-11-16T11:38:29Z</time><name>PT2331</name></trkpt>
<trkpt lat="51.602028" lon="03.845644"><ele>2.5</ele><time>2022-11-16T11:38:30Z</time><name>PT2332</name></trkpt>
<trkpt lat="51.602020" lon="03.845647"><ele>2.4</ele><time>2022-11-16T11:38:31Z</time><name>PT2333</name></trkpt>
<trkpt lat="51.602013" lon="03.845656"><ele>2.6</ele><time>2022-11-16T11:38:32Z</time><name>PT2334</name></trkpt>
<trkpt lat="51.602011" lon="03.845662"><ele>2.6</ele><time>2022-11-16T11:38:33Z</time><name>PT2335</name></trkpt>
<trkpt lat="51.602006" lon="03.845666"><ele>2.6</ele><time>2022-11-16T11:38:34Z</time><name>PT2336</name></trkpt>
<trkpt lat="51.602002" lon="03.845669"><ele>2.5</ele><time>2022-11-16T11:38:35Z</time><name>PT2337</name></trkpt>
<trkpt lat="51.602002" lon="03.845670"><ele>2.5</ele><time>2022-11-16T11:38:36Z</time><name>PT2338</name></trkpt>
<trkpt lat="51.602000" lon="03.845670"><ele>2.5</ele><time>2022-11-16T11:38:37Z</time><name>PT2339</name></trkpt>
<trkpt lat="51.601999" lon="03.845666"><ele>2.6</ele><time>2022-11-16T11:38:43Z</time><name>PT2340</name></trkpt>
<trkpt lat="51.602005" lon="03.845666"><ele>2.8</ele><time>2022-11-16T11:38:44Z</time><name>PT2341</name></trkpt>
<trkpt lat="51.602004" lon="03.845662"><ele>2.6</ele><time>2022-11-16T11:38:45Z</time><name>PT2342</name></trkpt>
<trkpt lat="51.602003" lon="03.845663"><ele>2.5</ele><time>2022-11-16T11:38:46Z</time><name>PT2343</name></trkpt>
<trkpt lat="51.602003" lon="03.845664"><ele>2.6</ele><time>2022-11-16T11:38:47Z</time><name>PT2344</name></trkpt>
<trkpt lat="51.602003" lon="03.845668"><ele>2.6</ele><time>2022-11-16T11:38:48Z</time><name>PT2345</name></trkpt>
<trkpt lat="51.602000" lon="03.845675"><ele>2.6</ele><time>2022-11-16T11:38:49Z</time><name>PT2346</name></trkpt>
<trkpt lat="51.601997" lon="03.845680"><ele>2.8</ele><time>2022-11-16T11:38:50Z</time><name>PT2347</name></trkpt>
<trkpt lat="51.601994" lon="03.845684"><ele>3</ele><time>2022-11-16T11:38:51Z</time><name>PT2348</name></trkpt>
<trkpt lat="51.601994" lon="03.845686"><ele>3.1</ele><time>2022-11-16T11:38:52Z</time><name>PT2349</name></trkpt>
<trkpt lat="51.601993" lon="03.845691"><ele>3.3</ele><time>2022-11-16T11:38:53Z</time><name>PT2350</name></trkpt>
<trkpt lat="51.601989" lon="03.845690"><ele>3.3</ele><time>2022-11-16T11:38:55Z</time><name>PT2351</name></trkpt>
<trkpt lat="51.601986" lon="03.845687"><ele>3.4</ele><time>2022-11-16T11:38:55Z</time><name>PT2352</name></trkpt>
<trkpt lat="51.601989" lon="03.845697"><ele>3.3</ele><time>2022-11-16T11:38:56Z</time><name>PT2353</name></trkpt>
<trkpt lat="51.601991" lon="03.845703"><ele>3.3</ele><time>2022-11-16T11:38:57Z</time><name>PT2354</name></trkpt>
<trkpt lat="51.601990" lon="03.845705"><ele>3.3</ele><time>2022-11-16T11:38:58Z</time><name>PT2355</name></trkpt>
<trkpt lat="51.601988" lon="03.845710"><ele>3.7</ele><time>2022-11-16T11:38:59Z</time><name>PT2356</name></trkpt>
<trkpt lat="51.601982" lon="03.845713"><ele>4.1</ele><time>2022-11-16T11:39:00Z</time><name>PT2357</name></trkpt>
<trkpt lat="51.601977" lon="03.845722"><ele>4.2</ele><time>2022-11-16T11:39:01Z</time><name>PT2358</name></trkpt>
<trkpt lat="51.601972" lon="03.845728"><ele>4.7</ele><time>2022-11-16T11:39:02Z</time><name>PT2359</name></trkpt>
<trkpt lat="51.601962" lon="03.845724"><ele>5.4</ele><time>2022-11-16T11:39:05Z</time><name>PT2360</name></trkpt>
<trkpt lat="51.601953" lon="03.845722"><ele>5.3</ele><time>2022-11-16T11:39:06Z</time><name>PT2361</name></trkpt>
<trkpt lat="51.601946" lon="03.845716"><ele>5.2</ele><time>2022-11-16T11:39:07Z</time><name>PT2362</name></trkpt>
<trkpt lat="51.601938" lon="03.845713"><ele>5</ele><time>2022-11-16T11:39:08Z</time><name>PT2363</name></trkpt>
<trkpt lat="51.601929" lon="03.845709"><ele>4.4</ele><time>2022-11-16T11:39:09Z</time><name>PT2364</name></trkpt>
<trkpt lat="51.601919" lon="03.845707"><ele>4.3</ele><time>2022-11-16T11:39:10Z</time><name>PT2365</name></trkpt>
<trkpt lat="51.601913" lon="03.845697"><ele>4.4</ele><time>2022-11-16T11:39:11Z</time><name>PT2366</name></trkpt>
<trkpt lat="51.601907" lon="03.845687"><ele>4.4</ele><time>2022-11-16T11:39:12Z</time><name>PT2367</name></trkpt>
<trkpt lat="51.601900" lon="03.845678"><ele>4.6</ele><time>2022-11-16T11:39:13Z</time><name>PT2368</name></trkpt>
<trkpt lat="51.601891" lon="03.845667"><ele>4.6</ele><time>2022-11-16T11:39:14Z</time><name>PT2369</name></trkpt>
<trkpt lat="51.601886" lon="03.845663"><ele>4.7</ele><time>2022-11-16T11:39:15Z</time><name>PT2370</name></trkpt>
<trkpt lat="51.601881" lon="03.845653"><ele>4.7</ele><time>2022-11-16T11:39:16Z</time><name>PT2371</name></trkpt>
<trkpt lat="51.601871" lon="03.845644"><ele>4.7</ele><time>2022-11-16T11:39:17Z</time><name>PT2372</name></trkpt>
<trkpt lat="51.601861" lon="03.845631"><ele>4.6</ele><time>2022-11-16T11:39:18Z</time><name>PT2373</name></trkpt>
<trkpt lat="51.601853" lon="03.845622"><ele>4.7</ele><time>2022-11-16T11:39:19Z</time><name>PT2374</name></trkpt>
<trkpt lat="51.601847" lon="03.845611"><ele>4.6</ele><time>2022-11-16T11:39:20Z</time><name>PT2375</name></trkpt>
<trkpt lat="51.601839" lon="03.845597"><ele>4.9</ele><time>2022-11-16T11:39:21Z</time><name>PT2376</name></trkpt>
<trkpt lat="51.601831" lon="03.845581"><ele>5</ele><time>2022-11-16T11:39:22Z</time><name>PT2377</name></trkpt>
<trkpt lat="51.601821" lon="03.845563"><ele>5.2</ele><time>2022-11-16T11:39:23Z</time><name>PT2378</name></trkpt>
<trkpt lat="51.601810" lon="03.845547"><ele>5.1</ele><time>2022-11-16T11:39:24Z</time><name>PT2379</name></trkpt>
<trkpt lat="51.601801" lon="03.845537"><ele>5.3</ele><time>2022-11-16T11:39:25Z</time><name>PT2380</name></trkpt>
<trkpt lat="51.601792" lon="03.845526"><ele>4.8</ele><time>2022-11-16T11:39:26Z</time><name>PT2381</name></trkpt>
<trkpt lat="51.601786" lon="03.845517"><ele>4.7</ele><time>2022-11-16T11:39:27Z</time><name>PT2382</name></trkpt>
<trkpt lat="51.601780" lon="03.845505"><ele>4.7</ele><time>2022-11-16T11:39:28Z</time><name>PT2383</name></trkpt>
<trkpt lat="51.601776" lon="03.845493"><ele>4.7</ele><time>2022-11-16T11:39:29Z</time><name>PT2384</name></trkpt>
<trkpt lat="51.601772" lon="03.845484"><ele>4.7</ele><time>2022-11-16T11:39:30Z</time><name>PT2385</name></trkpt>
<trkpt lat="51.601769" lon="03.845475"><ele>4.7</ele><time>2022-11-16T11:39:31Z</time><name>PT2386</name></trkpt>
<trkpt lat="51.601763" lon="03.845463"><ele>4.5</ele><time>2022-11-16T11:39:32Z</time><name>PT2387</name></trkpt>
<trkpt lat="51.601754" lon="03.845453"><ele>4.4</ele><time>2022-11-16T11:39:33Z</time><name>PT2388</name></trkpt>
<trkpt lat="51.601748" lon="03.845441"><ele>4.2</ele><time>2022-11-16T11:39:34Z</time><name>PT2389</name></trkpt>
<trkpt lat="51.601740" lon="03.845428"><ele>4</ele><time>2022-11-16T11:39:35Z</time><name>PT2390</name></trkpt>
<trkpt lat="51.601732" lon="03.845418"><ele>4</ele><time>2022-11-16T11:39:36Z</time><name>PT2391</name></trkpt>
<trkpt lat="51.601727" lon="03.845411"><ele>3.9</ele><time>2022-11-16T11:39:37Z</time><name>PT2392</name></trkpt>
<trkpt lat="51.601723" lon="03.845403"><ele>3.7</ele><time>2022-11-16T11:39:38Z</time><name>PT2393</name></trkpt>
<trkpt lat="51.601720" lon="03.845390"><ele>3.7</ele><time>2022-11-16T11:39:39Z</time><name>PT2394</name></trkpt>
<trkpt lat="51.601714" lon="03.845376"><ele>3.8</ele><time>2022-11-16T11:39:40Z</time><name>PT2395</name></trkpt>
<trkpt lat="51.601707" lon="03.845361"><ele>3.8</ele><time>2022-11-16T11:39:41Z</time><name>PT2396</name></trkpt>
<trkpt lat="51.601699" lon="03.845346"><ele>3.7</ele><time>2022-11-16T11:39:42Z</time><name>PT2397</name></trkpt>
<trkpt lat="51.601691" lon="03.845339"><ele>3.8</ele><time>2022-11-16T11:39:43Z</time><name>PT2398</name></trkpt>
<trkpt lat="51.601684" lon="03.845332"><ele>3.8</ele><time>2022-11-16T11:39:44Z</time><name>PT2399</name></trkpt>
<trkpt lat="51.601679" lon="03.845328"><ele>3.9</ele><time>2022-11-16T11:39:45Z</time><name>PT2400</name></trkpt>
<trkpt lat="51.601675" lon="03.845327"><ele>4.2</ele><time>2022-11-16T11:39:46Z</time><name>PT2401</name></trkpt>
<trkpt lat="51.601671" lon="03.845329"><ele>4.3</ele><time>2022-11-16T11:39:47Z</time><name>PT2402</name></trkpt>
<trkpt lat="51.601664" lon="03.845324"><ele>4.2</ele><time>2022-11-16T11:39:49Z</time><name>PT2403</name></trkpt>
<trkpt lat="51.601655" lon="03.845322"><ele>4.2</ele><time>2022-11-16T11:39:50Z</time><name>PT2404</name></trkpt>
<trkpt lat="51.601644" lon="03.845308"><ele>4.1</ele><time>2022-11-16T11:39:51Z</time><name>PT2405</name></trkpt>
<trkpt lat="51.601641" lon="03.845308"><ele>4.3</ele><time>2022-11-16T11:39:52Z</time><name>PT2406</name></trkpt>
<trkpt lat="51.601640" lon="03.845309"><ele>4.6</ele><time>2022-11-16T11:39:53Z</time><name>PT2407</name></trkpt>
<trkpt lat="51.601640" lon="03.845305"><ele>4.7</ele><time>2022-11-16T11:39:54Z</time><name>PT2408</name></trkpt>
<trkpt lat="51.601634" lon="03.845292"><ele>4.7</ele><time>2022-11-16T11:39:55Z</time><name>PT2409</name></trkpt>
<trkpt lat="51.601628" lon="03.845273"><ele>5</ele><time>2022-11-16T11:39:56Z</time><name>PT2410</name></trkpt>
<trkpt lat="51.601626" lon="03.845253"><ele>5</ele><time>2022-11-16T11:39:57Z</time><name>PT2411</name></trkpt>
<trkpt lat="51.601624" lon="03.845236"><ele>5</ele><time>2022-11-16T11:39:58Z</time><name>PT2412</name></trkpt>
<trkpt lat="51.601623" lon="03.845222"><ele>4.9</ele><time>2022-11-16T11:39:59Z</time><name>PT2413</name></trkpt>
<trkpt lat="51.601623" lon="03.845212"><ele>4.7</ele><time>2022-11-16T11:40:00Z</time><name>PT2414</name></trkpt>
<trkpt lat="51.601623" lon="03.845200"><ele>4.4</ele><time>2022-11-16T11:40:01Z</time><name>PT2415</name></trkpt>
<trkpt lat="51.601624" lon="03.845185"><ele>4.2</ele><time>2022-11-16T11:40:02Z</time><name>PT2416</name></trkpt>
<trkpt lat="51.601627" lon="03.845169"><ele>3.9</ele><time>2022-11-16T11:40:03Z</time><name>PT2417</name></trkpt>
<trkpt lat="51.601629" lon="03.845152"><ele>4</ele><time>2022-11-16T11:40:04Z</time><name>PT2418</name></trkpt>
<trkpt lat="51.601630" lon="03.845131"><ele>4</ele><time>2022-11-16T11:40:05Z</time><name>PT2419</name></trkpt>
<trkpt lat="51.601627" lon="03.845107"><ele>4.2</ele><time>2022-11-16T11:40:06Z</time><name>PT2420</name></trkpt>
<trkpt lat="51.601625" lon="03.845084"><ele>4.3</ele><time>2022-11-16T11:40:07Z</time><name>PT2421</name></trkpt>
<trkpt lat="51.601624" lon="03.845062"><ele>4.7</ele><time>2022-11-16T11:40:08Z</time><name>PT2422</name></trkpt>
<trkpt lat="51.601624" lon="03.845037"><ele>4.7</ele><time>2022-11-16T11:40:09Z</time><name>PT2423</name></trkpt>
<trkpt lat="51.601624" lon="03.845020"><ele>4.7</ele><time>2022-11-16T11:40:10Z</time><name>PT2424</name></trkpt>
<trkpt lat="51.601622" lon="03.845005"><ele>4.4</ele><time>2022-11-16T11:40:11Z</time><name>PT2425</name></trkpt>
<trkpt lat="51.601621" lon="03.844989"><ele>4</ele><time>2022-11-16T11:40:12Z</time><name>PT2426</name></trkpt>
<trkpt lat="51.601621" lon="03.844976"><ele>3.9</ele><time>2022-11-16T11:40:13Z</time><name>PT2427</name></trkpt>
<trkpt lat="51.601621" lon="03.844965"><ele>3.7</ele><time>2022-11-16T11:40:14Z</time><name>PT2428</name></trkpt>
<trkpt lat="51.601622" lon="03.844952"><ele>3.7</ele><time>2022-11-16T11:40:15Z</time><name>PT2429</name></trkpt>
<trkpt lat="51.601622" lon="03.844938"><ele>3.8</ele><time>2022-11-16T11:40:16Z</time><name>PT2430</name></trkpt>
<trkpt lat="51.601623" lon="03.844922"><ele>3.9</ele><time>2022-11-16T11:40:17Z</time><name>PT2431</name></trkpt>
<trkpt lat="51.601625" lon="03.844902"><ele>4</ele><time>2022-11-16T11:40:18Z</time><name>PT2432</name></trkpt>
<trkpt lat="51.601627" lon="03.844880"><ele>4.1</ele><time>2022-11-16T11:40:19Z</time><name>PT2433</name></trkpt>
<trkpt lat="51.601628" lon="03.844854"><ele>4.2</ele><time>2022-11-16T11:40:20Z</time><name>PT2434</name></trkpt>
<trkpt lat="51.601626" lon="03.844830"><ele>4.3</ele><time>2022-11-16T11:40:21Z</time><name>PT2435</name></trkpt>
<trkpt lat="51.601625" lon="03.844805"><ele>4.4</ele><time>2022-11-16T11:40:22Z</time><name>PT2436</name></trkpt>
<trkpt lat="51.601624" lon="03.844784"><ele>4.7</ele><time>2022-11-16T11:40:23Z</time><name>PT2437</name></trkpt>
<trkpt lat="51.601623" lon="03.844768"><ele>4.7</ele><time>2022-11-16T11:40:24Z</time><name>PT2438</name></trkpt>
<trkpt lat="51.601623" lon="03.844752"><ele>4.7</ele><time>2022-11-16T11:40:25Z</time><name>PT2439</name></trkpt>
<trkpt lat="51.601624" lon="03.844738"><ele>4.7</ele><time>2022-11-16T11:40:26Z</time><name>PT2440</name></trkpt>
<trkpt lat="51.601625" lon="03.844722"><ele>4.6</ele><time>2022-11-16T11:40:27Z</time><name>PT2441</name></trkpt>
<trkpt lat="51.601627" lon="03.844706"><ele>4.6</ele><time>2022-11-16T11:40:28Z</time><name>PT2442</name></trkpt>
<trkpt lat="51.601630" lon="03.844690"><ele>4.5</ele><time>2022-11-16T11:40:29Z</time><name>PT2443</name></trkpt>
<trkpt lat="51.601632" lon="03.844673"><ele>4.2</ele><time>2022-11-16T11:40:30Z</time><name>PT2444</name></trkpt>
<trkpt lat="51.601635" lon="03.844653"><ele>4</ele><time>2022-11-16T11:40:31Z</time><name>PT2445</name></trkpt>
<trkpt lat="51.601637" lon="03.844633"><ele>3.9</ele><time>2022-11-16T11:40:32Z</time><name>PT2446</name></trkpt>
<trkpt lat="51.601638" lon="03.844610"><ele>3.8</ele><time>2022-11-16T11:40:33Z</time><name>PT2447</name></trkpt>
<trkpt lat="51.601640" lon="03.844586"><ele>3.9</ele><time>2022-11-16T11:40:34Z</time><name>PT2448</name></trkpt>
<trkpt lat="51.601640" lon="03.844561"><ele>4.1</ele><time>2022-11-16T11:40:35Z</time><name>PT2449</name></trkpt>
<trkpt lat="51.601640" lon="03.844536"><ele>4</ele><time>2022-11-16T11:40:36Z</time><name>PT2450</name></trkpt>
<trkpt lat="51.601641" lon="03.844514"><ele>4.1</ele><time>2022-11-16T11:40:37Z</time><name>PT2451</name></trkpt>
<trkpt lat="51.601640" lon="03.844497"><ele>4.2</ele><time>2022-11-16T11:40:38Z</time><name>PT2452</name></trkpt>
<trkpt lat="51.601639" lon="03.844485"><ele>4</ele><time>2022-11-16T11:40:39Z</time><name>PT2453</name></trkpt>
<trkpt lat="51.601639" lon="03.844476"><ele>3.9</ele><time>2022-11-16T11:40:40Z</time><name>PT2454</name></trkpt>
<trkpt lat="51.601639" lon="03.844462"><ele>3.9</ele><time>2022-11-16T11:40:41Z</time><name>PT2455</name></trkpt>
<trkpt lat="51.601640" lon="03.844449"><ele>3.6</ele><time>2022-11-16T11:40:42Z</time><name>PT2456</name></trkpt>
<trkpt lat="51.601641" lon="03.844437"><ele>3.7</ele><time>2022-11-16T11:40:43Z</time><name>PT2457</name></trkpt>
<trkpt lat="51.601642" lon="03.844425"><ele>3.7</ele><time>2022-11-16T11:40:44Z</time><name>PT2458</name></trkpt>
<trkpt lat="51.601645" lon="03.844407"><ele>4</ele><time>2022-11-16T11:40:45Z</time><name>PT2459</name></trkpt>
<trkpt lat="51.601647" lon="03.844387"><ele>4.1</ele><time>2022-11-16T11:40:46Z</time><name>PT2460</name></trkpt>
<trkpt lat="51.601648" lon="03.844363"><ele>4.2</ele><time>2022-11-16T11:40:47Z</time><name>PT2461</name></trkpt>
<trkpt lat="51.601649" lon="03.844339"><ele>4.3</ele><time>2022-11-16T11:40:48Z</time><name>PT2462</name></trkpt>
<trkpt lat="51.601649" lon="03.844317"><ele>4.4</ele><time>2022-11-16T11:40:49Z</time><name>PT2463</name></trkpt>
<trkpt lat="51.601649" lon="03.844299"><ele>4.3</ele><time>2022-11-16T11:40:50Z</time><name>PT2464</name></trkpt>
<trkpt lat="51.601648" lon="03.844283"><ele>4.4</ele><time>2022-11-16T11:40:51Z</time><name>PT2465</name></trkpt>
<trkpt lat="51.601648" lon="03.844268"><ele>4.5</ele><time>2022-11-16T11:40:52Z</time><name>PT2466</name></trkpt>
<trkpt lat="51.601649" lon="03.844257"><ele>4.4</ele><time>2022-11-16T11:40:53Z</time><name>PT2467</name></trkpt>
<trkpt lat="51.601649" lon="03.844243"><ele>4.3</ele><time>2022-11-16T11:40:54Z</time><name>PT2468</name></trkpt>
<trkpt lat="51.601652" lon="03.844233"><ele>4.1</ele><time>2022-11-16T11:40:55Z</time><name>PT2469</name></trkpt>
<trkpt lat="51.601657" lon="03.844217"><ele>3.7</ele><time>2022-11-16T11:40:56Z</time><name>PT2470</name></trkpt>
<trkpt lat="51.601658" lon="03.844197"><ele>3.4</ele><time>2022-11-16T11:40:57Z</time><name>PT2471</name></trkpt>
<trkpt lat="51.601660" lon="03.844177"><ele>3.4</ele><time>2022-11-16T11:40:58Z</time><name>PT2472</name></trkpt>
<trkpt lat="51.601660" lon="03.844154"><ele>3.4</ele><time>2022-11-16T11:40:59Z</time><name>PT2473</name></trkpt>
<trkpt lat="51.601659" lon="03.844129"><ele>3.7</ele><time>2022-11-16T11:41:00Z</time><name>PT2474</name></trkpt>
<trkpt lat="51.601659" lon="03.844104"><ele>3.9</ele><time>2022-11-16T11:41:01Z</time><name>PT2475</name></trkpt>
<trkpt lat="51.601660" lon="03.844092"><ele>4</ele><time>2022-11-16T11:41:02Z</time><name>PT2476</name></trkpt>
<trkpt lat="51.601659" lon="03.844076"><ele>4.1</ele><time>2022-11-16T11:41:03Z</time><name>PT2477</name></trkpt>
<trkpt lat="51.601659" lon="03.844060"><ele>4.1</ele><time>2022-11-16T11:41:04Z</time><name>PT2478</name></trkpt>
<trkpt lat="51.601660" lon="03.844046"><ele>4</ele><time>2022-11-16T11:41:05Z</time><name>PT2479</name></trkpt>
<trkpt lat="51.601660" lon="03.844029"><ele>4</ele><time>2022-11-16T11:41:06Z</time><name>PT2480</name></trkpt>
<trkpt lat="51.601661" lon="03.844014"><ele>4</ele><time>2022-11-16T11:41:07Z</time><name>PT2481</name></trkpt>
<trkpt lat="51.601662" lon="03.843996"><ele>3.7</ele><time>2022-11-16T11:41:08Z</time><name>PT2482</name></trkpt>
<trkpt lat="51.601664" lon="03.843979"><ele>3.4</ele><time>2022-11-16T11:41:09Z</time><name>PT2483</name></trkpt>
<trkpt lat="51.601666" lon="03.843958"><ele>3.2</ele><time>2022-11-16T11:41:10Z</time><name>PT2484</name></trkpt>
<trkpt lat="51.601668" lon="03.843935"><ele>3.2</ele><time>2022-11-16T11:41:11Z</time><name>PT2485</name></trkpt>
<trkpt lat="51.601668" lon="03.843910"><ele>3.3</ele><time>2022-11-16T11:41:12Z</time><name>PT2486</name></trkpt>
<trkpt lat="51.601666" lon="03.843886"><ele>3.3</ele><time>2022-11-16T11:41:13Z</time><name>PT2487</name></trkpt>
<trkpt lat="51.601666" lon="03.843867"><ele>3.4</ele><time>2022-11-16T11:41:14Z</time><name>PT2488</name></trkpt>
<trkpt lat="51.601665" lon="03.843845"><ele>3.5</ele><time>2022-11-16T11:41:15Z</time><name>PT2489</name></trkpt>
<trkpt lat="51.601664" lon="03.843826"><ele>3.7</ele><time>2022-11-16T11:41:16Z</time><name>PT2490</name></trkpt>
<trkpt lat="51.601664" lon="03.843809"><ele>3.6</ele><time>2022-11-16T11:41:17Z</time><name>PT2491</name></trkpt>
<trkpt lat="51.601663" lon="03.843797"><ele>3.8</ele><time>2022-11-16T11:41:18Z</time><name>PT2492</name></trkpt>
<trkpt lat="51.601663" lon="03.843785"><ele>3.9</ele><time>2022-11-16T11:41:19Z</time><name>PT2493</name></trkpt>
<trkpt lat="51.601664" lon="03.843767"><ele>4</ele><time>2022-11-16T11:41:20Z</time><name>PT2494</name></trkpt>
<trkpt lat="51.601665" lon="03.843749"><ele>4.1</ele><time>2022-11-16T11:41:21Z</time><name>PT2495</name></trkpt>
<trkpt lat="51.601666" lon="03.843731"><ele>4.2</ele><time>2022-11-16T11:41:22Z</time><name>PT2496</name></trkpt>
<trkpt lat="51.601667" lon="03.843710"><ele>4.2</ele><time>2022-11-16T11:41:23Z</time><name>PT2497</name></trkpt>
<trkpt lat="51.601666" lon="03.843687"><ele>4.2</ele><time>2022-11-16T11:41:24Z</time><name>PT2498</name></trkpt>
<trkpt lat="51.601666" lon="03.843668"><ele>4.1</ele><time>2022-11-16T11:41:25Z</time><name>PT2499</name></trkpt>
<trkpt lat="51.601665" lon="03.843651"><ele>4.1</ele><time>2022-11-16T11:41:26Z</time><name>PT2500</name></trkpt>
<trkpt lat="51.601663" lon="03.843632"><ele>4.1</ele><time>2022-11-16T11:41:27Z</time><name>PT2501</name></trkpt>
<trkpt lat="51.601665" lon="03.843615"><ele>4.2</ele><time>2022-11-16T11:41:28Z</time><name>PT2502</name></trkpt>
<trkpt lat="51.601663" lon="03.843599"><ele>4.5</ele><time>2022-11-16T11:41:29Z</time><name>PT2503</name></trkpt>
<trkpt lat="51.601662" lon="03.843592"><ele>4.7</ele><time>2022-11-16T11:41:30Z</time><name>PT2504</name></trkpt>
<trkpt lat="51.601662" lon="03.843583"><ele>4.7</ele><time>2022-11-16T11:41:31Z</time><name>PT2505</name></trkpt>
<trkpt lat="51.601660" lon="03.843564"><ele>4.9</ele><time>2022-11-16T11:41:32Z</time><name>PT2506</name></trkpt>
<trkpt lat="51.601662" lon="03.843549"><ele>4.9</ele><time>2022-11-16T11:41:34Z</time><name>PT2507</name></trkpt>
<trkpt lat="51.601662" lon="03.843533"><ele>4.8</ele><time>2022-11-16T11:41:34Z</time><name>PT2508</name></trkpt>
<trkpt lat="51.601662" lon="03.843516"><ele>4.8</ele><time>2022-11-16T11:41:35Z</time><name>PT2509</name></trkpt>
<trkpt lat="51.601663" lon="03.843497"><ele>5.1</ele><time>2022-11-16T11:41:36Z</time><name>PT2510</name></trkpt>
<trkpt lat="51.601664" lon="03.843480"><ele>5</ele><time>2022-11-16T11:41:37Z</time><name>PT2511</name></trkpt>
<trkpt lat="51.601666" lon="03.843459"><ele>4.7</ele><time>2022-11-16T11:41:38Z</time><name>PT2512</name></trkpt>
<trkpt lat="51.601667" lon="03.843436"><ele>4.7</ele><time>2022-11-16T11:41:39Z</time><name>PT2513</name></trkpt>
<trkpt lat="51.601667" lon="03.843411"><ele>4.5</ele><time>2022-11-16T11:41:40Z</time><name>PT2514</name></trkpt>
<trkpt lat="51.601667" lon="03.843388"><ele>4.2</ele><time>2022-11-16T11:41:41Z</time><name>PT2515</name></trkpt>
<trkpt lat="51.601667" lon="03.843367"><ele>4.2</ele><time>2022-11-16T11:41:42Z</time><name>PT2516</name></trkpt>
<trkpt lat="51.601667" lon="03.843348"><ele>4.2</ele><time>2022-11-16T11:41:43Z</time><name>PT2517</name></trkpt>
<trkpt lat="51.601666" lon="03.843333"><ele>4.1</ele><time>2022-11-16T11:41:44Z</time><name>PT2518</name></trkpt>
<trkpt lat="51.601667" lon="03.843318"><ele>4.2</ele><time>2022-11-16T11:41:45Z</time><name>PT2519</name></trkpt>
<trkpt lat="51.601668" lon="03.843302"><ele>4.2</ele><time>2022-11-16T11:41:46Z</time><name>PT2520</name></trkpt>
<trkpt lat="51.601670" lon="03.843286"><ele>4.3</ele><time>2022-11-16T11:41:47Z</time><name>PT2521</name></trkpt>
<trkpt lat="51.601672" lon="03.843269"><ele>4.6</ele><time>2022-11-16T11:41:48Z</time><name>PT2522</name></trkpt>
<trkpt lat="51.601674" lon="03.843248"><ele>4.7</ele><time>2022-11-16T11:41:49Z</time><name>PT2523</name></trkpt>
<trkpt lat="51.601675" lon="03.843227"><ele>4.8</ele><time>2022-11-16T11:41:50Z</time><name>PT2524</name></trkpt>
<trkpt lat="51.601674" lon="03.843207"><ele>4.7</ele><time>2022-11-16T11:41:51Z</time><name>PT2525</name></trkpt>
<trkpt lat="51.601673" lon="03.843190"><ele>4.6</ele><time>2022-11-16T11:41:52Z</time><name>PT2526</name></trkpt>
<trkpt lat="51.601673" lon="03.843175"><ele>4.7</ele><time>2022-11-16T11:41:53Z</time><name>PT2527</name></trkpt>
<trkpt lat="51.601673" lon="03.843159"><ele>4.8</ele><time>2022-11-16T11:41:54Z</time><name>PT2528</name></trkpt>
<trkpt lat="51.601674" lon="03.843143"><ele>4.7</ele><time>2022-11-16T11:41:55Z</time><name>PT2529</name></trkpt>
<trkpt lat="51.601675" lon="03.843126"><ele>4.8</ele><time>2022-11-16T11:41:56Z</time><name>PT2530</name></trkpt>
<trkpt lat="51.601676" lon="03.843110"><ele>4.7</ele><time>2022-11-16T11:41:57Z</time><name>PT2531</name></trkpt>
<trkpt lat="51.601678" lon="03.843094"><ele>4.6</ele><time>2022-11-16T11:41:58Z</time><name>PT2532</name></trkpt>
<trkpt lat="51.601679" lon="03.843077"><ele>4.6</ele><time>2022-11-16T11:41:59Z</time><name>PT2533</name></trkpt>
<trkpt lat="51.601681" lon="03.843056"><ele>4.5</ele><time>2022-11-16T11:42:00Z</time><name>PT2534</name></trkpt>
<trkpt lat="51.601682" lon="03.843035"><ele>4.5</ele><time>2022-11-16T11:42:01Z</time><name>PT2535</name></trkpt>
<trkpt lat="51.601681" lon="03.843013"><ele>4.7</ele><time>2022-11-16T11:42:02Z</time><name>PT2536</name></trkpt>
<trkpt lat="51.601679" lon="03.842993"><ele>4.7</ele><time>2022-11-16T11:42:03Z</time><name>PT2537</name></trkpt>
<trkpt lat="51.601678" lon="03.842978"><ele>4.6</ele><time>2022-11-16T11:42:04Z</time><name>PT2538</name></trkpt>
<trkpt lat="51.601678" lon="03.842964"><ele>4.5</ele><time>2022-11-16T11:42:05Z</time><name>PT2539</name></trkpt>
<trkpt lat="51.601679" lon="03.842949"><ele>4.3</ele><time>2022-11-16T11:42:06Z</time><name>PT2540</name></trkpt>
<trkpt lat="51.601680" lon="03.842932"><ele>4.2</ele><time>2022-11-16T11:42:07Z</time><name>PT2541</name></trkpt>
<trkpt lat="51.601681" lon="03.842918"><ele>4.2</ele><time>2022-11-16T11:42:08Z</time><name>PT2542</name></trkpt>
<trkpt lat="51.601682" lon="03.842902"><ele>4.4</ele><time>2022-11-16T11:42:09Z</time><name>PT2543</name></trkpt>
<trkpt lat="51.601683" lon="03.842882"><ele>4.4</ele><time>2022-11-16T11:42:10Z</time><name>PT2544</name></trkpt>
<trkpt lat="51.601684" lon="03.842861"><ele>4.6</ele><time>2022-11-16T11:42:11Z</time><name>PT2545</name></trkpt>
<trkpt lat="51.601684" lon="03.842839"><ele>4.7</ele><time>2022-11-16T11:42:12Z</time><name>PT2546</name></trkpt>
<trkpt lat="51.601684" lon="03.842821"><ele>4.7</ele><time>2022-11-16T11:42:13Z</time><name>PT2547</name></trkpt>
<trkpt lat="51.601683" lon="03.842809"><ele>4.5</ele><time>2022-11-16T11:42:14Z</time><name>PT2548</name></trkpt>
<trkpt lat="51.601682" lon="03.842795"><ele>4.5</ele><time>2022-11-16T11:42:15Z</time><name>PT2549</name></trkpt>
<trkpt lat="51.601683" lon="03.842780"><ele>4.4</ele><time>2022-11-16T11:42:16Z</time><name>PT2550</name></trkpt>
<trkpt lat="51.601684" lon="03.842766"><ele>4.5</ele><time>2022-11-16T11:42:17Z</time><name>PT2551</name></trkpt>
<trkpt lat="51.601687" lon="03.842753"><ele>4.3</ele><time>2022-11-16T11:42:18Z</time><name>PT2552</name></trkpt>
<trkpt lat="51.601687" lon="03.842744"><ele>4.3</ele><time>2022-11-16T11:42:19Z</time><name>PT2553</name></trkpt>
<trkpt lat="51.601688" lon="03.842735"><ele>4.2</ele><time>2022-11-16T11:42:20Z</time><name>PT2554</name></trkpt>
<trkpt lat="51.601689" lon="03.842721"><ele>4.2</ele><time>2022-11-16T11:42:21Z</time><name>PT2555</name></trkpt>
<trkpt lat="51.601690" lon="03.842707"><ele>4.1</ele><time>2022-11-16T11:42:22Z</time><name>PT2556</name></trkpt>
<trkpt lat="51.601690" lon="03.842699"><ele>4.1</ele><time>2022-11-16T11:42:23Z</time><name>PT2557</name></trkpt>
<trkpt lat="51.601686" lon="03.842690"><ele>4.2</ele><time>2022-11-16T11:42:24Z</time><name>PT2558</name></trkpt>
<trkpt lat="51.601685" lon="03.842678"><ele>4.5</ele><time>2022-11-16T11:42:25Z</time><name>PT2559</name></trkpt>
<trkpt lat="51.601684" lon="03.842674"><ele>4.7</ele><time>2022-11-16T11:42:26Z</time><name>PT2560</name></trkpt>
<trkpt lat="51.601685" lon="03.842664"><ele>5</ele><time>2022-11-16T11:42:28Z</time><name>PT2561</name></trkpt>
<trkpt lat="51.601686" lon="03.842646"><ele>4.9</ele><time>2022-11-16T11:42:28Z</time><name>PT2562</name></trkpt>
<trkpt lat="51.601686" lon="03.842629"><ele>4.8</ele><time>2022-11-16T11:42:29Z</time><name>PT2563</name></trkpt>
<trkpt lat="51.601686" lon="03.842613"><ele>4.5</ele><time>2022-11-16T11:42:30Z</time><name>PT2564</name></trkpt>
<trkpt lat="51.601686" lon="03.842599"><ele>4.3</ele><time>2022-11-16T11:42:31Z</time><name>PT2565</name></trkpt>
<trkpt lat="51.601686" lon="03.842587"><ele>4.2</ele><time>2022-11-16T11:42:32Z</time><name>PT2566</name></trkpt>
<trkpt lat="51.601688" lon="03.842572"><ele>4.2</ele><time>2022-11-16T11:42:33Z</time><name>PT2567</name></trkpt>
<trkpt lat="51.601689" lon="03.842559"><ele>4.2</ele><time>2022-11-16T11:42:34Z</time><name>PT2568</name></trkpt>
<trkpt lat="51.601688" lon="03.842545"><ele>4.2</ele><time>2022-11-16T11:42:35Z</time><name>PT2569</name></trkpt>
<trkpt lat="51.601687" lon="03.842528"><ele>4.3</ele><time>2022-11-16T11:42:36Z</time><name>PT2570</name></trkpt>
<trkpt lat="51.601686" lon="03.842518"><ele>4.3</ele><time>2022-11-16T11:42:37Z</time><name>PT2571</name></trkpt>
<trkpt lat="51.601683" lon="03.842513"><ele>4.4</ele><time>2022-11-16T11:42:38Z</time><name>PT2572</name></trkpt>
<trkpt lat="51.601681" lon="03.842502"><ele>4.4</ele><time>2022-11-16T11:42:39Z</time><name>PT2573</name></trkpt>
<trkpt lat="51.601679" lon="03.842490"><ele>4.4</ele><time>2022-11-16T11:42:40Z</time><name>PT2574</name></trkpt>
<trkpt lat="51.601677" lon="03.842479"><ele>4.2</ele><time>2022-11-16T11:42:41Z</time><name>PT2575</name></trkpt>
<trkpt lat="51.601676" lon="03.842472"><ele>3.9</ele><time>2022-11-16T11:42:42Z</time><name>PT2576</name></trkpt>
<trkpt lat="51.601676" lon="03.842463"><ele>3.6</ele><time>2022-11-16T11:42:43Z</time><name>PT2577</name></trkpt>
<trkpt lat="51.601677" lon="03.842453"><ele>3.4</ele><time>2022-11-16T11:42:44Z</time><name>PT2578</name></trkpt>
<trkpt lat="51.601675" lon="03.842441"><ele>3.2</ele><time>2022-11-16T11:42:45Z</time><name>PT2579</name></trkpt>
<trkpt lat="51.601674" lon="03.842431"><ele>3.1</ele><time>2022-11-16T11:42:46Z</time><name>PT2580</name></trkpt>
<trkpt lat="51.601674" lon="03.842421"><ele>3.2</ele><time>2022-11-16T11:42:47Z</time><name>PT2581</name></trkpt>
<trkpt lat="51.601677" lon="03.842411"><ele>3.3</ele><time>2022-11-16T11:42:48Z</time><name>PT2582</name></trkpt>
<trkpt lat="51.601679" lon="03.842406"><ele>3.4</ele><time>2022-11-16T11:42:49Z</time><name>PT2583</name></trkpt>
<trkpt lat="51.601681" lon="03.842405"><ele>3.3</ele><time>2022-11-16T11:42:50Z</time><name>PT2584</name></trkpt>
<trkpt lat="51.601682" lon="03.842405"><ele>3.3</ele><time>2022-11-16T11:42:51Z</time><name>PT2585</name></trkpt>
<trkpt lat="51.601685" lon="03.842412"><ele>3.1</ele><time>2022-11-16T11:42:54Z</time><name>PT2586</name></trkpt>
<trkpt lat="51.601688" lon="03.842418"><ele>3.1</ele><time>2022-11-16T11:42:55Z</time><name>PT2587</name></trkpt>
<trkpt lat="51.601687" lon="03.842416"><ele>3.2</ele><time>2022-11-16T11:42:56Z</time><name>PT2588</name></trkpt>
<trkpt lat="51.601692" lon="03.842417"><ele>3.3</ele><time>2022-11-16T11:42:58Z</time><name>PT2589</name></trkpt>
<trkpt lat="51.601691" lon="03.842416"><ele>3.2</ele><time>2022-11-16T11:42:59Z</time><name>PT2590</name></trkpt>
<trkpt lat="51.601693" lon="03.842416"><ele>3.1</ele><time>2022-11-16T11:43:00Z</time><name>PT2591</name></trkpt>
<trkpt lat="51.601691" lon="03.842412"><ele>3.2</ele><time>2022-11-16T11:43:01Z</time><name>PT2592</name></trkpt>
<trkpt lat="51.601691" lon="03.842409"><ele>3.1</ele><time>2022-11-16T11:43:02Z</time><name>PT2593</name></trkpt>
<trkpt lat="51.601689" lon="03.842401"><ele>3.1</ele><time>2022-11-16T11:43:03Z</time><name>PT2594</name></trkpt>
<trkpt lat="51.601690" lon="03.842389"><ele>3</ele><time>2022-11-16T11:43:04Z</time><name>PT2595</name></trkpt>
<trkpt lat="51.601692" lon="03.842376"><ele>3</ele><time>2022-11-16T11:43:05Z</time><name>PT2596</name></trkpt>
<trkpt lat="51.601695" lon="03.842362"><ele>3</ele><time>2022-11-16T11:43:06Z</time><name>PT2597</name></trkpt>
<trkpt lat="51.601697" lon="03.842344"><ele>2.9</ele><time>2022-11-16T11:43:07Z</time><name>PT2598</name></trkpt>
<trkpt lat="51.601701" lon="03.842322"><ele>2.9</ele><time>2022-11-16T11:43:08Z</time><name>PT2599</name></trkpt>
<trkpt lat="51.601706" lon="03.842300"><ele>3.1</ele><time>2022-11-16T11:43:09Z</time><name>PT2600</name></trkpt>
<trkpt lat="51.601709" lon="03.842281"><ele>3.2</ele><time>2022-11-16T11:43:10Z</time><name>PT2601</name></trkpt>
<trkpt lat="51.601711" lon="03.842258"><ele>3.4</ele><time>2022-11-16T11:43:11Z</time><name>PT2602</name></trkpt>
<trkpt lat="51.601714" lon="03.842234"><ele>3.7</ele><time>2022-11-16T11:43:12Z</time><name>PT2603</name></trkpt>
<trkpt lat="51.601716" lon="03.842209"><ele>3.7</ele><time>2022-11-16T11:43:13Z</time><name>PT2604</name></trkpt>
<trkpt lat="51.601717" lon="03.842188"><ele>4</ele><time>2022-11-16T11:43:14Z</time><name>PT2605</name></trkpt>
<trkpt lat="51.601718" lon="03.842170"><ele>4.1</ele><time>2022-11-16T11:43:15Z</time><name>PT2606</name></trkpt>
<trkpt lat="51.601718" lon="03.842153"><ele>4.2</ele><time>2022-11-16T11:43:16Z</time><name>PT2607</name></trkpt>
<trkpt lat="51.601718" lon="03.842137"><ele>4.5</ele><time>2022-11-16T11:43:17Z</time><name>PT2608</name></trkpt>
<trkpt lat="51.601717" lon="03.842124"><ele>4.6</ele><time>2022-11-16T11:43:19Z</time><name>PT2609</name></trkpt>
<trkpt lat="51.601718" lon="03.842113"><ele>4.7</ele><time>2022-11-16T11:43:19Z</time><name>PT2610</name></trkpt>
<trkpt lat="51.601717" lon="03.842107"><ele>4.5</ele><time>2022-11-16T11:43:20Z</time><name>PT2611</name></trkpt>
<trkpt lat="51.601718" lon="03.842101"><ele>4.6</ele><time>2022-11-16T11:43:21Z</time><name>PT2612</name></trkpt>
<trkpt lat="51.601717" lon="03.842089"><ele>4.7</ele><time>2022-11-16T11:43:22Z</time><name>PT2613</name></trkpt>
<trkpt lat="51.601719" lon="03.842072"><ele>4.8</ele><time>2022-11-16T11:43:23Z</time><name>PT2614</name></trkpt>
<trkpt lat="51.601720" lon="03.842048"><ele>5.1</ele><time>2022-11-16T11:43:24Z</time><name>PT2615</name></trkpt>
<trkpt lat="51.601722" lon="03.842021"><ele>5.3</ele><time>2022-11-16T11:43:25Z</time><name>PT2616</name></trkpt>
<trkpt lat="51.601723" lon="03.841997"><ele>5.3</ele><time>2022-11-16T11:43:26Z</time><name>PT2617</name></trkpt>
<trkpt lat="51.601723" lon="03.841976"><ele>5.3</ele><time>2022-11-16T11:43:27Z</time><name>PT2618</name></trkpt>
<trkpt lat="51.601724" lon="03.841959"><ele>5.2</ele><time>2022-11-16T11:43:28Z</time><name>PT2619</name></trkpt>
<trkpt lat="51.601725" lon="03.841943"><ele>5.3</ele><time>2022-11-16T11:43:29Z</time><name>PT2620</name></trkpt>
<trkpt lat="51.601725" lon="03.841928"><ele>5.3</ele><time>2022-11-16T11:43:30Z</time><name>PT2621</name></trkpt>
<trkpt lat="51.601724" lon="03.841914"><ele>5.2</ele><time>2022-11-16T11:43:31Z</time><name>PT2622</name></trkpt>
<trkpt lat="51.601723" lon="03.841900"><ele>5.3</ele><time>2022-11-16T11:43:32Z</time><name>PT2623</name></trkpt>
<trkpt lat="51.601723" lon="03.841888"><ele>5.3</ele><time>2022-11-16T11:43:33Z</time><name>PT2624</name></trkpt>
<trkpt lat="51.601722" lon="03.841875"><ele>5.4</ele><time>2022-11-16T11:43:34Z</time><name>PT2625</name></trkpt>
<trkpt lat="51.601725" lon="03.841860"><ele>5.3</ele><time>2022-11-16T11:43:35Z</time><name>PT2626</name></trkpt>
<trkpt lat="51.601725" lon="03.841845"><ele>5.5</ele><time>2022-11-16T11:43:36Z</time><name>PT2627</name></trkpt>
<trkpt lat="51.601727" lon="03.841827"><ele>5.5</ele><time>2022-11-16T11:43:37Z</time><name>PT2628</name></trkpt>
<trkpt lat="51.601731" lon="03.841806"><ele>5.5</ele><time>2022-11-16T11:43:38Z</time><name>PT2629</name></trkpt>
<trkpt lat="51.601735" lon="03.841786"><ele>5.3</ele><time>2022-11-16T11:43:39Z</time><name>PT2630</name></trkpt>
<trkpt lat="51.601742" lon="03.841764"><ele>5.3</ele><time>2022-11-16T11:43:40Z</time><name>PT2631</name></trkpt>
<trkpt lat="51.601749" lon="03.841740"><ele>2</ele><time>2022-11-16T11:43:41Z</time><name>PT2632</name></trkpt>
<trkpt lat="51.601754" lon="03.841717"><ele>1.9</ele><time>2022-11-16T11:43:42Z</time><name>PT2633</name></trkpt>
<trkpt lat="51.601758" lon="03.841697"><ele>1.8</ele><time>2022-11-16T11:43:43Z</time><name>PT2634</name></trkpt>
<trkpt lat="51.601764" lon="03.841681"><ele>1.9</ele><time>2022-11-16T11:43:44Z</time><name>PT2635</name></trkpt>
<trkpt lat="51.601769" lon="03.841669"><ele>1.6</ele><time>2022-11-16T11:43:45Z</time><name>PT2636</name></trkpt>
<trkpt lat="51.601771" lon="03.841658"><ele>1.4</ele><time>2022-11-16T11:43:46Z</time><name>PT2637</name></trkpt>
<trkpt lat="51.601775" lon="03.841649"><ele>1.4</ele><time>2022-11-16T11:43:47Z</time><name>PT2638</name></trkpt>
<trkpt lat="51.601777" lon="03.841641"><ele>1.5</ele><time>2022-11-16T11:43:48Z</time><name>PT2639</name></trkpt>
<trkpt lat="51.601783" lon="03.841632"><ele>1.6</ele><time>2022-11-16T11:43:49Z</time><name>PT2640</name></trkpt>
<trkpt lat="51.601792" lon="03.841632"><ele>1.8</ele><time>2022-11-16T11:43:50Z</time><name>PT2641</name></trkpt>
<trkpt lat="51.601804" lon="03.841622"><ele>2</ele><time>2022-11-16T11:43:51Z</time><name>PT2642</name></trkpt>
<trkpt lat="51.601817" lon="03.841609"><ele>2</ele><time>2022-11-16T11:43:52Z</time><name>PT2643</name></trkpt>
<trkpt lat="51.601830" lon="03.841598"><ele>1.9</ele><time>2022-11-16T11:43:53Z</time><name>PT2644</name></trkpt>
<trkpt lat="51.601842" lon="03.841586"><ele>2</ele><time>2022-11-16T11:43:54Z</time><name>PT2645</name></trkpt>
<trkpt lat="51.601853" lon="03.841575"><ele>1.9</ele><time>2022-11-16T11:43:55Z</time><name>PT2646</name></trkpt>
<trkpt lat="51.601861" lon="03.841563"><ele>1.9</ele><time>2022-11-16T11:43:56Z</time><name>PT2647</name></trkpt>
<trkpt lat="51.601869" lon="03.841552"><ele>1.9</ele><time>2022-11-16T11:43:57Z</time><name>PT2648</name></trkpt>
<trkpt lat="51.601876" lon="03.841544"><ele>1.9</ele><time>2022-11-16T11:43:58Z</time><name>PT2649</name></trkpt>
<trkpt lat="51.601883" lon="03.841534"><ele>1.9</ele><time>2022-11-16T11:43:59Z</time><name>PT2650</name></trkpt>
<trkpt lat="51.601889" lon="03.841525"><ele>1.6</ele><time>2022-11-16T11:44:00Z</time><name>PT2651</name></trkpt>
<trkpt lat="51.601894" lon="03.841517"><ele>1.5</ele><time>2022-11-16T11:44:01Z</time><name>PT2652</name></trkpt>
<trkpt lat="51.601900" lon="03.841512"><ele>1.7</ele><time>2022-11-16T11:44:02Z</time><name>PT2653</name></trkpt>
<trkpt lat="51.601909" lon="03.841506"><ele>1.4</ele><time>2022-11-16T11:44:03Z</time><name>PT2654</name></trkpt>
<trkpt lat="51.601919" lon="03.841506"><ele>1.3</ele><time>2022-11-16T11:44:04Z</time><name>PT2655</name></trkpt>
<trkpt lat="51.601935" lon="03.841501"><ele>1.4</ele><time>2022-11-16T11:44:05Z</time><name>PT2656</name></trkpt>
<trkpt lat="51.601947" lon="03.841496"><ele>1.5</ele><time>2022-11-16T11:44:06Z</time><name>PT2657</name></trkpt>
<trkpt lat="51.601958" lon="03.841489"><ele>1.6</ele><time>2022-11-16T11:44:07Z</time><name>PT2658</name></trkpt>
<trkpt lat="51.601968" lon="03.841481"><ele>2.1</ele><time>2022-11-16T11:44:08Z</time><name>PT2659</name></trkpt>
<trkpt lat="51.601980" lon="03.841473"><ele>2.5</ele><time>2022-11-16T11:44:09Z</time><name>PT2660</name></trkpt>
<trkpt lat="51.601992" lon="03.841463"><ele>2.4</ele><time>2022-11-16T11:44:10Z</time><name>PT2661</name></trkpt>
<trkpt lat="51.601999" lon="03.841456"><ele>2.3</ele><time>2022-11-16T11:44:11Z</time><name>PT2662</name></trkpt>
<trkpt lat="51.602006" lon="03.841454"><ele>2.2</ele><time>2022-11-16T11:44:12Z</time><name>PT2663</name></trkpt>
<trkpt lat="51.602011" lon="03.841448"><ele>2.1</ele><time>2022-11-16T11:44:13Z</time><name>PT2664</name></trkpt>
<trkpt lat="51.602016" lon="03.841442"><ele>2</ele><time>2022-11-16T11:44:14Z</time><name>PT2665</name></trkpt>
<trkpt lat="51.602022" lon="03.841434"><ele>2</ele><time>2022-11-16T11:44:15Z</time><name>PT2666</name></trkpt>
<trkpt lat="51.602028" lon="03.841430"><ele>1.9</ele><time>2022-11-16T11:44:16Z</time><name>PT2667</name></trkpt>
<trkpt lat="51.602036" lon="03.841427"><ele>1.6</ele><time>2022-11-16T11:44:17Z</time><name>PT2668</name></trkpt>
<trkpt lat="51.602048" lon="03.841421"><ele>1.4</ele><time>2022-11-16T11:44:18Z</time><name>PT2669</name></trkpt>
<trkpt lat="51.602060" lon="03.841413"><ele>1.3</ele><time>2022-11-16T11:44:19Z</time><name>PT2670</name></trkpt>
<trkpt lat="51.602074" lon="03.841401"><ele>1.1</ele><time>2022-11-16T11:44:20Z</time><name>PT2671</name></trkpt>
<trkpt lat="51.602087" lon="03.841391"><ele>1.2</ele><time>2022-11-16T11:44:21Z</time><name>PT2672</name></trkpt>
<trkpt lat="51.602099" lon="03.841383"><ele>1.3</ele><time>2022-11-16T11:44:22Z</time><name>PT2673</name></trkpt>
<trkpt lat="51.602108" lon="03.841373"><ele>1.4</ele><time>2022-11-16T11:44:23Z</time><name>PT2674</name></trkpt>
<trkpt lat="51.602116" lon="03.841365"><ele>1.5</ele><time>2022-11-16T11:44:24Z</time><name>PT2675</name></trkpt>
<trkpt lat="51.602125" lon="03.841356"><ele>1.6</ele><time>2022-11-16T11:44:25Z</time><name>PT2676</name></trkpt>
<trkpt lat="51.602132" lon="03.841350"><ele>1.5</ele><time>2022-11-16T11:44:26Z</time><name>PT2677</name></trkpt>
<trkpt lat="51.602139" lon="03.841345"><ele>1.6</ele><time>2022-11-16T11:44:27Z</time><name>PT2678</name></trkpt>
<trkpt lat="51.602147" lon="03.841337"><ele>1.6</ele><time>2022-11-16T11:44:28Z</time><name>PT2679</name></trkpt>
<trkpt lat="51.602156" lon="03.841333"><ele>1.5</ele><time>2022-11-16T11:44:30Z</time><name>PT2680</name></trkpt>
<trkpt lat="51.602167" lon="03.841327"><ele>1.5</ele><time>2022-11-16T11:44:30Z</time><name>PT2681</name></trkpt>
<trkpt lat="51.602178" lon="03.841319"><ele>1.5</ele><time>2022-11-16T11:44:31Z</time><name>PT2682</name></trkpt>
<trkpt lat="51.602192" lon="03.841311"><ele>1.5</ele><time>2022-11-16T11:44:32Z</time><name>PT2683</name></trkpt>
<trkpt lat="51.602206" lon="03.841302"><ele>1.4</ele><time>2022-11-16T11:44:33Z</time><name>PT2684</name></trkpt>
<trkpt lat="51.602218" lon="03.841292"><ele>1.5</ele><time>2022-11-16T11:44:34Z</time><name>PT2685</name></trkpt>
<trkpt lat="51.602228" lon="03.841281"><ele>1.5</ele><time>2022-11-16T11:44:35Z</time><name>PT2686</name></trkpt>
<trkpt lat="51.602237" lon="03.841270"><ele>1.5</ele><time>2022-11-16T11:44:36Z</time><name>PT2687</name></trkpt>
<trkpt lat="51.602243" lon="03.841261"><ele>1.4</ele><time>2022-11-16T11:44:37Z</time><name>PT2688</name></trkpt>
<trkpt lat="51.602249" lon="03.841255"><ele>1.5</ele><time>2022-11-16T11:44:38Z</time><name>PT2689</name></trkpt>
<trkpt lat="51.602255" lon="03.841253"><ele>1.6</ele><time>2022-11-16T11:44:39Z</time><name>PT2690</name></trkpt>
<trkpt lat="51.602262" lon="03.841253"><ele>1.6</ele><time>2022-11-16T11:44:40Z</time><name>PT2691</name></trkpt>
<trkpt lat="51.602272" lon="03.841249"><ele>1.6</ele><time>2022-11-16T11:44:41Z</time><name>PT2692</name></trkpt>
<trkpt lat="51.602285" lon="03.841242"><ele>1.5</ele><time>2022-11-16T11:44:42Z</time><name>PT2693</name></trkpt>
<trkpt lat="51.602298" lon="03.841237"><ele>1.4</ele><time>2022-11-16T11:44:43Z</time><name>PT2694</name></trkpt>
<trkpt lat="51.602307" lon="03.841229"><ele>1.1</ele><time>2022-11-16T11:44:44Z</time><name>PT2695</name></trkpt>
<trkpt lat="51.602309" lon="03.841226"><ele>0.9</ele><time>2022-11-16T11:44:45Z</time><name>PT2696</name></trkpt>
<trkpt lat="51.602314" lon="03.841225"><ele>1.1</ele><time>2022-11-16T11:44:46Z</time><name>PT2697</name></trkpt>
<trkpt lat="51.602326" lon="03.841223"><ele>1.3</ele><time>2022-11-16T11:44:47Z</time><name>PT2698</name></trkpt>
<trkpt lat="51.602332" lon="03.841218"><ele>1.2</ele><time>2022-11-16T11:44:48Z</time><name>PT2699</name></trkpt>
<trkpt lat="51.602336" lon="03.841214"><ele>1.2</ele><time>2022-11-16T11:44:49Z</time><name>PT2700</name></trkpt>
<trkpt lat="51.602343" lon="03.841211"><ele>1.1</ele><time>2022-11-16T11:44:50Z</time><name>PT2701</name></trkpt>
<trkpt lat="51.602351" lon="03.841206"><ele>1</ele><time>2022-11-16T11:44:51Z</time><name>PT2702</name></trkpt>
<trkpt lat="51.602358" lon="03.841204"><ele>1.1</ele><time>2022-11-16T11:44:52Z</time><name>PT2703</name></trkpt>
<trkpt lat="51.602362" lon="03.841204"><ele>1.2</ele><time>2022-11-16T11:44:53Z</time><name>PT2704</name></trkpt>
<trkpt lat="51.602372" lon="03.841204"><ele>1.4</ele><time>2022-11-16T11:44:54Z</time><name>PT2705</name></trkpt>
<trkpt lat="51.602387" lon="03.841206"><ele>1.4</ele><time>2022-11-16T11:44:55Z</time><name>PT2706</name></trkpt>
<trkpt lat="51.602404" lon="03.841201"><ele>1.2</ele><time>2022-11-16T11:44:56Z</time><name>PT2707</name></trkpt>
<trkpt lat="51.602418" lon="03.841193"><ele>1.4</ele><time>2022-11-16T11:44:57Z</time><name>PT2708</name></trkpt>
<trkpt lat="51.602425" lon="03.841189"><ele>1.4</ele><time>2022-11-16T11:44:58Z</time><name>PT2709</name></trkpt>
<trkpt lat="51.602434" lon="03.841183"><ele>1.5</ele><time>2022-11-16T11:44:59Z</time><name>PT2710</name></trkpt>
<trkpt lat="51.602442" lon="03.841179"><ele>2</ele><time>2022-11-16T11:45:00Z</time><name>PT2711</name></trkpt>
<trkpt lat="51.602452" lon="03.841175"><ele>2.3</ele><time>2022-11-16T11:45:01Z</time><name>PT2712</name></trkpt>
<trkpt lat="51.602465" lon="03.841169"><ele>2.4</ele><time>2022-11-16T11:45:02Z</time><name>PT2713</name></trkpt>
<trkpt lat="51.602475" lon="03.841164"><ele>2.4</ele><time>2022-11-16T11:45:03Z</time><name>PT2714</name></trkpt>
<trkpt lat="51.602483" lon="03.841160"><ele>2.5</ele><time>2022-11-16T11:45:04Z</time><name>PT2715</name></trkpt>
<trkpt lat="51.602493" lon="03.841152"><ele>2.4</ele><time>2022-11-16T11:45:05Z</time><name>PT2716</name></trkpt>
<trkpt lat="51.602502" lon="03.841148"><ele>2.5</ele><time>2022-11-16T11:45:06Z</time><name>PT2717</name></trkpt>
<trkpt lat="51.602512" lon="03.841147"><ele>2.4</ele><time>2022-11-16T11:45:07Z</time><name>PT2718</name></trkpt>
<trkpt lat="51.602521" lon="03.841147"><ele>2.3</ele><time>2022-11-16T11:45:08Z</time><name>PT2719</name></trkpt>
<trkpt lat="51.602530" lon="03.841144"><ele>2.2</ele><time>2022-11-16T11:45:09Z</time><name>PT2720</name></trkpt>
<trkpt lat="51.602536" lon="03.841140"><ele>2.4</ele><time>2022-11-16T11:45:10Z</time><name>PT2721</name></trkpt>
<trkpt lat="51.602544" lon="03.841137"><ele>2.3</ele><time>2022-11-16T11:45:11Z</time><name>PT2722</name></trkpt>
<trkpt lat="51.602554" lon="03.841133"><ele>2.3</ele><time>2022-11-16T11:45:12Z</time><name>PT2723</name></trkpt>
<trkpt lat="51.602566" lon="03.841128"><ele>2.3</ele><time>2022-11-16T11:45:13Z</time><name>PT2724</name></trkpt>
<trkpt lat="51.602573" lon="03.841129"><ele>2.2</ele><time>2022-11-16T11:45:14Z</time><name>PT2725</name></trkpt>
<trkpt lat="51.602574" lon="03.841132"><ele>2</ele><time>2022-11-16T11:45:15Z</time><name>PT2726</name></trkpt>
<trkpt lat="51.602576" lon="03.841134"><ele>1.9</ele><time>2022-11-16T11:45:16Z</time><name>PT2727</name></trkpt>
<trkpt lat="51.602580" lon="03.841138"><ele>1.9</ele><time>2022-11-16T11:45:17Z</time><name>PT2728</name></trkpt>
<trkpt lat="51.602584" lon="03.841142"><ele>1.9</ele><time>2022-11-16T11:45:18Z</time><name>PT2729</name></trkpt>
<trkpt lat="51.602588" lon="03.841140"><ele>1.8</ele><time>2022-11-16T11:45:19Z</time><name>PT2730</name></trkpt>
<trkpt lat="51.602594" lon="03.841135"><ele>1.5</ele><time>2022-11-16T11:45:20Z</time><name>PT2731</name></trkpt>
<trkpt lat="51.602601" lon="03.841131"><ele>1.7</ele><time>2022-11-16T11:45:21Z</time><name>PT2732</name></trkpt>
<trkpt lat="51.602607" lon="03.841125"><ele>1.6</ele><time>2022-11-16T11:45:22Z</time><name>PT2733</name></trkpt>
<trkpt lat="51.602616" lon="03.841116"><ele>1.4</ele><time>2022-11-16T11:45:23Z</time><name>PT2734</name></trkpt>
<trkpt lat="51.602624" lon="03.841106"><ele>1.6</ele><time>2022-11-16T11:45:24Z</time><name>PT2735</name></trkpt>
<trkpt lat="51.602629" lon="03.841099"><ele>1.6</ele><time>2022-11-16T11:45:25Z</time><name>PT2736</name></trkpt>
<trkpt lat="51.602632" lon="03.841092"><ele>1.4</ele><time>2022-11-16T11:45:26Z</time><name>PT2737</name></trkpt>
<trkpt lat="51.602640" lon="03.841084"><ele>1.4</ele><time>2022-11-16T11:45:27Z</time><name>PT2738</name></trkpt>
<trkpt lat="51.602649" lon="03.841076"><ele>1.5</ele><time>2022-11-16T11:45:28Z</time><name>PT2739</name></trkpt>
<trkpt lat="51.602655" lon="03.841068"><ele>1.4</ele><time>2022-11-16T11:45:29Z</time><name>PT2740</name></trkpt>
<trkpt lat="51.602660" lon="03.841063"><ele>1.5</ele><time>2022-11-16T11:45:30Z</time><name>PT2741</name></trkpt>
<trkpt lat="51.602665" lon="03.841059"><ele>1.4</ele><time>2022-11-16T11:45:31Z</time><name>PT2742</name></trkpt>
<trkpt lat="51.602672" lon="03.841051"><ele>1.6</ele><time>2022-11-16T11:45:32Z</time><name>PT2743</name></trkpt>
<trkpt lat="51.602684" lon="03.841045"><ele>1.6</ele><time>2022-11-16T11:45:33Z</time><name>PT2744</name></trkpt>
<trkpt lat="51.602693" lon="03.841037"><ele>1.7</ele><time>2022-11-16T11:45:34Z</time><name>PT2745</name></trkpt>
<trkpt lat="51.602699" lon="03.841029"><ele>1.5</ele><time>2022-11-16T11:45:35Z</time><name>PT2746</name></trkpt>
<trkpt lat="51.602703" lon="03.841025"><ele>1.7</ele><time>2022-11-16T11:45:36Z</time><name>PT2747</name></trkpt>
<trkpt lat="51.602709" lon="03.841022"><ele>1.7</ele><time>2022-11-16T11:45:37Z</time><name>PT2748</name></trkpt>
<trkpt lat="51.602718" lon="03.841014"><ele>1.6</ele><time>2022-11-16T11:45:38Z</time><name>PT2749</name></trkpt>
<trkpt lat="51.602727" lon="03.841007"><ele>1.8</ele><time>2022-11-16T11:45:39Z</time><name>PT2750</name></trkpt>
<trkpt lat="51.602732" lon="03.841001"><ele>1.8</ele><time>2022-11-16T11:45:40Z</time><name>PT2751</name></trkpt>
<trkpt lat="51.602736" lon="03.840998"><ele>1.7</ele><time>2022-11-16T11:45:41Z</time><name>PT2752</name></trkpt>
<trkpt lat="51.602740" lon="03.840992"><ele>2</ele><time>2022-11-16T11:45:42Z</time><name>PT2753</name></trkpt>
<trkpt lat="51.602751" lon="03.840985"><ele>1.8</ele><time>2022-11-16T11:45:43Z</time><name>PT2754</name></trkpt>
<trkpt lat="51.602764" lon="03.840974"><ele>2</ele><time>2022-11-16T11:45:44Z</time><name>PT2755</name></trkpt>
<trkpt lat="51.602773" lon="03.840964"><ele>1.9</ele><time>2022-11-16T11:45:45Z</time><name>PT2756</name></trkpt>
<trkpt lat="51.602776" lon="03.840958"><ele>1.7</ele><time>2022-11-16T11:45:46Z</time><name>PT2757</name></trkpt>
<trkpt lat="51.602781" lon="03.840953"><ele>1.6</ele><time>2022-11-16T11:45:47Z</time><name>PT2758</name></trkpt>
<trkpt lat="51.602789" lon="03.840948"><ele>1.7</ele><time>2022-11-16T11:45:48Z</time><name>PT2759</name></trkpt>
<trkpt lat="51.602799" lon="03.840944"><ele>1.5</ele><time>2022-11-16T11:45:49Z</time><name>PT2760</name></trkpt>
<trkpt lat="51.602809" lon="03.840934"><ele>1.6</ele><time>2022-11-16T11:45:50Z</time><name>PT2761</name></trkpt>
<trkpt lat="51.602816" lon="03.840925"><ele>1.7</ele><time>2022-11-16T11:45:51Z</time><name>PT2762</name></trkpt>
<trkpt lat="51.602820" lon="03.840920"><ele>1.7</ele><time>2022-11-16T11:45:52Z</time><name>PT2763</name></trkpt>
<trkpt lat="51.602828" lon="03.840910"><ele>1.6</ele><time>2022-11-16T11:45:53Z</time><name>PT2764</name></trkpt>
<trkpt lat="51.602838" lon="03.840903"><ele>1.9</ele><time>2022-11-16T11:45:54Z</time><name>PT2765</name></trkpt>
<trkpt lat="51.602846" lon="03.840895"><ele>1.8</ele><time>2022-11-16T11:45:55Z</time><name>PT2766</name></trkpt>
<trkpt lat="51.602851" lon="03.840888"><ele>1.9</ele><time>2022-11-16T11:45:56Z</time><name>PT2767</name></trkpt>
<trkpt lat="51.602859" lon="03.840883"><ele>1.9</ele><time>2022-11-16T11:45:57Z</time><name>PT2768</name></trkpt>
<trkpt lat="51.602869" lon="03.840877"><ele>1.9</ele><time>2022-11-16T11:45:58Z</time><name>PT2769</name></trkpt>
<trkpt lat="51.602878" lon="03.840869"><ele>1.4</ele><time>2022-11-16T11:45:59Z</time><name>PT2770</name></trkpt>
<trkpt lat="51.602883" lon="03.840861"><ele>1.3</ele><time>2022-11-16T11:46:00Z</time><name>PT2771</name></trkpt>
<trkpt lat="51.602887" lon="03.840855"><ele>1.1</ele><time>2022-11-16T11:46:01Z</time><name>PT2772</name></trkpt>
<trkpt lat="51.602892" lon="03.840852"><ele>0.9</ele><time>2022-11-16T11:46:02Z</time><name>PT2773</name></trkpt>
<trkpt lat="51.602904" lon="03.840847"><ele>0.8</ele><time>2022-11-16T11:46:03Z</time><name>PT2774</name></trkpt>
<trkpt lat="51.602915" lon="03.840839"><ele>1</ele><time>2022-11-16T11:46:04Z</time><name>PT2775</name></trkpt>
<trkpt lat="51.602924" lon="03.840832"><ele>1.3</ele><time>2022-11-16T11:46:05Z</time><name>PT2776</name></trkpt>
<trkpt lat="51.602931" lon="03.840827"><ele>1.3</ele><time>2022-11-16T11:46:06Z</time><name>PT2777</name></trkpt>
<trkpt lat="51.602935" lon="03.840824"><ele>1.6</ele><time>2022-11-16T11:46:07Z</time><name>PT2778</name></trkpt>
<trkpt lat="51.602934" lon="03.840826"><ele>2.5</ele><time>2022-11-16T11:46:08Z</time><name>PT2779</name></trkpt>
<trkpt lat="51.602936" lon="03.840825"><ele>3.2</ele><time>2022-11-16T11:46:09Z</time><name>PT2780</name></trkpt>
<trkpt lat="51.602935" lon="03.840827"><ele>3.4</ele><time>2022-11-16T11:46:10Z</time><name>PT2781</name></trkpt>
<trkpt lat="51.602937" lon="03.840827"><ele>4.1</ele><time>2022-11-16T11:46:11Z</time><name>PT2782</name></trkpt>
<trkpt lat="51.602939" lon="03.840826"><ele>3.8</ele><time>2022-11-16T11:46:12Z</time><name>PT2783</name></trkpt>
<trkpt lat="51.602936" lon="03.840832"><ele>3.7</ele><time>2022-11-16T11:46:13Z</time><name>PT2784</name></trkpt>
<trkpt lat="51.602931" lon="03.840835"><ele>3.7</ele><time>2022-11-16T11:46:14Z</time><name>PT2785</name></trkpt>
<trkpt lat="51.602930" lon="03.840836"><ele>4</ele><time>2022-11-16T11:46:15Z</time><name>PT2786</name></trkpt>
<trkpt lat="51.602929" lon="03.840836"><ele>4.1</ele><time>2022-11-16T11:46:16Z</time><name>PT2787</name></trkpt>
<trkpt lat="51.602929" lon="03.840836"><ele>4.3</ele><time>2022-11-16T11:46:17Z</time><name>PT2788</name></trkpt>
<trkpt lat="51.602929" lon="03.840841"><ele>3.2</ele><time>2022-11-16T11:46:23Z</time><name>PT2789</name></trkpt>
<trkpt lat="51.602928" lon="03.840841"><ele>3.2</ele><time>2022-11-16T11:46:24Z</time><name>PT2790</name></trkpt>
<trkpt lat="51.602929" lon="03.840839"><ele>3.5</ele><time>2022-11-16T11:46:25Z</time><name>PT2791</name></trkpt>
<trkpt lat="51.602931" lon="03.840832"><ele>3.1</ele><time>2022-11-16T11:47:16Z</time><name>PT2792</name></trkpt>
<trkpt lat="51.602940" lon="03.840815"><ele>2.8</ele><time>2022-11-16T11:47:17Z</time><name>PT2793</name></trkpt>
<trkpt lat="51.602949" lon="03.840803"><ele>2.6</ele><time>2022-11-16T11:47:18Z</time><name>PT2794</name></trkpt>
<trkpt lat="51.602957" lon="03.840790"><ele>2.5</ele><time>2022-11-16T11:47:19Z</time><name>PT2795</name></trkpt>
<trkpt lat="51.602962" lon="03.840788"><ele>2.5</ele><time>2022-11-16T11:47:20Z</time><name>PT2796</name></trkpt>
<trkpt lat="51.602963" lon="03.840787"><ele>2.8</ele><time>2022-11-16T11:47:21Z</time><name>PT2797</name></trkpt>
<trkpt lat="51.602962" lon="03.840787"><ele>2.8</ele><time>2022-11-16T11:47:22Z</time><name>PT2798</name></trkpt>
<trkpt lat="51.602961" lon="03.840784"><ele>2.9</ele><time>2022-11-16T11:47:23Z</time><name>PT2799</name></trkpt>
<trkpt lat="51.602968" lon="03.840781"><ele>2.9</ele><time>2022-11-16T11:47:30Z</time><name>PT2800</name></trkpt>
<trkpt lat="51.602978" lon="03.840773"><ele>2.8</ele><time>2022-11-16T11:47:31Z</time><name>PT2801</name></trkpt>
<trkpt lat="51.602986" lon="03.840767"><ele>2.8</ele><time>2022-11-16T11:47:32Z</time><name>PT2802</name></trkpt>
<trkpt lat="51.602994" lon="03.840755"><ele>2.8</ele><time>2022-11-16T11:47:33Z</time><name>PT2803</name></trkpt>
<trkpt lat="51.603002" lon="03.840744"><ele>2.7</ele><time>2022-11-16T11:47:34Z</time><name>PT2804</name></trkpt>
<trkpt lat="51.603013" lon="03.840735"><ele>2.8</ele><time>2022-11-16T11:47:35Z</time><name>PT2805</name></trkpt>
<trkpt lat="51.603023" lon="03.840724"><ele>2.8</ele><time>2022-11-16T11:47:36Z</time><name>PT2806</name></trkpt>
<trkpt lat="51.603036" lon="03.840710"><ele>2.8</ele><time>2022-11-16T11:47:37Z</time><name>PT2807</name></trkpt>
<trkpt lat="51.603046" lon="03.840702"><ele>2.9</ele><time>2022-11-16T11:47:38Z</time><name>PT2808</name></trkpt>
<trkpt lat="51.603055" lon="03.840692"><ele>2.9</ele><time>2022-11-16T11:47:40Z</time><name>PT2809</name></trkpt>
<trkpt lat="51.603066" lon="03.840683"><ele>3</ele><time>2022-11-16T11:47:40Z</time><name>PT2810</name></trkpt>
<trkpt lat="51.603074" lon="03.840678"><ele>3.1</ele><time>2022-11-16T11:47:41Z</time><name>PT2811</name></trkpt>
<trkpt lat="51.603081" lon="03.840673"><ele>3.2</ele><time>2022-11-16T11:47:42Z</time><name>PT2812</name></trkpt>
<trkpt lat="51.603089" lon="03.840667"><ele>3.2</ele><time>2022-11-16T11:47:43Z</time><name>PT2813</name></trkpt>
<trkpt lat="51.603098" lon="03.840659"><ele>3.1</ele><time>2022-11-16T11:47:44Z</time><name>PT2814</name></trkpt>
<trkpt lat="51.603108" lon="03.840653"><ele>3.2</ele><time>2022-11-16T11:47:45Z</time><name>PT2815</name></trkpt>
<trkpt lat="51.603117" lon="03.840649"><ele>3</ele><time>2022-11-16T11:47:46Z</time><name>PT2816</name></trkpt>
<trkpt lat="51.603123" lon="03.840643"><ele>3</ele><time>2022-11-16T11:47:47Z</time><name>PT2817</name></trkpt>
<trkpt lat="51.603130" lon="03.840633"><ele>3.2</ele><time>2022-11-16T11:47:48Z</time><name>PT2818</name></trkpt>
<trkpt lat="51.603138" lon="03.840621"><ele>3.3</ele><time>2022-11-16T11:47:49Z</time><name>PT2819</name></trkpt>
<trkpt lat="51.603147" lon="03.840610"><ele>3.3</ele><time>2022-11-16T11:47:50Z</time><name>PT2820</name></trkpt>
<trkpt lat="51.603156" lon="03.840601"><ele>3.5</ele><time>2022-11-16T11:47:51Z</time><name>PT2821</name></trkpt>
<trkpt lat="51.603167" lon="03.840592"><ele>3.5</ele><time>2022-11-16T11:47:52Z</time><name>PT2822</name></trkpt>
<trkpt lat="51.603175" lon="03.840586"><ele>3.5</ele><time>2022-11-16T11:47:53Z</time><name>PT2823</name></trkpt>
<trkpt lat="51.603184" lon="03.840579"><ele>3.5</ele><time>2022-11-16T11:47:54Z</time><name>PT2824</name></trkpt>
<trkpt lat="51.603193" lon="03.840574"><ele>3.6</ele><time>2022-11-16T11:47:55Z</time><name>PT2825</name></trkpt>
<trkpt lat="51.603204" lon="03.840569"><ele>3.5</ele><time>2022-11-16T11:47:56Z</time><name>PT2826</name></trkpt>
<trkpt lat="51.603215" lon="03.840563"><ele>3.5</ele><time>2022-11-16T11:47:57Z</time><name>PT2827</name></trkpt>
<trkpt lat="51.603226" lon="03.840555"><ele>3.5</ele><time>2022-11-16T11:47:58Z</time><name>PT2828</name></trkpt>
<trkpt lat="51.603236" lon="03.840549"><ele>3.4</ele><time>2022-11-16T11:47:59Z</time><name>PT2829</name></trkpt>
<trkpt lat="51.603245" lon="03.840542"><ele>3.1</ele><time>2022-11-16T11:48:00Z</time><name>PT2830</name></trkpt>
<trkpt lat="51.603252" lon="03.840535"><ele>3.2</ele><time>2022-11-16T11:48:01Z</time><name>PT2831</name></trkpt>
<trkpt lat="51.603263" lon="03.840527"><ele>3</ele><time>2022-11-16T11:48:02Z</time><name>PT2832</name></trkpt>
<trkpt lat="51.603273" lon="03.840520"><ele>3</ele><time>2022-11-16T11:48:03Z</time><name>PT2833</name></trkpt>
<trkpt lat="51.603284" lon="03.840512"><ele>3</ele><time>2022-11-16T11:48:04Z</time><name>PT2834</name></trkpt>
<trkpt lat="51.603294" lon="03.840500"><ele>2.9</ele><time>2022-11-16T11:48:05Z</time><name>PT2835</name></trkpt>
<trkpt lat="51.603303" lon="03.840491"><ele>2.9</ele><time>2022-11-16T11:48:06Z</time><name>PT2836</name></trkpt>
<trkpt lat="51.603311" lon="03.840483"><ele>2.9</ele><time>2022-11-16T11:48:07Z</time><name>PT2837</name></trkpt>
<trkpt lat="51.603320" lon="03.840476"><ele>2.9</ele><time>2022-11-16T11:48:08Z</time><name>PT2838</name></trkpt>
<trkpt lat="51.603329" lon="03.840470"><ele>2.7</ele><time>2022-11-16T11:48:09Z</time><name>PT2839</name></trkpt>
<trkpt lat="51.603338" lon="03.840467"><ele>2.7</ele><time>2022-11-16T11:48:10Z</time><name>PT2840</name></trkpt>
<trkpt lat="51.603349" lon="03.840463"><ele>2.6</ele><time>2022-11-16T11:48:11Z</time><name>PT2841</name></trkpt>
<trkpt lat="51.603357" lon="03.840458"><ele>2.5</ele><time>2022-11-16T11:48:12Z</time><name>PT2842</name></trkpt>
<trkpt lat="51.603365" lon="03.840452"><ele>2.4</ele><time>2022-11-16T11:48:13Z</time><name>PT2843</name></trkpt>
<trkpt lat="51.603375" lon="03.840444"><ele>2.5</ele><time>2022-11-16T11:48:14Z</time><name>PT2844</name></trkpt>
<trkpt lat="51.603385" lon="03.840435"><ele>2.6</ele><time>2022-11-16T11:48:15Z</time><name>PT2845</name></trkpt>
<trkpt lat="51.603393" lon="03.840426"><ele>2.5</ele><time>2022-11-16T11:48:16Z</time><name>PT2846</name></trkpt>
<trkpt lat="51.603401" lon="03.840418"><ele>2.7</ele><time>2022-11-16T11:48:17Z</time><name>PT2847</name></trkpt>
<trkpt lat="51.603408" lon="03.840410"><ele>2.8</ele><time>2022-11-16T11:48:18Z</time><name>PT2848</name></trkpt>
<trkpt lat="51.603416" lon="03.840404"><ele>2.9</ele><time>2022-11-16T11:48:19Z</time><name>PT2849</name></trkpt>
<trkpt lat="51.603425" lon="03.840400"><ele>2.7</ele><time>2022-11-16T11:48:20Z</time><name>PT2850</name></trkpt>
<trkpt lat="51.603434" lon="03.840393"><ele>2.8</ele><time>2022-11-16T11:48:21Z</time><name>PT2851</name></trkpt>
<trkpt lat="51.603443" lon="03.840387"><ele>2.7</ele><time>2022-11-16T11:48:22Z</time><name>PT2852</name></trkpt>
<trkpt lat="51.603451" lon="03.840380"><ele>2.7</ele><time>2022-11-16T11:48:23Z</time><name>PT2853</name></trkpt>
<trkpt lat="51.603461" lon="03.840372"><ele>2.7</ele><time>2022-11-16T11:48:24Z</time><name>PT2854</name></trkpt>
<trkpt lat="51.603470" lon="03.840362"><ele>2.8</ele><time>2022-11-16T11:48:25Z</time><name>PT2855</name></trkpt>
<trkpt lat="51.603480" lon="03.840357"><ele>2.8</ele><time>2022-11-16T11:48:26Z</time><name>PT2856</name></trkpt>
<trkpt lat="51.603488" lon="03.840353"><ele>2.8</ele><time>2022-11-16T11:48:27Z</time><name>PT2857</name></trkpt>
<trkpt lat="51.603497" lon="03.840346"><ele>2.8</ele><time>2022-11-16T11:48:28Z</time><name>PT2858</name></trkpt>
<trkpt lat="51.603507" lon="03.840339"><ele>2.7</ele><time>2022-11-16T11:48:29Z</time><name>PT2859</name></trkpt>
<trkpt lat="51.603515" lon="03.840332"><ele>2.7</ele><time>2022-11-16T11:48:30Z</time><name>PT2860</name></trkpt>
<trkpt lat="51.603524" lon="03.840325"><ele>2.7</ele><time>2022-11-16T11:48:31Z</time><name>PT2861</name></trkpt>
<trkpt lat="51.603534" lon="03.840319"><ele>2.6</ele><time>2022-11-16T11:48:32Z</time><name>PT2862</name></trkpt>
<trkpt lat="51.603543" lon="03.840312"><ele>2.7</ele><time>2022-11-16T11:48:33Z</time><name>PT2863</name></trkpt>
<trkpt lat="51.603551" lon="03.840305"><ele>2.8</ele><time>2022-11-16T11:48:34Z</time><name>PT2864</name></trkpt>
<trkpt lat="51.603560" lon="03.840298"><ele>2.8</ele><time>2022-11-16T11:48:35Z</time><name>PT2865</name></trkpt>
<trkpt lat="51.603570" lon="03.840293"><ele>2.8</ele><time>2022-11-16T11:48:36Z</time><name>PT2866</name></trkpt>
<trkpt lat="51.603580" lon="03.840288"><ele>2.9</ele><time>2022-11-16T11:48:37Z</time><name>PT2867</name></trkpt>
<trkpt lat="51.603589" lon="03.840282"><ele>2.9</ele><time>2022-11-16T11:48:38Z</time><name>PT2868</name></trkpt>
<trkpt lat="51.603598" lon="03.840276"><ele>2.8</ele><time>2022-11-16T11:48:39Z</time><name>PT2869</name></trkpt>
<trkpt lat="51.603607" lon="03.840271"><ele>2.9</ele><time>2022-11-16T11:48:40Z</time><name>PT2870</name></trkpt>
<trkpt lat="51.603616" lon="03.840263"><ele>3</ele><time>2022-11-16T11:48:41Z</time><name>PT2871</name></trkpt>
<trkpt lat="51.603625" lon="03.840256"><ele>3.1</ele><time>2022-11-16T11:48:42Z</time><name>PT2872</name></trkpt>
<trkpt lat="51.603634" lon="03.840248"><ele>3.4</ele><time>2022-11-16T11:48:43Z</time><name>PT2873</name></trkpt>
<trkpt lat="51.603642" lon="03.840241"><ele>3.5</ele><time>2022-11-16T11:48:44Z</time><name>PT2874</name></trkpt>
<trkpt lat="51.603650" lon="03.840235"><ele>3.6</ele><time>2022-11-16T11:48:45Z</time><name>PT2875</name></trkpt>
<trkpt lat="51.603659" lon="03.840229"><ele>3.5</ele><time>2022-11-16T11:48:46Z</time><name>PT2876</name></trkpt>
<trkpt lat="51.603668" lon="03.840223"><ele>3.4</ele><time>2022-11-16T11:48:47Z</time><name>PT2877</name></trkpt>
<trkpt lat="51.603676" lon="03.840217"><ele>3.2</ele><time>2022-11-16T11:48:48Z</time><name>PT2878</name></trkpt>
<trkpt lat="51.603686" lon="03.840209"><ele>3</ele><time>2022-11-16T11:48:49Z</time><name>PT2879</name></trkpt>
<trkpt lat="51.603695" lon="03.840201"><ele>3</ele><time>2022-11-16T11:48:50Z</time><name>PT2880</name></trkpt>
<trkpt lat="51.603704" lon="03.840191"><ele>3</ele><time>2022-11-16T11:48:51Z</time><name>PT2881</name></trkpt>
<trkpt lat="51.603711" lon="03.840184"><ele>3</ele><time>2022-11-16T11:48:52Z</time><name>PT2882</name></trkpt>
<trkpt lat="51.603720" lon="03.840178"><ele>2.7</ele><time>2022-11-16T11:48:53Z</time><name>PT2883</name></trkpt>
<trkpt lat="51.603729" lon="03.840175"><ele>2.9</ele><time>2022-11-16T11:48:54Z</time><name>PT2884</name></trkpt>
<trkpt lat="51.603738" lon="03.840169"><ele>2.8</ele><time>2022-11-16T11:48:55Z</time><name>PT2885</name></trkpt>
<trkpt lat="51.603747" lon="03.840161"><ele>2.7</ele><time>2022-11-16T11:48:56Z</time><name>PT2886</name></trkpt>
<trkpt lat="51.603756" lon="03.840153"><ele>3</ele><time>2022-11-16T11:48:57Z</time><name>PT2887</name></trkpt>
<trkpt lat="51.603766" lon="03.840146"><ele>3.2</ele><time>2022-11-16T11:48:58Z</time><name>PT2888</name></trkpt>
<trkpt lat="51.603774" lon="03.840141"><ele>3.4</ele><time>2022-11-16T11:48:59Z</time><name>PT2889</name></trkpt>
<trkpt lat="51.603784" lon="03.840135"><ele>3.5</ele><time>2022-11-16T11:49:00Z</time><name>PT2890</name></trkpt>
<trkpt lat="51.603795" lon="03.840131"><ele>3.6</ele><time>2022-11-16T11:49:01Z</time><name>PT2891</name></trkpt>
<trkpt lat="51.603803" lon="03.840126"><ele>3.5</ele><time>2022-11-16T11:49:02Z</time><name>PT2892</name></trkpt>
<trkpt lat="51.603811" lon="03.840117"><ele>3.3</ele><time>2022-11-16T11:49:03Z</time><name>PT2893</name></trkpt>
<trkpt lat="51.603819" lon="03.840107"><ele>3.2</ele><time>2022-11-16T11:49:04Z</time><name>PT2894</name></trkpt>
<trkpt lat="51.603828" lon="03.840097"><ele>3</ele><time>2022-11-16T11:49:05Z</time><name>PT2895</name></trkpt>
<trkpt lat="51.603836" lon="03.840091"><ele>3</ele><time>2022-11-16T11:49:06Z</time><name>PT2896</name></trkpt>
<trkpt lat="51.603845" lon="03.840085"><ele>3</ele><time>2022-11-16T11:49:07Z</time><name>PT2897</name></trkpt>
<trkpt lat="51.603854" lon="03.840080"><ele>3</ele><time>2022-11-16T11:49:08Z</time><name>PT2898</name></trkpt>
<trkpt lat="51.603862" lon="03.840075"><ele>3</ele><time>2022-11-16T11:49:09Z</time><name>PT2899</name></trkpt>
<trkpt lat="51.603873" lon="03.840068"><ele>2.8</ele><time>2022-11-16T11:49:10Z</time><name>PT2900</name></trkpt>
<trkpt lat="51.603882" lon="03.840057"><ele>2.8</ele><time>2022-11-16T11:49:11Z</time><name>PT2901</name></trkpt>
<trkpt lat="51.603890" lon="03.840048"><ele>2.6</ele><time>2022-11-16T11:49:12Z</time><name>PT2902</name></trkpt>
<trkpt lat="51.603898" lon="03.840043"><ele>2.6</ele><time>2022-11-16T11:49:13Z</time><name>PT2903</name></trkpt>
<trkpt lat="51.603907" lon="03.840039"><ele>2.8</ele><time>2022-11-16T11:49:14Z</time><name>PT2904</name></trkpt>
<trkpt lat="51.603915" lon="03.840035"><ele>2.9</ele><time>2022-11-16T11:49:15Z</time><name>PT2905</name></trkpt>
<trkpt lat="51.603923" lon="03.840031"><ele>2.7</ele><time>2022-11-16T11:49:16Z</time><name>PT2906</name></trkpt>
<trkpt lat="51.603932" lon="03.840025"><ele>3</ele><time>2022-11-16T11:49:17Z</time><name>PT2907</name></trkpt>
<trkpt lat="51.603940" lon="03.840018"><ele>3</ele><time>2022-11-16T11:49:18Z</time><name>PT2908</name></trkpt>
<trkpt lat="51.603948" lon="03.840011"><ele>3</ele><time>2022-11-16T11:49:19Z</time><name>PT2909</name></trkpt>
<trkpt lat="51.603958" lon="03.840005"><ele>3</ele><time>2022-11-16T11:49:20Z</time><name>PT2910</name></trkpt>
<trkpt lat="51.603968" lon="03.840000"><ele>3</ele><time>2022-11-16T11:49:21Z</time><name>PT2911</name></trkpt>
<trkpt lat="51.603975" lon="03.839994"><ele>3</ele><time>2022-11-16T11:49:22Z</time><name>PT2912</name></trkpt>
<trkpt lat="51.603983" lon="03.839985"><ele>3</ele><time>2022-11-16T11:49:23Z</time><name>PT2913</name></trkpt>
<trkpt lat="51.603994" lon="03.839977"><ele>2.8</ele><time>2022-11-16T11:49:24Z</time><name>PT2914</name></trkpt>
<trkpt lat="51.604003" lon="03.839971"><ele>2.8</ele><time>2022-11-16T11:49:25Z</time><name>PT2915</name></trkpt>
<trkpt lat="51.604012" lon="03.839967"><ele>2.6</ele><time>2022-11-16T11:49:26Z</time><name>PT2916</name></trkpt>
<trkpt lat="51.604020" lon="03.839960"><ele>2.7</ele><time>2022-11-16T11:49:27Z</time><name>PT2917</name></trkpt>
<trkpt lat="51.604029" lon="03.839955"><ele>2.8</ele><time>2022-11-16T11:49:28Z</time><name>PT2918</name></trkpt>
<trkpt lat="51.604037" lon="03.839949"><ele>3</ele><time>2022-11-16T11:49:29Z</time><name>PT2919</name></trkpt>
<trkpt lat="51.604044" lon="03.839943"><ele>3</ele><time>2022-11-16T11:49:30Z</time><name>PT2920</name></trkpt>
<trkpt lat="51.604053" lon="03.839938"><ele>3.1</ele><time>2022-11-16T11:49:31Z</time><name>PT2921</name></trkpt>
<trkpt lat="51.604062" lon="03.839933"><ele>3.1</ele><time>2022-11-16T11:49:32Z</time><name>PT2922</name></trkpt>
<trkpt lat="51.604072" lon="03.839930"><ele>3.2</ele><time>2022-11-16T11:49:33Z</time><name>PT2923</name></trkpt>
<trkpt lat="51.604082" lon="03.839922"><ele>3.2</ele><time>2022-11-16T11:49:34Z</time><name>PT2924</name></trkpt>
<trkpt lat="51.604091" lon="03.839915"><ele>3.3</ele><time>2022-11-16T11:49:35Z</time><name>PT2925</name></trkpt>
<trkpt lat="51.604100" lon="03.839909"><ele>3.2</ele><time>2022-11-16T11:49:36Z</time><name>PT2926</name></trkpt>
<trkpt lat="51.604109" lon="03.839904"><ele>3.4</ele><time>2022-11-16T11:49:37Z</time><name>PT2927</name></trkpt>
<trkpt lat="51.604119" lon="03.839896"><ele>3.2</ele><time>2022-11-16T11:49:38Z</time><name>PT2928</name></trkpt>
<trkpt lat="51.604127" lon="03.839889"><ele>3</ele><time>2022-11-16T11:49:39Z</time><name>PT2929</name></trkpt>
<trkpt lat="51.604137" lon="03.839884"><ele>3</ele><time>2022-11-16T11:49:40Z</time><name>PT2930</name></trkpt>
<trkpt lat="51.604149" lon="03.839881"><ele>3</ele><time>2022-11-16T11:49:41Z</time><name>PT2931</name></trkpt>
<trkpt lat="51.604157" lon="03.839875"><ele>3</ele><time>2022-11-16T11:49:42Z</time><name>PT2932</name></trkpt>
<trkpt lat="51.604165" lon="03.839868"><ele>3.1</ele><time>2022-11-16T11:49:43Z</time><name>PT2933</name></trkpt>
<trkpt lat="51.604175" lon="03.839860"><ele>3.1</ele><time>2022-11-16T11:49:44Z</time><name>PT2934</name></trkpt>
<trkpt lat="51.604183" lon="03.839855"><ele>3.3</ele><time>2022-11-16T11:49:45Z</time><name>PT2935</name></trkpt>
<trkpt lat="51.604191" lon="03.839847"><ele>3.3</ele><time>2022-11-16T11:49:46Z</time><name>PT2936</name></trkpt>
<trkpt lat="51.604200" lon="03.839840"><ele>3.3</ele><time>2022-11-16T11:49:47Z</time><name>PT2937</name></trkpt>
<trkpt lat="51.604210" lon="03.839834"><ele>3</ele><time>2022-11-16T11:49:48Z</time><name>PT2938</name></trkpt>
<trkpt lat="51.604219" lon="03.839828"><ele>3</ele><time>2022-11-16T11:49:49Z</time><name>PT2939</name></trkpt>
<trkpt lat="51.604229" lon="03.839821"><ele>2.8</ele><time>2022-11-16T11:49:50Z</time><name>PT2940</name></trkpt>
<trkpt lat="51.604238" lon="03.839812"><ele>2.7</ele><time>2022-11-16T11:49:51Z</time><name>PT2941</name></trkpt>
<trkpt lat="51.604247" lon="03.839805"><ele>2.7</ele><time>2022-11-16T11:49:52Z</time><name>PT2942</name></trkpt>
<trkpt lat="51.604256" lon="03.839798"><ele>2.7</ele><time>2022-11-16T11:49:53Z</time><name>PT2943</name></trkpt>
<trkpt lat="51.604265" lon="03.839791"><ele>2.7</ele><time>2022-11-16T11:49:54Z</time><name>PT2944</name></trkpt>
<trkpt lat="51.604275" lon="03.839784"><ele>2.8</ele><time>2022-11-16T11:49:55Z</time><name>PT2945</name></trkpt>
<trkpt lat="51.604286" lon="03.839781"><ele>2.9</ele><time>2022-11-16T11:49:56Z</time><name>PT2946</name></trkpt>
<trkpt lat="51.604297" lon="03.839777"><ele>2.9</ele><time>2022-11-16T11:49:57Z</time><name>PT2947</name></trkpt>
<trkpt lat="51.604305" lon="03.839770"><ele>2.8</ele><time>2022-11-16T11:49:58Z</time><name>PT2948</name></trkpt>
<trkpt lat="51.604314" lon="03.839762"><ele>2.8</ele><time>2022-11-16T11:49:59Z</time><name>PT2949</name></trkpt>
<trkpt lat="51.604322" lon="03.839754"><ele>2.6</ele><time>2022-11-16T11:50:00Z</time><name>PT2950</name></trkpt>
<trkpt lat="51.604330" lon="03.839747"><ele>2.5</ele><time>2022-11-16T11:50:01Z</time><name>PT2951</name></trkpt>
<trkpt lat="51.604337" lon="03.839742"><ele>2.5</ele><time>2022-11-16T11:50:02Z</time><name>PT2952</name></trkpt>
<trkpt lat="51.604347" lon="03.839736"><ele>2.5</ele><time>2022-11-16T11:50:03Z</time><name>PT2953</name></trkpt>
<trkpt lat="51.604356" lon="03.839732"><ele>2.4</ele><time>2022-11-16T11:50:04Z</time><name>PT2954</name></trkpt>
<trkpt lat="51.604365" lon="03.839727"><ele>2.5</ele><time>2022-11-16T11:50:05Z</time><name>PT2955</name></trkpt>
<trkpt lat="51.604373" lon="03.839721"><ele>2.5</ele><time>2022-11-16T11:50:06Z</time><name>PT2956</name></trkpt>
<trkpt lat="51.604383" lon="03.839712"><ele>2.5</ele><time>2022-11-16T11:50:07Z</time><name>PT2957</name></trkpt>
<trkpt lat="51.604391" lon="03.839702"><ele>2.5</ele><time>2022-11-16T11:50:08Z</time><name>PT2958</name></trkpt>
<trkpt lat="51.604399" lon="03.839694"><ele>2.5</ele><time>2022-11-16T11:50:09Z</time><name>PT2959</name></trkpt>
<trkpt lat="51.604406" lon="03.839687"><ele>2.5</ele><time>2022-11-16T11:50:10Z</time><name>PT2960</name></trkpt>
<trkpt lat="51.604414" lon="03.839678"><ele>2.5</ele><time>2022-11-16T11:50:11Z</time><name>PT2961</name></trkpt>
<trkpt lat="51.604424" lon="03.839669"><ele>2.5</ele><time>2022-11-16T11:50:12Z</time><name>PT2962</name></trkpt>
<trkpt lat="51.604434" lon="03.839663"><ele>2.5</ele><time>2022-11-16T11:50:13Z</time><name>PT2963</name></trkpt>
<trkpt lat="51.604441" lon="03.839657"><ele>2.5</ele><time>2022-11-16T11:50:14Z</time><name>PT2964</name></trkpt>
<trkpt lat="51.604449" lon="03.839647"><ele>2.6</ele><time>2022-11-16T11:50:15Z</time><name>PT2965</name></trkpt>
<trkpt lat="51.604456" lon="03.839636"><ele>2.7</ele><time>2022-11-16T11:50:16Z</time><name>PT2966</name></trkpt>
<trkpt lat="51.604463" lon="03.839627"><ele>2.9</ele><time>2022-11-16T11:50:17Z</time><name>PT2967</name></trkpt>
<trkpt lat="51.604470" lon="03.839618"><ele>2.9</ele><time>2022-11-16T11:50:18Z</time><name>PT2968</name></trkpt>
<trkpt lat="51.604479" lon="03.839611"><ele>2.9</ele><time>2022-11-16T11:50:19Z</time><name>PT2969</name></trkpt>
<trkpt lat="51.604487" lon="03.839604"><ele>3.1</ele><time>2022-11-16T11:50:20Z</time><name>PT2970</name></trkpt>
<trkpt lat="51.604495" lon="03.839595"><ele>3.2</ele><time>2022-11-16T11:50:21Z</time><name>PT2971</name></trkpt>
<trkpt lat="51.604501" lon="03.839586"><ele>3.2</ele><time>2022-11-16T11:50:22Z</time><name>PT2972</name></trkpt>
<trkpt lat="51.604507" lon="03.839573"><ele>3.1</ele><time>2022-11-16T11:50:23Z</time><name>PT2973</name></trkpt>
<trkpt lat="51.604513" lon="03.839561"><ele>3</ele><time>2022-11-16T11:50:24Z</time><name>PT2974</name></trkpt>
<trkpt lat="51.604519" lon="03.839552"><ele>3</ele><time>2022-11-16T11:50:25Z</time><name>PT2975</name></trkpt>
<trkpt lat="51.604527" lon="03.839543"><ele>3</ele><time>2022-11-16T11:50:26Z</time><name>PT2976</name></trkpt>
<trkpt lat="51.604535" lon="03.839532"><ele>3</ele><time>2022-11-16T11:50:27Z</time><name>PT2977</name></trkpt>
<trkpt lat="51.604543" lon="03.839521"><ele>3</ele><time>2022-11-16T11:50:28Z</time><name>PT2978</name></trkpt>
<trkpt lat="51.604549" lon="03.839511"><ele>3</ele><time>2022-11-16T11:50:29Z</time><name>PT2979</name></trkpt>
<trkpt lat="51.604554" lon="03.839503"><ele>3.1</ele><time>2022-11-16T11:50:31Z</time><name>PT2980</name></trkpt>
<trkpt lat="51.604559" lon="03.839491"><ele>3.2</ele><time>2022-11-16T11:50:31Z</time><name>PT2981</name></trkpt>
<trkpt lat="51.604566" lon="03.839477"><ele>3</ele><time>2022-11-16T11:50:32Z</time><name>PT2982</name></trkpt>
<trkpt lat="51.604571" lon="03.839465"><ele>3.1</ele><time>2022-11-16T11:50:33Z</time><name>PT2983</name></trkpt>
<trkpt lat="51.604575" lon="03.839455"><ele>3.3</ele><time>2022-11-16T11:50:34Z</time><name>PT2984</name></trkpt>
<trkpt lat="51.604582" lon="03.839445"><ele>3.5</ele><time>2022-11-16T11:50:35Z</time><name>PT2985</name></trkpt>
<trkpt lat="51.604589" lon="03.839436"><ele>3.8</ele><time>2022-11-16T11:50:36Z</time><name>PT2986</name></trkpt>
<trkpt lat="51.604595" lon="03.839427"><ele>4</ele><time>2022-11-16T11:50:37Z</time><name>PT2987</name></trkpt>
<trkpt lat="51.604598" lon="03.839418"><ele>4.2</ele><time>2022-11-16T11:50:38Z</time><name>PT2988</name></trkpt>
<trkpt lat="51.604601" lon="03.839405"><ele>4.3</ele><time>2022-11-16T11:50:39Z</time><name>PT2989</name></trkpt>
<trkpt lat="51.604605" lon="03.839393"><ele>4.4</ele><time>2022-11-16T11:50:40Z</time><name>PT2990</name></trkpt>
<trkpt lat="51.604609" lon="03.839383"><ele>4.3</ele><time>2022-11-16T11:50:41Z</time><name>PT2991</name></trkpt>
<trkpt lat="51.604616" lon="03.839372"><ele>4.1</ele><time>2022-11-16T11:50:42Z</time><name>PT2992</name></trkpt>
<trkpt lat="51.604621" lon="03.839360"><ele>4</ele><time>2022-11-16T11:50:43Z</time><name>PT2993</name></trkpt>
<trkpt lat="51.604626" lon="03.839348"><ele>3.7</ele><time>2022-11-16T11:50:44Z</time><name>PT2994</name></trkpt>
<trkpt lat="51.604629" lon="03.839337"><ele>3.5</ele><time>2022-11-16T11:50:45Z</time><name>PT2995</name></trkpt>
<trkpt lat="51.604631" lon="03.839323"><ele>3.4</ele><time>2022-11-16T11:50:46Z</time><name>PT2996</name></trkpt>
<trkpt lat="51.604633" lon="03.839307"><ele>3.4</ele><time>2022-11-16T11:50:47Z</time><name>PT2997</name></trkpt>
<trkpt lat="51.604636" lon="03.839292"><ele>3.6</ele><time>2022-11-16T11:50:48Z</time><name>PT2998</name></trkpt>
<trkpt lat="51.604640" lon="03.839280"><ele>3.7</ele><time>2022-11-16T11:50:49Z</time><name>PT2999</name></trkpt>
<trkpt lat="51.604646" lon="03.839269"><ele>4.1</ele><time>2022-11-16T11:50:50Z</time><name>PT3000</name></trkpt>
<trkpt lat="51.604650" lon="03.839255"><ele>4.2</ele><time>2022-11-16T11:50:51Z</time><name>PT3001</name></trkpt>
<trkpt lat="51.604654" lon="03.839241"><ele>4.3</ele><time>2022-11-16T11:50:52Z</time><name>PT3002</name></trkpt>
<trkpt lat="51.604658" lon="03.839227"><ele>4.3</ele><time>2022-11-16T11:50:53Z</time><name>PT3003</name></trkpt>
<trkpt lat="51.604660" lon="03.839213"><ele>4.3</ele><time>2022-11-16T11:50:54Z</time><name>PT3004</name></trkpt>
<trkpt lat="51.604663" lon="03.839199"><ele>4.3</ele><time>2022-11-16T11:50:55Z</time><name>PT3005</name></trkpt>
<trkpt lat="51.604666" lon="03.839185"><ele>4.5</ele><time>2022-11-16T11:50:56Z</time><name>PT3006</name></trkpt>
<trkpt lat="51.604671" lon="03.839171"><ele>4.3</ele><time>2022-11-16T11:50:57Z</time><name>PT3007</name></trkpt>
<trkpt lat="51.604675" lon="03.839155"><ele>4.4</ele><time>2022-11-16T11:50:58Z</time><name>PT3008</name></trkpt>
<trkpt lat="51.604679" lon="03.839140"><ele>4.4</ele><time>2022-11-16T11:50:59Z</time><name>PT3009</name></trkpt>
<trkpt lat="51.604683" lon="03.839125"><ele>4.3</ele><time>2022-11-16T11:51:00Z</time><name>PT3010</name></trkpt>
<trkpt lat="51.604687" lon="03.839111"><ele>4.1</ele><time>2022-11-16T11:51:01Z</time><name>PT3011</name></trkpt>
<trkpt lat="51.604688" lon="03.839098"><ele>4.1</ele><time>2022-11-16T11:51:02Z</time><name>PT3012</name></trkpt>
<trkpt lat="51.604689" lon="03.839083"><ele>4.1</ele><time>2022-11-16T11:51:03Z</time><name>PT3013</name></trkpt>
<trkpt lat="51.604690" lon="03.839069"><ele>4.1</ele><time>2022-11-16T11:51:04Z</time><name>PT3014</name></trkpt>
<trkpt lat="51.604692" lon="03.839054"><ele>3.8</ele><time>2022-11-16T11:51:05Z</time><name>PT3015</name></trkpt>
<trkpt lat="51.604693" lon="03.839041"><ele>3.5</ele><time>2022-11-16T11:51:06Z</time><name>PT3016</name></trkpt>
<trkpt lat="51.604696" lon="03.839026"><ele>3.5</ele><time>2022-11-16T11:51:07Z</time><name>PT3017</name></trkpt>
<trkpt lat="51.604700" lon="03.839009"><ele>3.1</ele><time>2022-11-16T11:51:08Z</time><name>PT3018</name></trkpt>
<trkpt lat="51.604703" lon="03.838994"><ele>3</ele><time>2022-11-16T11:51:09Z</time><name>PT3019</name></trkpt>
<trkpt lat="51.604704" lon="03.838979"><ele>3</ele><time>2022-11-16T11:51:10Z</time><name>PT3020</name></trkpt>
<trkpt lat="51.604705" lon="03.838963"><ele>3</ele><time>2022-11-16T11:51:11Z</time><name>PT3021</name></trkpt>
<trkpt lat="51.604705" lon="03.838946"><ele>3.2</ele><time>2022-11-16T11:51:12Z</time><name>PT3022</name></trkpt>
<trkpt lat="51.604706" lon="03.838929"><ele>3.1</ele><time>2022-11-16T11:51:13Z</time><name>PT3023</name></trkpt>
<trkpt lat="51.604705" lon="03.838913"><ele>3.2</ele><time>2022-11-16T11:51:14Z</time><name>PT3024</name></trkpt>
<trkpt lat="51.604705" lon="03.838900"><ele>3.1</ele><time>2022-11-16T11:51:15Z</time><name>PT3025</name></trkpt>
<trkpt lat="51.604706" lon="03.838885"><ele>3</ele><time>2022-11-16T11:51:16Z</time><name>PT3026</name></trkpt>
<trkpt lat="51.604707" lon="03.838869"><ele>2.9</ele><time>2022-11-16T11:51:17Z</time><name>PT3027</name></trkpt>
<trkpt lat="51.604709" lon="03.838851"><ele>3</ele><time>2022-11-16T11:51:18Z</time><name>PT3028</name></trkpt>
<trkpt lat="51.604711" lon="03.838832"><ele>3</ele><time>2022-11-16T11:51:19Z</time><name>PT3029</name></trkpt>
<trkpt lat="51.604715" lon="03.838814"><ele>3</ele><time>2022-11-16T11:51:20Z</time><name>PT3030</name></trkpt>
<trkpt lat="51.604715" lon="03.838797"><ele>3.1</ele><time>2022-11-16T11:51:21Z</time><name>PT3031</name></trkpt>
<trkpt lat="51.604716" lon="03.838779"><ele>3</ele><time>2022-11-16T11:51:22Z</time><name>PT3032</name></trkpt>
<trkpt lat="51.604714" lon="03.838763"><ele>3</ele><time>2022-11-16T11:51:23Z</time><name>PT3033</name></trkpt>
<trkpt lat="51.604712" lon="03.838746"><ele>3.2</ele><time>2022-11-16T11:51:24Z</time><name>PT3034</name></trkpt>
<trkpt lat="51.604710" lon="03.838728"><ele>3.2</ele><time>2022-11-16T11:51:25Z</time><name>PT3035</name></trkpt>
<trkpt lat="51.604709" lon="03.838712"><ele>3.2</ele><time>2022-11-16T11:51:26Z</time><name>PT3036</name></trkpt>
<trkpt lat="51.604710" lon="03.838698"><ele>3.5</ele><time>2022-11-16T11:51:27Z</time><name>PT3037</name></trkpt>
<trkpt lat="51.604712" lon="03.838683"><ele>3.5</ele><time>2022-11-16T11:51:28Z</time><name>PT3038</name></trkpt>
<trkpt lat="51.604712" lon="03.838669"><ele>3.4</ele><time>2022-11-16T11:51:29Z</time><name>PT3039</name></trkpt>
<trkpt lat="51.604712" lon="03.838656"><ele>3.5</ele><time>2022-11-16T11:51:30Z</time><name>PT3040</name></trkpt>
<trkpt lat="51.604710" lon="03.838640"><ele>3.5</ele><time>2022-11-16T11:51:31Z</time><name>PT3041</name></trkpt>
<trkpt lat="51.604707" lon="03.838624"><ele>3.2</ele><time>2022-11-16T11:51:32Z</time><name>PT3042</name></trkpt>
<trkpt lat="51.604706" lon="03.838608"><ele>3.2</ele><time>2022-11-16T11:51:33Z</time><name>PT3043</name></trkpt>
<trkpt lat="51.604705" lon="03.838594"><ele>3.4</ele><time>2022-11-16T11:51:34Z</time><name>PT3044</name></trkpt>
<trkpt lat="51.604705" lon="03.838578"><ele>3.5</ele><time>2022-11-16T11:51:35Z</time><name>PT3045</name></trkpt>
<trkpt lat="51.604706" lon="03.838562"><ele>3.2</ele><time>2022-11-16T11:51:36Z</time><name>PT3046</name></trkpt>
<trkpt lat="51.604708" lon="03.838545"><ele>3.4</ele><time>2022-11-16T11:51:37Z</time><name>PT3047</name></trkpt>
<trkpt lat="51.604709" lon="03.838529"><ele>3.5</ele><time>2022-11-16T11:51:38Z</time><name>PT3048</name></trkpt>
<trkpt lat="51.604711" lon="03.838515"><ele>3.5</ele><time>2022-11-16T11:51:39Z</time><name>PT3049</name></trkpt>
<trkpt lat="51.604710" lon="03.838500"><ele>3.5</ele><time>2022-11-16T11:51:40Z</time><name>PT3050</name></trkpt>
<trkpt lat="51.604710" lon="03.838483"><ele>3.5</ele><time>2022-11-16T11:51:41Z</time><name>PT3051</name></trkpt>
<trkpt lat="51.604709" lon="03.838466"><ele>3.3</ele><time>2022-11-16T11:51:42Z</time><name>PT3052</name></trkpt>
<trkpt lat="51.604708" lon="03.838449"><ele>3.4</ele><time>2022-11-16T11:51:43Z</time><name>PT3053</name></trkpt>
<trkpt lat="51.604707" lon="03.838436"><ele>3.4</ele><time>2022-11-16T11:51:44Z</time><name>PT3054</name></trkpt>
<trkpt lat="51.604707" lon="03.838420"><ele>3.5</ele><time>2022-11-16T11:51:45Z</time><name>PT3055</name></trkpt>
<trkpt lat="51.604709" lon="03.838403"><ele>3.6</ele><time>2022-11-16T11:51:46Z</time><name>PT3056</name></trkpt>
<trkpt lat="51.604709" lon="03.838387"><ele>3.5</ele><time>2022-11-16T11:51:47Z</time><name>PT3057</name></trkpt>
<trkpt lat="51.604709" lon="03.838372"><ele>3</ele><time>2022-11-16T11:51:48Z</time><name>PT3058</name></trkpt>
<trkpt lat="51.604707" lon="03.838356"><ele>2.8</ele><time>2022-11-16T11:51:49Z</time><name>PT3059</name></trkpt>
<trkpt lat="51.604705" lon="03.838340"><ele>2.8</ele><time>2022-11-16T11:51:50Z</time><name>PT3060</name></trkpt>
<trkpt lat="51.604705" lon="03.838325"><ele>3</ele><time>2022-11-16T11:51:51Z</time><name>PT3061</name></trkpt>
<trkpt lat="51.604706" lon="03.838310"><ele>3.2</ele><time>2022-11-16T11:51:52Z</time><name>PT3062</name></trkpt>
<trkpt lat="51.604708" lon="03.838296"><ele>3.7</ele><time>2022-11-16T11:51:53Z</time><name>PT3063</name></trkpt>
<trkpt lat="51.604709" lon="03.838284"><ele>4.1</ele><time>2022-11-16T11:51:54Z</time><name>PT3064</name></trkpt>
<trkpt lat="51.604709" lon="03.838270"><ele>4.1</ele><time>2022-11-16T11:51:55Z</time><name>PT3065</name></trkpt>
<trkpt lat="51.604708" lon="03.838254"><ele>3.9</ele><time>2022-11-16T11:51:56Z</time><name>PT3066</name></trkpt>
<trkpt lat="51.604707" lon="03.838238"><ele>3.5</ele><time>2022-11-16T11:51:57Z</time><name>PT3067</name></trkpt>
<trkpt lat="51.604707" lon="03.838223"><ele>3.2</ele><time>2022-11-16T11:51:58Z</time><name>PT3068</name></trkpt>
<trkpt lat="51.604708" lon="03.838206"><ele>2.9</ele><time>2022-11-16T11:51:59Z</time><name>PT3069</name></trkpt>
<trkpt lat="51.604710" lon="03.838189"><ele>2.9</ele><time>2022-11-16T11:52:00Z</time><name>PT3070</name></trkpt>
<trkpt lat="51.604711" lon="03.838172"><ele>2.8</ele><time>2022-11-16T11:52:01Z</time><name>PT3071</name></trkpt>
<trkpt lat="51.604711" lon="03.838158"><ele>2.9</ele><time>2022-11-16T11:52:02Z</time><name>PT3072</name></trkpt>
<trkpt lat="51.604710" lon="03.838143"><ele>3</ele><time>2022-11-16T11:52:03Z</time><name>PT3073</name></trkpt>
<trkpt lat="51.604710" lon="03.838126"><ele>3</ele><time>2022-11-16T11:52:04Z</time><name>PT3074</name></trkpt>
<trkpt lat="51.604710" lon="03.838111"><ele>3.1</ele><time>2022-11-16T11:52:05Z</time><name>PT3075</name></trkpt>
<trkpt lat="51.604711" lon="03.838096"><ele>3.3</ele><time>2022-11-16T11:52:06Z</time><name>PT3076</name></trkpt>
<trkpt lat="51.604712" lon="03.838082"><ele>3.3</ele><time>2022-11-16T11:52:07Z</time><name>PT3077</name></trkpt>
<trkpt lat="51.604713" lon="03.838067"><ele>3.7</ele><time>2022-11-16T11:52:08Z</time><name>PT3078</name></trkpt>
<trkpt lat="51.604711" lon="03.838052"><ele>3.9</ele><time>2022-11-16T11:52:09Z</time><name>PT3079</name></trkpt>
<trkpt lat="51.604709" lon="03.838035"><ele>3.9</ele><time>2022-11-16T11:52:10Z</time><name>PT3080</name></trkpt>
<trkpt lat="51.604708" lon="03.838016"><ele>4.3</ele><time>2022-11-16T11:52:11Z</time><name>PT3081</name></trkpt>
<trkpt lat="51.604707" lon="03.837998"><ele>4.6</ele><time>2022-11-16T11:52:12Z</time><name>PT3082</name></trkpt>
<trkpt lat="51.604709" lon="03.837980"><ele>4.6</ele><time>2022-11-16T11:52:13Z</time><name>PT3083</name></trkpt>
<trkpt lat="51.604710" lon="03.837962"><ele>4.6</ele><time>2022-11-16T11:52:14Z</time><name>PT3084</name></trkpt>
<trkpt lat="51.604712" lon="03.837946"><ele>5.1</ele><time>2022-11-16T11:52:15Z</time><name>PT3085</name></trkpt>
<trkpt lat="51.604713" lon="03.837928"><ele>5.1</ele><time>2022-11-16T11:52:16Z</time><name>PT3086</name></trkpt>
<trkpt lat="51.604713" lon="03.837909"><ele>5.2</ele><time>2022-11-16T11:52:17Z</time><name>PT3087</name></trkpt>
<trkpt lat="51.604711" lon="03.837892"><ele>5.3</ele><time>2022-11-16T11:52:18Z</time><name>PT3088</name></trkpt>
<trkpt lat="51.604710" lon="03.837876"><ele>5.5</ele><time>2022-11-16T11:52:19Z</time><name>PT3089</name></trkpt>
<trkpt lat="51.604711" lon="03.837862"><ele>5.6</ele><time>2022-11-16T11:52:20Z</time><name>PT3090</name></trkpt>
<trkpt lat="51.604712" lon="03.837851"><ele>5.2</ele><time>2022-11-16T11:52:21Z</time><name>PT3091</name></trkpt>
<trkpt lat="51.604711" lon="03.837838"><ele>5.1</ele><time>2022-11-16T11:52:22Z</time><name>PT3092</name></trkpt>
<trkpt lat="51.604712" lon="03.837826"><ele>4.9</ele><time>2022-11-16T11:52:23Z</time><name>PT3093</name></trkpt>
<trkpt lat="51.604711" lon="03.837813"><ele>4.6</ele><time>2022-11-16T11:52:24Z</time><name>PT3094</name></trkpt>
<trkpt lat="51.604712" lon="03.837799"><ele>4.5</ele><time>2022-11-16T11:52:25Z</time><name>PT3095</name></trkpt>
<trkpt lat="51.604712" lon="03.837785"><ele>4.2</ele><time>2022-11-16T11:52:26Z</time><name>PT3096</name></trkpt>
<trkpt lat="51.604714" lon="03.837768"><ele>4</ele><time>2022-11-16T11:52:27Z</time><name>PT3097</name></trkpt>
<trkpt lat="51.604715" lon="03.837754"><ele>3.8</ele><time>2022-11-16T11:52:28Z</time><name>PT3098</name></trkpt>
<trkpt lat="51.604715" lon="03.837740"><ele>3.2</ele><time>2022-11-16T11:52:29Z</time><name>PT3099</name></trkpt>
<trkpt lat="51.604713" lon="03.837724"><ele>2.8</ele><time>2022-11-16T11:52:30Z</time><name>PT3100</name></trkpt>
<trkpt lat="51.604713" lon="03.837708"><ele>2.9</ele><time>2022-11-16T11:52:31Z</time><name>PT3101</name></trkpt>
<trkpt lat="51.604715" lon="03.837694"><ele>3</ele><time>2022-11-16T11:52:32Z</time><name>PT3102</name></trkpt>
<trkpt lat="51.604716" lon="03.837680"><ele>3.3</ele><time>2022-11-16T11:52:33Z</time><name>PT3103</name></trkpt>
<trkpt lat="51.604716" lon="03.837662"><ele>3.4</ele><time>2022-11-16T11:52:34Z</time><name>PT3104</name></trkpt>
<trkpt lat="51.604716" lon="03.837647"><ele>3.5</ele><time>2022-11-16T11:52:35Z</time><name>PT3105</name></trkpt>
<trkpt lat="51.604715" lon="03.837631"><ele>3.5</ele><time>2022-11-16T11:52:36Z</time><name>PT3106</name></trkpt>
<trkpt lat="51.604714" lon="03.837617"><ele>3.4</ele><time>2022-11-16T11:52:37Z</time><name>PT3107</name></trkpt>
<trkpt lat="51.604714" lon="03.837601"><ele>3</ele><time>2022-11-16T11:52:38Z</time><name>PT3108</name></trkpt>
<trkpt lat="51.604715" lon="03.837587"><ele>3.1</ele><time>2022-11-16T11:52:39Z</time><name>PT3109</name></trkpt>
<trkpt lat="51.604717" lon="03.837572"><ele>3.2</ele><time>2022-11-16T11:52:40Z</time><name>PT3110</name></trkpt>
<trkpt lat="51.604719" lon="03.837555"><ele>3.4</ele><time>2022-11-16T11:52:41Z</time><name>PT3111</name></trkpt>
<trkpt lat="51.604719" lon="03.837539"><ele>3.5</ele><time>2022-11-16T11:52:42Z</time><name>PT3112</name></trkpt>
<trkpt lat="51.604719" lon="03.837526"><ele>3.4</ele><time>2022-11-16T11:52:43Z</time><name>PT3113</name></trkpt>
<trkpt lat="51.604717" lon="03.837514"><ele>2.7</ele><time>2022-11-16T11:52:44Z</time><name>PT3114</name></trkpt>
<trkpt lat="51.604718" lon="03.837500"><ele>2.4</ele><time>2022-11-16T11:52:45Z</time><name>PT3115</name></trkpt>
<trkpt lat="51.604719" lon="03.837485"><ele>2.2</ele><time>2022-11-16T11:52:46Z</time><name>PT3116</name></trkpt>
<trkpt lat="51.604720" lon="03.837469"><ele>2.2</ele><time>2022-11-16T11:52:47Z</time><name>PT3117</name></trkpt>
<trkpt lat="51.604720" lon="03.837455"><ele>2.9</ele><time>2022-11-16T11:52:48Z</time><name>PT3118</name></trkpt>
<trkpt lat="51.604718" lon="03.837438"><ele>3.1</ele><time>2022-11-16T11:52:49Z</time><name>PT3119</name></trkpt>
<trkpt lat="51.604717" lon="03.837420"><ele>3.1</ele><time>2022-11-16T11:52:50Z</time><name>PT3120</name></trkpt>
<trkpt lat="51.604718" lon="03.837404"><ele>3.4</ele><time>2022-11-16T11:52:51Z</time><name>PT3121</name></trkpt>
<trkpt lat="51.604719" lon="03.837388"><ele>3.5</ele><time>2022-11-16T11:52:52Z</time><name>PT3122</name></trkpt>
<trkpt lat="51.604719" lon="03.837371"><ele>3.5</ele><time>2022-11-16T11:52:53Z</time><name>PT3123</name></trkpt>
<trkpt lat="51.604719" lon="03.837356"><ele>3.5</ele><time>2022-11-16T11:52:54Z</time><name>PT3124</name></trkpt>
<trkpt lat="51.604722" lon="03.837341"><ele>4.1</ele><time>2022-11-16T11:52:55Z</time><name>PT3125</name></trkpt>
<trkpt lat="51.604722" lon="03.837326"><ele>4.5</ele><time>2022-11-16T11:52:56Z</time><name>PT3126</name></trkpt>
<trkpt lat="51.604721" lon="03.837311"><ele>4.5</ele><time>2022-11-16T11:52:57Z</time><name>PT3127</name></trkpt>
<trkpt lat="51.604721" lon="03.837295"><ele>4.7</ele><time>2022-11-16T11:52:58Z</time><name>PT3128</name></trkpt>
<trkpt lat="51.604722" lon="03.837278"><ele>4.8</ele><time>2022-11-16T11:52:59Z</time><name>PT3129</name></trkpt>
<trkpt lat="51.604725" lon="03.837264"><ele>4.8</ele><time>2022-11-16T11:53:01Z</time><name>PT3130</name></trkpt>
<trkpt lat="51.604725" lon="03.837250"><ele>4.7</ele><time>2022-11-16T11:53:01Z</time><name>PT3131</name></trkpt>
<trkpt lat="51.604724" lon="03.837233"><ele>5.1</ele><time>2022-11-16T11:53:02Z</time><name>PT3132</name></trkpt>
<trkpt lat="51.604722" lon="03.837215"><ele>5.5</ele><time>2022-11-16T11:53:03Z</time><name>PT3133</name></trkpt>
<trkpt lat="51.604721" lon="03.837198"><ele>5.6</ele><time>2022-11-16T11:53:04Z</time><name>PT3134</name></trkpt>
<trkpt lat="51.604723" lon="03.837185"><ele>5.3</ele><time>2022-11-16T11:53:05Z</time><name>PT3135</name></trkpt>
<trkpt lat="51.604723" lon="03.837170"><ele>4.9</ele><time>2022-11-16T11:53:06Z</time><name>PT3136</name></trkpt>
<trkpt lat="51.604725" lon="03.837156"><ele>4.9</ele><time>2022-11-16T11:53:07Z</time><name>PT3137</name></trkpt>
<trkpt lat="51.604726" lon="03.837141"><ele>4.5</ele><time>2022-11-16T11:53:08Z</time><name>PT3138</name></trkpt>
<trkpt lat="51.604726" lon="03.837127"><ele>4</ele><time>2022-11-16T11:53:09Z</time><name>PT3139</name></trkpt>
<trkpt lat="51.604725" lon="03.837114"><ele>3.7</ele><time>2022-11-16T11:53:10Z</time><name>PT3140</name></trkpt>
<trkpt lat="51.604726" lon="03.837104"><ele>3.3</ele><time>2022-11-16T11:53:11Z</time><name>PT3141</name></trkpt>
<trkpt lat="51.604727" lon="03.837101"><ele>2.9</ele><time>2022-11-16T11:53:12Z</time><name>PT3142</name></trkpt>
<trkpt lat="51.604727" lon="03.837102"><ele>2.9</ele><time>2022-11-16T11:53:13Z</time><name>PT3143</name></trkpt>
<trkpt lat="51.604727" lon="03.837103"><ele>3</ele><time>2022-11-16T11:53:14Z</time><name>PT3144</name></trkpt>
<trkpt lat="51.604726" lon="03.837102"><ele>3.5</ele><time>2022-11-16T11:53:16Z</time><name>PT3145</name></trkpt>
<trkpt lat="51.604725" lon="03.837088"><ele>3.8</ele><time>2022-11-16T11:53:17Z</time><name>PT3146</name></trkpt>
<trkpt lat="51.604725" lon="03.837074"><ele>3.9</ele><time>2022-11-16T11:53:18Z</time><name>PT3147</name></trkpt>
<trkpt lat="51.604725" lon="03.837059"><ele>4.1</ele><time>2022-11-16T11:53:19Z</time><name>PT3148</name></trkpt>
<trkpt lat="51.604726" lon="03.837041"><ele>4.3</ele><time>2022-11-16T11:53:20Z</time><name>PT3149</name></trkpt>
<trkpt lat="51.604727" lon="03.837026"><ele>4.9</ele><time>2022-11-16T11:53:21Z</time><name>PT3150</name></trkpt>
<trkpt lat="51.604727" lon="03.837008"><ele>5</ele><time>2022-11-16T11:53:22Z</time><name>PT3151</name></trkpt>
<trkpt lat="51.604724" lon="03.836988"><ele>5.1</ele><time>2022-11-16T11:53:23Z</time><name>PT3152</name></trkpt>
<trkpt lat="51.604724" lon="03.836974"><ele>4.8</ele><time>2022-11-16T11:53:24Z</time><name>PT3153</name></trkpt>
<trkpt lat="51.604724" lon="03.836958"><ele>4.6</ele><time>2022-11-16T11:53:25Z</time><name>PT3154</name></trkpt>
<trkpt lat="51.604727" lon="03.836942"><ele>4.3</ele><time>2022-11-16T11:53:26Z</time><name>PT3155</name></trkpt>
<trkpt lat="51.604729" lon="03.836923"><ele>4.4</ele><time>2022-11-16T11:53:27Z</time><name>PT3156</name></trkpt>
<trkpt lat="51.604730" lon="03.836907"><ele>4.6</ele><time>2022-11-16T11:53:28Z</time><name>PT3157</name></trkpt>
<trkpt lat="51.604730" lon="03.836888"><ele>4.6</ele><time>2022-11-16T11:53:29Z</time><name>PT3158</name></trkpt>
<trkpt lat="51.604728" lon="03.836869"><ele>4.6</ele><time>2022-11-16T11:53:30Z</time><name>PT3159</name></trkpt>
<trkpt lat="51.604726" lon="03.836851"><ele>4.4</ele><time>2022-11-16T11:53:31Z</time><name>PT3160</name></trkpt>
<trkpt lat="51.604725" lon="03.836835"><ele>4.1</ele><time>2022-11-16T11:53:32Z</time><name>PT3161</name></trkpt>
<trkpt lat="51.604725" lon="03.836819"><ele>3.8</ele><time>2022-11-16T11:53:33Z</time><name>PT3162</name></trkpt>
<trkpt lat="51.604727" lon="03.836801"><ele>3.8</ele><time>2022-11-16T11:53:34Z</time><name>PT3163</name></trkpt>
<trkpt lat="51.604729" lon="03.836782"><ele>4.1</ele><time>2022-11-16T11:53:35Z</time><name>PT3164</name></trkpt>
<trkpt lat="51.604730" lon="03.836763"><ele>4.4</ele><time>2022-11-16T11:53:36Z</time><name>PT3165</name></trkpt>
<trkpt lat="51.604731" lon="03.836748"><ele>4.4</ele><time>2022-11-16T11:53:37Z</time><name>PT3166</name></trkpt>
<trkpt lat="51.604732" lon="03.836733"><ele>4.4</ele><time>2022-11-16T11:53:38Z</time><name>PT3167</name></trkpt>
<trkpt lat="51.604732" lon="03.836714"><ele>4.3</ele><time>2022-11-16T11:53:39Z</time><name>PT3168</name></trkpt>
<trkpt lat="51.604732" lon="03.836695"><ele>4.1</ele><time>2022-11-16T11:53:40Z</time><name>PT3169</name></trkpt>
<trkpt lat="51.604733" lon="03.836673"><ele>3.7</ele><time>2022-11-16T11:53:41Z</time><name>PT3170</name></trkpt>
<trkpt lat="51.604733" lon="03.836654"><ele>3.4</ele><time>2022-11-16T11:53:42Z</time><name>PT3171</name></trkpt>
<trkpt lat="51.604733" lon="03.836639"><ele>3.2</ele><time>2022-11-16T11:53:43Z</time><name>PT3172</name></trkpt>
<trkpt lat="51.604736" lon="03.836620"><ele>3</ele><time>2022-11-16T11:53:44Z</time><name>PT3173</name></trkpt>
<trkpt lat="51.604737" lon="03.836602"><ele>3.1</ele><time>2022-11-16T11:53:46Z</time><name>PT3174</name></trkpt>
<trkpt lat="51.604738" lon="03.836585"><ele>3.3</ele><time>2022-11-16T11:53:46Z</time><name>PT3175</name></trkpt>
<trkpt lat="51.604739" lon="03.836568"><ele>3.4</ele><time>2022-11-16T11:53:47Z</time><name>PT3176</name></trkpt>
<trkpt lat="51.604738" lon="03.836552"><ele>3.3</ele><time>2022-11-16T11:53:48Z</time><name>PT3177</name></trkpt>
<trkpt lat="51.604737" lon="03.836535"><ele>3.4</ele><time>2022-11-16T11:53:49Z</time><name>PT3178</name></trkpt>
<trkpt lat="51.604736" lon="03.836516"><ele>3</ele><time>2022-11-16T11:53:50Z</time><name>PT3179</name></trkpt>
<trkpt lat="51.604735" lon="03.836498"><ele>2.9</ele><time>2022-11-16T11:53:51Z</time><name>PT3180</name></trkpt>
<trkpt lat="51.604734" lon="03.836482"><ele>2.8</ele><time>2022-11-16T11:53:52Z</time><name>PT3181</name></trkpt>
<trkpt lat="51.604736" lon="03.836466"><ele>2.8</ele><time>2022-11-16T11:53:53Z</time><name>PT3182</name></trkpt>
<trkpt lat="51.604739" lon="03.836448"><ele>2.9</ele><time>2022-11-16T11:53:54Z</time><name>PT3183</name></trkpt>
<trkpt lat="51.604740" lon="03.836432"><ele>3</ele><time>2022-11-16T11:53:55Z</time><name>PT3184</name></trkpt>
<trkpt lat="51.604740" lon="03.836417"><ele>2.9</ele><time>2022-11-16T11:53:56Z</time><name>PT3185</name></trkpt>
<trkpt lat="51.604738" lon="03.836401"><ele>3</ele><time>2022-11-16T11:53:57Z</time><name>PT3186</name></trkpt>
<trkpt lat="51.604738" lon="03.836385"><ele>3</ele><time>2022-11-16T11:53:58Z</time><name>PT3187</name></trkpt>
<trkpt lat="51.604738" lon="03.836370"><ele>2.9</ele><time>2022-11-16T11:53:59Z</time><name>PT3188</name></trkpt>
<trkpt lat="51.604738" lon="03.836355"><ele>2.8</ele><time>2022-11-16T11:54:01Z</time><name>PT3189</name></trkpt>
<trkpt lat="51.604739" lon="03.836339"><ele>2.7</ele><time>2022-11-16T11:54:01Z</time><name>PT3190</name></trkpt>
<trkpt lat="51.604741" lon="03.836322"><ele>2.6</ele><time>2022-11-16T11:54:02Z</time><name>PT3191</name></trkpt>
<trkpt lat="51.604742" lon="03.836306"><ele>2.6</ele><time>2022-11-16T11:54:03Z</time><name>PT3192</name></trkpt>
<trkpt lat="51.604742" lon="03.836291"><ele>2.6</ele><time>2022-11-16T11:54:04Z</time><name>PT3193</name></trkpt>
<trkpt lat="51.604742" lon="03.836274"><ele>2.6</ele><time>2022-11-16T11:54:05Z</time><name>PT3194</name></trkpt>
<trkpt lat="51.604742" lon="03.836259"><ele>2.7</ele><time>2022-11-16T11:54:06Z</time><name>PT3195</name></trkpt>
<trkpt lat="51.604742" lon="03.836244"><ele>2.9</ele><time>2022-11-16T11:54:07Z</time><name>PT3196</name></trkpt>
<trkpt lat="51.604742" lon="03.836228"><ele>3</ele><time>2022-11-16T11:54:08Z</time><name>PT3197</name></trkpt>
<trkpt lat="51.604742" lon="03.836213"><ele>3</ele><time>2022-11-16T11:54:09Z</time><name>PT3198</name></trkpt>
<trkpt lat="51.604743" lon="03.836198"><ele>2.9</ele><time>2022-11-16T11:54:10Z</time><name>PT3199</name></trkpt>
<trkpt lat="51.604747" lon="03.836182"><ele>3.1</ele><time>2022-11-16T11:54:11Z</time><name>PT3200</name></trkpt>
<trkpt lat="51.604748" lon="03.836166"><ele>3</ele><time>2022-11-16T11:54:12Z</time><name>PT3201</name></trkpt>
<trkpt lat="51.604748" lon="03.836152"><ele>3</ele><time>2022-11-16T11:54:13Z</time><name>PT3202</name></trkpt>
<trkpt lat="51.604748" lon="03.836140"><ele>3.1</ele><time>2022-11-16T11:54:14Z</time><name>PT3203</name></trkpt>
<trkpt lat="51.604747" lon="03.836124"><ele>3.5</ele><time>2022-11-16T11:54:16Z</time><name>PT3204</name></trkpt>
<trkpt lat="51.604746" lon="03.836111"><ele>3.7</ele><time>2022-11-16T11:54:16Z</time><name>PT3205</name></trkpt>
<trkpt lat="51.604746" lon="03.836098"><ele>3.9</ele><time>2022-11-16T11:54:17Z</time><name>PT3206</name></trkpt>
<trkpt lat="51.604748" lon="03.836087"><ele>4.1</ele><time>2022-11-16T11:54:18Z</time><name>PT3207</name></trkpt>
<trkpt lat="51.604751" lon="03.836073"><ele>4</ele><time>2022-11-16T11:54:19Z</time><name>PT3208</name></trkpt>
<trkpt lat="51.604753" lon="03.836060"><ele>3.7</ele><time>2022-11-16T11:54:20Z</time><name>PT3209</name></trkpt>
<trkpt lat="51.604753" lon="03.836046"><ele>3.4</ele><time>2022-11-16T11:54:21Z</time><name>PT3210</name></trkpt>
<trkpt lat="51.604754" lon="03.836030"><ele>3.5</ele><time>2022-11-16T11:54:22Z</time><name>PT3211</name></trkpt>
<trkpt lat="51.604753" lon="03.836016"><ele>3.3</ele><time>2022-11-16T11:54:23Z</time><name>PT3212</name></trkpt>
<trkpt lat="51.604753" lon="03.836003"><ele>3.2</ele><time>2022-11-16T11:54:24Z</time><name>PT3213</name></trkpt>
<trkpt lat="51.604754" lon="03.835991"><ele>3.2</ele><time>2022-11-16T11:54:25Z</time><name>PT3214</name></trkpt>
<trkpt lat="51.604754" lon="03.835978"><ele>3.5</ele><time>2022-11-16T11:54:26Z</time><name>PT3215</name></trkpt>
<trkpt lat="51.604753" lon="03.835965"><ele>3.7</ele><time>2022-11-16T11:54:27Z</time><name>PT3216</name></trkpt>
<trkpt lat="51.604754" lon="03.835952"><ele>3.6</ele><time>2022-11-16T11:54:28Z</time><name>PT3217</name></trkpt>
<trkpt lat="51.604757" lon="03.835937"><ele>3.5</ele><time>2022-11-16T11:54:29Z</time><name>PT3218</name></trkpt>
<trkpt lat="51.604759" lon="03.835920"><ele>3.3</ele><time>2022-11-16T11:54:30Z</time><name>PT3219</name></trkpt>
<trkpt lat="51.604762" lon="03.835903"><ele>3.1</ele><time>2022-11-16T11:54:31Z</time><name>PT3220</name></trkpt>
<trkpt lat="51.604762" lon="03.835889"><ele>2.9</ele><time>2022-11-16T11:54:32Z</time><name>PT3221</name></trkpt>
<trkpt lat="51.604762" lon="03.835875"><ele>3.2</ele><time>2022-11-16T11:54:33Z</time><name>PT3222</name></trkpt>
<trkpt lat="51.604760" lon="03.835859"><ele>3.5</ele><time>2022-11-16T11:54:34Z</time><name>PT3223</name></trkpt>
<trkpt lat="51.604759" lon="03.835845"><ele>3.9</ele><time>2022-11-16T11:54:35Z</time><name>PT3224</name></trkpt>
<trkpt lat="51.604758" lon="03.835830"><ele>4.3</ele><time>2022-11-16T11:54:36Z</time><name>PT3225</name></trkpt>
<trkpt lat="51.604759" lon="03.835812"><ele>4.5</ele><time>2022-11-16T11:54:37Z</time><name>PT3226</name></trkpt>
<trkpt lat="51.604760" lon="03.835795"><ele>4.5</ele><time>2022-11-16T11:54:38Z</time><name>PT3227</name></trkpt>
<trkpt lat="51.604762" lon="03.835781"><ele>4.5</ele><time>2022-11-16T11:54:39Z</time><name>PT3228</name></trkpt>
<trkpt lat="51.604763" lon="03.835770"><ele>4.6</ele><time>2022-11-16T11:54:40Z</time><name>PT3229</name></trkpt>
<trkpt lat="51.604762" lon="03.835758"><ele>4.6</ele><time>2022-11-16T11:54:41Z</time><name>PT3230</name></trkpt>
<trkpt lat="51.604763" lon="03.835750"><ele>4.4</ele><time>2022-11-16T11:54:42Z</time><name>PT3231</name></trkpt>
<trkpt lat="51.604765" lon="03.835744"><ele>4.4</ele><time>2022-11-16T11:54:43Z</time><name>PT3232</name></trkpt>
<trkpt lat="51.604764" lon="03.835736"><ele>4.3</ele><time>2022-11-16T11:54:44Z</time><name>PT3233</name></trkpt>
<trkpt lat="51.604765" lon="03.835726"><ele>4.1</ele><time>2022-11-16T11:54:45Z</time><name>PT3234</name></trkpt>
<trkpt lat="51.604767" lon="03.835716"><ele>4.1</ele><time>2022-11-16T11:54:46Z</time><name>PT3235</name></trkpt>
<trkpt lat="51.604768" lon="03.835703"><ele>4.1</ele><time>2022-11-16T11:54:47Z</time><name>PT3236</name></trkpt>
<trkpt lat="51.604767" lon="03.835688"><ele>3.9</ele><time>2022-11-16T11:54:48Z</time><name>PT3237</name></trkpt>
<trkpt lat="51.604766" lon="03.835675"><ele>4</ele><time>2022-11-16T11:54:49Z</time><name>PT3238</name></trkpt>
<trkpt lat="51.604766" lon="03.835664"><ele>3.9</ele><time>2022-11-16T11:54:50Z</time><name>PT3239</name></trkpt>
<trkpt lat="51.604765" lon="03.835651"><ele>3.9</ele><time>2022-11-16T11:54:51Z</time><name>PT3240</name></trkpt>
<trkpt lat="51.604765" lon="03.835639"><ele>4</ele><time>2022-11-16T11:54:52Z</time><name>PT3241</name></trkpt>
<trkpt lat="51.604766" lon="03.835624"><ele>4.1</ele><time>2022-11-16T11:54:53Z</time><name>PT3242</name></trkpt>
<trkpt lat="51.604768" lon="03.835611"><ele>4.2</ele><time>2022-11-16T11:54:54Z</time><name>PT3243</name></trkpt>
<trkpt lat="51.604767" lon="03.835600"><ele>4.3</ele><time>2022-11-16T11:54:55Z</time><name>PT3244</name></trkpt>
<trkpt lat="51.604767" lon="03.835591"><ele>4.1</ele><time>2022-11-16T11:54:56Z</time><name>PT3245</name></trkpt>
<trkpt lat="51.604767" lon="03.835585"><ele>4</ele><time>2022-11-16T11:54:57Z</time><name>PT3246</name></trkpt>
<trkpt lat="51.604768" lon="03.835579"><ele>3.8</ele><time>2022-11-16T11:54:58Z</time><name>PT3247</name></trkpt>
<trkpt lat="51.604766" lon="03.835578"><ele>3.5</ele><time>2022-11-16T11:55:00Z</time><name>PT3248</name></trkpt>
<trkpt lat="51.604766" lon="03.835578"><ele>3.5</ele><time>2022-11-16T11:55:01Z</time><name>PT3249</name></trkpt>
<trkpt lat="51.604766" lon="03.835577"><ele>3.7</ele><time>2022-11-16T11:55:02Z</time><name>PT3250</name></trkpt>
<trkpt lat="51.604766" lon="03.835577"><ele>4.3</ele><time>2022-11-16T11:55:07Z</time><name>PT3251</name></trkpt>
<trkpt lat="51.604768" lon="03.835574"><ele>4.5</ele><time>2022-11-16T11:55:08Z</time><name>PT3252</name></trkpt>
<trkpt lat="51.604770" lon="03.835575"><ele>4.5</ele><time>2022-11-16T11:55:10Z</time><name>PT3253</name></trkpt>
<trkpt lat="51.604771" lon="03.835578"><ele>4.4</ele><time>2022-11-16T11:55:11Z</time><name>PT3254</name></trkpt>
<trkpt lat="51.604770" lon="03.835578"><ele>4.3</ele><time>2022-11-16T11:55:12Z</time><name>PT3255</name></trkpt>
<trkpt lat="51.604768" lon="03.835578"><ele>4.3</ele><time>2022-11-16T11:55:13Z</time><name>PT3256</name></trkpt>
<trkpt lat="51.604771" lon="03.835575"><ele>4.2</ele><time>2022-11-16T11:55:14Z</time><name>PT3257</name></trkpt>
<trkpt lat="51.604771" lon="03.835572"><ele>4</ele><time>2022-11-16T11:55:15Z</time><name>PT3258</name></trkpt>
<trkpt lat="51.604771" lon="03.835572"><ele>4</ele><time>2022-11-16T11:55:16Z</time><name>PT3259</name></trkpt>
<trkpt lat="51.604772" lon="03.835571"><ele>4.1</ele><time>2022-11-16T11:55:17Z</time><name>PT3260</name></trkpt>
<trkpt lat="51.604772" lon="03.835572"><ele>4.2</ele><time>2022-11-16T11:55:18Z</time><name>PT3261</name></trkpt>
<trkpt lat="51.604772" lon="03.835574"><ele>4.5</ele><time>2022-11-16T11:55:19Z</time><name>PT3262</name></trkpt>
<trkpt lat="51.604773" lon="03.835543"><ele>2.9</ele><time>2022-11-16T11:56:11Z</time><name>PT3263</name></trkpt>
<trkpt lat="51.604773" lon="03.835510"><ele>2.9</ele><time>2022-11-16T11:56:12Z</time><name>PT3264</name></trkpt>
<trkpt lat="51.604773" lon="03.835481"><ele>2.9</ele><time>2022-11-16T11:56:13Z</time><name>PT3265</name></trkpt>
<trkpt lat="51.604774" lon="03.835457"><ele>3.4</ele><time>2022-11-16T11:56:14Z</time><name>PT3266</name></trkpt>
<trkpt lat="51.604778" lon="03.835431"><ele>3.5</ele><time>2022-11-16T11:56:15Z</time><name>PT3267</name></trkpt>
<trkpt lat="51.604781" lon="03.835407"><ele>3.5</ele><time>2022-11-16T11:56:16Z</time><name>PT3268</name></trkpt>
<trkpt lat="51.604784" lon="03.835383"><ele>3.5</ele><time>2022-11-16T11:56:17Z</time><name>PT3269</name></trkpt>
<trkpt lat="51.604787" lon="03.835359"><ele>3.5</ele><time>2022-11-16T11:56:18Z</time><name>PT3270</name></trkpt>
<trkpt lat="51.604789" lon="03.835337"><ele>3.5</ele><time>2022-11-16T11:56:19Z</time><name>PT3271</name></trkpt>
<trkpt lat="51.604792" lon="03.835319"><ele>3.3</ele><time>2022-11-16T11:56:20Z</time><name>PT3272</name></trkpt>
<trkpt lat="51.604795" lon="03.835298"><ele>3.3</ele><time>2022-11-16T11:56:21Z</time><name>PT3273</name></trkpt>
<trkpt lat="51.604795" lon="03.835279"><ele>3.2</ele><time>2022-11-16T11:56:22Z</time><name>PT3274</name></trkpt>
<trkpt lat="51.604794" lon="03.835259"><ele>2.9</ele><time>2022-11-16T11:56:23Z</time><name>PT3275</name></trkpt>
<trkpt lat="51.604793" lon="03.835240"><ele>2.7</ele><time>2022-11-16T11:56:24Z</time><name>PT3276</name></trkpt>
<trkpt lat="51.604792" lon="03.835220"><ele>2.8</ele><time>2022-11-16T11:56:25Z</time><name>PT3277</name></trkpt>
<trkpt lat="51.604793" lon="03.835201"><ele>3.1</ele><time>2022-11-16T11:56:26Z</time><name>PT3278</name></trkpt>
<trkpt lat="51.604792" lon="03.835184"><ele>3.1</ele><time>2022-11-16T11:56:27Z</time><name>PT3279</name></trkpt>
<trkpt lat="51.604791" lon="03.835165"><ele>3.3</ele><time>2022-11-16T11:56:28Z</time><name>PT3280</name></trkpt>
<trkpt lat="51.604789" lon="03.835146"><ele>3.4</ele><time>2022-11-16T11:56:29Z</time><name>PT3281</name></trkpt>
<trkpt lat="51.604787" lon="03.835129"><ele>3.2</ele><time>2022-11-16T11:56:30Z</time><name>PT3282</name></trkpt>
<trkpt lat="51.604787" lon="03.835114"><ele>2.7</ele><time>2022-11-16T11:56:31Z</time><name>PT3283</name></trkpt>
<trkpt lat="51.604788" lon="03.835096"><ele>2.6</ele><time>2022-11-16T11:56:32Z</time><name>PT3284</name></trkpt>
<trkpt lat="51.604788" lon="03.835082"><ele>2.3</ele><time>2022-11-16T11:56:33Z</time><name>PT3285</name></trkpt>
<trkpt lat="51.604788" lon="03.835069"><ele>2.5</ele><time>2022-11-16T11:56:34Z</time><name>PT3286</name></trkpt>
<trkpt lat="51.604786" lon="03.835053"><ele>2.6</ele><time>2022-11-16T11:56:35Z</time><name>PT3287</name></trkpt>
<trkpt lat="51.604784" lon="03.835036"><ele>3</ele><time>2022-11-16T11:56:36Z</time><name>PT3288</name></trkpt>
<trkpt lat="51.604783" lon="03.835018"><ele>3</ele><time>2022-11-16T11:56:37Z</time><name>PT3289</name></trkpt>
<trkpt lat="51.604782" lon="03.835000"><ele>3.1</ele><time>2022-11-16T11:56:38Z</time><name>PT3290</name></trkpt>
<trkpt lat="51.604782" lon="03.834984"><ele>2.9</ele><time>2022-11-16T11:56:39Z</time><name>PT3291</name></trkpt>
<trkpt lat="51.604782" lon="03.834968"><ele>3</ele><time>2022-11-16T11:56:40Z</time><name>PT3292</name></trkpt>
<trkpt lat="51.604782" lon="03.834953"><ele>3.3</ele><time>2022-11-16T11:56:41Z</time><name>PT3293</name></trkpt>
<trkpt lat="51.604784" lon="03.834938"><ele>3.3</ele><time>2022-11-16T11:56:42Z</time><name>PT3294</name></trkpt>
<trkpt lat="51.604786" lon="03.834920"><ele>3.5</ele><time>2022-11-16T11:56:43Z</time><name>PT3295</name></trkpt>
<trkpt lat="51.604787" lon="03.834903"><ele>3.9</ele><time>2022-11-16T11:56:44Z</time><name>PT3296</name></trkpt>
<trkpt lat="51.604787" lon="03.834886"><ele>4</ele><time>2022-11-16T11:56:45Z</time><name>PT3297</name></trkpt>
<trkpt lat="51.604786" lon="03.834869"><ele>4.1</ele><time>2022-11-16T11:56:46Z</time><name>PT3298</name></trkpt>
<trkpt lat="51.604786" lon="03.834854"><ele>4.2</ele><time>2022-11-16T11:56:47Z</time><name>PT3299</name></trkpt>
<trkpt lat="51.604786" lon="03.834839"><ele>3.9</ele><time>2022-11-16T11:56:48Z</time><name>PT3300</name></trkpt>
<trkpt lat="51.604786" lon="03.834822"><ele>3.7</ele><time>2022-11-16T11:56:49Z</time><name>PT3301</name></trkpt>
<trkpt lat="51.604787" lon="03.834807"><ele>3.3</ele><time>2022-11-16T11:56:50Z</time><name>PT3302</name></trkpt>
<trkpt lat="51.604786" lon="03.834790"><ele>3.2</ele><time>2022-11-16T11:56:51Z</time><name>PT3303</name></trkpt>
<trkpt lat="51.604785" lon="03.834772"><ele>3</ele><time>2022-11-16T11:56:52Z</time><name>PT3304</name></trkpt>
<trkpt lat="51.604784" lon="03.834757"><ele>3.1</ele><time>2022-11-16T11:56:53Z</time><name>PT3305</name></trkpt>
<trkpt lat="51.604784" lon="03.834740"><ele>3.5</ele><time>2022-11-16T11:56:54Z</time><name>PT3306</name></trkpt>
<trkpt lat="51.604785" lon="03.834723"><ele>3.4</ele><time>2022-11-16T11:56:55Z</time><name>PT3307</name></trkpt>
<trkpt lat="51.604784" lon="03.834709"><ele>3.4</ele><time>2022-11-16T11:56:56Z</time><name>PT3308</name></trkpt>
<trkpt lat="51.604784" lon="03.834693"><ele>3.5</ele><time>2022-11-16T11:56:57Z</time><name>PT3309</name></trkpt>
<trkpt lat="51.604784" lon="03.834676"><ele>3.2</ele><time>2022-11-16T11:56:58Z</time><name>PT3310</name></trkpt>
<trkpt lat="51.604785" lon="03.834660"><ele>3</ele><time>2022-11-16T11:56:59Z</time><name>PT3311</name></trkpt>
<trkpt lat="51.604787" lon="03.834645"><ele>3</ele><time>2022-11-16T11:57:00Z</time><name>PT3312</name></trkpt>
<trkpt lat="51.604788" lon="03.834628"><ele>2.8</ele><time>2022-11-16T11:57:01Z</time><name>PT3313</name></trkpt>
<trkpt lat="51.604789" lon="03.834610"><ele>2.7</ele><time>2022-11-16T11:57:02Z</time><name>PT3314</name></trkpt>
<trkpt lat="51.604788" lon="03.834593"><ele>2.5</ele><time>2022-11-16T11:57:03Z</time><name>PT3315</name></trkpt>
<trkpt lat="51.604788" lon="03.834577"><ele>2.5</ele><time>2022-11-16T11:57:04Z</time><name>PT3316</name></trkpt>
<trkpt lat="51.604788" lon="03.834561"><ele>2.3</ele><time>2022-11-16T11:57:05Z</time><name>PT3317</name></trkpt>
<trkpt lat="51.604790" lon="03.834548"><ele>2.3</ele><time>2022-11-16T11:57:06Z</time><name>PT3318</name></trkpt>
<trkpt lat="51.604792" lon="03.834533"><ele>2.3</ele><time>2022-11-16T11:57:07Z</time><name>PT3319</name></trkpt>
<trkpt lat="51.604793" lon="03.834517"><ele>2.5</ele><time>2022-11-16T11:57:08Z</time><name>PT3320</name></trkpt>
<trkpt lat="51.604794" lon="03.834500"><ele>2.5</ele><time>2022-11-16T11:57:09Z</time><name>PT3321</name></trkpt>
<trkpt lat="51.604793" lon="03.834482"><ele>2.7</ele><time>2022-11-16T11:57:10Z</time><name>PT3322</name></trkpt>
<trkpt lat="51.604791" lon="03.834467"><ele>2.9</ele><time>2022-11-16T11:57:11Z</time><name>PT3323</name></trkpt>
<trkpt lat="51.604791" lon="03.834451"><ele>3</ele><time>2022-11-16T11:57:12Z</time><name>PT3324</name></trkpt>
<trkpt lat="51.604791" lon="03.834435"><ele>3.3</ele><time>2022-11-16T11:57:13Z</time><name>PT3325</name></trkpt>
<trkpt lat="51.604791" lon="03.834420"><ele>3.5</ele><time>2022-11-16T11:57:14Z</time><name>PT3326</name></trkpt>
<trkpt lat="51.604791" lon="03.834406"><ele>3.5</ele><time>2022-11-16T11:57:16Z</time><name>PT3327</name></trkpt>
<trkpt lat="51.604791" lon="03.834392"><ele>3.4</ele><time>2022-11-16T11:57:16Z</time><name>PT3328</name></trkpt>
<trkpt lat="51.604790" lon="03.834376"><ele>3.4</ele><time>2022-11-16T11:57:17Z</time><name>PT3329</name></trkpt>
<trkpt lat="51.604790" lon="03.834362"><ele>3.1</ele><time>2022-11-16T11:57:18Z</time><name>PT3330</name></trkpt>
<trkpt lat="51.604791" lon="03.834347"><ele>3.1</ele><time>2022-11-16T11:57:19Z</time><name>PT3331</name></trkpt>
<trkpt lat="51.604792" lon="03.834332"><ele>3</ele><time>2022-11-16T11:57:20Z</time><name>PT3332</name></trkpt>
<trkpt lat="51.604792" lon="03.834318"><ele>3</ele><time>2022-11-16T11:57:21Z</time><name>PT3333</name></trkpt>
<trkpt lat="51.604791" lon="03.834303"><ele>2.9</ele><time>2022-11-16T11:57:22Z</time><name>PT3334</name></trkpt>
<trkpt lat="51.604791" lon="03.834290"><ele>3</ele><time>2022-11-16T11:57:23Z</time><name>PT3335</name></trkpt>
<trkpt lat="51.604792" lon="03.834276"><ele>3</ele><time>2022-11-16T11:57:24Z</time><name>PT3336</name></trkpt>
<trkpt lat="51.604793" lon="03.834261"><ele>3.2</ele><time>2022-11-16T11:57:25Z</time><name>PT3337</name></trkpt>
<trkpt lat="51.604793" lon="03.834249"><ele>3.2</ele><time>2022-11-16T11:57:26Z</time><name>PT3338</name></trkpt>
<trkpt lat="51.604793" lon="03.834237"><ele>3.4</ele><time>2022-11-16T11:57:27Z</time><name>PT3339</name></trkpt>
<trkpt lat="51.604792" lon="03.834225"><ele>3.5</ele><time>2022-11-16T11:57:28Z</time><name>PT3340</name></trkpt>
<trkpt lat="51.604793" lon="03.834211"><ele>3.5</ele><time>2022-11-16T11:57:29Z</time><name>PT3341</name></trkpt>
<trkpt lat="51.604794" lon="03.834198"><ele>3.5</ele><time>2022-11-16T11:57:31Z</time><name>PT3342</name></trkpt>
<trkpt lat="51.604794" lon="03.834186"><ele>3.5</ele><time>2022-11-16T11:57:31Z</time><name>PT3343</name></trkpt>
<trkpt lat="51.604795" lon="03.834174"><ele>3.5</ele><time>2022-11-16T11:57:32Z</time><name>PT3344</name></trkpt>
<trkpt lat="51.604796" lon="03.834164"><ele>3.4</ele><time>2022-11-16T11:57:33Z</time><name>PT3345</name></trkpt>
<trkpt lat="51.604798" lon="03.834157"><ele>3.5</ele><time>2022-11-16T11:57:34Z</time><name>PT3346</name></trkpt>
<trkpt lat="51.604798" lon="03.834151"><ele>3.5</ele><time>2022-11-16T11:57:35Z</time><name>PT3347</name></trkpt>
<trkpt lat="51.604798" lon="03.834143"><ele>3.6</ele><time>2022-11-16T11:57:36Z</time><name>PT3348</name></trkpt>
<trkpt lat="51.604799" lon="03.834135"><ele>3.6</ele><time>2022-11-16T11:57:37Z</time><name>PT3349</name></trkpt>
<trkpt lat="51.604802" lon="03.834137"><ele>3.7</ele><time>2022-11-16T11:57:38Z</time><name>PT3350</name></trkpt>
<trkpt lat="51.604805" lon="03.834140"><ele>3.5</ele><time>2022-11-16T11:57:39Z</time><name>PT3351</name></trkpt>
<trkpt lat="51.604807" lon="03.834137"><ele>3.5</ele><time>2022-11-16T11:57:40Z</time><name>PT3352</name></trkpt>
<trkpt lat="51.604806" lon="03.834136"><ele>3.5</ele><time>2022-11-16T11:57:41Z</time><name>PT3353</name></trkpt>
<trkpt lat="51.604806" lon="03.834135"><ele>3.5</ele><time>2022-11-16T11:57:42Z</time><name>PT3354</name></trkpt>
<trkpt lat="51.604805" lon="03.834134"><ele>3.5</ele><time>2022-11-16T11:57:43Z</time><name>PT3355</name></trkpt>
<trkpt lat="51.604808" lon="03.834125"><ele>1.9</ele><time>2022-11-16T11:59:20Z</time><name>PT3356</name></trkpt>
<trkpt lat="51.604813" lon="03.834119"><ele>1.8</ele><time>2022-11-16T11:59:21Z</time><name>PT3357</name></trkpt>
<trkpt lat="51.604817" lon="03.834117"><ele>1.7</ele><time>2022-11-16T11:59:22Z</time><name>PT3358</name></trkpt>
<trkpt lat="51.604822" lon="03.834114"><ele>1.6</ele><time>2022-11-16T11:59:23Z</time><name>PT3359</name></trkpt>
<trkpt lat="51.604827" lon="03.834107"><ele>1.4</ele><time>2022-11-16T11:59:25Z</time><name>PT3360</name></trkpt>
<trkpt lat="51.604837" lon="03.834099"><ele>1.2</ele><time>2022-11-16T11:59:26Z</time><name>PT3361</name></trkpt>
<trkpt lat="51.604842" lon="03.834099"><ele>1</ele><time>2022-11-16T11:59:27Z</time><name>PT3362</name></trkpt>
<trkpt lat="51.604846" lon="03.834096"><ele>0.9</ele><time>2022-11-16T11:59:28Z</time><name>PT3363</name></trkpt>
<trkpt lat="51.604851" lon="03.834092"><ele>0.7</ele><time>2022-11-16T11:59:29Z</time><name>PT3364</name></trkpt>
<trkpt lat="51.604858" lon="03.834088"><ele>0.3</ele><time>2022-11-16T11:59:30Z</time><name>PT3365</name></trkpt>
<trkpt lat="51.604866" lon="03.834084"><ele>0.3</ele><time>2022-11-16T11:59:31Z</time><name>PT3366</name></trkpt>
<trkpt lat="51.604872" lon="03.834082"><ele>0.3</ele><time>2022-11-16T11:59:32Z</time><name>PT3367</name></trkpt>
<trkpt lat="51.604880" lon="03.834078"><ele>0.1</ele><time>2022-11-16T11:59:33Z</time><name>PT3368</name></trkpt>
<trkpt lat="51.604885" lon="03.834068"><ele>0.2</ele><time>2022-11-16T11:59:34Z</time><name>PT3369</name></trkpt>
<trkpt lat="51.604888" lon="03.834054"><ele>0.3</ele><time>2022-11-16T11:59:35Z</time><name>PT3370</name></trkpt>
<trkpt lat="51.604891" lon="03.834038"><ele>0.1</ele><time>2022-11-16T11:59:36Z</time><name>PT3371</name></trkpt>
<trkpt lat="51.604891" lon="03.834025"><ele>0</ele><time>2022-11-16T11:59:37Z</time><name>PT3372</name></trkpt>
<trkpt lat="51.604892" lon="03.834011"><ele>0</ele><time>2022-11-16T11:59:38Z</time><name>PT3373</name></trkpt>
<trkpt lat="51.604894" lon="03.833997"><ele>0.1</ele><time>2022-11-16T11:59:39Z</time><name>PT3374</name></trkpt>
<trkpt lat="51.604895" lon="03.833981"><ele>0</ele><time>2022-11-16T11:59:40Z</time><name>PT3375</name></trkpt>
<trkpt lat="51.604895" lon="03.833963"><ele>0.1</ele><time>2022-11-16T11:59:41Z</time><name>PT3376</name></trkpt>
<trkpt lat="51.604895" lon="03.833946"><ele>0.3</ele><time>2022-11-16T11:59:42Z</time><name>PT3377</name></trkpt>
<trkpt lat="51.604894" lon="03.833928"><ele>0.4</ele><time>2022-11-16T11:59:43Z</time><name>PT3378</name></trkpt>
<trkpt lat="51.604894" lon="03.833910"><ele>0.3</ele><time>2022-11-16T11:59:44Z</time><name>PT3379</name></trkpt>
<trkpt lat="51.604893" lon="03.833892"><ele>0.4</ele><time>2022-11-16T11:59:45Z</time><name>PT3380</name></trkpt>
<trkpt lat="51.604894" lon="03.833874"><ele>0.4</ele><time>2022-11-16T11:59:46Z</time><name>PT3381</name></trkpt>
<trkpt lat="51.604896" lon="03.833857"><ele>0.4</ele><time>2022-11-16T11:59:47Z</time><name>PT3382</name></trkpt>
<trkpt lat="51.604897" lon="03.833842"><ele>0.4</ele><time>2022-11-16T11:59:48Z</time><name>PT3383</name></trkpt>
<trkpt lat="51.604897" lon="03.833827"><ele>0.3</ele><time>2022-11-16T11:59:49Z</time><name>PT3384</name></trkpt>
<trkpt lat="51.604898" lon="03.833810"><ele>0.2</ele><time>2022-11-16T11:59:50Z</time><name>PT3385</name></trkpt>
<trkpt lat="51.604898" lon="03.833791"><ele>0.4</ele><time>2022-11-16T11:59:51Z</time><name>PT3386</name></trkpt>
<trkpt lat="51.604898" lon="03.833778"><ele>0.5</ele><time>2022-11-16T11:59:52Z</time><name>PT3387</name></trkpt>
<trkpt lat="51.604900" lon="03.833763"><ele>0.4</ele><time>2022-11-16T11:59:53Z</time><name>PT3388</name></trkpt>
<trkpt lat="51.604901" lon="03.833751"><ele>0.7</ele><time>2022-11-16T11:59:54Z</time><name>PT3389</name></trkpt>
<trkpt lat="51.604902" lon="03.833736"><ele>0.8</ele><time>2022-11-16T11:59:55Z</time><name>PT3390</name></trkpt>
<trkpt lat="51.604902" lon="03.833722"><ele>0.6</ele><time>2022-11-16T11:59:56Z</time><name>PT3391</name></trkpt>
<trkpt lat="51.604903" lon="03.833707"><ele>0.4</ele><time>2022-11-16T11:59:57Z</time><name>PT3392</name></trkpt>
<trkpt lat="51.604906" lon="03.833694"><ele>0.4</ele><time>2022-11-16T11:59:58Z</time><name>PT3393</name></trkpt>
<trkpt lat="51.604909" lon="03.833681"><ele>0.2</ele><time>2022-11-16T11:59:59Z</time><name>PT3394</name></trkpt>
<trkpt lat="51.604910" lon="03.833668"><ele>0.1</ele><time>2022-11-16T12:00:00Z</time><name>PT3395</name></trkpt>
<trkpt lat="51.604910" lon="03.833660"><ele>0.1</ele><time>2022-11-16T12:00:01Z</time><name>PT3396</name></trkpt>
<trkpt lat="51.604913" lon="03.833658"><ele>0.3</ele><time>2022-11-16T12:00:02Z</time><name>PT3397</name></trkpt>
<trkpt lat="51.604913" lon="03.833657"><ele>0.2</ele><time>2022-11-16T12:00:03Z</time><name>PT3398</name></trkpt>
<trkpt lat="51.604914" lon="03.833656"><ele>0.3</ele><time>2022-11-16T12:00:04Z</time><name>PT3399</name></trkpt>
<trkpt lat="51.604914" lon="03.833655"><ele>0.2</ele><time>2022-11-16T12:00:05Z</time><name>PT3400</name></trkpt>
<trkpt lat="51.604915" lon="03.833649"><ele>0</ele><time>2022-11-16T12:01:13Z</time><name>PT3401</name></trkpt>
<trkpt lat="51.604916" lon="03.833632"><ele>0.3</ele><time>2022-11-16T12:01:14Z</time><name>PT3402</name></trkpt>
<trkpt lat="51.604915" lon="03.833617"><ele>0</ele><time>2022-11-16T12:01:15Z</time><name>PT3403</name></trkpt>
<trkpt lat="51.604915" lon="03.833600"><ele>0</ele><time>2022-11-16T12:01:16Z</time><name>PT3404</name></trkpt>
<trkpt lat="51.604916" lon="03.833583"><ele>0.3</ele><time>2022-11-16T12:01:17Z</time><name>PT3405</name></trkpt>
<trkpt lat="51.604917" lon="03.833565"><ele>0.3</ele><time>2022-11-16T12:01:18Z</time><name>PT3406</name></trkpt>
<trkpt lat="51.604917" lon="03.833548"><ele>0.4</ele><time>2022-11-16T12:01:19Z</time><name>PT3407</name></trkpt>
<trkpt lat="51.604917" lon="03.833534"><ele>0.6</ele><time>2022-11-16T12:01:20Z</time><name>PT3408</name></trkpt>
<trkpt lat="51.604913" lon="03.833520"><ele>0.7</ele><time>2022-11-16T12:01:22Z</time><name>PT3409</name></trkpt>
<trkpt lat="51.604913" lon="03.833503"><ele>0.8</ele><time>2022-11-16T12:01:22Z</time><name>PT3410</name></trkpt>
<trkpt lat="51.604916" lon="03.833489"><ele>0.9</ele><time>2022-11-16T12:01:23Z</time><name>PT3411</name></trkpt>
<trkpt lat="51.604918" lon="03.833473"><ele>0.9</ele><time>2022-11-16T12:01:24Z</time><name>PT3412</name></trkpt>
<trkpt lat="51.604918" lon="03.833457"><ele>0.8</ele><time>2022-11-16T12:01:25Z</time><name>PT3413</name></trkpt>
<trkpt lat="51.604917" lon="03.833441"><ele>0.4</ele><time>2022-11-16T12:01:26Z</time><name>PT3414</name></trkpt>
<trkpt lat="51.604917" lon="03.833428"><ele>0.4</ele><time>2022-11-16T12:01:27Z</time><name>PT3415</name></trkpt>
<trkpt lat="51.604918" lon="03.833413"><ele>0.3</ele><time>2022-11-16T12:01:28Z</time><name>PT3416</name></trkpt>
<trkpt lat="51.604918" lon="03.833399"><ele>0.3</ele><time>2022-11-16T12:01:29Z</time><name>PT3417</name></trkpt>
<trkpt lat="51.604919" lon="03.833387"><ele>0.2</ele><time>2022-11-16T12:01:30Z</time><name>PT3418</name></trkpt>
<trkpt lat="51.604919" lon="03.833374"><ele>0.1</ele><time>2022-11-16T12:01:31Z</time><name>PT3419</name></trkpt>
<trkpt lat="51.604919" lon="03.833361"><ele>0.2</ele><time>2022-11-16T12:01:32Z</time><name>PT3420</name></trkpt>
<trkpt lat="51.604921" lon="03.833348"><ele>0.4</ele><time>2022-11-16T12:01:33Z</time><name>PT3421</name></trkpt>
<trkpt lat="51.604924" lon="03.833337"><ele>0.3</ele><time>2022-11-16T12:01:34Z</time><name>PT3422</name></trkpt>
<trkpt lat="51.604925" lon="03.833325"><ele>0.4</ele><time>2022-11-16T12:01:35Z</time><name>PT3423</name></trkpt>
<trkpt lat="51.604925" lon="03.833312"><ele>0.3</ele><time>2022-11-16T12:01:36Z</time><name>PT3424</name></trkpt>
<trkpt lat="51.604924" lon="03.833300"><ele>0.1</ele><time>2022-11-16T12:01:37Z</time><name>PT3425</name></trkpt>
<trkpt lat="51.604925" lon="03.833292"><ele>0.1</ele><time>2022-11-16T12:01:38Z</time><name>PT3426</name></trkpt>
<trkpt lat="51.604925" lon="03.833290"><ele>0.2</ele><time>2022-11-16T12:01:39Z</time><name>PT3427</name></trkpt>
<trkpt lat="51.604925" lon="03.833289"><ele>0.2</ele><time>2022-11-16T12:01:40Z</time><name>PT3428</name></trkpt>
<trkpt lat="51.604920" lon="03.833278"><ele>3.1</ele><time>2022-11-16T12:28:26Z</time><name>PT3429</name></trkpt>
<trkpt lat="51.604922" lon="03.833265"><ele>3.3</ele><time>2022-11-16T12:28:27Z</time><name>PT3430</name></trkpt>
<trkpt lat="51.604923" lon="03.833254"><ele>3.5</ele><time>2022-11-16T12:28:28Z</time><name>PT3431</name></trkpt>
<trkpt lat="51.604924" lon="03.833241"><ele>3.8</ele><time>2022-11-16T12:28:29Z</time><name>PT3432</name></trkpt>
<trkpt lat="51.604924" lon="03.833227"><ele>3.9</ele><time>2022-11-16T12:28:30Z</time><name>PT3433</name></trkpt>
<trkpt lat="51.604924" lon="03.833214"><ele>3.9</ele><time>2022-11-16T12:28:31Z</time><name>PT3434</name></trkpt>
<trkpt lat="51.604923" lon="03.833201"><ele>3.8</ele><time>2022-11-16T12:28:32Z</time><name>PT3435</name></trkpt>
<trkpt lat="51.604923" lon="03.833187"><ele>3.6</ele><time>2022-11-16T12:28:33Z</time><name>PT3436</name></trkpt>
<trkpt lat="51.604922" lon="03.833174"><ele>3.6</ele><time>2022-11-16T12:28:34Z</time><name>PT3437</name></trkpt>
<trkpt lat="51.604924" lon="03.833162"><ele>3.5</ele><time>2022-11-16T12:28:35Z</time><name>PT3438</name></trkpt>
<trkpt lat="51.604925" lon="03.833151"><ele>3.7</ele><time>2022-11-16T12:28:36Z</time><name>PT3439</name></trkpt>
<trkpt lat="51.604924" lon="03.833139"><ele>3.6</ele><time>2022-11-16T12:28:37Z</time><name>PT3440</name></trkpt>
<trkpt lat="51.604924" lon="03.833127"><ele>3.6</ele><time>2022-11-16T12:28:38Z</time><name>PT3441</name></trkpt>
<trkpt lat="51.604925" lon="03.833114"><ele>3.8</ele><time>2022-11-16T12:28:39Z</time><name>PT3442</name></trkpt>
<trkpt lat="51.604926" lon="03.833102"><ele>3.9</ele><time>2022-11-16T12:28:40Z</time><name>PT3443</name></trkpt>
<trkpt lat="51.604926" lon="03.833105"><ele>3.7</ele><time>2022-11-16T12:28:41Z</time><name>PT3444</name></trkpt>
<trkpt lat="51.604926" lon="03.833107"><ele>3.5</ele><time>2022-11-16T12:28:42Z</time><name>PT3445</name></trkpt>
<trkpt lat="51.604926" lon="03.833106"><ele>3.5</ele><time>2022-11-16T12:28:43Z</time><name>PT3446</name></trkpt>
<trkpt lat="51.604925" lon="03.833104"><ele>3.3</ele><time>2022-11-16T12:28:44Z</time><name>PT3447</name></trkpt>
<trkpt lat="51.604919" lon="03.833093"><ele>3</ele><time>2022-11-16T12:28:46Z</time><name>PT3448</name></trkpt>
<trkpt lat="51.604916" lon="03.833080"><ele>3.1</ele><time>2022-11-16T12:28:47Z</time><name>PT3449</name></trkpt>
<trkpt lat="51.604918" lon="03.833066"><ele>3.3</ele><time>2022-11-16T12:28:48Z</time><name>PT3450</name></trkpt>
<trkpt lat="51.604917" lon="03.833053"><ele>3</ele><time>2022-11-16T12:28:49Z</time><name>PT3451</name></trkpt>
<trkpt lat="51.604918" lon="03.833036"><ele>3</ele><time>2022-11-16T12:28:50Z</time><name>PT3452</name></trkpt>
<trkpt lat="51.604919" lon="03.833021"><ele>2.7</ele><time>2022-11-16T12:28:51Z</time><name>PT3453</name></trkpt>
<trkpt lat="51.604920" lon="03.833008"><ele>2.7</ele><time>2022-11-16T12:28:52Z</time><name>PT3454</name></trkpt>
<trkpt lat="51.604921" lon="03.832996"><ele>2.6</ele><time>2022-11-16T12:28:53Z</time><name>PT3455</name></trkpt>
<trkpt lat="51.604922" lon="03.832978"><ele>3</ele><time>2022-11-16T12:28:54Z</time><name>PT3456</name></trkpt>
<trkpt lat="51.604922" lon="03.832957"><ele>3</ele><time>2022-11-16T12:28:55Z</time><name>PT3457</name></trkpt>
<trkpt lat="51.604924" lon="03.832942"><ele>3.1</ele><time>2022-11-16T12:28:56Z</time><name>PT3458</name></trkpt>
<trkpt lat="51.604926" lon="03.832929"><ele>3.2</ele><time>2022-11-16T12:28:57Z</time><name>PT3459</name></trkpt>
<trkpt lat="51.604927" lon="03.832920"><ele>3.1</ele><time>2022-11-16T12:28:58Z</time><name>PT3460</name></trkpt>
<trkpt lat="51.604929" lon="03.832914"><ele>3.1</ele><time>2022-11-16T12:28:59Z</time><name>PT3461</name></trkpt>
<trkpt lat="51.604931" lon="03.832907"><ele>3.1</ele><time>2022-11-16T12:29:00Z</time><name>PT3462</name></trkpt>
<trkpt lat="51.604930" lon="03.832896"><ele>3.2</ele><time>2022-11-16T12:29:01Z</time><name>PT3463</name></trkpt>
<trkpt lat="51.604929" lon="03.832875"><ele>3.4</ele><time>2022-11-16T12:29:02Z</time><name>PT3464</name></trkpt>
<trkpt lat="51.604929" lon="03.832847"><ele>3.4</ele><time>2022-11-16T12:29:03Z</time><name>PT3465</name></trkpt>
<trkpt lat="51.604931" lon="03.832819"><ele>3.3</ele><time>2022-11-16T12:29:04Z</time><name>PT3466</name></trkpt>
<trkpt lat="51.604931" lon="03.832799"><ele>3.5</ele><time>2022-11-16T12:29:05Z</time><name>PT3467</name></trkpt>
<trkpt lat="51.604931" lon="03.832788"><ele>3.4</ele><time>2022-11-16T12:29:06Z</time><name>PT3468</name></trkpt>
<trkpt lat="51.604931" lon="03.832780"><ele>3.3</ele><time>2022-11-16T12:29:07Z</time><name>PT3469</name></trkpt>
<trkpt lat="51.604931" lon="03.832771"><ele>3.4</ele><time>2022-11-16T12:29:08Z</time><name>PT3470</name></trkpt>
<trkpt lat="51.604931" lon="03.832760"><ele>3.4</ele><time>2022-11-16T12:29:09Z</time><name>PT3471</name></trkpt>
<trkpt lat="51.604929" lon="03.832744"><ele>3.2</ele><time>2022-11-16T12:29:10Z</time><name>PT3472</name></trkpt>
<trkpt lat="51.604930" lon="03.832720"><ele>3.2</ele><time>2022-11-16T12:29:11Z</time><name>PT3473</name></trkpt>
<trkpt lat="51.604932" lon="03.832693"><ele>3.2</ele><time>2022-11-16T12:29:12Z</time><name>PT3474</name></trkpt>
<trkpt lat="51.604935" lon="03.832666"><ele>3.2</ele><time>2022-11-16T12:29:13Z</time><name>PT3475</name></trkpt>
<trkpt lat="51.604934" lon="03.832638"><ele>3.3</ele><time>2022-11-16T12:29:14Z</time><name>PT3476</name></trkpt>
<trkpt lat="51.604933" lon="03.832613"><ele>3.2</ele><time>2022-11-16T12:29:15Z</time><name>PT3477</name></trkpt>
<trkpt lat="51.604932" lon="03.832592"><ele>3.1</ele><time>2022-11-16T12:29:16Z</time><name>PT3478</name></trkpt>
<trkpt lat="51.604932" lon="03.832576"><ele>3</ele><time>2022-11-16T12:29:17Z</time><name>PT3479</name></trkpt>
<trkpt lat="51.604931" lon="03.832570"><ele>3</ele><time>2022-11-16T12:29:18Z</time><name>PT3480</name></trkpt>
<trkpt lat="51.604930" lon="03.832565"><ele>3</ele><time>2022-11-16T12:29:19Z</time><name>PT3481</name></trkpt>
<trkpt lat="51.604928" lon="03.832560"><ele>3</ele><time>2022-11-16T12:29:20Z</time><name>PT3482</name></trkpt>
<trkpt lat="51.604933" lon="03.832529"><ele>3.4</ele><time>2022-11-16T12:29:26Z</time><name>PT3483</name></trkpt>
<trkpt lat="51.604932" lon="03.832493"><ele>3.5</ele><time>2022-11-16T12:29:27Z</time><name>PT3484</name></trkpt>
<trkpt lat="51.604932" lon="03.832454"><ele>3.5</ele><time>2022-11-16T12:29:28Z</time><name>PT3485</name></trkpt>
<trkpt lat="51.604933" lon="03.832417"><ele>3.5</ele><time>2022-11-16T12:29:29Z</time><name>PT3486</name></trkpt>
<trkpt lat="51.604932" lon="03.832381"><ele>3.6</ele><time>2022-11-16T12:29:30Z</time><name>PT3487</name></trkpt>
<trkpt lat="51.604929" lon="03.832346"><ele>3.5</ele><time>2022-11-16T12:29:31Z</time><name>PT3488</name></trkpt>
<trkpt lat="51.604928" lon="03.832316"><ele>3.4</ele><time>2022-11-16T12:29:32Z</time><name>PT3489</name></trkpt>
<trkpt lat="51.604926" lon="03.832304"><ele>3.2</ele><time>2022-11-16T12:29:33Z</time><name>PT3490</name></trkpt>
<trkpt lat="51.604923" lon="03.832292"><ele>3</ele><time>2022-11-16T12:29:34Z</time><name>PT3491</name></trkpt>
<trkpt lat="51.604924" lon="03.832283"><ele>3.1</ele><time>2022-11-16T12:29:35Z</time><name>PT3492</name></trkpt>
<trkpt lat="51.604924" lon="03.832279"><ele>3.1</ele><time>2022-11-16T12:29:36Z</time><name>PT3493</name></trkpt>
<trkpt lat="51.604924" lon="03.832276"><ele>3.2</ele><time>2022-11-16T12:29:37Z</time><name>PT3494</name></trkpt>
<trkpt lat="51.604918" lon="03.832267"><ele>3.3</ele><time>2022-11-16T12:29:38Z</time><name>PT3495</name></trkpt>
<trkpt lat="51.604914" lon="03.832256"><ele>3.5</ele><time>2022-11-16T12:29:39Z</time><name>PT3496</name></trkpt>
<trkpt lat="51.604909" lon="03.832236"><ele>3.5</ele><time>2022-11-16T12:29:40Z</time><name>PT3497</name></trkpt>
<trkpt lat="51.604901" lon="03.832215"><ele>3.5</ele><time>2022-11-16T12:29:41Z</time><name>PT3498</name></trkpt>
<trkpt lat="51.604891" lon="03.832188"><ele>3.3</ele><time>2022-11-16T12:29:42Z</time><name>PT3499</name></trkpt>
<trkpt lat="51.604887" lon="03.832157"><ele>3.2</ele><time>2022-11-16T12:29:43Z</time><name>PT3500</name></trkpt>
<trkpt lat="51.604883" lon="03.832126"><ele>3.3</ele><time>2022-11-16T12:29:44Z</time><name>PT3501</name></trkpt>
<trkpt lat="51.604879" lon="03.832092"><ele>3.3</ele><time>2022-11-16T12:29:45Z</time><name>PT3502</name></trkpt>
<trkpt lat="51.604875" lon="03.832064"><ele>3.3</ele><time>2022-11-16T12:29:46Z</time><name>PT3503</name></trkpt>
<trkpt lat="51.604870" lon="03.832047"><ele>3.5</ele><time>2022-11-16T12:29:47Z</time><name>PT3504</name></trkpt>
<trkpt lat="51.604866" lon="03.832034"><ele>3.7</ele><time>2022-11-16T12:29:48Z</time><name>PT3505</name></trkpt>
<trkpt lat="51.604865" lon="03.832029"><ele>3.5</ele><time>2022-11-16T12:29:49Z</time><name>PT3506</name></trkpt>
<trkpt lat="51.604865" lon="03.832024"><ele>3.5</ele><time>2022-11-16T12:29:50Z</time><name>PT3507</name></trkpt>
<trkpt lat="51.604863" lon="03.832021"><ele>3.5</ele><time>2022-11-16T12:29:51Z</time><name>PT3508</name></trkpt>
<trkpt lat="51.604863" lon="03.832018"><ele>3.5</ele><time>2022-11-16T12:29:52Z</time><name>PT3509</name></trkpt>
<trkpt lat="51.604861" lon="03.832013"><ele>3.4</ele><time>2022-11-16T12:29:53Z</time><name>PT3510</name></trkpt>
<trkpt lat="51.604858" lon="03.831997"><ele>3.4</ele><time>2022-11-16T12:29:54Z</time><name>PT3511</name></trkpt>
<trkpt lat="51.604851" lon="03.831975"><ele>3.6</ele><time>2022-11-16T12:29:55Z</time><name>PT3512</name></trkpt>
<trkpt lat="51.604844" lon="03.831956"><ele>3.6</ele><time>2022-11-16T12:29:56Z</time><name>PT3513</name></trkpt>
<trkpt lat="51.604837" lon="03.831936"><ele>3.7</ele><time>2022-11-16T12:29:57Z</time><name>PT3514</name></trkpt>
<trkpt lat="51.604832" lon="03.831911"><ele>3.8</ele><time>2022-11-16T12:29:58Z</time><name>PT3515</name></trkpt>
<trkpt lat="51.604829" lon="03.831889"><ele>3.8</ele><time>2022-11-16T12:29:59Z</time><name>PT3516</name></trkpt>
<trkpt lat="51.604824" lon="03.831873"><ele>3.7</ele><time>2022-11-16T12:30:00Z</time><name>PT3517</name></trkpt>
<trkpt lat="51.604821" lon="03.831864"><ele>3.9</ele><time>2022-11-16T12:30:01Z</time><name>PT3518</name></trkpt>
<trkpt lat="51.604817" lon="03.831863"><ele>3.8</ele><time>2022-11-16T12:30:02Z</time><name>PT3519</name></trkpt>
<trkpt lat="51.604816" lon="03.831860"><ele>3.8</ele><time>2022-11-16T12:30:03Z</time><name>PT3520</name></trkpt>
<trkpt lat="51.604818" lon="03.831853"><ele>3.7</ele><time>2022-11-16T12:30:04Z</time><name>PT3521</name></trkpt>
<trkpt lat="51.604816" lon="03.831843"><ele>3.6</ele><time>2022-11-16T12:30:05Z</time><name>PT3522</name></trkpt>
<trkpt lat="51.604814" lon="03.831838"><ele>3.5</ele><time>2022-11-16T12:30:06Z</time><name>PT3523</name></trkpt>
<trkpt lat="51.604810" lon="03.831830"><ele>3.5</ele><time>2022-11-16T12:30:07Z</time><name>PT3524</name></trkpt>
<trkpt lat="51.604807" lon="03.831820"><ele>3.9</ele><time>2022-11-16T12:30:09Z</time><name>PT3525</name></trkpt>
<trkpt lat="51.604797" lon="03.831784"><ele>4.1</ele><time>2022-11-16T12:30:10Z</time><name>PT3526</name></trkpt>
<trkpt lat="51.604792" lon="03.831744"><ele>4.3</ele><time>2022-11-16T12:30:11Z</time><name>PT3527</name></trkpt>
<trkpt lat="51.604783" lon="03.831706"><ele>4.5</ele><time>2022-11-16T12:30:12Z</time><name>PT3528</name></trkpt>
<trkpt lat="51.604772" lon="03.831673"><ele>4.5</ele><time>2022-11-16T12:30:13Z</time><name>PT3529</name></trkpt>
<trkpt lat="51.604763" lon="03.831641"><ele>4.4</ele><time>2022-11-16T12:30:14Z</time><name>PT3530</name></trkpt>
<trkpt lat="51.604755" lon="03.831612"><ele>4.1</ele><time>2022-11-16T12:30:15Z</time><name>PT3531</name></trkpt>
<trkpt lat="51.604746" lon="03.831585"><ele>3.9</ele><time>2022-11-16T12:30:16Z</time><name>PT3532</name></trkpt>
<trkpt lat="51.604739" lon="03.831563"><ele>3.7</ele><time>2022-11-16T12:30:17Z</time><name>PT3533</name></trkpt>
<trkpt lat="51.604736" lon="03.831552"><ele>3.5</ele><time>2022-11-16T12:30:18Z</time><name>PT3534</name></trkpt>
<trkpt lat="51.604737" lon="03.831540"><ele>3.6</ele><time>2022-11-16T12:30:19Z</time><name>PT3535</name></trkpt>
<trkpt lat="51.604740" lon="03.831535"><ele>3.5</ele><time>2022-11-16T12:30:20Z</time><name>PT3536</name></trkpt>
<trkpt lat="51.604744" lon="03.831531"><ele>3.6</ele><time>2022-11-16T12:30:21Z</time><name>PT3537</name></trkpt>
<trkpt lat="51.604742" lon="03.831527"><ele>3.5</ele><time>2022-11-16T12:30:22Z</time><name>PT3538</name></trkpt>
<trkpt lat="51.604740" lon="03.831521"><ele>3.3</ele><time>2022-11-16T12:30:23Z</time><name>PT3539</name></trkpt>
<trkpt lat="51.604736" lon="03.831512"><ele>3.4</ele><time>2022-11-16T12:30:24Z</time><name>PT3540</name></trkpt>
<trkpt lat="51.604734" lon="03.831501"><ele>3.5</ele><time>2022-11-16T12:30:25Z</time><name>PT3541</name></trkpt>
<trkpt lat="51.604733" lon="03.831480"><ele>3.5</ele><time>2022-11-16T12:30:26Z</time><name>PT3542</name></trkpt>
<trkpt lat="51.604731" lon="03.831455"><ele>3.4</ele><time>2022-11-16T12:30:27Z</time><name>PT3543</name></trkpt>
<trkpt lat="51.604724" lon="03.831430"><ele>3.5</ele><time>2022-11-16T12:30:28Z</time><name>PT3544</name></trkpt>
<trkpt lat="51.604715" lon="03.831397"><ele>3.5</ele><time>2022-11-16T12:30:29Z</time><name>PT3545</name></trkpt>
<trkpt lat="51.604706" lon="03.831364"><ele>3.3</ele><time>2022-11-16T12:30:30Z</time><name>PT3546</name></trkpt>
<trkpt lat="51.604698" lon="03.831330"><ele>3.3</ele><time>2022-11-16T12:30:31Z</time><name>PT3547</name></trkpt>
<trkpt lat="51.604690" lon="03.831302"><ele>3.3</ele><time>2022-11-16T12:30:32Z</time><name>PT3548</name></trkpt>
<trkpt lat="51.604688" lon="03.831278"><ele>3.3</ele><time>2022-11-16T12:30:33Z</time><name>PT3549</name></trkpt>
<trkpt lat="51.604687" lon="03.831261"><ele>3.3</ele><time>2022-11-16T12:30:34Z</time><name>PT3550</name></trkpt>
<trkpt lat="51.604684" lon="03.831250"><ele>3.5</ele><time>2022-11-16T12:30:35Z</time><name>PT3551</name></trkpt>
<trkpt lat="51.604685" lon="03.831242"><ele>3.5</ele><time>2022-11-16T12:30:36Z</time><name>PT3552</name></trkpt>
<trkpt lat="51.604683" lon="03.831235"><ele>3.5</ele><time>2022-11-16T12:30:37Z</time><name>PT3553</name></trkpt>
<trkpt lat="51.604680" lon="03.831229"><ele>3.7</ele><time>2022-11-16T12:30:38Z</time><name>PT3554</name></trkpt>
<trkpt lat="51.604681" lon="03.831224"><ele>3.6</ele><time>2022-11-16T12:30:39Z</time><name>PT3555</name></trkpt>
<trkpt lat="51.604679" lon="03.831215"><ele>3.6</ele><time>2022-11-16T12:30:40Z</time><name>PT3556</name></trkpt>
<trkpt lat="51.604671" lon="03.831200"><ele>3.7</ele><time>2022-11-16T12:30:41Z</time><name>PT3557</name></trkpt>
<trkpt lat="51.604666" lon="03.831183"><ele>3.6</ele><time>2022-11-16T12:30:42Z</time><name>PT3558</name></trkpt>
<trkpt lat="51.604658" lon="03.831158"><ele>3.7</ele><time>2022-11-16T12:30:43Z</time><name>PT3559</name></trkpt>
<trkpt lat="51.604648" lon="03.831126"><ele>3.7</ele><time>2022-11-16T12:30:44Z</time><name>PT3560</name></trkpt>
<trkpt lat="51.604640" lon="03.831094"><ele>3.6</ele><time>2022-11-16T12:30:45Z</time><name>PT3561</name></trkpt>
<trkpt lat="51.604633" lon="03.831062"><ele>3.6</ele><time>2022-11-16T12:30:46Z</time><name>PT3562</name></trkpt>
<trkpt lat="51.604629" lon="03.831034"><ele>3.5</ele><time>2022-11-16T12:30:47Z</time><name>PT3563</name></trkpt>
<trkpt lat="51.604623" lon="03.831012"><ele>3.3</ele><time>2022-11-16T12:30:48Z</time><name>PT3564</name></trkpt>
<trkpt lat="51.604619" lon="03.830994"><ele>3.2</ele><time>2022-11-16T12:30:49Z</time><name>PT3565</name></trkpt>
<trkpt lat="51.604616" lon="03.830978"><ele>3.1</ele><time>2022-11-16T12:30:50Z</time><name>PT3566</name></trkpt>
<trkpt lat="51.604611" lon="03.830969"><ele>3</ele><time>2022-11-16T12:30:51Z</time><name>PT3567</name></trkpt>
<trkpt lat="51.604609" lon="03.830959"><ele>3</ele><time>2022-11-16T12:30:52Z</time><name>PT3568</name></trkpt>
<trkpt lat="51.604610" lon="03.830946"><ele>3</ele><time>2022-11-16T12:30:53Z</time><name>PT3569</name></trkpt>
<trkpt lat="51.604609" lon="03.830942"><ele>2.9</ele><time>2022-11-16T12:30:54Z</time><name>PT3570</name></trkpt>
<trkpt lat="51.604609" lon="03.830937"><ele>3</ele><time>2022-11-16T12:30:55Z</time><name>PT3571</name></trkpt>
<trkpt lat="51.604609" lon="03.830929"><ele>3.4</ele><time>2022-11-16T12:30:56Z</time><name>PT3572</name></trkpt>
<trkpt lat="51.604607" lon="03.830919"><ele>3.4</ele><time>2022-11-16T12:30:57Z</time><name>PT3573</name></trkpt>
<trkpt lat="51.604601" lon="03.830902"><ele>3.4</ele><time>2022-11-16T12:30:58Z</time><name>PT3574</name></trkpt>
<trkpt lat="51.604593" lon="03.830877"><ele>3.5</ele><time>2022-11-16T12:30:59Z</time><name>PT3575</name></trkpt>
<trkpt lat="51.604586" lon="03.830852"><ele>3.5</ele><time>2022-11-16T12:31:00Z</time><name>PT3576</name></trkpt>
<trkpt lat="51.604578" lon="03.830824"><ele>3.5</ele><time>2022-11-16T12:31:01Z</time><name>PT3577</name></trkpt>
<trkpt lat="51.604570" lon="03.830793"><ele>3.5</ele><time>2022-11-16T12:31:02Z</time><name>PT3578</name></trkpt>
<trkpt lat="51.604566" lon="03.830764"><ele>3.5</ele><time>2022-11-16T12:31:03Z</time><name>PT3579</name></trkpt>
<trkpt lat="51.604564" lon="03.830749"><ele>3.4</ele><time>2022-11-16T12:31:04Z</time><name>PT3580</name></trkpt>
<trkpt lat="51.604562" lon="03.830740"><ele>3.4</ele><time>2022-11-16T12:31:05Z</time><name>PT3581</name></trkpt>
<trkpt lat="51.604555" lon="03.830719"><ele>3.5</ele><time>2022-11-16T12:31:06Z</time><name>PT3582</name></trkpt>
<trkpt lat="51.604554" lon="03.830706"><ele>3.7</ele><time>2022-11-16T12:31:07Z</time><name>PT3583</name></trkpt>
<trkpt lat="51.604554" lon="03.830695"><ele>3.9</ele><time>2022-11-16T12:31:08Z</time><name>PT3584</name></trkpt>
<trkpt lat="51.604553" lon="03.830687"><ele>4</ele><time>2022-11-16T12:31:09Z</time><name>PT3585</name></trkpt>
<trkpt lat="51.604550" lon="03.830684"><ele>3.9</ele><time>2022-11-16T12:31:10Z</time><name>PT3586</name></trkpt>
<trkpt lat="51.604545" lon="03.830673"><ele>3.8</ele><time>2022-11-16T12:31:11Z</time><name>PT3587</name></trkpt>
<trkpt lat="51.604541" lon="03.830652"><ele>3.5</ele><time>2022-11-16T12:31:12Z</time><name>PT3588</name></trkpt>
<trkpt lat="51.604537" lon="03.830634"><ele>3.5</ele><time>2022-11-16T12:31:13Z</time><name>PT3589</name></trkpt>
<trkpt lat="51.604534" lon="03.830620"><ele>3.5</ele><time>2022-11-16T12:31:14Z</time><name>PT3590</name></trkpt>
<trkpt lat="51.604534" lon="03.830616"><ele>3.4</ele><time>2022-11-16T12:31:15Z</time><name>PT3591</name></trkpt>
<trkpt lat="51.604537" lon="03.830614"><ele>3.5</ele><time>2022-11-16T12:31:16Z</time><name>PT3592</name></trkpt>
<trkpt lat="51.604532" lon="03.830604"><ele>3.5</ele><time>2022-11-16T12:31:17Z</time><name>PT3593</name></trkpt>
<trkpt lat="51.604526" lon="03.830587"><ele>3.4</ele><time>2022-11-16T12:31:18Z</time><name>PT3594</name></trkpt>
<trkpt lat="51.604518" lon="03.830559"><ele>3.2</ele><time>2022-11-16T12:31:19Z</time><name>PT3595</name></trkpt>
<trkpt lat="51.604512" lon="03.830530"><ele>3.2</ele><time>2022-11-16T12:31:20Z</time><name>PT3596</name></trkpt>
<trkpt lat="51.604507" lon="03.830510"><ele>3.1</ele><time>2022-11-16T12:31:21Z</time><name>PT3597</name></trkpt>
<trkpt lat="51.604504" lon="03.830500"><ele>3</ele><time>2022-11-16T12:31:22Z</time><name>PT3598</name></trkpt>
<trkpt lat="51.604503" lon="03.830497"><ele>3</ele><time>2022-11-16T12:31:23Z</time><name>PT3599</name></trkpt>
<trkpt lat="51.604504" lon="03.830495"><ele>3.1</ele><time>2022-11-16T12:31:24Z</time><name>PT3600</name></trkpt>
<trkpt lat="51.604500" lon="03.830492"><ele>3.1</ele><time>2022-11-16T12:31:25Z</time><name>PT3601</name></trkpt>
<trkpt lat="51.604493" lon="03.830477"><ele>3.2</ele><time>2022-11-16T12:31:26Z</time><name>PT3602</name></trkpt>
<trkpt lat="51.604487" lon="03.830455"><ele>3.5</ele><time>2022-11-16T12:31:27Z</time><name>PT3603</name></trkpt>
<trkpt lat="51.604482" lon="03.830425"><ele>3.7</ele><time>2022-11-16T12:31:28Z</time><name>PT3604</name></trkpt>
<trkpt lat="51.604476" lon="03.830398"><ele>3.7</ele><time>2022-11-16T12:31:29Z</time><name>PT3605</name></trkpt>
<trkpt lat="51.604471" lon="03.830377"><ele>3.6</ele><time>2022-11-16T12:31:30Z</time><name>PT3606</name></trkpt>
<trkpt lat="51.604469" lon="03.830365"><ele>3.5</ele><time>2022-11-16T12:31:31Z</time><name>PT3607</name></trkpt>
<trkpt lat="51.604467" lon="03.830360"><ele>3.3</ele><time>2022-11-16T12:31:32Z</time><name>PT3608</name></trkpt>
<trkpt lat="51.604469" lon="03.830355"><ele>3.4</ele><time>2022-11-16T12:31:33Z</time><name>PT3609</name></trkpt>
<trkpt lat="51.604470" lon="03.830351"><ele>3.5</ele><time>2022-11-16T12:31:34Z</time><name>PT3610</name></trkpt>
<trkpt lat="51.604464" lon="03.830340"><ele>3.5</ele><time>2022-11-16T12:31:35Z</time><name>PT3611</name></trkpt>
<trkpt lat="51.604456" lon="03.830317"><ele>3.7</ele><time>2022-11-16T12:31:36Z</time><name>PT3612</name></trkpt>
<trkpt lat="51.604449" lon="03.830290"><ele>3.8</ele><time>2022-11-16T12:31:37Z</time><name>PT3613</name></trkpt>
<trkpt lat="51.604443" lon="03.830261"><ele>3.5</ele><time>2022-11-16T12:31:38Z</time><name>PT3614</name></trkpt>
<trkpt lat="51.604439" lon="03.830233"><ele>3.5</ele><time>2022-11-16T12:31:39Z</time><name>PT3615</name></trkpt>
<trkpt lat="51.604435" lon="03.830209"><ele>3.5</ele><time>2022-11-16T12:31:40Z</time><name>PT3616</name></trkpt>
<trkpt lat="51.604431" lon="03.830198"><ele>3.5</ele><time>2022-11-16T12:31:41Z</time><name>PT3617</name></trkpt>
<trkpt lat="51.604431" lon="03.830194"><ele>3.5</ele><time>2022-11-16T12:31:43Z</time><name>PT3618</name></trkpt>
<trkpt lat="51.604430" lon="03.830193"><ele>3.5</ele><time>2022-11-16T12:31:43Z</time><name>PT3619</name></trkpt>
<trkpt lat="51.604429" lon="03.830186"><ele>3.5</ele><time>2022-11-16T12:31:44Z</time><name>PT3620</name></trkpt>
<trkpt lat="51.604423" lon="03.830169"><ele>3.4</ele><time>2022-11-16T12:31:45Z</time><name>PT3621</name></trkpt>
<trkpt lat="51.604414" lon="03.830143"><ele>3.4</ele><time>2022-11-16T12:31:46Z</time><name>PT3622</name></trkpt>
<trkpt lat="51.604407" lon="03.830113"><ele>3.4</ele><time>2022-11-16T12:31:47Z</time><name>PT3623</name></trkpt>
<trkpt lat="51.604402" lon="03.830087"><ele>3.4</ele><time>2022-11-16T12:31:48Z</time><name>PT3624</name></trkpt>
<trkpt lat="51.604397" lon="03.830067"><ele>3.4</ele><time>2022-11-16T12:31:49Z</time><name>PT3625</name></trkpt>
<trkpt lat="51.604394" lon="03.830050"><ele>3.3</ele><time>2022-11-16T12:31:50Z</time><name>PT3626</name></trkpt>
<trkpt lat="51.604392" lon="03.830043"><ele>3.3</ele><time>2022-11-16T12:31:51Z</time><name>PT3627</name></trkpt>
<trkpt lat="51.604390" lon="03.830039"><ele>3.2</ele><time>2022-11-16T12:31:52Z</time><name>PT3628</name></trkpt>
<trkpt lat="51.604389" lon="03.830034"><ele>3.2</ele><time>2022-11-16T12:31:53Z</time><name>PT3629</name></trkpt>
<trkpt lat="51.604387" lon="03.830023"><ele>3.1</ele><time>2022-11-16T12:31:54Z</time><name>PT3630</name></trkpt>
<trkpt lat="51.604379" lon="03.830003"><ele>3.2</ele><time>2022-11-16T12:31:55Z</time><name>PT3631</name></trkpt>
<trkpt lat="51.604372" lon="03.829979"><ele>3.2</ele><time>2022-11-16T12:31:56Z</time><name>PT3632</name></trkpt>
<trkpt lat="51.604365" lon="03.829953"><ele>3.5</ele><time>2022-11-16T12:31:57Z</time><name>PT3633</name></trkpt>
<trkpt lat="51.604362" lon="03.829929"><ele>3.9</ele><time>2022-11-16T12:31:58Z</time><name>PT3634</name></trkpt>
<trkpt lat="51.604357" lon="03.829908"><ele>4.1</ele><time>2022-11-16T12:31:59Z</time><name>PT3635</name></trkpt>
<trkpt lat="51.604353" lon="03.829894"><ele>4.2</ele><time>2022-11-16T12:32:00Z</time><name>PT3636</name></trkpt>
<trkpt lat="51.604349" lon="03.829885"><ele>4.2</ele><time>2022-11-16T12:32:01Z</time><name>PT3637</name></trkpt>
<trkpt lat="51.604346" lon="03.829883"><ele>4.2</ele><time>2022-11-16T12:32:02Z</time><name>PT3638</name></trkpt>
<trkpt lat="51.604347" lon="03.829881"><ele>4.1</ele><time>2022-11-16T12:32:04Z</time><name>PT3639</name></trkpt>
<trkpt lat="51.604347" lon="03.829884"><ele>4</ele><time>2022-11-16T12:32:04Z</time><name>PT3640</name></trkpt>
<trkpt lat="51.604348" lon="03.829881"><ele>3.9</ele><time>2022-11-16T12:32:05Z</time><name>PT3641</name></trkpt>
<trkpt lat="51.604346" lon="03.829862"><ele>3.9</ele><time>2022-11-16T12:32:06Z</time><name>PT3642</name></trkpt>
<trkpt lat="51.604344" lon="03.829845"><ele>4</ele><time>2022-11-16T12:32:07Z</time><name>PT3643</name></trkpt>
<trkpt lat="51.604342" lon="03.829834"><ele>4.1</ele><time>2022-11-16T12:32:08Z</time><name>PT3644</name></trkpt>
<trkpt lat="51.604340" lon="03.829829"><ele>4.1</ele><time>2022-11-16T12:32:09Z</time><name>PT3645</name></trkpt>
<trkpt lat="51.604338" lon="03.829827"><ele>4.1</ele><time>2022-11-16T12:32:10Z</time><name>PT3646</name></trkpt>
<trkpt lat="51.604331" lon="03.829818"><ele>4.1</ele><time>2022-11-16T12:32:11Z</time><name>PT3647</name></trkpt>
<trkpt lat="51.604321" lon="03.829802"><ele>3.8</ele><time>2022-11-16T12:32:12Z</time><name>PT3648</name></trkpt>
<trkpt lat="51.604315" lon="03.829778"><ele>3.7</ele><time>2022-11-16T12:32:13Z</time><name>PT3649</name></trkpt>
<trkpt lat="51.604309" lon="03.829745"><ele>3.9</ele><time>2022-11-16T12:32:14Z</time><name>PT3650</name></trkpt>
<trkpt lat="51.604306" lon="03.829712"><ele>3.8</ele><time>2022-11-16T12:32:15Z</time><name>PT3651</name></trkpt>
<trkpt lat="51.604303" lon="03.829684"><ele>3.7</ele><time>2022-11-16T12:32:16Z</time><name>PT3652</name></trkpt>
<trkpt lat="51.604298" lon="03.829661"><ele>4</ele><time>2022-11-16T12:32:17Z</time><name>PT3653</name></trkpt>
<trkpt lat="51.604296" lon="03.829643"><ele>3.9</ele><time>2022-11-16T12:32:18Z</time><name>PT3654</name></trkpt>
<trkpt lat="51.604294" lon="03.829635"><ele>3.8</ele><time>2022-11-16T12:32:19Z</time><name>PT3655</name></trkpt>
<trkpt lat="51.604292" lon="03.829633"><ele>4</ele><time>2022-11-16T12:32:20Z</time><name>PT3656</name></trkpt>
<trkpt lat="51.604292" lon="03.829631"><ele>3.7</ele><time>2022-11-16T12:32:21Z</time><name>PT3657</name></trkpt>
<trkpt lat="51.604293" lon="03.829624"><ele>3.7</ele><time>2022-11-16T12:32:22Z</time><name>PT3658</name></trkpt>
<trkpt lat="51.604289" lon="03.829612"><ele>3.6</ele><time>2022-11-16T12:32:23Z</time><name>PT3659</name></trkpt>
<trkpt lat="51.604286" lon="03.829598"><ele>3.5</ele><time>2022-11-16T12:32:24Z</time><name>PT3660</name></trkpt>
<trkpt lat="51.604280" lon="03.829573"><ele>3.5</ele><time>2022-11-16T12:32:25Z</time><name>PT3661</name></trkpt>
<trkpt lat="51.604273" lon="03.829540"><ele>3.4</ele><time>2022-11-16T12:32:26Z</time><name>PT3662</name></trkpt>
<trkpt lat="51.604263" lon="03.829508"><ele>3.4</ele><time>2022-11-16T12:32:27Z</time><name>PT3663</name></trkpt>
<trkpt lat="51.604257" lon="03.829479"><ele>3.5</ele><time>2022-11-16T12:32:28Z</time><name>PT3664</name></trkpt>
<trkpt lat="51.604256" lon="03.829454"><ele>3.4</ele><time>2022-11-16T12:32:29Z</time><name>PT3665</name></trkpt>
<trkpt lat="51.604252" lon="03.829437"><ele>3.4</ele><time>2022-11-16T12:32:30Z</time><name>PT3666</name></trkpt>
<trkpt lat="51.604250" lon="03.829429"><ele>3.5</ele><time>2022-11-16T12:32:31Z</time><name>PT3667</name></trkpt>
<trkpt lat="51.604249" lon="03.829425"><ele>3.7</ele><time>2022-11-16T12:32:32Z</time><name>PT3668</name></trkpt>
<trkpt lat="51.604249" lon="03.829427"><ele>3.7</ele><time>2022-11-16T12:32:33Z</time><name>PT3669</name></trkpt>
<trkpt lat="51.604249" lon="03.829423"><ele>3.9</ele><time>2022-11-16T12:32:34Z</time><name>PT3670</name></trkpt>
<trkpt lat="51.604244" lon="03.829412"><ele>3.9</ele><time>2022-11-16T12:32:35Z</time><name>PT3671</name></trkpt>
<trkpt lat="51.604235" lon="03.829391"><ele>3.8</ele><time>2022-11-16T12:32:36Z</time><name>PT3672</name></trkpt>
<trkpt lat="51.604227" lon="03.829360"><ele>3.8</ele><time>2022-11-16T12:32:37Z</time><name>PT3673</name></trkpt>
<trkpt lat="51.604217" lon="03.829326"><ele>4</ele><time>2022-11-16T12:32:38Z</time><name>PT3674</name></trkpt>
<trkpt lat="51.604209" lon="03.829293"><ele>4</ele><time>2022-11-16T12:32:39Z</time><name>PT3675</name></trkpt>
<trkpt lat="51.604208" lon="03.829264"><ele>3.9</ele><time>2022-11-16T12:32:40Z</time><name>PT3676</name></trkpt>
<trkpt lat="51.604212" lon="03.829247"><ele>3.6</ele><time>2022-11-16T12:32:41Z</time><name>PT3677</name></trkpt>
<trkpt lat="51.604215" lon="03.829242"><ele>3.4</ele><time>2022-11-16T12:32:42Z</time><name>PT3678</name></trkpt>
<trkpt lat="51.604216" lon="03.829242"><ele>3.2</ele><time>2022-11-16T12:32:43Z</time><name>PT3679</name></trkpt>
<trkpt lat="51.604215" lon="03.829242"><ele>3</ele><time>2022-11-16T12:32:44Z</time><name>PT3680</name></trkpt>
<trkpt lat="51.604213" lon="03.829234"><ele>3</ele><time>2022-11-16T12:32:45Z</time><name>PT3681</name></trkpt>
<trkpt lat="51.604209" lon="03.829216"><ele>3.1</ele><time>2022-11-16T12:32:46Z</time><name>PT3682</name></trkpt>
<trkpt lat="51.604202" lon="03.829188"><ele>3.1</ele><time>2022-11-16T12:32:47Z</time><name>PT3683</name></trkpt>
<trkpt lat="51.604193" lon="03.829153"><ele>3.2</ele><time>2022-11-16T12:32:48Z</time><name>PT3684</name></trkpt>
<trkpt lat="51.604186" lon="03.829120"><ele>3.3</ele><time>2022-11-16T12:32:49Z</time><name>PT3685</name></trkpt>
<trkpt lat="51.604179" lon="03.829091"><ele>3.4</ele><time>2022-11-16T12:32:50Z</time><name>PT3686</name></trkpt>
<trkpt lat="51.604173" lon="03.829068"><ele>3.5</ele><time>2022-11-16T12:32:51Z</time><name>PT3687</name></trkpt>
<trkpt lat="51.604172" lon="03.829056"><ele>3.1</ele><time>2022-11-16T12:32:52Z</time><name>PT3688</name></trkpt>
<trkpt lat="51.604172" lon="03.829053"><ele>3.2</ele><time>2022-11-16T12:32:53Z</time><name>PT3689</name></trkpt>
<trkpt lat="51.604173" lon="03.829052"><ele>3.3</ele><time>2022-11-16T12:32:54Z</time><name>PT3690</name></trkpt>
<trkpt lat="51.604171" lon="03.829047"><ele>3.4</ele><time>2022-11-16T12:32:55Z</time><name>PT3691</name></trkpt>
<trkpt lat="51.604167" lon="03.829036"><ele>3.4</ele><time>2022-11-16T12:32:56Z</time><name>PT3692</name></trkpt>
<trkpt lat="51.604161" lon="03.829019"><ele>3.5</ele><time>2022-11-16T12:32:57Z</time><name>PT3693</name></trkpt>
<trkpt lat="51.604152" lon="03.828993"><ele>3.4</ele><time>2022-11-16T12:32:58Z</time><name>PT3694</name></trkpt>
<trkpt lat="51.604144" lon="03.828962"><ele>3.4</ele><time>2022-11-16T12:32:59Z</time><name>PT3695</name></trkpt>
<trkpt lat="51.604140" lon="03.828930"><ele>3.3</ele><time>2022-11-16T12:33:00Z</time><name>PT3696</name></trkpt>
<trkpt lat="51.604135" lon="03.828905"><ele>3.1</ele><time>2022-11-16T12:33:01Z</time><name>PT3697</name></trkpt>
<trkpt lat="51.604131" lon="03.828882"><ele>3.3</ele><time>2022-11-16T12:33:02Z</time><name>PT3698</name></trkpt>
<trkpt lat="51.604128" lon="03.828862"><ele>3.5</ele><time>2022-11-16T12:33:03Z</time><name>PT3699</name></trkpt>
<trkpt lat="51.604126" lon="03.828854"><ele>3.5</ele><time>2022-11-16T12:33:04Z</time><name>PT3700</name></trkpt>
<trkpt lat="51.604124" lon="03.828851"><ele>3.6</ele><time>2022-11-16T12:33:05Z</time><name>PT3701</name></trkpt>
<trkpt lat="51.604125" lon="03.828853"><ele>3.8</ele><time>2022-11-16T12:33:06Z</time><name>PT3702</name></trkpt>
<trkpt lat="51.604120" lon="03.828842"><ele>3.8</ele><time>2022-11-16T12:33:07Z</time><name>PT3703</name></trkpt>
<trkpt lat="51.604115" lon="03.828824"><ele>3.9</ele><time>2022-11-16T12:33:08Z</time><name>PT3704</name></trkpt>
<trkpt lat="51.604108" lon="03.828809"><ele>4.1</ele><time>2022-11-16T12:33:09Z</time><name>PT3705</name></trkpt>
<trkpt lat="51.604099" lon="03.828794"><ele>4.1</ele><time>2022-11-16T12:33:10Z</time><name>PT3706</name></trkpt>
<trkpt lat="51.604092" lon="03.828778"><ele>4.1</ele><time>2022-11-16T12:33:11Z</time><name>PT3707</name></trkpt>
<trkpt lat="51.604086" lon="03.828761"><ele>4.1</ele><time>2022-11-16T12:33:12Z</time><name>PT3708</name></trkpt>
<trkpt lat="51.604082" lon="03.828743"><ele>4.1</ele><time>2022-11-16T12:33:13Z</time><name>PT3709</name></trkpt>
<trkpt lat="51.604078" lon="03.828726"><ele>4</ele><time>2022-11-16T12:33:14Z</time><name>PT3710</name></trkpt>
<trkpt lat="51.604075" lon="03.828710"><ele>3.9</ele><time>2022-11-16T12:33:15Z</time><name>PT3711</name></trkpt>
<trkpt lat="51.604073" lon="03.828696"><ele>4.1</ele><time>2022-11-16T12:33:16Z</time><name>PT3712</name></trkpt>
<trkpt lat="51.604071" lon="03.828685"><ele>4.1</ele><time>2022-11-16T12:33:17Z</time><name>PT3713</name></trkpt>
<trkpt lat="51.604069" lon="03.828675"><ele>4</ele><time>2022-11-16T12:33:18Z</time><name>PT3714</name></trkpt>
<trkpt lat="51.604067" lon="03.828668"><ele>4</ele><time>2022-11-16T12:33:19Z</time><name>PT3715</name></trkpt>
<trkpt lat="51.604068" lon="03.828666"><ele>3.5</ele><time>2022-11-16T12:33:21Z</time><name>PT3716</name></trkpt>
<trkpt lat="51.604065" lon="03.828663"><ele>3.4</ele><time>2022-11-16T12:33:22Z</time><name>PT3717</name></trkpt>
<trkpt lat="51.604060" lon="03.828658"><ele>3</ele><time>2022-11-16T12:33:23Z</time><name>PT3718</name></trkpt>
<trkpt lat="51.604053" lon="03.828643"><ele>3.6</ele><time>2022-11-16T12:33:29Z</time><name>PT3719</name></trkpt>
<trkpt lat="51.604051" lon="03.828640"><ele>3.5</ele><time>2022-11-16T12:33:30Z</time><name>PT3720</name></trkpt>
<trkpt lat="51.604053" lon="03.828638"><ele>3.5</ele><time>2022-11-16T12:33:31Z</time><name>PT3721</name></trkpt>
<trkpt lat="51.604054" lon="03.828628"><ele>3.4</ele><time>2022-11-16T12:33:32Z</time><name>PT3722</name></trkpt>
<trkpt lat="51.604053" lon="03.828621"><ele>3.3</ele><time>2022-11-16T12:33:33Z</time><name>PT3723</name></trkpt>
<trkpt lat="51.604045" lon="03.828605"><ele>3.4</ele><time>2022-11-16T12:33:34Z</time><name>PT3724</name></trkpt>
<trkpt lat="51.604038" lon="03.828586"><ele>3.5</ele><time>2022-11-16T12:33:35Z</time><name>PT3725</name></trkpt>
<trkpt lat="51.604032" lon="03.828565"><ele>3.7</ele><time>2022-11-16T12:33:36Z</time><name>PT3726</name></trkpt>
<trkpt lat="51.604028" lon="03.828544"><ele>4.1</ele><time>2022-11-16T12:33:37Z</time><name>PT3727</name></trkpt>
<trkpt lat="51.604022" lon="03.828526"><ele>4.1</ele><time>2022-11-16T12:33:38Z</time><name>PT3728</name></trkpt>
<trkpt lat="51.604018" lon="03.828509"><ele>4.2</ele><time>2022-11-16T12:33:39Z</time><name>PT3729</name></trkpt>
<trkpt lat="51.604014" lon="03.828500"><ele>4.3</ele><time>2022-11-16T12:33:40Z</time><name>PT3730</name></trkpt>
<trkpt lat="51.604014" lon="03.828489"><ele>4.2</ele><time>2022-11-16T12:33:41Z</time><name>PT3731</name></trkpt>
<trkpt lat="51.604010" lon="03.828482"><ele>4.2</ele><time>2022-11-16T12:33:42Z</time><name>PT3732</name></trkpt>
<trkpt lat="51.604004" lon="03.828465"><ele>4.3</ele><time>2022-11-16T12:33:43Z</time><name>PT3733</name></trkpt>
<trkpt lat="51.603998" lon="03.828443"><ele>4.2</ele><time>2022-11-16T12:33:44Z</time><name>PT3734</name></trkpt>
<trkpt lat="51.603994" lon="03.828423"><ele>4.5</ele><time>2022-11-16T12:33:45Z</time><name>PT3735</name></trkpt>
<trkpt lat="51.603990" lon="03.828407"><ele>4.6</ele><time>2022-11-16T12:33:46Z</time><name>PT3736</name></trkpt>
<trkpt lat="51.603989" lon="03.828395"><ele>4.6</ele><time>2022-11-16T12:33:47Z</time><name>PT3737</name></trkpt>
<trkpt lat="51.603985" lon="03.828387"><ele>4.7</ele><time>2022-11-16T12:33:48Z</time><name>PT3738</name></trkpt>
<trkpt lat="51.603981" lon="03.828379"><ele>4.6</ele><time>2022-11-16T12:33:49Z</time><name>PT3739</name></trkpt>
<trkpt lat="51.603977" lon="03.828362"><ele>4.6</ele><time>2022-11-16T12:33:50Z</time><name>PT3740</name></trkpt>
<trkpt lat="51.603970" lon="03.828338"><ele>4.5</ele><time>2022-11-16T12:33:51Z</time><name>PT3741</name></trkpt>
<trkpt lat="51.603964" lon="03.828310"><ele>4.6</ele><time>2022-11-16T12:33:52Z</time><name>PT3742</name></trkpt>
<trkpt lat="51.603959" lon="03.828282"><ele>4.4</ele><time>2022-11-16T12:33:53Z</time><name>PT3743</name></trkpt>
<trkpt lat="51.603954" lon="03.828257"><ele>4.6</ele><time>2022-11-16T12:33:54Z</time><name>PT3744</name></trkpt>
<trkpt lat="51.603951" lon="03.828238"><ele>4.6</ele><time>2022-11-16T12:33:55Z</time><name>PT3745</name></trkpt>
<trkpt lat="51.603949" lon="03.828223"><ele>4.7</ele><time>2022-11-16T12:33:56Z</time><name>PT3746</name></trkpt>
<trkpt lat="51.603947" lon="03.828217"><ele>4.9</ele><time>2022-11-16T12:33:57Z</time><name>PT3747</name></trkpt>
<trkpt lat="51.603946" lon="03.828216"><ele>5.1</ele><time>2022-11-16T12:33:58Z</time><name>PT3748</name></trkpt>
<trkpt lat="51.603943" lon="03.828211"><ele>4.7</ele><time>2022-11-16T12:33:59Z</time><name>PT3749</name></trkpt>
<trkpt lat="51.603940" lon="03.828202"><ele>4.6</ele><time>2022-11-16T12:34:00Z</time><name>PT3750</name></trkpt>
<trkpt lat="51.603933" lon="03.828186"><ele>4.6</ele><time>2022-11-16T12:34:01Z</time><name>PT3751</name></trkpt>
<trkpt lat="51.603932" lon="03.828171"><ele>4.1</ele><time>2022-11-16T12:34:02Z</time><name>PT3752</name></trkpt>
<trkpt lat="51.603930" lon="03.828166"><ele>4</ele><time>2022-11-16T12:34:03Z</time><name>PT3753</name></trkpt>
<trkpt lat="51.603929" lon="03.828161"><ele>3.9</ele><time>2022-11-16T12:34:04Z</time><name>PT3754</name></trkpt>
<trkpt lat="51.603930" lon="03.828156"><ele>3.9</ele><time>2022-11-16T12:34:05Z</time><name>PT3755</name></trkpt>
<trkpt lat="51.603931" lon="03.828146"><ele>4.1</ele><time>2022-11-16T12:34:06Z</time><name>PT3756</name></trkpt>
<trkpt lat="51.603931" lon="03.828139"><ele>4.2</ele><time>2022-11-16T12:34:07Z</time><name>PT3757</name></trkpt>
<trkpt lat="51.603927" lon="03.828132"><ele>4.5</ele><time>2022-11-16T12:34:08Z</time><name>PT3758</name></trkpt>
<trkpt lat="51.603923" lon="03.828125"><ele>4.6</ele><time>2022-11-16T12:34:09Z</time><name>PT3759</name></trkpt>
<trkpt lat="51.603920" lon="03.828116"><ele>4.4</ele><time>2022-11-16T12:34:12Z</time><name>PT3760</name></trkpt>
<trkpt lat="51.603915" lon="03.828076"><ele>4.1</ele><time>2022-11-16T12:34:13Z</time><name>PT3761</name></trkpt>
<trkpt lat="51.603913" lon="03.828051"><ele>4.1</ele><time>2022-11-16T12:34:14Z</time><name>PT3762</name></trkpt>
<trkpt lat="51.603911" lon="03.828035"><ele>4.4</ele><time>2022-11-16T12:34:15Z</time><name>PT3763</name></trkpt>
<trkpt lat="51.603908" lon="03.828026"><ele>4.3</ele><time>2022-11-16T12:34:16Z</time><name>PT3764</name></trkpt>
<trkpt lat="51.603903" lon="03.828015"><ele>4.1</ele><time>2022-11-16T12:34:17Z</time><name>PT3765</name></trkpt>
<trkpt lat="51.603897" lon="03.827992"><ele>4.2</ele><time>2022-11-16T12:34:18Z</time><name>PT3766</name></trkpt>
<trkpt lat="51.603889" lon="03.827964"><ele>4.3</ele><time>2022-11-16T12:34:19Z</time><name>PT3767</name></trkpt>
<trkpt lat="51.603887" lon="03.827937"><ele>4.4</ele><time>2022-11-16T12:34:20Z</time><name>PT3768</name></trkpt>
<trkpt lat="51.603882" lon="03.827915"><ele>4.7</ele><time>2022-11-16T12:34:21Z</time><name>PT3769</name></trkpt>
<trkpt lat="51.603877" lon="03.827899"><ele>4.8</ele><time>2022-11-16T12:34:22Z</time><name>PT3770</name></trkpt>
<trkpt lat="51.603875" lon="03.827890"><ele>4.8</ele><time>2022-11-16T12:34:23Z</time><name>PT3771</name></trkpt>
<trkpt lat="51.603871" lon="03.827880"><ele>4.8</ele><time>2022-11-16T12:34:24Z</time><name>PT3772</name></trkpt>
<trkpt lat="51.603866" lon="03.827864"><ele>4.7</ele><time>2022-11-16T12:34:25Z</time><name>PT3773</name></trkpt>
<trkpt lat="51.603857" lon="03.827835"><ele>4.6</ele><time>2022-11-16T12:34:26Z</time><name>PT3774</name></trkpt>
<trkpt lat="51.603849" lon="03.827819"><ele>4.6</ele><time>2022-11-16T12:34:27Z</time><name>PT3775</name></trkpt>
<trkpt lat="51.603844" lon="03.827802"><ele>4.4</ele><time>2022-11-16T12:34:28Z</time><name>PT3776</name></trkpt>
<trkpt lat="51.603839" lon="03.827781"><ele>4.4</ele><time>2022-11-16T12:34:29Z</time><name>PT3777</name></trkpt>
<trkpt lat="51.603835" lon="03.827760"><ele>4.3</ele><time>2022-11-16T12:34:30Z</time><name>PT3778</name></trkpt>
<trkpt lat="51.603835" lon="03.827748"><ele>4.3</ele><time>2022-11-16T12:34:31Z</time><name>PT3779</name></trkpt>
<trkpt lat="51.603833" lon="03.827745"><ele>4.2</ele><time>2022-11-16T12:34:32Z</time><name>PT3780</name></trkpt>
<trkpt lat="51.603830" lon="03.827738"><ele>4.2</ele><time>2022-11-16T12:34:33Z</time><name>PT3781</name></trkpt>
<trkpt lat="51.603827" lon="03.827731"><ele>4.2</ele><time>2022-11-16T12:34:34Z</time><name>PT3782</name></trkpt>
<trkpt lat="51.603821" lon="03.827723"><ele>4.3</ele><time>2022-11-16T12:34:35Z</time><name>PT3783</name></trkpt>
<trkpt lat="51.603815" lon="03.827706"><ele>4.4</ele><time>2022-11-16T12:34:36Z</time><name>PT3784</name></trkpt>
<trkpt lat="51.603807" lon="03.827681"><ele>4.4</ele><time>2022-11-16T12:34:37Z</time><name>PT3785</name></trkpt>
<trkpt lat="51.603799" lon="03.827653"><ele>4.6</ele><time>2022-11-16T12:34:38Z</time><name>PT3786</name></trkpt>
<trkpt lat="51.603791" lon="03.827622"><ele>4.6</ele><time>2022-11-16T12:34:39Z</time><name>PT3787</name></trkpt>
<trkpt lat="51.603787" lon="03.827591"><ele>4.6</ele><time>2022-11-16T12:34:40Z</time><name>PT3788</name></trkpt>
<trkpt lat="51.603782" lon="03.827564"><ele>4.8</ele><time>2022-11-16T12:34:41Z</time><name>PT3789</name></trkpt>
<trkpt lat="51.603779" lon="03.827545"><ele>4.8</ele><time>2022-11-16T12:34:42Z</time><name>PT3790</name></trkpt>
<trkpt lat="51.603777" lon="03.827530"><ele>4.9</ele><time>2022-11-16T12:34:43Z</time><name>PT3791</name></trkpt>
<trkpt lat="51.603775" lon="03.827524"><ele>5</ele><time>2022-11-16T12:34:44Z</time><name>PT3792</name></trkpt>
<trkpt lat="51.603773" lon="03.827519"><ele>5.1</ele><time>2022-11-16T12:34:45Z</time><name>PT3793</name></trkpt>
<trkpt lat="51.603770" lon="03.827507"><ele>5</ele><time>2022-11-16T12:34:46Z</time><name>PT3794</name></trkpt>
<trkpt lat="51.603764" lon="03.827485"><ele>4.8</ele><time>2022-11-16T12:34:47Z</time><name>PT3795</name></trkpt>
<trkpt lat="51.603755" lon="03.827460"><ele>4.7</ele><time>2022-11-16T12:34:48Z</time><name>PT3796</name></trkpt>
<trkpt lat="51.603749" lon="03.827430"><ele>4.6</ele><time>2022-11-16T12:34:49Z</time><name>PT3797</name></trkpt>
<trkpt lat="51.603744" lon="03.827401"><ele>4.7</ele><time>2022-11-16T12:34:50Z</time><name>PT3798</name></trkpt>
<trkpt lat="51.603740" lon="03.827376"><ele>4.6</ele><time>2022-11-16T12:34:51Z</time><name>PT3799</name></trkpt>
<trkpt lat="51.603736" lon="03.827351"><ele>4.6</ele><time>2022-11-16T12:34:52Z</time><name>PT3800</name></trkpt>
<trkpt lat="51.603730" lon="03.827327"><ele>4.7</ele><time>2022-11-16T12:34:53Z</time><name>PT3801</name></trkpt>
<trkpt lat="51.603727" lon="03.827310"><ele>5</ele><time>2022-11-16T12:34:54Z</time><name>PT3802</name></trkpt>
<trkpt lat="51.603724" lon="03.827301"><ele>5.1</ele><time>2022-11-16T12:34:55Z</time><name>PT3803</name></trkpt>
<trkpt lat="51.603721" lon="03.827295"><ele>5.4</ele><time>2022-11-16T12:34:56Z</time><name>PT3804</name></trkpt>
<trkpt lat="51.603719" lon="03.827290"><ele>5.5</ele><time>2022-11-16T12:34:57Z</time><name>PT3805</name></trkpt>
<trkpt lat="51.603719" lon="03.827284"><ele>5.4</ele><time>2022-11-16T12:34:58Z</time><name>PT3806</name></trkpt>
<trkpt lat="51.603715" lon="03.827273"><ele>4.9</ele><time>2022-11-16T12:35:01Z</time><name>PT3807</name></trkpt>
<trkpt lat="51.603707" lon="03.827245"><ele>4.8</ele><time>2022-11-16T12:35:02Z</time><name>PT3808</name></trkpt>
<trkpt lat="51.603701" lon="03.827219"><ele>4.7</ele><time>2022-11-16T12:35:03Z</time><name>PT3809</name></trkpt>
<trkpt lat="51.603695" lon="03.827195"><ele>4.6</ele><time>2022-11-16T12:35:04Z</time><name>PT3810</name></trkpt>
<trkpt lat="51.603691" lon="03.827172"><ele>4.6</ele><time>2022-11-16T12:35:05Z</time><name>PT3811</name></trkpt>
<trkpt lat="51.603689" lon="03.827151"><ele>4.5</ele><time>2022-11-16T12:35:06Z</time><name>PT3812</name></trkpt>
<trkpt lat="51.603686" lon="03.827135"><ele>4.5</ele><time>2022-11-16T12:35:07Z</time><name>PT3813</name></trkpt>
<trkpt lat="51.603683" lon="03.827124"><ele>4.6</ele><time>2022-11-16T12:35:08Z</time><name>PT3814</name></trkpt>
<trkpt lat="51.603679" lon="03.827115"><ele>4.5</ele><time>2022-11-16T12:35:09Z</time><name>PT3815</name></trkpt>
<trkpt lat="51.603674" lon="03.827101"><ele>4.4</ele><time>2022-11-16T12:35:10Z</time><name>PT3816</name></trkpt>
<trkpt lat="51.603665" lon="03.827078"><ele>4.3</ele><time>2022-11-16T12:35:11Z</time><name>PT3817</name></trkpt>
<trkpt lat="51.603657" lon="03.827047"><ele>4.3</ele><time>2022-11-16T12:35:12Z</time><name>PT3818</name></trkpt>
<trkpt lat="51.603650" lon="03.827014"><ele>4.1</ele><time>2022-11-16T12:35:13Z</time><name>PT3819</name></trkpt>
<trkpt lat="51.603643" lon="03.826984"><ele>4.1</ele><time>2022-11-16T12:35:14Z</time><name>PT3820</name></trkpt>
<trkpt lat="51.603637" lon="03.826957"><ele>4.1</ele><time>2022-11-16T12:35:15Z</time><name>PT3821</name></trkpt>
<trkpt lat="51.603632" lon="03.826934"><ele>4.1</ele><time>2022-11-16T12:35:16Z</time><name>PT3822</name></trkpt>
<trkpt lat="51.603628" lon="03.826917"><ele>4.1</ele><time>2022-11-16T12:35:17Z</time><name>PT3823</name></trkpt>
<trkpt lat="51.603626" lon="03.826909"><ele>4.1</ele><time>2022-11-16T12:35:18Z</time><name>PT3824</name></trkpt>
<trkpt lat="51.603624" lon="03.826908"><ele>4.2</ele><time>2022-11-16T12:35:19Z</time><name>PT3825</name></trkpt>
<trkpt lat="51.603623" lon="03.826902"><ele>4.6</ele><time>2022-11-16T12:35:20Z</time><name>PT3826</name></trkpt>
<trkpt lat="51.603623" lon="03.826897"><ele>4.7</ele><time>2022-11-16T12:35:21Z</time><name>PT3827</name></trkpt>
<trkpt lat="51.603619" lon="03.826885"><ele>4.7</ele><time>2022-11-16T12:35:22Z</time><name>PT3828</name></trkpt>
<trkpt lat="51.603614" lon="03.826867"><ele>4.8</ele><time>2022-11-16T12:35:23Z</time><name>PT3829</name></trkpt>
<trkpt lat="51.603608" lon="03.826844"><ele>4.8</ele><time>2022-11-16T12:35:24Z</time><name>PT3830</name></trkpt>
<trkpt lat="51.603601" lon="03.826816"><ele>4.6</ele><time>2022-11-16T12:35:25Z</time><name>PT3831</name></trkpt>
<trkpt lat="51.603598" lon="03.826783"><ele>4.4</ele><time>2022-11-16T12:35:26Z</time><name>PT3832</name></trkpt>
<trkpt lat="51.603595" lon="03.826749"><ele>4.4</ele><time>2022-11-16T12:35:27Z</time><name>PT3833</name></trkpt>
<trkpt lat="51.603592" lon="03.826720"><ele>4.3</ele><time>2022-11-16T12:35:28Z</time><name>PT3834</name></trkpt>
<trkpt lat="51.603589" lon="03.826698"><ele>4.3</ele><time>2022-11-16T12:35:29Z</time><name>PT3835</name></trkpt>
<trkpt lat="51.603585" lon="03.826685"><ele>4.3</ele><time>2022-11-16T12:35:30Z</time><name>PT3836</name></trkpt>
<trkpt lat="51.603585" lon="03.826681"><ele>4.3</ele><time>2022-11-16T12:35:31Z</time><name>PT3837</name></trkpt>
<trkpt lat="51.603586" lon="03.826680"><ele>4.2</ele><time>2022-11-16T12:35:32Z</time><name>PT3838</name></trkpt>
<trkpt lat="51.603585" lon="03.826677"><ele>4.4</ele><time>2022-11-16T12:35:33Z</time><name>PT3839</name></trkpt>
<trkpt lat="51.603580" lon="03.826663"><ele>4.5</ele><time>2022-11-16T12:35:35Z</time><name>PT3840</name></trkpt>
<trkpt lat="51.603572" lon="03.826635"><ele>4.4</ele><time>2022-11-16T12:35:36Z</time><name>PT3841</name></trkpt>
<trkpt lat="51.603563" lon="03.826606"><ele>4.4</ele><time>2022-11-16T12:35:37Z</time><name>PT3842</name></trkpt>
<trkpt lat="51.603557" lon="03.826584"><ele>4.3</ele><time>2022-11-16T12:35:38Z</time><name>PT3843</name></trkpt>
<trkpt lat="51.603554" lon="03.826563"><ele>4.1</ele><time>2022-11-16T12:35:39Z</time><name>PT3844</name></trkpt>
<trkpt lat="51.603551" lon="03.826549"><ele>4.1</ele><time>2022-11-16T12:35:40Z</time><name>PT3845</name></trkpt>
<trkpt lat="51.603551" lon="03.826547"><ele>4.1</ele><time>2022-11-16T12:35:41Z</time><name>PT3846</name></trkpt>
<trkpt lat="51.603550" lon="03.826543"><ele>4.2</ele><time>2022-11-16T12:35:42Z</time><name>PT3847</name></trkpt>
<trkpt lat="51.603548" lon="03.826538"><ele>4.2</ele><time>2022-11-16T12:35:43Z</time><name>PT3848</name></trkpt>
<trkpt lat="51.603542" lon="03.826521"><ele>4.4</ele><time>2022-11-16T12:35:44Z</time><name>PT3849</name></trkpt>
<trkpt lat="51.603532" lon="03.826494"><ele>4.3</ele><time>2022-11-16T12:35:45Z</time><name>PT3850</name></trkpt>
<trkpt lat="51.603527" lon="03.826461"><ele>4.2</ele><time>2022-11-16T12:35:46Z</time><name>PT3851</name></trkpt>
<trkpt lat="51.603524" lon="03.826428"><ele>4.1</ele><time>2022-11-16T12:35:47Z</time><name>PT3852</name></trkpt>
<trkpt lat="51.603519" lon="03.826401"><ele>4.1</ele><time>2022-11-16T12:35:48Z</time><name>PT3853</name></trkpt>
<trkpt lat="51.603514" lon="03.826386"><ele>3.9</ele><time>2022-11-16T12:35:49Z</time><name>PT3854</name></trkpt>
<trkpt lat="51.603513" lon="03.826381"><ele>3.9</ele><time>2022-11-16T12:35:50Z</time><name>PT3855</name></trkpt>
<trkpt lat="51.603513" lon="03.826378"><ele>4.1</ele><time>2022-11-16T12:35:51Z</time><name>PT3856</name></trkpt>
<trkpt lat="51.603508" lon="03.826368"><ele>4.2</ele><time>2022-11-16T12:35:52Z</time><name>PT3857</name></trkpt>
<trkpt lat="51.603503" lon="03.826347"><ele>4.1</ele><time>2022-11-16T12:35:53Z</time><name>PT3858</name></trkpt>
<trkpt lat="51.603498" lon="03.826317"><ele>4.1</ele><time>2022-11-16T12:35:54Z</time><name>PT3859</name></trkpt>
<trkpt lat="51.603490" lon="03.826286"><ele>4.1</ele><time>2022-11-16T12:35:55Z</time><name>PT3860</name></trkpt>
<trkpt lat="51.603485" lon="03.826256"><ele>4.1</ele><time>2022-11-16T12:35:56Z</time><name>PT3861</name></trkpt>
<trkpt lat="51.603481" lon="03.826232"><ele>4.1</ele><time>2022-11-16T12:35:57Z</time><name>PT3862</name></trkpt>
<trkpt lat="51.603476" lon="03.826218"><ele>4.1</ele><time>2022-11-16T12:35:58Z</time><name>PT3863</name></trkpt>
<trkpt lat="51.603472" lon="03.826216"><ele>4.4</ele><time>2022-11-16T12:35:59Z</time><name>PT3864</name></trkpt>
<trkpt lat="51.603472" lon="03.826215"><ele>4.4</ele><time>2022-11-16T12:36:00Z</time><name>PT3865</name></trkpt>
<trkpt lat="51.603472" lon="03.826211"><ele>4.4</ele><time>2022-11-16T12:36:01Z</time><name>PT3866</name></trkpt>
<trkpt lat="51.603470" lon="03.826201"><ele>4.6</ele><time>2022-11-16T12:36:02Z</time><name>PT3867</name></trkpt>
<trkpt lat="51.603463" lon="03.826181"><ele>4.6</ele><time>2022-11-16T12:36:03Z</time><name>PT3868</name></trkpt>
<trkpt lat="51.603458" lon="03.826153"><ele>4.7</ele><time>2022-11-16T12:36:04Z</time><name>PT3869</name></trkpt>
<trkpt lat="51.603453" lon="03.826123"><ele>4.9</ele><time>2022-11-16T12:36:05Z</time><name>PT3870</name></trkpt>
<trkpt lat="51.603450" lon="03.826100"><ele>5</ele><time>2022-11-16T12:36:06Z</time><name>PT3871</name></trkpt>
<trkpt lat="51.603446" lon="03.826085"><ele>5.1</ele><time>2022-11-16T12:36:07Z</time><name>PT3872</name></trkpt>
<trkpt lat="51.603443" lon="03.826077"><ele>5.1</ele><time>2022-11-16T12:36:08Z</time><name>PT3873</name></trkpt>
<trkpt lat="51.603443" lon="03.826072"><ele>5</ele><time>2022-11-16T12:36:09Z</time><name>PT3874</name></trkpt>
<trkpt lat="51.603442" lon="03.826069"><ele>5</ele><time>2022-11-16T12:36:10Z</time><name>PT3875</name></trkpt>
<trkpt lat="51.603449" lon="03.826057"><ele>4.9</ele><time>2022-11-16T12:36:11Z</time><name>PT3876</name></trkpt>
<trkpt lat="51.603446" lon="03.826033"><ele>4.8</ele><time>2022-11-16T12:36:12Z</time><name>PT3877</name></trkpt>
<trkpt lat="51.603439" lon="03.826002"><ele>4.7</ele><time>2022-11-16T12:36:13Z</time><name>PT3878</name></trkpt>
<trkpt lat="51.603435" lon="03.825973"><ele>4.8</ele><time>2022-11-16T12:36:14Z</time><name>PT3879</name></trkpt>
<trkpt lat="51.603429" lon="03.825951"><ele>4.8</ele><time>2022-11-16T12:36:16Z</time><name>PT3880</name></trkpt>
<trkpt lat="51.603426" lon="03.825942"><ele>4.7</ele><time>2022-11-16T12:36:16Z</time><name>PT3881</name></trkpt>
<trkpt lat="51.603426" lon="03.825937"><ele>4.7</ele><time>2022-11-16T12:36:17Z</time><name>PT3882</name></trkpt>
<trkpt lat="51.603424" lon="03.825933"><ele>4.5</ele><time>2022-11-16T12:36:18Z</time><name>PT3883</name></trkpt>
<trkpt lat="51.603418" lon="03.825916"><ele>4.4</ele><time>2022-11-16T12:36:19Z</time><name>PT3884</name></trkpt>
<trkpt lat="51.603410" lon="03.825890"><ele>4.4</ele><time>2022-11-16T12:36:20Z</time><name>PT3885</name></trkpt>
<trkpt lat="51.603403" lon="03.825867"><ele>4.4</ele><time>2022-11-16T12:36:21Z</time><name>PT3886</name></trkpt>
<trkpt lat="51.603398" lon="03.825845"><ele>4.3</ele><time>2022-11-16T12:36:22Z</time><name>PT3887</name></trkpt>
<trkpt lat="51.603393" lon="03.825833"><ele>4.4</ele><time>2022-11-16T12:36:23Z</time><name>PT3888</name></trkpt>
<trkpt lat="51.603390" lon="03.825825"><ele>4.5</ele><time>2022-11-16T12:36:24Z</time><name>PT3889</name></trkpt>
<trkpt lat="51.603387" lon="03.825813"><ele>4.5</ele><time>2022-11-16T12:36:25Z</time><name>PT3890</name></trkpt>
<trkpt lat="51.603383" lon="03.825793"><ele>4.5</ele><time>2022-11-16T12:36:26Z</time><name>PT3891</name></trkpt>
<trkpt lat="51.603376" lon="03.825772"><ele>4.5</ele><time>2022-11-16T12:36:27Z</time><name>PT3892</name></trkpt>
<trkpt lat="51.603371" lon="03.825755"><ele>4.3</ele><time>2022-11-16T12:36:28Z</time><name>PT3893</name></trkpt>
<trkpt lat="51.603368" lon="03.825748"><ele>4.2</ele><time>2022-11-16T12:36:29Z</time><name>PT3894</name></trkpt>
<trkpt lat="51.603366" lon="03.825741"><ele>4.1</ele><time>2022-11-16T12:36:31Z</time><name>PT3895</name></trkpt>
<trkpt lat="51.603363" lon="03.825732"><ele>4.1</ele><time>2022-11-16T12:36:31Z</time><name>PT3896</name></trkpt>
<trkpt lat="51.603354" lon="03.825713"><ele>4</ele><time>2022-11-16T12:36:32Z</time><name>PT3897</name></trkpt>
<trkpt lat="51.603348" lon="03.825687"><ele>4.3</ele><time>2022-11-16T12:36:33Z</time><name>PT3898</name></trkpt>
<trkpt lat="51.603343" lon="03.825662"><ele>4.4</ele><time>2022-11-16T12:36:34Z</time><name>PT3899</name></trkpt>
<trkpt lat="51.603339" lon="03.825643"><ele>4.4</ele><time>2022-11-16T12:36:35Z</time><name>PT3900</name></trkpt>
<trkpt lat="51.603337" lon="03.825636"><ele>4.6</ele><time>2022-11-16T12:36:36Z</time><name>PT3901</name></trkpt>
<trkpt lat="51.603334" lon="03.825630"><ele>4.6</ele><time>2022-11-16T12:36:37Z</time><name>PT3902</name></trkpt>
<trkpt lat="51.603331" lon="03.825618"><ele>4.3</ele><time>2022-11-16T12:36:38Z</time><name>PT3903</name></trkpt>
<trkpt lat="51.603323" lon="03.825596"><ele>4.3</ele><time>2022-11-16T12:36:39Z</time><name>PT3904</name></trkpt>
<trkpt lat="51.603316" lon="03.825570"><ele>4.1</ele><time>2022-11-16T12:36:40Z</time><name>PT3905</name></trkpt>
<trkpt lat="51.603310" lon="03.825545"><ele>4.3</ele><time>2022-11-16T12:36:41Z</time><name>PT3906</name></trkpt>
<trkpt lat="51.603307" lon="03.825528"><ele>4.4</ele><time>2022-11-16T12:36:42Z</time><name>PT3907</name></trkpt>
<trkpt lat="51.603305" lon="03.825518"><ele>4.5</ele><time>2022-11-16T12:36:43Z</time><name>PT3908</name></trkpt>
<trkpt lat="51.603302" lon="03.825511"><ele>4.4</ele><time>2022-11-16T12:36:44Z</time><name>PT3909</name></trkpt>
<trkpt lat="51.603298" lon="03.825500"><ele>4.5</ele><time>2022-11-16T12:36:46Z</time><name>PT3910</name></trkpt>
<trkpt lat="51.603293" lon="03.825477"><ele>4.6</ele><time>2022-11-16T12:36:46Z</time><name>PT3911</name></trkpt>
<trkpt lat="51.603287" lon="03.825450"><ele>4.8</ele><time>2022-11-16T12:36:47Z</time><name>PT3912</name></trkpt>
<trkpt lat="51.603282" lon="03.825426"><ele>4.9</ele><time>2022-11-16T12:36:48Z</time><name>PT3913</name></trkpt>
<trkpt lat="51.603276" lon="03.825409"><ele>5.1</ele><time>2022-11-16T12:36:49Z</time><name>PT3914</name></trkpt>
<trkpt lat="51.603273" lon="03.825399"><ele>5.1</ele><time>2022-11-16T12:36:50Z</time><name>PT3915</name></trkpt>
<trkpt lat="51.603274" lon="03.825392"><ele>4.8</ele><time>2022-11-16T12:36:51Z</time><name>PT3916</name></trkpt>
<trkpt lat="51.603271" lon="03.825379"><ele>4.7</ele><time>2022-11-16T12:36:52Z</time><name>PT3917</name></trkpt>
<trkpt lat="51.603265" lon="03.825357"><ele>4.7</ele><time>2022-11-16T12:36:53Z</time><name>PT3918</name></trkpt>
<trkpt lat="51.603258" lon="03.825330"><ele>4.8</ele><time>2022-11-16T12:36:54Z</time><name>PT3919</name></trkpt>
<trkpt lat="51.603252" lon="03.825306"><ele>4.9</ele><time>2022-11-16T12:36:55Z</time><name>PT3920</name></trkpt>
<trkpt lat="51.603248" lon="03.825289"><ele>4.9</ele><time>2022-11-16T12:36:56Z</time><name>PT3921</name></trkpt>
<trkpt lat="51.603244" lon="03.825278"><ele>4.8</ele><time>2022-11-16T12:36:57Z</time><name>PT3922</name></trkpt>
<trkpt lat="51.603242" lon="03.825275"><ele>4.6</ele><time>2022-11-16T12:36:58Z</time><name>PT3923</name></trkpt>
<trkpt lat="51.603240" lon="03.825269"><ele>4.6</ele><time>2022-11-16T12:36:59Z</time><name>PT3924</name></trkpt>
<trkpt lat="51.603235" lon="03.825254"><ele>4.4</ele><time>2022-11-16T12:37:00Z</time><name>PT3925</name></trkpt>
<trkpt lat="51.603229" lon="03.825232"><ele>4.5</ele><time>2022-11-16T12:37:01Z</time><name>PT3926</name></trkpt>
<trkpt lat="51.603221" lon="03.825202"><ele>4.6</ele><time>2022-11-16T12:37:02Z</time><name>PT3927</name></trkpt>
<trkpt lat="51.603216" lon="03.825169"><ele>4.8</ele><time>2022-11-16T12:37:03Z</time><name>PT3928</name></trkpt>
<trkpt lat="51.603209" lon="03.825142"><ele>4.8</ele><time>2022-11-16T12:37:04Z</time><name>PT3929</name></trkpt>
<trkpt lat="51.603205" lon="03.825121"><ele>5</ele><time>2022-11-16T12:37:05Z</time><name>PT3930</name></trkpt>
<trkpt lat="51.603199" lon="03.825115"><ele>4.7</ele><time>2022-11-16T12:37:06Z</time><name>PT3931</name></trkpt>
<trkpt lat="51.603197" lon="03.825111"><ele>4.6</ele><time>2022-11-16T12:37:07Z</time><name>PT3932</name></trkpt>
<trkpt lat="51.603195" lon="03.825106"><ele>4.6</ele><time>2022-11-16T12:37:08Z</time><name>PT3933</name></trkpt>
<trkpt lat="51.603192" lon="03.825093"><ele>4.6</ele><time>2022-11-16T12:37:09Z</time><name>PT3934</name></trkpt>
<trkpt lat="51.603188" lon="03.825071"><ele>4.6</ele><time>2022-11-16T12:37:10Z</time><name>PT3935</name></trkpt>
<trkpt lat="51.603180" lon="03.825043"><ele>4.9</ele><time>2022-11-16T12:37:11Z</time><name>PT3936</name></trkpt>
<trkpt lat="51.603176" lon="03.825011"><ele>4.9</ele><time>2022-11-16T12:37:12Z</time><name>PT3937</name></trkpt>
<trkpt lat="51.603175" lon="03.824983"><ele>4.7</ele><time>2022-11-16T12:37:13Z</time><name>PT3938</name></trkpt>
<trkpt lat="51.603170" lon="03.824961"><ele>4.7</ele><time>2022-11-16T12:37:14Z</time><name>PT3939</name></trkpt>
<trkpt lat="51.603167" lon="03.824951"><ele>4.8</ele><time>2022-11-16T12:37:15Z</time><name>PT3940</name></trkpt>
<trkpt lat="51.603168" lon="03.824948"><ele>4.8</ele><time>2022-11-16T12:37:16Z</time><name>PT3941</name></trkpt>
<trkpt lat="51.603168" lon="03.824947"><ele>5</ele><time>2022-11-16T12:37:17Z</time><name>PT3942</name></trkpt>
<trkpt lat="51.603164" lon="03.824937"><ele>5</ele><time>2022-11-16T12:37:18Z</time><name>PT3943</name></trkpt>
<trkpt lat="51.603158" lon="03.824916"><ele>4.9</ele><time>2022-11-16T12:37:19Z</time><name>PT3944</name></trkpt>
<trkpt lat="51.603154" lon="03.824885"><ele>4.9</ele><time>2022-11-16T12:37:20Z</time><name>PT3945</name></trkpt>
<trkpt lat="51.603149" lon="03.824850"><ele>4.9</ele><time>2022-11-16T12:37:21Z</time><name>PT3946</name></trkpt>
<trkpt lat="51.603145" lon="03.824828"><ele>4.9</ele><time>2022-11-16T12:37:22Z</time><name>PT3947</name></trkpt>
<trkpt lat="51.603138" lon="03.824821"><ele>4.8</ele><time>2022-11-16T12:37:23Z</time><name>PT3948</name></trkpt>
<trkpt lat="51.603135" lon="03.824824"><ele>4.7</ele><time>2022-11-16T12:37:24Z</time><name>PT3949</name></trkpt>
<trkpt lat="51.603137" lon="03.824822"><ele>4.6</ele><time>2022-11-16T12:37:25Z</time><name>PT3950</name></trkpt>
<trkpt lat="51.603137" lon="03.824816"><ele>4.7</ele><time>2022-11-16T12:37:26Z</time><name>PT3951</name></trkpt>
<trkpt lat="51.603132" lon="03.824796"><ele>4.7</ele><time>2022-11-16T12:37:27Z</time><name>PT3952</name></trkpt>
<trkpt lat="51.603125" lon="03.824768"><ele>4.8</ele><time>2022-11-16T12:37:28Z</time><name>PT3953</name></trkpt>
<trkpt lat="51.603118" lon="03.824737"><ele>4.9</ele><time>2022-11-16T12:37:29Z</time><name>PT3954</name></trkpt>
<trkpt lat="51.603112" lon="03.824714"><ele>5.1</ele><time>2022-11-16T12:37:30Z</time><name>PT3955</name></trkpt>
<trkpt lat="51.603106" lon="03.824699"><ele>5</ele><time>2022-11-16T12:37:31Z</time><name>PT3956</name></trkpt>
<trkpt lat="51.603104" lon="03.824692"><ele>5</ele><time>2022-11-16T12:37:32Z</time><name>PT3957</name></trkpt>
<trkpt lat="51.603102" lon="03.824687"><ele>5</ele><time>2022-11-16T12:37:33Z</time><name>PT3958</name></trkpt>
<trkpt lat="51.603098" lon="03.824680"><ele>5</ele><time>2022-11-16T12:37:34Z</time><name>PT3959</name></trkpt>
<trkpt lat="51.603093" lon="03.824671"><ele>4.9</ele><time>2022-11-16T12:37:35Z</time><name>PT3960</name></trkpt>
<trkpt lat="51.603087" lon="03.824655"><ele>5.1</ele><time>2022-11-16T12:37:36Z</time><name>PT3961</name></trkpt>
<trkpt lat="51.603080" lon="03.824628"><ele>5.2</ele><time>2022-11-16T12:37:37Z</time><name>PT3962</name></trkpt>
<trkpt lat="51.603074" lon="03.824595"><ele>5.1</ele><time>2022-11-16T12:37:38Z</time><name>PT3963</name></trkpt>
<trkpt lat="51.603070" lon="03.824563"><ele>5.1</ele><time>2022-11-16T12:37:39Z</time><name>PT3964</name></trkpt>
<trkpt lat="51.603065" lon="03.824540"><ele>5.1</ele><time>2022-11-16T12:37:40Z</time><name>PT3965</name></trkpt>
<trkpt lat="51.603060" lon="03.824527"><ele>4.9</ele><time>2022-11-16T12:37:41Z</time><name>PT3966</name></trkpt>
<trkpt lat="51.603060" lon="03.824517"><ele>4.7</ele><time>2022-11-16T12:37:42Z</time><name>PT3967</name></trkpt>
<trkpt lat="51.603062" lon="03.824513"><ele>4.7</ele><time>2022-11-16T12:37:43Z</time><name>PT3968</name></trkpt>
<trkpt lat="51.603058" lon="03.824503"><ele>4.6</ele><time>2022-11-16T12:37:44Z</time><name>PT3969</name></trkpt>
<trkpt lat="51.603052" lon="03.824481"><ele>4.7</ele><time>2022-11-16T12:37:45Z</time><name>PT3970</name></trkpt>
<trkpt lat="51.603042" lon="03.824452"><ele>5</ele><time>2022-11-16T12:37:46Z</time><name>PT3971</name></trkpt>
<trkpt lat="51.603035" lon="03.824423"><ele>5.1</ele><time>2022-11-16T12:37:47Z</time><name>PT3972</name></trkpt>
<trkpt lat="51.603031" lon="03.824400"><ele>5</ele><time>2022-11-16T12:37:48Z</time><name>PT3973</name></trkpt>
<trkpt lat="51.603029" lon="03.824384"><ele>4.9</ele><time>2022-11-16T12:37:49Z</time><name>PT3974</name></trkpt>
<trkpt lat="51.603027" lon="03.824376"><ele>4.7</ele><time>2022-11-16T12:37:50Z</time><name>PT3975</name></trkpt>
<trkpt lat="51.603025" lon="03.824374"><ele>4.8</ele><time>2022-11-16T12:37:51Z</time><name>PT3976</name></trkpt>
<trkpt lat="51.603022" lon="03.824370"><ele>4.7</ele><time>2022-11-16T12:37:52Z</time><name>PT3977</name></trkpt>
<trkpt lat="51.603023" lon="03.824358"><ele>4.8</ele><time>2022-11-16T12:37:53Z</time><name>PT3978</name></trkpt>
<trkpt lat="51.603020" lon="03.824336"><ele>5.1</ele><time>2022-11-16T12:37:54Z</time><name>PT3979</name></trkpt>
<trkpt lat="51.603013" lon="03.824310"><ele>5.2</ele><time>2022-11-16T12:37:55Z</time><name>PT3980</name></trkpt>
<trkpt lat="51.603006" lon="03.824282"><ele>5.1</ele><time>2022-11-16T12:37:56Z</time><name>PT3981</name></trkpt>
<trkpt lat="51.603002" lon="03.824257"><ele>5.1</ele><time>2022-11-16T12:37:57Z</time><name>PT3982</name></trkpt>
<trkpt lat="51.602998" lon="03.824237"><ele>5</ele><time>2022-11-16T12:37:58Z</time><name>PT3983</name></trkpt>
<trkpt lat="51.602994" lon="03.824221"><ele>4.8</ele><time>2022-11-16T12:37:59Z</time><name>PT3984</name></trkpt>
<trkpt lat="51.602992" lon="03.824211"><ele>4.5</ele><time>2022-11-16T12:38:00Z</time><name>PT3985</name></trkpt>
<trkpt lat="51.602991" lon="03.824205"><ele>4.5</ele><time>2022-11-16T12:38:01Z</time><name>PT3986</name></trkpt>
<trkpt lat="51.602992" lon="03.824197"><ele>4.2</ele><time>2022-11-16T12:38:02Z</time><name>PT3987</name></trkpt>
<trkpt lat="51.602990" lon="03.824185"><ele>4.2</ele><time>2022-11-16T12:38:03Z</time><name>PT3988</name></trkpt>
<trkpt lat="51.602987" lon="03.824164"><ele>4.1</ele><time>2022-11-16T12:38:04Z</time><name>PT3989</name></trkpt>
<trkpt lat="51.602979" lon="03.824133"><ele>4.3</ele><time>2022-11-16T12:38:05Z</time><name>PT3990</name></trkpt>
<trkpt lat="51.602974" lon="03.824100"><ele>4.2</ele><time>2022-11-16T12:38:06Z</time><name>PT3991</name></trkpt>
<trkpt lat="51.602968" lon="03.824074"><ele>4.3</ele><time>2022-11-16T12:38:07Z</time><name>PT3992</name></trkpt>
<trkpt lat="51.602961" lon="03.824060"><ele>4.2</ele><time>2022-11-16T12:38:08Z</time><name>PT3993</name></trkpt>
<trkpt lat="51.602957" lon="03.824059"><ele>4.3</ele><time>2022-11-16T12:38:09Z</time><name>PT3994</name></trkpt>
<trkpt lat="51.602957" lon="03.824060"><ele>4.2</ele><time>2022-11-16T12:38:10Z</time><name>PT3995</name></trkpt>
<trkpt lat="51.602954" lon="03.824052"><ele>4.4</ele><time>2022-11-16T12:38:11Z</time><name>PT3996</name></trkpt>
<trkpt lat="51.602948" lon="03.824033"><ele>4.5</ele><time>2022-11-16T12:38:12Z</time><name>PT3997</name></trkpt>
<trkpt lat="51.602940" lon="03.824007"><ele>4.6</ele><time>2022-11-16T12:38:13Z</time><name>PT3998</name></trkpt>
<trkpt lat="51.602932" lon="03.823978"><ele>4.6</ele><time>2022-11-16T12:38:14Z</time><name>PT3999</name></trkpt>
<trkpt lat="51.602927" lon="03.823949"><ele>4.6</ele><time>2022-11-16T12:38:15Z</time><name>PT4000</name></trkpt>
<trkpt lat="51.602922" lon="03.823923"><ele>4.6</ele><time>2022-11-16T12:38:16Z</time><name>PT4001</name></trkpt>
<trkpt lat="51.602915" lon="03.823902"><ele>4.6</ele><time>2022-11-16T12:38:17Z</time><name>PT4002</name></trkpt>
<trkpt lat="51.602912" lon="03.823887"><ele>4.6</ele><time>2022-11-16T12:38:18Z</time><name>PT4003</name></trkpt>
<trkpt lat="51.602910" lon="03.823883"><ele>4.6</ele><time>2022-11-16T12:38:19Z</time><name>PT4004</name></trkpt>
<trkpt lat="51.602910" lon="03.823880"><ele>4.7</ele><time>2022-11-16T12:38:20Z</time><name>PT4005</name></trkpt>
<trkpt lat="51.602911" lon="03.823874"><ele>4.8</ele><time>2022-11-16T12:38:21Z</time><name>PT4006</name></trkpt>
<trkpt lat="51.602908" lon="03.823864"><ele>4.8</ele><time>2022-11-16T12:38:22Z</time><name>PT4007</name></trkpt>
<trkpt lat="51.602902" lon="03.823843"><ele>5</ele><time>2022-11-16T12:38:23Z</time><name>PT4008</name></trkpt>
<trkpt lat="51.602894" lon="03.823815"><ele>4.8</ele><time>2022-11-16T12:38:24Z</time><name>PT4009</name></trkpt>
<trkpt lat="51.602887" lon="03.823782"><ele>4.7</ele><time>2022-11-16T12:38:25Z</time><name>PT4010</name></trkpt>
<trkpt lat="51.602882" lon="03.823759"><ele>4.9</ele><time>2022-11-16T12:38:26Z</time><name>PT4011</name></trkpt>
<trkpt lat="51.602878" lon="03.823742"><ele>5</ele><time>2022-11-16T12:38:27Z</time><name>PT4012</name></trkpt>
<trkpt lat="51.602874" lon="03.823726"><ele>5</ele><time>2022-11-16T12:38:28Z</time><name>PT4013</name></trkpt>
<trkpt lat="51.602870" lon="03.823711"><ele>5.1</ele><time>2022-11-16T12:38:29Z</time><name>PT4014</name></trkpt>
<trkpt lat="51.602867" lon="03.823696"><ele>5.2</ele><time>2022-11-16T12:38:30Z</time><name>PT4015</name></trkpt>
<trkpt lat="51.602862" lon="03.823683"><ele>5.1</ele><time>2022-11-16T12:38:31Z</time><name>PT4016</name></trkpt>
<trkpt lat="51.602858" lon="03.823669"><ele>5.1</ele><time>2022-11-16T12:38:32Z</time><name>PT4017</name></trkpt>
<trkpt lat="51.602854" lon="03.823654"><ele>5</ele><time>2022-11-16T12:38:33Z</time><name>PT4018</name></trkpt>
<trkpt lat="51.602851" lon="03.823639"><ele>4.9</ele><time>2022-11-16T12:38:34Z</time><name>PT4019</name></trkpt>
<trkpt lat="51.602847" lon="03.823623"><ele>4.8</ele><time>2022-11-16T12:38:35Z</time><name>PT4020</name></trkpt>
<trkpt lat="51.602844" lon="03.823608"><ele>5</ele><time>2022-11-16T12:38:36Z</time><name>PT4021</name></trkpt>
<trkpt lat="51.602840" lon="03.823593"><ele>5.1</ele><time>2022-11-16T12:38:37Z</time><name>PT4022</name></trkpt>
<trkpt lat="51.602835" lon="03.823579"><ele>5</ele><time>2022-11-16T12:38:38Z</time><name>PT4023</name></trkpt>
<trkpt lat="51.602832" lon="03.823565"><ele>5.1</ele><time>2022-11-16T12:38:39Z</time><name>PT4024</name></trkpt>
<trkpt lat="51.602828" lon="03.823550"><ele>5.1</ele><time>2022-11-16T12:38:40Z</time><name>PT4025</name></trkpt>
<trkpt lat="51.602824" lon="03.823535"><ele>4.8</ele><time>2022-11-16T12:38:41Z</time><name>PT4026</name></trkpt>
<trkpt lat="51.602821" lon="03.823519"><ele>4.8</ele><time>2022-11-16T12:38:42Z</time><name>PT4027</name></trkpt>
<trkpt lat="51.602815" lon="03.823502"><ele>4.8</ele><time>2022-11-16T12:38:43Z</time><name>PT4028</name></trkpt>
<trkpt lat="51.602811" lon="03.823485"><ele>4.9</ele><time>2022-11-16T12:38:44Z</time><name>PT4029</name></trkpt>
<trkpt lat="51.602807" lon="03.823469"><ele>5.1</ele><time>2022-11-16T12:38:45Z</time><name>PT4030</name></trkpt>
<trkpt lat="51.602804" lon="03.823452"><ele>5.1</ele><time>2022-11-16T12:38:46Z</time><name>PT4031</name></trkpt>
<trkpt lat="51.602801" lon="03.823436"><ele>5.2</ele><time>2022-11-16T12:38:47Z</time><name>PT4032</name></trkpt>
<trkpt lat="51.602797" lon="03.823422"><ele>5</ele><time>2022-11-16T12:38:48Z</time><name>PT4033</name></trkpt>
<trkpt lat="51.602794" lon="03.823407"><ele>4.9</ele><time>2022-11-16T12:38:49Z</time><name>PT4034</name></trkpt>
<trkpt lat="51.602789" lon="03.823392"><ele>4.6</ele><time>2022-11-16T12:38:50Z</time><name>PT4035</name></trkpt>
<trkpt lat="51.602784" lon="03.823378"><ele>4.8</ele><time>2022-11-16T12:38:51Z</time><name>PT4036</name></trkpt>
<trkpt lat="51.602780" lon="03.823364"><ele>4.8</ele><time>2022-11-16T12:38:52Z</time><name>PT4037</name></trkpt>
<trkpt lat="51.602777" lon="03.823348"><ele>5.1</ele><time>2022-11-16T12:38:53Z</time><name>PT4038</name></trkpt>
<trkpt lat="51.602773" lon="03.823332"><ele>5.5</ele><time>2022-11-16T12:38:54Z</time><name>PT4039</name></trkpt>
<trkpt lat="51.602770" lon="03.823314"><ele>5.6</ele><time>2022-11-16T12:38:55Z</time><name>PT4040</name></trkpt>
<trkpt lat="51.602767" lon="03.823298"><ele>5.6</ele><time>2022-11-16T12:38:56Z</time><name>PT4041</name></trkpt>
<trkpt lat="51.602763" lon="03.823283"><ele>5.5</ele><time>2022-11-16T12:38:57Z</time><name>PT4042</name></trkpt>
<trkpt lat="51.602760" lon="03.823268"><ele>5.3</ele><time>2022-11-16T12:38:58Z</time><name>PT4043</name></trkpt>
<trkpt lat="51.602757" lon="03.823254"><ele>5</ele><time>2022-11-16T12:38:59Z</time><name>PT4044</name></trkpt>
<trkpt lat="51.602753" lon="03.823239"><ele>4.7</ele><time>2022-11-16T12:39:00Z</time><name>PT4045</name></trkpt>
<trkpt lat="51.602748" lon="03.823223"><ele>4.6</ele><time>2022-11-16T12:39:01Z</time><name>PT4046</name></trkpt>
<trkpt lat="51.602744" lon="03.823206"><ele>4.7</ele><time>2022-11-16T12:39:02Z</time><name>PT4047</name></trkpt>
<trkpt lat="51.602740" lon="03.823190"><ele>4.7</ele><time>2022-11-16T12:39:03Z</time><name>PT4048</name></trkpt>
<trkpt lat="51.602737" lon="03.823176"><ele>4.6</ele><time>2022-11-16T12:39:04Z</time><name>PT4049</name></trkpt>
<trkpt lat="51.602736" lon="03.823160"><ele>4.7</ele><time>2022-11-16T12:39:05Z</time><name>PT4050</name></trkpt>
<trkpt lat="51.602734" lon="03.823146"><ele>4.6</ele><time>2022-11-16T12:39:06Z</time><name>PT4051</name></trkpt>
<trkpt lat="51.602730" lon="03.823133"><ele>4.6</ele><time>2022-11-16T12:39:07Z</time><name>PT4052</name></trkpt>
<trkpt lat="51.602728" lon="03.823118"><ele>4.6</ele><time>2022-11-16T12:39:08Z</time><name>PT4053</name></trkpt>
<trkpt lat="51.602725" lon="03.823103"><ele>4.6</ele><time>2022-11-16T12:39:09Z</time><name>PT4054</name></trkpt>
<trkpt lat="51.602721" lon="03.823088"><ele>4.4</ele><time>2022-11-16T12:39:10Z</time><name>PT4055</name></trkpt>
<trkpt lat="51.602717" lon="03.823074"><ele>4.3</ele><time>2022-11-16T12:39:11Z</time><name>PT4056</name></trkpt>
<trkpt lat="51.602715" lon="03.823061"><ele>4.5</ele><time>2022-11-16T12:39:12Z</time><name>PT4057</name></trkpt>
<trkpt lat="51.602712" lon="03.823048"><ele>4.4</ele><time>2022-11-16T12:39:13Z</time><name>PT4058</name></trkpt>
<trkpt lat="51.602710" lon="03.823036"><ele>4.6</ele><time>2022-11-16T12:39:14Z</time><name>PT4059</name></trkpt>
<trkpt lat="51.602706" lon="03.823024"><ele>4.8</ele><time>2022-11-16T12:39:15Z</time><name>PT4060</name></trkpt>
<trkpt lat="51.602703" lon="03.823010"><ele>4.8</ele><time>2022-11-16T12:39:16Z</time><name>PT4061</name></trkpt>
<trkpt lat="51.602700" lon="03.822995"><ele>4.8</ele><time>2022-11-16T12:39:17Z</time><name>PT4062</name></trkpt>
<trkpt lat="51.602697" lon="03.822981"><ele>4.9</ele><time>2022-11-16T12:39:18Z</time><name>PT4063</name></trkpt>
<trkpt lat="51.602694" lon="03.822967"><ele>4.8</ele><time>2022-11-16T12:39:19Z</time><name>PT4064</name></trkpt>
<trkpt lat="51.602689" lon="03.822954"><ele>4.8</ele><time>2022-11-16T12:39:20Z</time><name>PT4065</name></trkpt>
<trkpt lat="51.602685" lon="03.822940"><ele>4.7</ele><time>2022-11-16T12:39:21Z</time><name>PT4066</name></trkpt>
<trkpt lat="51.602682" lon="03.822926"><ele>4.7</ele><time>2022-11-16T12:39:22Z</time><name>PT4067</name></trkpt>
<trkpt lat="51.602679" lon="03.822910"><ele>4.6</ele><time>2022-11-16T12:39:23Z</time><name>PT4068</name></trkpt>
<trkpt lat="51.602677" lon="03.822893"><ele>4.6</ele><time>2022-11-16T12:39:24Z</time><name>PT4069</name></trkpt>
<trkpt lat="51.602674" lon="03.822878"><ele>4.5</ele><time>2022-11-16T12:39:25Z</time><name>PT4070</name></trkpt>
<trkpt lat="51.602670" lon="03.822864"><ele>4.4</ele><time>2022-11-16T12:39:26Z</time><name>PT4071</name></trkpt>
<trkpt lat="51.602666" lon="03.822849"><ele>4.4</ele><time>2022-11-16T12:39:27Z</time><name>PT4072</name></trkpt>
<trkpt lat="51.602662" lon="03.822834"><ele>4.6</ele><time>2022-11-16T12:39:28Z</time><name>PT4073</name></trkpt>
<trkpt lat="51.602658" lon="03.822819"><ele>4.5</ele><time>2022-11-16T12:39:29Z</time><name>PT4074</name></trkpt>
<trkpt lat="51.602655" lon="03.822804"><ele>4.6</ele><time>2022-11-16T12:39:30Z</time><name>PT4075</name></trkpt>
<trkpt lat="51.602653" lon="03.822787"><ele>4.5</ele><time>2022-11-16T12:39:31Z</time><name>PT4076</name></trkpt>
<trkpt lat="51.602650" lon="03.822770"><ele>4.6</ele><time>2022-11-16T12:39:32Z</time><name>PT4077</name></trkpt>
<trkpt lat="51.602647" lon="03.822756"><ele>4.5</ele><time>2022-11-16T12:39:33Z</time><name>PT4078</name></trkpt>
<trkpt lat="51.602644" lon="03.822741"><ele>4.5</ele><time>2022-11-16T12:39:34Z</time><name>PT4079</name></trkpt>
<trkpt lat="51.602640" lon="03.822727"><ele>4.4</ele><time>2022-11-16T12:39:35Z</time><name>PT4080</name></trkpt>
<trkpt lat="51.602636" lon="03.822711"><ele>4.5</ele><time>2022-11-16T12:39:36Z</time><name>PT4081</name></trkpt>
<trkpt lat="51.602631" lon="03.822694"><ele>4.5</ele><time>2022-11-16T12:39:37Z</time><name>PT4082</name></trkpt>
<trkpt lat="51.602627" lon="03.822677"><ele>4.7</ele><time>2022-11-16T12:39:38Z</time><name>PT4083</name></trkpt>
<trkpt lat="51.602624" lon="03.822661"><ele>4.9</ele><time>2022-11-16T12:39:39Z</time><name>PT4084</name></trkpt>
<trkpt lat="51.602622" lon="03.822644"><ele>4.8</ele><time>2022-11-16T12:39:40Z</time><name>PT4085</name></trkpt>
<trkpt lat="51.602619" lon="03.822628"><ele>4.6</ele><time>2022-11-16T12:39:41Z</time><name>PT4086</name></trkpt>
<trkpt lat="51.602616" lon="03.822612"><ele>4.6</ele><time>2022-11-16T12:39:42Z</time><name>PT4087</name></trkpt>
<trkpt lat="51.602610" lon="03.822598"><ele>4.5</ele><time>2022-11-16T12:39:43Z</time><name>PT4088</name></trkpt>
<trkpt lat="51.602606" lon="03.822583"><ele>4.5</ele><time>2022-11-16T12:39:44Z</time><name>PT4089</name></trkpt>
<trkpt lat="51.602602" lon="03.822567"><ele>4.6</ele><time>2022-11-16T12:39:45Z</time><name>PT4090</name></trkpt>
<trkpt lat="51.602598" lon="03.822550"><ele>4.6</ele><time>2022-11-16T12:39:46Z</time><name>PT4091</name></trkpt>
<trkpt lat="51.602595" lon="03.822534"><ele>4.5</ele><time>2022-11-16T12:39:47Z</time><name>PT4092</name></trkpt>
<trkpt lat="51.602593" lon="03.822519"><ele>4.4</ele><time>2022-11-16T12:39:48Z</time><name>PT4093</name></trkpt>
<trkpt lat="51.602589" lon="03.822504"><ele>4.3</ele><time>2022-11-16T12:39:49Z</time><name>PT4094</name></trkpt>
<trkpt lat="51.602583" lon="03.822490"><ele>4.2</ele><time>2022-11-16T12:39:50Z</time><name>PT4095</name></trkpt>
<trkpt lat="51.602579" lon="03.822474"><ele>4.5</ele><time>2022-11-16T12:39:51Z</time><name>PT4096</name></trkpt>
<trkpt lat="51.602575" lon="03.822458"><ele>4.5</ele><time>2022-11-16T12:39:52Z</time><name>PT4097</name></trkpt>
<trkpt lat="51.602571" lon="03.822442"><ele>4.6</ele><time>2022-11-16T12:39:53Z</time><name>PT4098</name></trkpt>
<trkpt lat="51.602567" lon="03.822425"><ele>4.5</ele><time>2022-11-16T12:39:54Z</time><name>PT4099</name></trkpt>
<trkpt lat="51.602563" lon="03.822410"><ele>4.6</ele><time>2022-11-16T12:39:55Z</time><name>PT4100</name></trkpt>
<trkpt lat="51.602559" lon="03.822396"><ele>4.4</ele><time>2022-11-16T12:39:56Z</time><name>PT4101</name></trkpt>
<trkpt lat="51.602555" lon="03.822381"><ele>4.5</ele><time>2022-11-16T12:39:57Z</time><name>PT4102</name></trkpt>
<trkpt lat="51.602551" lon="03.822365"><ele>4.4</ele><time>2022-11-16T12:39:58Z</time><name>PT4103</name></trkpt>
<trkpt lat="51.602547" lon="03.822349"><ele>4.3</ele><time>2022-11-16T12:39:59Z</time><name>PT4104</name></trkpt>
<trkpt lat="51.602543" lon="03.822332"><ele>4.2</ele><time>2022-11-16T12:40:00Z</time><name>PT4105</name></trkpt>
<trkpt lat="51.602540" lon="03.822315"><ele>4.1</ele><time>2022-11-16T12:40:01Z</time><name>PT4106</name></trkpt>
<trkpt lat="51.602537" lon="03.822298"><ele>4.2</ele><time>2022-11-16T12:40:02Z</time><name>PT4107</name></trkpt>
<trkpt lat="51.602535" lon="03.822283"><ele>4.4</ele><time>2022-11-16T12:40:03Z</time><name>PT4108</name></trkpt>
<trkpt lat="51.602533" lon="03.822268"><ele>4.6</ele><time>2022-11-16T12:40:04Z</time><name>PT4109</name></trkpt>
<trkpt lat="51.602529" lon="03.822253"><ele>4.6</ele><time>2022-11-16T12:40:05Z</time><name>PT4110</name></trkpt>
<trkpt lat="51.602524" lon="03.822238"><ele>4.8</ele><time>2022-11-16T12:40:06Z</time><name>PT4111</name></trkpt>
<trkpt lat="51.602520" lon="03.822224"><ele>4.7</ele><time>2022-11-16T12:40:07Z</time><name>PT4112</name></trkpt>
<trkpt lat="51.602515" lon="03.822208"><ele>4.5</ele><time>2022-11-16T12:40:08Z</time><name>PT4113</name></trkpt>
<trkpt lat="51.602510" lon="03.822192"><ele>4.3</ele><time>2022-11-16T12:40:09Z</time><name>PT4114</name></trkpt>
<trkpt lat="51.602506" lon="03.822177"><ele>4.4</ele><time>2022-11-16T12:40:10Z</time><name>PT4115</name></trkpt>
<trkpt lat="51.602502" lon="03.822163"><ele>4.4</ele><time>2022-11-16T12:40:11Z</time><name>PT4116</name></trkpt>
<trkpt lat="51.602499" lon="03.822148"><ele>4.6</ele><time>2022-11-16T12:40:12Z</time><name>PT4117</name></trkpt>
<trkpt lat="51.602496" lon="03.822133"><ele>4.5</ele><time>2022-11-16T12:40:13Z</time><name>PT4118</name></trkpt>
<trkpt lat="51.602492" lon="03.822117"><ele>4.5</ele><time>2022-11-16T12:40:14Z</time><name>PT4119</name></trkpt>
<trkpt lat="51.602489" lon="03.822101"><ele>4.6</ele><time>2022-11-16T12:40:16Z</time><name>PT4120</name></trkpt>
<trkpt lat="51.602486" lon="03.822084"><ele>4.6</ele><time>2022-11-16T12:40:16Z</time><name>PT4121</name></trkpt>
<trkpt lat="51.602483" lon="03.822066"><ele>4.5</ele><time>2022-11-16T12:40:17Z</time><name>PT4122</name></trkpt>
<trkpt lat="51.602480" lon="03.822048"><ele>4.6</ele><time>2022-11-16T12:40:18Z</time><name>PT4123</name></trkpt>
<trkpt lat="51.602477" lon="03.822031"><ele>4.6</ele><time>2022-11-16T12:40:19Z</time><name>PT4124</name></trkpt>
<trkpt lat="51.602474" lon="03.822016"><ele>4.6</ele><time>2022-11-16T12:40:20Z</time><name>PT4125</name></trkpt>
<trkpt lat="51.602469" lon="03.822002"><ele>4.3</ele><time>2022-11-16T12:40:22Z</time><name>PT4126</name></trkpt>
<trkpt lat="51.602465" lon="03.821987"><ele>4.4</ele><time>2022-11-16T12:40:22Z</time><name>PT4127</name></trkpt>
<trkpt lat="51.602460" lon="03.821971"><ele>4.3</ele><time>2022-11-16T12:40:23Z</time><name>PT4128</name></trkpt>
<trkpt lat="51.602456" lon="03.821955"><ele>4.1</ele><time>2022-11-16T12:40:24Z</time><name>PT4129</name></trkpt>
<trkpt lat="51.602453" lon="03.821940"><ele>4.3</ele><time>2022-11-16T12:40:25Z</time><name>PT4130</name></trkpt>
<trkpt lat="51.602450" lon="03.821925"><ele>4.5</ele><time>2022-11-16T12:40:26Z</time><name>PT4131</name></trkpt>
<trkpt lat="51.602448" lon="03.821909"><ele>4.5</ele><time>2022-11-16T12:40:27Z</time><name>PT4132</name></trkpt>
<trkpt lat="51.602446" lon="03.821893"><ele>4.5</ele><time>2022-11-16T12:40:28Z</time><name>PT4133</name></trkpt>
<trkpt lat="51.602444" lon="03.821878"><ele>4.3</ele><time>2022-11-16T12:40:29Z</time><name>PT4134</name></trkpt>
<trkpt lat="51.602439" lon="03.821863"><ele>4.3</ele><time>2022-11-16T12:40:30Z</time><name>PT4135</name></trkpt>
<trkpt lat="51.602436" lon="03.821850"><ele>4.3</ele><time>2022-11-16T12:40:31Z</time><name>PT4136</name></trkpt>
<trkpt lat="51.602434" lon="03.821845"><ele>4.3</ele><time>2022-11-16T12:40:32Z</time><name>PT4137</name></trkpt>
<trkpt lat="51.602434" lon="03.821843"><ele>4.3</ele><time>2022-11-16T12:40:33Z</time><name>PT4138</name></trkpt>
<trkpt lat="51.602434" lon="03.821836"><ele>4.4</ele><time>2022-11-16T12:40:34Z</time><name>PT4139</name></trkpt>
<trkpt lat="51.602431" lon="03.821823"><ele>4.3</ele><time>2022-11-16T12:40:35Z</time><name>PT4140</name></trkpt>
<trkpt lat="51.602429" lon="03.821809"><ele>4.2</ele><time>2022-11-16T12:40:37Z</time><name>PT4141</name></trkpt>
<trkpt lat="51.602427" lon="03.821794"><ele>4.1</ele><time>2022-11-16T12:40:37Z</time><name>PT4142</name></trkpt>
<trkpt lat="51.602426" lon="03.821779"><ele>4.2</ele><time>2022-11-16T12:40:38Z</time><name>PT4143</name></trkpt>
<trkpt lat="51.602423" lon="03.821764"><ele>4.5</ele><time>2022-11-16T12:40:39Z</time><name>PT4144</name></trkpt>
<trkpt lat="51.602421" lon="03.821750"><ele>4.4</ele><time>2022-11-16T12:40:40Z</time><name>PT4145</name></trkpt>
<trkpt lat="51.602417" lon="03.821736"><ele>4.2</ele><time>2022-11-16T12:40:41Z</time><name>PT4146</name></trkpt>
<trkpt lat="51.602414" lon="03.821720"><ele>4.2</ele><time>2022-11-16T12:40:42Z</time><name>PT4147</name></trkpt>
<trkpt lat="51.602411" lon="03.821703"><ele>4.2</ele><time>2022-11-16T12:40:43Z</time><name>PT4148</name></trkpt>
<trkpt lat="51.602409" lon="03.821686"><ele>4.1</ele><time>2022-11-16T12:40:44Z</time><name>PT4149</name></trkpt>
<trkpt lat="51.602408" lon="03.821669"><ele>4.5</ele><time>2022-11-16T12:40:45Z</time><name>PT4150</name></trkpt>
<trkpt lat="51.602406" lon="03.821653"><ele>4.5</ele><time>2022-11-16T12:40:46Z</time><name>PT4151</name></trkpt>
<trkpt lat="51.602404" lon="03.821639"><ele>4.5</ele><time>2022-11-16T12:40:47Z</time><name>PT4152</name></trkpt>
<trkpt lat="51.602402" lon="03.821624"><ele>4.5</ele><time>2022-11-16T12:40:48Z</time><name>PT4153</name></trkpt>
<trkpt lat="51.602399" lon="03.821608"><ele>4.5</ele><time>2022-11-16T12:40:49Z</time><name>PT4154</name></trkpt>
<trkpt lat="51.602397" lon="03.821592"><ele>4.3</ele><time>2022-11-16T12:40:50Z</time><name>PT4155</name></trkpt>
<trkpt lat="51.602394" lon="03.821576"><ele>4.3</ele><time>2022-11-16T12:40:51Z</time><name>PT4156</name></trkpt>
<trkpt lat="51.602393" lon="03.821559"><ele>4.3</ele><time>2022-11-16T12:40:52Z</time><name>PT4157</name></trkpt>
<trkpt lat="51.602392" lon="03.821543"><ele>4.6</ele><time>2022-11-16T12:40:53Z</time><name>PT4158</name></trkpt>
<trkpt lat="51.602390" lon="03.821528"><ele>4.6</ele><time>2022-11-16T12:40:54Z</time><name>PT4159</name></trkpt>
<trkpt lat="51.602387" lon="03.821513"><ele>4.6</ele><time>2022-11-16T12:40:55Z</time><name>PT4160</name></trkpt>
<trkpt lat="51.602384" lon="03.821498"><ele>4.8</ele><time>2022-11-16T12:40:56Z</time><name>PT4161</name></trkpt>
<trkpt lat="51.602380" lon="03.821482"><ele>4.7</ele><time>2022-11-16T12:40:57Z</time><name>PT4162</name></trkpt>
<trkpt lat="51.602377" lon="03.821465"><ele>4.7</ele><time>2022-11-16T12:40:58Z</time><name>PT4163</name></trkpt>
<trkpt lat="51.602376" lon="03.821449"><ele>4.6</ele><time>2022-11-16T12:40:59Z</time><name>PT4164</name></trkpt>
<trkpt lat="51.602374" lon="03.821435"><ele>4.7</ele><time>2022-11-16T12:41:00Z</time><name>PT4165</name></trkpt>
<trkpt lat="51.602372" lon="03.821420"><ele>4.6</ele><time>2022-11-16T12:41:01Z</time><name>PT4166</name></trkpt>
<trkpt lat="51.602370" lon="03.821406"><ele>4.4</ele><time>2022-11-16T12:41:02Z</time><name>PT4167</name></trkpt>
<trkpt lat="51.602368" lon="03.821391"><ele>4.5</ele><time>2022-11-16T12:41:03Z</time><name>PT4168</name></trkpt>
<trkpt lat="51.602367" lon="03.821375"><ele>4.4</ele><time>2022-11-16T12:41:04Z</time><name>PT4169</name></trkpt>
<trkpt lat="51.602367" lon="03.821360"><ele>4.4</ele><time>2022-11-16T12:41:05Z</time><name>PT4170</name></trkpt>
<trkpt lat="51.602366" lon="03.821344"><ele>4.7</ele><time>2022-11-16T12:41:06Z</time><name>PT4171</name></trkpt>
<trkpt lat="51.602363" lon="03.821328"><ele>4.8</ele><time>2022-11-16T12:41:07Z</time><name>PT4172</name></trkpt>
<trkpt lat="51.602361" lon="03.821312"><ele>4.6</ele><time>2022-11-16T12:41:08Z</time><name>PT4173</name></trkpt>
<trkpt lat="51.602359" lon="03.821296"><ele>4.6</ele><time>2022-11-16T12:41:09Z</time><name>PT4174</name></trkpt>
<trkpt lat="51.602358" lon="03.821278"><ele>4.6</ele><time>2022-11-16T12:41:10Z</time><name>PT4175</name></trkpt>
<trkpt lat="51.602357" lon="03.821262"><ele>4.3</ele><time>2022-11-16T12:41:11Z</time><name>PT4176</name></trkpt>
<trkpt lat="51.602356" lon="03.821247"><ele>4.1</ele><time>2022-11-16T12:41:12Z</time><name>PT4177</name></trkpt>
<trkpt lat="51.602355" lon="03.821231"><ele>4.2</ele><time>2022-11-16T12:41:13Z</time><name>PT4178</name></trkpt>
<trkpt lat="51.602352" lon="03.821213"><ele>4.1</ele><time>2022-11-16T12:41:14Z</time><name>PT4179</name></trkpt>
<trkpt lat="51.602350" lon="03.821196"><ele>4.1</ele><time>2022-11-16T12:41:15Z</time><name>PT4180</name></trkpt>
<trkpt lat="51.602349" lon="03.821179"><ele>4</ele><time>2022-11-16T12:41:16Z</time><name>PT4181</name></trkpt>
<trkpt lat="51.602348" lon="03.821161"><ele>4.1</ele><time>2022-11-16T12:41:17Z</time><name>PT4182</name></trkpt>
<trkpt lat="51.602348" lon="03.821145"><ele>3.9</ele><time>2022-11-16T12:41:18Z</time><name>PT4183</name></trkpt>
<trkpt lat="51.602348" lon="03.821129"><ele>4.1</ele><time>2022-11-16T12:41:19Z</time><name>PT4184</name></trkpt>
<trkpt lat="51.602346" lon="03.821113"><ele>4.1</ele><time>2022-11-16T12:41:20Z</time><name>PT4185</name></trkpt>
<trkpt lat="51.602345" lon="03.821097"><ele>4.1</ele><time>2022-11-16T12:41:21Z</time><name>PT4186</name></trkpt>
<trkpt lat="51.602344" lon="03.821080"><ele>4.2</ele><time>2022-11-16T12:41:22Z</time><name>PT4187</name></trkpt>
<trkpt lat="51.602343" lon="03.821061"><ele>4.5</ele><time>2022-11-16T12:41:23Z</time><name>PT4188</name></trkpt>
<trkpt lat="51.602343" lon="03.821044"><ele>4.6</ele><time>2022-11-16T12:41:24Z</time><name>PT4189</name></trkpt>
<trkpt lat="51.602343" lon="03.821029"><ele>4.7</ele><time>2022-11-16T12:41:25Z</time><name>PT4190</name></trkpt>
<trkpt lat="51.602342" lon="03.821013"><ele>5</ele><time>2022-11-16T12:41:26Z</time><name>PT4191</name></trkpt>
<trkpt lat="51.602339" lon="03.820997"><ele>5</ele><time>2022-11-16T12:41:27Z</time><name>PT4192</name></trkpt>
<trkpt lat="51.602338" lon="03.820982"><ele>4.8</ele><time>2022-11-16T12:41:28Z</time><name>PT4193</name></trkpt>
<trkpt lat="51.602338" lon="03.820966"><ele>4.6</ele><time>2022-11-16T12:41:29Z</time><name>PT4194</name></trkpt>
<trkpt lat="51.602338" lon="03.820950"><ele>4.7</ele><time>2022-11-16T12:41:30Z</time><name>PT4195</name></trkpt>
<trkpt lat="51.602338" lon="03.820936"><ele>4.7</ele><time>2022-11-16T12:41:31Z</time><name>PT4196</name></trkpt>
<trkpt lat="51.602336" lon="03.820921"><ele>5</ele><time>2022-11-16T12:41:32Z</time><name>PT4197</name></trkpt>
<trkpt lat="51.602335" lon="03.820906"><ele>5.1</ele><time>2022-11-16T12:41:33Z</time><name>PT4198</name></trkpt>
<trkpt lat="51.602335" lon="03.820890"><ele>5.3</ele><time>2022-11-16T12:41:34Z</time><name>PT4199</name></trkpt>
<trkpt lat="51.602334" lon="03.820873"><ele>5.3</ele><time>2022-11-16T12:41:35Z</time><name>PT4200</name></trkpt>
<trkpt lat="51.602334" lon="03.820856"><ele>5.2</ele><time>2022-11-16T12:41:36Z</time><name>PT4201</name></trkpt>
<trkpt lat="51.602335" lon="03.820839"><ele>5.1</ele><time>2022-11-16T12:41:37Z</time><name>PT4202</name></trkpt>
<trkpt lat="51.602334" lon="03.820824"><ele>4.9</ele><time>2022-11-16T12:41:38Z</time><name>PT4203</name></trkpt>
<trkpt lat="51.602332" lon="03.820808"><ele>4.6</ele><time>2022-11-16T12:41:39Z</time><name>PT4204</name></trkpt>
<trkpt lat="51.602330" lon="03.820792"><ele>4.4</ele><time>2022-11-16T12:41:40Z</time><name>PT4205</name></trkpt>
<trkpt lat="51.602328" lon="03.820775"><ele>4.4</ele><time>2022-11-16T12:41:41Z</time><name>PT4206</name></trkpt>
<trkpt lat="51.602326" lon="03.820758"><ele>4.3</ele><time>2022-11-16T12:41:42Z</time><name>PT4207</name></trkpt>
<trkpt lat="51.602324" lon="03.820743"><ele>4.3</ele><time>2022-11-16T12:41:43Z</time><name>PT4208</name></trkpt>
<trkpt lat="51.602322" lon="03.820729"><ele>4.4</ele><time>2022-11-16T12:41:44Z</time><name>PT4209</name></trkpt>
<trkpt lat="51.602319" lon="03.820713"><ele>4.6</ele><time>2022-11-16T12:41:45Z</time><name>PT4210</name></trkpt>
<trkpt lat="51.602318" lon="03.820698"><ele>4.6</ele><time>2022-11-16T12:41:46Z</time><name>PT4211</name></trkpt>
<trkpt lat="51.602317" lon="03.820681"><ele>4.8</ele><time>2022-11-16T12:41:47Z</time><name>PT4212</name></trkpt>
<trkpt lat="51.602317" lon="03.820664"><ele>4.7</ele><time>2022-11-16T12:41:48Z</time><name>PT4213</name></trkpt>
<trkpt lat="51.602317" lon="03.820648"><ele>4.6</ele><time>2022-11-16T12:41:49Z</time><name>PT4214</name></trkpt>
<trkpt lat="51.602316" lon="03.820633"><ele>4.5</ele><time>2022-11-16T12:41:50Z</time><name>PT4215</name></trkpt>
<trkpt lat="51.602314" lon="03.820618"><ele>4.6</ele><time>2022-11-16T12:41:51Z</time><name>PT4216</name></trkpt>
<trkpt lat="51.602312" lon="03.820603"><ele>4.6</ele><time>2022-11-16T12:41:52Z</time><name>PT4217</name></trkpt>
<trkpt lat="51.602310" lon="03.820588"><ele>4.6</ele><time>2022-11-16T12:41:53Z</time><name>PT4218</name></trkpt>
<trkpt lat="51.602309" lon="03.820571"><ele>4.6</ele><time>2022-11-16T12:41:54Z</time><name>PT4219</name></trkpt>
<trkpt lat="51.602309" lon="03.820557"><ele>4.6</ele><time>2022-11-16T12:41:55Z</time><name>PT4220</name></trkpt>
<trkpt lat="51.602310" lon="03.820546"><ele>4.9</ele><time>2022-11-16T12:41:56Z</time><name>PT4221</name></trkpt>
<trkpt lat="51.602310" lon="03.820535"><ele>4.9</ele><time>2022-11-16T12:41:57Z</time><name>PT4222</name></trkpt>
<trkpt lat="51.602311" lon="03.820525"><ele>4.9</ele><time>2022-11-16T12:41:58Z</time><name>PT4223</name></trkpt>
<trkpt lat="51.602314" lon="03.820513"><ele>4.9</ele><time>2022-11-16T12:41:59Z</time><name>PT4224</name></trkpt>
<trkpt lat="51.602315" lon="03.820501"><ele>4.5</ele><time>2022-11-16T12:42:00Z</time><name>PT4225</name></trkpt>
<trkpt lat="51.602315" lon="03.820488"><ele>4.4</ele><time>2022-11-16T12:42:01Z</time><name>PT4226</name></trkpt>
<trkpt lat="51.602315" lon="03.820474"><ele>4.2</ele><time>2022-11-16T12:42:02Z</time><name>PT4227</name></trkpt>
<trkpt lat="51.602314" lon="03.820460"><ele>4.1</ele><time>2022-11-16T12:42:03Z</time><name>PT4228</name></trkpt>
<trkpt lat="51.602314" lon="03.820445"><ele>4.1</ele><time>2022-11-16T12:42:04Z</time><name>PT4229</name></trkpt>
<trkpt lat="51.602315" lon="03.820433"><ele>4.3</ele><time>2022-11-16T12:42:05Z</time><name>PT4230</name></trkpt>
<trkpt lat="51.602315" lon="03.820420"><ele>4.2</ele><time>2022-11-16T12:42:06Z</time><name>PT4231</name></trkpt>
<trkpt lat="51.602314" lon="03.820407"><ele>4.5</ele><time>2022-11-16T12:42:07Z</time><name>PT4232</name></trkpt>
<trkpt lat="51.602315" lon="03.820394"><ele>4.4</ele><time>2022-11-16T12:42:08Z</time><name>PT4233</name></trkpt>
<trkpt lat="51.602317" lon="03.820383"><ele>4.6</ele><time>2022-11-16T12:42:09Z</time><name>PT4234</name></trkpt>
<trkpt lat="51.602317" lon="03.820372"><ele>4.6</ele><time>2022-11-16T12:42:10Z</time><name>PT4235</name></trkpt>
<trkpt lat="51.602316" lon="03.820361"><ele>4.6</ele><time>2022-11-16T12:42:11Z</time><name>PT4236</name></trkpt>
<trkpt lat="51.602315" lon="03.820352"><ele>4.6</ele><time>2022-11-16T12:42:12Z</time><name>PT4237</name></trkpt>
<trkpt lat="51.602314" lon="03.820346"><ele>4.6</ele><time>2022-11-16T12:42:13Z</time><name>PT4238</name></trkpt>
<trkpt lat="51.602313" lon="03.820342"><ele>4.5</ele><time>2022-11-16T12:42:14Z</time><name>PT4239</name></trkpt>
<trkpt lat="51.602313" lon="03.820341"><ele>4.2</ele><time>2022-11-16T12:42:35Z</time><name>PT4240</name></trkpt>
<trkpt lat="51.602308" lon="03.820337"><ele>4.4</ele><time>2022-11-16T12:42:36Z</time><name>PT4241</name></trkpt>
<trkpt lat="51.602303" lon="03.820329"><ele>4.4</ele><time>2022-11-16T12:42:37Z</time><name>PT4242</name></trkpt>
<trkpt lat="51.602300" lon="03.820320"><ele>4.6</ele><time>2022-11-16T12:42:38Z</time><name>PT4243</name></trkpt>
<trkpt lat="51.602294" lon="03.820311"><ele>5</ele><time>2022-11-16T12:42:39Z</time><name>PT4244</name></trkpt>
<trkpt lat="51.602290" lon="03.820300"><ele>4.9</ele><time>2022-11-16T12:42:40Z</time><name>PT4245</name></trkpt>
<trkpt lat="51.602288" lon="03.820284"><ele>5.1</ele><time>2022-11-16T12:42:41Z</time><name>PT4246</name></trkpt>
<trkpt lat="51.602287" lon="03.820268"><ele>5.1</ele><time>2022-11-16T12:42:42Z</time><name>PT4247</name></trkpt>
<trkpt lat="51.602286" lon="03.820253"><ele>4.9</ele><time>2022-11-16T12:42:43Z</time><name>PT4248</name></trkpt>
<trkpt lat="51.602286" lon="03.820238"><ele>4.8</ele><time>2022-11-16T12:42:44Z</time><name>PT4249</name></trkpt>
<trkpt lat="51.602285" lon="03.820223"><ele>4.8</ele><time>2022-11-16T12:42:45Z</time><name>PT4250</name></trkpt>
<trkpt lat="51.602284" lon="03.820208"><ele>4.7</ele><time>2022-11-16T12:42:46Z</time><name>PT4251</name></trkpt>
<trkpt lat="51.602284" lon="03.820197"><ele>4.7</ele><time>2022-11-16T12:42:47Z</time><name>PT4252</name></trkpt>
<trkpt lat="51.602287" lon="03.820192"><ele>4.9</ele><time>2022-11-16T12:42:48Z</time><name>PT4253</name></trkpt>
<trkpt lat="51.602287" lon="03.820187"><ele>4.9</ele><time>2022-11-16T12:42:49Z</time><name>PT4254</name></trkpt>
<trkpt lat="51.602286" lon="03.820182"><ele>4.9</ele><time>2022-11-16T12:42:50Z</time><name>PT4255</name></trkpt>
<trkpt lat="51.602286" lon="03.820173"><ele>5</ele><time>2022-11-16T12:42:51Z</time><name>PT4256</name></trkpt>
<trkpt lat="51.602286" lon="03.820163"><ele>5</ele><time>2022-11-16T12:42:52Z</time><name>PT4257</name></trkpt>
<trkpt lat="51.602286" lon="03.820156"><ele>5.1</ele><time>2022-11-16T12:42:53Z</time><name>PT4258</name></trkpt>
<trkpt lat="51.602286" lon="03.820148"><ele>5</ele><time>2022-11-16T12:42:54Z</time><name>PT4259</name></trkpt>
<trkpt lat="51.602287" lon="03.820138"><ele>5.1</ele><time>2022-11-16T12:42:55Z</time><name>PT4260</name></trkpt>
<trkpt lat="51.602285" lon="03.820129"><ele>5.1</ele><time>2022-11-16T12:42:56Z</time><name>PT4261</name></trkpt>
<trkpt lat="51.602283" lon="03.820118"><ele>5</ele><time>2022-11-16T12:42:57Z</time><name>PT4262</name></trkpt>
<trkpt lat="51.602282" lon="03.820105"><ele>5.1</ele><time>2022-11-16T12:42:58Z</time><name>PT4263</name></trkpt>
<trkpt lat="51.602281" lon="03.820094"><ele>5.2</ele><time>2022-11-16T12:42:59Z</time><name>PT4264</name></trkpt>
<trkpt lat="51.602281" lon="03.820089"><ele>5.4</ele><time>2022-11-16T12:43:00Z</time><name>PT4265</name></trkpt>
<trkpt lat="51.602281" lon="03.820087"><ele>5.3</ele><time>2022-11-16T12:43:01Z</time><name>PT4266</name></trkpt>
<trkpt lat="51.602281" lon="03.820087"><ele>5.6</ele><time>2022-11-16T12:43:02Z</time><name>PT4267</name></trkpt>
<trkpt lat="51.602280" lon="03.820083"><ele>5.5</ele><time>2022-11-16T12:43:08Z</time><name>PT4268</name></trkpt>
<trkpt lat="51.602279" lon="03.820067"><ele>5.6</ele><time>2022-11-16T12:43:09Z</time><name>PT4269</name></trkpt>
<trkpt lat="51.602279" lon="03.820052"><ele>5.5</ele><time>2022-11-16T12:43:10Z</time><name>PT4270</name></trkpt>
<trkpt lat="51.602278" lon="03.820037"><ele>5.6</ele><time>2022-11-16T12:43:11Z</time><name>PT4271</name></trkpt>
<trkpt lat="51.602277" lon="03.820021"><ele>5.6</ele><time>2022-11-16T12:43:12Z</time><name>PT4272</name></trkpt>
<trkpt lat="51.602277" lon="03.820003"><ele>5.6</ele><time>2022-11-16T12:43:13Z</time><name>PT4273</name></trkpt>
<trkpt lat="51.602277" lon="03.819984"><ele>5.5</ele><time>2022-11-16T12:43:14Z</time><name>PT4274</name></trkpt>
<trkpt lat="51.602277" lon="03.819965"><ele>5.6</ele><time>2022-11-16T12:43:15Z</time><name>PT4275</name></trkpt>
<trkpt lat="51.602277" lon="03.819946"><ele>5.6</ele><time>2022-11-16T12:43:16Z</time><name>PT4276</name></trkpt>
<trkpt lat="51.602277" lon="03.819928"><ele>5.7</ele><time>2022-11-16T12:43:17Z</time><name>PT4277</name></trkpt>
<trkpt lat="51.602278" lon="03.819912"><ele>5.9</ele><time>2022-11-16T12:43:18Z</time><name>PT4278</name></trkpt>
<trkpt lat="51.602278" lon="03.819896"><ele>5.9</ele><time>2022-11-16T12:43:19Z</time><name>PT4279</name></trkpt>
<trkpt lat="51.602278" lon="03.819880"><ele>6.1</ele><time>2022-11-16T12:43:20Z</time><name>PT4280</name></trkpt>
<trkpt lat="51.602279" lon="03.819862"><ele>6</ele><time>2022-11-16T12:43:21Z</time><name>PT4281</name></trkpt>
<trkpt lat="51.602278" lon="03.819845"><ele>5.9</ele><time>2022-11-16T12:43:22Z</time><name>PT4282</name></trkpt>
<trkpt lat="51.602278" lon="03.819829"><ele>5.8</ele><time>2022-11-16T12:43:23Z</time><name>PT4283</name></trkpt>
<trkpt lat="51.602279" lon="03.819815"><ele>6.1</ele><time>2022-11-16T12:43:24Z</time><name>PT4284</name></trkpt>
<trkpt lat="51.602280" lon="03.819800"><ele>6</ele><time>2022-11-16T12:43:25Z</time><name>PT4285</name></trkpt>
<trkpt lat="51.602282" lon="03.819782"><ele>6.2</ele><time>2022-11-16T12:43:26Z</time><name>PT4286</name></trkpt>
<trkpt lat="51.602284" lon="03.819764"><ele>6.6</ele><time>2022-11-16T12:43:27Z</time><name>PT4287</name></trkpt>
<trkpt lat="51.602285" lon="03.819748"><ele>6.6</ele><time>2022-11-16T12:43:28Z</time><name>PT4288</name></trkpt>
<trkpt lat="51.602285" lon="03.819730"><ele>6.4</ele><time>2022-11-16T12:43:29Z</time><name>PT4289</name></trkpt>
<trkpt lat="51.602284" lon="03.819712"><ele>6.6</ele><time>2022-11-16T12:43:30Z</time><name>PT4290</name></trkpt>
<trkpt lat="51.602285" lon="03.819694"><ele>6.5</ele><time>2022-11-16T12:43:31Z</time><name>PT4291</name></trkpt>
<trkpt lat="51.602285" lon="03.819676"><ele>6.6</ele><time>2022-11-16T12:43:32Z</time><name>PT4292</name></trkpt>
<trkpt lat="51.602286" lon="03.819657"><ele>6.9</ele><time>2022-11-16T12:43:33Z</time><name>PT4293</name></trkpt>
<trkpt lat="51.602287" lon="03.819639"><ele>6.7</ele><time>2022-11-16T12:43:34Z</time><name>PT4294</name></trkpt>
<trkpt lat="51.602288" lon="03.819622"><ele>6.8</ele><time>2022-11-16T12:43:35Z</time><name>PT4295</name></trkpt>
<trkpt lat="51.602290" lon="03.819605"><ele>6.9</ele><time>2022-11-16T12:43:36Z</time><name>PT4296</name></trkpt>
<trkpt lat="51.602289" lon="03.819587"><ele>6.9</ele><time>2022-11-16T12:43:37Z</time><name>PT4297</name></trkpt>
<trkpt lat="51.602288" lon="03.819568"><ele>6.8</ele><time>2022-11-16T12:43:38Z</time><name>PT4298</name></trkpt>
<trkpt lat="51.602290" lon="03.819552"><ele>6.7</ele><time>2022-11-16T12:43:39Z</time><name>PT4299</name></trkpt>
<trkpt lat="51.602291" lon="03.819533"><ele>6.7</ele><time>2022-11-16T12:43:40Z</time><name>PT4300</name></trkpt>
<trkpt lat="51.602292" lon="03.819514"><ele>6.7</ele><time>2022-11-16T12:43:41Z</time><name>PT4301</name></trkpt>
<trkpt lat="51.602293" lon="03.819498"><ele>7.1</ele><time>2022-11-16T12:43:42Z</time><name>PT4302</name></trkpt>
<trkpt lat="51.602296" lon="03.819485"><ele>7.3</ele><time>2022-11-16T12:43:43Z</time><name>PT4303</name></trkpt>
<trkpt lat="51.602297" lon="03.819471"><ele>7.6</ele><time>2022-11-16T12:43:44Z</time><name>PT4304</name></trkpt>
<trkpt lat="51.602296" lon="03.819455"><ele>7.6</ele><time>2022-11-16T12:43:45Z</time><name>PT4305</name></trkpt>
<trkpt lat="51.602295" lon="03.819439"><ele>7.6</ele><time>2022-11-16T12:43:46Z</time><name>PT4306</name></trkpt>
<trkpt lat="51.602295" lon="03.819423"><ele>7.3</ele><time>2022-11-16T12:43:47Z</time><name>PT4307</name></trkpt>
<trkpt lat="51.602297" lon="03.819408"><ele>7.3</ele><time>2022-11-16T12:43:48Z</time><name>PT4308</name></trkpt>
<trkpt lat="51.602296" lon="03.819392"><ele>7.4</ele><time>2022-11-16T12:43:49Z</time><name>PT4309</name></trkpt>
<trkpt lat="51.602295" lon="03.819376"><ele>7.5</ele><time>2022-11-16T12:43:50Z</time><name>PT4310</name></trkpt>
<trkpt lat="51.602295" lon="03.819362"><ele>7.6</ele><time>2022-11-16T12:43:51Z</time><name>PT4311</name></trkpt>
<trkpt lat="51.602298" lon="03.819349"><ele>7.7</ele><time>2022-11-16T12:43:52Z</time><name>PT4312</name></trkpt>
<trkpt lat="51.602301" lon="03.819334"><ele>7.7</ele><time>2022-11-16T12:43:53Z</time><name>PT4313</name></trkpt>
<trkpt lat="51.602304" lon="03.819320"><ele>7.6</ele><time>2022-11-16T12:43:54Z</time><name>PT4314</name></trkpt>
<trkpt lat="51.602306" lon="03.819308"><ele>7.7</ele><time>2022-11-16T12:43:55Z</time><name>PT4315</name></trkpt>
<trkpt lat="51.602307" lon="03.819295"><ele>7.5</ele><time>2022-11-16T12:43:56Z</time><name>PT4316</name></trkpt>
<trkpt lat="51.602309" lon="03.819283"><ele>7.2</ele><time>2022-11-16T12:43:57Z</time><name>PT4317</name></trkpt>
<trkpt lat="51.602309" lon="03.819269"><ele>7.2</ele><time>2022-11-16T12:43:58Z</time><name>PT4318</name></trkpt>
<trkpt lat="51.602310" lon="03.819255"><ele>7.2</ele><time>2022-11-16T12:43:59Z</time><name>PT4319</name></trkpt>
<trkpt lat="51.602310" lon="03.819242"><ele>7.2</ele><time>2022-11-16T12:44:00Z</time><name>PT4320</name></trkpt>
<trkpt lat="51.602312" lon="03.819229"><ele>7.2</ele><time>2022-11-16T12:44:01Z</time><name>PT4321</name></trkpt>
<trkpt lat="51.602314" lon="03.819216"><ele>7.2</ele><time>2022-11-16T12:44:02Z</time><name>PT4322</name></trkpt>
<trkpt lat="51.602314" lon="03.819203"><ele>6.9</ele><time>2022-11-16T12:44:03Z</time><name>PT4323</name></trkpt>
<trkpt lat="51.602314" lon="03.819190"><ele>6.8</ele><time>2022-11-16T12:44:04Z</time><name>PT4324</name></trkpt>
<trkpt lat="51.602316" lon="03.819178"><ele>6.7</ele><time>2022-11-16T12:44:05Z</time><name>PT4325</name></trkpt>
<trkpt lat="51.602319" lon="03.819165"><ele>6.6</ele><time>2022-11-16T12:44:06Z</time><name>PT4326</name></trkpt>
<trkpt lat="51.602320" lon="03.819153"><ele>6.6</ele><time>2022-11-16T12:44:07Z</time><name>PT4327</name></trkpt>
<trkpt lat="51.602321" lon="03.819140"><ele>6.6</ele><time>2022-11-16T12:44:08Z</time><name>PT4328</name></trkpt>
<trkpt lat="51.602321" lon="03.819129"><ele>6.7</ele><time>2022-11-16T12:44:09Z</time><name>PT4329</name></trkpt>
<trkpt lat="51.602322" lon="03.819119"><ele>6.7</ele><time>2022-11-16T12:44:10Z</time><name>PT4330</name></trkpt>
<trkpt lat="51.602321" lon="03.819107"><ele>6.6</ele><time>2022-11-16T12:44:11Z</time><name>PT4331</name></trkpt>
<trkpt lat="51.602321" lon="03.819096"><ele>6.7</ele><time>2022-11-16T12:44:12Z</time><name>PT4332</name></trkpt>
<trkpt lat="51.602322" lon="03.819084"><ele>6.7</ele><time>2022-11-16T12:44:13Z</time><name>PT4333</name></trkpt>
<trkpt lat="51.602324" lon="03.819073"><ele>6.5</ele><time>2022-11-16T12:44:14Z</time><name>PT4334</name></trkpt>
<trkpt lat="51.602324" lon="03.819062"><ele>6.4</ele><time>2022-11-16T12:44:15Z</time><name>PT4335</name></trkpt>
<trkpt lat="51.602324" lon="03.819052"><ele>6.5</ele><time>2022-11-16T12:44:16Z</time><name>PT4336</name></trkpt>
<trkpt lat="51.602326" lon="03.819042"><ele>6.4</ele><time>2022-11-16T12:44:17Z</time><name>PT4337</name></trkpt>
<trkpt lat="51.602328" lon="03.819034"><ele>6.4</ele><time>2022-11-16T12:44:18Z</time><name>PT4338</name></trkpt>
<trkpt lat="51.602329" lon="03.819025"><ele>6.4</ele><time>2022-11-16T12:44:19Z</time><name>PT4339</name></trkpt>
<trkpt lat="51.602330" lon="03.819017"><ele>6.2</ele><time>2022-11-16T12:44:20Z</time><name>PT4340</name></trkpt>
<trkpt lat="51.602332" lon="03.819008"><ele>6.2</ele><time>2022-11-16T12:44:21Z</time><name>PT4341</name></trkpt>
<trkpt lat="51.602334" lon="03.819000"><ele>6.1</ele><time>2022-11-16T12:44:22Z</time><name>PT4342</name></trkpt>
<trkpt lat="51.602337" lon="03.818995"><ele>6.1</ele><time>2022-11-16T12:44:23Z</time><name>PT4343</name></trkpt>
<trkpt lat="51.602339" lon="03.818990"><ele>6.1</ele><time>2022-11-16T12:44:24Z</time><name>PT4344</name></trkpt>
<trkpt lat="51.602341" lon="03.818984"><ele>6.1</ele><time>2022-11-16T12:44:25Z</time><name>PT4345</name></trkpt>
<trkpt lat="51.602342" lon="03.818977"><ele>6.1</ele><time>2022-11-16T12:44:26Z</time><name>PT4346</name></trkpt>
<trkpt lat="51.602342" lon="03.818970"><ele>6</ele><time>2022-11-16T12:44:27Z</time><name>PT4347</name></trkpt>
<trkpt lat="51.602343" lon="03.818968"><ele>6.1</ele><time>2022-11-16T12:44:28Z</time><name>PT4348</name></trkpt>
<trkpt lat="51.602341" lon="03.818967"><ele>6.1</ele><time>2022-11-16T12:44:29Z</time><name>PT4349</name></trkpt>
<trkpt lat="51.602328" lon="03.818956"><ele>6</ele><time>2022-11-16T12:44:30Z</time><name>PT4350</name></trkpt>
<trkpt lat="51.602329" lon="03.818953"><ele>6</ele><time>2022-11-16T12:45:22Z</time><name>PT4351</name></trkpt>
<trkpt lat="51.602330" lon="03.818945"><ele>5.9</ele><time>2022-11-16T12:45:23Z</time><name>PT4352</name></trkpt>
<trkpt lat="51.602330" lon="03.818936"><ele>6</ele><time>2022-11-16T12:45:24Z</time><name>PT4353</name></trkpt>
<trkpt lat="51.602328" lon="03.818930"><ele>5.8</ele><time>2022-11-16T12:45:25Z</time><name>PT4354</name></trkpt>
<trkpt lat="51.602327" lon="03.818921"><ele>6</ele><time>2022-11-16T12:45:26Z</time><name>PT4355</name></trkpt>
<trkpt lat="51.602326" lon="03.818911"><ele>5.9</ele><time>2022-11-16T12:45:27Z</time><name>PT4356</name></trkpt>
<trkpt lat="51.602324" lon="03.818903"><ele>5.9</ele><time>2022-11-16T12:45:28Z</time><name>PT4357</name></trkpt>
<trkpt lat="51.602324" lon="03.818891"><ele>5.7</ele><time>2022-11-16T12:45:29Z</time><name>PT4358</name></trkpt>
<trkpt lat="51.602324" lon="03.818886"><ele>5.9</ele><time>2022-11-16T12:45:30Z</time><name>PT4359</name></trkpt>
<trkpt lat="51.602322" lon="03.818879"><ele>5.7</ele><time>2022-11-16T12:45:31Z</time><name>PT4360</name></trkpt>
<trkpt lat="51.602322" lon="03.818873"><ele>5.7</ele><time>2022-11-16T12:45:32Z</time><name>PT4361</name></trkpt>
<trkpt lat="51.602338" lon="03.818850"><ele>5.8</ele><time>2022-11-16T12:47:19Z</time><name>PT4362</name></trkpt>
<trkpt lat="51.602338" lon="03.818850"><ele>5.8</ele><time>2022-11-16T12:47:20Z</time><name>PT4363</name></trkpt>
<trkpt lat="51.602340" lon="03.818849"><ele>6.1</ele><time>2022-11-16T12:47:22Z</time><name>PT4364</name></trkpt>
<trkpt lat="51.602339" lon="03.818851"><ele>5.6</ele><time>2022-11-16T12:47:23Z</time><name>PT4365</name></trkpt>
<trkpt lat="51.602339" lon="03.818851"><ele>5.5</ele><time>2022-11-16T12:47:24Z</time><name>PT4366</name></trkpt>
<trkpt lat="51.602340" lon="03.818852"><ele>5.3</ele><time>2022-11-16T12:47:27Z</time><name>PT4367</name></trkpt>
<trkpt lat="51.602339" lon="03.818845"><ele>5.3</ele><time>2022-11-16T12:47:28Z</time><name>PT4368</name></trkpt>
<trkpt lat="51.602338" lon="03.818835"><ele>5.4</ele><time>2022-11-16T12:47:29Z</time><name>PT4369</name></trkpt>
<trkpt lat="51.602336" lon="03.818827"><ele>5.4</ele><time>2022-11-16T12:47:30Z</time><name>PT4370</name></trkpt>
<trkpt lat="51.602336" lon="03.818819"><ele>5.5</ele><time>2022-11-16T12:47:31Z</time><name>PT4371</name></trkpt>
<trkpt lat="51.602338" lon="03.818811"><ele>5.5</ele><time>2022-11-16T12:47:32Z</time><name>PT4372</name></trkpt>
<trkpt lat="51.602337" lon="03.818797"><ele>5.4</ele><time>2022-11-16T12:47:33Z</time><name>PT4373</name></trkpt>
<trkpt lat="51.602337" lon="03.818787"><ele>5.3</ele><time>2022-11-16T12:47:34Z</time><name>PT4374</name></trkpt>
<trkpt lat="51.602336" lon="03.818779"><ele>5.4</ele><time>2022-11-16T12:47:35Z</time><name>PT4375</name></trkpt>
<trkpt lat="51.602339" lon="03.818771"><ele>5.6</ele><time>2022-11-16T12:47:36Z</time><name>PT4376</name></trkpt>
<trkpt lat="51.602344" lon="03.818762"><ele>5.7</ele><time>2022-11-16T12:47:37Z</time><name>PT4377</name></trkpt>
<trkpt lat="51.602346" lon="03.818753"><ele>5.9</ele><time>2022-11-16T12:47:38Z</time><name>PT4378</name></trkpt>
<trkpt lat="51.602349" lon="03.818745"><ele>6</ele><time>2022-11-16T12:47:39Z</time><name>PT4379</name></trkpt>
<trkpt lat="51.602351" lon="03.818735"><ele>5.8</ele><time>2022-11-16T12:47:40Z</time><name>PT4380</name></trkpt>
<trkpt lat="51.602353" lon="03.818726"><ele>5.6</ele><time>2022-11-16T12:47:41Z</time><name>PT4381</name></trkpt>
<trkpt lat="51.602350" lon="03.818715"><ele>5.6</ele><time>2022-11-16T12:47:42Z</time><name>PT4382</name></trkpt>
<trkpt lat="51.602353" lon="03.818706"><ele>5.5</ele><time>2022-11-16T12:47:43Z</time><name>PT4383</name></trkpt>
<trkpt lat="51.602355" lon="03.818699"><ele>5.4</ele><time>2022-11-16T12:47:44Z</time><name>PT4384</name></trkpt>
<trkpt lat="51.602360" lon="03.818690"><ele>5.3</ele><time>2022-11-16T12:47:45Z</time><name>PT4385</name></trkpt>
<trkpt lat="51.602361" lon="03.818677"><ele>5.3</ele><time>2022-11-16T12:47:46Z</time><name>PT4386</name></trkpt>
<trkpt lat="51.602362" lon="03.818665"><ele>5.4</ele><time>2022-11-16T12:47:47Z</time><name>PT4387</name></trkpt>
<trkpt lat="51.602366" lon="03.818656"><ele>5.2</ele><time>2022-11-16T12:47:48Z</time><name>PT4388</name></trkpt>
<trkpt lat="51.602371" lon="03.818650"><ele>5.2</ele><time>2022-11-16T12:47:49Z</time><name>PT4389</name></trkpt>
<trkpt lat="51.602373" lon="03.818642"><ele>5.3</ele><time>2022-11-16T12:47:50Z</time><name>PT4390</name></trkpt>
<trkpt lat="51.602374" lon="03.818636"><ele>5.1</ele><time>2022-11-16T12:47:51Z</time><name>PT4391</name></trkpt>
<trkpt lat="51.602378" lon="03.818629"><ele>5.1</ele><time>2022-11-16T12:47:52Z</time><name>PT4392</name></trkpt>
<trkpt lat="51.602383" lon="03.818619"><ele>5.1</ele><time>2022-11-16T12:47:53Z</time><name>PT4393</name></trkpt>
<trkpt lat="51.602388" lon="03.818610"><ele>4.9</ele><time>2022-11-16T12:47:54Z</time><name>PT4394</name></trkpt>
<trkpt lat="51.602394" lon="03.818602"><ele>4.8</ele><time>2022-11-16T12:47:55Z</time><name>PT4395</name></trkpt>
<trkpt lat="51.602397" lon="03.818591"><ele>4.9</ele><time>2022-11-16T12:47:56Z</time><name>PT4396</name></trkpt>
<trkpt lat="51.602399" lon="03.818580"><ele>4.9</ele><time>2022-11-16T12:47:57Z</time><name>PT4397</name></trkpt>
<trkpt lat="51.602402" lon="03.818567"><ele>4.8</ele><time>2022-11-16T12:47:58Z</time><name>PT4398</name></trkpt>
<trkpt lat="51.602407" lon="03.818556"><ele>4.6</ele><time>2022-11-16T12:47:59Z</time><name>PT4399</name></trkpt>
<trkpt lat="51.602410" lon="03.818544"><ele>4.6</ele><time>2022-11-16T12:48:00Z</time><name>PT4400</name></trkpt>
<trkpt lat="51.602413" lon="03.818532"><ele>4.5</ele><time>2022-11-16T12:48:01Z</time><name>PT4401</name></trkpt>
<trkpt lat="51.602417" lon="03.818523"><ele>4.1</ele><time>2022-11-16T12:48:02Z</time><name>PT4402</name></trkpt>
<trkpt lat="51.602421" lon="03.818518"><ele>4.2</ele><time>2022-11-16T12:48:03Z</time><name>PT4403</name></trkpt>
<trkpt lat="51.602424" lon="03.818513"><ele>4.2</ele><time>2022-11-16T12:48:04Z</time><name>PT4404</name></trkpt>
<trkpt lat="51.602425" lon="03.818507"><ele>4.2</ele><time>2022-11-16T12:48:05Z</time><name>PT4405</name></trkpt>
<trkpt lat="51.602426" lon="03.818507"><ele>4.4</ele><time>2022-11-16T12:48:06Z</time><name>PT4406</name></trkpt>
<trkpt lat="51.602425" lon="03.818507"><ele>4.3</ele><time>2022-11-16T12:48:07Z</time><name>PT4407</name></trkpt>
<trkpt lat="51.602425" lon="03.818507"><ele>4.2</ele><time>2022-11-16T12:48:08Z</time><name>PT4408</name></trkpt>
<trkpt lat="51.602425" lon="03.818509"><ele>4.3</ele><time>2022-11-16T12:48:09Z</time><name>PT4409</name></trkpt>
<trkpt lat="51.602428" lon="03.818498"><ele>4.1</ele><time>2022-11-16T12:48:21Z</time><name>PT4410</name></trkpt>
<trkpt lat="51.602436" lon="03.818480"><ele>3.9</ele><time>2022-11-16T12:48:22Z</time><name>PT4411</name></trkpt>
<trkpt lat="51.602444" lon="03.818462"><ele>3.7</ele><time>2022-11-16T12:48:23Z</time><name>PT4412</name></trkpt>
<trkpt lat="51.602451" lon="03.818443"><ele>3.7</ele><time>2022-11-16T12:48:24Z</time><name>PT4413</name></trkpt>
<trkpt lat="51.602455" lon="03.818425"><ele>3.7</ele><time>2022-11-16T12:48:25Z</time><name>PT4414</name></trkpt>
<trkpt lat="51.602460" lon="03.818406"><ele>3.6</ele><time>2022-11-16T12:48:26Z</time><name>PT4415</name></trkpt>
<trkpt lat="51.602464" lon="03.818387"><ele>3.6</ele><time>2022-11-16T12:48:27Z</time><name>PT4416</name></trkpt>
<trkpt lat="51.602468" lon="03.818369"><ele>3.5</ele><time>2022-11-16T12:48:28Z</time><name>PT4417</name></trkpt>
<trkpt lat="51.602472" lon="03.818354"><ele>3.3</ele><time>2022-11-16T12:48:29Z</time><name>PT4418</name></trkpt>
<trkpt lat="51.602477" lon="03.818341"><ele>3.2</ele><time>2022-11-16T12:48:30Z</time><name>PT4419</name></trkpt>
<trkpt lat="51.602482" lon="03.818329"><ele>3.2</ele><time>2022-11-16T12:48:31Z</time><name>PT4420</name></trkpt>
<trkpt lat="51.602487" lon="03.818312"><ele>3.3</ele><time>2022-11-16T12:48:32Z</time><name>PT4421</name></trkpt>
<trkpt lat="51.602490" lon="03.818296"><ele>3.3</ele><time>2022-11-16T12:48:33Z</time><name>PT4422</name></trkpt>
<trkpt lat="51.602494" lon="03.818282"><ele>3.3</ele><time>2022-11-16T12:48:34Z</time><name>PT4423</name></trkpt>
<trkpt lat="51.602499" lon="03.818269"><ele>3.2</ele><time>2022-11-16T12:48:35Z</time><name>PT4424</name></trkpt>
<trkpt lat="51.602502" lon="03.818254"><ele>3.1</ele><time>2022-11-16T12:48:36Z</time><name>PT4425</name></trkpt>
<trkpt lat="51.602506" lon="03.818237"><ele>3.2</ele><time>2022-11-16T12:48:37Z</time><name>PT4426</name></trkpt>
<trkpt lat="51.602509" lon="03.818220"><ele>3.1</ele><time>2022-11-16T12:48:38Z</time><name>PT4427</name></trkpt>
<trkpt lat="51.602513" lon="03.818207"><ele>3.2</ele><time>2022-11-16T12:48:39Z</time><name>PT4428</name></trkpt>
<trkpt lat="51.602519" lon="03.818194"><ele>3.2</ele><time>2022-11-16T12:48:40Z</time><name>PT4429</name></trkpt>
<trkpt lat="51.602525" lon="03.818184"><ele>3.3</ele><time>2022-11-16T12:48:41Z</time><name>PT4430</name></trkpt>
<trkpt lat="51.602531" lon="03.818171"><ele>3.2</ele><time>2022-11-16T12:48:42Z</time><name>PT4431</name></trkpt>
<trkpt lat="51.602536" lon="03.818154"><ele>3.2</ele><time>2022-11-16T12:48:43Z</time><name>PT4432</name></trkpt>
<trkpt lat="51.602540" lon="03.818140"><ele>3</ele><time>2022-11-16T12:48:44Z</time><name>PT4433</name></trkpt>
<trkpt lat="51.602544" lon="03.818125"><ele>2.8</ele><time>2022-11-16T12:48:45Z</time><name>PT4434</name></trkpt>
<trkpt lat="51.602549" lon="03.818110"><ele>2.6</ele><time>2022-11-16T12:48:46Z</time><name>PT4435</name></trkpt>
<trkpt lat="51.602554" lon="03.818099"><ele>2.6</ele><time>2022-11-16T12:48:47Z</time><name>PT4436</name></trkpt>
<trkpt lat="51.602559" lon="03.818087"><ele>2.5</ele><time>2022-11-16T12:48:48Z</time><name>PT4437</name></trkpt>
<trkpt lat="51.602566" lon="03.818074"><ele>2.6</ele><time>2022-11-16T12:48:49Z</time><name>PT4438</name></trkpt>
<trkpt lat="51.602570" lon="03.818062"><ele>2.5</ele><time>2022-11-16T12:48:50Z</time><name>PT4439</name></trkpt>
<trkpt lat="51.602575" lon="03.818048"><ele>2.5</ele><time>2022-11-16T12:48:51Z</time><name>PT4440</name></trkpt>
<trkpt lat="51.602580" lon="03.818034"><ele>2.5</ele><time>2022-11-16T12:48:52Z</time><name>PT4441</name></trkpt>
<trkpt lat="51.602586" lon="03.818020"><ele>2.3</ele><time>2022-11-16T12:48:53Z</time><name>PT4442</name></trkpt>
<trkpt lat="51.602592" lon="03.818005"><ele>2</ele><time>2022-11-16T12:48:54Z</time><name>PT4443</name></trkpt>
<trkpt lat="51.602597" lon="03.817989"><ele>2</ele><time>2022-11-16T12:48:55Z</time><name>PT4444</name></trkpt>
<trkpt lat="51.602602" lon="03.817974"><ele>2.1</ele><time>2022-11-16T12:48:56Z</time><name>PT4445</name></trkpt>
<trkpt lat="51.602607" lon="03.817966"><ele>2</ele><time>2022-11-16T12:48:57Z</time><name>PT4446</name></trkpt>
<trkpt lat="51.602612" lon="03.817949"><ele>2.1</ele><time>2022-11-16T12:48:58Z</time><name>PT4447</name></trkpt>
<trkpt lat="51.602618" lon="03.817932"><ele>2</ele><time>2022-11-16T12:48:59Z</time><name>PT4448</name></trkpt>
<trkpt lat="51.602623" lon="03.817916"><ele>1.9</ele><time>2022-11-16T12:49:00Z</time><name>PT4449</name></trkpt>
<trkpt lat="51.602630" lon="03.817900"><ele>1.9</ele><time>2022-11-16T12:49:01Z</time><name>PT4450</name></trkpt>
<trkpt lat="51.602636" lon="03.817884"><ele>1.8</ele><time>2022-11-16T12:49:02Z</time><name>PT4451</name></trkpt>
<trkpt lat="51.602642" lon="03.817868"><ele>1.9</ele><time>2022-11-16T12:49:03Z</time><name>PT4452</name></trkpt>
<trkpt lat="51.602650" lon="03.817850"><ele>2</ele><time>2022-11-16T12:49:04Z</time><name>PT4453</name></trkpt>
<trkpt lat="51.602655" lon="03.817832"><ele>1.9</ele><time>2022-11-16T12:49:05Z</time><name>PT4454</name></trkpt>
<trkpt lat="51.602660" lon="03.817815"><ele>1.7</ele><time>2022-11-16T12:49:06Z</time><name>PT4455</name></trkpt>
<trkpt lat="51.602665" lon="03.817799"><ele>1.7</ele><time>2022-11-16T12:49:07Z</time><name>PT4456</name></trkpt>
<trkpt lat="51.602670" lon="03.817786"><ele>1.3</ele><time>2022-11-16T12:49:08Z</time><name>PT4457</name></trkpt>
<trkpt lat="51.602675" lon="03.817775"><ele>1.3</ele><time>2022-11-16T12:49:09Z</time><name>PT4458</name></trkpt>
<trkpt lat="51.602681" lon="03.817763"><ele>1.3</ele><time>2022-11-16T12:49:10Z</time><name>PT4459</name></trkpt>
<trkpt lat="51.602688" lon="03.817750"><ele>1.2</ele><time>2022-11-16T12:49:11Z</time><name>PT4460</name></trkpt>
<trkpt lat="51.602694" lon="03.817736"><ele>1.3</ele><time>2022-11-16T12:49:12Z</time><name>PT4461</name></trkpt>
<trkpt lat="51.602699" lon="03.817721"><ele>1.3</ele><time>2022-11-16T12:49:13Z</time><name>PT4462</name></trkpt>
<trkpt lat="51.602703" lon="03.817708"><ele>1.2</ele><time>2022-11-16T12:49:14Z</time><name>PT4463</name></trkpt>
<trkpt lat="51.602707" lon="03.817696"><ele>1</ele><time>2022-11-16T12:49:15Z</time><name>PT4464</name></trkpt>
<trkpt lat="51.602712" lon="03.817682"><ele>0.9</ele><time>2022-11-16T12:49:16Z</time><name>PT4465</name></trkpt>
<trkpt lat="51.602717" lon="03.817670"><ele>0.7</ele><time>2022-11-16T12:49:17Z</time><name>PT4466</name></trkpt>
<trkpt lat="51.602722" lon="03.817659"><ele>0.7</ele><time>2022-11-16T12:49:18Z</time><name>PT4467</name></trkpt>
<trkpt lat="51.602728" lon="03.817645"><ele>0.5</ele><time>2022-11-16T12:49:19Z</time><name>PT4468</name></trkpt>
<trkpt lat="51.602735" lon="03.817631"><ele>0.5</ele><time>2022-11-16T12:49:20Z</time><name>PT4469</name></trkpt>
<trkpt lat="51.602740" lon="03.817617"><ele>0.7</ele><time>2022-11-16T12:49:21Z</time><name>PT4470</name></trkpt>
<trkpt lat="51.602744" lon="03.817603"><ele>0.7</ele><time>2022-11-16T12:49:22Z</time><name>PT4471</name></trkpt>
<trkpt lat="51.602749" lon="03.817588"><ele>0.8</ele><time>2022-11-16T12:49:23Z</time><name>PT4472</name></trkpt>
<trkpt lat="51.602755" lon="03.817575"><ele>0.9</ele><time>2022-11-16T12:49:24Z</time><name>PT4473</name></trkpt>
<trkpt lat="51.602760" lon="03.817563"><ele>0.9</ele><time>2022-11-16T12:49:25Z</time><name>PT4474</name></trkpt>
<trkpt lat="51.602767" lon="03.817552"><ele>0.8</ele><time>2022-11-16T12:49:26Z</time><name>PT4475</name></trkpt>
<trkpt lat="51.602772" lon="03.817542"><ele>0.7</ele><time>2022-11-16T12:49:27Z</time><name>PT4476</name></trkpt>
<trkpt lat="51.602776" lon="03.817529"><ele>0.6</ele><time>2022-11-16T12:49:28Z</time><name>PT4477</name></trkpt>
<trkpt lat="51.602780" lon="03.817516"><ele>0.5</ele><time>2022-11-16T12:49:29Z</time><name>PT4478</name></trkpt>
<trkpt lat="51.602783" lon="03.817501"><ele>0.4</ele><time>2022-11-16T12:49:30Z</time><name>PT4479</name></trkpt>
<trkpt lat="51.602789" lon="03.817489"><ele>0.4</ele><time>2022-11-16T12:49:31Z</time><name>PT4480</name></trkpt>
<trkpt lat="51.602795" lon="03.817478"><ele>0.4</ele><time>2022-11-16T12:49:32Z</time><name>PT4481</name></trkpt>
<trkpt lat="51.602802" lon="03.817467"><ele>0.4</ele><time>2022-11-16T12:49:33Z</time><name>PT4482</name></trkpt>
<trkpt lat="51.602809" lon="03.817454"><ele>0.4</ele><time>2022-11-16T12:49:34Z</time><name>PT4483</name></trkpt>
<trkpt lat="51.602816" lon="03.817443"><ele>0.4</ele><time>2022-11-16T12:49:35Z</time><name>PT4484</name></trkpt>
<trkpt lat="51.602822" lon="03.817431"><ele>0.4</ele><time>2022-11-16T12:49:36Z</time><name>PT4485</name></trkpt>
<trkpt lat="51.602828" lon="03.817417"><ele>0.4</ele><time>2022-11-16T12:49:37Z</time><name>PT4486</name></trkpt>
<trkpt lat="51.602834" lon="03.817404"><ele>0.4</ele><time>2022-11-16T12:49:38Z</time><name>PT4487</name></trkpt>
<trkpt lat="51.602839" lon="03.817393"><ele>0.6</ele><time>2022-11-16T12:49:39Z</time><name>PT4488</name></trkpt>
<trkpt lat="51.602844" lon="03.817380"><ele>0.7</ele><time>2022-11-16T12:49:40Z</time><name>PT4489</name></trkpt>
<trkpt lat="51.602850" lon="03.817367"><ele>0.5</ele><time>2022-11-16T12:49:41Z</time><name>PT4490</name></trkpt>
<trkpt lat="51.602857" lon="03.817354"><ele>0.5</ele><time>2022-11-16T12:49:42Z</time><name>PT4491</name></trkpt>
<trkpt lat="51.602865" lon="03.817342"><ele>0.4</ele><time>2022-11-16T12:49:43Z</time><name>PT4492</name></trkpt>
<trkpt lat="51.602870" lon="03.817326"><ele>0.3</ele><time>2022-11-16T12:49:44Z</time><name>PT4493</name></trkpt>
<trkpt lat="51.602874" lon="03.817310"><ele>0.2</ele><time>2022-11-16T12:49:45Z</time><name>PT4494</name></trkpt>
<trkpt lat="51.602879" lon="03.817299"><ele>0.2</ele><time>2022-11-16T12:49:46Z</time><name>PT4495</name></trkpt>
<trkpt lat="51.602884" lon="03.817285"><ele>0.4</ele><time>2022-11-16T12:49:47Z</time><name>PT4496</name></trkpt>
<trkpt lat="51.602890" lon="03.817275"><ele>0.3</ele><time>2022-11-16T12:49:48Z</time><name>PT4497</name></trkpt>
<trkpt lat="51.602897" lon="03.817264"><ele>0.5</ele><time>2022-11-16T12:49:49Z</time><name>PT4498</name></trkpt>
<trkpt lat="51.602900" lon="03.817257"><ele>0.5</ele><time>2022-11-16T12:49:50Z</time><name>PT4499</name></trkpt>
<trkpt lat="51.602905" lon="03.817245"><ele>0.5</ele><time>2022-11-16T12:49:51Z</time><name>PT4500</name></trkpt>
<trkpt lat="51.602911" lon="03.817233"><ele>0.6</ele><time>2022-11-16T12:49:52Z</time><name>PT4501</name></trkpt>
<trkpt lat="51.602917" lon="03.817222"><ele>0.7</ele><time>2022-11-16T12:49:53Z</time><name>PT4502</name></trkpt>
<trkpt lat="51.602921" lon="03.817212"><ele>0.5</ele><time>2022-11-16T12:49:54Z</time><name>PT4503</name></trkpt>
<trkpt lat="51.602926" lon="03.817199"><ele>0.5</ele><time>2022-11-16T12:49:55Z</time><name>PT4504</name></trkpt>
<trkpt lat="51.602929" lon="03.817189"><ele>0.4</ele><time>2022-11-16T12:49:56Z</time><name>PT4505</name></trkpt>
<trkpt lat="51.602933" lon="03.817177"><ele>0.3</ele><time>2022-11-16T12:49:57Z</time><name>PT4506</name></trkpt>
<trkpt lat="51.602937" lon="03.817163"><ele>0.1</ele><time>2022-11-16T12:49:58Z</time><name>PT4507</name></trkpt>
<trkpt lat="51.602942" lon="03.817150"><ele>0</ele><time>2022-11-16T12:49:59Z</time><name>PT4508</name></trkpt>
<trkpt lat="51.602948" lon="03.817138"><ele>0.2</ele><time>2022-11-16T12:50:00Z</time><name>PT4509</name></trkpt>
<trkpt lat="51.602955" lon="03.817128"><ele>0.1</ele><time>2022-11-16T12:50:01Z</time><name>PT4510</name></trkpt>
<trkpt lat="51.602961" lon="03.817115"><ele>0.2</ele><time>2022-11-16T12:50:02Z</time><name>PT4511</name></trkpt>
<trkpt lat="51.602967" lon="03.817103"><ele>0.3</ele><time>2022-11-16T12:50:03Z</time><name>PT4512</name></trkpt>
<trkpt lat="51.602973" lon="03.817093"><ele>0.3</ele><time>2022-11-16T12:50:04Z</time><name>PT4513</name></trkpt>
<trkpt lat="51.602977" lon="03.817082"><ele>0.3</ele><time>2022-11-16T12:50:05Z</time><name>PT4514</name></trkpt>
<trkpt lat="51.602981" lon="03.817068"><ele>0.4</ele><time>2022-11-16T12:50:06Z</time><name>PT4515</name></trkpt>
<trkpt lat="51.602986" lon="03.817056"><ele>0.4</ele><time>2022-11-16T12:50:07Z</time><name>PT4516</name></trkpt>
<trkpt lat="51.602991" lon="03.817047"><ele>0.4</ele><time>2022-11-16T12:50:08Z</time><name>PT4517</name></trkpt>
<trkpt lat="51.602998" lon="03.817039"><ele>0.4</ele><time>2022-11-16T12:50:09Z</time><name>PT4518</name></trkpt>
<trkpt lat="51.603005" lon="03.817033"><ele>0.5</ele><time>2022-11-16T12:50:10Z</time><name>PT4519</name></trkpt>
<trkpt lat="51.603012" lon="03.817025"><ele>0.4</ele><time>2022-11-16T12:50:11Z</time><name>PT4520</name></trkpt>
<trkpt lat="51.603018" lon="03.817015"><ele>0.5</ele><time>2022-11-16T12:50:12Z</time><name>PT4521</name></trkpt>
<trkpt lat="51.603022" lon="03.817002"><ele>0.7</ele><time>2022-11-16T12:50:13Z</time><name>PT4522</name></trkpt>
<trkpt lat="51.603025" lon="03.816988"><ele>0.5</ele><time>2022-11-16T12:50:14Z</time><name>PT4523</name></trkpt>
<trkpt lat="51.603029" lon="03.816973"><ele>0.5</ele><time>2022-11-16T12:50:15Z</time><name>PT4524</name></trkpt>
<trkpt lat="51.603034" lon="03.816960"><ele>0.5</ele><time>2022-11-16T12:50:16Z</time><name>PT4525</name></trkpt>
<trkpt lat="51.603041" lon="03.816948"><ele>0.4</ele><time>2022-11-16T12:50:17Z</time><name>PT4526</name></trkpt>
<trkpt lat="51.603048" lon="03.816937"><ele>0.4</ele><time>2022-11-16T12:50:18Z</time><name>PT4527</name></trkpt>
<trkpt lat="51.603055" lon="03.816924"><ele>0.5</ele><time>2022-11-16T12:50:19Z</time><name>PT4528</name></trkpt>
<trkpt lat="51.603060" lon="03.816913"><ele>0.4</ele><time>2022-11-16T12:50:20Z</time><name>PT4529</name></trkpt>
<trkpt lat="51.603065" lon="03.816902"><ele>0.6</ele><time>2022-11-16T12:50:21Z</time><name>PT4530</name></trkpt>
<trkpt lat="51.603071" lon="03.816891"><ele>0.6</ele><time>2022-11-16T12:50:22Z</time><name>PT4531</name></trkpt>
<trkpt lat="51.603075" lon="03.816886"><ele>0.5</ele><time>2022-11-16T12:50:23Z</time><name>PT4532</name></trkpt>
<trkpt lat="51.603075" lon="03.816885"><ele>0.6</ele><time>2022-11-16T12:50:24Z</time><name>PT4533</name></trkpt>
<trkpt lat="51.603076" lon="03.816884"><ele>0.6</ele><time>2022-11-16T12:50:25Z</time><name>PT4534</name></trkpt>
<trkpt lat="51.603078" lon="03.816884"><ele>0.8</ele><time>2022-11-16T12:50:26Z</time><name>PT4535</name></trkpt>
<trkpt lat="51.603076" lon="03.816880"><ele>0.9</ele><time>2022-11-16T12:50:28Z</time><name>PT4536</name></trkpt>
<trkpt lat="51.603082" lon="03.816867"><ele>0.9</ele><time>2022-11-16T12:50:29Z</time><name>PT4537</name></trkpt>
<trkpt lat="51.603083" lon="03.816856"><ele>0.8</ele><time>2022-11-16T12:50:30Z</time><name>PT4538</name></trkpt>
<trkpt lat="51.603084" lon="03.816848"><ele>0.8</ele><time>2022-11-16T12:50:31Z</time><name>PT4539</name></trkpt>
<trkpt lat="51.603089" lon="03.816838"><ele>0.8</ele><time>2022-11-16T12:50:32Z</time><name>PT4540</name></trkpt>
<trkpt lat="51.603096" lon="03.816828"><ele>0.9</ele><time>2022-11-16T12:50:33Z</time><name>PT4541</name></trkpt>
<trkpt lat="51.603102" lon="03.816819"><ele>0.9</ele><time>2022-11-16T12:50:34Z</time><name>PT4542</name></trkpt>
<trkpt lat="51.603108" lon="03.816812"><ele>1</ele><time>2022-11-16T12:50:35Z</time><name>PT4543</name></trkpt>
<trkpt lat="51.603115" lon="03.816804"><ele>1.1</ele><time>2022-11-16T12:50:36Z</time><name>PT4544</name></trkpt>
<trkpt lat="51.603122" lon="03.816794"><ele>0.9</ele><time>2022-11-16T12:50:37Z</time><name>PT4545</name></trkpt>
<trkpt lat="51.603126" lon="03.816788"><ele>0.9</ele><time>2022-11-16T12:50:38Z</time><name>PT4546</name></trkpt>
<trkpt lat="51.603128" lon="03.816787"><ele>1</ele><time>2022-11-16T12:50:39Z</time><name>PT4547</name></trkpt>
<trkpt lat="51.603132" lon="03.816784"><ele>1.1</ele><time>2022-11-16T12:50:40Z</time><name>PT4548</name></trkpt>
<trkpt lat="51.603139" lon="03.816778"><ele>1</ele><time>2022-11-16T12:50:41Z</time><name>PT4549</name></trkpt>
<trkpt lat="51.603144" lon="03.816770"><ele>1.2</ele><time>2022-11-16T12:50:42Z</time><name>PT4550</name></trkpt>
<trkpt lat="51.603150" lon="03.816762"><ele>1.1</ele><time>2022-11-16T12:50:43Z</time><name>PT4551</name></trkpt>
<trkpt lat="51.603154" lon="03.816752"><ele>1.1</ele><time>2022-11-16T12:50:44Z</time><name>PT4552</name></trkpt>
<trkpt lat="51.603157" lon="03.816743"><ele>1</ele><time>2022-11-16T12:50:45Z</time><name>PT4553</name></trkpt>
<trkpt lat="51.603162" lon="03.816735"><ele>1</ele><time>2022-11-16T12:50:46Z</time><name>PT4554</name></trkpt>
<trkpt lat="51.603168" lon="03.816728"><ele>0.9</ele><time>2022-11-16T12:50:47Z</time><name>PT4555</name></trkpt>
<trkpt lat="51.603175" lon="03.816720"><ele>0.9</ele><time>2022-11-16T12:50:48Z</time><name>PT4556</name></trkpt>
<trkpt lat="51.603180" lon="03.816711"><ele>0.9</ele><time>2022-11-16T12:50:49Z</time><name>PT4557</name></trkpt>
<trkpt lat="51.603185" lon="03.816703"><ele>0.9</ele><time>2022-11-16T12:50:50Z</time><name>PT4558</name></trkpt>
<trkpt lat="51.603193" lon="03.816695"><ele>0.9</ele><time>2022-11-16T12:50:51Z</time><name>PT4559</name></trkpt>
<trkpt lat="51.603199" lon="03.816687"><ele>0.9</ele><time>2022-11-16T12:50:52Z</time><name>PT4560</name></trkpt>
<trkpt lat="51.603203" lon="03.816677"><ele>0.9</ele><time>2022-11-16T12:50:53Z</time><name>PT4561</name></trkpt>
<trkpt lat="51.603208" lon="03.816668"><ele>0.9</ele><time>2022-11-16T12:50:54Z</time><name>PT4562</name></trkpt>
<trkpt lat="51.603214" lon="03.816662"><ele>0.9</ele><time>2022-11-16T12:50:55Z</time><name>PT4563</name></trkpt>
<trkpt lat="51.603216" lon="03.816658"><ele>1.2</ele><time>2022-11-16T12:50:56Z</time><name>PT4564</name></trkpt>
<trkpt lat="51.603217" lon="03.816658"><ele>1.3</ele><time>2022-11-16T12:50:57Z</time><name>PT4565</name></trkpt>
<trkpt lat="51.603218" lon="03.816658"><ele>1.4</ele><time>2022-11-16T12:50:58Z</time><name>PT4566</name></trkpt>
<trkpt lat="51.603221" lon="03.816656"><ele>1.4</ele><time>2022-11-16T12:51:11Z</time><name>PT4567</name></trkpt>
<trkpt lat="51.603229" lon="03.816643"><ele>1.5</ele><time>2022-11-16T12:51:12Z</time><name>PT4568</name></trkpt>
<trkpt lat="51.603235" lon="03.816629"><ele>1.4</ele><time>2022-11-16T12:51:13Z</time><name>PT4569</name></trkpt>
<trkpt lat="51.603241" lon="03.816616"><ele>1.4</ele><time>2022-11-16T12:51:14Z</time><name>PT4570</name></trkpt>
<trkpt lat="51.603248" lon="03.816606"><ele>1.5</ele><time>2022-11-16T12:51:15Z</time><name>PT4571</name></trkpt>
<trkpt lat="51.603254" lon="03.816595"><ele>1.7</ele><time>2022-11-16T12:51:16Z</time><name>PT4572</name></trkpt>
<trkpt lat="51.603261" lon="03.816585"><ele>2</ele><time>2022-11-16T12:51:17Z</time><name>PT4573</name></trkpt>
<trkpt lat="51.603269" lon="03.816575"><ele>2.1</ele><time>2022-11-16T12:51:18Z</time><name>PT4574</name></trkpt>
<trkpt lat="51.603275" lon="03.816566"><ele>2.4</ele><time>2022-11-16T12:51:19Z</time><name>PT4575</name></trkpt>
<trkpt lat="51.603280" lon="03.816557"><ele>2.4</ele><time>2022-11-16T12:51:20Z</time><name>PT4576</name></trkpt>
<trkpt lat="51.603285" lon="03.816549"><ele>2.5</ele><time>2022-11-16T12:51:21Z</time><name>PT4577</name></trkpt>
<trkpt lat="51.603292" lon="03.816543"><ele>2.5</ele><time>2022-11-16T12:51:22Z</time><name>PT4578</name></trkpt>
<trkpt lat="51.603297" lon="03.816537"><ele>2.5</ele><time>2022-11-16T12:51:23Z</time><name>PT4579</name></trkpt>
<trkpt lat="51.603300" lon="03.816528"><ele>2.5</ele><time>2022-11-16T12:51:24Z</time><name>PT4580</name></trkpt>
<trkpt lat="51.603305" lon="03.816521"><ele>2.5</ele><time>2022-11-16T12:51:25Z</time><name>PT4581</name></trkpt>
<trkpt lat="51.603309" lon="03.816512"><ele>2.5</ele><time>2022-11-16T12:51:26Z</time><name>PT4582</name></trkpt>
<trkpt lat="51.603315" lon="03.816502"><ele>2.5</ele><time>2022-11-16T12:51:27Z</time><name>PT4583</name></trkpt>
<trkpt lat="51.603321" lon="03.816493"><ele>2.5</ele><time>2022-11-16T12:51:28Z</time><name>PT4584</name></trkpt>
<trkpt lat="51.603329" lon="03.816483"><ele>2.6</ele><time>2022-11-16T12:51:29Z</time><name>PT4585</name></trkpt>
<trkpt lat="51.603335" lon="03.816472"><ele>2.8</ele><time>2022-11-16T12:51:30Z</time><name>PT4586</name></trkpt>
<trkpt lat="51.603339" lon="03.816459"><ele>2.8</ele><time>2022-11-16T12:51:31Z</time><name>PT4587</name></trkpt>
<trkpt lat="51.603343" lon="03.816447"><ele>2.7</ele><time>2022-11-16T12:51:32Z</time><name>PT4588</name></trkpt>
<trkpt lat="51.603349" lon="03.816435"><ele>2.7</ele><time>2022-11-16T12:51:33Z</time><name>PT4589</name></trkpt>
<trkpt lat="51.603355" lon="03.816424"><ele>2.6</ele><time>2022-11-16T12:51:34Z</time><name>PT4590</name></trkpt>
<trkpt lat="51.603361" lon="03.816415"><ele>2.5</ele><time>2022-11-16T12:51:35Z</time><name>PT4591</name></trkpt>
<trkpt lat="51.603366" lon="03.816405"><ele>2.5</ele><time>2022-11-16T12:51:36Z</time><name>PT4592</name></trkpt>
<trkpt lat="51.603373" lon="03.816395"><ele>2.4</ele><time>2022-11-16T12:51:37Z</time><name>PT4593</name></trkpt>
<trkpt lat="51.603381" lon="03.816385"><ele>2.5</ele><time>2022-11-16T12:51:38Z</time><name>PT4594</name></trkpt>
<trkpt lat="51.603387" lon="03.816375"><ele>2.6</ele><time>2022-11-16T12:51:39Z</time><name>PT4595</name></trkpt>
<trkpt lat="51.603394" lon="03.816365"><ele>2.7</ele><time>2022-11-16T12:51:40Z</time><name>PT4596</name></trkpt>
<trkpt lat="51.603400" lon="03.816355"><ele>2.9</ele><time>2022-11-16T12:51:41Z</time><name>PT4597</name></trkpt>
<trkpt lat="51.603406" lon="03.816343"><ele>3</ele><time>2022-11-16T12:51:42Z</time><name>PT4598</name></trkpt>
<trkpt lat="51.603413" lon="03.816332"><ele>3</ele><time>2022-11-16T12:51:43Z</time><name>PT4599</name></trkpt>
<trkpt lat="51.603420" lon="03.816323"><ele>3</ele><time>2022-11-16T12:51:44Z</time><name>PT4600</name></trkpt>
<trkpt lat="51.603425" lon="03.816313"><ele>3</ele><time>2022-11-16T12:51:45Z</time><name>PT4601</name></trkpt>
<trkpt lat="51.603430" lon="03.816304"><ele>3.1</ele><time>2022-11-16T12:51:46Z</time><name>PT4602</name></trkpt>
<trkpt lat="51.603437" lon="03.816293"><ele>3.1</ele><time>2022-11-16T12:51:47Z</time><name>PT4603</name></trkpt>
<trkpt lat="51.603445" lon="03.816283"><ele>3.5</ele><time>2022-11-16T12:51:48Z</time><name>PT4604</name></trkpt>
<trkpt lat="51.603453" lon="03.816274"><ele>3.5</ele><time>2022-11-16T12:51:49Z</time><name>PT4605</name></trkpt>
<trkpt lat="51.603459" lon="03.816263"><ele>3.6</ele><time>2022-11-16T12:51:50Z</time><name>PT4606</name></trkpt>
<trkpt lat="51.603465" lon="03.816252"><ele>3.6</ele><time>2022-11-16T12:51:51Z</time><name>PT4607</name></trkpt>
<trkpt lat="51.603472" lon="03.816241"><ele>3.7</ele><time>2022-11-16T12:51:52Z</time><name>PT4608</name></trkpt>
<trkpt lat="51.603479" lon="03.816230"><ele>3.8</ele><time>2022-11-16T12:51:53Z</time><name>PT4609</name></trkpt>
<trkpt lat="51.603487" lon="03.816219"><ele>3.8</ele><time>2022-11-16T12:51:54Z</time><name>PT4610</name></trkpt>
<trkpt lat="51.603494" lon="03.816210"><ele>4</ele><time>2022-11-16T12:51:55Z</time><name>PT4611</name></trkpt>
<trkpt lat="51.603500" lon="03.816200"><ele>4</ele><time>2022-11-16T12:51:56Z</time><name>PT4612</name></trkpt>
<trkpt lat="51.603505" lon="03.816188"><ele>3.9</ele><time>2022-11-16T12:51:57Z</time><name>PT4613</name></trkpt>
<trkpt lat="51.603511" lon="03.816178"><ele>3.9</ele><time>2022-11-16T12:51:58Z</time><name>PT4614</name></trkpt>
<trkpt lat="51.603520" lon="03.816171"><ele>3.9</ele><time>2022-11-16T12:51:59Z</time><name>PT4615</name></trkpt>
<trkpt lat="51.603527" lon="03.816162"><ele>4.1</ele><time>2022-11-16T12:52:00Z</time><name>PT4616</name></trkpt>
<trkpt lat="51.603533" lon="03.816150"><ele>4.4</ele><time>2022-11-16T12:52:01Z</time><name>PT4617</name></trkpt>
<trkpt lat="51.603541" lon="03.816138"><ele>4.6</ele><time>2022-11-16T12:52:02Z</time><name>PT4618</name></trkpt>
<trkpt lat="51.603548" lon="03.816125"><ele>4.6</ele><time>2022-11-16T12:52:03Z</time><name>PT4619</name></trkpt>
<trkpt lat="51.603554" lon="03.816112"><ele>4.6</ele><time>2022-11-16T12:52:04Z</time><name>PT4620</name></trkpt>
<trkpt lat="51.603562" lon="03.816097"><ele>4.5</ele><time>2022-11-16T12:52:05Z</time><name>PT4621</name></trkpt>
<trkpt lat="51.603570" lon="03.816086"><ele>4.4</ele><time>2022-11-16T12:52:06Z</time><name>PT4622</name></trkpt>
<trkpt lat="51.603578" lon="03.816074"><ele>4.6</ele><time>2022-11-16T12:52:07Z</time><name>PT4623</name></trkpt>
<trkpt lat="51.603585" lon="03.816065"><ele>4.6</ele><time>2022-11-16T12:52:08Z</time><name>PT4624</name></trkpt>
<trkpt lat="51.603592" lon="03.816057"><ele>4.7</ele><time>2022-11-16T12:52:09Z</time><name>PT4625</name></trkpt>
<trkpt lat="51.603598" lon="03.816045"><ele>4.7</ele><time>2022-11-16T12:52:10Z</time><name>PT4626</name></trkpt>
<trkpt lat="51.603605" lon="03.816032"><ele>4.8</ele><time>2022-11-16T12:52:11Z</time><name>PT4627</name></trkpt>
<trkpt lat="51.603612" lon="03.816017"><ele>4.8</ele><time>2022-11-16T12:52:12Z</time><name>PT4628</name></trkpt>
<trkpt lat="51.603619" lon="03.816004"><ele>4.9</ele><time>2022-11-16T12:52:13Z</time><name>PT4629</name></trkpt>
<trkpt lat="51.603627" lon="03.815992"><ele>5</ele><time>2022-11-16T12:52:14Z</time><name>PT4630</name></trkpt>
<trkpt lat="51.603635" lon="03.815980"><ele>5.1</ele><time>2022-11-16T12:52:15Z</time><name>PT4631</name></trkpt>
<trkpt lat="51.603643" lon="03.815969"><ele>5</ele><time>2022-11-16T12:52:16Z</time><name>PT4632</name></trkpt>
<trkpt lat="51.603650" lon="03.815957"><ele>5</ele><time>2022-11-16T12:52:17Z</time><name>PT4633</name></trkpt>
<trkpt lat="51.603656" lon="03.815946"><ele>5.1</ele><time>2022-11-16T12:52:18Z</time><name>PT4634</name></trkpt>
<trkpt lat="51.603663" lon="03.815936"><ele>5</ele><time>2022-11-16T12:52:19Z</time><name>PT4635</name></trkpt>
<trkpt lat="51.603668" lon="03.815923"><ele>5.1</ele><time>2022-11-16T12:52:20Z</time><name>PT4636</name></trkpt>
<trkpt lat="51.603673" lon="03.815910"><ele>5</ele><time>2022-11-16T12:52:21Z</time><name>PT4637</name></trkpt>
<trkpt lat="51.603680" lon="03.815899"><ele>5.1</ele><time>2022-11-16T12:52:22Z</time><name>PT4638</name></trkpt>
<trkpt lat="51.603686" lon="03.815887"><ele>5.1</ele><time>2022-11-16T12:52:23Z</time><name>PT4639</name></trkpt>
<trkpt lat="51.603692" lon="03.815873"><ele>5.1</ele><time>2022-11-16T12:52:24Z</time><name>PT4640</name></trkpt>
<trkpt lat="51.603697" lon="03.815859"><ele>5.1</ele><time>2022-11-16T12:52:25Z</time><name>PT4641</name></trkpt>
<trkpt lat="51.603703" lon="03.815846"><ele>5.3</ele><time>2022-11-16T12:52:26Z</time><name>PT4642</name></trkpt>
<trkpt lat="51.603709" lon="03.815831"><ele>5.4</ele><time>2022-11-16T12:52:27Z</time><name>PT4643</name></trkpt>
<trkpt lat="51.603715" lon="03.815815"><ele>5.2</ele><time>2022-11-16T12:52:28Z</time><name>PT4644</name></trkpt>
<trkpt lat="51.603720" lon="03.815801"><ele>5.1</ele><time>2022-11-16T12:52:29Z</time><name>PT4645</name></trkpt>
<trkpt lat="51.603725" lon="03.815787"><ele>5.1</ele><time>2022-11-16T12:52:30Z</time><name>PT4646</name></trkpt>
<trkpt lat="51.603731" lon="03.815775"><ele>4.9</ele><time>2022-11-16T12:52:31Z</time><name>PT4647</name></trkpt>
<trkpt lat="51.603737" lon="03.815763"><ele>4.6</ele><time>2022-11-16T12:52:32Z</time><name>PT4648</name></trkpt>
<trkpt lat="51.603745" lon="03.815749"><ele>4.5</ele><time>2022-11-16T12:52:33Z</time><name>PT4649</name></trkpt>
<trkpt lat="51.603752" lon="03.815734"><ele>4.4</ele><time>2022-11-16T12:52:34Z</time><name>PT4650</name></trkpt>
<trkpt lat="51.603759" lon="03.815717"><ele>4.2</ele><time>2022-11-16T12:52:35Z</time><name>PT4651</name></trkpt>
<trkpt lat="51.603766" lon="03.815698"><ele>4.1</ele><time>2022-11-16T12:52:36Z</time><name>PT4652</name></trkpt>
<trkpt lat="51.603771" lon="03.815679"><ele>4.1</ele><time>2022-11-16T12:52:37Z</time><name>PT4653</name></trkpt>
<trkpt lat="51.603775" lon="03.815660"><ele>4.1</ele><time>2022-11-16T12:52:38Z</time><name>PT4654</name></trkpt>
<trkpt lat="51.603779" lon="03.815642"><ele>4.1</ele><time>2022-11-16T12:52:39Z</time><name>PT4655</name></trkpt>
<trkpt lat="51.603784" lon="03.815625"><ele>4.1</ele><time>2022-11-16T12:52:40Z</time><name>PT4656</name></trkpt>
<trkpt lat="51.603791" lon="03.815608"><ele>4.1</ele><time>2022-11-16T12:52:41Z</time><name>PT4657</name></trkpt>
<trkpt lat="51.603797" lon="03.815592"><ele>4.1</ele><time>2022-11-16T12:52:42Z</time><name>PT4658</name></trkpt>
<trkpt lat="51.603802" lon="03.815579"><ele>4</ele><time>2022-11-16T12:52:43Z</time><name>PT4659</name></trkpt>
<trkpt lat="51.603807" lon="03.815566"><ele>3.8</ele><time>2022-11-16T12:52:44Z</time><name>PT4660</name></trkpt>
<trkpt lat="51.603811" lon="03.815552"><ele>3.5</ele><time>2022-11-16T12:52:45Z</time><name>PT4661</name></trkpt>
<trkpt lat="51.603816" lon="03.815539"><ele>3.5</ele><time>2022-11-16T12:52:46Z</time><name>PT4662</name></trkpt>
<trkpt lat="51.603822" lon="03.815524"><ele>3.4</ele><time>2022-11-16T12:52:47Z</time><name>PT4663</name></trkpt>
<trkpt lat="51.603827" lon="03.815510"><ele>3.4</ele><time>2022-11-16T12:52:48Z</time><name>PT4664</name></trkpt>
<trkpt lat="51.603831" lon="03.815494"><ele>3.4</ele><time>2022-11-16T12:52:49Z</time><name>PT4665</name></trkpt>
<trkpt lat="51.603835" lon="03.815478"><ele>3.3</ele><time>2022-11-16T12:52:50Z</time><name>PT4666</name></trkpt>
<trkpt lat="51.603841" lon="03.815464"><ele>3.3</ele><time>2022-11-16T12:52:51Z</time><name>PT4667</name></trkpt>
<trkpt lat="51.603846" lon="03.815450"><ele>3.3</ele><time>2022-11-16T12:52:52Z</time><name>PT4668</name></trkpt>
<trkpt lat="51.603849" lon="03.815437"><ele>3.2</ele><time>2022-11-16T12:52:53Z</time><name>PT4669</name></trkpt>
<trkpt lat="51.603855" lon="03.815422"><ele>3.1</ele><time>2022-11-16T12:52:54Z</time><name>PT4670</name></trkpt>
<trkpt lat="51.603862" lon="03.815404"><ele>3.1</ele><time>2022-11-16T12:52:55Z</time><name>PT4671</name></trkpt>
<trkpt lat="51.603867" lon="03.815388"><ele>3</ele><time>2022-11-16T12:52:56Z</time><name>PT4672</name></trkpt>
<trkpt lat="51.603872" lon="03.815372"><ele>2.9</ele><time>2022-11-16T12:52:57Z</time><name>PT4673</name></trkpt>
<trkpt lat="51.603875" lon="03.815357"><ele>2.7</ele><time>2022-11-16T12:52:58Z</time><name>PT4674</name></trkpt>
<trkpt lat="51.603879" lon="03.815343"><ele>2.6</ele><time>2022-11-16T12:52:59Z</time><name>PT4675</name></trkpt>
<trkpt lat="51.603884" lon="03.815329"><ele>2.3</ele><time>2022-11-16T12:53:00Z</time><name>PT4676</name></trkpt>
<trkpt lat="51.603889" lon="03.815315"><ele>2.3</ele><time>2022-11-16T12:53:01Z</time><name>PT4677</name></trkpt>
<trkpt lat="51.603895" lon="03.815302"><ele>2.4</ele><time>2022-11-16T12:53:02Z</time><name>PT4678</name></trkpt>
<trkpt lat="51.603901" lon="03.815289"><ele>2.5</ele><time>2022-11-16T12:53:03Z</time><name>PT4679</name></trkpt>
<trkpt lat="51.603908" lon="03.815274"><ele>2.6</ele><time>2022-11-16T12:53:04Z</time><name>PT4680</name></trkpt>
<trkpt lat="51.603914" lon="03.815258"><ele>2.8</ele><time>2022-11-16T12:53:05Z</time><name>PT4681</name></trkpt>
<trkpt lat="51.603920" lon="03.815242"><ele>2.5</ele><time>2022-11-16T12:53:06Z</time><name>PT4682</name></trkpt>
<trkpt lat="51.603926" lon="03.815228"><ele>2.5</ele><time>2022-11-16T12:53:07Z</time><name>PT4683</name></trkpt>
<trkpt lat="51.603932" lon="03.815214"><ele>2.3</ele><time>2022-11-16T12:53:08Z</time><name>PT4684</name></trkpt>
<trkpt lat="51.603938" lon="03.815201"><ele>1.9</ele><time>2022-11-16T12:53:09Z</time><name>PT4685</name></trkpt>
<trkpt lat="51.603944" lon="03.815188"><ele>1.8</ele><time>2022-11-16T12:53:10Z</time><name>PT4686</name></trkpt>
<trkpt lat="51.603950" lon="03.815173"><ele>1.7</ele><time>2022-11-16T12:53:11Z</time><name>PT4687</name></trkpt>
<trkpt lat="51.603956" lon="03.815159"><ele>1.5</ele><time>2022-11-16T12:53:12Z</time><name>PT4688</name></trkpt>
<trkpt lat="51.603961" lon="03.815144"><ele>1.5</ele><time>2022-11-16T12:53:13Z</time><name>PT4689</name></trkpt>
<trkpt lat="51.603966" lon="03.815127"><ele>1.8</ele><time>2022-11-16T12:53:14Z</time><name>PT4690</name></trkpt>
<trkpt lat="51.603971" lon="03.815112"><ele>1.7</ele><time>2022-11-16T12:53:15Z</time><name>PT4691</name></trkpt>
<trkpt lat="51.603976" lon="03.815096"><ele>1.6</ele><time>2022-11-16T12:53:16Z</time><name>PT4692</name></trkpt>
<trkpt lat="51.603981" lon="03.815080"><ele>1.5</ele><time>2022-11-16T12:53:17Z</time><name>PT4693</name></trkpt>
<trkpt lat="51.603986" lon="03.815064"><ele>1.4</ele><time>2022-11-16T12:53:18Z</time><name>PT4694</name></trkpt>
<trkpt lat="51.603990" lon="03.815050"><ele>1.3</ele><time>2022-11-16T12:53:19Z</time><name>PT4695</name></trkpt>
<trkpt lat="51.603996" lon="03.815036"><ele>1.3</ele><time>2022-11-16T12:53:20Z</time><name>PT4696</name></trkpt>
<trkpt lat="51.604002" lon="03.815021"><ele>1.5</ele><time>2022-11-16T12:53:21Z</time><name>PT4697</name></trkpt>
<trkpt lat="51.604009" lon="03.815007"><ele>1.4</ele><time>2022-11-16T12:53:22Z</time><name>PT4698</name></trkpt>
<trkpt lat="51.604016" lon="03.814994"><ele>1.4</ele><time>2022-11-16T12:53:23Z</time><name>PT4699</name></trkpt>
<trkpt lat="51.604021" lon="03.814980"><ele>1.3</ele><time>2022-11-16T12:53:24Z</time><name>PT4700</name></trkpt>
<trkpt lat="51.604026" lon="03.814968"><ele>1.1</ele><time>2022-11-16T12:53:25Z</time><name>PT4701</name></trkpt>
<trkpt lat="51.604033" lon="03.814954"><ele>0.9</ele><time>2022-11-16T12:53:26Z</time><name>PT4702</name></trkpt>
<trkpt lat="51.604039" lon="03.814941"><ele>0.9</ele><time>2022-11-16T12:53:27Z</time><name>PT4703</name></trkpt>
<trkpt lat="51.604045" lon="03.814927"><ele>0.9</ele><time>2022-11-16T12:53:28Z</time><name>PT4704</name></trkpt>
<trkpt lat="51.604051" lon="03.814911"><ele>0.9</ele><time>2022-11-16T12:53:29Z</time><name>PT4705</name></trkpt>
<trkpt lat="51.604056" lon="03.814898"><ele>0.9</ele><time>2022-11-16T12:53:30Z</time><name>PT4706</name></trkpt>
<trkpt lat="51.604061" lon="03.814886"><ele>0.7</ele><time>2022-11-16T12:53:31Z</time><name>PT4707</name></trkpt>
<trkpt lat="51.604068" lon="03.814873"><ele>0.8</ele><time>2022-11-16T12:53:32Z</time><name>PT4708</name></trkpt>
<trkpt lat="51.604076" lon="03.814860"><ele>0.5</ele><time>2022-11-16T12:53:33Z</time><name>PT4709</name></trkpt>
<trkpt lat="51.604084" lon="03.814847"><ele>0.5</ele><time>2022-11-16T12:53:34Z</time><name>PT4710</name></trkpt>
<trkpt lat="51.604090" lon="03.814836"><ele>0.4</ele><time>2022-11-16T12:53:35Z</time><name>PT4711</name></trkpt>
<trkpt lat="51.604096" lon="03.814823"><ele>0.5</ele><time>2022-11-16T12:53:36Z</time><name>PT4712</name></trkpt>
<trkpt lat="51.604102" lon="03.814810"><ele>0.4</ele><time>2022-11-16T12:53:37Z</time><name>PT4713</name></trkpt>
<trkpt lat="51.604109" lon="03.814799"><ele>0.4</ele><time>2022-11-16T12:53:38Z</time><name>PT4714</name></trkpt>
<trkpt lat="51.604115" lon="03.814789"><ele>0.6</ele><time>2022-11-16T12:53:39Z</time><name>PT4715</name></trkpt>
<trkpt lat="51.604120" lon="03.814778"><ele>0.6</ele><time>2022-11-16T12:53:40Z</time><name>PT4716</name></trkpt>
<trkpt lat="51.604126" lon="03.814765"><ele>0.6</ele><time>2022-11-16T12:53:41Z</time><name>PT4717</name></trkpt>
<trkpt lat="51.604130" lon="03.814750"><ele>0.7</ele><time>2022-11-16T12:53:42Z</time><name>PT4718</name></trkpt>
<trkpt lat="51.604134" lon="03.814735"><ele>0.5</ele><time>2022-11-16T12:53:43Z</time><name>PT4719</name></trkpt>
<trkpt lat="51.604139" lon="03.814722"><ele>0.5</ele><time>2022-11-16T12:53:44Z</time><name>PT4720</name></trkpt>
<trkpt lat="51.604145" lon="03.814713"><ele>0.3</ele><time>2022-11-16T12:53:45Z</time><name>PT4721</name></trkpt>
<trkpt lat="51.604150" lon="03.814703"><ele>0.4</ele><time>2022-11-16T12:53:46Z</time><name>PT4722</name></trkpt>
<trkpt lat="51.604154" lon="03.814691"><ele>0.3</ele><time>2022-11-16T12:53:47Z</time><name>PT4723</name></trkpt>
<trkpt lat="51.604159" lon="03.814678"><ele>0.3</ele><time>2022-11-16T12:53:48Z</time><name>PT4724</name></trkpt>
<trkpt lat="51.604165" lon="03.814666"><ele>0.3</ele><time>2022-11-16T12:53:49Z</time><name>PT4725</name></trkpt>
<trkpt lat="51.604169" lon="03.814655"><ele>0.4</ele><time>2022-11-16T12:53:50Z</time><name>PT4726</name></trkpt>
<trkpt lat="51.604173" lon="03.814643"><ele>0.4</ele><time>2022-11-16T12:53:51Z</time><name>PT4727</name></trkpt>
<trkpt lat="51.604179" lon="03.814630"><ele>0.4</ele><time>2022-11-16T12:53:52Z</time><name>PT4728</name></trkpt>
<trkpt lat="51.604184" lon="03.814621"><ele>0.4</ele><time>2022-11-16T12:53:53Z</time><name>PT4729</name></trkpt>
<trkpt lat="51.604189" lon="03.814611"><ele>0.4</ele><time>2022-11-16T12:53:54Z</time><name>PT4730</name></trkpt>
<trkpt lat="51.604192" lon="03.814601"><ele>0.4</ele><time>2022-11-16T12:53:55Z</time><name>PT4731</name></trkpt>
<trkpt lat="51.604197" lon="03.814592"><ele>0.2</ele><time>2022-11-16T12:53:56Z</time><name>PT4732</name></trkpt>
<trkpt lat="51.604203" lon="03.814583"><ele>0.2</ele><time>2022-11-16T12:53:57Z</time><name>PT4733</name></trkpt>
<trkpt lat="51.604206" lon="03.814576"><ele>0.2</ele><time>2022-11-16T12:53:58Z</time><name>PT4734</name></trkpt>
<trkpt lat="51.604209" lon="03.814570"><ele>0.2</ele><time>2022-11-16T12:53:59Z</time><name>PT4735</name></trkpt>
<trkpt lat="51.604209" lon="03.814569"><ele>0.4</ele><time>2022-11-16T12:54:00Z</time><name>PT4736</name></trkpt>
<trkpt lat="51.604210" lon="03.814567"><ele>0.4</ele><time>2022-11-16T12:54:01Z</time><name>PT4737</name></trkpt>
<trkpt lat="51.604209" lon="03.814566"><ele>0.4</ele><time>2022-11-16T12:54:02Z</time><name>PT4738</name></trkpt>
<trkpt lat="51.604207" lon="03.814567"><ele>0.5</ele><time>2022-11-16T12:54:05Z</time><name>PT4739</name></trkpt>
<trkpt lat="51.604205" lon="03.814563"><ele>0.4</ele><time>2022-11-16T12:54:06Z</time><name>PT4740</name></trkpt>
<trkpt lat="51.604206" lon="03.814554"><ele>0.4</ele><time>2022-11-16T12:54:07Z</time><name>PT4741</name></trkpt>
<trkpt lat="51.604206" lon="03.814551"><ele>0.3</ele><time>2022-11-16T12:54:08Z</time><name>PT4742</name></trkpt>
<trkpt lat="51.604210" lon="03.814551"><ele>0.2</ele><time>2022-11-16T12:54:09Z</time><name>PT4743</name></trkpt>
<trkpt lat="51.604205" lon="03.814558"><ele>0.2</ele><time>2022-11-16T12:54:10Z</time><name>PT4744</name></trkpt>
<trkpt lat="51.604210" lon="03.814558"><ele>0.2</ele><time>2022-11-16T12:54:11Z</time><name>PT4745</name></trkpt>
<trkpt lat="51.604211" lon="03.814560"><ele>0.3</ele><time>2022-11-16T12:54:12Z</time><name>PT4746</name></trkpt>
<trkpt lat="51.604210" lon="03.814560"><ele>0.3</ele><time>2022-11-16T12:54:13Z</time><name>PT4747</name></trkpt>
<trkpt lat="51.604212" lon="03.814557"><ele>0.4</ele><time>2022-11-16T12:54:14Z</time><name>PT4748</name></trkpt>
<trkpt lat="51.604212" lon="03.814557"><ele>0.4</ele><time>2022-11-16T12:54:15Z</time><name>PT4749</name></trkpt>
<trkpt lat="51.604215" lon="03.814551"><ele>0.5</ele><time>2022-11-16T12:54:22Z</time><name>PT4750</name></trkpt>
<trkpt lat="51.604224" lon="03.814540"><ele>0.7</ele><time>2022-11-16T12:54:23Z</time><name>PT4751</name></trkpt>
<trkpt lat="51.604232" lon="03.814528"><ele>0.8</ele><time>2022-11-16T12:54:24Z</time><name>PT4752</name></trkpt>
<trkpt lat="51.604239" lon="03.814515"><ele>0.7</ele><time>2022-11-16T12:54:25Z</time><name>PT4753</name></trkpt>
<trkpt lat="51.604246" lon="03.814504"><ele>0.6</ele><time>2022-11-16T12:54:26Z</time><name>PT4754</name></trkpt>
<trkpt lat="51.604254" lon="03.814492"><ele>0.7</ele><time>2022-11-16T12:54:27Z</time><name>PT4755</name></trkpt>
<trkpt lat="51.604262" lon="03.814482"><ele>0.5</ele><time>2022-11-16T12:54:28Z</time><name>PT4756</name></trkpt>
<trkpt lat="51.604267" lon="03.814470"><ele>0.4</ele><time>2022-11-16T12:54:29Z</time><name>PT4757</name></trkpt>
<trkpt lat="51.604273" lon="03.814454"><ele>0.5</ele><time>2022-11-16T12:54:30Z</time><name>PT4758</name></trkpt>
<trkpt lat="51.604279" lon="03.814438"><ele>0.4</ele><time>2022-11-16T12:54:31Z</time><name>PT4759</name></trkpt>
<trkpt lat="51.604284" lon="03.814425"><ele>0.4</ele><time>2022-11-16T12:54:32Z</time><name>PT4760</name></trkpt>
<trkpt lat="51.604289" lon="03.814414"><ele>0.4</ele><time>2022-11-16T12:54:33Z</time><name>PT4761</name></trkpt>
<trkpt lat="51.604292" lon="03.814400"><ele>0.4</ele><time>2022-11-16T12:54:34Z</time><name>PT4762</name></trkpt>
<trkpt lat="51.604294" lon="03.814386"><ele>0.4</ele><time>2022-11-16T12:54:35Z</time><name>PT4763</name></trkpt>
<trkpt lat="51.604292" lon="03.814372"><ele>0.4</ele><time>2022-11-16T12:54:36Z</time><name>PT4764</name></trkpt>
<trkpt lat="51.604292" lon="03.814357"><ele>0.4</ele><time>2022-11-16T12:54:37Z</time><name>PT4765</name></trkpt>
<trkpt lat="51.604293" lon="03.814340"><ele>0.4</ele><time>2022-11-16T12:54:38Z</time><name>PT4766</name></trkpt>
<trkpt lat="51.604295" lon="03.814324"><ele>0.4</ele><time>2022-11-16T12:54:39Z</time><name>PT4767</name></trkpt>
<trkpt lat="51.604295" lon="03.814309"><ele>0.4</ele><time>2022-11-16T12:54:40Z</time><name>PT4768</name></trkpt>
<trkpt lat="51.604295" lon="03.814297"><ele>0.4</ele><time>2022-11-16T12:54:41Z</time><name>PT4769</name></trkpt>
<trkpt lat="51.604295" lon="03.814286"><ele>0.4</ele><time>2022-11-16T12:54:42Z</time><name>PT4770</name></trkpt>
<trkpt lat="51.604297" lon="03.814274"><ele>0.5</ele><time>2022-11-16T12:54:43Z</time><name>PT4771</name></trkpt>
<trkpt lat="51.604297" lon="03.814269"><ele>0.5</ele><time>2022-11-16T12:54:44Z</time><name>PT4772</name></trkpt>
<trkpt lat="51.604297" lon="03.814268"><ele>0.4</ele><time>2022-11-16T12:54:45Z</time><name>PT4773</name></trkpt>
<trkpt lat="51.604298" lon="03.814266"><ele>0.4</ele><time>2022-11-16T12:54:46Z</time><name>PT4774</name></trkpt>
<trkpt lat="51.604298" lon="03.814268"><ele>0.4</ele><time>2022-11-16T12:55:39Z</time><name>PT4775</name></trkpt>
<trkpt lat="51.604304" lon="03.814266"><ele>0.4</ele><time>2022-11-16T12:55:40Z</time><name>PT4776</name></trkpt>
<trkpt lat="51.604310" lon="03.814266"><ele>0.4</ele><time>2022-11-16T12:55:41Z</time><name>PT4777</name></trkpt>
<trkpt lat="51.604316" lon="03.814262"><ele>0.4</ele><time>2022-11-16T12:55:42Z</time><name>PT4778</name></trkpt>
<trkpt lat="51.604324" lon="03.814256"><ele>0.5</ele><time>2022-11-16T12:55:43Z</time><name>PT4779</name></trkpt>
<trkpt lat="51.604334" lon="03.814250"><ele>0.4</ele><time>2022-11-16T12:55:44Z</time><name>PT4780</name></trkpt>
<trkpt lat="51.604343" lon="03.814245"><ele>0.4</ele><time>2022-11-16T12:55:45Z</time><name>PT4781</name></trkpt>
<trkpt lat="51.604351" lon="03.814242"><ele>0.4</ele><time>2022-11-16T12:55:46Z</time><name>PT4782</name></trkpt>
<trkpt lat="51.604359" lon="03.814238"><ele>0.6</ele><time>2022-11-16T12:55:47Z</time><name>PT4783</name></trkpt>
<trkpt lat="51.604366" lon="03.814232"><ele>0.5</ele><time>2022-11-16T12:55:48Z</time><name>PT4784</name></trkpt>
<trkpt lat="51.604373" lon="03.814225"><ele>0.5</ele><time>2022-11-16T12:55:49Z</time><name>PT4785</name></trkpt>
<trkpt lat="51.604381" lon="03.814217"><ele>0.4</ele><time>2022-11-16T12:55:50Z</time><name>PT4786</name></trkpt>
<trkpt lat="51.604387" lon="03.814206"><ele>0.4</ele><time>2022-11-16T12:55:51Z</time><name>PT4787</name></trkpt>
<trkpt lat="51.604393" lon="03.814191"><ele>0.4</ele><time>2022-11-16T12:55:52Z</time><name>PT4788</name></trkpt>
<trkpt lat="51.604399" lon="03.814177"><ele>0.4</ele><time>2022-11-16T12:55:53Z</time><name>PT4789</name></trkpt>
<trkpt lat="51.604405" lon="03.814167"><ele>0.4</ele><time>2022-11-16T12:55:55Z</time><name>PT4790</name></trkpt>
<trkpt lat="51.604413" lon="03.814155"><ele>0.4</ele><time>2022-11-16T12:55:55Z</time><name>PT4791</name></trkpt>
<trkpt lat="51.604421" lon="03.814144"><ele>0.4</ele><time>2022-11-16T12:55:56Z</time><name>PT4792</name></trkpt>
<trkpt lat="51.604427" lon="03.814132"><ele>0.4</ele><time>2022-11-16T12:55:57Z</time><name>PT4793</name></trkpt>
<trkpt lat="51.604433" lon="03.814121"><ele>0.4</ele><time>2022-11-16T12:55:58Z</time><name>PT4794</name></trkpt>
<trkpt lat="51.604440" lon="03.814108"><ele>0.4</ele><time>2022-11-16T12:55:59Z</time><name>PT4795</name></trkpt>
<trkpt lat="51.604444" lon="03.814093"><ele>0.6</ele><time>2022-11-16T12:56:00Z</time><name>PT4796</name></trkpt>
<trkpt lat="51.604448" lon="03.814079"><ele>0.7</ele><time>2022-11-16T12:56:01Z</time><name>PT4797</name></trkpt>
<trkpt lat="51.604453" lon="03.814066"><ele>0.6</ele><time>2022-11-16T12:56:02Z</time><name>PT4798</name></trkpt>
<trkpt lat="51.604459" lon="03.814054"><ele>0.8</ele><time>2022-11-16T12:56:03Z</time><name>PT4799</name></trkpt>
<trkpt lat="51.604466" lon="03.814041"><ele>0.9</ele><time>2022-11-16T12:56:04Z</time><name>PT4800</name></trkpt>
<trkpt lat="51.604472" lon="03.814026"><ele>1</ele><time>2022-11-16T12:56:05Z</time><name>PT4801</name></trkpt>
<trkpt lat="51.604478" lon="03.814012"><ele>1.1</ele><time>2022-11-16T12:56:06Z</time><name>PT4802</name></trkpt>
<trkpt lat="51.604484" lon="03.813997"><ele>1.1</ele><time>2022-11-16T12:56:07Z</time><name>PT4803</name></trkpt>
<trkpt lat="51.604489" lon="03.813982"><ele>1.1</ele><time>2022-11-16T12:56:08Z</time><name>PT4804</name></trkpt>
<trkpt lat="51.604494" lon="03.813969"><ele>0.9</ele><time>2022-11-16T12:56:09Z</time><name>PT4805</name></trkpt>
<trkpt lat="51.604500" lon="03.813956"><ele>0.8</ele><time>2022-11-16T12:56:10Z</time><name>PT4806</name></trkpt>
<trkpt lat="51.604505" lon="03.813943"><ele>0.7</ele><time>2022-11-16T12:56:11Z</time><name>PT4807</name></trkpt>
<trkpt lat="51.604510" lon="03.813930"><ele>0.7</ele><time>2022-11-16T12:56:12Z</time><name>PT4808</name></trkpt>
<trkpt lat="51.604516" lon="03.813916"><ele>0.6</ele><time>2022-11-16T12:56:13Z</time><name>PT4809</name></trkpt>
<trkpt lat="51.604524" lon="03.813904"><ele>0.8</ele><time>2022-11-16T12:56:14Z</time><name>PT4810</name></trkpt>
<trkpt lat="51.604529" lon="03.813891"><ele>0.9</ele><time>2022-11-16T12:56:15Z</time><name>PT4811</name></trkpt>
<trkpt lat="51.604533" lon="03.813878"><ele>0.7</ele><time>2022-11-16T12:56:16Z</time><name>PT4812</name></trkpt>
<trkpt lat="51.604538" lon="03.813866"><ele>0.8</ele><time>2022-11-16T12:56:17Z</time><name>PT4813</name></trkpt>
<trkpt lat="51.604544" lon="03.813853"><ele>0.5</ele><time>2022-11-16T12:56:18Z</time><name>PT4814</name></trkpt>
<trkpt lat="51.604549" lon="03.813839"><ele>0.6</ele><time>2022-11-16T12:56:19Z</time><name>PT4815</name></trkpt>
<trkpt lat="51.604556" lon="03.813824"><ele>0.4</ele><time>2022-11-16T12:56:20Z</time><name>PT4816</name></trkpt>
<trkpt lat="51.604562" lon="03.813810"><ele>0.5</ele><time>2022-11-16T12:56:21Z</time><name>PT4817</name></trkpt>
<trkpt lat="51.604568" lon="03.813798"><ele>0.6</ele><time>2022-11-16T12:56:22Z</time><name>PT4818</name></trkpt>
<trkpt lat="51.604574" lon="03.813785"><ele>0.7</ele><time>2022-11-16T12:56:23Z</time><name>PT4819</name></trkpt>
<trkpt lat="51.604580" lon="03.813773"><ele>0.5</ele><time>2022-11-16T12:56:24Z</time><name>PT4820</name></trkpt>
<trkpt lat="51.604587" lon="03.813763"><ele>0.7</ele><time>2022-11-16T12:56:25Z</time><name>PT4821</name></trkpt>
<trkpt lat="51.604592" lon="03.813752"><ele>0.5</ele><time>2022-11-16T12:56:26Z</time><name>PT4822</name></trkpt>
<trkpt lat="51.604597" lon="03.813739"><ele>0.4</ele><time>2022-11-16T12:56:27Z</time><name>PT4823</name></trkpt>
<trkpt lat="51.604602" lon="03.813725"><ele>0.5</ele><time>2022-11-16T12:56:28Z</time><name>PT4824</name></trkpt>
<trkpt lat="51.604606" lon="03.813708"><ele>0.5</ele><time>2022-11-16T12:56:29Z</time><name>PT4825</name></trkpt>
<trkpt lat="51.604613" lon="03.813696"><ele>0.4</ele><time>2022-11-16T12:56:30Z</time><name>PT4826</name></trkpt>
<trkpt lat="51.604619" lon="03.813684"><ele>0.4</ele><time>2022-11-16T12:56:31Z</time><name>PT4827</name></trkpt>
<trkpt lat="51.604624" lon="03.813674"><ele>0.4</ele><time>2022-11-16T12:56:32Z</time><name>PT4828</name></trkpt>
<trkpt lat="51.604630" lon="03.813664"><ele>0.4</ele><time>2022-11-16T12:56:33Z</time><name>PT4829</name></trkpt>
<trkpt lat="51.604636" lon="03.813653"><ele>0.4</ele><time>2022-11-16T12:56:34Z</time><name>PT4830</name></trkpt>
<trkpt lat="51.604642" lon="03.813640"><ele>0.5</ele><time>2022-11-16T12:56:35Z</time><name>PT4831</name></trkpt>
<trkpt lat="51.604647" lon="03.813626"><ele>0.4</ele><time>2022-11-16T12:56:36Z</time><name>PT4832</name></trkpt>
<trkpt lat="51.604653" lon="03.813611"><ele>0.6</ele><time>2022-11-16T12:56:37Z</time><name>PT4833</name></trkpt>
<trkpt lat="51.604660" lon="03.813601"><ele>0.7</ele><time>2022-11-16T12:56:38Z</time><name>PT4834</name></trkpt>
<trkpt lat="51.604666" lon="03.813588"><ele>0.9</ele><time>2022-11-16T12:56:39Z</time><name>PT4835</name></trkpt>
<trkpt lat="51.604672" lon="03.813572"><ele>0.9</ele><time>2022-11-16T12:56:40Z</time><name>PT4836</name></trkpt>
<trkpt lat="51.604677" lon="03.813559"><ele>0.9</ele><time>2022-11-16T12:56:41Z</time><name>PT4837</name></trkpt>
<trkpt lat="51.604683" lon="03.813548"><ele>0.8</ele><time>2022-11-16T12:56:42Z</time><name>PT4838</name></trkpt>
<trkpt lat="51.604689" lon="03.813536"><ele>0.6</ele><time>2022-11-16T12:56:43Z</time><name>PT4839</name></trkpt>
<trkpt lat="51.604696" lon="03.813525"><ele>0.5</ele><time>2022-11-16T12:56:44Z</time><name>PT4840</name></trkpt>
<trkpt lat="51.604703" lon="03.813512"><ele>0.4</ele><time>2022-11-16T12:56:45Z</time><name>PT4841</name></trkpt>
<trkpt lat="51.604709" lon="03.813502"><ele>0.4</ele><time>2022-11-16T12:56:46Z</time><name>PT4842</name></trkpt>
<trkpt lat="51.604714" lon="03.813489"><ele>0.5</ele><time>2022-11-16T12:56:47Z</time><name>PT4843</name></trkpt>
<trkpt lat="51.604719" lon="03.813475"><ele>0.7</ele><time>2022-11-16T12:56:48Z</time><name>PT4844</name></trkpt>
<trkpt lat="51.604726" lon="03.813458"><ele>0.6</ele><time>2022-11-16T12:56:49Z</time><name>PT4845</name></trkpt>
<trkpt lat="51.604733" lon="03.813445"><ele>0.7</ele><time>2022-11-16T12:56:50Z</time><name>PT4846</name></trkpt>
<trkpt lat="51.604740" lon="03.813434"><ele>0.9</ele><time>2022-11-16T12:56:51Z</time><name>PT4847</name></trkpt>
<trkpt lat="51.604746" lon="03.813423"><ele>0.9</ele><time>2022-11-16T12:56:52Z</time><name>PT4848</name></trkpt>
<trkpt lat="51.604752" lon="03.813411"><ele>0.9</ele><time>2022-11-16T12:56:53Z</time><name>PT4849</name></trkpt>
<trkpt lat="51.604758" lon="03.813397"><ele>0.9</ele><time>2022-11-16T12:56:54Z</time><name>PT4850</name></trkpt>
<trkpt lat="51.604763" lon="03.813384"><ele>0.9</ele><time>2022-11-16T12:56:55Z</time><name>PT4851</name></trkpt>
<trkpt lat="51.604768" lon="03.813369"><ele>0.8</ele><time>2022-11-16T12:56:56Z</time><name>PT4852</name></trkpt>
<trkpt lat="51.604774" lon="03.813355"><ele>0.6</ele><time>2022-11-16T12:56:57Z</time><name>PT4853</name></trkpt>
<trkpt lat="51.604779" lon="03.813339"><ele>0.5</ele><time>2022-11-16T12:56:58Z</time><name>PT4854</name></trkpt>
<trkpt lat="51.604784" lon="03.813324"><ele>0.4</ele><time>2022-11-16T12:56:59Z</time><name>PT4855</name></trkpt>
<trkpt lat="51.604790" lon="03.813308"><ele>0.4</ele><time>2022-11-16T12:57:00Z</time><name>PT4856</name></trkpt>
<trkpt lat="51.604794" lon="03.813293"><ele>0.4</ele><time>2022-11-16T12:57:01Z</time><name>PT4857</name></trkpt>
<trkpt lat="51.604798" lon="03.813280"><ele>0.5</ele><time>2022-11-16T12:57:02Z</time><name>PT4858</name></trkpt>
<trkpt lat="51.604804" lon="03.813268"><ele>0.6</ele><time>2022-11-16T12:57:03Z</time><name>PT4859</name></trkpt>
<trkpt lat="51.604811" lon="03.813256"><ele>0.6</ele><time>2022-11-16T12:57:04Z</time><name>PT4860</name></trkpt>
<trkpt lat="51.604817" lon="03.813244"><ele>0.6</ele><time>2022-11-16T12:57:05Z</time><name>PT4861</name></trkpt>
<trkpt lat="51.604824" lon="03.813233"><ele>0.6</ele><time>2022-11-16T12:57:06Z</time><name>PT4862</name></trkpt>
<trkpt lat="51.604829" lon="03.813219"><ele>0.4</ele><time>2022-11-16T12:57:07Z</time><name>PT4863</name></trkpt>
<trkpt lat="51.604832" lon="03.813203"><ele>0.3</ele><time>2022-11-16T12:57:08Z</time><name>PT4864</name></trkpt>
<trkpt lat="51.604837" lon="03.813191"><ele>0.4</ele><time>2022-11-16T12:57:09Z</time><name>PT4865</name></trkpt>
<trkpt lat="51.604842" lon="03.813179"><ele>0.4</ele><time>2022-11-16T12:57:10Z</time><name>PT4866</name></trkpt>
<trkpt lat="51.604846" lon="03.813165"><ele>0.4</ele><time>2022-11-16T12:57:11Z</time><name>PT4867</name></trkpt>
<trkpt lat="51.604850" lon="03.813148"><ele>0.4</ele><time>2022-11-16T12:57:12Z</time><name>PT4868</name></trkpt>
<trkpt lat="51.604853" lon="03.813133"><ele>0.4</ele><time>2022-11-16T12:57:13Z</time><name>PT4869</name></trkpt>
<trkpt lat="51.604856" lon="03.813124"><ele>0.4</ele><time>2022-11-16T12:57:14Z</time><name>PT4870</name></trkpt>
<trkpt lat="51.604859" lon="03.813117"><ele>0.4</ele><time>2022-11-16T12:57:15Z</time><name>PT4871</name></trkpt>
<trkpt lat="51.604862" lon="03.813104"><ele>0.4</ele><time>2022-11-16T12:57:16Z</time><name>PT4872</name></trkpt>
<trkpt lat="51.604866" lon="03.813090"><ele>0.4</ele><time>2022-11-16T12:57:17Z</time><name>PT4873</name></trkpt>
<trkpt lat="51.604869" lon="03.813078"><ele>0.5</ele><time>2022-11-16T12:57:18Z</time><name>PT4874</name></trkpt>
<trkpt lat="51.604873" lon="03.813068"><ele>0.4</ele><time>2022-11-16T12:57:19Z</time><name>PT4875</name></trkpt>
<trkpt lat="51.604878" lon="03.813056"><ele>0.4</ele><time>2022-11-16T12:57:20Z</time><name>PT4876</name></trkpt>
<trkpt lat="51.604882" lon="03.813044"><ele>0.4</ele><time>2022-11-16T12:57:21Z</time><name>PT4877</name></trkpt>
<trkpt lat="51.604885" lon="03.813029"><ele>0.3</ele><time>2022-11-16T12:57:22Z</time><name>PT4878</name></trkpt>
<trkpt lat="51.604889" lon="03.813014"><ele>0.2</ele><time>2022-11-16T12:57:23Z</time><name>PT4879</name></trkpt>
<trkpt lat="51.604893" lon="03.813001"><ele>0.4</ele><time>2022-11-16T12:57:24Z</time><name>PT4880</name></trkpt>
<trkpt lat="51.604898" lon="03.812990"><ele>0.3</ele><time>2022-11-16T12:57:25Z</time><name>PT4881</name></trkpt>
<trkpt lat="51.604902" lon="03.812973"><ele>0.3</ele><time>2022-11-16T12:57:26Z</time><name>PT4882</name></trkpt>
<trkpt lat="51.604905" lon="03.812956"><ele>0.4</ele><time>2022-11-16T12:57:27Z</time><name>PT4883</name></trkpt>
<trkpt lat="51.604909" lon="03.812941"><ele>0.4</ele><time>2022-11-16T12:57:28Z</time><name>PT4884</name></trkpt>
<trkpt lat="51.604913" lon="03.812925"><ele>0.6</ele><time>2022-11-16T12:57:29Z</time><name>PT4885</name></trkpt>
<trkpt lat="51.604916" lon="03.812912"><ele>0.6</ele><time>2022-11-16T12:57:30Z</time><name>PT4886</name></trkpt>
<trkpt lat="51.604919" lon="03.812899"><ele>0.7</ele><time>2022-11-16T12:57:31Z</time><name>PT4887</name></trkpt>
<trkpt lat="51.604923" lon="03.812884"><ele>0.9</ele><time>2022-11-16T12:57:32Z</time><name>PT4888</name></trkpt>
<trkpt lat="51.604927" lon="03.812868"><ele>0.9</ele><time>2022-11-16T12:57:33Z</time><name>PT4889</name></trkpt>
<trkpt lat="51.604931" lon="03.812853"><ele>0.9</ele><time>2022-11-16T12:57:34Z</time><name>PT4890</name></trkpt>
<trkpt lat="51.604933" lon="03.812838"><ele>1.1</ele><time>2022-11-16T12:57:35Z</time><name>PT4891</name></trkpt>
<trkpt lat="51.604934" lon="03.812821"><ele>0.9</ele><time>2022-11-16T12:57:36Z</time><name>PT4892</name></trkpt>
<trkpt lat="51.604935" lon="03.812806"><ele>0.8</ele><time>2022-11-16T12:57:37Z</time><name>PT4893</name></trkpt>
<trkpt lat="51.604939" lon="03.812791"><ele>0.8</ele><time>2022-11-16T12:57:38Z</time><name>PT4894</name></trkpt>
<trkpt lat="51.604944" lon="03.812779"><ele>0.8</ele><time>2022-11-16T12:57:39Z</time><name>PT4895</name></trkpt>
<trkpt lat="51.604949" lon="03.812764"><ele>0.6</ele><time>2022-11-16T12:57:40Z</time><name>PT4896</name></trkpt>
<trkpt lat="51.604952" lon="03.812746"><ele>0.8</ele><time>2022-11-16T12:57:41Z</time><name>PT4897</name></trkpt>
<trkpt lat="51.604954" lon="03.812731"><ele>0.8</ele><time>2022-11-16T12:57:42Z</time><name>PT4898</name></trkpt>
<trkpt lat="51.604955" lon="03.812714"><ele>0.7</ele><time>2022-11-16T12:57:43Z</time><name>PT4899</name></trkpt>
<trkpt lat="51.604956" lon="03.812699"><ele>0.4</ele><time>2022-11-16T12:57:44Z</time><name>PT4900</name></trkpt>
<trkpt lat="51.604957" lon="03.812686"><ele>0.4</ele><time>2022-11-16T12:57:45Z</time><name>PT4901</name></trkpt>
<trkpt lat="51.604960" lon="03.812671"><ele>0.3</ele><time>2022-11-16T12:57:46Z</time><name>PT4902</name></trkpt>
<trkpt lat="51.604963" lon="03.812654"><ele>0.3</ele><time>2022-11-16T12:57:47Z</time><name>PT4903</name></trkpt>
<trkpt lat="51.604967" lon="03.812636"><ele>0.3</ele><time>2022-11-16T12:57:48Z</time><name>PT4904</name></trkpt>
<trkpt lat="51.604970" lon="03.812622"><ele>0.4</ele><time>2022-11-16T12:57:49Z</time><name>PT4905</name></trkpt>
<trkpt lat="51.604972" lon="03.812606"><ele>0.7</ele><time>2022-11-16T12:57:50Z</time><name>PT4906</name></trkpt>
<trkpt lat="51.604975" lon="03.812588"><ele>0.8</ele><time>2022-11-16T12:57:51Z</time><name>PT4907</name></trkpt>
<trkpt lat="51.604977" lon="03.812571"><ele>0.8</ele><time>2022-11-16T12:57:52Z</time><name>PT4908</name></trkpt>
<trkpt lat="51.604979" lon="03.812555"><ele>0.7</ele><time>2022-11-16T12:57:53Z</time><name>PT4909</name></trkpt>
<trkpt lat="51.604981" lon="03.812539"><ele>0.7</ele><time>2022-11-16T12:57:54Z</time><name>PT4910</name></trkpt>
<trkpt lat="51.604985" lon="03.812525"><ele>0.5</ele><time>2022-11-16T12:57:55Z</time><name>PT4911</name></trkpt>
<trkpt lat="51.604989" lon="03.812507"><ele>0.6</ele><time>2022-11-16T12:57:56Z</time><name>PT4912</name></trkpt>
<trkpt lat="51.604991" lon="03.812489"><ele>0.7</ele><time>2022-11-16T12:57:57Z</time><name>PT4913</name></trkpt>
<trkpt lat="51.604993" lon="03.812471"><ele>0.6</ele><time>2022-11-16T12:57:58Z</time><name>PT4914</name></trkpt>
<trkpt lat="51.604994" lon="03.812455"><ele>0.5</ele><time>2022-11-16T12:57:59Z</time><name>PT4915</name></trkpt>
<trkpt lat="51.604992" lon="03.812439"><ele>0.6</ele><time>2022-11-16T12:58:00Z</time><name>PT4916</name></trkpt>
<trkpt lat="51.604992" lon="03.812420"><ele>0.5</ele><time>2022-11-16T12:58:01Z</time><name>PT4917</name></trkpt>
<trkpt lat="51.604993" lon="03.812402"><ele>0.5</ele><time>2022-11-16T12:58:02Z</time><name>PT4918</name></trkpt>
<trkpt lat="51.604995" lon="03.812384"><ele>0.5</ele><time>2022-11-16T12:58:03Z</time><name>PT4919</name></trkpt>
<trkpt lat="51.604998" lon="03.812371"><ele>0.5</ele><time>2022-11-16T12:58:04Z</time><name>PT4920</name></trkpt>
<trkpt lat="51.605000" lon="03.812352"><ele>0.5</ele><time>2022-11-16T12:58:05Z</time><name>PT4921</name></trkpt>
<trkpt lat="51.605003" lon="03.812334"><ele>0.4</ele><time>2022-11-16T12:58:06Z</time><name>PT4922</name></trkpt>
<trkpt lat="51.605005" lon="03.812315"><ele>0.4</ele><time>2022-11-16T12:58:07Z</time><name>PT4923</name></trkpt>
<trkpt lat="51.605007" lon="03.812299"><ele>0.4</ele><time>2022-11-16T12:58:08Z</time><name>PT4924</name></trkpt>
<trkpt lat="51.605007" lon="03.812282"><ele>0.2</ele><time>2022-11-16T12:58:09Z</time><name>PT4925</name></trkpt>
<trkpt lat="51.605006" lon="03.812265"><ele>0.3</ele><time>2022-11-16T12:58:10Z</time><name>PT4926</name></trkpt>
<trkpt lat="51.605005" lon="03.812248"><ele>0.3</ele><time>2022-11-16T12:58:11Z</time><name>PT4927</name></trkpt>
<trkpt lat="51.605005" lon="03.812232"><ele>0.4</ele><time>2022-11-16T12:58:12Z</time><name>PT4928</name></trkpt>
<trkpt lat="51.605006" lon="03.812214"><ele>0.4</ele><time>2022-11-16T12:58:13Z</time><name>PT4929</name></trkpt>
<trkpt lat="51.605007" lon="03.812196"><ele>0.4</ele><time>2022-11-16T12:58:14Z</time><name>PT4930</name></trkpt>
<trkpt lat="51.605010" lon="03.812181"><ele>0.6</ele><time>2022-11-16T12:58:15Z</time><name>PT4931</name></trkpt>
<trkpt lat="51.605013" lon="03.812166"><ele>0.5</ele><time>2022-11-16T12:58:16Z</time><name>PT4932</name></trkpt>
<trkpt lat="51.605014" lon="03.812149"><ele>0.5</ele><time>2022-11-16T12:58:17Z</time><name>PT4933</name></trkpt>
<trkpt lat="51.605015" lon="03.812132"><ele>0.4</ele><time>2022-11-16T12:58:18Z</time><name>PT4934</name></trkpt>
<trkpt lat="51.605016" lon="03.812115"><ele>0.5</ele><time>2022-11-16T12:58:19Z</time><name>PT4935</name></trkpt>
<trkpt lat="51.605018" lon="03.812099"><ele>0.4</ele><time>2022-11-16T12:58:20Z</time><name>PT4936</name></trkpt>
<trkpt lat="51.605019" lon="03.812084"><ele>0.3</ele><time>2022-11-16T12:58:21Z</time><name>PT4937</name></trkpt>
<trkpt lat="51.605019" lon="03.812067"><ele>0.2</ele><time>2022-11-16T12:58:22Z</time><name>PT4938</name></trkpt>
<trkpt lat="51.605019" lon="03.812050"><ele>0.4</ele><time>2022-11-16T12:58:23Z</time><name>PT4939</name></trkpt>
<trkpt lat="51.605018" lon="03.812033"><ele>0.5</ele><time>2022-11-16T12:58:24Z</time><name>PT4940</name></trkpt>
<trkpt lat="51.605019" lon="03.812017"><ele>0.5</ele><time>2022-11-16T12:58:25Z</time><name>PT4941</name></trkpt>
<trkpt lat="51.605020" lon="03.812000"><ele>0.5</ele><time>2022-11-16T12:58:26Z</time><name>PT4942</name></trkpt>
<trkpt lat="51.605020" lon="03.811982"><ele>0.5</ele><time>2022-11-16T12:58:27Z</time><name>PT4943</name></trkpt>
<trkpt lat="51.605022" lon="03.811966"><ele>0.4</ele><time>2022-11-16T12:58:28Z</time><name>PT4944</name></trkpt>
<trkpt lat="51.605023" lon="03.811949"><ele>0.4</ele><time>2022-11-16T12:58:29Z</time><name>PT4945</name></trkpt>
<trkpt lat="51.605023" lon="03.811930"><ele>0.4</ele><time>2022-11-16T12:58:30Z</time><name>PT4946</name></trkpt>
<trkpt lat="51.605021" lon="03.811913"><ele>0.5</ele><time>2022-11-16T12:58:31Z</time><name>PT4947</name></trkpt>
<trkpt lat="51.605019" lon="03.811894"><ele>0.7</ele><time>2022-11-16T12:58:32Z</time><name>PT4948</name></trkpt>
<trkpt lat="51.605017" lon="03.811875"><ele>0.5</ele><time>2022-11-16T12:58:33Z</time><name>PT4949</name></trkpt>
<trkpt lat="51.605015" lon="03.811858"><ele>0.6</ele><time>2022-11-16T12:58:34Z</time><name>PT4950</name></trkpt>
<trkpt lat="51.605016" lon="03.811841"><ele>0.8</ele><time>2022-11-16T12:58:35Z</time><name>PT4951</name></trkpt>
<trkpt lat="51.605016" lon="03.811825"><ele>0.6</ele><time>2022-11-16T12:58:36Z</time><name>PT4952</name></trkpt>
<trkpt lat="51.605017" lon="03.811809"><ele>0.5</ele><time>2022-11-16T12:58:37Z</time><name>PT4953</name></trkpt>
<trkpt lat="51.605016" lon="03.811791"><ele>0.4</ele><time>2022-11-16T12:58:38Z</time><name>PT4954</name></trkpt>
<trkpt lat="51.605015" lon="03.811771"><ele>0.4</ele><time>2022-11-16T12:58:39Z</time><name>PT4955</name></trkpt>
<trkpt lat="51.605013" lon="03.811752"><ele>0.2</ele><time>2022-11-16T12:58:40Z</time><name>PT4956</name></trkpt>
<trkpt lat="51.605012" lon="03.811734"><ele>0.1</ele><time>2022-11-16T12:58:41Z</time><name>PT4957</name></trkpt>
<trkpt lat="51.605009" lon="03.811717"><ele>0.2</ele><time>2022-11-16T12:58:42Z</time><name>PT4958</name></trkpt>
<trkpt lat="51.605007" lon="03.811702"><ele>0.1</ele><time>2022-11-16T12:58:43Z</time><name>PT4959</name></trkpt>
<trkpt lat="51.605004" lon="03.811683"><ele>0.1</ele><time>2022-11-16T12:58:44Z</time><name>PT4960</name></trkpt>
<trkpt lat="51.605002" lon="03.811664"><ele>0.3</ele><time>2022-11-16T12:58:45Z</time><name>PT4961</name></trkpt>
<trkpt lat="51.605000" lon="03.811646"><ele>0.3</ele><time>2022-11-16T12:58:46Z</time><name>PT4962</name></trkpt>
<trkpt lat="51.604997" lon="03.811629"><ele>0.5</ele><time>2022-11-16T12:58:47Z</time><name>PT4963</name></trkpt>
<trkpt lat="51.604994" lon="03.811613"><ele>0.7</ele><time>2022-11-16T12:58:48Z</time><name>PT4964</name></trkpt>
<trkpt lat="51.604992" lon="03.811597"><ele>0.8</ele><time>2022-11-16T12:58:49Z</time><name>PT4965</name></trkpt>
<trkpt lat="51.604991" lon="03.811574"><ele>0.8</ele><time>2022-11-16T12:58:50Z</time><name>PT4966</name></trkpt>
<trkpt lat="51.604990" lon="03.811555"><ele>0.9</ele><time>2022-11-16T12:58:51Z</time><name>PT4967</name></trkpt>
<trkpt lat="51.604988" lon="03.811540"><ele>0.9</ele><time>2022-11-16T12:58:52Z</time><name>PT4968</name></trkpt>
<trkpt lat="51.604988" lon="03.811524"><ele>0.7</ele><time>2022-11-16T12:58:53Z</time><name>PT4969</name></trkpt>
<trkpt lat="51.604985" lon="03.811505"><ele>0.9</ele><time>2022-11-16T12:58:54Z</time><name>PT4970</name></trkpt>
<trkpt lat="51.604982" lon="03.811487"><ele>0.9</ele><time>2022-11-16T12:58:55Z</time><name>PT4971</name></trkpt>
<trkpt lat="51.604979" lon="03.811470"><ele>1</ele><time>2022-11-16T12:58:56Z</time><name>PT4972</name></trkpt>
<trkpt lat="51.604976" lon="03.811454"><ele>1</ele><time>2022-11-16T12:58:57Z</time><name>PT4973</name></trkpt>
<trkpt lat="51.604972" lon="03.811437"><ele>1.1</ele><time>2022-11-16T12:58:58Z</time><name>PT4974</name></trkpt>
<trkpt lat="51.604968" lon="03.811422"><ele>1</ele><time>2022-11-16T12:58:59Z</time><name>PT4975</name></trkpt>
<trkpt lat="51.604965" lon="03.811407"><ele>0.9</ele><time>2022-11-16T12:59:00Z</time><name>PT4976</name></trkpt>
<trkpt lat="51.604961" lon="03.811391"><ele>0.8</ele><time>2022-11-16T12:59:01Z</time><name>PT4977</name></trkpt>
<trkpt lat="51.604958" lon="03.811371"><ele>0.8</ele><time>2022-11-16T12:59:02Z</time><name>PT4978</name></trkpt>
<trkpt lat="51.604956" lon="03.811353"><ele>0.6</ele><time>2022-11-16T12:59:03Z</time><name>PT4979</name></trkpt>
<trkpt lat="51.604955" lon="03.811337"><ele>0.7</ele><time>2022-11-16T12:59:04Z</time><name>PT4980</name></trkpt>
<trkpt lat="51.604953" lon="03.811320"><ele>0.7</ele><time>2022-11-16T12:59:05Z</time><name>PT4981</name></trkpt>
<trkpt lat="51.604949" lon="03.811303"><ele>0.8</ele><time>2022-11-16T12:59:06Z</time><name>PT4982</name></trkpt>
<trkpt lat="51.604945" lon="03.811285"><ele>0.7</ele><time>2022-11-16T12:59:07Z</time><name>PT4983</name></trkpt>
<trkpt lat="51.604939" lon="03.811270"><ele>0.7</ele><time>2022-11-16T12:59:08Z</time><name>PT4984</name></trkpt>
<trkpt lat="51.604935" lon="03.811252"><ele>0.8</ele><time>2022-11-16T12:59:09Z</time><name>PT4985</name></trkpt>
<trkpt lat="51.604932" lon="03.811237"><ele>0.7</ele><time>2022-11-16T12:59:10Z</time><name>PT4986</name></trkpt>
<trkpt lat="51.604931" lon="03.811221"><ele>0.6</ele><time>2022-11-16T12:59:11Z</time><name>PT4987</name></trkpt>
<trkpt lat="51.604929" lon="03.811205"><ele>0.6</ele><time>2022-11-16T12:59:12Z</time><name>PT4988</name></trkpt>
<trkpt lat="51.604927" lon="03.811188"><ele>0.5</ele><time>2022-11-16T12:59:13Z</time><name>PT4989</name></trkpt>
<trkpt lat="51.604924" lon="03.811172"><ele>0.5</ele><time>2022-11-16T12:59:14Z</time><name>PT4990</name></trkpt>
<trkpt lat="51.604921" lon="03.811157"><ele>0.6</ele><time>2022-11-16T12:59:15Z</time><name>PT4991</name></trkpt>
<trkpt lat="51.604919" lon="03.811141"><ele>0.5</ele><time>2022-11-16T12:59:16Z</time><name>PT4992</name></trkpt>
<trkpt lat="51.604918" lon="03.811126"><ele>0.5</ele><time>2022-11-16T12:59:17Z</time><name>PT4993</name></trkpt>
<trkpt lat="51.604914" lon="03.811110"><ele>0.5</ele><time>2022-11-16T12:59:18Z</time><name>PT4994</name></trkpt>
<trkpt lat="51.604909" lon="03.811095"><ele>0.4</ele><time>2022-11-16T12:59:19Z</time><name>PT4995</name></trkpt>
<trkpt lat="51.604906" lon="03.811080"><ele>0.2</ele><time>2022-11-16T12:59:20Z</time><name>PT4996</name></trkpt>
<trkpt lat="51.604902" lon="03.811064"><ele>0.1</ele><time>2022-11-16T12:59:21Z</time><name>PT4997</name></trkpt>
<trkpt lat="51.604899" lon="03.811050"><ele>0.1</ele><time>2022-11-16T12:59:22Z</time><name>PT4998</name></trkpt>
<trkpt lat="51.604896" lon="03.811037"><ele>0.3</ele><time>2022-11-16T12:59:23Z</time><name>PT4999</name></trkpt>
<trkpt lat="51.604893" lon="03.811023"><ele>0.4</ele><time>2022-11-16T12:59:24Z</time><name>PT5000</name></trkpt>
<trkpt lat="51.604891" lon="03.811007"><ele>0.4</ele><time>2022-11-16T12:59:25Z</time><name>PT5001</name></trkpt>
<trkpt lat="51.604889" lon="03.810991"><ele>0.5</ele><time>2022-11-16T12:59:26Z</time><name>PT5002</name></trkpt>
<trkpt lat="51.604887" lon="03.810974"><ele>0.5</ele><time>2022-11-16T12:59:27Z</time><name>PT5003</name></trkpt>
<trkpt lat="51.604884" lon="03.810959"><ele>0.5</ele><time>2022-11-16T12:59:28Z</time><name>PT5004</name></trkpt>
<trkpt lat="51.604881" lon="03.810944"><ele>0.5</ele><time>2022-11-16T12:59:29Z</time><name>PT5005</name></trkpt>
<trkpt lat="51.604877" lon="03.810930"><ele>0.9</ele><time>2022-11-16T12:59:30Z</time><name>PT5006</name></trkpt>
<trkpt lat="51.604871" lon="03.810915"><ele>0.9</ele><time>2022-11-16T12:59:31Z</time><name>PT5007</name></trkpt>
<trkpt lat="51.604867" lon="03.810902"><ele>1.2</ele><time>2022-11-16T12:59:32Z</time><name>PT5008</name></trkpt>
<trkpt lat="51.604865" lon="03.810889"><ele>1.4</ele><time>2022-11-16T12:59:33Z</time><name>PT5009</name></trkpt>
<trkpt lat="51.604864" lon="03.810874"><ele>1.2</ele><time>2022-11-16T12:59:34Z</time><name>PT5010</name></trkpt>
<trkpt lat="51.604862" lon="03.810860"><ele>1.3</ele><time>2022-11-16T12:59:35Z</time><name>PT5011</name></trkpt>
<trkpt lat="51.604860" lon="03.810843"><ele>1.3</ele><time>2022-11-16T12:59:36Z</time><name>PT5012</name></trkpt>
<trkpt lat="51.604858" lon="03.810827"><ele>1.3</ele><time>2022-11-16T12:59:37Z</time><name>PT5013</name></trkpt>
<trkpt lat="51.604854" lon="03.810813"><ele>1.3</ele><time>2022-11-16T12:59:38Z</time><name>PT5014</name></trkpt>
<trkpt lat="51.604852" lon="03.810799"><ele>1.4</ele><time>2022-11-16T12:59:39Z</time><name>PT5015</name></trkpt>
<trkpt lat="51.604849" lon="03.810783"><ele>1.4</ele><time>2022-11-16T12:59:40Z</time><name>PT5016</name></trkpt>
<trkpt lat="51.604845" lon="03.810768"><ele>1.4</ele><time>2022-11-16T12:59:41Z</time><name>PT5017</name></trkpt>
<trkpt lat="51.604841" lon="03.810752"><ele>1.9</ele><time>2022-11-16T12:59:42Z</time><name>PT5018</name></trkpt>
<trkpt lat="51.604837" lon="03.810736"><ele>1.9</ele><time>2022-11-16T12:59:43Z</time><name>PT5019</name></trkpt>
<trkpt lat="51.604834" lon="03.810724"><ele>2</ele><time>2022-11-16T12:59:44Z</time><name>PT5020</name></trkpt>
<trkpt lat="51.604831" lon="03.810711"><ele>2</ele><time>2022-11-16T12:59:45Z</time><name>PT5021</name></trkpt>
<trkpt lat="51.604828" lon="03.810697"><ele>2.1</ele><time>2022-11-16T12:59:46Z</time><name>PT5022</name></trkpt>
<trkpt lat="51.604824" lon="03.810683"><ele>1.9</ele><time>2022-11-16T12:59:47Z</time><name>PT5023</name></trkpt>
<trkpt lat="51.604820" lon="03.810668"><ele>1.9</ele><time>2022-11-16T12:59:48Z</time><name>PT5024</name></trkpt>
<trkpt lat="51.604816" lon="03.810653"><ele>1.9</ele><time>2022-11-16T12:59:49Z</time><name>PT5025</name></trkpt>
<trkpt lat="51.604811" lon="03.810640"><ele>1.8</ele><time>2022-11-16T12:59:50Z</time><name>PT5026</name></trkpt>
<trkpt lat="51.604808" lon="03.810626"><ele>2</ele><time>2022-11-16T12:59:51Z</time><name>PT5027</name></trkpt>
<trkpt lat="51.604804" lon="03.810613"><ele>2</ele><time>2022-11-16T12:59:52Z</time><name>PT5028</name></trkpt>
<trkpt lat="51.604801" lon="03.810599"><ele>2.3</ele><time>2022-11-16T12:59:53Z</time><name>PT5029</name></trkpt>
<trkpt lat="51.604798" lon="03.810585"><ele>2.4</ele><time>2022-11-16T12:59:54Z</time><name>PT5030</name></trkpt>
<trkpt lat="51.604795" lon="03.810571"><ele>2.4</ele><time>2022-11-16T12:59:55Z</time><name>PT5031</name></trkpt>
<trkpt lat="51.604793" lon="03.810557"><ele>2.5</ele><time>2022-11-16T12:59:56Z</time><name>PT5032</name></trkpt>
<trkpt lat="51.604790" lon="03.810542"><ele>2.5</ele><time>2022-11-16T12:59:57Z</time><name>PT5033</name></trkpt>
<trkpt lat="51.604786" lon="03.810528"><ele>2.5</ele><time>2022-11-16T12:59:58Z</time><name>PT5034</name></trkpt>
<trkpt lat="51.604783" lon="03.810514"><ele>2.5</ele><time>2022-11-16T12:59:59Z</time><name>PT5035</name></trkpt>
<trkpt lat="51.604779" lon="03.810499"><ele>2.5</ele><time>2022-11-16T13:00:00Z</time><name>PT5036</name></trkpt>
<trkpt lat="51.604774" lon="03.810484"><ele>2.4</ele><time>2022-11-16T13:00:01Z</time><name>PT5037</name></trkpt>
<trkpt lat="51.604770" lon="03.810471"><ele>2.5</ele><time>2022-11-16T13:00:02Z</time><name>PT5038</name></trkpt>
<trkpt lat="51.604765" lon="03.810459"><ele>2.5</ele><time>2022-11-16T13:00:03Z</time><name>PT5039</name></trkpt>
<trkpt lat="51.604761" lon="03.810447"><ele>2.6</ele><time>2022-11-16T13:00:04Z</time><name>PT5040</name></trkpt>
<trkpt lat="51.604759" lon="03.810435"><ele>2.6</ele><time>2022-11-16T13:00:05Z</time><name>PT5041</name></trkpt>
<trkpt lat="51.604757" lon="03.810422"><ele>2.8</ele><time>2022-11-16T13:00:06Z</time><name>PT5042</name></trkpt>
<trkpt lat="51.604754" lon="03.810406"><ele>2.9</ele><time>2022-11-16T13:00:07Z</time><name>PT5043</name></trkpt>
<trkpt lat="51.604752" lon="03.810391"><ele>3</ele><time>2022-11-16T13:00:08Z</time><name>PT5044</name></trkpt>
<trkpt lat="51.604749" lon="03.810376"><ele>3.2</ele><time>2022-11-16T13:00:09Z</time><name>PT5045</name></trkpt>
<trkpt lat="51.604745" lon="03.810362"><ele>3.3</ele><time>2022-11-16T13:00:10Z</time><name>PT5046</name></trkpt>
<trkpt lat="51.604743" lon="03.810349"><ele>3.4</ele><time>2022-11-16T13:00:11Z</time><name>PT5047</name></trkpt>
<trkpt lat="51.604742" lon="03.810337"><ele>3.5</ele><time>2022-11-16T13:00:12Z</time><name>PT5048</name></trkpt>
<trkpt lat="51.604742" lon="03.810324"><ele>3.5</ele><time>2022-11-16T13:00:13Z</time><name>PT5049</name></trkpt>
<trkpt lat="51.604739" lon="03.810309"><ele>3.5</ele><time>2022-11-16T13:00:14Z</time><name>PT5050</name></trkpt>
<trkpt lat="51.604737" lon="03.810293"><ele>3.5</ele><time>2022-11-16T13:00:15Z</time><name>PT5051</name></trkpt>
<trkpt lat="51.604733" lon="03.810276"><ele>3.5</ele><time>2022-11-16T13:00:16Z</time><name>PT5052</name></trkpt>
<trkpt lat="51.604730" lon="03.810263"><ele>3.7</ele><time>2022-11-16T13:00:17Z</time><name>PT5053</name></trkpt>
<trkpt lat="51.604726" lon="03.810251"><ele>4</ele><time>2022-11-16T13:00:18Z</time><name>PT5054</name></trkpt>
<trkpt lat="51.604722" lon="03.810240"><ele>3.9</ele><time>2022-11-16T13:00:19Z</time><name>PT5055</name></trkpt>
<trkpt lat="51.604720" lon="03.810227"><ele>4</ele><time>2022-11-16T13:00:20Z</time><name>PT5056</name></trkpt>
<trkpt lat="51.604718" lon="03.810212"><ele>4.1</ele><time>2022-11-16T13:00:21Z</time><name>PT5057</name></trkpt>
<trkpt lat="51.604717" lon="03.810198"><ele>4.1</ele><time>2022-11-16T13:00:22Z</time><name>PT5058</name></trkpt>
<trkpt lat="51.604716" lon="03.810184"><ele>4.3</ele><time>2022-11-16T13:00:23Z</time><name>PT5059</name></trkpt>
<trkpt lat="51.604715" lon="03.810169"><ele>4.6</ele><time>2022-11-16T13:00:24Z</time><name>PT5060</name></trkpt>
<trkpt lat="51.604715" lon="03.810155"><ele>4.6</ele><time>2022-11-16T13:00:25Z</time><name>PT5061</name></trkpt>
<trkpt lat="51.604714" lon="03.810143"><ele>4.6</ele><time>2022-11-16T13:00:26Z</time><name>PT5062</name></trkpt>
<trkpt lat="51.604711" lon="03.810129"><ele>4.6</ele><time>2022-11-16T13:00:27Z</time><name>PT5063</name></trkpt>
<trkpt lat="51.604709" lon="03.810114"><ele>4.6</ele><time>2022-11-16T13:00:28Z</time><name>PT5064</name></trkpt>
<trkpt lat="51.604705" lon="03.810101"><ele>4.4</ele><time>2022-11-16T13:00:29Z</time><name>PT5065</name></trkpt>
<trkpt lat="51.604701" lon="03.810086"><ele>4.2</ele><time>2022-11-16T13:00:30Z</time><name>PT5066</name></trkpt>
<trkpt lat="51.604696" lon="03.810071"><ele>4.3</ele><time>2022-11-16T13:00:31Z</time><name>PT5067</name></trkpt>
<trkpt lat="51.604692" lon="03.810054"><ele>4.2</ele><time>2022-11-16T13:00:32Z</time><name>PT5068</name></trkpt>
<trkpt lat="51.604687" lon="03.810040"><ele>4.2</ele><time>2022-11-16T13:00:33Z</time><name>PT5069</name></trkpt>
<trkpt lat="51.604683" lon="03.810028"><ele>4.4</ele><time>2022-11-16T13:00:34Z</time><name>PT5070</name></trkpt>
<trkpt lat="51.604680" lon="03.810014"><ele>4.6</ele><time>2022-11-16T13:00:35Z</time><name>PT5071</name></trkpt>
<trkpt lat="51.604676" lon="03.809997"><ele>4.7</ele><time>2022-11-16T13:00:36Z</time><name>PT5072</name></trkpt>
<trkpt lat="51.604674" lon="03.809981"><ele>4.8</ele><time>2022-11-16T13:00:37Z</time><name>PT5073</name></trkpt>
<trkpt lat="51.604671" lon="03.809967"><ele>4.8</ele><time>2022-11-16T13:00:38Z</time><name>PT5074</name></trkpt>
<trkpt lat="51.604666" lon="03.809953"><ele>4.9</ele><time>2022-11-16T13:00:39Z</time><name>PT5075</name></trkpt>
<trkpt lat="51.604660" lon="03.809939"><ele>4.8</ele><time>2022-11-16T13:00:40Z</time><name>PT5076</name></trkpt>
<trkpt lat="51.604654" lon="03.809927"><ele>4.8</ele><time>2022-11-16T13:00:41Z</time><name>PT5077</name></trkpt>
<trkpt lat="51.604649" lon="03.809914"><ele>4.9</ele><time>2022-11-16T13:00:42Z</time><name>PT5078</name></trkpt>
<trkpt lat="51.604644" lon="03.809898"><ele>5</ele><time>2022-11-16T13:00:43Z</time><name>PT5079</name></trkpt>
<trkpt lat="51.604641" lon="03.809885"><ele>5</ele><time>2022-11-16T13:00:44Z</time><name>PT5080</name></trkpt>
<trkpt lat="51.604637" lon="03.809872"><ele>4.7</ele><time>2022-11-16T13:00:45Z</time><name>PT5081</name></trkpt>
<trkpt lat="51.604632" lon="03.809857"><ele>4.6</ele><time>2022-11-16T13:00:46Z</time><name>PT5082</name></trkpt>
<trkpt lat="51.604628" lon="03.809845"><ele>4.4</ele><time>2022-11-16T13:00:47Z</time><name>PT5083</name></trkpt>
<trkpt lat="51.604623" lon="03.809832"><ele>4.3</ele><time>2022-11-16T13:00:48Z</time><name>PT5084</name></trkpt>
<trkpt lat="51.604618" lon="03.809819"><ele>4.2</ele><time>2022-11-16T13:00:49Z</time><name>PT5085</name></trkpt>
<trkpt lat="51.604614" lon="03.809805"><ele>4.2</ele><time>2022-11-16T13:00:50Z</time><name>PT5086</name></trkpt>
<trkpt lat="51.604609" lon="03.809792"><ele>4.3</ele><time>2022-11-16T13:00:51Z</time><name>PT5087</name></trkpt>
<trkpt lat="51.604606" lon="03.809778"><ele>4.3</ele><time>2022-11-16T13:00:52Z</time><name>PT5088</name></trkpt>
<trkpt lat="51.604602" lon="03.809764"><ele>4.2</ele><time>2022-11-16T13:00:53Z</time><name>PT5089</name></trkpt>
<trkpt lat="51.604599" lon="03.809749"><ele>4.2</ele><time>2022-11-16T13:00:54Z</time><name>PT5090</name></trkpt>
<trkpt lat="51.604595" lon="03.809735"><ele>4.2</ele><time>2022-11-16T13:00:55Z</time><name>PT5091</name></trkpt>
<trkpt lat="51.604590" lon="03.809722"><ele>4.1</ele><time>2022-11-16T13:00:56Z</time><name>PT5092</name></trkpt>
<trkpt lat="51.604586" lon="03.809709"><ele>4</ele><time>2022-11-16T13:00:57Z</time><name>PT5093</name></trkpt>
<trkpt lat="51.604582" lon="03.809695"><ele>3.9</ele><time>2022-11-16T13:00:58Z</time><name>PT5094</name></trkpt>
<trkpt lat="51.604578" lon="03.809682"><ele>3.7</ele><time>2022-11-16T13:00:59Z</time><name>PT5095</name></trkpt>
<trkpt lat="51.604575" lon="03.809671"><ele>3.6</ele><time>2022-11-16T13:01:00Z</time><name>PT5096</name></trkpt>
<trkpt lat="51.604572" lon="03.809656"><ele>3.5</ele><time>2022-11-16T13:01:01Z</time><name>PT5097</name></trkpt>
<trkpt lat="51.604569" lon="03.809639"><ele>3.6</ele><time>2022-11-16T13:01:02Z</time><name>PT5098</name></trkpt>
<trkpt lat="51.604567" lon="03.809622"><ele>3.5</ele><time>2022-11-16T13:01:03Z</time><name>PT5099</name></trkpt>
<trkpt lat="51.604565" lon="03.809603"><ele>3.5</ele><time>2022-11-16T13:01:04Z</time><name>PT5100</name></trkpt>
<trkpt lat="51.604561" lon="03.809587"><ele>3.4</ele><time>2022-11-16T13:01:05Z</time><name>PT5101</name></trkpt>
<trkpt lat="51.604558" lon="03.809568"><ele>3.4</ele><time>2022-11-16T13:01:06Z</time><name>PT5102</name></trkpt>
<trkpt lat="51.604555" lon="03.809550"><ele>3.4</ele><time>2022-11-16T13:01:07Z</time><name>PT5103</name></trkpt>
<trkpt lat="51.604552" lon="03.809531"><ele>3.4</ele><time>2022-11-16T13:01:08Z</time><name>PT5104</name></trkpt>
<trkpt lat="51.604549" lon="03.809516"><ele>3.5</ele><time>2022-11-16T13:01:09Z</time><name>PT5105</name></trkpt>
<trkpt lat="51.604545" lon="03.809499"><ele>3.3</ele><time>2022-11-16T13:01:10Z</time><name>PT5106</name></trkpt>
<trkpt lat="51.604542" lon="03.809484"><ele>3.3</ele><time>2022-11-16T13:01:11Z</time><name>PT5107</name></trkpt>
<trkpt lat="51.604539" lon="03.809468"><ele>3.1</ele><time>2022-11-16T13:01:12Z</time><name>PT5108</name></trkpt>
<trkpt lat="51.604537" lon="03.809453"><ele>3</ele><time>2022-11-16T13:01:13Z</time><name>PT5109</name></trkpt>
<trkpt lat="51.604536" lon="03.809438"><ele>2.9</ele><time>2022-11-16T13:01:14Z</time><name>PT5110</name></trkpt>
<trkpt lat="51.604534" lon="03.809422"><ele>2.8</ele><time>2022-11-16T13:01:15Z</time><name>PT5111</name></trkpt>
<trkpt lat="51.604531" lon="03.809405"><ele>2.7</ele><time>2022-11-16T13:01:16Z</time><name>PT5112</name></trkpt>
<trkpt lat="51.604528" lon="03.809388"><ele>2.5</ele><time>2022-11-16T13:01:17Z</time><name>PT5113</name></trkpt>
<trkpt lat="51.604525" lon="03.809371"><ele>2.6</ele><time>2022-11-16T13:01:18Z</time><name>PT5114</name></trkpt>
<trkpt lat="51.604523" lon="03.809355"><ele>2.6</ele><time>2022-11-16T13:01:19Z</time><name>PT5115</name></trkpt>
<trkpt lat="51.604521" lon="03.809342"><ele>2.5</ele><time>2022-11-16T13:01:20Z</time><name>PT5116</name></trkpt>
<trkpt lat="51.604518" lon="03.809328"><ele>2.4</ele><time>2022-11-16T13:01:21Z</time><name>PT5117</name></trkpt>
<trkpt lat="51.604514" lon="03.809313"><ele>2.4</ele><time>2022-11-16T13:01:22Z</time><name>PT5118</name></trkpt>
<trkpt lat="51.604511" lon="03.809296"><ele>2.1</ele><time>2022-11-16T13:01:23Z</time><name>PT5119</name></trkpt>
<trkpt lat="51.604508" lon="03.809279"><ele>2.2</ele><time>2022-11-16T13:01:24Z</time><name>PT5120</name></trkpt>
<trkpt lat="51.604506" lon="03.809265"><ele>2.2</ele><time>2022-11-16T13:01:25Z</time><name>PT5121</name></trkpt>
<trkpt lat="51.604504" lon="03.809249"><ele>2.1</ele><time>2022-11-16T13:01:26Z</time><name>PT5122</name></trkpt>
<trkpt lat="51.604502" lon="03.809234"><ele>2</ele><time>2022-11-16T13:01:27Z</time><name>PT5123</name></trkpt>
<trkpt lat="51.604499" lon="03.809217"><ele>1.9</ele><time>2022-11-16T13:01:28Z</time><name>PT5124</name></trkpt>
<trkpt lat="51.604496" lon="03.809201"><ele>1.7</ele><time>2022-11-16T13:01:29Z</time><name>PT5125</name></trkpt>
<trkpt lat="51.604495" lon="03.809184"><ele>1.6</ele><time>2022-11-16T13:01:30Z</time><name>PT5126</name></trkpt>
<trkpt lat="51.604494" lon="03.809167"><ele>1.7</ele><time>2022-11-16T13:01:31Z</time><name>PT5127</name></trkpt>
<trkpt lat="51.604492" lon="03.809152"><ele>1.8</ele><time>2022-11-16T13:01:32Z</time><name>PT5128</name></trkpt>
<trkpt lat="51.604490" lon="03.809138"><ele>1.9</ele><time>2022-11-16T13:01:33Z</time><name>PT5129</name></trkpt>
<trkpt lat="51.604487" lon="03.809124"><ele>2</ele><time>2022-11-16T13:01:34Z</time><name>PT5130</name></trkpt>
<trkpt lat="51.604484" lon="03.809109"><ele>2.1</ele><time>2022-11-16T13:01:35Z</time><name>PT5131</name></trkpt>
<trkpt lat="51.604480" lon="03.809094"><ele>2</ele><time>2022-11-16T13:01:36Z</time><name>PT5132</name></trkpt>
<trkpt lat="51.604477" lon="03.809079"><ele>1.9</ele><time>2022-11-16T13:01:37Z</time><name>PT5133</name></trkpt>
<trkpt lat="51.604474" lon="03.809065"><ele>1.7</ele><time>2022-11-16T13:01:38Z</time><name>PT5134</name></trkpt>
<trkpt lat="51.604472" lon="03.809049"><ele>1.4</ele><time>2022-11-16T13:01:39Z</time><name>PT5135</name></trkpt>
<trkpt lat="51.604470" lon="03.809034"><ele>1.3</ele><time>2022-11-16T13:01:40Z</time><name>PT5136</name></trkpt>
<trkpt lat="51.604467" lon="03.809018"><ele>1.2</ele><time>2022-11-16T13:01:41Z</time><name>PT5137</name></trkpt>
<trkpt lat="51.604464" lon="03.809003"><ele>1.2</ele><time>2022-11-16T13:01:42Z</time><name>PT5138</name></trkpt>
<trkpt lat="51.604462" lon="03.808987"><ele>1.1</ele><time>2022-11-16T13:01:43Z</time><name>PT5139</name></trkpt>
<trkpt lat="51.604460" lon="03.808971"><ele>1.1</ele><time>2022-11-16T13:01:44Z</time><name>PT5140</name></trkpt>
<trkpt lat="51.604456" lon="03.808957"><ele>1.2</ele><time>2022-11-16T13:01:45Z</time><name>PT5141</name></trkpt>
<trkpt lat="51.604453" lon="03.808944"><ele>1.2</ele><time>2022-11-16T13:01:46Z</time><name>PT5142</name></trkpt>
<trkpt lat="51.604451" lon="03.808930"><ele>0.9</ele><time>2022-11-16T13:01:47Z</time><name>PT5143</name></trkpt>
<trkpt lat="51.604448" lon="03.808916"><ele>1</ele><time>2022-11-16T13:01:48Z</time><name>PT5144</name></trkpt>
<trkpt lat="51.604444" lon="03.808900"><ele>1</ele><time>2022-11-16T13:01:49Z</time><name>PT5145</name></trkpt>
<trkpt lat="51.604442" lon="03.808884"><ele>1</ele><time>2022-11-16T13:01:50Z</time><name>PT5146</name></trkpt>
<trkpt lat="51.604439" lon="03.808869"><ele>0.9</ele><time>2022-11-16T13:01:51Z</time><name>PT5147</name></trkpt>
<trkpt lat="51.604436" lon="03.808854"><ele>0.9</ele><time>2022-11-16T13:01:52Z</time><name>PT5148</name></trkpt>
<trkpt lat="51.604433" lon="03.808838"><ele>0.9</ele><time>2022-11-16T13:01:53Z</time><name>PT5149</name></trkpt>
<trkpt lat="51.604432" lon="03.808823"><ele>0.6</ele><time>2022-11-16T13:01:54Z</time><name>PT5150</name></trkpt>
<trkpt lat="51.604431" lon="03.808808"><ele>0.6</ele><time>2022-11-16T13:01:55Z</time><name>PT5151</name></trkpt>
<trkpt lat="51.604431" lon="03.808792"><ele>0.4</ele><time>2022-11-16T13:01:56Z</time><name>PT5152</name></trkpt>
<trkpt lat="51.604431" lon="03.808774"><ele>0.4</ele><time>2022-11-16T13:01:57Z</time><name>PT5153</name></trkpt>
<trkpt lat="51.604430" lon="03.808755"><ele>0.4</ele><time>2022-11-16T13:01:58Z</time><name>PT5154</name></trkpt>
<trkpt lat="51.604429" lon="03.808735"><ele>0.4</ele><time>2022-11-16T13:01:59Z</time><name>PT5155</name></trkpt>
<trkpt lat="51.604428" lon="03.808717"><ele>0.4</ele><time>2022-11-16T13:02:00Z</time><name>PT5156</name></trkpt>
<trkpt lat="51.604425" lon="03.808698"><ele>0.4</ele><time>2022-11-16T13:02:01Z</time><name>PT5157</name></trkpt>
<trkpt lat="51.604423" lon="03.808681"><ele>0.5</ele><time>2022-11-16T13:02:02Z</time><name>PT5158</name></trkpt>
<trkpt lat="51.604421" lon="03.808665"><ele>0.5</ele><time>2022-11-16T13:02:03Z</time><name>PT5159</name></trkpt>
<trkpt lat="51.604419" lon="03.808649"><ele>0.6</ele><time>2022-11-16T13:02:04Z</time><name>PT5160</name></trkpt>
<trkpt lat="51.604417" lon="03.808632"><ele>0.6</ele><time>2022-11-16T13:02:05Z</time><name>PT5161</name></trkpt>
<trkpt lat="51.604415" lon="03.808615"><ele>0.6</ele><time>2022-11-16T13:02:06Z</time><name>PT5162</name></trkpt>
<trkpt lat="51.604414" lon="03.808599"><ele>0.6</ele><time>2022-11-16T13:02:07Z</time><name>PT5163</name></trkpt>
<trkpt lat="51.604412" lon="03.808580"><ele>0.5</ele><time>2022-11-16T13:02:08Z</time><name>PT5164</name></trkpt>
<trkpt lat="51.604411" lon="03.808561"><ele>0.4</ele><time>2022-11-16T13:02:09Z</time><name>PT5165</name></trkpt>
<trkpt lat="51.604410" lon="03.808544"><ele>0.5</ele><time>2022-11-16T13:02:10Z</time><name>PT5166</name></trkpt>
<trkpt lat="51.604408" lon="03.808528"><ele>0.6</ele><time>2022-11-16T13:02:11Z</time><name>PT5167</name></trkpt>
<trkpt lat="51.604407" lon="03.808510"><ele>0.7</ele><time>2022-11-16T13:02:12Z</time><name>PT5168</name></trkpt>
<trkpt lat="51.604405" lon="03.808494"><ele>0.7</ele><time>2022-11-16T13:02:13Z</time><name>PT5169</name></trkpt>
<trkpt lat="51.604403" lon="03.808478"><ele>0.8</ele><time>2022-11-16T13:02:14Z</time><name>PT5170</name></trkpt>
<trkpt lat="51.604402" lon="03.808463"><ele>0.6</ele><time>2022-11-16T13:02:15Z</time><name>PT5171</name></trkpt>
<trkpt lat="51.604402" lon="03.808446"><ele>0.5</ele><time>2022-11-16T13:02:16Z</time><name>PT5172</name></trkpt>
<trkpt lat="51.604403" lon="03.808428"><ele>0.5</ele><time>2022-11-16T13:02:17Z</time><name>PT5173</name></trkpt>
<trkpt lat="51.604403" lon="03.808411"><ele>0.8</ele><time>2022-11-16T13:02:18Z</time><name>PT5174</name></trkpt>
<trkpt lat="51.604403" lon="03.808396"><ele>0.8</ele><time>2022-11-16T13:02:19Z</time><name>PT5175</name></trkpt>
<trkpt lat="51.604402" lon="03.808382"><ele>0.8</ele><time>2022-11-16T13:02:20Z</time><name>PT5176</name></trkpt>
<trkpt lat="51.604400" lon="03.808365"><ele>0.7</ele><time>2022-11-16T13:02:21Z</time><name>PT5177</name></trkpt>
<trkpt lat="51.604398" lon="03.808348"><ele>0.8</ele><time>2022-11-16T13:02:22Z</time><name>PT5178</name></trkpt>
<trkpt lat="51.604397" lon="03.808330"><ele>0.5</ele><time>2022-11-16T13:02:23Z</time><name>PT5179</name></trkpt>
<trkpt lat="51.604397" lon="03.808312"><ele>0.4</ele><time>2022-11-16T13:02:24Z</time><name>PT5180</name></trkpt>
<trkpt lat="51.604397" lon="03.808296"><ele>0.5</ele><time>2022-11-16T13:02:25Z</time><name>PT5181</name></trkpt>
<trkpt lat="51.604398" lon="03.808283"><ele>0.6</ele><time>2022-11-16T13:02:26Z</time><name>PT5182</name></trkpt>
<trkpt lat="51.604398" lon="03.808265"><ele>0.4</ele><time>2022-11-16T13:02:27Z</time><name>PT5183</name></trkpt>
<trkpt lat="51.604400" lon="03.808247"><ele>0.5</ele><time>2022-11-16T13:02:28Z</time><name>PT5184</name></trkpt>
<trkpt lat="51.604403" lon="03.808229"><ele>0.7</ele><time>2022-11-16T13:02:29Z</time><name>PT5185</name></trkpt>
<trkpt lat="51.604403" lon="03.808213"><ele>0.5</ele><time>2022-11-16T13:02:30Z</time><name>PT5186</name></trkpt>
<trkpt lat="51.604403" lon="03.808198"><ele>0.7</ele><time>2022-11-16T13:02:31Z</time><name>PT5187</name></trkpt>
<trkpt lat="51.604401" lon="03.808180"><ele>0.8</ele><time>2022-11-16T13:02:32Z</time><name>PT5188</name></trkpt>
<trkpt lat="51.604399" lon="03.808163"><ele>0.8</ele><time>2022-11-16T13:02:33Z</time><name>PT5189</name></trkpt>
<trkpt lat="51.604398" lon="03.808146"><ele>0.8</ele><time>2022-11-16T13:02:34Z</time><name>PT5190</name></trkpt>
<trkpt lat="51.604398" lon="03.808131"><ele>0.8</ele><time>2022-11-16T13:02:35Z</time><name>PT5191</name></trkpt>
<trkpt lat="51.604400" lon="03.808117"><ele>0.7</ele><time>2022-11-16T13:02:36Z</time><name>PT5192</name></trkpt>
<trkpt lat="51.604401" lon="03.808102"><ele>0.5</ele><time>2022-11-16T13:02:37Z</time><name>PT5193</name></trkpt>
<trkpt lat="51.604400" lon="03.808087"><ele>0.4</ele><time>2022-11-16T13:02:38Z</time><name>PT5194</name></trkpt>
<trkpt lat="51.604399" lon="03.808069"><ele>0.4</ele><time>2022-11-16T13:02:39Z</time><name>PT5195</name></trkpt>
<trkpt lat="51.604398" lon="03.808052"><ele>0.3</ele><time>2022-11-16T13:02:40Z</time><name>PT5196</name></trkpt>
<trkpt lat="51.604396" lon="03.808032"><ele>0.1</ele><time>2022-11-16T13:02:41Z</time><name>PT5197</name></trkpt>
<trkpt lat="51.604395" lon="03.808014"><ele>0</ele><time>2022-11-16T13:02:42Z</time><name>PT5198</name></trkpt>
<trkpt lat="51.604395" lon="03.807996"><ele>0.1</ele><time>2022-11-16T13:02:43Z</time><name>PT5199</name></trkpt>
<trkpt lat="51.604394" lon="03.807980"><ele>0.1</ele><time>2022-11-16T13:02:44Z</time><name>PT5200</name></trkpt>
<trkpt lat="51.604394" lon="03.807963"><ele>0.1</ele><time>2022-11-16T13:02:45Z</time><name>PT5201</name></trkpt>
<trkpt lat="51.604395" lon="03.807946"><ele>0.2</ele><time>2022-11-16T13:02:46Z</time><name>PT5202</name></trkpt>
<trkpt lat="51.604395" lon="03.807930"><ele>0.4</ele><time>2022-11-16T13:02:47Z</time><name>PT5203</name></trkpt>
<trkpt lat="51.604396" lon="03.807913"><ele>0.4</ele><time>2022-11-16T13:02:48Z</time><name>PT5204</name></trkpt>
<trkpt lat="51.604397" lon="03.807896"><ele>0.4</ele><time>2022-11-16T13:02:49Z</time><name>PT5205</name></trkpt>
<trkpt lat="51.604395" lon="03.807879"><ele>0.3</ele><time>2022-11-16T13:02:50Z</time><name>PT5206</name></trkpt>
<trkpt lat="51.604394" lon="03.807863"><ele>0.1</ele><time>2022-11-16T13:02:51Z</time><name>PT5207</name></trkpt>
<trkpt lat="51.604393" lon="03.807846"><ele>0.1</ele><time>2022-11-16T13:02:52Z</time><name>PT5208</name></trkpt>
<trkpt lat="51.604391" lon="03.807830"><ele>0.2</ele><time>2022-11-16T13:02:53Z</time><name>PT5209</name></trkpt>
<trkpt lat="51.604389" lon="03.807814"><ele>0.4</ele><time>2022-11-16T13:02:54Z</time><name>PT5210</name></trkpt>
<trkpt lat="51.604388" lon="03.807798"><ele>0.5</ele><time>2022-11-16T13:02:55Z</time><name>PT5211</name></trkpt>
<trkpt lat="51.604389" lon="03.807781"><ele>0.7</ele><time>2022-11-16T13:02:56Z</time><name>PT5212</name></trkpt>
<trkpt lat="51.604391" lon="03.807766"><ele>0.7</ele><time>2022-11-16T13:02:57Z</time><name>PT5213</name></trkpt>
<trkpt lat="51.604391" lon="03.807751"><ele>0.6</ele><time>2022-11-16T13:02:58Z</time><name>PT5214</name></trkpt>
<trkpt lat="51.604390" lon="03.807735"><ele>0.4</ele><time>2022-11-16T13:02:59Z</time><name>PT5215</name></trkpt>
<trkpt lat="51.604390" lon="03.807718"><ele>0.4</ele><time>2022-11-16T13:03:00Z</time><name>PT5216</name></trkpt>
<trkpt lat="51.604389" lon="03.807701"><ele>0.3</ele><time>2022-11-16T13:03:01Z</time><name>PT5217</name></trkpt>
<trkpt lat="51.604388" lon="03.807684"><ele>0.5</ele><time>2022-11-16T13:03:02Z</time><name>PT5218</name></trkpt>
<trkpt lat="51.604386" lon="03.807664"><ele>0.4</ele><time>2022-11-16T13:03:03Z</time><name>PT5219</name></trkpt>
<trkpt lat="51.604386" lon="03.807647"><ele>0.7</ele><time>2022-11-16T13:03:04Z</time><name>PT5220</name></trkpt>
<trkpt lat="51.604388" lon="03.807633"><ele>0.7</ele><time>2022-11-16T13:03:05Z</time><name>PT5221</name></trkpt>
<trkpt lat="51.604389" lon="03.807620"><ele>0.6</ele><time>2022-11-16T13:03:06Z</time><name>PT5222</name></trkpt>
<trkpt lat="51.604390" lon="03.807606"><ele>0.7</ele><time>2022-11-16T13:03:07Z</time><name>PT5223</name></trkpt>
<trkpt lat="51.604391" lon="03.807592"><ele>0.9</ele><time>2022-11-16T13:03:08Z</time><name>PT5224</name></trkpt>
<trkpt lat="51.604390" lon="03.807576"><ele>0.6</ele><time>2022-11-16T13:03:09Z</time><name>PT5225</name></trkpt>
<trkpt lat="51.604389" lon="03.807558"><ele>0.6</ele><time>2022-11-16T13:03:10Z</time><name>PT5226</name></trkpt>
<trkpt lat="51.604388" lon="03.807539"><ele>0.6</ele><time>2022-11-16T13:03:11Z</time><name>PT5227</name></trkpt>
<trkpt lat="51.604387" lon="03.807521"><ele>0.4</ele><time>2022-11-16T13:03:12Z</time><name>PT5228</name></trkpt>
<trkpt lat="51.604385" lon="03.807507"><ele>0.4</ele><time>2022-11-16T13:03:13Z</time><name>PT5229</name></trkpt>
<trkpt lat="51.604386" lon="03.807491"><ele>0.5</ele><time>2022-11-16T13:03:14Z</time><name>PT5230</name></trkpt>
<trkpt lat="51.604387" lon="03.807474"><ele>0.4</ele><time>2022-11-16T13:03:15Z</time><name>PT5231</name></trkpt>
<trkpt lat="51.604389" lon="03.807457"><ele>0.6</ele><time>2022-11-16T13:03:16Z</time><name>PT5232</name></trkpt>
<trkpt lat="51.604390" lon="03.807443"><ele>0.9</ele><time>2022-11-16T13:03:17Z</time><name>PT5233</name></trkpt>
<trkpt lat="51.604390" lon="03.807426"><ele>0.7</ele><time>2022-11-16T13:03:18Z</time><name>PT5234</name></trkpt>
<trkpt lat="51.604389" lon="03.807409"><ele>0.6</ele><time>2022-11-16T13:03:19Z</time><name>PT5235</name></trkpt>
<trkpt lat="51.604388" lon="03.807392"><ele>0.6</ele><time>2022-11-16T13:03:20Z</time><name>PT5236</name></trkpt>
<trkpt lat="51.604388" lon="03.807376"><ele>0.6</ele><time>2022-11-16T13:03:21Z</time><name>PT5237</name></trkpt>
<trkpt lat="51.604389" lon="03.807360"><ele>0.5</ele><time>2022-11-16T13:03:22Z</time><name>PT5238</name></trkpt>
<trkpt lat="51.604390" lon="03.807344"><ele>0.5</ele><time>2022-11-16T13:03:23Z</time><name>PT5239</name></trkpt>
<trkpt lat="51.604390" lon="03.807327"><ele>0.5</ele><time>2022-11-16T13:03:24Z</time><name>PT5240</name></trkpt>
<trkpt lat="51.604388" lon="03.807312"><ele>0.6</ele><time>2022-11-16T13:03:25Z</time><name>PT5241</name></trkpt>
<trkpt lat="51.604387" lon="03.807293"><ele>0.5</ele><time>2022-11-16T13:03:26Z</time><name>PT5242</name></trkpt>
<trkpt lat="51.604386" lon="03.807275"><ele>0.5</ele><time>2022-11-16T13:03:27Z</time><name>PT5243</name></trkpt>
<trkpt lat="51.604385" lon="03.807260"><ele>0.4</ele><time>2022-11-16T13:03:28Z</time><name>PT5244</name></trkpt>
<trkpt lat="51.604386" lon="03.807243"><ele>0.6</ele><time>2022-11-16T13:03:29Z</time><name>PT5245</name></trkpt>
<trkpt lat="51.604387" lon="03.807226"><ele>0.4</ele><time>2022-11-16T13:03:30Z</time><name>PT5246</name></trkpt>
<trkpt lat="51.604388" lon="03.807208"><ele>0.3</ele><time>2022-11-16T13:03:31Z</time><name>PT5247</name></trkpt>
<trkpt lat="51.604387" lon="03.807191"><ele>0.4</ele><time>2022-11-16T13:03:32Z</time><name>PT5248</name></trkpt>
<trkpt lat="51.604387" lon="03.807175"><ele>0.3</ele><time>2022-11-16T13:03:33Z</time><name>PT5249</name></trkpt>
<trkpt lat="51.604387" lon="03.807158"><ele>0.3</ele><time>2022-11-16T13:03:34Z</time><name>PT5250</name></trkpt>
<trkpt lat="51.604388" lon="03.807143"><ele>0.4</ele><time>2022-11-16T13:03:35Z</time><name>PT5251</name></trkpt>
<trkpt lat="51.604390" lon="03.807128"><ele>0.6</ele><time>2022-11-16T13:03:36Z</time><name>PT5252</name></trkpt>
<trkpt lat="51.604393" lon="03.807112"><ele>0.5</ele><time>2022-11-16T13:03:37Z</time><name>PT5253</name></trkpt>
<trkpt lat="51.604397" lon="03.807096"><ele>0.7</ele><time>2022-11-16T13:03:38Z</time><name>PT5254</name></trkpt>
<trkpt lat="51.604398" lon="03.807080"><ele>0.5</ele><time>2022-11-16T13:03:39Z</time><name>PT5255</name></trkpt>
<trkpt lat="51.604396" lon="03.807064"><ele>0.4</ele><time>2022-11-16T13:03:40Z</time><name>PT5256</name></trkpt>
<trkpt lat="51.604393" lon="03.807047"><ele>0.4</ele><time>2022-11-16T13:03:41Z</time><name>PT5257</name></trkpt>
<trkpt lat="51.604392" lon="03.807032"><ele>0.4</ele><time>2022-11-16T13:03:42Z</time><name>PT5258</name></trkpt>
<trkpt lat="51.604392" lon="03.807016"><ele>0.4</ele><time>2022-11-16T13:03:43Z</time><name>PT5259</name></trkpt>
<trkpt lat="51.604393" lon="03.807000"><ele>0.4</ele><time>2022-11-16T13:03:44Z</time><name>PT5260</name></trkpt>
<trkpt lat="51.604393" lon="03.806984"><ele>0.5</ele><time>2022-11-16T13:03:45Z</time><name>PT5261</name></trkpt>
<trkpt lat="51.604393" lon="03.806969"><ele>0.5</ele><time>2022-11-16T13:03:46Z</time><name>PT5262</name></trkpt>
<trkpt lat="51.604393" lon="03.806953"><ele>0.4</ele><time>2022-11-16T13:03:47Z</time><name>PT5263</name></trkpt>
<trkpt lat="51.604391" lon="03.806941"><ele>0.4</ele><time>2022-11-16T13:03:48Z</time><name>PT5264</name></trkpt>
<trkpt lat="51.604392" lon="03.806929"><ele>0.6</ele><time>2022-11-16T13:03:49Z</time><name>PT5265</name></trkpt>
<trkpt lat="51.604393" lon="03.806916"><ele>0.8</ele><time>2022-11-16T13:03:50Z</time><name>PT5266</name></trkpt>
<trkpt lat="51.604394" lon="03.806901"><ele>0.8</ele><time>2022-11-16T13:03:51Z</time><name>PT5267</name></trkpt>
<trkpt lat="51.604393" lon="03.806886"><ele>0.9</ele><time>2022-11-16T13:03:52Z</time><name>PT5268</name></trkpt>
<trkpt lat="51.604393" lon="03.806873"><ele>0.9</ele><time>2022-11-16T13:03:53Z</time><name>PT5269</name></trkpt>
<trkpt lat="51.604393" lon="03.806861"><ele>0.6</ele><time>2022-11-16T13:03:54Z</time><name>PT5270</name></trkpt>
<trkpt lat="51.604395" lon="03.806845"><ele>0.6</ele><time>2022-11-16T13:03:55Z</time><name>PT5271</name></trkpt>
<trkpt lat="51.604396" lon="03.806830"><ele>0.7</ele><time>2022-11-16T13:03:56Z</time><name>PT5272</name></trkpt>
<trkpt lat="51.604396" lon="03.806813"><ele>0.6</ele><time>2022-11-16T13:03:57Z</time><name>PT5273</name></trkpt>
<trkpt lat="51.604396" lon="03.806798"><ele>0.5</ele><time>2022-11-16T13:03:58Z</time><name>PT5274</name></trkpt>
<trkpt lat="51.604396" lon="03.806783"><ele>0.7</ele><time>2022-11-16T13:03:59Z</time><name>PT5275</name></trkpt>
<trkpt lat="51.604396" lon="03.806768"><ele>0.8</ele><time>2022-11-16T13:04:00Z</time><name>PT5276</name></trkpt>
<trkpt lat="51.604398" lon="03.806754"><ele>0.7</ele><time>2022-11-16T13:04:01Z</time><name>PT5277</name></trkpt>
<trkpt lat="51.604400" lon="03.806739"><ele>0.6</ele><time>2022-11-16T13:04:02Z</time><name>PT5278</name></trkpt>
<trkpt lat="51.604401" lon="03.806724"><ele>0.6</ele><time>2022-11-16T13:04:03Z</time><name>PT5279</name></trkpt>
<trkpt lat="51.604402" lon="03.806710"><ele>0.6</ele><time>2022-11-16T13:04:04Z</time><name>PT5280</name></trkpt>
<trkpt lat="51.604402" lon="03.806694"><ele>0.4</ele><time>2022-11-16T13:04:05Z</time><name>PT5281</name></trkpt>
<trkpt lat="51.604401" lon="03.806676"><ele>0.4</ele><time>2022-11-16T13:04:06Z</time><name>PT5282</name></trkpt>
<trkpt lat="51.604401" lon="03.806659"><ele>0.4</ele><time>2022-11-16T13:04:07Z</time><name>PT5283</name></trkpt>
<trkpt lat="51.604401" lon="03.806644"><ele>0.4</ele><time>2022-11-16T13:04:08Z</time><name>PT5284</name></trkpt>
<trkpt lat="51.604404" lon="03.806628"><ele>0.4</ele><time>2022-11-16T13:04:09Z</time><name>PT5285</name></trkpt>
<trkpt lat="51.604406" lon="03.806612"><ele>0.4</ele><time>2022-11-16T13:04:10Z</time><name>PT5286</name></trkpt>
<trkpt lat="51.604408" lon="03.806595"><ele>0.4</ele><time>2022-11-16T13:04:11Z</time><name>PT5287</name></trkpt>
<trkpt lat="51.604408" lon="03.806578"><ele>0.4</ele><time>2022-11-16T13:04:12Z</time><name>PT5288</name></trkpt>
<trkpt lat="51.604409" lon="03.806561"><ele>0.3</ele><time>2022-11-16T13:04:13Z</time><name>PT5289</name></trkpt>
<trkpt lat="51.604409" lon="03.806547"><ele>0.4</ele><time>2022-11-16T13:04:14Z</time><name>PT5290</name></trkpt>
<trkpt lat="51.604410" lon="03.806533"><ele>0.4</ele><time>2022-11-16T13:04:15Z</time><name>PT5291</name></trkpt>
<trkpt lat="51.604410" lon="03.806516"><ele>0.5</ele><time>2022-11-16T13:04:16Z</time><name>PT5292</name></trkpt>
<trkpt lat="51.604411" lon="03.806497"><ele>0.4</ele><time>2022-11-16T13:04:17Z</time><name>PT5293</name></trkpt>
<trkpt lat="51.604413" lon="03.806481"><ele>0.6</ele><time>2022-11-16T13:04:18Z</time><name>PT5294</name></trkpt>
<trkpt lat="51.604415" lon="03.806463"><ele>0.7</ele><time>2022-11-16T13:04:19Z</time><name>PT5295</name></trkpt>
<trkpt lat="51.604418" lon="03.806443"><ele>0.9</ele><time>2022-11-16T13:04:20Z</time><name>PT5296</name></trkpt>
<trkpt lat="51.604418" lon="03.806426"><ele>1</ele><time>2022-11-16T13:04:21Z</time><name>PT5297</name></trkpt>
<trkpt lat="51.604421" lon="03.806409"><ele>1.1</ele><time>2022-11-16T13:04:22Z</time><name>PT5298</name></trkpt>
<trkpt lat="51.604424" lon="03.806390"><ele>1</ele><time>2022-11-16T13:04:23Z</time><name>PT5299</name></trkpt>
<trkpt lat="51.604426" lon="03.806372"><ele>0.9</ele><time>2022-11-16T13:04:24Z</time><name>PT5300</name></trkpt>
<trkpt lat="51.604424" lon="03.806357"><ele>0.8</ele><time>2022-11-16T13:04:25Z</time><name>PT5301</name></trkpt>
<trkpt lat="51.604424" lon="03.806342"><ele>0.9</ele><time>2022-11-16T13:04:26Z</time><name>PT5302</name></trkpt>
<trkpt lat="51.604426" lon="03.806332"><ele>0.6</ele><time>2022-11-16T13:04:27Z</time><name>PT5303</name></trkpt>
<trkpt lat="51.604428" lon="03.806321"><ele>0.4</ele><time>2022-11-16T13:04:28Z</time><name>PT5304</name></trkpt>
<trkpt lat="51.604429" lon="03.806303"><ele>0.4</ele><time>2022-11-16T13:04:29Z</time><name>PT5305</name></trkpt>
<trkpt lat="51.604432" lon="03.806283"><ele>0.4</ele><time>2022-11-16T13:04:30Z</time><name>PT5306</name></trkpt>
<trkpt lat="51.604436" lon="03.806267"><ele>0.3</ele><time>2022-11-16T13:04:31Z</time><name>PT5307</name></trkpt>
<trkpt lat="51.604439" lon="03.806254"><ele>0.2</ele><time>2022-11-16T13:04:32Z</time><name>PT5308</name></trkpt>
<trkpt lat="51.604441" lon="03.806243"><ele>0.4</ele><time>2022-11-16T13:04:33Z</time><name>PT5309</name></trkpt>
<trkpt lat="51.604443" lon="03.806236"><ele>0.4</ele><time>2022-11-16T13:04:34Z</time><name>PT5310</name></trkpt>
<trkpt lat="51.604445" lon="03.806220"><ele>0.3</ele><time>2022-11-16T13:04:35Z</time><name>PT5311</name></trkpt>
<trkpt lat="51.604448" lon="03.806199"><ele>0.3</ele><time>2022-11-16T13:04:36Z</time><name>PT5312</name></trkpt>
<trkpt lat="51.604451" lon="03.806176"><ele>0.6</ele><time>2022-11-16T13:04:37Z</time><name>PT5313</name></trkpt>
<trkpt lat="51.604457" lon="03.806156"><ele>0.6</ele><time>2022-11-16T13:04:38Z</time><name>PT5314</name></trkpt>
<trkpt lat="51.604461" lon="03.806144"><ele>0.8</ele><time>2022-11-16T13:04:39Z</time><name>PT5315</name></trkpt>
<trkpt lat="51.604464" lon="03.806140"><ele>0.8</ele><time>2022-11-16T13:04:40Z</time><name>PT5316</name></trkpt>
<trkpt lat="51.604466" lon="03.806136"><ele>1.1</ele><time>2022-11-16T13:04:41Z</time><name>PT5317</name></trkpt>
<trkpt lat="51.604469" lon="03.806126"><ele>1</ele><time>2022-11-16T13:04:42Z</time><name>PT5318</name></trkpt>
<trkpt lat="51.604470" lon="03.806105"><ele>1.2</ele><time>2022-11-16T13:04:43Z</time><name>PT5319</name></trkpt>
<trkpt lat="51.604471" lon="03.806084"><ele>1.3</ele><time>2022-11-16T13:04:44Z</time><name>PT5320</name></trkpt>
<trkpt lat="51.604472" lon="03.806069"><ele>1.4</ele><time>2022-11-16T13:04:45Z</time><name>PT5321</name></trkpt>
<trkpt lat="51.604477" lon="03.806064"><ele>1.4</ele><time>2022-11-16T13:04:46Z</time><name>PT5322</name></trkpt>
<trkpt lat="51.604479" lon="03.806051"><ele>1.6</ele><time>2022-11-16T13:04:47Z</time><name>PT5323</name></trkpt>
<trkpt lat="51.604479" lon="03.806035"><ele>1.6</ele><time>2022-11-16T13:04:48Z</time><name>PT5324</name></trkpt>
<trkpt lat="51.604481" lon="03.806020"><ele>1.8</ele><time>2022-11-16T13:04:49Z</time><name>PT5325</name></trkpt>
<trkpt lat="51.604483" lon="03.806006"><ele>2.1</ele><time>2022-11-16T13:04:50Z</time><name>PT5326</name></trkpt>
<trkpt lat="51.604485" lon="03.805993"><ele>2.3</ele><time>2022-11-16T13:04:51Z</time><name>PT5327</name></trkpt>
<trkpt lat="51.604488" lon="03.805984"><ele>2.3</ele><time>2022-11-16T13:04:52Z</time><name>PT5328</name></trkpt>
<trkpt lat="51.604490" lon="03.805980"><ele>2.5</ele><time>2022-11-16T13:04:53Z</time><name>PT5329</name></trkpt>
<trkpt lat="51.604493" lon="03.805966"><ele>2.4</ele><time>2022-11-16T13:04:54Z</time><name>PT5330</name></trkpt>
<trkpt lat="51.604497" lon="03.805945"><ele>2.3</ele><time>2022-11-16T13:04:55Z</time><name>PT5331</name></trkpt>
<trkpt lat="51.604500" lon="03.805928"><ele>2.2</ele><time>2022-11-16T13:04:56Z</time><name>PT5332</name></trkpt>
<trkpt lat="51.604504" lon="03.805920"><ele>2.1</ele><time>2022-11-16T13:04:57Z</time><name>PT5333</name></trkpt>
<trkpt lat="51.604507" lon="03.805915"><ele>2.1</ele><time>2022-11-16T13:04:58Z</time><name>PT5334</name></trkpt>
<trkpt lat="51.604509" lon="03.805907"><ele>2.4</ele><time>2022-11-16T13:04:59Z</time><name>PT5335</name></trkpt>
<trkpt lat="51.604511" lon="03.805889"><ele>2.5</ele><time>2022-11-16T13:05:00Z</time><name>PT5336</name></trkpt>
<trkpt lat="51.604514" lon="03.805864"><ele>2.6</ele><time>2022-11-16T13:05:01Z</time><name>PT5337</name></trkpt>
<trkpt lat="51.604520" lon="03.805842"><ele>3</ele><time>2022-11-16T13:05:02Z</time><name>PT5338</name></trkpt>
<trkpt lat="51.604524" lon="03.805826"><ele>3</ele><time>2022-11-16T13:05:03Z</time><name>PT5339</name></trkpt>
<trkpt lat="51.604524" lon="03.805816"><ele>3</ele><time>2022-11-16T13:05:04Z</time><name>PT5340</name></trkpt>
<trkpt lat="51.604527" lon="03.805814"><ele>3.1</ele><time>2022-11-16T13:05:05Z</time><name>PT5341</name></trkpt>
<trkpt lat="51.604528" lon="03.805808"><ele>3.4</ele><time>2022-11-16T13:05:06Z</time><name>PT5342</name></trkpt>
<trkpt lat="51.604531" lon="03.805786"><ele>3.4</ele><time>2022-11-16T13:05:07Z</time><name>PT5343</name></trkpt>
<trkpt lat="51.604537" lon="03.805762"><ele>3.5</ele><time>2022-11-16T13:05:08Z</time><name>PT5344</name></trkpt>
<trkpt lat="51.604539" lon="03.805749"><ele>3.6</ele><time>2022-11-16T13:05:09Z</time><name>PT5345</name></trkpt>
<trkpt lat="51.604542" lon="03.805746"><ele>3.7</ele><time>2022-11-16T13:05:10Z</time><name>PT5346</name></trkpt>
<trkpt lat="51.604543" lon="03.805736"><ele>4.1</ele><time>2022-11-16T13:05:11Z</time><name>PT5347</name></trkpt>
<trkpt lat="51.604545" lon="03.805713"><ele>4.3</ele><time>2022-11-16T13:05:12Z</time><name>PT5348</name></trkpt>
<trkpt lat="51.604547" lon="03.805689"><ele>4.4</ele><time>2022-11-16T13:05:13Z</time><name>PT5349</name></trkpt>
<trkpt lat="51.604549" lon="03.805675"><ele>4.4</ele><time>2022-11-16T13:05:14Z</time><name>PT5350</name></trkpt>
<trkpt lat="51.604550" lon="03.805669"><ele>4.5</ele><time>2022-11-16T13:05:15Z</time><name>PT5351</name></trkpt>
<trkpt lat="51.604552" lon="03.805660"><ele>4.2</ele><time>2022-11-16T13:05:16Z</time><name>PT5352</name></trkpt>
<trkpt lat="51.604555" lon="03.805643"><ele>4.1</ele><time>2022-11-16T13:05:17Z</time><name>PT5353</name></trkpt>
<trkpt lat="51.604558" lon="03.805622"><ele>4.1</ele><time>2022-11-16T13:05:18Z</time><name>PT5354</name></trkpt>
<trkpt lat="51.604560" lon="03.805605"><ele>4.1</ele><time>2022-11-16T13:05:19Z</time><name>PT5355</name></trkpt>
<trkpt lat="51.604562" lon="03.805599"><ele>4.1</ele><time>2022-11-16T13:05:20Z</time><name>PT5356</name></trkpt>
<trkpt lat="51.604563" lon="03.805598"><ele>4.2</ele><time>2022-11-16T13:05:21Z</time><name>PT5357</name></trkpt>
<trkpt lat="51.604564" lon="03.805585"><ele>4.3</ele><time>2022-11-16T13:05:22Z</time><name>PT5358</name></trkpt>
<trkpt lat="51.604566" lon="03.805562"><ele>4.4</ele><time>2022-11-16T13:05:23Z</time><name>PT5359</name></trkpt>
<trkpt lat="51.604568" lon="03.805545"><ele>4.6</ele><time>2022-11-16T13:05:24Z</time><name>PT5360</name></trkpt>
<trkpt lat="51.604571" lon="03.805533"><ele>4.6</ele><time>2022-11-16T13:05:25Z</time><name>PT5361</name></trkpt>
<trkpt lat="51.604573" lon="03.805526"><ele>4.6</ele><time>2022-11-16T13:05:26Z</time><name>PT5362</name></trkpt>
<trkpt lat="51.604576" lon="03.805514"><ele>4.7</ele><time>2022-11-16T13:05:27Z</time><name>PT5363</name></trkpt>
<trkpt lat="51.604580" lon="03.805495"><ele>4.6</ele><time>2022-11-16T13:05:28Z</time><name>PT5364</name></trkpt>
<trkpt lat="51.604583" lon="03.805469"><ele>4.6</ele><time>2022-11-16T13:05:29Z</time><name>PT5365</name></trkpt>
<trkpt lat="51.604587" lon="03.805451"><ele>4.8</ele><time>2022-11-16T13:05:30Z</time><name>PT5366</name></trkpt>
<trkpt lat="51.604589" lon="03.805440"><ele>4.7</ele><time>2022-11-16T13:05:31Z</time><name>PT5367</name></trkpt>
<trkpt lat="51.604592" lon="03.805437"><ele>5.1</ele><time>2022-11-16T13:05:32Z</time><name>PT5368</name></trkpt>
<trkpt lat="51.604594" lon="03.805427"><ele>5.1</ele><time>2022-11-16T13:05:33Z</time><name>PT5369</name></trkpt>
<trkpt lat="51.604597" lon="03.805402"><ele>5.2</ele><time>2022-11-16T13:05:34Z</time><name>PT5370</name></trkpt>
<trkpt lat="51.604603" lon="03.805378"><ele>5.2</ele><time>2022-11-16T13:05:35Z</time><name>PT5371</name></trkpt>
<trkpt lat="51.604607" lon="03.805362"><ele>5.6</ele><time>2022-11-16T13:05:36Z</time><name>PT5372</name></trkpt>
<trkpt lat="51.604608" lon="03.805356"><ele>5.5</ele><time>2022-11-16T13:05:37Z</time><name>PT5373</name></trkpt>
<trkpt lat="51.604609" lon="03.805349"><ele>5.6</ele><time>2022-11-16T13:05:38Z</time><name>PT5374</name></trkpt>
<trkpt lat="51.604611" lon="03.805336"><ele>5.9</ele><time>2022-11-16T13:05:39Z</time><name>PT5375</name></trkpt>
<trkpt lat="51.604613" lon="03.805317"><ele>6.1</ele><time>2022-11-16T13:05:40Z</time><name>PT5376</name></trkpt>
<trkpt lat="51.604619" lon="03.805296"><ele>6.1</ele><time>2022-11-16T13:05:41Z</time><name>PT5377</name></trkpt>
<trkpt lat="51.604623" lon="03.805279"><ele>6.4</ele><time>2022-11-16T13:05:42Z</time><name>PT5378</name></trkpt>
<trkpt lat="51.604626" lon="03.805269"><ele>6.5</ele><time>2022-11-16T13:05:43Z</time><name>PT5379</name></trkpt>
<trkpt lat="51.604628" lon="03.805262"><ele>6.5</ele><time>2022-11-16T13:05:44Z</time><name>PT5380</name></trkpt>
<trkpt lat="51.604629" lon="03.805257"><ele>6.5</ele><time>2022-11-16T13:05:45Z</time><name>PT5381</name></trkpt>
<trkpt lat="51.604631" lon="03.805245"><ele>6.6</ele><time>2022-11-16T13:05:46Z</time><name>PT5382</name></trkpt>
<trkpt lat="51.604634" lon="03.805233"><ele>6.4</ele><time>2022-11-16T13:05:47Z</time><name>PT5383</name></trkpt>
<trkpt lat="51.604637" lon="03.805224"><ele>6.6</ele><time>2022-11-16T13:05:48Z</time><name>PT5384</name></trkpt>
<trkpt lat="51.604639" lon="03.805215"><ele>6.6</ele><time>2022-11-16T13:05:49Z</time><name>PT5385</name></trkpt>
<trkpt lat="51.604642" lon="03.805204"><ele>6.5</ele><time>2022-11-16T13:05:50Z</time><name>PT5386</name></trkpt>
<trkpt lat="51.604647" lon="03.805185"><ele>6.4</ele><time>2022-11-16T13:05:51Z</time><name>PT5387</name></trkpt>
<trkpt lat="51.604654" lon="03.805165"><ele>6.6</ele><time>2022-11-16T13:05:52Z</time><name>PT5388</name></trkpt>
<trkpt lat="51.604659" lon="03.805151"><ele>6.5</ele><time>2022-11-16T13:05:53Z</time><name>PT5389</name></trkpt>
<trkpt lat="51.604660" lon="03.805142"><ele>6.8</ele><time>2022-11-16T13:05:54Z</time><name>PT5390</name></trkpt>
<trkpt lat="51.604660" lon="03.805135"><ele>7.1</ele><time>2022-11-16T13:05:55Z</time><name>PT5391</name></trkpt>
<trkpt lat="51.604661" lon="03.805119"><ele>7.4</ele><time>2022-11-16T13:05:56Z</time><name>PT5392</name></trkpt>
<trkpt lat="51.604666" lon="03.805102"><ele>7.4</ele><time>2022-11-16T13:05:57Z</time><name>PT5393</name></trkpt>
<trkpt lat="51.604670" lon="03.805094"><ele>7.6</ele><time>2022-11-16T13:05:58Z</time><name>PT5394</name></trkpt>
<trkpt lat="51.604673" lon="03.805085"><ele>7.5</ele><time>2022-11-16T13:05:59Z</time><name>PT5395</name></trkpt>
<trkpt lat="51.604676" lon="03.805075"><ele>7.5</ele><time>2022-11-16T13:06:00Z</time><name>PT5396</name></trkpt>
<trkpt lat="51.604680" lon="03.805057"><ele>7.2</ele><time>2022-11-16T13:06:01Z</time><name>PT5397</name></trkpt>
<trkpt lat="51.604684" lon="03.805035"><ele>7.5</ele><time>2022-11-16T13:06:02Z</time><name>PT5398</name></trkpt>
<trkpt lat="51.604688" lon="03.805018"><ele>7.6</ele><time>2022-11-16T13:06:03Z</time><name>PT5399</name></trkpt>
<trkpt lat="51.604690" lon="03.805005"><ele>7.6</ele><time>2022-11-16T13:06:04Z</time><name>PT5400</name></trkpt>
<trkpt lat="51.604693" lon="03.804999"><ele>7.8</ele><time>2022-11-16T13:06:05Z</time><name>PT5401</name></trkpt>
<trkpt lat="51.604695" lon="03.804992"><ele>8.2</ele><time>2022-11-16T13:06:06Z</time><name>PT5402</name></trkpt>
<trkpt lat="51.604697" lon="03.804978"><ele>8.1</ele><time>2022-11-16T13:06:07Z</time><name>PT5403</name></trkpt>
<trkpt lat="51.604700" lon="03.804953"><ele>8</ele><time>2022-11-16T13:06:08Z</time><name>PT5404</name></trkpt>
<trkpt lat="51.604706" lon="03.804928"><ele>8.1</ele><time>2022-11-16T13:06:09Z</time><name>PT5405</name></trkpt>
<trkpt lat="51.604712" lon="03.804911"><ele>7.9</ele><time>2022-11-16T13:06:10Z</time><name>PT5406</name></trkpt>
<trkpt lat="51.604715" lon="03.804902"><ele>7.7</ele><time>2022-11-16T13:06:11Z</time><name>PT5407</name></trkpt>
<trkpt lat="51.604718" lon="03.804898"><ele>7.7</ele><time>2022-11-16T13:06:12Z</time><name>PT5408</name></trkpt>
<trkpt lat="51.604721" lon="03.804893"><ele>7.8</ele><time>2022-11-16T13:06:13Z</time><name>PT5409</name></trkpt>
<trkpt lat="51.604726" lon="03.804877"><ele>7.9</ele><time>2022-11-16T13:06:14Z</time><name>PT5410</name></trkpt>
<trkpt lat="51.604733" lon="03.804853"><ele>8.2</ele><time>2022-11-16T13:06:16Z</time><name>PT5411</name></trkpt>
<trkpt lat="51.604740" lon="03.804833"><ele>8.3</ele><time>2022-11-16T13:06:16Z</time><name>PT5412</name></trkpt>
<trkpt lat="51.604744" lon="03.804820"><ele>8.6</ele><time>2022-11-16T13:06:17Z</time><name>PT5413</name></trkpt>
<trkpt lat="51.604746" lon="03.804812"><ele>8.6</ele><time>2022-11-16T13:06:18Z</time><name>PT5414</name></trkpt>
<trkpt lat="51.604747" lon="03.804806"><ele>8.5</ele><time>2022-11-16T13:06:19Z</time><name>PT5415</name></trkpt>
<trkpt lat="51.604750" lon="03.804795"><ele>8.8</ele><time>2022-11-16T13:06:20Z</time><name>PT5416</name></trkpt>
<trkpt lat="51.604755" lon="03.804773"><ele>8.7</ele><time>2022-11-16T13:06:21Z</time><name>PT5417</name></trkpt>
<trkpt lat="51.604759" lon="03.804754"><ele>8.8</ele><time>2022-11-16T13:06:22Z</time><name>PT5418</name></trkpt>
<trkpt lat="51.604762" lon="03.804743"><ele>8.7</ele><time>2022-11-16T13:06:23Z</time><name>PT5419</name></trkpt>
<trkpt lat="51.604768" lon="03.804729"><ele>8.8</ele><time>2022-11-16T13:06:24Z</time><name>PT5420</name></trkpt>
<trkpt lat="51.604772" lon="03.804713"><ele>8.7</ele><time>2022-11-16T13:06:25Z</time><name>PT5421</name></trkpt>
<trkpt lat="51.604774" lon="03.804697"><ele>8.7</ele><time>2022-11-16T13:06:26Z</time><name>PT5422</name></trkpt>
<trkpt lat="51.604776" lon="03.804682"><ele>8.5</ele><time>2022-11-16T13:06:27Z</time><name>PT5423</name></trkpt>
<trkpt lat="51.604777" lon="03.804667"><ele>8.5</ele><time>2022-11-16T13:06:28Z</time><name>PT5424</name></trkpt>
<trkpt lat="51.604780" lon="03.804655"><ele>8.2</ele><time>2022-11-16T13:06:29Z</time><name>PT5425</name></trkpt>
<trkpt lat="51.604784" lon="03.804644"><ele>8</ele><time>2022-11-16T13:06:31Z</time><name>PT5426</name></trkpt>
<trkpt lat="51.604787" lon="03.804632"><ele>7.9</ele><time>2022-11-16T13:06:31Z</time><name>PT5427</name></trkpt>
<trkpt lat="51.604790" lon="03.804620"><ele>7.9</ele><time>2022-11-16T13:06:32Z</time><name>PT5428</name></trkpt>
<trkpt lat="51.604793" lon="03.804609"><ele>7.7</ele><time>2022-11-16T13:06:33Z</time><name>PT5429</name></trkpt>
<trkpt lat="51.604795" lon="03.804598"><ele>7.7</ele><time>2022-11-16T13:06:34Z</time><name>PT5430</name></trkpt>
<trkpt lat="51.604798" lon="03.804586"><ele>7.6</ele><time>2022-11-16T13:06:35Z</time><name>PT5431</name></trkpt>
<trkpt lat="51.604801" lon="03.804579"><ele>7.4</ele><time>2022-11-16T13:06:36Z</time><name>PT5432</name></trkpt>
<trkpt lat="51.604802" lon="03.804582"><ele>7.2</ele><time>2022-11-16T13:06:37Z</time><name>PT5433</name></trkpt>
<trkpt lat="51.604803" lon="03.804584"><ele>7.1</ele><time>2022-11-16T13:06:38Z</time><name>PT5434</name></trkpt>
<trkpt lat="51.604803" lon="03.804584"><ele>7</ele><time>2022-11-16T13:06:39Z</time><name>PT5435</name></trkpt>
<trkpt lat="51.604803" lon="03.804584"><ele>6.9</ele><time>2022-11-16T13:06:40Z</time><name>PT5436</name></trkpt>
<trkpt lat="51.604803" lon="03.804583"><ele>6.9</ele><time>2022-11-16T13:06:41Z</time><name>PT5437</name></trkpt>
<trkpt lat="51.604802" lon="03.804589"><ele>7.8</ele><time>2022-11-16T13:06:59Z</time><name>PT5438</name></trkpt>
<trkpt lat="51.604803" lon="03.804585"><ele>8</ele><time>2022-11-16T13:07:00Z</time><name>PT5439</name></trkpt>
<trkpt lat="51.604805" lon="03.804577"><ele>8.1</ele><time>2022-11-16T13:07:01Z</time><name>PT5440</name></trkpt>
<trkpt lat="51.604808" lon="03.804569"><ele>8.2</ele><time>2022-11-16T13:07:02Z</time><name>PT5441</name></trkpt>
<trkpt lat="51.604811" lon="03.804559"><ele>7.9</ele><time>2022-11-16T13:07:03Z</time><name>PT5442</name></trkpt>
<trkpt lat="51.604815" lon="03.804551"><ele>7.9</ele><time>2022-11-16T13:07:04Z</time><name>PT5443</name></trkpt>
<trkpt lat="51.604816" lon="03.804546"><ele>8</ele><time>2022-11-16T13:07:05Z</time><name>PT5444</name></trkpt>
<trkpt lat="51.604819" lon="03.804542"><ele>7.9</ele><time>2022-11-16T13:07:06Z</time><name>PT5445</name></trkpt>
<trkpt lat="51.604820" lon="03.804533"><ele>8</ele><time>2022-11-16T13:07:07Z</time><name>PT5446</name></trkpt>
<trkpt lat="51.604822" lon="03.804526"><ele>8</ele><time>2022-11-16T13:07:08Z</time><name>PT5447</name></trkpt>
<trkpt lat="51.604823" lon="03.804518"><ele>7.9</ele><time>2022-11-16T13:07:09Z</time><name>PT5448</name></trkpt>
<trkpt lat="51.604824" lon="03.804510"><ele>7.8</ele><time>2022-11-16T13:07:10Z</time><name>PT5449</name></trkpt>
<trkpt lat="51.604825" lon="03.804499"><ele>7.7</ele><time>2022-11-16T13:07:11Z</time><name>PT5450</name></trkpt>
<trkpt lat="51.604829" lon="03.804487"><ele>7.6</ele><time>2022-11-16T13:07:12Z</time><name>PT5451</name></trkpt>
<trkpt lat="51.604832" lon="03.804476"><ele>7.5</ele><time>2022-11-16T13:07:13Z</time><name>PT5452</name></trkpt>
<trkpt lat="51.604836" lon="03.804465"><ele>7.7</ele><time>2022-11-16T13:07:14Z</time><name>PT5453</name></trkpt>
<trkpt lat="51.604839" lon="03.804452"><ele>7.4</ele><time>2022-11-16T13:07:15Z</time><name>PT5454</name></trkpt>
<trkpt lat="51.604842" lon="03.804442"><ele>7.3</ele><time>2022-11-16T13:07:16Z</time><name>PT5455</name></trkpt>
<trkpt lat="51.604844" lon="03.804430"><ele>7.1</ele><time>2022-11-16T13:07:17Z</time><name>PT5456</name></trkpt>
<trkpt lat="51.604847" lon="03.804419"><ele>6.9</ele><time>2022-11-16T13:07:18Z</time><name>PT5457</name></trkpt>
<trkpt lat="51.604849" lon="03.804407"><ele>6.7</ele><time>2022-11-16T13:07:19Z</time><name>PT5458</name></trkpt>
<trkpt lat="51.604852" lon="03.804399"><ele>7</ele><time>2022-11-16T13:07:20Z</time><name>PT5459</name></trkpt>
<trkpt lat="51.604855" lon="03.804396"><ele>6.9</ele><time>2022-11-16T13:07:21Z</time><name>PT5460</name></trkpt>
<trkpt lat="51.604857" lon="03.804392"><ele>7</ele><time>2022-11-16T13:07:22Z</time><name>PT5461</name></trkpt>
<trkpt lat="51.604857" lon="03.804394"><ele>7.1</ele><time>2022-11-16T13:07:23Z</time><name>PT5462</name></trkpt>
<trkpt lat="51.604859" lon="03.804398"><ele>6.9</ele><time>2022-11-16T13:07:24Z</time><name>PT5463</name></trkpt>
<trkpt lat="51.604858" lon="03.804396"><ele>6.8</ele><time>2022-11-16T13:07:25Z</time><name>PT5464</name></trkpt>
<trkpt lat="51.604858" lon="03.804396"><ele>6.8</ele><time>2022-11-16T13:07:26Z</time><name>PT5465</name></trkpt>
<trkpt lat="51.604858" lon="03.804395"><ele>7.2</ele><time>2022-11-16T13:07:31Z</time><name>PT5466</name></trkpt>
<trkpt lat="51.604859" lon="03.804389"><ele>7.2</ele><time>2022-11-16T13:07:32Z</time><name>PT5467</name></trkpt>
<trkpt lat="51.604859" lon="03.804389"><ele>7.4</ele><time>2022-11-16T13:07:33Z</time><name>PT5468</name></trkpt>
<trkpt lat="51.604858" lon="03.804387"><ele>7.4</ele><time>2022-11-16T13:07:34Z</time><name>PT5469</name></trkpt>
<trkpt lat="51.604858" lon="03.804383"><ele>7.3</ele><time>2022-11-16T13:07:35Z</time><name>PT5470</name></trkpt>
<trkpt lat="51.604860" lon="03.804375"><ele>7.2</ele><time>2022-11-16T13:07:36Z</time><name>PT5471</name></trkpt>
<trkpt lat="51.604861" lon="03.804369"><ele>7.1</ele><time>2022-11-16T13:07:37Z</time><name>PT5472</name></trkpt>
<trkpt lat="51.604863" lon="03.804365"><ele>7.1</ele><time>2022-11-16T13:07:38Z</time><name>PT5473</name></trkpt>
<trkpt lat="51.604864" lon="03.804363"><ele>6.9</ele><time>2022-11-16T13:07:39Z</time><name>PT5474</name></trkpt>
<trkpt lat="51.604864" lon="03.804364"><ele>6.9</ele><time>2022-11-16T13:07:40Z</time><name>PT5475</name></trkpt>
<trkpt lat="51.604862" lon="03.804362"><ele>6.8</ele><time>2022-11-16T13:07:41Z</time><name>PT5476</name></trkpt>
<trkpt lat="51.604861" lon="03.804357"><ele>6.7</ele><time>2022-11-16T13:07:44Z</time><name>PT5477</name></trkpt>
<trkpt lat="51.604865" lon="03.804346"><ele>6.6</ele><time>2022-11-16T13:07:45Z</time><name>PT5478</name></trkpt>
<trkpt lat="51.604869" lon="03.804333"><ele>6.6</ele><time>2022-11-16T13:07:46Z</time><name>PT5479</name></trkpt>
<trkpt lat="51.604874" lon="03.804320"><ele>6.4</ele><time>2022-11-16T13:07:47Z</time><name>PT5480</name></trkpt>
<trkpt lat="51.604878" lon="03.804308"><ele>6.2</ele><time>2022-11-16T13:07:48Z</time><name>PT5481</name></trkpt>
<trkpt lat="51.604881" lon="03.804298"><ele>6.1</ele><time>2022-11-16T13:07:49Z</time><name>PT5482</name></trkpt>
<trkpt lat="51.604883" lon="03.804288"><ele>6.1</ele><time>2022-11-16T13:07:50Z</time><name>PT5483</name></trkpt>
<trkpt lat="51.604886" lon="03.804281"><ele>6</ele><time>2022-11-16T13:07:51Z</time><name>PT5484</name></trkpt>
<trkpt lat="51.604888" lon="03.804280"><ele>6</ele><time>2022-11-16T13:07:52Z</time><name>PT5485</name></trkpt>
<trkpt lat="51.604889" lon="03.804277"><ele>6.1</ele><time>2022-11-16T13:07:53Z</time><name>PT5486</name></trkpt>
<trkpt lat="51.604889" lon="03.804275"><ele>6</ele><time>2022-11-16T13:07:54Z</time><name>PT5487</name></trkpt>
<trkpt lat="51.604891" lon="03.804271"><ele>6</ele><time>2022-11-16T13:07:55Z</time><name>PT5488</name></trkpt>
<trkpt lat="51.604889" lon="03.804264"><ele>6</ele><time>2022-11-16T13:07:56Z</time><name>PT5489</name></trkpt>
<trkpt lat="51.604889" lon="03.804262"><ele>5.9</ele><time>2022-11-16T13:07:57Z</time><name>PT5490</name></trkpt>
<trkpt lat="51.604889" lon="03.804262"><ele>5.9</ele><time>2022-11-16T13:07:58Z</time><name>PT5491</name></trkpt>
<trkpt lat="51.604888" lon="03.804261"><ele>6</ele><time>2022-11-16T13:07:59Z</time><name>PT5492</name></trkpt>
<trkpt lat="51.604887" lon="03.804259"><ele>6.1</ele><time>2022-11-16T13:08:58Z</time><name>PT5493</name></trkpt>
<trkpt lat="51.604887" lon="03.804257"><ele>6.1</ele><time>2022-11-16T13:08:59Z</time><name>PT5494</name></trkpt>
<trkpt lat="51.604887" lon="03.804257"><ele>6</ele><time>2022-11-16T13:09:00Z</time><name>PT5495</name></trkpt>
<trkpt lat="51.604888" lon="03.804255"><ele>6.1</ele><time>2022-11-16T13:09:22Z</time><name>PT5496</name></trkpt>
<trkpt lat="51.604889" lon="03.804256"><ele>6.1</ele><time>2022-11-16T13:09:23Z</time><name>PT5497</name></trkpt>
<trkpt lat="51.604888" lon="03.804257"><ele>6.2</ele><time>2022-11-16T13:09:24Z</time><name>PT5498</name></trkpt>
<trkpt lat="51.604888" lon="03.804255"><ele>6.4</ele><time>2022-11-16T13:09:30Z</time><name>PT5499</name></trkpt>
<trkpt lat="51.604886" lon="03.804253"><ele>6.5</ele><time>2022-11-16T13:09:31Z</time><name>PT5500</name></trkpt>
<trkpt lat="51.604886" lon="03.804252"><ele>6.3</ele><time>2022-11-16T13:09:32Z</time><name>PT5501</name></trkpt>
<trkpt lat="51.604886" lon="03.804253"><ele>6.1</ele><time>2022-11-16T13:09:33Z</time><name>PT5502</name></trkpt>
<trkpt lat="51.604885" lon="03.804252"><ele>6.2</ele><time>2022-11-16T13:09:43Z</time><name>PT5503</name></trkpt>
<trkpt lat="51.604883" lon="03.804252"><ele>6.1</ele><time>2022-11-16T13:09:44Z</time><name>PT5504</name></trkpt>
<trkpt lat="51.604884" lon="03.804253"><ele>6.2</ele><time>2022-11-16T13:09:45Z</time><name>PT5505</name></trkpt>
<trkpt lat="51.604884" lon="03.804252"><ele>6.1</ele><time>2022-11-16T13:09:46Z</time><name>PT5506</name></trkpt>
<trkpt lat="51.604884" lon="03.804254"><ele>6.1</ele><time>2022-11-16T13:09:47Z</time><name>PT5507</name></trkpt>
<trkpt lat="51.604885" lon="03.804255"><ele>6.1</ele><time>2022-11-16T13:09:48Z</time><name>PT5508</name></trkpt>
<trkpt lat="51.604889" lon="03.804254"><ele>6.1</ele><time>2022-11-16T13:09:49Z</time><name>PT5509</name></trkpt>
<trkpt lat="51.604889" lon="03.804248"><ele>6.1</ele><time>2022-11-16T13:09:50Z</time><name>PT5510</name></trkpt>
<trkpt lat="51.604889" lon="03.804241"><ele>6.2</ele><time>2022-11-16T13:09:52Z</time><name>PT5511</name></trkpt>
<trkpt lat="51.604890" lon="03.804242"><ele>6.1</ele><time>2022-11-16T13:09:52Z</time><name>PT5512</name></trkpt>
<trkpt lat="51.604890" lon="03.804241"><ele>5.7</ele><time>2022-11-16T13:09:53Z</time><name>PT5513</name></trkpt>
<trkpt lat="51.604890" lon="03.804240"><ele>5.4</ele><time>2022-11-16T13:09:54Z</time><name>PT5514</name></trkpt>
<trkpt lat="51.604891" lon="03.804239"><ele>5.3</ele><time>2022-11-16T13:09:55Z</time><name>PT5515</name></trkpt>
<trkpt lat="51.604891" lon="03.804239"><ele>5.7</ele><time>2022-11-16T13:15:03Z</time><name>PT5516</name></trkpt>
<trkpt lat="51.604890" lon="03.804234"><ele>5.8</ele><time>2022-11-16T13:15:04Z</time><name>PT5517</name></trkpt>
<trkpt lat="51.604889" lon="03.804227"><ele>5.8</ele><time>2022-11-16T13:15:07Z</time><name>PT5518</name></trkpt>
<trkpt lat="51.604887" lon="03.804227"><ele>5.8</ele><time>2022-11-16T13:15:08Z</time><name>PT5519</name></trkpt>
<trkpt lat="51.604887" lon="03.804222"><ele>5.7</ele><time>2022-11-16T13:15:09Z</time><name>PT5520</name></trkpt>
<trkpt lat="51.604887" lon="03.804219"><ele>5.7</ele><time>2022-11-16T13:15:10Z</time><name>PT5521</name></trkpt>
<trkpt lat="51.604887" lon="03.804220"><ele>5.6</ele><time>2022-11-16T13:15:11Z</time><name>PT5522</name></trkpt>
<trkpt lat="51.604887" lon="03.804221"><ele>5.6</ele><time>2022-11-16T13:15:12Z</time><name>PT5523</name></trkpt>
<trkpt lat="51.604887" lon="03.804221"><ele>5.5</ele><time>2022-11-16T13:15:13Z</time><name>PT5524</name></trkpt>
<trkpt lat="51.604885" lon="03.804220"><ele>5.4</ele><time>2022-11-16T13:15:20Z</time><name>PT5525</name></trkpt>
<trkpt lat="51.604884" lon="03.804220"><ele>5.6</ele><time>2022-11-16T13:15:21Z</time><name>PT5526</name></trkpt>
<trkpt lat="51.604884" lon="03.804222"><ele>5.7</ele><time>2022-11-16T13:15:22Z</time><name>PT5527</name></trkpt>
<trkpt lat="51.604883" lon="03.804222"><ele>5.9</ele><time>2022-11-16T13:15:23Z</time><name>PT5528</name></trkpt>
<trkpt lat="51.604882" lon="03.804221"><ele>6.2</ele><time>2022-11-16T13:15:24Z</time><name>PT5529</name></trkpt>
<trkpt lat="51.604883" lon="03.804220"><ele>6.3</ele><time>2022-11-16T13:15:25Z</time><name>PT5530</name></trkpt>
<trkpt lat="51.604882" lon="03.804221"><ele>6.4</ele><time>2022-11-16T13:15:26Z</time><name>PT5531</name></trkpt>
<trkpt lat="51.604882" lon="03.804221"><ele>6.3</ele><time>2022-11-16T13:15:27Z</time><name>PT5532</name></trkpt>
<trkpt lat="51.604882" lon="03.804215"><ele>6.4</ele><time>2022-11-16T13:15:28Z</time><name>PT5533</name></trkpt>
<trkpt lat="51.604881" lon="03.804206"><ele>6.2</ele><time>2022-11-16T13:15:29Z</time><name>PT5534</name></trkpt>
<trkpt lat="51.604881" lon="03.804204"><ele>6.2</ele><time>2022-11-16T13:15:30Z</time><name>PT5535</name></trkpt>
<trkpt lat="51.604881" lon="03.804204"><ele>6.1</ele><time>2022-11-16T13:15:31Z</time><name>PT5536</name></trkpt>
<trkpt lat="51.604882" lon="03.804204"><ele>6.3</ele><time>2022-11-16T13:15:32Z</time><name>PT5537</name></trkpt>
<trkpt lat="51.604883" lon="03.804204"><ele>6.1</ele><time>2022-11-16T13:15:33Z</time><name>PT5538</name></trkpt>
<trkpt lat="51.604884" lon="03.804199"><ele>6.2</ele><time>2022-11-16T13:15:35Z</time><name>PT5539</name></trkpt>
<trkpt lat="51.604884" lon="03.804184"><ele>6.2</ele><time>2022-11-16T13:15:36Z</time><name>PT5540</name></trkpt>
<trkpt lat="51.604886" lon="03.804170"><ele>6.2</ele><time>2022-11-16T13:15:37Z</time><name>PT5541</name></trkpt>
<trkpt lat="51.604887" lon="03.804160"><ele>6.2</ele><time>2022-11-16T13:15:38Z</time><name>PT5542</name></trkpt>
<trkpt lat="51.604890" lon="03.804159"><ele>6.1</ele><time>2022-11-16T13:15:39Z</time><name>PT5543</name></trkpt>
<trkpt lat="51.604890" lon="03.804167"><ele>6.1</ele><time>2022-11-16T13:15:40Z</time><name>PT5544</name></trkpt>
<trkpt lat="51.604889" lon="03.804177"><ele>6.1</ele><time>2022-11-16T13:15:41Z</time><name>PT5545</name></trkpt>
<trkpt lat="51.604889" lon="03.804189"><ele>6.1</ele><time>2022-11-16T13:15:42Z</time><name>PT5546</name></trkpt>
<trkpt lat="51.604886" lon="03.804197"><ele>6.2</ele><time>2022-11-16T13:15:43Z</time><name>PT5547</name></trkpt>
<trkpt lat="51.604884" lon="03.804201"><ele>6.2</ele><time>2022-11-16T13:15:44Z</time><name>PT5548</name></trkpt>
<trkpt lat="51.604885" lon="03.804200"><ele>6.3</ele><time>2022-11-16T13:15:45Z</time><name>PT5549</name></trkpt>
<trkpt lat="51.604886" lon="03.804193"><ele>6.2</ele><time>2022-11-16T13:15:46Z</time><name>PT5550</name></trkpt>
<trkpt lat="51.604886" lon="03.804186"><ele>6.2</ele><time>2022-11-16T13:15:47Z</time><name>PT5551</name></trkpt>
<trkpt lat="51.604887" lon="03.804178"><ele>6.1</ele><time>2022-11-16T13:15:48Z</time><name>PT5552</name></trkpt>
<trkpt lat="51.604886" lon="03.804170"><ele>6.1</ele><time>2022-11-16T13:15:49Z</time><name>PT5553</name></trkpt>
<trkpt lat="51.604888" lon="03.804161"><ele>6.3</ele><time>2022-11-16T13:15:50Z</time><name>PT5554</name></trkpt>
<trkpt lat="51.604890" lon="03.804161"><ele>6.3</ele><time>2022-11-16T13:15:51Z</time><name>PT5555</name></trkpt>
<trkpt lat="51.604892" lon="03.804163"><ele>6.2</ele><time>2022-11-16T13:15:52Z</time><name>PT5556</name></trkpt>
<trkpt lat="51.604893" lon="03.804163"><ele>6.2</ele><time>2022-11-16T13:15:53Z</time><name>PT5557</name></trkpt>
<trkpt lat="51.604893" lon="03.804164"><ele>6.1</ele><time>2022-11-16T13:15:54Z</time><name>PT5558</name></trkpt>
<trkpt lat="51.604893" lon="03.804163"><ele>6.1</ele><time>2022-11-16T13:16:02Z</time><name>PT5559</name></trkpt>
<trkpt lat="51.604892" lon="03.804154"><ele>6.1</ele><time>2022-11-16T13:16:03Z</time><name>PT5560</name></trkpt>
<trkpt lat="51.604891" lon="03.804142"><ele>5.8</ele><time>2022-11-16T13:16:04Z</time><name>PT5561</name></trkpt>
<trkpt lat="51.604890" lon="03.804131"><ele>5.8</ele><time>2022-11-16T13:16:05Z</time><name>PT5562</name></trkpt>
<trkpt lat="51.604887" lon="03.804120"><ele>5.7</ele><time>2022-11-16T13:16:06Z</time><name>PT5563</name></trkpt>
<trkpt lat="51.604885" lon="03.804109"><ele>5.7</ele><time>2022-11-16T13:16:07Z</time><name>PT5564</name></trkpt>
<trkpt lat="51.604886" lon="03.804103"><ele>5.7</ele><time>2022-11-16T13:16:08Z</time><name>PT5565</name></trkpt>
<trkpt lat="51.604885" lon="03.804098"><ele>5.7</ele><time>2022-11-16T13:16:09Z</time><name>PT5566</name></trkpt>
<trkpt lat="51.604883" lon="03.804092"><ele>5.7</ele><time>2022-11-16T13:16:10Z</time><name>PT5567</name></trkpt>
<trkpt lat="51.604882" lon="03.804084"><ele>5.7</ele><time>2022-11-16T13:16:11Z</time><name>PT5568</name></trkpt>
<trkpt lat="51.604882" lon="03.804075"><ele>5.7</ele><time>2022-11-16T13:16:12Z</time><name>PT5569</name></trkpt>
<trkpt lat="51.604883" lon="03.804066"><ele>5.6</ele><time>2022-11-16T13:16:13Z</time><name>PT5570</name></trkpt>
<trkpt lat="51.604884" lon="03.804055"><ele>5.6</ele><time>2022-11-16T13:16:14Z</time><name>PT5571</name></trkpt>
<trkpt lat="51.604884" lon="03.804044"><ele>5.5</ele><time>2022-11-16T13:16:15Z</time><name>PT5572</name></trkpt>
<trkpt lat="51.604884" lon="03.804034"><ele>5.4</ele><time>2022-11-16T13:16:16Z</time><name>PT5573</name></trkpt>
<trkpt lat="51.604884" lon="03.804024"><ele>5.1</ele><time>2022-11-16T13:16:17Z</time><name>PT5574</name></trkpt>
<trkpt lat="51.604882" lon="03.804013"><ele>5</ele><time>2022-11-16T13:16:18Z</time><name>PT5575</name></trkpt>
<trkpt lat="51.604879" lon="03.804002"><ele>4.9</ele><time>2022-11-16T13:16:19Z</time><name>PT5576</name></trkpt>
<trkpt lat="51.604877" lon="03.803988"><ele>4.8</ele><time>2022-11-16T13:16:20Z</time><name>PT5577</name></trkpt>
<trkpt lat="51.604877" lon="03.803973"><ele>4.7</ele><time>2022-11-16T13:16:21Z</time><name>PT5578</name></trkpt>
<trkpt lat="51.604877" lon="03.803959"><ele>4.6</ele><time>2022-11-16T13:16:22Z</time><name>PT5579</name></trkpt>
<trkpt lat="51.604876" lon="03.803944"><ele>4.6</ele><time>2022-11-16T13:16:23Z</time><name>PT5580</name></trkpt>
<trkpt lat="51.604874" lon="03.803931"><ele>4.6</ele><time>2022-11-16T13:16:24Z</time><name>PT5581</name></trkpt>
<trkpt lat="51.604870" lon="03.803918"><ele>4.6</ele><time>2022-11-16T13:16:25Z</time><name>PT5582</name></trkpt>
<trkpt lat="51.604866" lon="03.803905"><ele>4.4</ele><time>2022-11-16T13:16:26Z</time><name>PT5583</name></trkpt>
<trkpt lat="51.604861" lon="03.803890"><ele>4.4</ele><time>2022-11-16T13:16:27Z</time><name>PT5584</name></trkpt>
<trkpt lat="51.604856" lon="03.803878"><ele>4.3</ele><time>2022-11-16T13:16:28Z</time><name>PT5585</name></trkpt>
<trkpt lat="51.604852" lon="03.803866"><ele>4.2</ele><time>2022-11-16T13:16:29Z</time><name>PT5586</name></trkpt>
<trkpt lat="51.604847" lon="03.803852"><ele>4.1</ele><time>2022-11-16T13:16:30Z</time><name>PT5587</name></trkpt>
<trkpt lat="51.604843" lon="03.803836"><ele>4.2</ele><time>2022-11-16T13:16:31Z</time><name>PT5588</name></trkpt>
<trkpt lat="51.604840" lon="03.803822"><ele>4.1</ele><time>2022-11-16T13:16:32Z</time><name>PT5589</name></trkpt>
<trkpt lat="51.604834" lon="03.803811"><ele>4.2</ele><time>2022-11-16T13:16:33Z</time><name>PT5590</name></trkpt>
<trkpt lat="51.604827" lon="03.803800"><ele>4.3</ele><time>2022-11-16T13:16:34Z</time><name>PT5591</name></trkpt>
<trkpt lat="51.604819" lon="03.803790"><ele>4.3</ele><time>2022-11-16T13:16:35Z</time><name>PT5592</name></trkpt>
<trkpt lat="51.604812" lon="03.803779"><ele>4.3</ele><time>2022-11-16T13:16:36Z</time><name>PT5593</name></trkpt>
<trkpt lat="51.604805" lon="03.803767"><ele>4.6</ele><time>2022-11-16T13:16:37Z</time><name>PT5594</name></trkpt>
<trkpt lat="51.604800" lon="03.803755"><ele>4.2</ele><time>2022-11-16T13:16:38Z</time><name>PT5595</name></trkpt>
<trkpt lat="51.604793" lon="03.803744"><ele>4.1</ele><time>2022-11-16T13:16:39Z</time><name>PT5596</name></trkpt>
<trkpt lat="51.604787" lon="03.803732"><ele>4</ele><time>2022-11-16T13:16:40Z</time><name>PT5597</name></trkpt>
<trkpt lat="51.604780" lon="03.803722"><ele>4.1</ele><time>2022-11-16T13:16:41Z</time><name>PT5598</name></trkpt>
<trkpt lat="51.604773" lon="03.803712"><ele>4.1</ele><time>2022-11-16T13:16:42Z</time><name>PT5599</name></trkpt>
<trkpt lat="51.604765" lon="03.803702"><ele>4.1</ele><time>2022-11-16T13:16:43Z</time><name>PT5600</name></trkpt>
<trkpt lat="51.604756" lon="03.803690"><ele>4.2</ele><time>2022-11-16T13:16:44Z</time><name>PT5601</name></trkpt>
<trkpt lat="51.604747" lon="03.803679"><ele>4.1</ele><time>2022-11-16T13:16:45Z</time><name>PT5602</name></trkpt>
<trkpt lat="51.604739" lon="03.803669"><ele>4.1</ele><time>2022-11-16T13:16:46Z</time><name>PT5603</name></trkpt>
<trkpt lat="51.604732" lon="03.803659"><ele>4.2</ele><time>2022-11-16T13:16:47Z</time><name>PT5604</name></trkpt>
<trkpt lat="51.604724" lon="03.803645"><ele>4.2</ele><time>2022-11-16T13:16:48Z</time><name>PT5605</name></trkpt>
<trkpt lat="51.604716" lon="03.803634"><ele>4.3</ele><time>2022-11-16T13:16:49Z</time><name>PT5606</name></trkpt>
<trkpt lat="51.604708" lon="03.803623"><ele>4.4</ele><time>2022-11-16T13:16:50Z</time><name>PT5607</name></trkpt>
<trkpt lat="51.604701" lon="03.803611"><ele>4.4</ele><time>2022-11-16T13:16:51Z</time><name>PT5608</name></trkpt>
<trkpt lat="51.604694" lon="03.803603"><ele>4.6</ele><time>2022-11-16T13:16:52Z</time><name>PT5609</name></trkpt>
<trkpt lat="51.604687" lon="03.803595"><ele>4.6</ele><time>2022-11-16T13:16:53Z</time><name>PT5610</name></trkpt>
<trkpt lat="51.604679" lon="03.803586"><ele>4.4</ele><time>2022-11-16T13:16:54Z</time><name>PT5611</name></trkpt>
<trkpt lat="51.604671" lon="03.803578"><ele>4.4</ele><time>2022-11-16T13:16:55Z</time><name>PT5612</name></trkpt>
<trkpt lat="51.604663" lon="03.803566"><ele>4.4</ele><time>2022-11-16T13:16:56Z</time><name>PT5613</name></trkpt>
<trkpt lat="51.604656" lon="03.803556"><ele>4.3</ele><time>2022-11-16T13:16:57Z</time><name>PT5614</name></trkpt>
<trkpt lat="51.604650" lon="03.803547"><ele>4.4</ele><time>2022-11-16T13:16:58Z</time><name>PT5615</name></trkpt>
<trkpt lat="51.604642" lon="03.803536"><ele>4.4</ele><time>2022-11-16T13:16:59Z</time><name>PT5616</name></trkpt>
<trkpt lat="51.604634" lon="03.803524"><ele>4.5</ele><time>2022-11-16T13:17:00Z</time><name>PT5617</name></trkpt>
<trkpt lat="51.604626" lon="03.803512"><ele>4.6</ele><time>2022-11-16T13:17:01Z</time><name>PT5618</name></trkpt>
<trkpt lat="51.604619" lon="03.803500"><ele>4.6</ele><time>2022-11-16T13:17:02Z</time><name>PT5619</name></trkpt>
<trkpt lat="51.604611" lon="03.803489"><ele>4.4</ele><time>2022-11-16T13:17:03Z</time><name>PT5620</name></trkpt>
<trkpt lat="51.604604" lon="03.803476"><ele>4.2</ele><time>2022-11-16T13:17:04Z</time><name>PT5621</name></trkpt>
<trkpt lat="51.604596" lon="03.803467"><ele>4.1</ele><time>2022-11-16T13:17:05Z</time><name>PT5622</name></trkpt>
<trkpt lat="51.604588" lon="03.803458"><ele>4</ele><time>2022-11-16T13:17:06Z</time><name>PT5623</name></trkpt>
<trkpt lat="51.604579" lon="03.803449"><ele>4.1</ele><time>2022-11-16T13:17:07Z</time><name>PT5624</name></trkpt>
<trkpt lat="51.604571" lon="03.803439"><ele>4.1</ele><time>2022-11-16T13:17:08Z</time><name>PT5625</name></trkpt>
<trkpt lat="51.604564" lon="03.803425"><ele>4.3</ele><time>2022-11-16T13:17:09Z</time><name>PT5626</name></trkpt>
<trkpt lat="51.604557" lon="03.803411"><ele>4.5</ele><time>2022-11-16T13:17:10Z</time><name>PT5627</name></trkpt>
<trkpt lat="51.604549" lon="03.803400"><ele>4.4</ele><time>2022-11-16T13:17:11Z</time><name>PT5628</name></trkpt>
<trkpt lat="51.604541" lon="03.803391"><ele>4.3</ele><time>2022-11-16T13:17:12Z</time><name>PT5629</name></trkpt>
<trkpt lat="51.604534" lon="03.803383"><ele>4.2</ele><time>2022-11-16T13:17:13Z</time><name>PT5630</name></trkpt>
<trkpt lat="51.604526" lon="03.803374"><ele>4.2</ele><time>2022-11-16T13:17:14Z</time><name>PT5631</name></trkpt>
<trkpt lat="51.604518" lon="03.803364"><ele>4.1</ele><time>2022-11-16T13:17:15Z</time><name>PT5632</name></trkpt>
<trkpt lat="51.604510" lon="03.803353"><ele>4.1</ele><time>2022-11-16T13:17:16Z</time><name>PT5633</name></trkpt>
<trkpt lat="51.604501" lon="03.803344"><ele>4.1</ele><time>2022-11-16T13:17:17Z</time><name>PT5634</name></trkpt>
<trkpt lat="51.604493" lon="03.803333"><ele>4.2</ele><time>2022-11-16T13:17:18Z</time><name>PT5635</name></trkpt>
<trkpt lat="51.604484" lon="03.803324"><ele>4.1</ele><time>2022-11-16T13:17:19Z</time><name>PT5636</name></trkpt>
<trkpt lat="51.604476" lon="03.803313"><ele>4.2</ele><time>2022-11-16T13:17:20Z</time><name>PT5637</name></trkpt>
<trkpt lat="51.604466" lon="03.803303"><ele>4.4</ele><time>2022-11-16T13:17:21Z</time><name>PT5638</name></trkpt>
<trkpt lat="51.604457" lon="03.803292"><ele>4.4</ele><time>2022-11-16T13:17:22Z</time><name>PT5639</name></trkpt>
<trkpt lat="51.604450" lon="03.803282"><ele>4.3</ele><time>2022-11-16T13:17:23Z</time><name>PT5640</name></trkpt>
<trkpt lat="51.604441" lon="03.803271"><ele>4.2</ele><time>2022-11-16T13:17:24Z</time><name>PT5641</name></trkpt>
<trkpt lat="51.604434" lon="03.803260"><ele>4.1</ele><time>2022-11-16T13:17:25Z</time><name>PT5642</name></trkpt>
<trkpt lat="51.604426" lon="03.803247"><ele>4.1</ele><time>2022-11-16T13:17:26Z</time><name>PT5643</name></trkpt>
<trkpt lat="51.604419" lon="03.803235"><ele>4.1</ele><time>2022-11-16T13:17:27Z</time><name>PT5644</name></trkpt>
<trkpt lat="51.604409" lon="03.803225"><ele>4.1</ele><time>2022-11-16T13:17:28Z</time><name>PT5645</name></trkpt>
<trkpt lat="51.604401" lon="03.803213"><ele>4.1</ele><time>2022-11-16T13:17:29Z</time><name>PT5646</name></trkpt>
<trkpt lat="51.604392" lon="03.803202"><ele>4</ele><time>2022-11-16T13:17:30Z</time><name>PT5647</name></trkpt>
<trkpt lat="51.604383" lon="03.803191"><ele>3.8</ele><time>2022-11-16T13:17:31Z</time><name>PT5648</name></trkpt>
<trkpt lat="51.604374" lon="03.803180"><ele>3.9</ele><time>2022-11-16T13:17:32Z</time><name>PT5649</name></trkpt>
<trkpt lat="51.604365" lon="03.803169"><ele>3.9</ele><time>2022-11-16T13:17:33Z</time><name>PT5650</name></trkpt>
<trkpt lat="51.604355" lon="03.803158"><ele>3.9</ele><time>2022-11-16T13:17:34Z</time><name>PT5651</name></trkpt>
<trkpt lat="51.604347" lon="03.803148"><ele>3.9</ele><time>2022-11-16T13:17:35Z</time><name>PT5652</name></trkpt>
<trkpt lat="51.604339" lon="03.803136"><ele>3.8</ele><time>2022-11-16T13:17:36Z</time><name>PT5653</name></trkpt>
<trkpt lat="51.604335" lon="03.803128"><ele>3.8</ele><time>2022-11-16T13:17:37Z</time><name>PT5654</name></trkpt>
<trkpt lat="51.604330" lon="03.803116"><ele>3.5</ele><time>2022-11-16T13:17:38Z</time><name>PT5655</name></trkpt>
<trkpt lat="51.604325" lon="03.803102"><ele>3.5</ele><time>2022-11-16T13:17:39Z</time><name>PT5656</name></trkpt>
<trkpt lat="51.604320" lon="03.803089"><ele>3.5</ele><time>2022-11-16T13:17:40Z</time><name>PT5657</name></trkpt>
<trkpt lat="51.604311" lon="03.803078"><ele>3.5</ele><time>2022-11-16T13:17:41Z</time><name>PT5658</name></trkpt>
<trkpt lat="51.604302" lon="03.803068"><ele>3.6</ele><time>2022-11-16T13:17:42Z</time><name>PT5659</name></trkpt>
<trkpt lat="51.604294" lon="03.803058"><ele>3.6</ele><time>2022-11-16T13:17:43Z</time><name>PT5660</name></trkpt>
<trkpt lat="51.604284" lon="03.803047"><ele>3.8</ele><time>2022-11-16T13:17:44Z</time><name>PT5661</name></trkpt>
<trkpt lat="51.604273" lon="03.803036"><ele>4</ele><time>2022-11-16T13:17:45Z</time><name>PT5662</name></trkpt>
<trkpt lat="51.604263" lon="03.803027"><ele>4.1</ele><time>2022-11-16T13:17:46Z</time><name>PT5663</name></trkpt>
<trkpt lat="51.604254" lon="03.803015"><ele>4.3</ele><time>2022-11-16T13:17:47Z</time><name>PT5664</name></trkpt>
<trkpt lat="51.604245" lon="03.803004"><ele>4.1</ele><time>2022-11-16T13:17:48Z</time><name>PT5665</name></trkpt>
<trkpt lat="51.604237" lon="03.802994"><ele>3.9</ele><time>2022-11-16T13:17:49Z</time><name>PT5666</name></trkpt>
<trkpt lat="51.604228" lon="03.802985"><ele>4</ele><time>2022-11-16T13:17:50Z</time><name>PT5667</name></trkpt>
<trkpt lat="51.604219" lon="03.802973"><ele>3.8</ele><time>2022-11-16T13:17:51Z</time><name>PT5668</name></trkpt>
<trkpt lat="51.604217" lon="03.802966"><ele>4</ele><time>2022-11-16T13:17:52Z</time><name>PT5669</name></trkpt>
<trkpt lat="51.604214" lon="03.802955"><ele>4</ele><time>2022-11-16T13:17:53Z</time><name>PT5670</name></trkpt>
<trkpt lat="51.604207" lon="03.802941"><ele>4.1</ele><time>2022-11-16T13:17:54Z</time><name>PT5671</name></trkpt>
<trkpt lat="51.604200" lon="03.802928"><ele>4.1</ele><time>2022-11-16T13:17:55Z</time><name>PT5672</name></trkpt>
<trkpt lat="51.604192" lon="03.802917"><ele>4.1</ele><time>2022-11-16T13:17:56Z</time><name>PT5673</name></trkpt>
<trkpt lat="51.604182" lon="03.802906"><ele>4.3</ele><time>2022-11-16T13:17:57Z</time><name>PT5674</name></trkpt>
<trkpt lat="51.604171" lon="03.802895"><ele>4.1</ele><time>2022-11-16T13:17:58Z</time><name>PT5675</name></trkpt>
<trkpt lat="51.604161" lon="03.802883"><ele>4.2</ele><time>2022-11-16T13:17:59Z</time><name>PT5676</name></trkpt>
<trkpt lat="51.604154" lon="03.802872"><ele>4</ele><time>2022-11-16T13:18:00Z</time><name>PT5677</name></trkpt>
<trkpt lat="51.604146" lon="03.802862"><ele>3.9</ele><time>2022-11-16T13:18:01Z</time><name>PT5678</name></trkpt>
<trkpt lat="51.604138" lon="03.802850"><ele>3.5</ele><time>2022-11-16T13:18:02Z</time><name>PT5679</name></trkpt>
<trkpt lat="51.604128" lon="03.802835"><ele>3.5</ele><time>2022-11-16T13:18:03Z</time><name>PT5680</name></trkpt>
<trkpt lat="51.604119" lon="03.802819"><ele>3.5</ele><time>2022-11-16T13:18:04Z</time><name>PT5681</name></trkpt>
<trkpt lat="51.604111" lon="03.802805"><ele>3.6</ele><time>2022-11-16T13:18:05Z</time><name>PT5682</name></trkpt>
<trkpt lat="51.604101" lon="03.802790"><ele>4</ele><time>2022-11-16T13:18:06Z</time><name>PT5683</name></trkpt>
<trkpt lat="51.604092" lon="03.802778"><ele>4.1</ele><time>2022-11-16T13:18:07Z</time><name>PT5684</name></trkpt>
<trkpt lat="51.604083" lon="03.802766"><ele>4.1</ele><time>2022-11-16T13:18:08Z</time><name>PT5685</name></trkpt>
<trkpt lat="51.604074" lon="03.802754"><ele>4</ele><time>2022-11-16T13:18:09Z</time><name>PT5686</name></trkpt>
<trkpt lat="51.604065" lon="03.802741"><ele>3.8</ele><time>2022-11-16T13:18:10Z</time><name>PT5687</name></trkpt>
<trkpt lat="51.604057" lon="03.802728"><ele>3.7</ele><time>2022-11-16T13:18:11Z</time><name>PT5688</name></trkpt>
<trkpt lat="51.604047" lon="03.802715"><ele>3.7</ele><time>2022-11-16T13:18:12Z</time><name>PT5689</name></trkpt>
<trkpt lat="51.604036" lon="03.802704"><ele>3.8</ele><time>2022-11-16T13:18:13Z</time><name>PT5690</name></trkpt>
<trkpt lat="51.604025" lon="03.802691"><ele>4</ele><time>2022-11-16T13:18:14Z</time><name>PT5691</name></trkpt>
<trkpt lat="51.604014" lon="03.802677"><ele>4.1</ele><time>2022-11-16T13:18:15Z</time><name>PT5692</name></trkpt>
<trkpt lat="51.604005" lon="03.802663"><ele>4.3</ele><time>2022-11-16T13:18:16Z</time><name>PT5693</name></trkpt>
<trkpt lat="51.603995" lon="03.802650"><ele>4.2</ele><time>2022-11-16T13:18:17Z</time><name>PT5694</name></trkpt>
<trkpt lat="51.603984" lon="03.802640"><ele>4.1</ele><time>2022-11-16T13:18:18Z</time><name>PT5695</name></trkpt>
<trkpt lat="51.603976" lon="03.802628"><ele>3.8</ele><time>2022-11-16T13:18:19Z</time><name>PT5696</name></trkpt>
<trkpt lat="51.603968" lon="03.802615"><ele>3.7</ele><time>2022-11-16T13:18:20Z</time><name>PT5697</name></trkpt>
<trkpt lat="51.603959" lon="03.802602"><ele>3.5</ele><time>2022-11-16T13:18:21Z</time><name>PT5698</name></trkpt>
<trkpt lat="51.603951" lon="03.802587"><ele>3.5</ele><time>2022-11-16T13:18:22Z</time><name>PT5699</name></trkpt>
<trkpt lat="51.603943" lon="03.802573"><ele>4.1</ele><time>2022-11-16T13:18:23Z</time><name>PT5700</name></trkpt>
<trkpt lat="51.603933" lon="03.802557"><ele>3.8</ele><time>2022-11-16T13:18:24Z</time><name>PT5701</name></trkpt>
<trkpt lat="51.603925" lon="03.802543"><ele>4</ele><time>2022-11-16T13:18:25Z</time><name>PT5702</name></trkpt>
<trkpt lat="51.603916" lon="03.802529"><ele>4.1</ele><time>2022-11-16T13:18:26Z</time><name>PT5703</name></trkpt>
<trkpt lat="51.603907" lon="03.802518"><ele>3.6</ele><time>2022-11-16T13:18:27Z</time><name>PT5704</name></trkpt>
<trkpt lat="51.603897" lon="03.802509"><ele>3.6</ele><time>2022-11-16T13:18:28Z</time><name>PT5705</name></trkpt>
<trkpt lat="51.603887" lon="03.802501"><ele>3.8</ele><time>2022-11-16T13:18:29Z</time><name>PT5706</name></trkpt>
<trkpt lat="51.603878" lon="03.802492"><ele>4</ele><time>2022-11-16T13:18:30Z</time><name>PT5707</name></trkpt>
<trkpt lat="51.603869" lon="03.802481"><ele>4.1</ele><time>2022-11-16T13:18:31Z</time><name>PT5708</name></trkpt>
<trkpt lat="51.603860" lon="03.802469"><ele>4.2</ele><time>2022-11-16T13:18:32Z</time><name>PT5709</name></trkpt>
<trkpt lat="51.603853" lon="03.802456"><ele>4.1</ele><time>2022-11-16T13:18:33Z</time><name>PT5710</name></trkpt>
<trkpt lat="51.603846" lon="03.802443"><ele>4</ele><time>2022-11-16T13:18:34Z</time><name>PT5711</name></trkpt>
<trkpt lat="51.603837" lon="03.802429"><ele>4</ele><time>2022-11-16T13:18:35Z</time><name>PT5712</name></trkpt>
<trkpt lat="51.603828" lon="03.802415"><ele>4</ele><time>2022-11-16T13:18:36Z</time><name>PT5713</name></trkpt>
<trkpt lat="51.603819" lon="03.802400"><ele>4.1</ele><time>2022-11-16T13:18:37Z</time><name>PT5714</name></trkpt>
<trkpt lat="51.603809" lon="03.802387"><ele>3.9</ele><time>2022-11-16T13:18:38Z</time><name>PT5715</name></trkpt>
<trkpt lat="51.603800" lon="03.802374"><ele>3.8</ele><time>2022-11-16T13:18:39Z</time><name>PT5716</name></trkpt>
<trkpt lat="51.603789" lon="03.802358"><ele>3.9</ele><time>2022-11-16T13:18:40Z</time><name>PT5717</name></trkpt>
<trkpt lat="51.603781" lon="03.802340"><ele>4.1</ele><time>2022-11-16T13:18:41Z</time><name>PT5718</name></trkpt>
<trkpt lat="51.603772" lon="03.802328"><ele>4.3</ele><time>2022-11-16T13:18:42Z</time><name>PT5719</name></trkpt>
<trkpt lat="51.603760" lon="03.802317"><ele>4.4</ele><time>2022-11-16T13:18:43Z</time><name>PT5720</name></trkpt>
<trkpt lat="51.603740" lon="03.802312"><ele>4.5</ele><time>2022-11-16T13:18:44Z</time><name>PT5721</name></trkpt>
<trkpt lat="51.603728" lon="03.802302"><ele>4.3</ele><time>2022-11-16T13:18:45Z</time><name>PT5722</name></trkpt>
<trkpt lat="51.603718" lon="03.802293"><ele>4.3</ele><time>2022-11-16T13:18:46Z</time><name>PT5723</name></trkpt>
<trkpt lat="51.603711" lon="03.802283"><ele>4.3</ele><time>2022-11-16T13:18:47Z</time><name>PT5724</name></trkpt>
<trkpt lat="51.603702" lon="03.802272"><ele>4.2</ele><time>2022-11-16T13:18:48Z</time><name>PT5725</name></trkpt>
<trkpt lat="51.603694" lon="03.802261"><ele>4.3</ele><time>2022-11-16T13:18:49Z</time><name>PT5726</name></trkpt>
<trkpt lat="51.603685" lon="03.802251"><ele>4.1</ele><time>2022-11-16T13:18:50Z</time><name>PT5727</name></trkpt>
<trkpt lat="51.603677" lon="03.802238"><ele>4.1</ele><time>2022-11-16T13:18:51Z</time><name>PT5728</name></trkpt>
<trkpt lat="51.603669" lon="03.802227"><ele>4.1</ele><time>2022-11-16T13:18:52Z</time><name>PT5729</name></trkpt>
<trkpt lat="51.603661" lon="03.802215"><ele>3.9</ele><time>2022-11-16T13:18:53Z</time><name>PT5730</name></trkpt>
<trkpt lat="51.603654" lon="03.802204"><ele>4</ele><time>2022-11-16T13:18:54Z</time><name>PT5731</name></trkpt>
<trkpt lat="51.603646" lon="03.802193"><ele>4.1</ele><time>2022-11-16T13:18:55Z</time><name>PT5732</name></trkpt>
<trkpt lat="51.603636" lon="03.802183"><ele>4.1</ele><time>2022-11-16T13:18:56Z</time><name>PT5733</name></trkpt>
<trkpt lat="51.603629" lon="03.802172"><ele>4.2</ele><time>2022-11-16T13:18:57Z</time><name>PT5734</name></trkpt>
<trkpt lat="51.603621" lon="03.802160"><ele>4.2</ele><time>2022-11-16T13:18:58Z</time><name>PT5735</name></trkpt>
<trkpt lat="51.603612" lon="03.802149"><ele>4.2</ele><time>2022-11-16T13:18:59Z</time><name>PT5736</name></trkpt>
<trkpt lat="51.603603" lon="03.802138"><ele>4.4</ele><time>2022-11-16T13:19:00Z</time><name>PT5737</name></trkpt>
<trkpt lat="51.603595" lon="03.802128"><ele>4.3</ele><time>2022-11-16T13:19:01Z</time><name>PT5738</name></trkpt>
<trkpt lat="51.603585" lon="03.802117"><ele>4.5</ele><time>2022-11-16T13:19:02Z</time><name>PT5739</name></trkpt>
<trkpt lat="51.603575" lon="03.802108"><ele>4.6</ele><time>2022-11-16T13:19:03Z</time><name>PT5740</name></trkpt>
<trkpt lat="51.603567" lon="03.802097"><ele>4.5</ele><time>2022-11-16T13:19:04Z</time><name>PT5741</name></trkpt>
<trkpt lat="51.603558" lon="03.802089"><ele>4.5</ele><time>2022-11-16T13:19:05Z</time><name>PT5742</name></trkpt>
<trkpt lat="51.603550" lon="03.802078"><ele>4.5</ele><time>2022-11-16T13:19:06Z</time><name>PT5743</name></trkpt>
<trkpt lat="51.603543" lon="03.802062"><ele>4.6</ele><time>2022-11-16T13:19:07Z</time><name>PT5744</name></trkpt>
<trkpt lat="51.603535" lon="03.802047"><ele>4.5</ele><time>2022-11-16T13:19:08Z</time><name>PT5745</name></trkpt>
<trkpt lat="51.603527" lon="03.802035"><ele>4.5</ele><time>2022-11-16T13:19:09Z</time><name>PT5746</name></trkpt>
<trkpt lat="51.603517" lon="03.802024"><ele>4.5</ele><time>2022-11-16T13:19:10Z</time><name>PT5747</name></trkpt>
<trkpt lat="51.603509" lon="03.802016"><ele>4.5</ele><time>2022-11-16T13:19:11Z</time><name>PT5748</name></trkpt>
<trkpt lat="51.603502" lon="03.802005"><ele>4.3</ele><time>2022-11-16T13:19:12Z</time><name>PT5749</name></trkpt>
<trkpt lat="51.603494" lon="03.801995"><ele>4.3</ele><time>2022-11-16T13:19:13Z</time><name>PT5750</name></trkpt>
<trkpt lat="51.603486" lon="03.801985"><ele>4.3</ele><time>2022-11-16T13:19:14Z</time><name>PT5751</name></trkpt>
<trkpt lat="51.603477" lon="03.801974"><ele>4.3</ele><time>2022-11-16T13:19:15Z</time><name>PT5752</name></trkpt>
<trkpt lat="51.603467" lon="03.801961"><ele>4.2</ele><time>2022-11-16T13:19:16Z</time><name>PT5753</name></trkpt>
<trkpt lat="51.603458" lon="03.801950"><ele>4.1</ele><time>2022-11-16T13:19:17Z</time><name>PT5754</name></trkpt>
<trkpt lat="51.603450" lon="03.801939"><ele>4.1</ele><time>2022-11-16T13:19:18Z</time><name>PT5755</name></trkpt>
<trkpt lat="51.603442" lon="03.801929"><ele>4.1</ele><time>2022-11-16T13:19:19Z</time><name>PT5756</name></trkpt>
<trkpt lat="51.603434" lon="03.801918"><ele>4.3</ele><time>2022-11-16T13:19:20Z</time><name>PT5757</name></trkpt>
<trkpt lat="51.603426" lon="03.801906"><ele>4.2</ele><time>2022-11-16T13:19:21Z</time><name>PT5758</name></trkpt>
<trkpt lat="51.603419" lon="03.801894"><ele>4.2</ele><time>2022-11-16T13:19:22Z</time><name>PT5759</name></trkpt>
<trkpt lat="51.603410" lon="03.801881"><ele>4.1</ele><time>2022-11-16T13:19:23Z</time><name>PT5760</name></trkpt>
<trkpt lat="51.603399" lon="03.801869"><ele>4.1</ele><time>2022-11-16T13:19:24Z</time><name>PT5761</name></trkpt>
<trkpt lat="51.603388" lon="03.801857"><ele>4.1</ele><time>2022-11-16T13:19:25Z</time><name>PT5762</name></trkpt>
<trkpt lat="51.603378" lon="03.801845"><ele>4.3</ele><time>2022-11-16T13:19:26Z</time><name>PT5763</name></trkpt>
<trkpt lat="51.603369" lon="03.801833"><ele>4.4</ele><time>2022-11-16T13:19:27Z</time><name>PT5764</name></trkpt>
<trkpt lat="51.603360" lon="03.801821"><ele>4.5</ele><time>2022-11-16T13:19:28Z</time><name>PT5765</name></trkpt>
<trkpt lat="51.603352" lon="03.801809"><ele>4.6</ele><time>2022-11-16T13:19:29Z</time><name>PT5766</name></trkpt>
<trkpt lat="51.603343" lon="03.801799"><ele>4.6</ele><time>2022-11-16T13:19:30Z</time><name>PT5767</name></trkpt>
<trkpt lat="51.603334" lon="03.801787"><ele>4.6</ele><time>2022-11-16T13:19:31Z</time><name>PT5768</name></trkpt>
<trkpt lat="51.603324" lon="03.801777"><ele>4.5</ele><time>2022-11-16T13:19:32Z</time><name>PT5769</name></trkpt>
<trkpt lat="51.603314" lon="03.801766"><ele>4.5</ele><time>2022-11-16T13:19:33Z</time><name>PT5770</name></trkpt>
<trkpt lat="51.603304" lon="03.801754"><ele>4.4</ele><time>2022-11-16T13:19:34Z</time><name>PT5771</name></trkpt>
<trkpt lat="51.603294" lon="03.801742"><ele>4.3</ele><time>2022-11-16T13:19:35Z</time><name>PT5772</name></trkpt>
<trkpt lat="51.603285" lon="03.801730"><ele>4.2</ele><time>2022-11-16T13:19:36Z</time><name>PT5773</name></trkpt>
<trkpt lat="51.603277" lon="03.801718"><ele>4.3</ele><time>2022-11-16T13:19:37Z</time><name>PT5774</name></trkpt>
<trkpt lat="51.603271" lon="03.801708"><ele>4.3</ele><time>2022-11-16T13:19:38Z</time><name>PT5775</name></trkpt>
<trkpt lat="51.603263" lon="03.801698"><ele>4.2</ele><time>2022-11-16T13:19:39Z</time><name>PT5776</name></trkpt>
<trkpt lat="51.603254" lon="03.801688"><ele>4.3</ele><time>2022-11-16T13:19:40Z</time><name>PT5777</name></trkpt>
<trkpt lat="51.603245" lon="03.801678"><ele>4.4</ele><time>2022-11-16T13:19:41Z</time><name>PT5778</name></trkpt>
<trkpt lat="51.603235" lon="03.801668"><ele>4.4</ele><time>2022-11-16T13:19:42Z</time><name>PT5779</name></trkpt>
<trkpt lat="51.603226" lon="03.801657"><ele>4.3</ele><time>2022-11-16T13:19:43Z</time><name>PT5780</name></trkpt>
<trkpt lat="51.603216" lon="03.801646"><ele>4.5</ele><time>2022-11-16T13:19:44Z</time><name>PT5781</name></trkpt>
<trkpt lat="51.603207" lon="03.801633"><ele>4.4</ele><time>2022-11-16T13:19:45Z</time><name>PT5782</name></trkpt>
<trkpt lat="51.603199" lon="03.801619"><ele>4.2</ele><time>2022-11-16T13:19:46Z</time><name>PT5783</name></trkpt>
<trkpt lat="51.603189" lon="03.801605"><ele>4.2</ele><time>2022-11-16T13:19:47Z</time><name>PT5784</name></trkpt>
<trkpt lat="51.603181" lon="03.801592"><ele>4.2</ele><time>2022-11-16T13:19:48Z</time><name>PT5785</name></trkpt>
<trkpt lat="51.603174" lon="03.801580"><ele>4.1</ele><time>2022-11-16T13:19:49Z</time><name>PT5786</name></trkpt>
<trkpt lat="51.603166" lon="03.801567"><ele>4.2</ele><time>2022-11-16T13:19:50Z</time><name>PT5787</name></trkpt>
<trkpt lat="51.603158" lon="03.801556"><ele>4.1</ele><time>2022-11-16T13:19:51Z</time><name>PT5788</name></trkpt>
<trkpt lat="51.603150" lon="03.801546"><ele>4.2</ele><time>2022-11-16T13:19:52Z</time><name>PT5789</name></trkpt>
<trkpt lat="51.603141" lon="03.801538"><ele>4.2</ele><time>2022-11-16T13:19:53Z</time><name>PT5790</name></trkpt>
<trkpt lat="51.603134" lon="03.801529"><ele>4.2</ele><time>2022-11-16T13:19:54Z</time><name>PT5791</name></trkpt>
<trkpt lat="51.603126" lon="03.801521"><ele>4.3</ele><time>2022-11-16T13:19:55Z</time><name>PT5792</name></trkpt>
<trkpt lat="51.603119" lon="03.801512"><ele>4.4</ele><time>2022-11-16T13:19:56Z</time><name>PT5793</name></trkpt>
<trkpt lat="51.603113" lon="03.801503"><ele>4.5</ele><time>2022-11-16T13:19:57Z</time><name>PT5794</name></trkpt>
<trkpt lat="51.603106" lon="03.801494"><ele>4.5</ele><time>2022-11-16T13:19:58Z</time><name>PT5795</name></trkpt>
<trkpt lat="51.603098" lon="03.801485"><ele>4.4</ele><time>2022-11-16T13:19:59Z</time><name>PT5796</name></trkpt>
<trkpt lat="51.603091" lon="03.801477"><ele>4.2</ele><time>2022-11-16T13:20:00Z</time><name>PT5797</name></trkpt>
<trkpt lat="51.603085" lon="03.801469"><ele>4.2</ele><time>2022-11-16T13:20:01Z</time><name>PT5798</name></trkpt>
<trkpt lat="51.603078" lon="03.801463"><ele>4.2</ele><time>2022-11-16T13:20:02Z</time><name>PT5799</name></trkpt>
<trkpt lat="51.603071" lon="03.801454"><ele>4.2</ele><time>2022-11-16T13:20:03Z</time><name>PT5800</name></trkpt>
<trkpt lat="51.603065" lon="03.801444"><ele>4.2</ele><time>2022-11-16T13:20:04Z</time><name>PT5801</name></trkpt>
<trkpt lat="51.603060" lon="03.801434"><ele>4.4</ele><time>2022-11-16T13:20:05Z</time><name>PT5802</name></trkpt>
<trkpt lat="51.603053" lon="03.801427"><ele>4.3</ele><time>2022-11-16T13:20:06Z</time><name>PT5803</name></trkpt>
<trkpt lat="51.603047" lon="03.801420"><ele>4.4</ele><time>2022-11-16T13:20:07Z</time><name>PT5804</name></trkpt>
<trkpt lat="51.603041" lon="03.801411"><ele>4.6</ele><time>2022-11-16T13:20:08Z</time><name>PT5805</name></trkpt>
<trkpt lat="51.603035" lon="03.801402"><ele>4.5</ele><time>2022-11-16T13:20:09Z</time><name>PT5806</name></trkpt>
<trkpt lat="51.603028" lon="03.801393"><ele>4.6</ele><time>2022-11-16T13:20:10Z</time><name>PT5807</name></trkpt>
<trkpt lat="51.603020" lon="03.801385"><ele>4.5</ele><time>2022-11-16T13:20:11Z</time><name>PT5808</name></trkpt>
<trkpt lat="51.603014" lon="03.801375"><ele>4.2</ele><time>2022-11-16T13:20:12Z</time><name>PT5809</name></trkpt>
<trkpt lat="51.603009" lon="03.801365"><ele>4.1</ele><time>2022-11-16T13:20:13Z</time><name>PT5810</name></trkpt>
<trkpt lat="51.603002" lon="03.801357"><ele>4.1</ele><time>2022-11-16T13:20:14Z</time><name>PT5811</name></trkpt>
<trkpt lat="51.602995" lon="03.801349"><ele>4.1</ele><time>2022-11-16T13:20:15Z</time><name>PT5812</name></trkpt>
<trkpt lat="51.602988" lon="03.801339"><ele>4.2</ele><time>2022-11-16T13:20:16Z</time><name>PT5813</name></trkpt>
<trkpt lat="51.602983" lon="03.801329"><ele>4.5</ele><time>2022-11-16T13:20:17Z</time><name>PT5814</name></trkpt>
<trkpt lat="51.602976" lon="03.801321"><ele>4.6</ele><time>2022-11-16T13:20:18Z</time><name>PT5815</name></trkpt>
<trkpt lat="51.602970" lon="03.801315"><ele>4.6</ele><time>2022-11-16T13:20:19Z</time><name>PT5816</name></trkpt>
<trkpt lat="51.602966" lon="03.801307"><ele>4.6</ele><time>2022-11-16T13:20:20Z</time><name>PT5817</name></trkpt>
<trkpt lat="51.602959" lon="03.801300"><ele>4.3</ele><time>2022-11-16T13:20:21Z</time><name>PT5818</name></trkpt>
<trkpt lat="51.602951" lon="03.801293"><ele>4.2</ele><time>2022-11-16T13:20:22Z</time><name>PT5819</name></trkpt>
<trkpt lat="51.602943" lon="03.801286"><ele>4.1</ele><time>2022-11-16T13:20:23Z</time><name>PT5820</name></trkpt>
<trkpt lat="51.602936" lon="03.801278"><ele>4.2</ele><time>2022-11-16T13:20:24Z</time><name>PT5821</name></trkpt>
<trkpt lat="51.602929" lon="03.801272"><ele>4.2</ele><time>2022-11-16T13:20:25Z</time><name>PT5822</name></trkpt>
<trkpt lat="51.602923" lon="03.801265"><ele>4.3</ele><time>2022-11-16T13:20:26Z</time><name>PT5823</name></trkpt>
<trkpt lat="51.602917" lon="03.801256"><ele>4.1</ele><time>2022-11-16T13:20:27Z</time><name>PT5824</name></trkpt>
<trkpt lat="51.602911" lon="03.801247"><ele>4.2</ele><time>2022-11-16T13:20:28Z</time><name>PT5825</name></trkpt>
<trkpt lat="51.602905" lon="03.801239"><ele>4.3</ele><time>2022-11-16T13:20:29Z</time><name>PT5826</name></trkpt>
<trkpt lat="51.602900" lon="03.801232"><ele>4.4</ele><time>2022-11-16T13:20:30Z</time><name>PT5827</name></trkpt>
<trkpt lat="51.602895" lon="03.801223"><ele>4.4</ele><time>2022-11-16T13:20:31Z</time><name>PT5828</name></trkpt>
<trkpt lat="51.602890" lon="03.801217"><ele>4.5</ele><time>2022-11-16T13:20:32Z</time><name>PT5829</name></trkpt>
<trkpt lat="51.602885" lon="03.801210"><ele>4.5</ele><time>2022-11-16T13:20:33Z</time><name>PT5830</name></trkpt>
<trkpt lat="51.602881" lon="03.801203"><ele>4.3</ele><time>2022-11-16T13:20:34Z</time><name>PT5831</name></trkpt>
<trkpt lat="51.602877" lon="03.801196"><ele>4.4</ele><time>2022-11-16T13:20:35Z</time><name>PT5832</name></trkpt>
<trkpt lat="51.602871" lon="03.801188"><ele>4.3</ele><time>2022-11-16T13:20:36Z</time><name>PT5833</name></trkpt>
<trkpt lat="51.602867" lon="03.801179"><ele>4.5</ele><time>2022-11-16T13:20:37Z</time><name>PT5834</name></trkpt>
<trkpt lat="51.602860" lon="03.801171"><ele>4.7</ele><time>2022-11-16T13:20:38Z</time><name>PT5835</name></trkpt>
<trkpt lat="51.602855" lon="03.801164"><ele>4.7</ele><time>2022-11-16T13:20:39Z</time><name>PT5836</name></trkpt>
<trkpt lat="51.602851" lon="03.801158"><ele>4.8</ele><time>2022-11-16T13:20:40Z</time><name>PT5837</name></trkpt>
<trkpt lat="51.602847" lon="03.801151"><ele>5</ele><time>2022-11-16T13:20:41Z</time><name>PT5838</name></trkpt>
<trkpt lat="51.602841" lon="03.801143"><ele>4.9</ele><time>2022-11-16T13:20:42Z</time><name>PT5839</name></trkpt>
<trkpt lat="51.602835" lon="03.801134"><ele>4.7</ele><time>2022-11-16T13:20:43Z</time><name>PT5840</name></trkpt>
<trkpt lat="51.602829" lon="03.801129"><ele>4.7</ele><time>2022-11-16T13:20:44Z</time><name>PT5841</name></trkpt>
<trkpt lat="51.602824" lon="03.801126"><ele>4.6</ele><time>2022-11-16T13:20:45Z</time><name>PT5842</name></trkpt>
<trkpt lat="51.602823" lon="03.801125"><ele>4.6</ele><time>2022-11-16T13:20:46Z</time><name>PT5843</name></trkpt>
<trkpt lat="51.602823" lon="03.801124"><ele>4.4</ele><time>2022-11-16T13:20:47Z</time><name>PT5844</name></trkpt>
<trkpt lat="51.602823" lon="03.801126"><ele>4.3</ele><time>2022-11-16T13:20:48Z</time><name>PT5845</name></trkpt>
<trkpt lat="51.602821" lon="03.801116"><ele>4.4</ele><time>2022-11-16T13:20:50Z</time><name>PT5846</name></trkpt>
<trkpt lat="51.602821" lon="03.801117"><ele>4.4</ele><time>2022-11-16T13:20:51Z</time><name>PT5847</name></trkpt>
<trkpt lat="51.602820" lon="03.801118"><ele>4.5</ele><time>2022-11-16T13:20:52Z</time><name>PT5848</name></trkpt>
<trkpt lat="51.602819" lon="03.801116"><ele>4.2</ele><time>2022-11-16T13:20:53Z</time><name>PT5849</name></trkpt>
<trkpt lat="51.602818" lon="03.801115"><ele>4.3</ele><time>2022-11-16T13:20:54Z</time><name>PT5850</name></trkpt>
<trkpt lat="51.602817" lon="03.801109"><ele>4.1</ele><time>2022-11-16T13:20:55Z</time><name>PT5851</name></trkpt>
<trkpt lat="51.602816" lon="03.801103"><ele>4.1</ele><time>2022-11-16T13:20:56Z</time><name>PT5852</name></trkpt>
<trkpt lat="51.602814" lon="03.801102"><ele>4.1</ele><time>2022-11-16T13:20:57Z</time><name>PT5853</name></trkpt>
<trkpt lat="51.602814" lon="03.801103"><ele>4.1</ele><time>2022-11-16T13:20:58Z</time><name>PT5854</name></trkpt>
<trkpt lat="51.602813" lon="03.801104"><ele>4.1</ele><time>2022-11-16T13:20:59Z</time><name>PT5855</name></trkpt>
<trkpt lat="51.602811" lon="03.801100"><ele>4.1</ele><time>2022-11-16T13:21:00Z</time><name>PT5856</name></trkpt>
<trkpt lat="51.602808" lon="03.801096"><ele>4</ele><time>2022-11-16T13:21:01Z</time><name>PT5857</name></trkpt>
<trkpt lat="51.602807" lon="03.801095"><ele>3.8</ele><time>2022-11-16T13:21:02Z</time><name>PT5858</name></trkpt>
<trkpt lat="51.602806" lon="03.801094"><ele>3.8</ele><time>2022-11-16T13:21:03Z</time><name>PT5859</name></trkpt>
<trkpt lat="51.602806" lon="03.801095"><ele>3.7</ele><time>2022-11-16T13:21:04Z</time><name>PT5860</name></trkpt>
<trkpt lat="51.602805" lon="03.801094"><ele>4.4</ele><time>2022-11-16T13:21:21Z</time><name>PT5861</name></trkpt>
<trkpt lat="51.602798" lon="03.801085"><ele>4.6</ele><time>2022-11-16T13:21:22Z</time><name>PT5862</name></trkpt>
<trkpt lat="51.602790" lon="03.801076"><ele>4.5</ele><time>2022-11-16T13:21:23Z</time><name>PT5863</name></trkpt>
<trkpt lat="51.602782" lon="03.801064"><ele>4.3</ele><time>2022-11-16T13:21:24Z</time><name>PT5864</name></trkpt>
<trkpt lat="51.602776" lon="03.801052"><ele>4.3</ele><time>2022-11-16T13:21:25Z</time><name>PT5865</name></trkpt>
<trkpt lat="51.602769" lon="03.801041"><ele>4.2</ele><time>2022-11-16T13:21:26Z</time><name>PT5866</name></trkpt>
<trkpt lat="51.602763" lon="03.801029"><ele>4.5</ele><time>2022-11-16T13:21:27Z</time><name>PT5867</name></trkpt>
<trkpt lat="51.602755" lon="03.801018"><ele>4.5</ele><time>2022-11-16T13:21:28Z</time><name>PT5868</name></trkpt>
<trkpt lat="51.602747" lon="03.801006"><ele>4.5</ele><time>2022-11-16T13:21:29Z</time><name>PT5869</name></trkpt>
<trkpt lat="51.602740" lon="03.800992"><ele>4.8</ele><time>2022-11-16T13:21:30Z</time><name>PT5870</name></trkpt>
<trkpt lat="51.602731" lon="03.800977"><ele>4.7</ele><time>2022-11-16T13:21:31Z</time><name>PT5871</name></trkpt>
<trkpt lat="51.602722" lon="03.800963"><ele>4.6</ele><time>2022-11-16T13:21:32Z</time><name>PT5872</name></trkpt>
<trkpt lat="51.602715" lon="03.800947"><ele>4.8</ele><time>2022-11-16T13:21:33Z</time><name>PT5873</name></trkpt>
<trkpt lat="51.602708" lon="03.800932"><ele>4.9</ele><time>2022-11-16T13:21:34Z</time><name>PT5874</name></trkpt>
<trkpt lat="51.602702" lon="03.800919"><ele>4.8</ele><time>2022-11-16T13:21:35Z</time><name>PT5875</name></trkpt>
<trkpt lat="51.602697" lon="03.800905"><ele>4.6</ele><time>2022-11-16T13:21:36Z</time><name>PT5876</name></trkpt>
<trkpt lat="51.602690" lon="03.800890"><ele>4.7</ele><time>2022-11-16T13:21:37Z</time><name>PT5877</name></trkpt>
<trkpt lat="51.602686" lon="03.800878"><ele>4.6</ele><time>2022-11-16T13:21:38Z</time><name>PT5878</name></trkpt>
<trkpt lat="51.602680" lon="03.800864"><ele>4.4</ele><time>2022-11-16T13:21:39Z</time><name>PT5879</name></trkpt>
<trkpt lat="51.602674" lon="03.800850"><ele>4.3</ele><time>2022-11-16T13:21:40Z</time><name>PT5880</name></trkpt>
<trkpt lat="51.602669" lon="03.800835"><ele>4.5</ele><time>2022-11-16T13:21:41Z</time><name>PT5881</name></trkpt>
<trkpt lat="51.602664" lon="03.800822"><ele>4.4</ele><time>2022-11-16T13:21:42Z</time><name>PT5882</name></trkpt>
<trkpt lat="51.602658" lon="03.800810"><ele>4.6</ele><time>2022-11-16T13:21:43Z</time><name>PT5883</name></trkpt>
<trkpt lat="51.602652" lon="03.800796"><ele>4.8</ele><time>2022-11-16T13:21:44Z</time><name>PT5884</name></trkpt>
<trkpt lat="51.602647" lon="03.800784"><ele>4.7</ele><time>2022-11-16T13:21:45Z</time><name>PT5885</name></trkpt>
<trkpt lat="51.602645" lon="03.800780"><ele>4.6</ele><time>2022-11-16T13:21:46Z</time><name>PT5886</name></trkpt>
<trkpt lat="51.602646" lon="03.800781"><ele>4.7</ele><time>2022-11-16T13:21:47Z</time><name>PT5887</name></trkpt>
<trkpt lat="51.602648" lon="03.800779"><ele>4.6</ele><time>2022-11-16T13:21:48Z</time><name>PT5888</name></trkpt>
<trkpt lat="51.602649" lon="03.800777"><ele>4.8</ele><time>2022-11-16T13:21:49Z</time><name>PT5889</name></trkpt>
<trkpt lat="51.602645" lon="03.800768"><ele>4.8</ele><time>2022-11-16T13:21:50Z</time><name>PT5890</name></trkpt>
<trkpt lat="51.602638" lon="03.800755"><ele>4.9</ele><time>2022-11-16T13:21:51Z</time><name>PT5891</name></trkpt>
<trkpt lat="51.602633" lon="03.800740"><ele>4.7</ele><time>2022-11-16T13:21:52Z</time><name>PT5892</name></trkpt>
<trkpt lat="51.602627" lon="03.800724"><ele>4.7</ele><time>2022-11-16T13:21:53Z</time><name>PT5893</name></trkpt>
<trkpt lat="51.602623" lon="03.800707"><ele>4.6</ele><time>2022-11-16T13:21:54Z</time><name>PT5894</name></trkpt>
<trkpt lat="51.602617" lon="03.800691"><ele>4.6</ele><time>2022-11-16T13:21:55Z</time><name>PT5895</name></trkpt>
<trkpt lat="51.602611" lon="03.800677"><ele>4.6</ele><time>2022-11-16T13:21:56Z</time><name>PT5896</name></trkpt>
<trkpt lat="51.602606" lon="03.800663"><ele>4.7</ele><time>2022-11-16T13:21:57Z</time><name>PT5897</name></trkpt>
<trkpt lat="51.602602" lon="03.800652"><ele>4.6</ele><time>2022-11-16T13:21:58Z</time><name>PT5898</name></trkpt>
<trkpt lat="51.602600" lon="03.800646"><ele>4.6</ele><time>2022-11-16T13:21:59Z</time><name>PT5899</name></trkpt>
<trkpt lat="51.602598" lon="03.800644"><ele>4.7</ele><time>2022-11-16T13:22:00Z</time><name>PT5900</name></trkpt>
<trkpt lat="51.602598" lon="03.800643"><ele>4.8</ele><time>2022-11-16T13:22:01Z</time><name>PT5901</name></trkpt>
<trkpt lat="51.602599" lon="03.800637"><ele>4.9</ele><time>2022-11-16T13:22:02Z</time><name>PT5902</name></trkpt>
<trkpt lat="51.602599" lon="03.800627"><ele>5</ele><time>2022-11-16T13:22:03Z</time><name>PT5903</name></trkpt>
<trkpt lat="51.602598" lon="03.800615"><ele>5</ele><time>2022-11-16T13:22:04Z</time><name>PT5904</name></trkpt>
<trkpt lat="51.602595" lon="03.800603"><ele>5.1</ele><time>2022-11-16T13:22:05Z</time><name>PT5905</name></trkpt>
<trkpt lat="51.602591" lon="03.800589"><ele>5</ele><time>2022-11-16T13:22:06Z</time><name>PT5906</name></trkpt>
<trkpt lat="51.602586" lon="03.800571"><ele>5.1</ele><time>2022-11-16T13:22:07Z</time><name>PT5907</name></trkpt>
<trkpt lat="51.602581" lon="03.800552"><ele>5.1</ele><time>2022-11-16T13:22:08Z</time><name>PT5908</name></trkpt>
<trkpt lat="51.602577" lon="03.800534"><ele>4.9</ele><time>2022-11-16T13:22:09Z</time><name>PT5909</name></trkpt>
<trkpt lat="51.602574" lon="03.800516"><ele>5</ele><time>2022-11-16T13:22:10Z</time><name>PT5910</name></trkpt>
<trkpt lat="51.602571" lon="03.800499"><ele>4.9</ele><time>2022-11-16T13:22:11Z</time><name>PT5911</name></trkpt>
<trkpt lat="51.602569" lon="03.800483"><ele>4.7</ele><time>2022-11-16T13:22:12Z</time><name>PT5912</name></trkpt>
<trkpt lat="51.602567" lon="03.800468"><ele>4.8</ele><time>2022-11-16T13:22:13Z</time><name>PT5913</name></trkpt>
<trkpt lat="51.602564" lon="03.800452"><ele>4.8</ele><time>2022-11-16T13:22:14Z</time><name>PT5914</name></trkpt>
<trkpt lat="51.602560" lon="03.800436"><ele>4.9</ele><time>2022-11-16T13:22:15Z</time><name>PT5915</name></trkpt>
<trkpt lat="51.602558" lon="03.800421"><ele>5</ele><time>2022-11-16T13:22:16Z</time><name>PT5916</name></trkpt>
<trkpt lat="51.602555" lon="03.800404"><ele>5.3</ele><time>2022-11-16T13:22:17Z</time><name>PT5917</name></trkpt>
<trkpt lat="51.602554" lon="03.800386"><ele>5.4</ele><time>2022-11-16T13:22:18Z</time><name>PT5918</name></trkpt>
<trkpt lat="51.602552" lon="03.800367"><ele>5.4</ele><time>2022-11-16T13:22:19Z</time><name>PT5919</name></trkpt>
<trkpt lat="51.602549" lon="03.800348"><ele>5.4</ele><time>2022-11-16T13:22:20Z</time><name>PT5920</name></trkpt>
<trkpt lat="51.602547" lon="03.800329"><ele>5.5</ele><time>2022-11-16T13:22:21Z</time><name>PT5921</name></trkpt>
<trkpt lat="51.602545" lon="03.800311"><ele>5.4</ele><time>2022-11-16T13:22:22Z</time><name>PT5922</name></trkpt>
<trkpt lat="51.602545" lon="03.800295"><ele>5.2</ele><time>2022-11-16T13:22:23Z</time><name>PT5923</name></trkpt>
<trkpt lat="51.602545" lon="03.800278"><ele>5.3</ele><time>2022-11-16T13:22:24Z</time><name>PT5924</name></trkpt>
<trkpt lat="51.602544" lon="03.800259"><ele>5.1</ele><time>2022-11-16T13:22:25Z</time><name>PT5925</name></trkpt>
<trkpt lat="51.602542" lon="03.800242"><ele>5</ele><time>2022-11-16T13:22:26Z</time><name>PT5926</name></trkpt>
<trkpt lat="51.602540" lon="03.800223"><ele>4.8</ele><time>2022-11-16T13:22:27Z</time><name>PT5927</name></trkpt>
<trkpt lat="51.602538" lon="03.800204"><ele>4.8</ele><time>2022-11-16T13:22:28Z</time><name>PT5928</name></trkpt>
<trkpt lat="51.602537" lon="03.800184"><ele>4.8</ele><time>2022-11-16T13:22:29Z</time><name>PT5929</name></trkpt>
<trkpt lat="51.602536" lon="03.800167"><ele>5</ele><time>2022-11-16T13:22:30Z</time><name>PT5930</name></trkpt>
<trkpt lat="51.602536" lon="03.800148"><ele>4.9</ele><time>2022-11-16T13:22:31Z</time><name>PT5931</name></trkpt>
<trkpt lat="51.602535" lon="03.800130"><ele>4.8</ele><time>2022-11-16T13:22:32Z</time><name>PT5932</name></trkpt>
<trkpt lat="51.602533" lon="03.800109"><ele>4.7</ele><time>2022-11-16T13:22:33Z</time><name>PT5933</name></trkpt>
<trkpt lat="51.602532" lon="03.800090"><ele>4.9</ele><time>2022-11-16T13:22:34Z</time><name>PT5934</name></trkpt>
<trkpt lat="51.602532" lon="03.800071"><ele>4.9</ele><time>2022-11-16T13:22:35Z</time><name>PT5935</name></trkpt>
<trkpt lat="51.602532" lon="03.800051"><ele>5.1</ele><time>2022-11-16T13:22:36Z</time><name>PT5936</name></trkpt>
<trkpt lat="51.602533" lon="03.800031"><ele>5.1</ele><time>2022-11-16T13:22:37Z</time><name>PT5937</name></trkpt>
<trkpt lat="51.602535" lon="03.800011"><ele>5.1</ele><time>2022-11-16T13:22:38Z</time><name>PT5938</name></trkpt>
<trkpt lat="51.602534" lon="03.799992"><ele>5.1</ele><time>2022-11-16T13:22:39Z</time><name>PT5939</name></trkpt>
<trkpt lat="51.602535" lon="03.799975"><ele>5.1</ele><time>2022-11-16T13:22:40Z</time><name>PT5940</name></trkpt>
<trkpt lat="51.602536" lon="03.799956"><ele>5</ele><time>2022-11-16T13:22:41Z</time><name>PT5941</name></trkpt>
<trkpt lat="51.602536" lon="03.799939"><ele>5</ele><time>2022-11-16T13:22:42Z</time><name>PT5942</name></trkpt>
<trkpt lat="51.602538" lon="03.799922"><ele>4.9</ele><time>2022-11-16T13:22:43Z</time><name>PT5943</name></trkpt>
<trkpt lat="51.602539" lon="03.799906"><ele>5</ele><time>2022-11-16T13:22:44Z</time><name>PT5944</name></trkpt>
<trkpt lat="51.602540" lon="03.799888"><ele>4.9</ele><time>2022-11-16T13:22:45Z</time><name>PT5945</name></trkpt>
<trkpt lat="51.602540" lon="03.799868"><ele>4.9</ele><time>2022-11-16T13:22:46Z</time><name>PT5946</name></trkpt>
<trkpt lat="51.602540" lon="03.799849"><ele>4.8</ele><time>2022-11-16T13:22:47Z</time><name>PT5947</name></trkpt>
<trkpt lat="51.602540" lon="03.799830"><ele>4.7</ele><time>2022-11-16T13:22:48Z</time><name>PT5948</name></trkpt>
<trkpt lat="51.602540" lon="03.799811"><ele>4.6</ele><time>2022-11-16T13:22:49Z</time><name>PT5949</name></trkpt>
<trkpt lat="51.602538" lon="03.799793"><ele>4.6</ele><time>2022-11-16T13:22:50Z</time><name>PT5950</name></trkpt>
<trkpt lat="51.602538" lon="03.799775"><ele>4.6</ele><time>2022-11-16T13:22:51Z</time><name>PT5951</name></trkpt>
<trkpt lat="51.602539" lon="03.799755"><ele>4.6</ele><time>2022-11-16T13:22:52Z</time><name>PT5952</name></trkpt>
<trkpt lat="51.602539" lon="03.799735"><ele>4.8</ele><time>2022-11-16T13:22:53Z</time><name>PT5953</name></trkpt>
<trkpt lat="51.602540" lon="03.799715"><ele>4.9</ele><time>2022-11-16T13:22:54Z</time><name>PT5954</name></trkpt>
<trkpt lat="51.602540" lon="03.799694"><ele>4.9</ele><time>2022-11-16T13:22:55Z</time><name>PT5955</name></trkpt>
<trkpt lat="51.602540" lon="03.799673"><ele>4.9</ele><time>2022-11-16T13:22:56Z</time><name>PT5956</name></trkpt>
<trkpt lat="51.602540" lon="03.799652"><ele>5.1</ele><time>2022-11-16T13:22:57Z</time><name>PT5957</name></trkpt>
<trkpt lat="51.602540" lon="03.799632"><ele>5.1</ele><time>2022-11-16T13:22:58Z</time><name>PT5958</name></trkpt>
<trkpt lat="51.602542" lon="03.799613"><ele>5.1</ele><time>2022-11-16T13:22:59Z</time><name>PT5959</name></trkpt>
<trkpt lat="51.602543" lon="03.799594"><ele>5</ele><time>2022-11-16T13:23:00Z</time><name>PT5960</name></trkpt>
<trkpt lat="51.602544" lon="03.799575"><ele>5.1</ele><time>2022-11-16T13:23:01Z</time><name>PT5961</name></trkpt>
<trkpt lat="51.602544" lon="03.799556"><ele>4.9</ele><time>2022-11-16T13:23:02Z</time><name>PT5962</name></trkpt>
<trkpt lat="51.602545" lon="03.799538"><ele>4.9</ele><time>2022-11-16T13:23:03Z</time><name>PT5963</name></trkpt>
<trkpt lat="51.602545" lon="03.799520"><ele>4.9</ele><time>2022-11-16T13:23:04Z</time><name>PT5964</name></trkpt>
<trkpt lat="51.602545" lon="03.799502"><ele>5</ele><time>2022-11-16T13:23:05Z</time><name>PT5965</name></trkpt>
<trkpt lat="51.602545" lon="03.799483"><ele>5.1</ele><time>2022-11-16T13:23:06Z</time><name>PT5966</name></trkpt>
<trkpt lat="51.602544" lon="03.799464"><ele>5</ele><time>2022-11-16T13:23:07Z</time><name>PT5967</name></trkpt>
<trkpt lat="51.602545" lon="03.799446"><ele>4.8</ele><time>2022-11-16T13:23:08Z</time><name>PT5968</name></trkpt>
<trkpt lat="51.602545" lon="03.799427"><ele>5</ele><time>2022-11-16T13:23:09Z</time><name>PT5969</name></trkpt>
<trkpt lat="51.602545" lon="03.799409"><ele>5.1</ele><time>2022-11-16T13:23:10Z</time><name>PT5970</name></trkpt>
<trkpt lat="51.602545" lon="03.799390"><ele>5.1</ele><time>2022-11-16T13:23:11Z</time><name>PT5971</name></trkpt>
<trkpt lat="51.602545" lon="03.799371"><ele>5.2</ele><time>2022-11-16T13:23:12Z</time><name>PT5972</name></trkpt>
<trkpt lat="51.602545" lon="03.799352"><ele>5.4</ele><time>2022-11-16T13:23:13Z</time><name>PT5973</name></trkpt>
<trkpt lat="51.602545" lon="03.799333"><ele>5.1</ele><time>2022-11-16T13:23:14Z</time><name>PT5974</name></trkpt>
<trkpt lat="51.602546" lon="03.799313"><ele>4.8</ele><time>2022-11-16T13:23:15Z</time><name>PT5975</name></trkpt>
<trkpt lat="51.602547" lon="03.799292"><ele>4.8</ele><time>2022-11-16T13:23:16Z</time><name>PT5976</name></trkpt>
<trkpt lat="51.602548" lon="03.799273"><ele>4.7</ele><time>2022-11-16T13:23:17Z</time><name>PT5977</name></trkpt>
<trkpt lat="51.602550" lon="03.799256"><ele>4.8</ele><time>2022-11-16T13:23:18Z</time><name>PT5978</name></trkpt>
<trkpt lat="51.602550" lon="03.799238"><ele>4.8</ele><time>2022-11-16T13:23:19Z</time><name>PT5979</name></trkpt>
<trkpt lat="51.602549" lon="03.799221"><ele>4.9</ele><time>2022-11-16T13:23:20Z</time><name>PT5980</name></trkpt>
<trkpt lat="51.602549" lon="03.799204"><ele>5.2</ele><time>2022-11-16T13:23:21Z</time><name>PT5981</name></trkpt>
<trkpt lat="51.602550" lon="03.799186"><ele>5.2</ele><time>2022-11-16T13:23:22Z</time><name>PT5982</name></trkpt>
<trkpt lat="51.602550" lon="03.799169"><ele>5.1</ele><time>2022-11-16T13:23:23Z</time><name>PT5983</name></trkpt>
<trkpt lat="51.602550" lon="03.799150"><ele>5.1</ele><time>2022-11-16T13:23:24Z</time><name>PT5984</name></trkpt>
<trkpt lat="51.602550" lon="03.799131"><ele>5.1</ele><time>2022-11-16T13:23:25Z</time><name>PT5985</name></trkpt>
<trkpt lat="51.602550" lon="03.799113"><ele>4.9</ele><time>2022-11-16T13:23:26Z</time><name>PT5986</name></trkpt>
<trkpt lat="51.602550" lon="03.799094"><ele>4.9</ele><time>2022-11-16T13:23:27Z</time><name>PT5987</name></trkpt>
<trkpt lat="51.602551" lon="03.799075"><ele>4.9</ele><time>2022-11-16T13:23:28Z</time><name>PT5988</name></trkpt>
<trkpt lat="51.602550" lon="03.799057"><ele>5</ele><time>2022-11-16T13:23:29Z</time><name>PT5989</name></trkpt>
<trkpt lat="51.602550" lon="03.799039"><ele>4.9</ele><time>2022-11-16T13:23:30Z</time><name>PT5990</name></trkpt>
<trkpt lat="51.602550" lon="03.799020"><ele>5</ele><time>2022-11-16T13:23:31Z</time><name>PT5991</name></trkpt>
<trkpt lat="51.602550" lon="03.799000"><ele>4.9</ele><time>2022-11-16T13:23:32Z</time><name>PT5992</name></trkpt>
<trkpt lat="51.602550" lon="03.798981"><ele>4.9</ele><time>2022-11-16T13:23:33Z</time><name>PT5993</name></trkpt>
<trkpt lat="51.602551" lon="03.798961"><ele>5</ele><time>2022-11-16T13:23:34Z</time><name>PT5994</name></trkpt>
<trkpt lat="51.602553" lon="03.798944"><ele>4.9</ele><time>2022-11-16T13:23:35Z</time><name>PT5995</name></trkpt>
<trkpt lat="51.602554" lon="03.798927"><ele>4.8</ele><time>2022-11-16T13:23:36Z</time><name>PT5996</name></trkpt>
<trkpt lat="51.602555" lon="03.798912"><ele>4.9</ele><time>2022-11-16T13:23:37Z</time><name>PT5997</name></trkpt>
<trkpt lat="51.602554" lon="03.798896"><ele>5</ele><time>2022-11-16T13:23:38Z</time><name>PT5998</name></trkpt>
<trkpt lat="51.602554" lon="03.798880"><ele>4.9</ele><time>2022-11-16T13:23:39Z</time><name>PT5999</name></trkpt>
<trkpt lat="51.602554" lon="03.798862"><ele>4.9</ele><time>2022-11-16T13:23:40Z</time><name>PT6000</name></trkpt>
<trkpt lat="51.602553" lon="03.798844"><ele>4.9</ele><time>2022-11-16T13:23:41Z</time><name>PT6001</name></trkpt>
<trkpt lat="51.602554" lon="03.798825"><ele>4.8</ele><time>2022-11-16T13:23:42Z</time><name>PT6002</name></trkpt>
<trkpt lat="51.602554" lon="03.798805"><ele>4.8</ele><time>2022-11-16T13:23:43Z</time><name>PT6003</name></trkpt>
<trkpt lat="51.602555" lon="03.798786"><ele>4.8</ele><time>2022-11-16T13:23:44Z</time><name>PT6004</name></trkpt>
<trkpt lat="51.602556" lon="03.798767"><ele>4.8</ele><time>2022-11-16T13:23:45Z</time><name>PT6005</name></trkpt>
<trkpt lat="51.602557" lon="03.798749"><ele>4.8</ele><time>2022-11-16T13:23:46Z</time><name>PT6006</name></trkpt>
<trkpt lat="51.602558" lon="03.798733"><ele>4.7</ele><time>2022-11-16T13:23:47Z</time><name>PT6007</name></trkpt>
<trkpt lat="51.602559" lon="03.798716"><ele>4.6</ele><time>2022-11-16T13:23:48Z</time><name>PT6008</name></trkpt>
<trkpt lat="51.602559" lon="03.798699"><ele>4.6</ele><time>2022-11-16T13:23:49Z</time><name>PT6009</name></trkpt>
<trkpt lat="51.602558" lon="03.798681"><ele>4.5</ele><time>2022-11-16T13:23:50Z</time><name>PT6010</name></trkpt>
<trkpt lat="51.602557" lon="03.798664"><ele>4.6</ele><time>2022-11-16T13:23:51Z</time><name>PT6011</name></trkpt>
<trkpt lat="51.602558" lon="03.798646"><ele>4.5</ele><time>2022-11-16T13:23:52Z</time><name>PT6012</name></trkpt>
<trkpt lat="51.602559" lon="03.798627"><ele>4.6</ele><time>2022-11-16T13:23:53Z</time><name>PT6013</name></trkpt>
<trkpt lat="51.602558" lon="03.798607"><ele>4.6</ele><time>2022-11-16T13:23:54Z</time><name>PT6014</name></trkpt>
<trkpt lat="51.602558" lon="03.798589"><ele>4.4</ele><time>2022-11-16T13:23:55Z</time><name>PT6015</name></trkpt>
<trkpt lat="51.602558" lon="03.798569"><ele>4.3</ele><time>2022-11-16T13:23:56Z</time><name>PT6016</name></trkpt>
<trkpt lat="51.602559" lon="03.798549"><ele>4.4</ele><time>2022-11-16T13:23:57Z</time><name>PT6017</name></trkpt>
<trkpt lat="51.602560" lon="03.798529"><ele>4.5</ele><time>2022-11-16T13:23:58Z</time><name>PT6018</name></trkpt>
<trkpt lat="51.602560" lon="03.798511"><ele>4.5</ele><time>2022-11-16T13:23:59Z</time><name>PT6019</name></trkpt>
<trkpt lat="51.602561" lon="03.798493"><ele>4.6</ele><time>2022-11-16T13:24:00Z</time><name>PT6020</name></trkpt>
<trkpt lat="51.602561" lon="03.798476"><ele>4.6</ele><time>2022-11-16T13:24:01Z</time><name>PT6021</name></trkpt>
<trkpt lat="51.602560" lon="03.798459"><ele>4.6</ele><time>2022-11-16T13:24:02Z</time><name>PT6022</name></trkpt>
<trkpt lat="51.602560" lon="03.798443"><ele>4.6</ele><time>2022-11-16T13:24:03Z</time><name>PT6023</name></trkpt>
<trkpt lat="51.602559" lon="03.798426"><ele>4.6</ele><time>2022-11-16T13:24:04Z</time><name>PT6024</name></trkpt>
<trkpt lat="51.602560" lon="03.798408"><ele>4.6</ele><time>2022-11-16T13:24:05Z</time><name>PT6025</name></trkpt>
<trkpt lat="51.602561" lon="03.798389"><ele>4.8</ele><time>2022-11-16T13:24:06Z</time><name>PT6026</name></trkpt>
<trkpt lat="51.602561" lon="03.798370"><ele>4.7</ele><time>2022-11-16T13:24:07Z</time><name>PT6027</name></trkpt>
<trkpt lat="51.602561" lon="03.798351"><ele>4.7</ele><time>2022-11-16T13:24:08Z</time><name>PT6028</name></trkpt>
<trkpt lat="51.602561" lon="03.798331"><ele>4.6</ele><time>2022-11-16T13:24:09Z</time><name>PT6029</name></trkpt>
<trkpt lat="51.602562" lon="03.798314"><ele>4.6</ele><time>2022-11-16T13:24:10Z</time><name>PT6030</name></trkpt>
<trkpt lat="51.602562" lon="03.798297"><ele>4.5</ele><time>2022-11-16T13:24:11Z</time><name>PT6031</name></trkpt>
<trkpt lat="51.602561" lon="03.798280"><ele>4.5</ele><time>2022-11-16T13:24:12Z</time><name>PT6032</name></trkpt>
<trkpt lat="51.602561" lon="03.798264"><ele>4.6</ele><time>2022-11-16T13:24:13Z</time><name>PT6033</name></trkpt>
<trkpt lat="51.602562" lon="03.798245"><ele>4.6</ele><time>2022-11-16T13:24:14Z</time><name>PT6034</name></trkpt>
<trkpt lat="51.602562" lon="03.798227"><ele>4.6</ele><time>2022-11-16T13:24:15Z</time><name>PT6035</name></trkpt>
<trkpt lat="51.602563" lon="03.798209"><ele>4.5</ele><time>2022-11-16T13:24:16Z</time><name>PT6036</name></trkpt>
<trkpt lat="51.602564" lon="03.798189"><ele>4.4</ele><time>2022-11-16T13:24:17Z</time><name>PT6037</name></trkpt>
<trkpt lat="51.602564" lon="03.798168"><ele>4.6</ele><time>2022-11-16T13:24:18Z</time><name>PT6038</name></trkpt>
<trkpt lat="51.602565" lon="03.798148"><ele>4.5</ele><time>2022-11-16T13:24:19Z</time><name>PT6039</name></trkpt>
<trkpt lat="51.602565" lon="03.798129"><ele>4.6</ele><time>2022-11-16T13:24:20Z</time><name>PT6040</name></trkpt>
<trkpt lat="51.602565" lon="03.798109"><ele>4.8</ele><time>2022-11-16T13:24:21Z</time><name>PT6041</name></trkpt>
<trkpt lat="51.602566" lon="03.798090"><ele>5</ele><time>2022-11-16T13:24:22Z</time><name>PT6042</name></trkpt>
<trkpt lat="51.602566" lon="03.798072"><ele>5.2</ele><time>2022-11-16T13:24:23Z</time><name>PT6043</name></trkpt>
<trkpt lat="51.602566" lon="03.798055"><ele>5.2</ele><time>2022-11-16T13:24:24Z</time><name>PT6044</name></trkpt>
<trkpt lat="51.602568" lon="03.798038"><ele>5.2</ele><time>2022-11-16T13:24:25Z</time><name>PT6045</name></trkpt>
<trkpt lat="51.602569" lon="03.798020"><ele>5.1</ele><time>2022-11-16T13:24:26Z</time><name>PT6046</name></trkpt>
<trkpt lat="51.602569" lon="03.798002"><ele>5</ele><time>2022-11-16T13:24:27Z</time><name>PT6047</name></trkpt>
<trkpt lat="51.602568" lon="03.797984"><ele>4.7</ele><time>2022-11-16T13:24:28Z</time><name>PT6048</name></trkpt>
<trkpt lat="51.602567" lon="03.797966"><ele>4.7</ele><time>2022-11-16T13:24:29Z</time><name>PT6049</name></trkpt>
<trkpt lat="51.602568" lon="03.797949"><ele>4.6</ele><time>2022-11-16T13:24:30Z</time><name>PT6050</name></trkpt>
<trkpt lat="51.602569" lon="03.797930"><ele>4.6</ele><time>2022-11-16T13:24:31Z</time><name>PT6051</name></trkpt>
<trkpt lat="51.602569" lon="03.797913"><ele>4.6</ele><time>2022-11-16T13:24:32Z</time><name>PT6052</name></trkpt>
<trkpt lat="51.602568" lon="03.797895"><ele>4.7</ele><time>2022-11-16T13:24:33Z</time><name>PT6053</name></trkpt>
<trkpt lat="51.602569" lon="03.797876"><ele>4.7</ele><time>2022-11-16T13:24:34Z</time><name>PT6054</name></trkpt>
<trkpt lat="51.602569" lon="03.797857"><ele>4.6</ele><time>2022-11-16T13:24:35Z</time><name>PT6055</name></trkpt>
<trkpt lat="51.602569" lon="03.797837"><ele>4.6</ele><time>2022-11-16T13:24:36Z</time><name>PT6056</name></trkpt>
<trkpt lat="51.602570" lon="03.797819"><ele>4.6</ele><time>2022-11-16T13:24:37Z</time><name>PT6057</name></trkpt>
<trkpt lat="51.602571" lon="03.797801"><ele>4.7</ele><time>2022-11-16T13:24:38Z</time><name>PT6058</name></trkpt>
<trkpt lat="51.602573" lon="03.797783"><ele>4.9</ele><time>2022-11-16T13:24:39Z</time><name>PT6059</name></trkpt>
<trkpt lat="51.602573" lon="03.797767"><ele>5</ele><time>2022-11-16T13:24:40Z</time><name>PT6060</name></trkpt>
<trkpt lat="51.602572" lon="03.797750"><ele>5.1</ele><time>2022-11-16T13:24:41Z</time><name>PT6061</name></trkpt>
<trkpt lat="51.602572" lon="03.797732"><ele>5.2</ele><time>2022-11-16T13:24:42Z</time><name>PT6062</name></trkpt>
<trkpt lat="51.602573" lon="03.797714"><ele>5.1</ele><time>2022-11-16T13:24:43Z</time><name>PT6063</name></trkpt>
<trkpt lat="51.602574" lon="03.797696"><ele>5.2</ele><time>2022-11-16T13:24:44Z</time><name>PT6064</name></trkpt>
<trkpt lat="51.602575" lon="03.797678"><ele>5.1</ele><time>2022-11-16T13:24:45Z</time><name>PT6065</name></trkpt>
<trkpt lat="51.602576" lon="03.797658"><ele>5.1</ele><time>2022-11-16T13:24:46Z</time><name>PT6066</name></trkpt>
<trkpt lat="51.602578" lon="03.797639"><ele>4.9</ele><time>2022-11-16T13:24:47Z</time><name>PT6067</name></trkpt>
<trkpt lat="51.602578" lon="03.797620"><ele>4.8</ele><time>2022-11-16T13:24:48Z</time><name>PT6068</name></trkpt>
<trkpt lat="51.602578" lon="03.797600"><ele>4.7</ele><time>2022-11-16T13:24:49Z</time><name>PT6069</name></trkpt>
<trkpt lat="51.602580" lon="03.797583"><ele>4.6</ele><time>2022-11-16T13:24:50Z</time><name>PT6070</name></trkpt>
<trkpt lat="51.602581" lon="03.797569"><ele>4.7</ele><time>2022-11-16T13:24:51Z</time><name>PT6071</name></trkpt>
<trkpt lat="51.602580" lon="03.797555"><ele>4.8</ele><time>2022-11-16T13:24:52Z</time><name>PT6072</name></trkpt>
<trkpt lat="51.602580" lon="03.797543"><ele>4.6</ele><time>2022-11-16T13:24:53Z</time><name>PT6073</name></trkpt>
<trkpt lat="51.602581" lon="03.797528"><ele>4.8</ele><time>2022-11-16T13:24:54Z</time><name>PT6074</name></trkpt>
<trkpt lat="51.602580" lon="03.797515"><ele>4.6</ele><time>2022-11-16T13:24:55Z</time><name>PT6075</name></trkpt>
<trkpt lat="51.602580" lon="03.797505"><ele>4.5</ele><time>2022-11-16T13:24:56Z</time><name>PT6076</name></trkpt>
<trkpt lat="51.602580" lon="03.797495"><ele>4.2</ele><time>2022-11-16T13:24:57Z</time><name>PT6077</name></trkpt>
<trkpt lat="51.602581" lon="03.797486"><ele>4.1</ele><time>2022-11-16T13:24:58Z</time><name>PT6078</name></trkpt>
<trkpt lat="51.602582" lon="03.797476"><ele>4.1</ele><time>2022-11-16T13:24:59Z</time><name>PT6079</name></trkpt>
<trkpt lat="51.602584" lon="03.797465"><ele>4.1</ele><time>2022-11-16T13:25:00Z</time><name>PT6080</name></trkpt>
<trkpt lat="51.602586" lon="03.797454"><ele>4.2</ele><time>2022-11-16T13:25:01Z</time><name>PT6081</name></trkpt>
<trkpt lat="51.602587" lon="03.797442"><ele>4.3</ele><time>2022-11-16T13:25:02Z</time><name>PT6082</name></trkpt>
<trkpt lat="51.602587" lon="03.797431"><ele>4.6</ele><time>2022-11-16T13:25:03Z</time><name>PT6083</name></trkpt>
<trkpt lat="51.602588" lon="03.797421"><ele>4.6</ele><time>2022-11-16T13:25:04Z</time><name>PT6084</name></trkpt>
<trkpt lat="51.602589" lon="03.797413"><ele>4.6</ele><time>2022-11-16T13:25:05Z</time><name>PT6085</name></trkpt>
<trkpt lat="51.602588" lon="03.797406"><ele>4.6</ele><time>2022-11-16T13:25:06Z</time><name>PT6086</name></trkpt>
<trkpt lat="51.602587" lon="03.797399"><ele>4.6</ele><time>2022-11-16T13:25:07Z</time><name>PT6087</name></trkpt>
<trkpt lat="51.602586" lon="03.797392"><ele>4.6</ele><time>2022-11-16T13:25:08Z</time><name>PT6088</name></trkpt>
<trkpt lat="51.602585" lon="03.797389"><ele>4.6</ele><time>2022-11-16T13:25:09Z</time><name>PT6089</name></trkpt>
<trkpt lat="51.602583" lon="03.797389"><ele>4.6</ele><time>2022-11-16T13:25:10Z</time><name>PT6090</name></trkpt>
<trkpt lat="51.602583" lon="03.797388"><ele>4.6</ele><time>2022-11-16T13:25:11Z</time><name>PT6091</name></trkpt>
<trkpt lat="51.602584" lon="03.797384"><ele>4.4</ele><time>2022-11-16T13:25:24Z</time><name>PT6092</name></trkpt>
<trkpt lat="51.602584" lon="03.797383"><ele>4.3</ele><time>2022-11-16T13:25:25Z</time><name>PT6093</name></trkpt>
<trkpt lat="51.602585" lon="03.797382"><ele>4.2</ele><time>2022-11-16T13:25:26Z</time><name>PT6094</name></trkpt>
<trkpt lat="51.602589" lon="03.797380"><ele>4</ele><time>2022-11-16T13:25:42Z</time><name>PT6095</name></trkpt>
<trkpt lat="51.602589" lon="03.797379"><ele>3.9</ele><time>2022-11-16T13:25:43Z</time><name>PT6096</name></trkpt>
<trkpt lat="51.602591" lon="03.797378"><ele>3.9</ele><time>2022-11-16T13:25:44Z</time><name>PT6097</name></trkpt>
<trkpt lat="51.602590" lon="03.797377"><ele>4</ele><time>2022-11-16T13:25:45Z</time><name>PT6098</name></trkpt>
<trkpt lat="51.602588" lon="03.797378"><ele>4.1</ele><time>2022-11-16T13:25:46Z</time><name>PT6099</name></trkpt>
<trkpt lat="51.602588" lon="03.797378"><ele>4.4</ele><time>2022-11-16T13:25:47Z</time><name>PT6100</name></trkpt>
<trkpt lat="51.602589" lon="03.797378"><ele>4.5</ele><time>2022-11-16T13:25:48Z</time><name>PT6101</name></trkpt>
<trkpt lat="51.602589" lon="03.797387"><ele>4.2</ele><time>2022-11-16T13:26:09Z</time><name>PT6102</name></trkpt>
<trkpt lat="51.602586" lon="03.797384"><ele>4.2</ele><time>2022-11-16T13:26:10Z</time><name>PT6103</name></trkpt>
<trkpt lat="51.602590" lon="03.797384"><ele>4.6</ele><time>2022-11-16T13:26:13Z</time><name>PT6104</name></trkpt>
<trkpt lat="51.602591" lon="03.797386"><ele>4.6</ele><time>2022-11-16T13:26:14Z</time><name>PT6105</name></trkpt>
<trkpt lat="51.602594" lon="03.797380"><ele>4.5</ele><time>2022-11-16T13:26:15Z</time><name>PT6106</name></trkpt>
<trkpt lat="51.602596" lon="03.797381"><ele>4.4</ele><time>2022-11-16T13:26:16Z</time><name>PT6107</name></trkpt>
<trkpt lat="51.602594" lon="03.797378"><ele>4.3</ele><time>2022-11-16T13:26:26Z</time><name>PT6108</name></trkpt>
<trkpt lat="51.602594" lon="03.797366"><ele>4.3</ele><time>2022-11-16T13:26:27Z</time><name>PT6109</name></trkpt>
<trkpt lat="51.602594" lon="03.797348"><ele>4.1</ele><time>2022-11-16T13:26:28Z</time><name>PT6110</name></trkpt>
<trkpt lat="51.602593" lon="03.797331"><ele>4.1</ele><time>2022-11-16T13:26:29Z</time><name>PT6111</name></trkpt>
<trkpt lat="51.602592" lon="03.797310"><ele>4.2</ele><time>2022-11-16T13:26:30Z</time><name>PT6112</name></trkpt>
<trkpt lat="51.602591" lon="03.797289"><ele>4.3</ele><time>2022-11-16T13:26:31Z</time><name>PT6113</name></trkpt>
<trkpt lat="51.602590" lon="03.797269"><ele>4.2</ele><time>2022-11-16T13:26:32Z</time><name>PT6114</name></trkpt>
<trkpt lat="51.602591" lon="03.797248"><ele>4.4</ele><time>2022-11-16T13:26:33Z</time><name>PT6115</name></trkpt>
<trkpt lat="51.602592" lon="03.797231"><ele>4.4</ele><time>2022-11-16T13:26:34Z</time><name>PT6116</name></trkpt>
<trkpt lat="51.602593" lon="03.797213"><ele>4.5</ele><time>2022-11-16T13:26:35Z</time><name>PT6117</name></trkpt>
<trkpt lat="51.602594" lon="03.797196"><ele>4.3</ele><time>2022-11-16T13:26:36Z</time><name>PT6118</name></trkpt>
<trkpt lat="51.602594" lon="03.797179"><ele>4.3</ele><time>2022-11-16T13:26:37Z</time><name>PT6119</name></trkpt>
<trkpt lat="51.602594" lon="03.797162"><ele>4.2</ele><time>2022-11-16T13:26:38Z</time><name>PT6120</name></trkpt>
<trkpt lat="51.602593" lon="03.797145"><ele>4.1</ele><time>2022-11-16T13:26:39Z</time><name>PT6121</name></trkpt>
<trkpt lat="51.602592" lon="03.797126"><ele>4</ele><time>2022-11-16T13:26:40Z</time><name>PT6122</name></trkpt>
<trkpt lat="51.602591" lon="03.797107"><ele>4.2</ele><time>2022-11-16T13:26:41Z</time><name>PT6123</name></trkpt>
<trkpt lat="51.602590" lon="03.797086"><ele>4.2</ele><time>2022-11-16T13:26:42Z</time><name>PT6124</name></trkpt>
<trkpt lat="51.602590" lon="03.797067"><ele>4.2</ele><time>2022-11-16T13:26:43Z</time><name>PT6125</name></trkpt>
<trkpt lat="51.602589" lon="03.797049"><ele>4.5</ele><time>2022-11-16T13:26:44Z</time><name>PT6126</name></trkpt>
<trkpt lat="51.602589" lon="03.797031"><ele>4.6</ele><time>2022-11-16T13:26:45Z</time><name>PT6127</name></trkpt>
<trkpt lat="51.602588" lon="03.797011"><ele>4.6</ele><time>2022-11-16T13:26:46Z</time><name>PT6128</name></trkpt>
<trkpt lat="51.602589" lon="03.796992"><ele>4.6</ele><time>2022-11-16T13:26:47Z</time><name>PT6129</name></trkpt>
<trkpt lat="51.602589" lon="03.796973"><ele>4.4</ele><time>2022-11-16T13:26:48Z</time><name>PT6130</name></trkpt>
<trkpt lat="51.602590" lon="03.796954"><ele>4.5</ele><time>2022-11-16T13:26:49Z</time><name>PT6131</name></trkpt>
<trkpt lat="51.602590" lon="03.796935"><ele>4.4</ele><time>2022-11-16T13:26:50Z</time><name>PT6132</name></trkpt>
<trkpt lat="51.602588" lon="03.796916"><ele>4.1</ele><time>2022-11-16T13:26:51Z</time><name>PT6133</name></trkpt>
<trkpt lat="51.602588" lon="03.796895"><ele>4.1</ele><time>2022-11-16T13:26:52Z</time><name>PT6134</name></trkpt>
<trkpt lat="51.602588" lon="03.796874"><ele>4.1</ele><time>2022-11-16T13:26:53Z</time><name>PT6135</name></trkpt>
<trkpt lat="51.602589" lon="03.796854"><ele>4</ele><time>2022-11-16T13:26:54Z</time><name>PT6136</name></trkpt>
<trkpt lat="51.602588" lon="03.796832"><ele>4.1</ele><time>2022-11-16T13:26:55Z</time><name>PT6137</name></trkpt>
<trkpt lat="51.602585" lon="03.796812"><ele>4.1</ele><time>2022-11-16T13:26:56Z</time><name>PT6138</name></trkpt>
<trkpt lat="51.602584" lon="03.796792"><ele>4.3</ele><time>2022-11-16T13:26:57Z</time><name>PT6139</name></trkpt>
<trkpt lat="51.602582" lon="03.796771"><ele>4.3</ele><time>2022-11-16T13:26:58Z</time><name>PT6140</name></trkpt>
<trkpt lat="51.602580" lon="03.796755"><ele>4.3</ele><time>2022-11-16T13:26:59Z</time><name>PT6141</name></trkpt>
<trkpt lat="51.602581" lon="03.796737"><ele>4.3</ele><time>2022-11-16T13:27:00Z</time><name>PT6142</name></trkpt>
<trkpt lat="51.602581" lon="03.796719"><ele>4.3</ele><time>2022-11-16T13:27:01Z</time><name>PT6143</name></trkpt>
<trkpt lat="51.602582" lon="03.796700"><ele>4.3</ele><time>2022-11-16T13:27:02Z</time><name>PT6144</name></trkpt>
<trkpt lat="51.602582" lon="03.796682"><ele>4.3</ele><time>2022-11-16T13:27:03Z</time><name>PT6145</name></trkpt>
<trkpt lat="51.602582" lon="03.796663"><ele>4.3</ele><time>2022-11-16T13:27:04Z</time><name>PT6146</name></trkpt>
<trkpt lat="51.602582" lon="03.796646"><ele>4.1</ele><time>2022-11-16T13:27:05Z</time><name>PT6147</name></trkpt>
<trkpt lat="51.602582" lon="03.796627"><ele>4</ele><time>2022-11-16T13:27:06Z</time><name>PT6148</name></trkpt>
<trkpt lat="51.602581" lon="03.796611"><ele>3.9</ele><time>2022-11-16T13:27:07Z</time><name>PT6149</name></trkpt>
<trkpt lat="51.602584" lon="03.796599"><ele>3.8</ele><time>2022-11-16T13:27:08Z</time><name>PT6150</name></trkpt>
<trkpt lat="51.602587" lon="03.796600"><ele>4</ele><time>2022-11-16T13:27:09Z</time><name>PT6151</name></trkpt>
<trkpt lat="51.602588" lon="03.796601"><ele>4</ele><time>2022-11-16T13:27:10Z</time><name>PT6152</name></trkpt>
<trkpt lat="51.602587" lon="03.796599"><ele>4.1</ele><time>2022-11-16T13:27:11Z</time><name>PT6153</name></trkpt>
<trkpt lat="51.602587" lon="03.796599"><ele>3.9</ele><time>2022-11-16T13:27:16Z</time><name>PT6154</name></trkpt>
<trkpt lat="51.602590" lon="03.796587"><ele>4.1</ele><time>2022-11-16T13:27:17Z</time><name>PT6155</name></trkpt>
<trkpt lat="51.602590" lon="03.796575"><ele>4.1</ele><time>2022-11-16T13:27:18Z</time><name>PT6156</name></trkpt>
<trkpt lat="51.602588" lon="03.796561"><ele>4.1</ele><time>2022-11-16T13:27:19Z</time><name>PT6157</name></trkpt>
<trkpt lat="51.602588" lon="03.796549"><ele>4.1</ele><time>2022-11-16T13:27:20Z</time><name>PT6158</name></trkpt>
<trkpt lat="51.602587" lon="03.796534"><ele>4.2</ele><time>2022-11-16T13:27:21Z</time><name>PT6159</name></trkpt>
<trkpt lat="51.602588" lon="03.796516"><ele>4.2</ele><time>2022-11-16T13:27:22Z</time><name>PT6160</name></trkpt>
<trkpt lat="51.602588" lon="03.796501"><ele>4.2</ele><time>2022-11-16T13:27:23Z</time><name>PT6161</name></trkpt>
<trkpt lat="51.602588" lon="03.796484"><ele>4.3</ele><time>2022-11-16T13:27:24Z</time><name>PT6162</name></trkpt>
<trkpt lat="51.602588" lon="03.796468"><ele>4.2</ele><time>2022-11-16T13:27:25Z</time><name>PT6163</name></trkpt>
<trkpt lat="51.602591" lon="03.796453"><ele>4.1</ele><time>2022-11-16T13:27:26Z</time><name>PT6164</name></trkpt>
<trkpt lat="51.602593" lon="03.796437"><ele>4</ele><time>2022-11-16T13:27:27Z</time><name>PT6165</name></trkpt>
<trkpt lat="51.602594" lon="03.796423"><ele>3.9</ele><time>2022-11-16T13:27:28Z</time><name>PT6166</name></trkpt>
<trkpt lat="51.602593" lon="03.796406"><ele>3.8</ele><time>2022-11-16T13:27:29Z</time><name>PT6167</name></trkpt>
<trkpt lat="51.602591" lon="03.796394"><ele>4</ele><time>2022-11-16T13:27:30Z</time><name>PT6168</name></trkpt>
<trkpt lat="51.602591" lon="03.796381"><ele>4.1</ele><time>2022-11-16T13:27:31Z</time><name>PT6169</name></trkpt>
<trkpt lat="51.602591" lon="03.796375"><ele>4.1</ele><time>2022-11-16T13:27:32Z</time><name>PT6170</name></trkpt>
<trkpt lat="51.602591" lon="03.796373"><ele>4.2</ele><time>2022-11-16T13:27:33Z</time><name>PT6171</name></trkpt>
<trkpt lat="51.602590" lon="03.796372"><ele>4.2</ele><time>2022-11-16T13:27:34Z</time><name>PT6172</name></trkpt>
<trkpt lat="51.602590" lon="03.796371"><ele>4.1</ele><time>2022-11-16T13:27:35Z</time><name>PT6173</name></trkpt>
<trkpt lat="51.602597" lon="03.796358"><ele>4.3</ele><time>2022-11-16T13:27:46Z</time><name>PT6174</name></trkpt>
<trkpt lat="51.602601" lon="03.796353"><ele>4.6</ele><time>2022-11-16T13:27:47Z</time><name>PT6175</name></trkpt>
<trkpt lat="51.602603" lon="03.796349"><ele>4.6</ele><time>2022-11-16T13:27:48Z</time><name>PT6176</name></trkpt>
<trkpt lat="51.602604" lon="03.796348"><ele>4.4</ele><time>2022-11-16T13:27:55Z</time><name>PT6177</name></trkpt>
<trkpt lat="51.602605" lon="03.796342"><ele>4.4</ele><time>2022-11-16T13:27:56Z</time><name>PT6178</name></trkpt>
<trkpt lat="51.602608" lon="03.796332"><ele>4.4</ele><time>2022-11-16T13:27:57Z</time><name>PT6179</name></trkpt>
<trkpt lat="51.602612" lon="03.796322"><ele>4.3</ele><time>2022-11-16T13:27:58Z</time><name>PT6180</name></trkpt>
<trkpt lat="51.602615" lon="03.796310"><ele>4.3</ele><time>2022-11-16T13:27:59Z</time><name>PT6181</name></trkpt>
<trkpt lat="51.602611" lon="03.796297"><ele>4.3</ele><time>2022-11-16T13:28:00Z</time><name>PT6182</name></trkpt>
<trkpt lat="51.602609" lon="03.796282"><ele>4.3</ele><time>2022-11-16T13:28:01Z</time><name>PT6183</name></trkpt>
<trkpt lat="51.602604" lon="03.796259"><ele>4.2</ele><time>2022-11-16T13:28:02Z</time><name>PT6184</name></trkpt>
<trkpt lat="51.602605" lon="03.796250"><ele>4.1</ele><time>2022-11-16T13:28:03Z</time><name>PT6185</name></trkpt>
<trkpt lat="51.602609" lon="03.796244"><ele>4.1</ele><time>2022-11-16T13:28:04Z</time><name>PT6186</name></trkpt>
<trkpt lat="51.602611" lon="03.796240"><ele>4.1</ele><time>2022-11-16T13:28:05Z</time><name>PT6187</name></trkpt>
<trkpt lat="51.602612" lon="03.796240"><ele>4.1</ele><time>2022-11-16T13:28:06Z</time><name>PT6188</name></trkpt>
<trkpt lat="51.602612" lon="03.796238"><ele>4.1</ele><time>2022-11-16T13:28:07Z</time><name>PT6189</name></trkpt>
<trkpt lat="51.602615" lon="03.796233"><ele>4.6</ele><time>2022-11-16T13:28:39Z</time><name>PT6190</name></trkpt>
<trkpt lat="51.602616" lon="03.796216"><ele>4.6</ele><time>2022-11-16T13:28:40Z</time><name>PT6191</name></trkpt>
<trkpt lat="51.602616" lon="03.796204"><ele>4.7</ele><time>2022-11-16T13:28:41Z</time><name>PT6192</name></trkpt>
<trkpt lat="51.602614" lon="03.796197"><ele>4.7</ele><time>2022-11-16T13:28:42Z</time><name>PT6193</name></trkpt>
<trkpt lat="51.602615" lon="03.796184"><ele>4.8</ele><time>2022-11-16T13:28:43Z</time><name>PT6194</name></trkpt>
<trkpt lat="51.602615" lon="03.796169"><ele>4.8</ele><time>2022-11-16T13:28:44Z</time><name>PT6195</name></trkpt>
<trkpt lat="51.602615" lon="03.796153"><ele>4.9</ele><time>2022-11-16T13:28:45Z</time><name>PT6196</name></trkpt>
<trkpt lat="51.602617" lon="03.796139"><ele>4.8</ele><time>2022-11-16T13:28:46Z</time><name>PT6197</name></trkpt>
<trkpt lat="51.602619" lon="03.796122"><ele>4.9</ele><time>2022-11-16T13:28:47Z</time><name>PT6198</name></trkpt>
<trkpt lat="51.602621" lon="03.796111"><ele>4.9</ele><time>2022-11-16T13:28:48Z</time><name>PT6199</name></trkpt>
<trkpt lat="51.602622" lon="03.796096"><ele>4.9</ele><time>2022-11-16T13:28:49Z</time><name>PT6200</name></trkpt>
<trkpt lat="51.602621" lon="03.796079"><ele>4.9</ele><time>2022-11-16T13:28:50Z</time><name>PT6201</name></trkpt>
<trkpt lat="51.602619" lon="03.796064"><ele>5.1</ele><time>2022-11-16T13:28:51Z</time><name>PT6202</name></trkpt>
<trkpt lat="51.602617" lon="03.796049"><ele>5.1</ele><time>2022-11-16T13:28:52Z</time><name>PT6203</name></trkpt>
<trkpt lat="51.602616" lon="03.796033"><ele>5.1</ele><time>2022-11-16T13:28:53Z</time><name>PT6204</name></trkpt>
<trkpt lat="51.602613" lon="03.796016"><ele>5.1</ele><time>2022-11-16T13:28:54Z</time><name>PT6205</name></trkpt>
<trkpt lat="51.602611" lon="03.796000"><ele>5.1</ele><time>2022-11-16T13:28:55Z</time><name>PT6206</name></trkpt>
<trkpt lat="51.602611" lon="03.795985"><ele>5.1</ele><time>2022-11-16T13:28:56Z</time><name>PT6207</name></trkpt>
<trkpt lat="51.602611" lon="03.795970"><ele>5</ele><time>2022-11-16T13:28:57Z</time><name>PT6208</name></trkpt>
<trkpt lat="51.602611" lon="03.795955"><ele>5</ele><time>2022-11-16T13:28:58Z</time><name>PT6209</name></trkpt>
<trkpt lat="51.602612" lon="03.795937"><ele>5.1</ele><time>2022-11-16T13:28:59Z</time><name>PT6210</name></trkpt>
<trkpt lat="51.602613" lon="03.795919"><ele>5.3</ele><time>2022-11-16T13:29:00Z</time><name>PT6211</name></trkpt>
<trkpt lat="51.602612" lon="03.795903"><ele>5.2</ele><time>2022-11-16T13:29:01Z</time><name>PT6212</name></trkpt>
<trkpt lat="51.602611" lon="03.795890"><ele>5.4</ele><time>2022-11-16T13:29:02Z</time><name>PT6213</name></trkpt>
<trkpt lat="51.602610" lon="03.795874"><ele>5.6</ele><time>2022-11-16T13:29:03Z</time><name>PT6214</name></trkpt>
<trkpt lat="51.602609" lon="03.795857"><ele>5.7</ele><time>2022-11-16T13:29:04Z</time><name>PT6215</name></trkpt>
<trkpt lat="51.602607" lon="03.795842"><ele>5.7</ele><time>2022-11-16T13:29:05Z</time><name>PT6216</name></trkpt>
<trkpt lat="51.602606" lon="03.795826"><ele>5.9</ele><time>2022-11-16T13:29:06Z</time><name>PT6217</name></trkpt>
<trkpt lat="51.602605" lon="03.795811"><ele>6</ele><time>2022-11-16T13:29:07Z</time><name>PT6218</name></trkpt>
<trkpt lat="51.602606" lon="03.795795"><ele>6.1</ele><time>2022-11-16T13:29:08Z</time><name>PT6219</name></trkpt>
<trkpt lat="51.602609" lon="03.795780"><ele>6.4</ele><time>2022-11-16T13:29:09Z</time><name>PT6220</name></trkpt>
<trkpt lat="51.602609" lon="03.795761"><ele>6.5</ele><time>2022-11-16T13:29:10Z</time><name>PT6221</name></trkpt>
<trkpt lat="51.602602" lon="03.795740"><ele>6.6</ele><time>2022-11-16T13:29:11Z</time><name>PT6222</name></trkpt>
<trkpt lat="51.602597" lon="03.795723"><ele>6.5</ele><time>2022-11-16T13:29:12Z</time><name>PT6223</name></trkpt>
<trkpt lat="51.602593" lon="03.795704"><ele>6.3</ele><time>2022-11-16T13:29:13Z</time><name>PT6224</name></trkpt>
<trkpt lat="51.602588" lon="03.795685"><ele>6.3</ele><time>2022-11-16T13:29:14Z</time><name>PT6225</name></trkpt>
<trkpt lat="51.602587" lon="03.795669"><ele>6.3</ele><time>2022-11-16T13:29:15Z</time><name>PT6226</name></trkpt>
<trkpt lat="51.602584" lon="03.795653"><ele>6.5</ele><time>2022-11-16T13:29:16Z</time><name>PT6227</name></trkpt>
<trkpt lat="51.602582" lon="03.795638"><ele>6.5</ele><time>2022-11-16T13:29:17Z</time><name>PT6228</name></trkpt>
<trkpt lat="51.602581" lon="03.795625"><ele>6.7</ele><time>2022-11-16T13:29:18Z</time><name>PT6229</name></trkpt>
<trkpt lat="51.602580" lon="03.795610"><ele>6.8</ele><time>2022-11-16T13:29:19Z</time><name>PT6230</name></trkpt>
<trkpt lat="51.602579" lon="03.795596"><ele>7</ele><time>2022-11-16T13:29:20Z</time><name>PT6231</name></trkpt>
<trkpt lat="51.602577" lon="03.795582"><ele>7</ele><time>2022-11-16T13:29:21Z</time><name>PT6232</name></trkpt>
<trkpt lat="51.602574" lon="03.795566"><ele>7.1</ele><time>2022-11-16T13:29:22Z</time><name>PT6233</name></trkpt>
<trkpt lat="51.602571" lon="03.795550"><ele>7.3</ele><time>2022-11-16T13:29:23Z</time><name>PT6234</name></trkpt>
<trkpt lat="51.602567" lon="03.795534"><ele>7.3</ele><time>2022-11-16T13:29:24Z</time><name>PT6235</name></trkpt>
<trkpt lat="51.602564" lon="03.795518"><ele>7.3</ele><time>2022-11-16T13:29:25Z</time><name>PT6236</name></trkpt>
<trkpt lat="51.602562" lon="03.795503"><ele>7.3</ele><time>2022-11-16T13:29:26Z</time><name>PT6237</name></trkpt>
<trkpt lat="51.602562" lon="03.795491"><ele>7.4</ele><time>2022-11-16T13:29:27Z</time><name>PT6238</name></trkpt>
<trkpt lat="51.602559" lon="03.795479"><ele>7.3</ele><time>2022-11-16T13:29:28Z</time><name>PT6239</name></trkpt>
<trkpt lat="51.602555" lon="03.795465"><ele>7.6</ele><time>2022-11-16T13:29:29Z</time><name>PT6240</name></trkpt>
<trkpt lat="51.602551" lon="03.795451"><ele>7.9</ele><time>2022-11-16T13:29:30Z</time><name>PT6241</name></trkpt>
<trkpt lat="51.602547" lon="03.795435"><ele>8.1</ele><time>2022-11-16T13:29:31Z</time><name>PT6242</name></trkpt>
<trkpt lat="51.602542" lon="03.795420"><ele>8.2</ele><time>2022-11-16T13:29:32Z</time><name>PT6243</name></trkpt>
<trkpt lat="51.602537" lon="03.795407"><ele>8.2</ele><time>2022-11-16T13:29:33Z</time><name>PT6244</name></trkpt>
<trkpt lat="51.602532" lon="03.795395"><ele>8.2</ele><time>2022-11-16T13:29:34Z</time><name>PT6245</name></trkpt>
<trkpt lat="51.602526" lon="03.795383"><ele>8.2</ele><time>2022-11-16T13:29:35Z</time><name>PT6246</name></trkpt>
<trkpt lat="51.602521" lon="03.795374"><ele>7.9</ele><time>2022-11-16T13:29:36Z</time><name>PT6247</name></trkpt>
<trkpt lat="51.602516" lon="03.795361"><ele>8</ele><time>2022-11-16T13:29:37Z</time><name>PT6248</name></trkpt>
<trkpt lat="51.602511" lon="03.795349"><ele>8.2</ele><time>2022-11-16T13:29:38Z</time><name>PT6249</name></trkpt>
<trkpt lat="51.602506" lon="03.795339"><ele>8.2</ele><time>2022-11-16T13:29:39Z</time><name>PT6250</name></trkpt>
<trkpt lat="51.602502" lon="03.795331"><ele>8.2</ele><time>2022-11-16T13:29:40Z</time><name>PT6251</name></trkpt>
<trkpt lat="51.602498" lon="03.795321"><ele>8.2</ele><time>2022-11-16T13:29:41Z</time><name>PT6252</name></trkpt>
<trkpt lat="51.602494" lon="03.795313"><ele>8</ele><time>2022-11-16T13:29:42Z</time><name>PT6253</name></trkpt>
<trkpt lat="51.602491" lon="03.795304"><ele>7.8</ele><time>2022-11-16T13:29:43Z</time><name>PT6254</name></trkpt>
<trkpt lat="51.602487" lon="03.795296"><ele>7.9</ele><time>2022-11-16T13:29:44Z</time><name>PT6255</name></trkpt>
<trkpt lat="51.602482" lon="03.795291"><ele>7.9</ele><time>2022-11-16T13:29:45Z</time><name>PT6256</name></trkpt>
<trkpt lat="51.602478" lon="03.795290"><ele>8.1</ele><time>2022-11-16T13:29:46Z</time><name>PT6257</name></trkpt>
<trkpt lat="51.602477" lon="03.795288"><ele>8.1</ele><time>2022-11-16T13:29:47Z</time><name>PT6258</name></trkpt>
<trkpt lat="51.602477" lon="03.795287"><ele>8.1</ele><time>2022-11-16T13:29:48Z</time><name>PT6259</name></trkpt>
<trkpt lat="51.602477" lon="03.795285"><ele>8</ele><time>2022-11-16T13:29:49Z</time><name>PT6260</name></trkpt>
<trkpt lat="51.602476" lon="03.795281"><ele>7.9</ele><time>2022-11-16T13:29:52Z</time><name>PT6261</name></trkpt>
<trkpt lat="51.602473" lon="03.795274"><ele>8</ele><time>2022-11-16T13:29:53Z</time><name>PT6262</name></trkpt>
<trkpt lat="51.602471" lon="03.795264"><ele>8.1</ele><time>2022-11-16T13:29:54Z</time><name>PT6263</name></trkpt>
<trkpt lat="51.602467" lon="03.795253"><ele>8</ele><time>2022-11-16T13:29:55Z</time><name>PT6264</name></trkpt>
<trkpt lat="51.602463" lon="03.795242"><ele>7.9</ele><time>2022-11-16T13:29:56Z</time><name>PT6265</name></trkpt>
<trkpt lat="51.602460" lon="03.795230"><ele>7.9</ele><time>2022-11-16T13:29:57Z</time><name>PT6266</name></trkpt>
<trkpt lat="51.602457" lon="03.795217"><ele>7.9</ele><time>2022-11-16T13:29:58Z</time><name>PT6267</name></trkpt>
<trkpt lat="51.602452" lon="03.795205"><ele>7.8</ele><time>2022-11-16T13:29:59Z</time><name>PT6268</name></trkpt>
<trkpt lat="51.602445" lon="03.795193"><ele>7.9</ele><time>2022-11-16T13:30:00Z</time><name>PT6269</name></trkpt>
<trkpt lat="51.602439" lon="03.795182"><ele>7.9</ele><time>2022-11-16T13:30:01Z</time><name>PT6270</name></trkpt>
<trkpt lat="51.602433" lon="03.795168"><ele>8.1</ele><time>2022-11-16T13:30:02Z</time><name>PT6271</name></trkpt>
<trkpt lat="51.602430" lon="03.795156"><ele>7.9</ele><time>2022-11-16T13:30:03Z</time><name>PT6272</name></trkpt>
<trkpt lat="51.602427" lon="03.795145"><ele>7.9</ele><time>2022-11-16T13:30:04Z</time><name>PT6273</name></trkpt>
<trkpt lat="51.602425" lon="03.795135"><ele>7.8</ele><time>2022-11-16T13:30:05Z</time><name>PT6274</name></trkpt>
<trkpt lat="51.602424" lon="03.795126"><ele>7.7</ele><time>2022-11-16T13:30:06Z</time><name>PT6275</name></trkpt>
<trkpt lat="51.602423" lon="03.795119"><ele>7.7</ele><time>2022-11-16T13:30:07Z</time><name>PT6276</name></trkpt>
<trkpt lat="51.602422" lon="03.795114"><ele>7.6</ele><time>2022-11-16T13:30:08Z</time><name>PT6277</name></trkpt>
<trkpt lat="51.602422" lon="03.795112"><ele>7.7</ele><time>2022-11-16T13:30:09Z</time><name>PT6278</name></trkpt>
<trkpt lat="51.602422" lon="03.795111"><ele>7.6</ele><time>2022-11-16T13:30:10Z</time><name>PT6279</name></trkpt>
<trkpt lat="51.602422" lon="03.795110"><ele>7.7</ele><time>2022-11-16T13:30:11Z</time><name>PT6280</name></trkpt>
<trkpt lat="51.602420" lon="03.795105"><ele>7.7</ele><time>2022-11-16T13:30:13Z</time><name>PT6281</name></trkpt>
<trkpt lat="51.602416" lon="03.795095"><ele>7.7</ele><time>2022-11-16T13:30:14Z</time><name>PT6282</name></trkpt>
<trkpt lat="51.602413" lon="03.795087"><ele>7.8</ele><time>2022-11-16T13:30:15Z</time><name>PT6283</name></trkpt>
<trkpt lat="51.602409" lon="03.795080"><ele>7.7</ele><time>2022-11-16T13:30:16Z</time><name>PT6284</name></trkpt>
<trkpt lat="51.602407" lon="03.795071"><ele>7.6</ele><time>2022-11-16T13:30:17Z</time><name>PT6285</name></trkpt>
<trkpt lat="51.602408" lon="03.795070"><ele>7.6</ele><time>2022-11-16T13:30:18Z</time><name>PT6286</name></trkpt>
<trkpt lat="51.602406" lon="03.795066"><ele>7.5</ele><time>2022-11-16T13:30:19Z</time><name>PT6287</name></trkpt>
<trkpt lat="51.602400" lon="03.795057"><ele>7.2</ele><time>2022-11-16T13:30:20Z</time><name>PT6288</name></trkpt>
<trkpt lat="51.602396" lon="03.795047"><ele>7.3</ele><time>2022-11-16T13:30:21Z</time><name>PT6289</name></trkpt>
<trkpt lat="51.602392" lon="03.795036"><ele>7.5</ele><time>2022-11-16T13:30:22Z</time><name>PT6290</name></trkpt>
<trkpt lat="51.602388" lon="03.795028"><ele>7.4</ele><time>2022-11-16T13:30:23Z</time><name>PT6291</name></trkpt>
<trkpt lat="51.602385" lon="03.795020"><ele>7.5</ele><time>2022-11-16T13:30:24Z</time><name>PT6292</name></trkpt>
<trkpt lat="51.602382" lon="03.795011"><ele>7.5</ele><time>2022-11-16T13:30:25Z</time><name>PT6293</name></trkpt>
<trkpt lat="51.602380" lon="03.795004"><ele>7.3</ele><time>2022-11-16T13:30:26Z</time><name>PT6294</name></trkpt>
<trkpt lat="51.602377" lon="03.794995"><ele>7.3</ele><time>2022-11-16T13:30:27Z</time><name>PT6295</name></trkpt>
<trkpt lat="51.602375" lon="03.794984"><ele>7.3</ele><time>2022-11-16T13:30:28Z</time><name>PT6296</name></trkpt>
<trkpt lat="51.602374" lon="03.794972"><ele>7.5</ele><time>2022-11-16T13:30:29Z</time><name>PT6297</name></trkpt>
<trkpt lat="51.602371" lon="03.794962"><ele>7.6</ele><time>2022-11-16T13:30:30Z</time><name>PT6298</name></trkpt>
<trkpt lat="51.602367" lon="03.794952"><ele>7.7</ele><time>2022-11-16T13:30:31Z</time><name>PT6299</name></trkpt>
<trkpt lat="51.602362" lon="03.794940"><ele>7.5</ele><time>2022-11-16T13:30:32Z</time><name>PT6300</name></trkpt>
<trkpt lat="51.602360" lon="03.794930"><ele>7.4</ele><time>2022-11-16T13:30:33Z</time><name>PT6301</name></trkpt>
<trkpt lat="51.602357" lon="03.794920"><ele>7.4</ele><time>2022-11-16T13:30:34Z</time><name>PT6302</name></trkpt>
<trkpt lat="51.602355" lon="03.794913"><ele>7.4</ele><time>2022-11-16T13:30:35Z</time><name>PT6303</name></trkpt>
<trkpt lat="51.602354" lon="03.794906"><ele>7.3</ele><time>2022-11-16T13:30:36Z</time><name>PT6304</name></trkpt>
<trkpt lat="51.602355" lon="03.794898"><ele>7.3</ele><time>2022-11-16T13:30:37Z</time><name>PT6305</name></trkpt>
<trkpt lat="51.602356" lon="03.794895"><ele>7.2</ele><time>2022-11-16T13:30:38Z</time><name>PT6306</name></trkpt>
<trkpt lat="51.602356" lon="03.794895"><ele>7</ele><time>2022-11-16T13:30:39Z</time><name>PT6307</name></trkpt>
<trkpt lat="51.602356" lon="03.794895"><ele>6.9</ele><time>2022-11-16T13:30:40Z</time><name>PT6308</name></trkpt>
<trkpt lat="51.602360" lon="03.794895"><ele>6.9</ele><time>2022-11-16T13:30:41Z</time><name>PT6309</name></trkpt>
<trkpt lat="51.602363" lon="03.794888"><ele>6.8</ele><time>2022-11-16T13:30:42Z</time><name>PT6310</name></trkpt>
<trkpt lat="51.602362" lon="03.794881"><ele>6.9</ele><time>2022-11-16T13:30:43Z</time><name>PT6311</name></trkpt>
<trkpt lat="51.602359" lon="03.794879"><ele>7</ele><time>2022-11-16T13:30:44Z</time><name>PT6312</name></trkpt>
<trkpt lat="51.602357" lon="03.794879"><ele>7.1</ele><time>2022-11-16T13:30:45Z</time><name>PT6313</name></trkpt>
<trkpt lat="51.602355" lon="03.794883"><ele>7</ele><time>2022-11-16T13:30:46Z</time><name>PT6314</name></trkpt>
<trkpt lat="51.602353" lon="03.794885"><ele>7.1</ele><time>2022-11-16T13:30:47Z</time><name>PT6315</name></trkpt>
<trkpt lat="51.602349" lon="03.794882"><ele>7.1</ele><time>2022-11-16T13:30:48Z</time><name>PT6316</name></trkpt>
<trkpt lat="51.602344" lon="03.794878"><ele>7</ele><time>2022-11-16T13:30:49Z</time><name>PT6317</name></trkpt>
<trkpt lat="51.602340" lon="03.794873"><ele>6.8</ele><time>2022-11-16T13:30:50Z</time><name>PT6318</name></trkpt>
<trkpt lat="51.602336" lon="03.794875"><ele>6.8</ele><time>2022-11-16T13:30:51Z</time><name>PT6319</name></trkpt>
<trkpt lat="51.602336" lon="03.794879"><ele>6.7</ele><time>2022-11-16T13:30:52Z</time><name>PT6320</name></trkpt>
<trkpt lat="51.602336" lon="03.794882"><ele>6.9</ele><time>2022-11-16T13:30:53Z</time><name>PT6321</name></trkpt>
<trkpt lat="51.602336" lon="03.794882"><ele>6.9</ele><time>2022-11-16T13:30:54Z</time><name>PT6322</name></trkpt>
<trkpt lat="51.602337" lon="03.794882"><ele>6.9</ele><time>2022-11-16T13:30:55Z</time><name>PT6323</name></trkpt>
<trkpt lat="51.602337" lon="03.794881"><ele>7</ele><time>2022-11-16T13:30:56Z</time><name>PT6324</name></trkpt>
<trkpt lat="51.602334" lon="03.794880"><ele>6.8</ele><time>2022-11-16T13:31:09Z</time><name>PT6325</name></trkpt>
<trkpt lat="51.602327" lon="03.794875"><ele>6.9</ele><time>2022-11-16T13:31:10Z</time><name>PT6326</name></trkpt>
<trkpt lat="51.602327" lon="03.794871"><ele>7</ele><time>2022-11-16T13:31:11Z</time><name>PT6327</name></trkpt>
<trkpt lat="51.602328" lon="03.794864"><ele>6.8</ele><time>2022-11-16T13:31:12Z</time><name>PT6328</name></trkpt>
<trkpt lat="51.602326" lon="03.794854"><ele>6.9</ele><time>2022-11-16T13:31:13Z</time><name>PT6329</name></trkpt>
<trkpt lat="51.602323" lon="03.794843"><ele>7.1</ele><time>2022-11-16T13:31:14Z</time><name>PT6330</name></trkpt>
<trkpt lat="51.602320" lon="03.794830"><ele>7</ele><time>2022-11-16T13:31:15Z</time><name>PT6331</name></trkpt>
<trkpt lat="51.602314" lon="03.794818"><ele>7.1</ele><time>2022-11-16T13:31:16Z</time><name>PT6332</name></trkpt>
<trkpt lat="51.602309" lon="03.794805"><ele>7.1</ele><time>2022-11-16T13:31:17Z</time><name>PT6333</name></trkpt>
<trkpt lat="51.602305" lon="03.794792"><ele>6.9</ele><time>2022-11-16T13:31:18Z</time><name>PT6334</name></trkpt>
<trkpt lat="51.602301" lon="03.794780"><ele>6.9</ele><time>2022-11-16T13:31:19Z</time><name>PT6335</name></trkpt>
<trkpt lat="51.602296" lon="03.794768"><ele>6.9</ele><time>2022-11-16T13:31:20Z</time><name>PT6336</name></trkpt>
<trkpt lat="51.602291" lon="03.794756"><ele>6.7</ele><time>2022-11-16T13:31:21Z</time><name>PT6337</name></trkpt>
<trkpt lat="51.602287" lon="03.794745"><ele>6.7</ele><time>2022-11-16T13:31:22Z</time><name>PT6338</name></trkpt>
<trkpt lat="51.602283" lon="03.794733"><ele>6.9</ele><time>2022-11-16T13:31:23Z</time><name>PT6339</name></trkpt>
<trkpt lat="51.602280" lon="03.794725"><ele>6.7</ele><time>2022-11-16T13:31:24Z</time><name>PT6340</name></trkpt>
<trkpt lat="51.602277" lon="03.794720"><ele>6.6</ele><time>2022-11-16T13:31:25Z</time><name>PT6341</name></trkpt>
<trkpt lat="51.602274" lon="03.794713"><ele>6.5</ele><time>2022-11-16T13:31:26Z</time><name>PT6342</name></trkpt>
<trkpt lat="51.602273" lon="03.794709"><ele>6.2</ele><time>2022-11-16T13:31:27Z</time><name>PT6343</name></trkpt>
<trkpt lat="51.602272" lon="03.794708"><ele>6.1</ele><time>2022-11-16T13:31:28Z</time><name>PT6344</name></trkpt>
<trkpt lat="51.602273" lon="03.794709"><ele>6.3</ele><time>2022-11-16T13:31:29Z</time><name>PT6345</name></trkpt>
<trkpt lat="51.602273" lon="03.794709"><ele>6.5</ele><time>2022-11-16T13:31:30Z</time><name>PT6346</name></trkpt>
<trkpt lat="51.602273" lon="03.794709"><ele>6.7</ele><time>2022-11-16T13:31:31Z</time><name>PT6347</name></trkpt>
<trkpt lat="51.602277" lon="03.794675"><ele>6.1</ele><time>2022-11-16T13:31:55Z</time><name>PT6348</name></trkpt>
<trkpt lat="51.602275" lon="03.794650"><ele>6.1</ele><time>2022-11-16T13:31:56Z</time><name>PT6349</name></trkpt>
<trkpt lat="51.602272" lon="03.794628"><ele>6.1</ele><time>2022-11-16T13:31:57Z</time><name>PT6350</name></trkpt>
<trkpt lat="51.602267" lon="03.794603"><ele>6.1</ele><time>2022-11-16T13:31:58Z</time><name>PT6351</name></trkpt>
<trkpt lat="51.602263" lon="03.794580"><ele>6</ele><time>2022-11-16T13:31:59Z</time><name>PT6352</name></trkpt>
<trkpt lat="51.602257" lon="03.794560"><ele>6</ele><time>2022-11-16T13:32:00Z</time><name>PT6353</name></trkpt>
<trkpt lat="51.602253" lon="03.794542"><ele>5.8</ele><time>2022-11-16T13:32:01Z</time><name>PT6354</name></trkpt>
<trkpt lat="51.602249" lon="03.794523"><ele>5.7</ele><time>2022-11-16T13:32:02Z</time><name>PT6355</name></trkpt>
<trkpt lat="51.602247" lon="03.794505"><ele>5.7</ele><time>2022-11-16T13:32:03Z</time><name>PT6356</name></trkpt>
<trkpt lat="51.602243" lon="03.794489"><ele>5.6</ele><time>2022-11-16T13:32:04Z</time><name>PT6357</name></trkpt>
<trkpt lat="51.602238" lon="03.794479"><ele>5.6</ele><time>2022-11-16T13:32:05Z</time><name>PT6358</name></trkpt>
<trkpt lat="51.602235" lon="03.794474"><ele>5.6</ele><time>2022-11-16T13:32:06Z</time><name>PT6359</name></trkpt>
<trkpt lat="51.602234" lon="03.794470"><ele>5.6</ele><time>2022-11-16T13:32:07Z</time><name>PT6360</name></trkpt>
<trkpt lat="51.602235" lon="03.794468"><ele>5.6</ele><time>2022-11-16T13:32:08Z</time><name>PT6361</name></trkpt>
<trkpt lat="51.602233" lon="03.794459"><ele>5.5</ele><time>2022-11-16T13:32:13Z</time><name>PT6362</name></trkpt>
<trkpt lat="51.602230" lon="03.794445"><ele>5.3</ele><time>2022-11-16T13:32:14Z</time><name>PT6363</name></trkpt>
<trkpt lat="51.602226" lon="03.794438"><ele>5.2</ele><time>2022-11-16T13:32:15Z</time><name>PT6364</name></trkpt>
<trkpt lat="51.602225" lon="03.794426"><ele>5.1</ele><time>2022-11-16T13:32:16Z</time><name>PT6365</name></trkpt>
<trkpt lat="51.602224" lon="03.794412"><ele>5.3</ele><time>2022-11-16T13:32:17Z</time><name>PT6366</name></trkpt>
<trkpt lat="51.602219" lon="03.794395"><ele>5.5</ele><time>2022-11-16T13:32:18Z</time><name>PT6367</name></trkpt>
<trkpt lat="51.602214" lon="03.794380"><ele>5.3</ele><time>2022-11-16T13:32:19Z</time><name>PT6368</name></trkpt>
<trkpt lat="51.602212" lon="03.794364"><ele>5.3</ele><time>2022-11-16T13:32:20Z</time><name>PT6369</name></trkpt>
<trkpt lat="51.602209" lon="03.794348"><ele>5.4</ele><time>2022-11-16T13:32:21Z</time><name>PT6370</name></trkpt>
<trkpt lat="51.602204" lon="03.794334"><ele>5.3</ele><time>2022-11-16T13:32:22Z</time><name>PT6371</name></trkpt>
<trkpt lat="51.602199" lon="03.794322"><ele>5.1</ele><time>2022-11-16T13:32:23Z</time><name>PT6372</name></trkpt>
<trkpt lat="51.602194" lon="03.794312"><ele>5</ele><time>2022-11-16T13:32:24Z</time><name>PT6373</name></trkpt>
<trkpt lat="51.602191" lon="03.794305"><ele>5</ele><time>2022-11-16T13:32:25Z</time><name>PT6374</name></trkpt>
<trkpt lat="51.602190" lon="03.794298"><ele>4.8</ele><time>2022-11-16T13:32:26Z</time><name>PT6375</name></trkpt>
<trkpt lat="51.602191" lon="03.794289"><ele>4.6</ele><time>2022-11-16T13:32:27Z</time><name>PT6376</name></trkpt>
<trkpt lat="51.602191" lon="03.794276"><ele>4.7</ele><time>2022-11-16T13:32:28Z</time><name>PT6377</name></trkpt>
<trkpt lat="51.602187" lon="03.794264"><ele>4.7</ele><time>2022-11-16T13:32:29Z</time><name>PT6378</name></trkpt>
<trkpt lat="51.602184" lon="03.794254"><ele>4.8</ele><time>2022-11-16T13:32:30Z</time><name>PT6379</name></trkpt>
<trkpt lat="51.602183" lon="03.794241"><ele>5</ele><time>2022-11-16T13:32:31Z</time><name>PT6380</name></trkpt>
<trkpt lat="51.602180" lon="03.794228"><ele>5.1</ele><time>2022-11-16T13:32:32Z</time><name>PT6381</name></trkpt>
<trkpt lat="51.602178" lon="03.794216"><ele>4.9</ele><time>2022-11-16T13:32:33Z</time><name>PT6382</name></trkpt>
<trkpt lat="51.602176" lon="03.794205"><ele>5</ele><time>2022-11-16T13:32:34Z</time><name>PT6383</name></trkpt>
<trkpt lat="51.602172" lon="03.794195"><ele>4.6</ele><time>2022-11-16T13:32:35Z</time><name>PT6384</name></trkpt>
<trkpt lat="51.602171" lon="03.794186"><ele>4.6</ele><time>2022-11-16T13:32:36Z</time><name>PT6385</name></trkpt>
<trkpt lat="51.602168" lon="03.794177"><ele>4.5</ele><time>2022-11-16T13:32:37Z</time><name>PT6386</name></trkpt>
<trkpt lat="51.602163" lon="03.794163"><ele>4.2</ele><time>2022-11-16T13:32:38Z</time><name>PT6387</name></trkpt>
<trkpt lat="51.602158" lon="03.794149"><ele>4</ele><time>2022-11-16T13:32:39Z</time><name>PT6388</name></trkpt>
<trkpt lat="51.602155" lon="03.794135"><ele>3.9</ele><time>2022-11-16T13:32:40Z</time><name>PT6389</name></trkpt>
<trkpt lat="51.602152" lon="03.794120"><ele>3.8</ele><time>2022-11-16T13:32:41Z</time><name>PT6390</name></trkpt>
<trkpt lat="51.602148" lon="03.794107"><ele>3.8</ele><time>2022-11-16T13:32:42Z</time><name>PT6391</name></trkpt>
<trkpt lat="51.602144" lon="03.794092"><ele>3.9</ele><time>2022-11-16T13:32:43Z</time><name>PT6392</name></trkpt>
<trkpt lat="51.602140" lon="03.794076"><ele>4</ele><time>2022-11-16T13:32:44Z</time><name>PT6393</name></trkpt>
<trkpt lat="51.602137" lon="03.794060"><ele>4</ele><time>2022-11-16T13:32:45Z</time><name>PT6394</name></trkpt>
<trkpt lat="51.602133" lon="03.794046"><ele>3.9</ele><time>2022-11-16T13:32:46Z</time><name>PT6395</name></trkpt>
<trkpt lat="51.602131" lon="03.794032"><ele>3.7</ele><time>2022-11-16T13:32:47Z</time><name>PT6396</name></trkpt>
<trkpt lat="51.602129" lon="03.794017"><ele>3.5</ele><time>2022-11-16T13:32:48Z</time><name>PT6397</name></trkpt>
<trkpt lat="51.602128" lon="03.794001"><ele>3.5</ele><time>2022-11-16T13:32:49Z</time><name>PT6398</name></trkpt>
<trkpt lat="51.602126" lon="03.793994"><ele>3.6</ele><time>2022-11-16T13:32:50Z</time><name>PT6399</name></trkpt>
<trkpt lat="51.602126" lon="03.793992"><ele>3.8</ele><time>2022-11-16T13:32:51Z</time><name>PT6400</name></trkpt>
<trkpt lat="51.602127" lon="03.793991"><ele>3.8</ele><time>2022-11-16T13:32:52Z</time><name>PT6401</name></trkpt>
<trkpt lat="51.602128" lon="03.793989"><ele>3.8</ele><time>2022-11-16T13:32:53Z</time><name>PT6402</name></trkpt>
<trkpt lat="51.602127" lon="03.793986"><ele>3.6</ele><time>2022-11-16T13:32:54Z</time><name>PT6403</name></trkpt>
<trkpt lat="51.602127" lon="03.793981"><ele>3.5</ele><time>2022-11-16T13:32:55Z</time><name>PT6404</name></trkpt>
<trkpt lat="51.602127" lon="03.793969"><ele>3.5</ele><time>2022-11-16T13:32:56Z</time><name>PT6405</name></trkpt>
<trkpt lat="51.602125" lon="03.793955"><ele>3.5</ele><time>2022-11-16T13:32:57Z</time><name>PT6406</name></trkpt>
<trkpt lat="51.602122" lon="03.793939"><ele>3.5</ele><time>2022-11-16T13:32:58Z</time><name>PT6407</name></trkpt>
<trkpt lat="51.602120" lon="03.793929"><ele>3.5</ele><time>2022-11-16T13:32:59Z</time><name>PT6408</name></trkpt>
<trkpt lat="51.602117" lon="03.793915"><ele>3.5</ele><time>2022-11-16T13:33:00Z</time><name>PT6409</name></trkpt>
<trkpt lat="51.602114" lon="03.793903"><ele>3.6</ele><time>2022-11-16T13:33:01Z</time><name>PT6410</name></trkpt>
<trkpt lat="51.602111" lon="03.793888"><ele>3.5</ele><time>2022-11-16T13:33:02Z</time><name>PT6411</name></trkpt>
<trkpt lat="51.602107" lon="03.793876"><ele>3.6</ele><time>2022-11-16T13:33:03Z</time><name>PT6412</name></trkpt>
<trkpt lat="51.602105" lon="03.793867"><ele>3.9</ele><time>2022-11-16T13:33:04Z</time><name>PT6413</name></trkpt>
<trkpt lat="51.602101" lon="03.793859"><ele>3.9</ele><time>2022-11-16T13:33:05Z</time><name>PT6414</name></trkpt>
<trkpt lat="51.602097" lon="03.793852"><ele>3.7</ele><time>2022-11-16T13:33:06Z</time><name>PT6415</name></trkpt>
<trkpt lat="51.602094" lon="03.793850"><ele>3.8</ele><time>2022-11-16T13:33:07Z</time><name>PT6416</name></trkpt>
<trkpt lat="51.602090" lon="03.793847"><ele>3.8</ele><time>2022-11-16T13:33:08Z</time><name>PT6417</name></trkpt>
<trkpt lat="51.602088" lon="03.793846"><ele>3.9</ele><time>2022-11-16T13:33:09Z</time><name>PT6418</name></trkpt>
<trkpt lat="51.602090" lon="03.793847"><ele>4</ele><time>2022-11-16T13:33:10Z</time><name>PT6419</name></trkpt>
<trkpt lat="51.602092" lon="03.793848"><ele>4</ele><time>2022-11-16T13:33:11Z</time><name>PT6420</name></trkpt>
<trkpt lat="51.602093" lon="03.793849"><ele>3.9</ele><time>2022-11-16T13:33:12Z</time><name>PT6421</name></trkpt>
<trkpt lat="51.602095" lon="03.793849"><ele>3.7</ele><time>2022-11-16T13:33:13Z</time><name>PT6422</name></trkpt>
<trkpt lat="51.602096" lon="03.793847"><ele>3.5</ele><time>2022-11-16T13:33:53Z</time><name>PT6423</name></trkpt>
<trkpt lat="51.602097" lon="03.793836"><ele>3.5</ele><time>2022-11-16T13:33:54Z</time><name>PT6424</name></trkpt>
<trkpt lat="51.602098" lon="03.793825"><ele>3.5</ele><time>2022-11-16T13:33:55Z</time><name>PT6425</name></trkpt>
<trkpt lat="51.602097" lon="03.793810"><ele>3.5</ele><time>2022-11-16T13:33:56Z</time><name>PT6426</name></trkpt>
<trkpt lat="51.602098" lon="03.793798"><ele>3.5</ele><time>2022-11-16T13:33:57Z</time><name>PT6427</name></trkpt>
<trkpt lat="51.602099" lon="03.793789"><ele>3.4</ele><time>2022-11-16T13:33:58Z</time><name>PT6428</name></trkpt>
<trkpt lat="51.602100" lon="03.793778"><ele>3.3</ele><time>2022-11-16T13:33:59Z</time><name>PT6429</name></trkpt>
<trkpt lat="51.602101" lon="03.793763"><ele>3.4</ele><time>2022-11-16T13:34:00Z</time><name>PT6430</name></trkpt>
<trkpt lat="51.602101" lon="03.793747"><ele>3.5</ele><time>2022-11-16T13:34:01Z</time><name>PT6431</name></trkpt>
<trkpt lat="51.602091" lon="03.793725"><ele>3.4</ele><time>2022-11-16T13:34:02Z</time><name>PT6432</name></trkpt>
<trkpt lat="51.602086" lon="03.793703"><ele>3.2</ele><time>2022-11-16T13:34:03Z</time><name>PT6433</name></trkpt>
<trkpt lat="51.602084" lon="03.793684"><ele>3</ele><time>2022-11-16T13:34:04Z</time><name>PT6434</name></trkpt>
<trkpt lat="51.602080" lon="03.793667"><ele>2.9</ele><time>2022-11-16T13:34:05Z</time><name>PT6435</name></trkpt>
<trkpt lat="51.602079" lon="03.793652"><ele>3</ele><time>2022-11-16T13:34:06Z</time><name>PT6436</name></trkpt>
<trkpt lat="51.602076" lon="03.793635"><ele>3</ele><time>2022-11-16T13:34:07Z</time><name>PT6437</name></trkpt>
<trkpt lat="51.602073" lon="03.793621"><ele>3.2</ele><time>2022-11-16T13:34:08Z</time><name>PT6438</name></trkpt>
<trkpt lat="51.602067" lon="03.793602"><ele>3.5</ele><time>2022-11-16T13:34:09Z</time><name>PT6439</name></trkpt>
<trkpt lat="51.602063" lon="03.793588"><ele>3.4</ele><time>2022-11-16T13:34:10Z</time><name>PT6440</name></trkpt>
<trkpt lat="51.602062" lon="03.793574"><ele>3.4</ele><time>2022-11-16T13:34:11Z</time><name>PT6441</name></trkpt>
<trkpt lat="51.602061" lon="03.793560"><ele>3.3</ele><time>2022-11-16T13:34:12Z</time><name>PT6442</name></trkpt>
<trkpt lat="51.602060" lon="03.793545"><ele>3.2</ele><time>2022-11-16T13:34:13Z</time><name>PT6443</name></trkpt>
<trkpt lat="51.602058" lon="03.793523"><ele>3.3</ele><time>2022-11-16T13:34:14Z</time><name>PT6444</name></trkpt>
<trkpt lat="51.602057" lon="03.793506"><ele>3.2</ele><time>2022-11-16T13:34:15Z</time><name>PT6445</name></trkpt>
<trkpt lat="51.602055" lon="03.793491"><ele>3.2</ele><time>2022-11-16T13:34:16Z</time><name>PT6446</name></trkpt>
<trkpt lat="51.602054" lon="03.793474"><ele>3.2</ele><time>2022-11-16T13:34:17Z</time><name>PT6447</name></trkpt>
<trkpt lat="51.602052" lon="03.793456"><ele>3.3</ele><time>2022-11-16T13:34:18Z</time><name>PT6448</name></trkpt>
<trkpt lat="51.602050" lon="03.793440"><ele>3.2</ele><time>2022-11-16T13:34:19Z</time><name>PT6449</name></trkpt>
<trkpt lat="51.602052" lon="03.793422"><ele>3.1</ele><time>2022-11-16T13:34:20Z</time><name>PT6450</name></trkpt>
<trkpt lat="51.602053" lon="03.793404"><ele>3.2</ele><time>2022-11-16T13:34:21Z</time><name>PT6451</name></trkpt>
<trkpt lat="51.602050" lon="03.793388"><ele>3.3</ele><time>2022-11-16T13:34:22Z</time><name>PT6452</name></trkpt>
<trkpt lat="51.602047" lon="03.793374"><ele>3.4</ele><time>2022-11-16T13:34:23Z</time><name>PT6453</name></trkpt>
<trkpt lat="51.602049" lon="03.793358"><ele>3.5</ele><time>2022-11-16T13:34:24Z</time><name>PT6454</name></trkpt>
<trkpt lat="51.602046" lon="03.793329"><ele>3.5</ele><time>2022-11-16T13:34:25Z</time><name>PT6455</name></trkpt>
<trkpt lat="51.602042" lon="03.793310"><ele>3.5</ele><time>2022-11-16T13:34:26Z</time><name>PT6456</name></trkpt>
<trkpt lat="51.602037" lon="03.793287"><ele>3.3</ele><time>2022-11-16T13:34:27Z</time><name>PT6457</name></trkpt>
<trkpt lat="51.602035" lon="03.793265"><ele>3.1</ele><time>2022-11-16T13:34:28Z</time><name>PT6458</name></trkpt>
<trkpt lat="51.602034" lon="03.793252"><ele>3</ele><time>2022-11-16T13:34:29Z</time><name>PT6459</name></trkpt>
<trkpt lat="51.602034" lon="03.793239"><ele>3</ele><time>2022-11-16T13:34:30Z</time><name>PT6460</name></trkpt>
<trkpt lat="51.602034" lon="03.793229"><ele>3</ele><time>2022-11-16T13:34:31Z</time><name>PT6461</name></trkpt>
<trkpt lat="51.602035" lon="03.793221"><ele>3</ele><time>2022-11-16T13:34:32Z</time><name>PT6462</name></trkpt>
<trkpt lat="51.602035" lon="03.793211"><ele>2.9</ele><time>2022-11-16T13:34:33Z</time><name>PT6463</name></trkpt>
<trkpt lat="51.602034" lon="03.793199"><ele>2.9</ele><time>2022-11-16T13:34:34Z</time><name>PT6464</name></trkpt>
<trkpt lat="51.602033" lon="03.793185"><ele>2.9</ele><time>2022-11-16T13:34:35Z</time><name>PT6465</name></trkpt>
<trkpt lat="51.602028" lon="03.793166"><ele>2.8</ele><time>2022-11-16T13:34:36Z</time><name>PT6466</name></trkpt>
<trkpt lat="51.602025" lon="03.793146"><ele>2.8</ele><time>2022-11-16T13:34:37Z</time><name>PT6467</name></trkpt>
<trkpt lat="51.602019" lon="03.793115"><ele>3.1</ele><time>2022-11-16T13:34:38Z</time><name>PT6468</name></trkpt>
<trkpt lat="51.602013" lon="03.793080"><ele>3.4</ele><time>2022-11-16T13:34:39Z</time><name>PT6469</name></trkpt>
<trkpt lat="51.602013" lon="03.793047"><ele>3.5</ele><time>2022-11-16T13:34:40Z</time><name>PT6470</name></trkpt>
<trkpt lat="51.602010" lon="03.793011"><ele>3.6</ele><time>2022-11-16T13:34:41Z</time><name>PT6471</name></trkpt>
<trkpt lat="51.602007" lon="03.792984"><ele>3.6</ele><time>2022-11-16T13:34:42Z</time><name>PT6472</name></trkpt>
<trkpt lat="51.602007" lon="03.792961"><ele>3.5</ele><time>2022-11-16T13:34:43Z</time><name>PT6473</name></trkpt>
<trkpt lat="51.602007" lon="03.792945"><ele>3.4</ele><time>2022-11-16T13:34:44Z</time><name>PT6474</name></trkpt>
<trkpt lat="51.602007" lon="03.792936"><ele>3.4</ele><time>2022-11-16T13:34:45Z</time><name>PT6475</name></trkpt>
<trkpt lat="51.602008" lon="03.792933"><ele>3.4</ele><time>2022-11-16T13:34:46Z</time><name>PT6476</name></trkpt>
<trkpt lat="51.602011" lon="03.792930"><ele>3.2</ele><time>2022-11-16T13:34:47Z</time><name>PT6477</name></trkpt>
<trkpt lat="51.602011" lon="03.792918"><ele>3.2</ele><time>2022-11-16T13:34:48Z</time><name>PT6478</name></trkpt>
<trkpt lat="51.602007" lon="03.792905"><ele>3.3</ele><time>2022-11-16T13:34:49Z</time><name>PT6479</name></trkpt>
<trkpt lat="51.602003" lon="03.792886"><ele>3.5</ele><time>2022-11-16T13:34:50Z</time><name>PT6480</name></trkpt>
<trkpt lat="51.601998" lon="03.792859"><ele>3.4</ele><time>2022-11-16T13:34:51Z</time><name>PT6481</name></trkpt>
<trkpt lat="51.601991" lon="03.792827"><ele>3.5</ele><time>2022-11-16T13:34:52Z</time><name>PT6482</name></trkpt>
<trkpt lat="51.601987" lon="03.792795"><ele>3.6</ele><time>2022-11-16T13:34:53Z</time><name>PT6483</name></trkpt>
<trkpt lat="51.601981" lon="03.792758"><ele>3.5</ele><time>2022-11-16T13:34:54Z</time><name>PT6484</name></trkpt>
<trkpt lat="51.601979" lon="03.792725"><ele>3.3</ele><time>2022-11-16T13:34:55Z</time><name>PT6485</name></trkpt>
<trkpt lat="51.601979" lon="03.792699"><ele>3.2</ele><time>2022-11-16T13:34:56Z</time><name>PT6486</name></trkpt>
<trkpt lat="51.601981" lon="03.792675"><ele>3.2</ele><time>2022-11-16T13:34:57Z</time><name>PT6487</name></trkpt>
<trkpt lat="51.601980" lon="03.792654"><ele>3.1</ele><time>2022-11-16T13:34:58Z</time><name>PT6488</name></trkpt>
<trkpt lat="51.601982" lon="03.792643"><ele>3.1</ele><time>2022-11-16T13:34:59Z</time><name>PT6489</name></trkpt>
<trkpt lat="51.601981" lon="03.792635"><ele>3</ele><time>2022-11-16T13:35:00Z</time><name>PT6490</name></trkpt>
<trkpt lat="51.601979" lon="03.792625"><ele>3.1</ele><time>2022-11-16T13:35:01Z</time><name>PT6491</name></trkpt>
<trkpt lat="51.601977" lon="03.792617"><ele>3.1</ele><time>2022-11-16T13:35:02Z</time><name>PT6492</name></trkpt>
<trkpt lat="51.601977" lon="03.792609"><ele>3.3</ele><time>2022-11-16T13:35:03Z</time><name>PT6493</name></trkpt>
<trkpt lat="51.601977" lon="03.792600"><ele>3.3</ele><time>2022-11-16T13:35:04Z</time><name>PT6494</name></trkpt>
<trkpt lat="51.601977" lon="03.792586"><ele>3.2</ele><time>2022-11-16T13:35:05Z</time><name>PT6495</name></trkpt>
<trkpt lat="51.601972" lon="03.792569"><ele>3.1</ele><time>2022-11-16T13:35:06Z</time><name>PT6496</name></trkpt>
<trkpt lat="51.601966" lon="03.792536"><ele>3.1</ele><time>2022-11-16T13:35:07Z</time><name>PT6497</name></trkpt>
<trkpt lat="51.601962" lon="03.792500"><ele>3</ele><time>2022-11-16T13:35:08Z</time><name>PT6498</name></trkpt>
<trkpt lat="51.601959" lon="03.792467"><ele>3</ele><time>2022-11-16T13:35:09Z</time><name>PT6499</name></trkpt>
<trkpt lat="51.601958" lon="03.792442"><ele>3</ele><time>2022-11-16T13:35:10Z</time><name>PT6500</name></trkpt>
<trkpt lat="51.601957" lon="03.792423"><ele>3.3</ele><time>2022-11-16T13:35:11Z</time><name>PT6501</name></trkpt>
<trkpt lat="51.601955" lon="03.792414"><ele>3.3</ele><time>2022-11-16T13:35:12Z</time><name>PT6502</name></trkpt>
<trkpt lat="51.601954" lon="03.792410"><ele>3.2</ele><time>2022-11-16T13:35:13Z</time><name>PT6503</name></trkpt>
<trkpt lat="51.601957" lon="03.792406"><ele>3.3</ele><time>2022-11-16T13:35:14Z</time><name>PT6504</name></trkpt>
<trkpt lat="51.601957" lon="03.792394"><ele>3.1</ele><time>2022-11-16T13:35:15Z</time><name>PT6505</name></trkpt>
<trkpt lat="51.601953" lon="03.792379"><ele>3.3</ele><time>2022-11-16T13:35:16Z</time><name>PT6506</name></trkpt>
<trkpt lat="51.601951" lon="03.792355"><ele>3.3</ele><time>2022-11-16T13:35:17Z</time><name>PT6507</name></trkpt>
<trkpt lat="51.601946" lon="03.792326"><ele>3.2</ele><time>2022-11-16T13:35:18Z</time><name>PT6508</name></trkpt>
<trkpt lat="51.601946" lon="03.792297"><ele>3.3</ele><time>2022-11-16T13:35:19Z</time><name>PT6509</name></trkpt>
<trkpt lat="51.601950" lon="03.792271"><ele>3.1</ele><time>2022-11-16T13:35:20Z</time><name>PT6510</name></trkpt>
<trkpt lat="51.601949" lon="03.792251"><ele>3</ele><time>2022-11-16T13:35:21Z</time><name>PT6511</name></trkpt>
<trkpt lat="51.601948" lon="03.792238"><ele>3</ele><time>2022-11-16T13:35:22Z</time><name>PT6512</name></trkpt>
<trkpt lat="51.601948" lon="03.792234"><ele>3</ele><time>2022-11-16T13:35:23Z</time><name>PT6513</name></trkpt>
<trkpt lat="51.601948" lon="03.792232"><ele>3.1</ele><time>2022-11-16T13:35:24Z</time><name>PT6514</name></trkpt>
<trkpt lat="51.601949" lon="03.792231"><ele>3.2</ele><time>2022-11-16T13:35:25Z</time><name>PT6515</name></trkpt>
<trkpt lat="51.601948" lon="03.792226"><ele>3.1</ele><time>2022-11-16T13:35:26Z</time><name>PT6516</name></trkpt>
<trkpt lat="51.601944" lon="03.792213"><ele>3</ele><time>2022-11-16T13:35:27Z</time><name>PT6517</name></trkpt>
<trkpt lat="51.601941" lon="03.792189"><ele>3</ele><time>2022-11-16T13:35:28Z</time><name>PT6518</name></trkpt>
<trkpt lat="51.601941" lon="03.792162"><ele>2.8</ele><time>2022-11-16T13:35:29Z</time><name>PT6519</name></trkpt>
<trkpt lat="51.601944" lon="03.792135"><ele>3</ele><time>2022-11-16T13:35:30Z</time><name>PT6520</name></trkpt>
<trkpt lat="51.601946" lon="03.792107"><ele>3</ele><time>2022-11-16T13:35:31Z</time><name>PT6521</name></trkpt>
<trkpt lat="51.601947" lon="03.792086"><ele>3</ele><time>2022-11-16T13:35:32Z</time><name>PT6522</name></trkpt>
<trkpt lat="51.601946" lon="03.792071"><ele>3</ele><time>2022-11-16T13:35:33Z</time><name>PT6523</name></trkpt>
<trkpt lat="51.601943" lon="03.792059"><ele>3.1</ele><time>2022-11-16T13:35:34Z</time><name>PT6524</name></trkpt>
<trkpt lat="51.601941" lon="03.792047"><ele>3.2</ele><time>2022-11-16T13:35:35Z</time><name>PT6525</name></trkpt>
<trkpt lat="51.601942" lon="03.792040"><ele>3</ele><time>2022-11-16T13:35:36Z</time><name>PT6526</name></trkpt>
<trkpt lat="51.601940" lon="03.792031"><ele>3</ele><time>2022-11-16T13:35:37Z</time><name>PT6527</name></trkpt>
<trkpt lat="51.601938" lon="03.792017"><ele>3.2</ele><time>2022-11-16T13:35:38Z</time><name>PT6528</name></trkpt>
<trkpt lat="51.601935" lon="03.792002"><ele>3</ele><time>2022-11-16T13:35:39Z</time><name>PT6529</name></trkpt>
<trkpt lat="51.601931" lon="03.791981"><ele>2.9</ele><time>2022-11-16T13:35:40Z</time><name>PT6530</name></trkpt>
<trkpt lat="51.601925" lon="03.791956"><ele>3</ele><time>2022-11-16T13:35:41Z</time><name>PT6531</name></trkpt>
<trkpt lat="51.601919" lon="03.791927"><ele>2.9</ele><time>2022-11-16T13:35:42Z</time><name>PT6532</name></trkpt>
<trkpt lat="51.601917" lon="03.791897"><ele>2.8</ele><time>2022-11-16T13:35:43Z</time><name>PT6533</name></trkpt>
<trkpt lat="51.601915" lon="03.791871"><ele>3</ele><time>2022-11-16T13:35:44Z</time><name>PT6534</name></trkpt>
<trkpt lat="51.601913" lon="03.791846"><ele>3</ele><time>2022-11-16T13:35:45Z</time><name>PT6535</name></trkpt>
<trkpt lat="51.601912" lon="03.791825"><ele>3</ele><time>2022-11-16T13:35:46Z</time><name>PT6536</name></trkpt>
<trkpt lat="51.601913" lon="03.791816"><ele>3.1</ele><time>2022-11-16T13:35:47Z</time><name>PT6537</name></trkpt>
<trkpt lat="51.601913" lon="03.791814"><ele>3.1</ele><time>2022-11-16T13:35:48Z</time><name>PT6538</name></trkpt>
<trkpt lat="51.601913" lon="03.791815"><ele>3.1</ele><time>2022-11-16T13:35:49Z</time><name>PT6539</name></trkpt>
<trkpt lat="51.601914" lon="03.791815"><ele>3.1</ele><time>2022-11-16T13:35:50Z</time><name>PT6540</name></trkpt>
<trkpt lat="51.601916" lon="03.791810"><ele>3</ele><time>2022-11-16T13:35:51Z</time><name>PT6541</name></trkpt>
<trkpt lat="51.601913" lon="03.791793"><ele>3</ele><time>2022-11-16T13:35:52Z</time><name>PT6542</name></trkpt>
<trkpt lat="51.601908" lon="03.791770"><ele>3.1</ele><time>2022-11-16T13:35:53Z</time><name>PT6543</name></trkpt>
<trkpt lat="51.601904" lon="03.791742"><ele>3.1</ele><time>2022-11-16T13:35:54Z</time><name>PT6544</name></trkpt>
<trkpt lat="51.601901" lon="03.791718"><ele>3.2</ele><time>2022-11-16T13:35:55Z</time><name>PT6545</name></trkpt>
<trkpt lat="51.601899" lon="03.791705"><ele>3.1</ele><time>2022-11-16T13:35:56Z</time><name>PT6546</name></trkpt>
<trkpt lat="51.601898" lon="03.791702"><ele>3.2</ele><time>2022-11-16T13:35:57Z</time><name>PT6547</name></trkpt>
<trkpt lat="51.601899" lon="03.791697"><ele>3.1</ele><time>2022-11-16T13:35:58Z</time><name>PT6548</name></trkpt>
<trkpt lat="51.601899" lon="03.791692"><ele>3.1</ele><time>2022-11-16T13:35:59Z</time><name>PT6549</name></trkpt>
<trkpt lat="51.601897" lon="03.791691"><ele>3.3</ele><time>2022-11-16T13:36:00Z</time><name>PT6550</name></trkpt>
<trkpt lat="51.601897" lon="03.791691"><ele>3.4</ele><time>2022-11-16T13:36:01Z</time><name>PT6551</name></trkpt>
<trkpt lat="51.601897" lon="03.791692"><ele>3.5</ele><time>2022-11-16T13:36:02Z</time><name>PT6552</name></trkpt>
<trkpt lat="51.601897" lon="03.791692"><ele>3.5</ele><time>2022-11-16T13:36:05Z</time><name>PT6553</name></trkpt>
<trkpt lat="51.601897" lon="03.791683"><ele>3.4</ele><time>2022-11-16T13:36:06Z</time><name>PT6554</name></trkpt>
<trkpt lat="51.601895" lon="03.791668"><ele>3.3</ele><time>2022-11-16T13:36:07Z</time><name>PT6555</name></trkpt>
<trkpt lat="51.601892" lon="03.791646"><ele>3.3</ele><time>2022-11-16T13:36:08Z</time><name>PT6556</name></trkpt>
<trkpt lat="51.601890" lon="03.791629"><ele>3.2</ele><time>2022-11-16T13:36:09Z</time><name>PT6557</name></trkpt>
<trkpt lat="51.601890" lon="03.791617"><ele>3.2</ele><time>2022-11-16T13:36:10Z</time><name>PT6558</name></trkpt>
<trkpt lat="51.601889" lon="03.791606"><ele>3.3</ele><time>2022-11-16T13:36:11Z</time><name>PT6559</name></trkpt>
<trkpt lat="51.601886" lon="03.791595"><ele>3.3</ele><time>2022-11-16T13:36:12Z</time><name>PT6560</name></trkpt>
<trkpt lat="51.601883" lon="03.791576"><ele>3.3</ele><time>2022-11-16T13:36:13Z</time><name>PT6561</name></trkpt>
<trkpt lat="51.601879" lon="03.791552"><ele>3.3</ele><time>2022-11-16T13:36:14Z</time><name>PT6562</name></trkpt>
<trkpt lat="51.601876" lon="03.791522"><ele>3.4</ele><time>2022-11-16T13:36:15Z</time><name>PT6563</name></trkpt>
<trkpt lat="51.601874" lon="03.791495"><ele>3.4</ele><time>2022-11-16T13:36:16Z</time><name>PT6564</name></trkpt>
<trkpt lat="51.601873" lon="03.791472"><ele>3.3</ele><time>2022-11-16T13:36:17Z</time><name>PT6565</name></trkpt>
<trkpt lat="51.601870" lon="03.791453"><ele>3.4</ele><time>2022-11-16T13:36:18Z</time><name>PT6566</name></trkpt>
<trkpt lat="51.601868" lon="03.791442"><ele>3.5</ele><time>2022-11-16T13:36:19Z</time><name>PT6567</name></trkpt>
<trkpt lat="51.601869" lon="03.791434"><ele>3.4</ele><time>2022-11-16T13:36:20Z</time><name>PT6568</name></trkpt>
<trkpt lat="51.601868" lon="03.791429"><ele>3.6</ele><time>2022-11-16T13:36:21Z</time><name>PT6569</name></trkpt>
<trkpt lat="51.601867" lon="03.791421"><ele>3.6</ele><time>2022-11-16T13:36:22Z</time><name>PT6570</name></trkpt>
<trkpt lat="51.601864" lon="03.791406"><ele>3.6</ele><time>2022-11-16T13:36:23Z</time><name>PT6571</name></trkpt>
<trkpt lat="51.601861" lon="03.791383"><ele>3.5</ele><time>2022-11-16T13:36:24Z</time><name>PT6572</name></trkpt>
<trkpt lat="51.601861" lon="03.791352"><ele>3.5</ele><time>2022-11-16T13:36:25Z</time><name>PT6573</name></trkpt>
<trkpt lat="51.601860" lon="03.791321"><ele>3.3</ele><time>2022-11-16T13:36:26Z</time><name>PT6574</name></trkpt>
<trkpt lat="51.601859" lon="03.791299"><ele>3.3</ele><time>2022-11-16T13:36:27Z</time><name>PT6575</name></trkpt>
<trkpt lat="51.601855" lon="03.791287"><ele>3.4</ele><time>2022-11-16T13:36:28Z</time><name>PT6576</name></trkpt>
<trkpt lat="51.601857" lon="03.791282"><ele>3.4</ele><time>2022-11-16T13:36:29Z</time><name>PT6577</name></trkpt>
<trkpt lat="51.601862" lon="03.791280"><ele>3.4</ele><time>2022-11-16T13:36:30Z</time><name>PT6578</name></trkpt>
<trkpt lat="51.601861" lon="03.791273"><ele>3.5</ele><time>2022-11-16T13:36:31Z</time><name>PT6579</name></trkpt>
<trkpt lat="51.601858" lon="03.791262"><ele>3.5</ele><time>2022-11-16T13:36:32Z</time><name>PT6580</name></trkpt>
<trkpt lat="51.601855" lon="03.791238"><ele>3.4</ele><time>2022-11-16T13:36:33Z</time><name>PT6581</name></trkpt>
<trkpt lat="51.601853" lon="03.791207"><ele>3.5</ele><time>2022-11-16T13:36:34Z</time><name>PT6582</name></trkpt>
<trkpt lat="51.601848" lon="03.791176"><ele>3.5</ele><time>2022-11-16T13:36:35Z</time><name>PT6583</name></trkpt>
<trkpt lat="51.601845" lon="03.791150"><ele>3.4</ele><time>2022-11-16T13:36:36Z</time><name>PT6584</name></trkpt>
<trkpt lat="51.601844" lon="03.791127"><ele>3.4</ele><time>2022-11-16T13:36:37Z</time><name>PT6585</name></trkpt>
<trkpt lat="51.601843" lon="03.791114"><ele>3.5</ele><time>2022-11-16T13:36:38Z</time><name>PT6586</name></trkpt>
<trkpt lat="51.601841" lon="03.791109"><ele>3.3</ele><time>2022-11-16T13:36:39Z</time><name>PT6587</name></trkpt>
<trkpt lat="51.601841" lon="03.791106"><ele>3.4</ele><time>2022-11-16T13:36:40Z</time><name>PT6588</name></trkpt>
<trkpt lat="51.601843" lon="03.791103"><ele>3.5</ele><time>2022-11-16T13:36:41Z</time><name>PT6589</name></trkpt>
<trkpt lat="51.601844" lon="03.791093"><ele>3.5</ele><time>2022-11-16T13:36:42Z</time><name>PT6590</name></trkpt>
<trkpt lat="51.601840" lon="03.791077"><ele>3.5</ele><time>2022-11-16T13:36:43Z</time><name>PT6591</name></trkpt>
<trkpt lat="51.601845" lon="03.791062"><ele>3.6</ele><time>2022-11-16T13:36:44Z</time><name>PT6592</name></trkpt>
<trkpt lat="51.601844" lon="03.791034"><ele>3.5</ele><time>2022-11-16T13:36:45Z</time><name>PT6593</name></trkpt>
<trkpt lat="51.601839" lon="03.791001"><ele>3.4</ele><time>2022-11-16T13:36:46Z</time><name>PT6594</name></trkpt>
<trkpt lat="51.601836" lon="03.790975"><ele>3.5</ele><time>2022-11-16T13:36:47Z</time><name>PT6595</name></trkpt>
<trkpt lat="51.601835" lon="03.790960"><ele>3.5</ele><time>2022-11-16T13:36:48Z</time><name>PT6596</name></trkpt>
<trkpt lat="51.601834" lon="03.790950"><ele>3.3</ele><time>2022-11-16T13:36:49Z</time><name>PT6597</name></trkpt>
<trkpt lat="51.601832" lon="03.790939"><ele>3.3</ele><time>2022-11-16T13:36:50Z</time><name>PT6598</name></trkpt>
<trkpt lat="51.601828" lon="03.790925"><ele>3.5</ele><time>2022-11-16T13:36:51Z</time><name>PT6599</name></trkpt>
<trkpt lat="51.601824" lon="03.790903"><ele>3.3</ele><time>2022-11-16T13:36:52Z</time><name>PT6600</name></trkpt>
<trkpt lat="51.601819" lon="03.790880"><ele>3.4</ele><time>2022-11-16T13:36:53Z</time><name>PT6601</name></trkpt>
<trkpt lat="51.601816" lon="03.790867"><ele>3.5</ele><time>2022-11-16T13:36:54Z</time><name>PT6602</name></trkpt>
<trkpt lat="51.601813" lon="03.790862"><ele>3.6</ele><time>2022-11-16T13:36:55Z</time><name>PT6603</name></trkpt>
<trkpt lat="51.601811" lon="03.790862"><ele>3.5</ele><time>2022-11-16T13:36:56Z</time><name>PT6604</name></trkpt>
<trkpt lat="51.601811" lon="03.790862"><ele>3.6</ele><time>2022-11-16T13:36:57Z</time><name>PT6605</name></trkpt>
<trkpt lat="51.601809" lon="03.790855"><ele>3.6</ele><time>2022-11-16T13:36:58Z</time><name>PT6606</name></trkpt>
<trkpt lat="51.601806" lon="03.790848"><ele>3.6</ele><time>2022-11-16T13:36:59Z</time><name>PT6607</name></trkpt>
<trkpt lat="51.601802" lon="03.790842"><ele>3.7</ele><time>2022-11-16T13:37:00Z</time><name>PT6608</name></trkpt>
<trkpt lat="51.601799" lon="03.790845"><ele>3.7</ele><time>2022-11-16T13:37:01Z</time><name>PT6609</name></trkpt>
<trkpt lat="51.601792" lon="03.790848"><ele>3.9</ele><time>2022-11-16T13:37:02Z</time><name>PT6610</name></trkpt>
<trkpt lat="51.601790" lon="03.790850"><ele>4</ele><time>2022-11-16T13:37:03Z</time><name>PT6611</name></trkpt>
<trkpt lat="51.601789" lon="03.790850"><ele>4.1</ele><time>2022-11-16T13:37:04Z</time><name>PT6612</name></trkpt>
<trkpt lat="51.601788" lon="03.790850"><ele>4.1</ele><time>2022-11-16T13:37:05Z</time><name>PT6613</name></trkpt>
<trkpt lat="51.601787" lon="03.790853"><ele>4.1</ele><time>2022-11-16T13:37:06Z</time><name>PT6614</name></trkpt>
<trkpt lat="51.601786" lon="03.790854"><ele>4.1</ele><time>2022-11-16T13:37:07Z</time><name>PT6615</name></trkpt>
<trkpt lat="51.601786" lon="03.790856"><ele>4</ele><time>2022-11-16T13:37:08Z</time><name>PT6616</name></trkpt>
<trkpt lat="51.601786" lon="03.790858"><ele>4.1</ele><time>2022-11-16T13:37:09Z</time><name>PT6617</name></trkpt>
<trkpt lat="51.601786" lon="03.790856"><ele>4.1</ele><time>2022-11-16T13:37:10Z</time><name>PT6618</name></trkpt>
<trkpt lat="51.601786" lon="03.790856"><ele>3.9</ele><time>2022-11-16T13:37:11Z</time><name>PT6619</name></trkpt>
<trkpt lat="51.601785" lon="03.790856"><ele>4.1</ele><time>2022-11-16T13:37:12Z</time><name>PT6620</name></trkpt>
<trkpt lat="51.601787" lon="03.790855"><ele>4.2</ele><time>2022-11-16T13:37:13Z</time><name>PT6621</name></trkpt>
<trkpt lat="51.601787" lon="03.790855"><ele>4.3</ele><time>2022-11-16T13:37:14Z</time><name>PT6622</name></trkpt>
<trkpt lat="51.601785" lon="03.790856"><ele>3.6</ele><time>2022-11-16T13:37:34Z</time><name>PT6623</name></trkpt>
<trkpt lat="51.601787" lon="03.790850"><ele>3.5</ele><time>2022-11-16T13:37:35Z</time><name>PT6624</name></trkpt>
<trkpt lat="51.601786" lon="03.790844"><ele>3.5</ele><time>2022-11-16T13:37:36Z</time><name>PT6625</name></trkpt>
<trkpt lat="51.601784" lon="03.790837"><ele>3.5</ele><time>2022-11-16T13:37:37Z</time><name>PT6626</name></trkpt>
<trkpt lat="51.601783" lon="03.790828"><ele>3.6</ele><time>2022-11-16T13:37:38Z</time><name>PT6627</name></trkpt>
<trkpt lat="51.601782" lon="03.790818"><ele>3.6</ele><time>2022-11-16T13:37:39Z</time><name>PT6628</name></trkpt>
<trkpt lat="51.601780" lon="03.790808"><ele>3.8</ele><time>2022-11-16T13:37:40Z</time><name>PT6629</name></trkpt>
<trkpt lat="51.601778" lon="03.790798"><ele>3.6</ele><time>2022-11-16T13:37:41Z</time><name>PT6630</name></trkpt>
<trkpt lat="51.601776" lon="03.790783"><ele>3.6</ele><time>2022-11-16T13:37:42Z</time><name>PT6631</name></trkpt>
<trkpt lat="51.601775" lon="03.790768"><ele>3.4</ele><time>2022-11-16T13:37:43Z</time><name>PT6632</name></trkpt>
<trkpt lat="51.601773" lon="03.790749"><ele>3.4</ele><time>2022-11-16T13:37:44Z</time><name>PT6633</name></trkpt>
<trkpt lat="51.601770" lon="03.790734"><ele>3.3</ele><time>2022-11-16T13:37:45Z</time><name>PT6634</name></trkpt>
<trkpt lat="51.601768" lon="03.790718"><ele>3.2</ele><time>2022-11-16T13:37:46Z</time><name>PT6635</name></trkpt>
<trkpt lat="51.601765" lon="03.790698"><ele>3.4</ele><time>2022-11-16T13:37:47Z</time><name>PT6636</name></trkpt>
<trkpt lat="51.601762" lon="03.790681"><ele>3.6</ele><time>2022-11-16T13:37:48Z</time><name>PT6637</name></trkpt>
<trkpt lat="51.601759" lon="03.790665"><ele>3.6</ele><time>2022-11-16T13:37:49Z</time><name>PT6638</name></trkpt>
<trkpt lat="51.601756" lon="03.790652"><ele>3.6</ele><time>2022-11-16T13:37:50Z</time><name>PT6639</name></trkpt>
<trkpt lat="51.601753" lon="03.790637"><ele>3.6</ele><time>2022-11-16T13:37:51Z</time><name>PT6640</name></trkpt>
<trkpt lat="51.601751" lon="03.790622"><ele>3.6</ele><time>2022-11-16T13:37:52Z</time><name>PT6641</name></trkpt>
<trkpt lat="51.601749" lon="03.790607"><ele>3.7</ele><time>2022-11-16T13:37:53Z</time><name>PT6642</name></trkpt>
<trkpt lat="51.601747" lon="03.790591"><ele>3.7</ele><time>2022-11-16T13:37:54Z</time><name>PT6643</name></trkpt>
<trkpt lat="51.601745" lon="03.790576"><ele>3.6</ele><time>2022-11-16T13:37:55Z</time><name>PT6644</name></trkpt>
<trkpt lat="51.601741" lon="03.790562"><ele>3.5</ele><time>2022-11-16T13:37:56Z</time><name>PT6645</name></trkpt>
<trkpt lat="51.601738" lon="03.790550"><ele>3.4</ele><time>2022-11-16T13:37:57Z</time><name>PT6646</name></trkpt>
<trkpt lat="51.601734" lon="03.790538"><ele>3.5</ele><time>2022-11-16T13:37:58Z</time><name>PT6647</name></trkpt>
<trkpt lat="51.601732" lon="03.790524"><ele>3.5</ele><time>2022-11-16T13:37:59Z</time><name>PT6648</name></trkpt>
<trkpt lat="51.601730" lon="03.790508"><ele>3.7</ele><time>2022-11-16T13:38:00Z</time><name>PT6649</name></trkpt>
<trkpt lat="51.601729" lon="03.790492"><ele>3.7</ele><time>2022-11-16T13:38:01Z</time><name>PT6650</name></trkpt>
<trkpt lat="51.601726" lon="03.790476"><ele>3.9</ele><time>2022-11-16T13:38:02Z</time><name>PT6651</name></trkpt>
<trkpt lat="51.601723" lon="03.790462"><ele>3.9</ele><time>2022-11-16T13:38:03Z</time><name>PT6652</name></trkpt>
<trkpt lat="51.601720" lon="03.790447"><ele>3.9</ele><time>2022-11-16T13:38:04Z</time><name>PT6653</name></trkpt>
<trkpt lat="51.601717" lon="03.790431"><ele>3.9</ele><time>2022-11-16T13:38:05Z</time><name>PT6654</name></trkpt>
<trkpt lat="51.601713" lon="03.790414"><ele>3.9</ele><time>2022-11-16T13:38:06Z</time><name>PT6655</name></trkpt>
<trkpt lat="51.601710" lon="03.790399"><ele>3.8</ele><time>2022-11-16T13:38:07Z</time><name>PT6656</name></trkpt>
<trkpt lat="51.601708" lon="03.790383"><ele>3.7</ele><time>2022-11-16T13:38:08Z</time><name>PT6657</name></trkpt>
<trkpt lat="51.601706" lon="03.790367"><ele>3.8</ele><time>2022-11-16T13:38:09Z</time><name>PT6658</name></trkpt>
<trkpt lat="51.601704" lon="03.790350"><ele>3.9</ele><time>2022-11-16T13:38:10Z</time><name>PT6659</name></trkpt>
<trkpt lat="51.601702" lon="03.790333"><ele>4.1</ele><time>2022-11-16T13:38:11Z</time><name>PT6660</name></trkpt>
<trkpt lat="51.601699" lon="03.790316"><ele>4.2</ele><time>2022-11-16T13:38:12Z</time><name>PT6661</name></trkpt>
<trkpt lat="51.601697" lon="03.790298"><ele>4.2</ele><time>2022-11-16T13:38:13Z</time><name>PT6662</name></trkpt>
<trkpt lat="51.601696" lon="03.790281"><ele>4.1</ele><time>2022-11-16T13:38:14Z</time><name>PT6663</name></trkpt>
<trkpt lat="51.601693" lon="03.790265"><ele>3.9</ele><time>2022-11-16T13:38:15Z</time><name>PT6664</name></trkpt>
<trkpt lat="51.601689" lon="03.790248"><ele>3.9</ele><time>2022-11-16T13:38:16Z</time><name>PT6665</name></trkpt>
<trkpt lat="51.601686" lon="03.790232"><ele>3.7</ele><time>2022-11-16T13:38:17Z</time><name>PT6666</name></trkpt>
<trkpt lat="51.601682" lon="03.790214"><ele>3.7</ele><time>2022-11-16T13:38:18Z</time><name>PT6667</name></trkpt>
<trkpt lat="51.601680" lon="03.790197"><ele>3.9</ele><time>2022-11-16T13:38:19Z</time><name>PT6668</name></trkpt>
<trkpt lat="51.601676" lon="03.790182"><ele>3.9</ele><time>2022-11-16T13:38:20Z</time><name>PT6669</name></trkpt>
<trkpt lat="51.601671" lon="03.790166"><ele>3.9</ele><time>2022-11-16T13:38:21Z</time><name>PT6670</name></trkpt>
<trkpt lat="51.601667" lon="03.790149"><ele>3.9</ele><time>2022-11-16T13:38:22Z</time><name>PT6671</name></trkpt>
<trkpt lat="51.601665" lon="03.790133"><ele>3.9</ele><time>2022-11-16T13:38:23Z</time><name>PT6672</name></trkpt>
<trkpt lat="51.601662" lon="03.790117"><ele>4</ele><time>2022-11-16T13:38:24Z</time><name>PT6673</name></trkpt>
<trkpt lat="51.601660" lon="03.790102"><ele>4</ele><time>2022-11-16T13:38:25Z</time><name>PT6674</name></trkpt>
<trkpt lat="51.601659" lon="03.790084"><ele>3.7</ele><time>2022-11-16T13:38:26Z</time><name>PT6675</name></trkpt>
<trkpt lat="51.601658" lon="03.790067"><ele>3.6</ele><time>2022-11-16T13:38:27Z</time><name>PT6676</name></trkpt>
<trkpt lat="51.601656" lon="03.790050"><ele>3.5</ele><time>2022-11-16T13:38:28Z</time><name>PT6677</name></trkpt>
<trkpt lat="51.601654" lon="03.790032"><ele>3.5</ele><time>2022-11-16T13:38:29Z</time><name>PT6678</name></trkpt>
<trkpt lat="51.601653" lon="03.790015"><ele>3.5</ele><time>2022-11-16T13:38:30Z</time><name>PT6679</name></trkpt>
<trkpt lat="51.601651" lon="03.789998"><ele>3.6</ele><time>2022-11-16T13:38:31Z</time><name>PT6680</name></trkpt>
<trkpt lat="51.601648" lon="03.789983"><ele>3.5</ele><time>2022-11-16T13:38:32Z</time><name>PT6681</name></trkpt>
<trkpt lat="51.601645" lon="03.789967"><ele>3.6</ele><time>2022-11-16T13:38:33Z</time><name>PT6682</name></trkpt>
<trkpt lat="51.601643" lon="03.789950"><ele>3.5</ele><time>2022-11-16T13:38:34Z</time><name>PT6683</name></trkpt>
<trkpt lat="51.601640" lon="03.789934"><ele>3.8</ele><time>2022-11-16T13:38:35Z</time><name>PT6684</name></trkpt>
<trkpt lat="51.601636" lon="03.789916"><ele>4.1</ele><time>2022-11-16T13:38:36Z</time><name>PT6685</name></trkpt>
<trkpt lat="51.601632" lon="03.789902"><ele>4.1</ele><time>2022-11-16T13:38:37Z</time><name>PT6686</name></trkpt>
<trkpt lat="51.601630" lon="03.789887"><ele>4.2</ele><time>2022-11-16T13:38:38Z</time><name>PT6687</name></trkpt>
<trkpt lat="51.601628" lon="03.789874"><ele>4.2</ele><time>2022-11-16T13:38:39Z</time><name>PT6688</name></trkpt>
<trkpt lat="51.601626" lon="03.789859"><ele>4.1</ele><time>2022-11-16T13:38:40Z</time><name>PT6689</name></trkpt>
<trkpt lat="51.601624" lon="03.789844"><ele>4.1</ele><time>2022-11-16T13:38:41Z</time><name>PT6690</name></trkpt>
<trkpt lat="51.601623" lon="03.789826"><ele>4.2</ele><time>2022-11-16T13:38:42Z</time><name>PT6691</name></trkpt>
<trkpt lat="51.601622" lon="03.789809"><ele>4.1</ele><time>2022-11-16T13:38:43Z</time><name>PT6692</name></trkpt>
<trkpt lat="51.601619" lon="03.789793"><ele>4.1</ele><time>2022-11-16T13:38:44Z</time><name>PT6693</name></trkpt>
<trkpt lat="51.601618" lon="03.789778"><ele>4.1</ele><time>2022-11-16T13:38:45Z</time><name>PT6694</name></trkpt>
<trkpt lat="51.601617" lon="03.789764"><ele>4.1</ele><time>2022-11-16T13:38:46Z</time><name>PT6695</name></trkpt>
<trkpt lat="51.601615" lon="03.789751"><ele>4.1</ele><time>2022-11-16T13:38:47Z</time><name>PT6696</name></trkpt>
<trkpt lat="51.601613" lon="03.789735"><ele>4.1</ele><time>2022-11-16T13:38:48Z</time><name>PT6697</name></trkpt>
<trkpt lat="51.601609" lon="03.789720"><ele>4</ele><time>2022-11-16T13:38:49Z</time><name>PT6698</name></trkpt>
<trkpt lat="51.601605" lon="03.789704"><ele>4.1</ele><time>2022-11-16T13:38:50Z</time><name>PT6699</name></trkpt>
<trkpt lat="51.601603" lon="03.789687"><ele>4.1</ele><time>2022-11-16T13:38:51Z</time><name>PT6700</name></trkpt>
<trkpt lat="51.601600" lon="03.789671"><ele>3.9</ele><time>2022-11-16T13:38:52Z</time><name>PT6701</name></trkpt>
<trkpt lat="51.601597" lon="03.789655"><ele>3.9</ele><time>2022-11-16T13:38:53Z</time><name>PT6702</name></trkpt>
<trkpt lat="51.601595" lon="03.789640"><ele>4.1</ele><time>2022-11-16T13:38:54Z</time><name>PT6703</name></trkpt>
<trkpt lat="51.601593" lon="03.789623"><ele>3.9</ele><time>2022-11-16T13:38:55Z</time><name>PT6704</name></trkpt>
<trkpt lat="51.601592" lon="03.789606"><ele>3.8</ele><time>2022-11-16T13:38:56Z</time><name>PT6705</name></trkpt>
<trkpt lat="51.601590" lon="03.789588"><ele>3.8</ele><time>2022-11-16T13:38:57Z</time><name>PT6706</name></trkpt>
<trkpt lat="51.601588" lon="03.789571"><ele>3.9</ele><time>2022-11-16T13:38:58Z</time><name>PT6707</name></trkpt>
<trkpt lat="51.601584" lon="03.789552"><ele>3.7</ele><time>2022-11-16T13:38:59Z</time><name>PT6708</name></trkpt>
<trkpt lat="51.601582" lon="03.789532"><ele>4</ele><time>2022-11-16T13:39:00Z</time><name>PT6709</name></trkpt>
<trkpt lat="51.601581" lon="03.789514"><ele>3.9</ele><time>2022-11-16T13:39:01Z</time><name>PT6710</name></trkpt>
<trkpt lat="51.601580" lon="03.789496"><ele>4</ele><time>2022-11-16T13:39:02Z</time><name>PT6711</name></trkpt>
<trkpt lat="51.601579" lon="03.789481"><ele>4</ele><time>2022-11-16T13:39:03Z</time><name>PT6712</name></trkpt>
<trkpt lat="51.601577" lon="03.789466"><ele>4.1</ele><time>2022-11-16T13:39:04Z</time><name>PT6713</name></trkpt>
<trkpt lat="51.601574" lon="03.789454"><ele>4</ele><time>2022-11-16T13:39:05Z</time><name>PT6714</name></trkpt>
<trkpt lat="51.601571" lon="03.789437"><ele>4.1</ele><time>2022-11-16T13:39:06Z</time><name>PT6715</name></trkpt>
<trkpt lat="51.601568" lon="03.789417"><ele>4.1</ele><time>2022-11-16T13:39:07Z</time><name>PT6716</name></trkpt>
<trkpt lat="51.601566" lon="03.789400"><ele>3.9</ele><time>2022-11-16T13:39:08Z</time><name>PT6717</name></trkpt>
<trkpt lat="51.601563" lon="03.789385"><ele>4.1</ele><time>2022-11-16T13:39:09Z</time><name>PT6718</name></trkpt>
<trkpt lat="51.601560" lon="03.789369"><ele>4.1</ele><time>2022-11-16T13:39:10Z</time><name>PT6719</name></trkpt>
<trkpt lat="51.601559" lon="03.789351"><ele>4.1</ele><time>2022-11-16T13:39:11Z</time><name>PT6720</name></trkpt>
<trkpt lat="51.601557" lon="03.789332"><ele>4.4</ele><time>2022-11-16T13:39:12Z</time><name>PT6721</name></trkpt>
<trkpt lat="51.601556" lon="03.789314"><ele>4.4</ele><time>2022-11-16T13:39:13Z</time><name>PT6722</name></trkpt>
<trkpt lat="51.601555" lon="03.789298"><ele>4.2</ele><time>2022-11-16T13:39:14Z</time><name>PT6723</name></trkpt>
<trkpt lat="51.601554" lon="03.789282"><ele>4.1</ele><time>2022-11-16T13:39:15Z</time><name>PT6724</name></trkpt>
<trkpt lat="51.601551" lon="03.789265"><ele>4.2</ele><time>2022-11-16T13:39:16Z</time><name>PT6725</name></trkpt>
<trkpt lat="51.601549" lon="03.789248"><ele>4.2</ele><time>2022-11-16T13:39:17Z</time><name>PT6726</name></trkpt>
<trkpt lat="51.601547" lon="03.789231"><ele>4.4</ele><time>2022-11-16T13:39:18Z</time><name>PT6727</name></trkpt>
<trkpt lat="51.601544" lon="03.789214"><ele>4.3</ele><time>2022-11-16T13:39:19Z</time><name>PT6728</name></trkpt>
<trkpt lat="51.601541" lon="03.789199"><ele>4.2</ele><time>2022-11-16T13:39:20Z</time><name>PT6729</name></trkpt>
<trkpt lat="51.601538" lon="03.789184"><ele>4.2</ele><time>2022-11-16T13:39:21Z</time><name>PT6730</name></trkpt>
<trkpt lat="51.601536" lon="03.789168"><ele>4.2</ele><time>2022-11-16T13:39:22Z</time><name>PT6731</name></trkpt>
<trkpt lat="51.601535" lon="03.789157"><ele>4.1</ele><time>2022-11-16T13:39:23Z</time><name>PT6732</name></trkpt>
<trkpt lat="51.601533" lon="03.789146"><ele>4.1</ele><time>2022-11-16T13:39:24Z</time><name>PT6733</name></trkpt>
<trkpt lat="51.601531" lon="03.789135"><ele>4.2</ele><time>2022-11-16T13:39:25Z</time><name>PT6734</name></trkpt>
<trkpt lat="51.601530" lon="03.789119"><ele>4.2</ele><time>2022-11-16T13:39:26Z</time><name>PT6735</name></trkpt>
<trkpt lat="51.601528" lon="03.789103"><ele>4.1</ele><time>2022-11-16T13:39:27Z</time><name>PT6736</name></trkpt>
<trkpt lat="51.601524" lon="03.789088"><ele>4.1</ele><time>2022-11-16T13:39:28Z</time><name>PT6737</name></trkpt>
<trkpt lat="51.601516" lon="03.789067"><ele>4.1</ele><time>2022-11-16T13:39:29Z</time><name>PT6738</name></trkpt>
<trkpt lat="51.601512" lon="03.789051"><ele>3.9</ele><time>2022-11-16T13:39:30Z</time><name>PT6739</name></trkpt>
<trkpt lat="51.601510" lon="03.789037"><ele>3.7</ele><time>2022-11-16T13:39:31Z</time><name>PT6740</name></trkpt>
<trkpt lat="51.601506" lon="03.789018"><ele>3.8</ele><time>2022-11-16T13:39:32Z</time><name>PT6741</name></trkpt>
<trkpt lat="51.601502" lon="03.788997"><ele>4</ele><time>2022-11-16T13:39:33Z</time><name>PT6742</name></trkpt>
<trkpt lat="51.601496" lon="03.788976"><ele>4.1</ele><time>2022-11-16T13:39:34Z</time><name>PT6743</name></trkpt>
<trkpt lat="51.601494" lon="03.788960"><ele>4.1</ele><time>2022-11-16T13:39:35Z</time><name>PT6744</name></trkpt>
<trkpt lat="51.601492" lon="03.788946"><ele>4.1</ele><time>2022-11-16T13:39:36Z</time><name>PT6745</name></trkpt>
<trkpt lat="51.601492" lon="03.788933"><ele>4.2</ele><time>2022-11-16T13:39:37Z</time><name>PT6746</name></trkpt>
<trkpt lat="51.601491" lon="03.788919"><ele>4.1</ele><time>2022-11-16T13:39:38Z</time><name>PT6747</name></trkpt>
<trkpt lat="51.601492" lon="03.788903"><ele>4.1</ele><time>2022-11-16T13:39:39Z</time><name>PT6748</name></trkpt>
<trkpt lat="51.601492" lon="03.788888"><ele>4.1</ele><time>2022-11-16T13:39:40Z</time><name>PT6749</name></trkpt>
<trkpt lat="51.601491" lon="03.788872"><ele>4.1</ele><time>2022-11-16T13:39:41Z</time><name>PT6750</name></trkpt>
<trkpt lat="51.601490" lon="03.788855"><ele>4.1</ele><time>2022-11-16T13:39:42Z</time><name>PT6751</name></trkpt>
<trkpt lat="51.601487" lon="03.788839"><ele>4</ele><time>2022-11-16T13:39:43Z</time><name>PT6752</name></trkpt>
<trkpt lat="51.601485" lon="03.788822"><ele>4.1</ele><time>2022-11-16T13:39:44Z</time><name>PT6753</name></trkpt>
<trkpt lat="51.601482" lon="03.788806"><ele>4.1</ele><time>2022-11-16T13:39:45Z</time><name>PT6754</name></trkpt>
<trkpt lat="51.601480" lon="03.788789"><ele>4.2</ele><time>2022-11-16T13:39:46Z</time><name>PT6755</name></trkpt>
<trkpt lat="51.601478" lon="03.788775"><ele>4.4</ele><time>2022-11-16T13:39:47Z</time><name>PT6756</name></trkpt>
<trkpt lat="51.601478" lon="03.788760"><ele>4.3</ele><time>2022-11-16T13:39:48Z</time><name>PT6757</name></trkpt>
<trkpt lat="51.601478" lon="03.788745"><ele>4.2</ele><time>2022-11-16T13:39:49Z</time><name>PT6758</name></trkpt>
<trkpt lat="51.601477" lon="03.788729"><ele>4.1</ele><time>2022-11-16T13:39:50Z</time><name>PT6759</name></trkpt>
<trkpt lat="51.601476" lon="03.788712"><ele>4.1</ele><time>2022-11-16T13:39:51Z</time><name>PT6760</name></trkpt>
<trkpt lat="51.601473" lon="03.788696"><ele>4.1</ele><time>2022-11-16T13:39:52Z</time><name>PT6761</name></trkpt>
<trkpt lat="51.601471" lon="03.788678"><ele>4.1</ele><time>2022-11-16T13:39:53Z</time><name>PT6762</name></trkpt>
<trkpt lat="51.601470" lon="03.788660"><ele>4.1</ele><time>2022-11-16T13:39:54Z</time><name>PT6763</name></trkpt>
<trkpt lat="51.601469" lon="03.788646"><ele>3.9</ele><time>2022-11-16T13:39:55Z</time><name>PT6764</name></trkpt>
<trkpt lat="51.601466" lon="03.788631"><ele>4</ele><time>2022-11-16T13:39:56Z</time><name>PT6765</name></trkpt>
<trkpt lat="51.601465" lon="03.788616"><ele>4</ele><time>2022-11-16T13:39:57Z</time><name>PT6766</name></trkpt>
<trkpt lat="51.601464" lon="03.788599"><ele>4</ele><time>2022-11-16T13:39:58Z</time><name>PT6767</name></trkpt>
<trkpt lat="51.601464" lon="03.788583"><ele>4</ele><time>2022-11-16T13:39:59Z</time><name>PT6768</name></trkpt>
<trkpt lat="51.601464" lon="03.788567"><ele>4</ele><time>2022-11-16T13:40:00Z</time><name>PT6769</name></trkpt>
<trkpt lat="51.601463" lon="03.788550"><ele>4</ele><time>2022-11-16T13:40:01Z</time><name>PT6770</name></trkpt>
<trkpt lat="51.601460" lon="03.788533"><ele>4.1</ele><time>2022-11-16T13:40:02Z</time><name>PT6771</name></trkpt>
<trkpt lat="51.601458" lon="03.788517"><ele>4.1</ele><time>2022-11-16T13:40:03Z</time><name>PT6772</name></trkpt>
<trkpt lat="51.601455" lon="03.788500"><ele>4.1</ele><time>2022-11-16T13:40:04Z</time><name>PT6773</name></trkpt>
<trkpt lat="51.601453" lon="03.788485"><ele>4.3</ele><time>2022-11-16T13:40:05Z</time><name>PT6774</name></trkpt>
<trkpt lat="51.601452" lon="03.788470"><ele>4.4</ele><time>2022-11-16T13:40:06Z</time><name>PT6775</name></trkpt>
<trkpt lat="51.601453" lon="03.788453"><ele>4.4</ele><time>2022-11-16T13:40:07Z</time><name>PT6776</name></trkpt>
<trkpt lat="51.601454" lon="03.788435"><ele>4.4</ele><time>2022-11-16T13:40:08Z</time><name>PT6777</name></trkpt>
<trkpt lat="51.601453" lon="03.788419"><ele>4.3</ele><time>2022-11-16T13:40:09Z</time><name>PT6778</name></trkpt>
<trkpt lat="51.601452" lon="03.788402"><ele>4.1</ele><time>2022-11-16T13:40:10Z</time><name>PT6779</name></trkpt>
<trkpt lat="51.601450" lon="03.788386"><ele>4.2</ele><time>2022-11-16T13:40:11Z</time><name>PT6780</name></trkpt>
<trkpt lat="51.601447" lon="03.788369"><ele>4.1</ele><time>2022-11-16T13:40:12Z</time><name>PT6781</name></trkpt>
<trkpt lat="51.601445" lon="03.788353"><ele>4.1</ele><time>2022-11-16T13:40:13Z</time><name>PT6782</name></trkpt>
<trkpt lat="51.601444" lon="03.788337"><ele>4.1</ele><time>2022-11-16T13:40:14Z</time><name>PT6783</name></trkpt>
<trkpt lat="51.601443" lon="03.788322"><ele>4.1</ele><time>2022-11-16T13:40:15Z</time><name>PT6784</name></trkpt>
<trkpt lat="51.601443" lon="03.788307"><ele>4.1</ele><time>2022-11-16T13:40:16Z</time><name>PT6785</name></trkpt>
<trkpt lat="51.601443" lon="03.788290"><ele>4.1</ele><time>2022-11-16T13:40:17Z</time><name>PT6786</name></trkpt>
<trkpt lat="51.601445" lon="03.788275"><ele>4.1</ele><time>2022-11-16T13:40:18Z</time><name>PT6787</name></trkpt>
<trkpt lat="51.601444" lon="03.788259"><ele>4.1</ele><time>2022-11-16T13:40:19Z</time><name>PT6788</name></trkpt>
<trkpt lat="51.601442" lon="03.788242"><ele>4.1</ele><time>2022-11-16T13:40:20Z</time><name>PT6789</name></trkpt>
<trkpt lat="51.601440" lon="03.788228"><ele>4</ele><time>2022-11-16T13:40:21Z</time><name>PT6790</name></trkpt>
<trkpt lat="51.601440" lon="03.788214"><ele>4</ele><time>2022-11-16T13:40:22Z</time><name>PT6791</name></trkpt>
<trkpt lat="51.601440" lon="03.788200"><ele>4.1</ele><time>2022-11-16T13:40:23Z</time><name>PT6792</name></trkpt>
<trkpt lat="51.601440" lon="03.788186"><ele>4.2</ele><time>2022-11-16T13:40:24Z</time><name>PT6793</name></trkpt>
<trkpt lat="51.601438" lon="03.788170"><ele>4.1</ele><time>2022-11-16T13:40:25Z</time><name>PT6794</name></trkpt>
<trkpt lat="51.601438" lon="03.788154"><ele>4</ele><time>2022-11-16T13:40:26Z</time><name>PT6795</name></trkpt>
<trkpt lat="51.601439" lon="03.788138"><ele>4</ele><time>2022-11-16T13:40:27Z</time><name>PT6796</name></trkpt>
<trkpt lat="51.601438" lon="03.788122"><ele>3.9</ele><time>2022-11-16T13:40:28Z</time><name>PT6797</name></trkpt>
<trkpt lat="51.601437" lon="03.788105"><ele>3.6</ele><time>2022-11-16T13:40:29Z</time><name>PT6798</name></trkpt>
<trkpt lat="51.601435" lon="03.788088"><ele>3.6</ele><time>2022-11-16T13:40:30Z</time><name>PT6799</name></trkpt>
<trkpt lat="51.601433" lon="03.788072"><ele>3.7</ele><time>2022-11-16T13:40:31Z</time><name>PT6800</name></trkpt>
<trkpt lat="51.601431" lon="03.788057"><ele>3.5</ele><time>2022-11-16T13:40:32Z</time><name>PT6801</name></trkpt>
<trkpt lat="51.601431" lon="03.788043"><ele>3.9</ele><time>2022-11-16T13:40:33Z</time><name>PT6802</name></trkpt>
<trkpt lat="51.601432" lon="03.788026"><ele>3.9</ele><time>2022-11-16T13:40:34Z</time><name>PT6803</name></trkpt>
<trkpt lat="51.601433" lon="03.788009"><ele>3.9</ele><time>2022-11-16T13:40:35Z</time><name>PT6804</name></trkpt>
<trkpt lat="51.601433" lon="03.787993"><ele>4</ele><time>2022-11-16T13:40:36Z</time><name>PT6805</name></trkpt>
<trkpt lat="51.601433" lon="03.787980"><ele>3.9</ele><time>2022-11-16T13:40:37Z</time><name>PT6806</name></trkpt>
<trkpt lat="51.601434" lon="03.787965"><ele>3.9</ele><time>2022-11-16T13:40:38Z</time><name>PT6807</name></trkpt>
<trkpt lat="51.601434" lon="03.787950"><ele>4.1</ele><time>2022-11-16T13:40:39Z</time><name>PT6808</name></trkpt>
<trkpt lat="51.601433" lon="03.787934"><ele>4.1</ele><time>2022-11-16T13:40:40Z</time><name>PT6809</name></trkpt>
<trkpt lat="51.601433" lon="03.787920"><ele>4.1</ele><time>2022-11-16T13:40:41Z</time><name>PT6810</name></trkpt>
<trkpt lat="51.601431" lon="03.787904"><ele>4.2</ele><time>2022-11-16T13:40:42Z</time><name>PT6811</name></trkpt>
<trkpt lat="51.601430" lon="03.787887"><ele>4.1</ele><time>2022-11-16T13:40:43Z</time><name>PT6812</name></trkpt>
<trkpt lat="51.601431" lon="03.787870"><ele>4.1</ele><time>2022-11-16T13:40:44Z</time><name>PT6813</name></trkpt>
<trkpt lat="51.601432" lon="03.787854"><ele>4.1</ele><time>2022-11-16T13:40:45Z</time><name>PT6814</name></trkpt>
<trkpt lat="51.601432" lon="03.787837"><ele>3.9</ele><time>2022-11-16T13:40:46Z</time><name>PT6815</name></trkpt>
<trkpt lat="51.601433" lon="03.787822"><ele>3.9</ele><time>2022-11-16T13:40:47Z</time><name>PT6816</name></trkpt>
<trkpt lat="51.601435" lon="03.787806"><ele>4</ele><time>2022-11-16T13:40:48Z</time><name>PT6817</name></trkpt>
<trkpt lat="51.601435" lon="03.787790"><ele>4.1</ele><time>2022-11-16T13:40:49Z</time><name>PT6818</name></trkpt>
<trkpt lat="51.601434" lon="03.787775"><ele>4.2</ele><time>2022-11-16T13:40:50Z</time><name>PT6819</name></trkpt>
<trkpt lat="51.601432" lon="03.787758"><ele>4.3</ele><time>2022-11-16T13:40:51Z</time><name>PT6820</name></trkpt>
<trkpt lat="51.601431" lon="03.787743"><ele>4.3</ele><time>2022-11-16T13:40:52Z</time><name>PT6821</name></trkpt>
<trkpt lat="51.601430" lon="03.787725"><ele>4.2</ele><time>2022-11-16T13:40:53Z</time><name>PT6822</name></trkpt>
<trkpt lat="51.601430" lon="03.787708"><ele>4.1</ele><time>2022-11-16T13:40:54Z</time><name>PT6823</name></trkpt>
<trkpt lat="51.601430" lon="03.787691"><ele>4</ele><time>2022-11-16T13:40:55Z</time><name>PT6824</name></trkpt>
<trkpt lat="51.601430" lon="03.787673"><ele>3.8</ele><time>2022-11-16T13:40:56Z</time><name>PT6825</name></trkpt>
<trkpt lat="51.601429" lon="03.787656"><ele>3.9</ele><time>2022-11-16T13:40:57Z</time><name>PT6826</name></trkpt>
<trkpt lat="51.601429" lon="03.787639"><ele>4</ele><time>2022-11-16T13:40:58Z</time><name>PT6827</name></trkpt>
<trkpt lat="51.601428" lon="03.787622"><ele>4</ele><time>2022-11-16T13:40:59Z</time><name>PT6828</name></trkpt>
<trkpt lat="51.601427" lon="03.787605"><ele>4</ele><time>2022-11-16T13:41:00Z</time><name>PT6829</name></trkpt>
<trkpt lat="51.601427" lon="03.787590"><ele>4.1</ele><time>2022-11-16T13:41:01Z</time><name>PT6830</name></trkpt>
<trkpt lat="51.601427" lon="03.787573"><ele>4.1</ele><time>2022-11-16T13:41:02Z</time><name>PT6831</name></trkpt>
<trkpt lat="51.601429" lon="03.787558"><ele>4.1</ele><time>2022-11-16T13:41:03Z</time><name>PT6832</name></trkpt>
<trkpt lat="51.601429" lon="03.787542"><ele>4.2</ele><time>2022-11-16T13:41:04Z</time><name>PT6833</name></trkpt>
<trkpt lat="51.601429" lon="03.787527"><ele>4.2</ele><time>2022-11-16T13:41:05Z</time><name>PT6834</name></trkpt>
<trkpt lat="51.601428" lon="03.787509"><ele>4.2</ele><time>2022-11-16T13:41:06Z</time><name>PT6835</name></trkpt>
<trkpt lat="51.601428" lon="03.787490"><ele>4.4</ele><time>2022-11-16T13:41:07Z</time><name>PT6836</name></trkpt>
<trkpt lat="51.601429" lon="03.787474"><ele>4.3</ele><time>2022-11-16T13:41:08Z</time><name>PT6837</name></trkpt>
<trkpt lat="51.601428" lon="03.787458"><ele>4.3</ele><time>2022-11-16T13:41:09Z</time><name>PT6838</name></trkpt>
<trkpt lat="51.601426" lon="03.787441"><ele>4.1</ele><time>2022-11-16T13:41:10Z</time><name>PT6839</name></trkpt>
<trkpt lat="51.601427" lon="03.787423"><ele>4</ele><time>2022-11-16T13:41:11Z</time><name>PT6840</name></trkpt>
<trkpt lat="51.601428" lon="03.787407"><ele>4.1</ele><time>2022-11-16T13:41:12Z</time><name>PT6841</name></trkpt>
<trkpt lat="51.601429" lon="03.787390"><ele>4</ele><time>2022-11-16T13:41:13Z</time><name>PT6842</name></trkpt>
<trkpt lat="51.601430" lon="03.787373"><ele>4.1</ele><time>2022-11-16T13:41:14Z</time><name>PT6843</name></trkpt>
<trkpt lat="51.601430" lon="03.787357"><ele>4.1</ele><time>2022-11-16T13:41:15Z</time><name>PT6844</name></trkpt>
<trkpt lat="51.601430" lon="03.787340"><ele>4.1</ele><time>2022-11-16T13:41:16Z</time><name>PT6845</name></trkpt>
<trkpt lat="51.601430" lon="03.787323"><ele>4</ele><time>2022-11-16T13:41:17Z</time><name>PT6846</name></trkpt>
<trkpt lat="51.601430" lon="03.787308"><ele>4</ele><time>2022-11-16T13:41:18Z</time><name>PT6847</name></trkpt>
<trkpt lat="51.601430" lon="03.787292"><ele>3.9</ele><time>2022-11-16T13:41:19Z</time><name>PT6848</name></trkpt>
<trkpt lat="51.601430" lon="03.787277"><ele>4.1</ele><time>2022-11-16T13:41:20Z</time><name>PT6849</name></trkpt>
<trkpt lat="51.601430" lon="03.787260"><ele>4.2</ele><time>2022-11-16T13:41:21Z</time><name>PT6850</name></trkpt>
<trkpt lat="51.601431" lon="03.787253"><ele>4.1</ele><time>2022-11-16T13:41:22Z</time><name>PT6851</name></trkpt>
<trkpt lat="51.601430" lon="03.787244"><ele>4.2</ele><time>2022-11-16T13:41:23Z</time><name>PT6852</name></trkpt>
<trkpt lat="51.601428" lon="03.787227"><ele>4.2</ele><time>2022-11-16T13:41:24Z</time><name>PT6853</name></trkpt>
<trkpt lat="51.601429" lon="03.787206"><ele>4.2</ele><time>2022-11-16T13:41:25Z</time><name>PT6854</name></trkpt>
<trkpt lat="51.601429" lon="03.787189"><ele>4.1</ele><time>2022-11-16T13:41:26Z</time><name>PT6855</name></trkpt>
<trkpt lat="51.601429" lon="03.787175"><ele>4.1</ele><time>2022-11-16T13:41:27Z</time><name>PT6856</name></trkpt>
<trkpt lat="51.601430" lon="03.787160"><ele>4.1</ele><time>2022-11-16T13:41:28Z</time><name>PT6857</name></trkpt>
<trkpt lat="51.601431" lon="03.787143"><ele>4</ele><time>2022-11-16T13:41:29Z</time><name>PT6858</name></trkpt>
<trkpt lat="51.601433" lon="03.787127"><ele>3.7</ele><time>2022-11-16T13:41:30Z</time><name>PT6859</name></trkpt>
<trkpt lat="51.601434" lon="03.787110"><ele>3.8</ele><time>2022-11-16T13:41:31Z</time><name>PT6860</name></trkpt>
<trkpt lat="51.601434" lon="03.787092"><ele>3.8</ele><time>2022-11-16T13:41:32Z</time><name>PT6861</name></trkpt>
<trkpt lat="51.601434" lon="03.787077"><ele>3.7</ele><time>2022-11-16T13:41:33Z</time><name>PT6862</name></trkpt>
<trkpt lat="51.601433" lon="03.787060"><ele>3.9</ele><time>2022-11-16T13:41:34Z</time><name>PT6863</name></trkpt>
<trkpt lat="51.601434" lon="03.787042"><ele>4.1</ele><time>2022-11-16T13:41:35Z</time><name>PT6864</name></trkpt>
<trkpt lat="51.601433" lon="03.787023"><ele>4</ele><time>2022-11-16T13:41:36Z</time><name>PT6865</name></trkpt>
<trkpt lat="51.601433" lon="03.787007"><ele>4</ele><time>2022-11-16T13:41:37Z</time><name>PT6866</name></trkpt>
<trkpt lat="51.601433" lon="03.786993"><ele>4.1</ele><time>2022-11-16T13:41:38Z</time><name>PT6867</name></trkpt>
<trkpt lat="51.601433" lon="03.786980"><ele>4</ele><time>2022-11-16T13:41:39Z</time><name>PT6868</name></trkpt>
<trkpt lat="51.601435" lon="03.786965"><ele>4</ele><time>2022-11-16T13:41:40Z</time><name>PT6869</name></trkpt>
<trkpt lat="51.601436" lon="03.786950"><ele>3.9</ele><time>2022-11-16T13:41:41Z</time><name>PT6870</name></trkpt>
<trkpt lat="51.601437" lon="03.786934"><ele>3.8</ele><time>2022-11-16T13:41:42Z</time><name>PT6871</name></trkpt>
<trkpt lat="51.601438" lon="03.786918"><ele>3.6</ele><time>2022-11-16T13:41:43Z</time><name>PT6872</name></trkpt>
<trkpt lat="51.601438" lon="03.786900"><ele>3.8</ele><time>2022-11-16T13:41:44Z</time><name>PT6873</name></trkpt>
<trkpt lat="51.601438" lon="03.786882"><ele>3.6</ele><time>2022-11-16T13:41:45Z</time><name>PT6874</name></trkpt>
<trkpt lat="51.601436" lon="03.786863"><ele>3.9</ele><time>2022-11-16T13:41:46Z</time><name>PT6875</name></trkpt>
<trkpt lat="51.601436" lon="03.786844"><ele>3.9</ele><time>2022-11-16T13:41:47Z</time><name>PT6876</name></trkpt>
<trkpt lat="51.601435" lon="03.786826"><ele>4</ele><time>2022-11-16T13:41:48Z</time><name>PT6877</name></trkpt>
<trkpt lat="51.601435" lon="03.786808"><ele>3.9</ele><time>2022-11-16T13:41:49Z</time><name>PT6878</name></trkpt>
<trkpt lat="51.601434" lon="03.786791"><ele>4</ele><time>2022-11-16T13:41:50Z</time><name>PT6879</name></trkpt>
<trkpt lat="51.601433" lon="03.786774"><ele>4</ele><time>2022-11-16T13:41:51Z</time><name>PT6880</name></trkpt>
<trkpt lat="51.601435" lon="03.786760"><ele>3.9</ele><time>2022-11-16T13:41:52Z</time><name>PT6881</name></trkpt>
<trkpt lat="51.601436" lon="03.786743"><ele>4</ele><time>2022-11-16T13:41:53Z</time><name>PT6882</name></trkpt>
<trkpt lat="51.601436" lon="03.786726"><ele>4.1</ele><time>2022-11-16T13:41:54Z</time><name>PT6883</name></trkpt>
<trkpt lat="51.601437" lon="03.786709"><ele>4.1</ele><time>2022-11-16T13:41:55Z</time><name>PT6884</name></trkpt>
<trkpt lat="51.601439" lon="03.786691"><ele>4.1</ele><time>2022-11-16T13:41:56Z</time><name>PT6885</name></trkpt>
<trkpt lat="51.601440" lon="03.786674"><ele>4.1</ele><time>2022-11-16T13:41:57Z</time><name>PT6886</name></trkpt>
<trkpt lat="51.601442" lon="03.786658"><ele>4.1</ele><time>2022-11-16T13:41:58Z</time><name>PT6887</name></trkpt>
<trkpt lat="51.601444" lon="03.786640"><ele>3.9</ele><time>2022-11-16T13:41:59Z</time><name>PT6888</name></trkpt>
<trkpt lat="51.601445" lon="03.786624"><ele>3.7</ele><time>2022-11-16T13:42:00Z</time><name>PT6889</name></trkpt>
<trkpt lat="51.601444" lon="03.786607"><ele>3.6</ele><time>2022-11-16T13:42:01Z</time><name>PT6890</name></trkpt>
<trkpt lat="51.601445" lon="03.786590"><ele>3.5</ele><time>2022-11-16T13:42:02Z</time><name>PT6891</name></trkpt>
<trkpt lat="51.601445" lon="03.786570"><ele>3.4</ele><time>2022-11-16T13:42:03Z</time><name>PT6892</name></trkpt>
<trkpt lat="51.601445" lon="03.786553"><ele>3.4</ele><time>2022-11-16T13:42:04Z</time><name>PT6893</name></trkpt>
<trkpt lat="51.601444" lon="03.786536"><ele>3.5</ele><time>2022-11-16T13:42:05Z</time><name>PT6894</name></trkpt>
<trkpt lat="51.601444" lon="03.786518"><ele>3.5</ele><time>2022-11-16T13:42:06Z</time><name>PT6895</name></trkpt>
<trkpt lat="51.601443" lon="03.786502"><ele>3.5</ele><time>2022-11-16T13:42:07Z</time><name>PT6896</name></trkpt>
<trkpt lat="51.601443" lon="03.786485"><ele>3.7</ele><time>2022-11-16T13:42:08Z</time><name>PT6897</name></trkpt>
<trkpt lat="51.601443" lon="03.786468"><ele>3.9</ele><time>2022-11-16T13:42:09Z</time><name>PT6898</name></trkpt>
<trkpt lat="51.601444" lon="03.786451"><ele>3.9</ele><time>2022-11-16T13:42:10Z</time><name>PT6899</name></trkpt>
<trkpt lat="51.601445" lon="03.786434"><ele>4</ele><time>2022-11-16T13:42:11Z</time><name>PT6900</name></trkpt>
<trkpt lat="51.601447" lon="03.786417"><ele>4</ele><time>2022-11-16T13:42:12Z</time><name>PT6901</name></trkpt>
<trkpt lat="51.601449" lon="03.786400"><ele>4</ele><time>2022-11-16T13:42:13Z</time><name>PT6902</name></trkpt>
<trkpt lat="51.601450" lon="03.786383"><ele>4.1</ele><time>2022-11-16T13:42:14Z</time><name>PT6903</name></trkpt>
<trkpt lat="51.601452" lon="03.786366"><ele>4</ele><time>2022-11-16T13:42:15Z</time><name>PT6904</name></trkpt>
<trkpt lat="51.601452" lon="03.786349"><ele>4</ele><time>2022-11-16T13:42:16Z</time><name>PT6905</name></trkpt>
<trkpt lat="51.601453" lon="03.786333"><ele>4</ele><time>2022-11-16T13:42:17Z</time><name>PT6906</name></trkpt>
<trkpt lat="51.601454" lon="03.786316"><ele>4</ele><time>2022-11-16T13:42:18Z</time><name>PT6907</name></trkpt>
<trkpt lat="51.601453" lon="03.786300"><ele>4</ele><time>2022-11-16T13:42:19Z</time><name>PT6908</name></trkpt>
<trkpt lat="51.601453" lon="03.786283"><ele>4</ele><time>2022-11-16T13:42:20Z</time><name>PT6909</name></trkpt>
<trkpt lat="51.601452" lon="03.786266"><ele>4.1</ele><time>2022-11-16T13:42:21Z</time><name>PT6910</name></trkpt>
<trkpt lat="51.601452" lon="03.786250"><ele>4.1</ele><time>2022-11-16T13:42:22Z</time><name>PT6911</name></trkpt>
<trkpt lat="51.601452" lon="03.786234"><ele>4.1</ele><time>2022-11-16T13:42:23Z</time><name>PT6912</name></trkpt>
<trkpt lat="51.601453" lon="03.786218"><ele>4.1</ele><time>2022-11-16T13:42:24Z</time><name>PT6913</name></trkpt>
<trkpt lat="51.601453" lon="03.786202"><ele>3.9</ele><time>2022-11-16T13:42:25Z</time><name>PT6914</name></trkpt>
<trkpt lat="51.601454" lon="03.786185"><ele>3.6</ele><time>2022-11-16T13:42:26Z</time><name>PT6915</name></trkpt>
<trkpt lat="51.601456" lon="03.786168"><ele>3.6</ele><time>2022-11-16T13:42:27Z</time><name>PT6916</name></trkpt>
<trkpt lat="51.601456" lon="03.786150"><ele>3.5</ele><time>2022-11-16T13:42:28Z</time><name>PT6917</name></trkpt>
<trkpt lat="51.601457" lon="03.786133"><ele>3.5</ele><time>2022-11-16T13:42:29Z</time><name>PT6918</name></trkpt>
<trkpt lat="51.601457" lon="03.786119"><ele>3.5</ele><time>2022-11-16T13:42:30Z</time><name>PT6919</name></trkpt>
<trkpt lat="51.601456" lon="03.786101"><ele>3.6</ele><time>2022-11-16T13:42:31Z</time><name>PT6920</name></trkpt>
<trkpt lat="51.601456" lon="03.786083"><ele>3.8</ele><time>2022-11-16T13:42:32Z</time><name>PT6921</name></trkpt>
<trkpt lat="51.601455" lon="03.786066"><ele>3.8</ele><time>2022-11-16T13:42:33Z</time><name>PT6922</name></trkpt>
<trkpt lat="51.601454" lon="03.786049"><ele>3.9</ele><time>2022-11-16T13:42:34Z</time><name>PT6923</name></trkpt>
<trkpt lat="51.601453" lon="03.786034"><ele>3.8</ele><time>2022-11-16T13:42:35Z</time><name>PT6924</name></trkpt>
<trkpt lat="51.601453" lon="03.786019"><ele>3.8</ele><time>2022-11-16T13:42:36Z</time><name>PT6925</name></trkpt>
<trkpt lat="51.601453" lon="03.786003"><ele>3.8</ele><time>2022-11-16T13:42:37Z</time><name>PT6926</name></trkpt>
<trkpt lat="51.601454" lon="03.785985"><ele>3.9</ele><time>2022-11-16T13:42:38Z</time><name>PT6927</name></trkpt>
<trkpt lat="51.601455" lon="03.785968"><ele>3.9</ele><time>2022-11-16T13:42:39Z</time><name>PT6928</name></trkpt>
<trkpt lat="51.601456" lon="03.785952"><ele>4.1</ele><time>2022-11-16T13:42:40Z</time><name>PT6929</name></trkpt>
<trkpt lat="51.601456" lon="03.785937"><ele>4.1</ele><time>2022-11-16T13:42:41Z</time><name>PT6930</name></trkpt>
<trkpt lat="51.601456" lon="03.785920"><ele>3.9</ele><time>2022-11-16T13:42:42Z</time><name>PT6931</name></trkpt>
<trkpt lat="51.601453" lon="03.785905"><ele>4</ele><time>2022-11-16T13:42:43Z</time><name>PT6932</name></trkpt>
<trkpt lat="51.601450" lon="03.785894"><ele>4</ele><time>2022-11-16T13:42:44Z</time><name>PT6933</name></trkpt>
<trkpt lat="51.601445" lon="03.785880"><ele>3.7</ele><time>2022-11-16T13:42:45Z</time><name>PT6934</name></trkpt>
<trkpt lat="51.601444" lon="03.785868"><ele>3.6</ele><time>2022-11-16T13:42:46Z</time><name>PT6935</name></trkpt>
<trkpt lat="51.601443" lon="03.785851"><ele>3.5</ele><time>2022-11-16T13:42:47Z</time><name>PT6936</name></trkpt>
<trkpt lat="51.601442" lon="03.785837"><ele>3.4</ele><time>2022-11-16T13:42:48Z</time><name>PT6937</name></trkpt>
<trkpt lat="51.601442" lon="03.785820"><ele>3.4</ele><time>2022-11-16T13:42:49Z</time><name>PT6938</name></trkpt>
<trkpt lat="51.601441" lon="03.785805"><ele>3.5</ele><time>2022-11-16T13:42:50Z</time><name>PT6939</name></trkpt>
<trkpt lat="51.601442" lon="03.785791"><ele>3.5</ele><time>2022-11-16T13:42:51Z</time><name>PT6940</name></trkpt>
<trkpt lat="51.601442" lon="03.785774"><ele>3.5</ele><time>2022-11-16T13:42:52Z</time><name>PT6941</name></trkpt>
<trkpt lat="51.601443" lon="03.785758"><ele>3.5</ele><time>2022-11-16T13:42:53Z</time><name>PT6942</name></trkpt>
<trkpt lat="51.601444" lon="03.785743"><ele>3.5</ele><time>2022-11-16T13:42:54Z</time><name>PT6943</name></trkpt>
<trkpt lat="51.601444" lon="03.785728"><ele>3.5</ele><time>2022-11-16T13:42:55Z</time><name>PT6944</name></trkpt>
<trkpt lat="51.601443" lon="03.785712"><ele>3.5</ele><time>2022-11-16T13:42:56Z</time><name>PT6945</name></trkpt>
<trkpt lat="51.601443" lon="03.785697"><ele>3.5</ele><time>2022-11-16T13:42:57Z</time><name>PT6946</name></trkpt>
<trkpt lat="51.601443" lon="03.785684"><ele>3.5</ele><time>2022-11-16T13:42:58Z</time><name>PT6947</name></trkpt>
<trkpt lat="51.601444" lon="03.785668"><ele>3.5</ele><time>2022-11-16T13:42:59Z</time><name>PT6948</name></trkpt>
<trkpt lat="51.601444" lon="03.785650"><ele>3.5</ele><time>2022-11-16T13:43:00Z</time><name>PT6949</name></trkpt>
<trkpt lat="51.601445" lon="03.785633"><ele>3.5</ele><time>2022-11-16T13:43:01Z</time><name>PT6950</name></trkpt>
<trkpt lat="51.601445" lon="03.785619"><ele>3.5</ele><time>2022-11-16T13:43:02Z</time><name>PT6951</name></trkpt>
<trkpt lat="51.601442" lon="03.785601"><ele>3.7</ele><time>2022-11-16T13:43:03Z</time><name>PT6952</name></trkpt>
<trkpt lat="51.601442" lon="03.785585"><ele>3.7</ele><time>2022-11-16T13:43:04Z</time><name>PT6953</name></trkpt>
<trkpt lat="51.601442" lon="03.785571"><ele>3.7</ele><time>2022-11-16T13:43:05Z</time><name>PT6954</name></trkpt>
<trkpt lat="51.601442" lon="03.785556"><ele>3.6</ele><time>2022-11-16T13:43:06Z</time><name>PT6955</name></trkpt>
<trkpt lat="51.601444" lon="03.785539"><ele>3.6</ele><time>2022-11-16T13:43:07Z</time><name>PT6956</name></trkpt>
<trkpt lat="51.601446" lon="03.785520"><ele>3.5</ele><time>2022-11-16T13:43:08Z</time><name>PT6957</name></trkpt>
<trkpt lat="51.601447" lon="03.785501"><ele>3.5</ele><time>2022-11-16T13:43:09Z</time><name>PT6958</name></trkpt>
<trkpt lat="51.601447" lon="03.785489"><ele>3.5</ele><time>2022-11-16T13:43:10Z</time><name>PT6959</name></trkpt>
<trkpt lat="51.601445" lon="03.785479"><ele>3.6</ele><time>2022-11-16T13:43:11Z</time><name>PT6960</name></trkpt>
<trkpt lat="51.601443" lon="03.785468"><ele>3.9</ele><time>2022-11-16T13:43:12Z</time><name>PT6961</name></trkpt>
<trkpt lat="51.601444" lon="03.785455"><ele>3.8</ele><time>2022-11-16T13:43:13Z</time><name>PT6962</name></trkpt>
<trkpt lat="51.601446" lon="03.785441"><ele>3.8</ele><time>2022-11-16T13:43:14Z</time><name>PT6963</name></trkpt>
<trkpt lat="51.601447" lon="03.785427"><ele>3.7</ele><time>2022-11-16T13:43:15Z</time><name>PT6964</name></trkpt>
<trkpt lat="51.601446" lon="03.785412"><ele>3.5</ele><time>2022-11-16T13:43:16Z</time><name>PT6965</name></trkpt>
<trkpt lat="51.601447" lon="03.785396"><ele>3.4</ele><time>2022-11-16T13:43:17Z</time><name>PT6966</name></trkpt>
<trkpt lat="51.601448" lon="03.785381"><ele>3.3</ele><time>2022-11-16T13:43:18Z</time><name>PT6967</name></trkpt>
<trkpt lat="51.601447" lon="03.785366"><ele>3.4</ele><time>2022-11-16T13:43:19Z</time><name>PT6968</name></trkpt>
<trkpt lat="51.601449" lon="03.785350"><ele>3.5</ele><time>2022-11-16T13:43:20Z</time><name>PT6969</name></trkpt>
<trkpt lat="51.601450" lon="03.785334"><ele>3.6</ele><time>2022-11-16T13:43:21Z</time><name>PT6970</name></trkpt>
<trkpt lat="51.601450" lon="03.785318"><ele>3.7</ele><time>2022-11-16T13:43:22Z</time><name>PT6971</name></trkpt>
<trkpt lat="51.601450" lon="03.785301"><ele>3.5</ele><time>2022-11-16T13:43:23Z</time><name>PT6972</name></trkpt>
<trkpt lat="51.601449" lon="03.785285"><ele>3.6</ele><time>2022-11-16T13:43:24Z</time><name>PT6973</name></trkpt>
<trkpt lat="51.601448" lon="03.785266"><ele>3.7</ele><time>2022-11-16T13:43:25Z</time><name>PT6974</name></trkpt>
<trkpt lat="51.601448" lon="03.785249"><ele>3.6</ele><time>2022-11-16T13:43:26Z</time><name>PT6975</name></trkpt>
<trkpt lat="51.601448" lon="03.785231"><ele>3.5</ele><time>2022-11-16T13:43:27Z</time><name>PT6976</name></trkpt>
<trkpt lat="51.601448" lon="03.785215"><ele>3.6</ele><time>2022-11-16T13:43:28Z</time><name>PT6977</name></trkpt>
<trkpt lat="51.601449" lon="03.785198"><ele>3.6</ele><time>2022-11-16T13:43:29Z</time><name>PT6978</name></trkpt>
<trkpt lat="51.601451" lon="03.785182"><ele>3.6</ele><time>2022-11-16T13:43:30Z</time><name>PT6979</name></trkpt>
<trkpt lat="51.601452" lon="03.785167"><ele>3.6</ele><time>2022-11-16T13:43:31Z</time><name>PT6980</name></trkpt>
<trkpt lat="51.601451" lon="03.785153"><ele>3.7</ele><time>2022-11-16T13:43:32Z</time><name>PT6981</name></trkpt>
<trkpt lat="51.601450" lon="03.785136"><ele>3.8</ele><time>2022-11-16T13:43:33Z</time><name>PT6982</name></trkpt>
<trkpt lat="51.601449" lon="03.785119"><ele>3.7</ele><time>2022-11-16T13:43:34Z</time><name>PT6983</name></trkpt>
<trkpt lat="51.601449" lon="03.785105"><ele>3.8</ele><time>2022-11-16T13:43:35Z</time><name>PT6984</name></trkpt>
<trkpt lat="51.601451" lon="03.785090"><ele>3.8</ele><time>2022-11-16T13:43:36Z</time><name>PT6985</name></trkpt>
<trkpt lat="51.601450" lon="03.785071"><ele>3.9</ele><time>2022-11-16T13:43:37Z</time><name>PT6986</name></trkpt>
<trkpt lat="51.601450" lon="03.785056"><ele>3.8</ele><time>2022-11-16T13:43:38Z</time><name>PT6987</name></trkpt>
<trkpt lat="51.601448" lon="03.785039"><ele>3.8</ele><time>2022-11-16T13:43:39Z</time><name>PT6988</name></trkpt>
<trkpt lat="51.601447" lon="03.785023"><ele>3.8</ele><time>2022-11-16T13:43:40Z</time><name>PT6989</name></trkpt>
<trkpt lat="51.601446" lon="03.785005"><ele>0</ele><time>2022-11-16T13:43:41Z</time><name>PT6990</name></trkpt>
<trkpt lat="51.601444" lon="03.784989"><ele>0.2</ele><time>2022-11-16T13:43:42Z</time><name>PT6991</name></trkpt>
<trkpt lat="51.601446" lon="03.784973"><ele>0.1</ele><time>2022-11-16T13:43:43Z</time><name>PT6992</name></trkpt>
<trkpt lat="51.601445" lon="03.784956"><ele>0</ele><time>2022-11-16T13:43:44Z</time><name>PT6993</name></trkpt>
<trkpt lat="51.601446" lon="03.784942"><ele>0</ele><time>2022-11-16T13:43:45Z</time><name>PT6994</name></trkpt>
<trkpt lat="51.601445" lon="03.784927"><ele>0</ele><time>2022-11-16T13:43:46Z</time><name>PT6995</name></trkpt>
<trkpt lat="51.601443" lon="03.784909"><ele>0</ele><time>2022-11-16T13:43:47Z</time><name>PT6996</name></trkpt>
<trkpt lat="51.601443" lon="03.784892"><ele>0</ele><time>2022-11-16T13:43:48Z</time><name>PT6997</name></trkpt>
<trkpt lat="51.601442" lon="03.784875"><ele>0</ele><time>2022-11-16T13:43:49Z</time><name>PT6998</name></trkpt>
<trkpt lat="51.601443" lon="03.784859"><ele>0.2</ele><time>2022-11-16T13:43:50Z</time><name>PT6999</name></trkpt>
<trkpt lat="51.601444" lon="03.784843"><ele>0.1</ele><time>2022-11-16T13:43:51Z</time><name>PT7000</name></trkpt>
<trkpt lat="51.601447" lon="03.784829"><ele>0.1</ele><time>2022-11-16T13:43:52Z</time><name>PT7001</name></trkpt>
<trkpt lat="51.601450" lon="03.784819"><ele>0</ele><time>2022-11-16T13:43:53Z</time><name>PT7002</name></trkpt>
<trkpt lat="51.601450" lon="03.784803"><ele>0</ele><time>2022-11-16T13:43:54Z</time><name>PT7003</name></trkpt>
<trkpt lat="51.601452" lon="03.784785"><ele>0</ele><time>2022-11-16T13:43:55Z</time><name>PT7004</name></trkpt>
<trkpt lat="51.601458" lon="03.784766"><ele>0.1</ele><time>2022-11-16T13:43:56Z</time><name>PT7005</name></trkpt>
<trkpt lat="51.601463" lon="03.784749"><ele>0.1</ele><time>2022-11-16T13:43:57Z</time><name>PT7006</name></trkpt>
<trkpt lat="51.601466" lon="03.784729"><ele>0.2</ele><time>2022-11-16T13:43:58Z</time><name>PT7007</name></trkpt>
<trkpt lat="51.601467" lon="03.784710"><ele>0</ele><time>2022-11-16T13:43:59Z</time><name>PT7008</name></trkpt>
<trkpt lat="51.601467" lon="03.784694"><ele>0.1</ele><time>2022-11-16T13:44:00Z</time><name>PT7009</name></trkpt>
<trkpt lat="51.601467" lon="03.784679"><ele>0.1</ele><time>2022-11-16T13:44:01Z</time><name>PT7010</name></trkpt>
<trkpt lat="51.601469" lon="03.784662"><ele>0</ele><time>2022-11-16T13:44:02Z</time><name>PT7011</name></trkpt>
<trkpt lat="51.601470" lon="03.784644"><ele>0</ele><time>2022-11-16T13:44:03Z</time><name>PT7012</name></trkpt>
<trkpt lat="51.601471" lon="03.784627"><ele>0</ele><time>2022-11-16T13:44:04Z</time><name>PT7013</name></trkpt>
<trkpt lat="51.601471" lon="03.784613"><ele>0.1</ele><time>2022-11-16T13:44:05Z</time><name>PT7014</name></trkpt>
<trkpt lat="51.601471" lon="03.784597"><ele>0.1</ele><time>2022-11-16T13:44:06Z</time><name>PT7015</name></trkpt>
<trkpt lat="51.601471" lon="03.784581"><ele>0.1</ele><time>2022-11-16T13:44:07Z</time><name>PT7016</name></trkpt>
<trkpt lat="51.601471" lon="03.784567"><ele>0.2</ele><time>2022-11-16T13:44:08Z</time><name>PT7017</name></trkpt>
<trkpt lat="51.601473" lon="03.784550"><ele>0.3</ele><time>2022-11-16T13:44:09Z</time><name>PT7018</name></trkpt>
<trkpt lat="51.601475" lon="03.784533"><ele>0.1</ele><time>2022-11-16T13:44:10Z</time><name>PT7019</name></trkpt>
<trkpt lat="51.601475" lon="03.784515"><ele>0.1</ele><time>2022-11-16T13:44:11Z</time><name>PT7020</name></trkpt>
<trkpt lat="51.601475" lon="03.784494"><ele>0.1</ele><time>2022-11-16T13:44:12Z</time><name>PT7021</name></trkpt>
<trkpt lat="51.601476" lon="03.784474"><ele>0.1</ele><time>2022-11-16T13:44:13Z</time><name>PT7022</name></trkpt>
<trkpt lat="51.601476" lon="03.784458"><ele>0</ele><time>2022-11-16T13:44:14Z</time><name>PT7023</name></trkpt>
<trkpt lat="51.601477" lon="03.784442"><ele>0</ele><time>2022-11-16T13:44:15Z</time><name>PT7024</name></trkpt>
<trkpt lat="51.601477" lon="03.784423"><ele>0</ele><time>2022-11-16T13:44:16Z</time><name>PT7025</name></trkpt>
<trkpt lat="51.601478" lon="03.784405"><ele>0.1</ele><time>2022-11-16T13:44:17Z</time><name>PT7026</name></trkpt>
<trkpt lat="51.601477" lon="03.784389"><ele>0.1</ele><time>2022-11-16T13:44:18Z</time><name>PT7027</name></trkpt>
<trkpt lat="51.601476" lon="03.784373"><ele>0.2</ele><time>2022-11-16T13:44:19Z</time><name>PT7028</name></trkpt>
<trkpt lat="51.601475" lon="03.784360"><ele>0.3</ele><time>2022-11-16T13:44:20Z</time><name>PT7029</name></trkpt>
<trkpt lat="51.601475" lon="03.784348"><ele>0.2</ele><time>2022-11-16T13:44:21Z</time><name>PT7030</name></trkpt>
<trkpt lat="51.601473" lon="03.784334"><ele>0.3</ele><time>2022-11-16T13:44:22Z</time><name>PT7031</name></trkpt>
<trkpt lat="51.601472" lon="03.784320"><ele>0.2</ele><time>2022-11-16T13:44:23Z</time><name>PT7032</name></trkpt>
<trkpt lat="51.601473" lon="03.784309"><ele>0.3</ele><time>2022-11-16T13:44:24Z</time><name>PT7033</name></trkpt>
<trkpt lat="51.601474" lon="03.784298"><ele>0.2</ele><time>2022-11-16T13:44:25Z</time><name>PT7034</name></trkpt>
<trkpt lat="51.601473" lon="03.784286"><ele>0.2</ele><time>2022-11-16T13:44:26Z</time><name>PT7035</name></trkpt>
<trkpt lat="51.601472" lon="03.784273"><ele>0.1</ele><time>2022-11-16T13:44:27Z</time><name>PT7036</name></trkpt>
<trkpt lat="51.601473" lon="03.784259"><ele>0.1</ele><time>2022-11-16T13:44:28Z</time><name>PT7037</name></trkpt>
<trkpt lat="51.601473" lon="03.784245"><ele>0</ele><time>2022-11-16T13:44:29Z</time><name>PT7038</name></trkpt>
<trkpt lat="51.601474" lon="03.784232"><ele>0</ele><time>2022-11-16T13:44:30Z</time><name>PT7039</name></trkpt>
<trkpt lat="51.601473" lon="03.784219"><ele>0</ele><time>2022-11-16T13:44:31Z</time><name>PT7040</name></trkpt>
<trkpt lat="51.601472" lon="03.784205"><ele>0.2</ele><time>2022-11-16T13:44:32Z</time><name>PT7041</name></trkpt>
<trkpt lat="51.601473" lon="03.784191"><ele>0.1</ele><time>2022-11-16T13:44:33Z</time><name>PT7042</name></trkpt>
<trkpt lat="51.601473" lon="03.784171"><ele>0.1</ele><time>2022-11-16T13:44:34Z</time><name>PT7043</name></trkpt>
<trkpt lat="51.601473" lon="03.784153"><ele>0.1</ele><time>2022-11-16T13:44:35Z</time><name>PT7044</name></trkpt>
<trkpt lat="51.601473" lon="03.784137"><ele>0</ele><time>2022-11-16T13:44:36Z</time><name>PT7045</name></trkpt>
<trkpt lat="51.601473" lon="03.784119"><ele>0.1</ele><time>2022-11-16T13:44:37Z</time><name>PT7046</name></trkpt>
<trkpt lat="51.601473" lon="03.784102"><ele>0.1</ele><time>2022-11-16T13:44:38Z</time><name>PT7047</name></trkpt>
<trkpt lat="51.601473" lon="03.784087"><ele>0</ele><time>2022-11-16T13:44:39Z</time><name>PT7048</name></trkpt>
<trkpt lat="51.601474" lon="03.784071"><ele>0</ele><time>2022-11-16T13:44:40Z</time><name>PT7049</name></trkpt>
<trkpt lat="51.601474" lon="03.784053"><ele>0.2</ele><time>2022-11-16T13:44:41Z</time><name>PT7050</name></trkpt>
<trkpt lat="51.601475" lon="03.784036"><ele>0.2</ele><time>2022-11-16T13:44:42Z</time><name>PT7051</name></trkpt>
<trkpt lat="51.601476" lon="03.784020"><ele>0.3</ele><time>2022-11-16T13:44:43Z</time><name>PT7052</name></trkpt>
<trkpt lat="51.601476" lon="03.784005"><ele>0.1</ele><time>2022-11-16T13:44:44Z</time><name>PT7053</name></trkpt>
<trkpt lat="51.601476" lon="03.783986"><ele>0</ele><time>2022-11-16T13:44:45Z</time><name>PT7054</name></trkpt>
<trkpt lat="51.601475" lon="03.783967"><ele>0.1</ele><time>2022-11-16T13:44:46Z</time><name>PT7055</name></trkpt>
<trkpt lat="51.601476" lon="03.783950"><ele>0</ele><time>2022-11-16T13:44:47Z</time><name>PT7056</name></trkpt>
<trkpt lat="51.601477" lon="03.783931"><ele>0.1</ele><time>2022-11-16T13:44:48Z</time><name>PT7057</name></trkpt>
<trkpt lat="51.601478" lon="03.783912"><ele>0.2</ele><time>2022-11-16T13:44:49Z</time><name>PT7058</name></trkpt>
<trkpt lat="51.601479" lon="03.783891"><ele>0.3</ele><time>2022-11-16T13:44:50Z</time><name>PT7059</name></trkpt>
<trkpt lat="51.601479" lon="03.783875"><ele>0.4</ele><time>2022-11-16T13:44:51Z</time><name>PT7060</name></trkpt>
<trkpt lat="51.601479" lon="03.783858"><ele>0.3</ele><time>2022-11-16T13:44:52Z</time><name>PT7061</name></trkpt>
<trkpt lat="51.601478" lon="03.783841"><ele>0</ele><time>2022-11-16T13:44:53Z</time><name>PT7062</name></trkpt>
<trkpt lat="51.601478" lon="03.783828"><ele>0</ele><time>2022-11-16T13:44:54Z</time><name>PT7063</name></trkpt>
<trkpt lat="51.601479" lon="03.783813"><ele>0</ele><time>2022-11-16T13:44:55Z</time><name>PT7064</name></trkpt>
<trkpt lat="51.601480" lon="03.783798"><ele>0</ele><time>2022-11-16T13:44:56Z</time><name>PT7065</name></trkpt>
<trkpt lat="51.601482" lon="03.783782"><ele>0</ele><time>2022-11-16T13:44:57Z</time><name>PT7066</name></trkpt>
<trkpt lat="51.601484" lon="03.783766"><ele>0</ele><time>2022-11-16T13:44:58Z</time><name>PT7067</name></trkpt>
<trkpt lat="51.601484" lon="03.783749"><ele>0.1</ele><time>2022-11-16T13:44:59Z</time><name>PT7068</name></trkpt>
<trkpt lat="51.601484" lon="03.783731"><ele>0.1</ele><time>2022-11-16T13:45:00Z</time><name>PT7069</name></trkpt>
<trkpt lat="51.601482" lon="03.783712"><ele>0.1</ele><time>2022-11-16T13:45:01Z</time><name>PT7070</name></trkpt>
<trkpt lat="51.601482" lon="03.783694"><ele>0.2</ele><time>2022-11-16T13:45:02Z</time><name>PT7071</name></trkpt>
<trkpt lat="51.601481" lon="03.783676"><ele>0.1</ele><time>2022-11-16T13:45:03Z</time><name>PT7072</name></trkpt>
<trkpt lat="51.601481" lon="03.783661"><ele>0.4</ele><time>2022-11-16T13:45:04Z</time><name>PT7073</name></trkpt>
<trkpt lat="51.601482" lon="03.783645"><ele>0.6</ele><time>2022-11-16T13:45:05Z</time><name>PT7074</name></trkpt>
<trkpt lat="51.601482" lon="03.783627"><ele>0.5</ele><time>2022-11-16T13:45:06Z</time><name>PT7075</name></trkpt>
<trkpt lat="51.601482" lon="03.783612"><ele>0.5</ele><time>2022-11-16T13:45:07Z</time><name>PT7076</name></trkpt>
<trkpt lat="51.601482" lon="03.783597"><ele>0.3</ele><time>2022-11-16T13:45:08Z</time><name>PT7077</name></trkpt>
<trkpt lat="51.601483" lon="03.783581"><ele>0</ele><time>2022-11-16T13:45:09Z</time><name>PT7078</name></trkpt>
<trkpt lat="51.601483" lon="03.783564"><ele>0.1</ele><time>2022-11-16T13:45:10Z</time><name>PT7079</name></trkpt>
<trkpt lat="51.601482" lon="03.783549"><ele>0</ele><time>2022-11-16T13:45:11Z</time><name>PT7080</name></trkpt>
<trkpt lat="51.601484" lon="03.783536"><ele>0.2</ele><time>2022-11-16T13:45:12Z</time><name>PT7081</name></trkpt>
<trkpt lat="51.601486" lon="03.783515"><ele>0</ele><time>2022-11-16T13:45:13Z</time><name>PT7082</name></trkpt>
<trkpt lat="51.601488" lon="03.783499"><ele>0.1</ele><time>2022-11-16T13:45:14Z</time><name>PT7083</name></trkpt>
<trkpt lat="51.601488" lon="03.783486"><ele>0.2</ele><time>2022-11-16T13:45:15Z</time><name>PT7084</name></trkpt>
<trkpt lat="51.601487" lon="03.783480"><ele>0</ele><time>2022-11-16T13:45:16Z</time><name>PT7085</name></trkpt>
<trkpt lat="51.601485" lon="03.783472"><ele>0</ele><time>2022-11-16T13:45:17Z</time><name>PT7086</name></trkpt>
<trkpt lat="51.601483" lon="03.783464"><ele>0</ele><time>2022-11-16T13:45:18Z</time><name>PT7087</name></trkpt>
<trkpt lat="51.601481" lon="03.783457"><ele>0.1</ele><time>2022-11-16T13:45:24Z</time><name>PT7088</name></trkpt>
<trkpt lat="51.601481" lon="03.783441"><ele>0.3</ele><time>2022-11-16T13:45:25Z</time><name>PT7089</name></trkpt>
<trkpt lat="51.601481" lon="03.783425"><ele>0.5</ele><time>2022-11-16T13:45:26Z</time><name>PT7090</name></trkpt>
<trkpt lat="51.601481" lon="03.783409"><ele>0.5</ele><time>2022-11-16T13:45:27Z</time><name>PT7091</name></trkpt>
<trkpt lat="51.601481" lon="03.783394"><ele>0.5</ele><time>2022-11-16T13:45:28Z</time><name>PT7092</name></trkpt>
<trkpt lat="51.601482" lon="03.783378"><ele>0.4</ele><time>2022-11-16T13:45:29Z</time><name>PT7093</name></trkpt>
<trkpt lat="51.601484" lon="03.783363"><ele>0.2</ele><time>2022-11-16T13:45:30Z</time><name>PT7094</name></trkpt>
<trkpt lat="51.601483" lon="03.783348"><ele>0</ele><time>2022-11-16T13:45:31Z</time><name>PT7095</name></trkpt>
<trkpt lat="51.601482" lon="03.783333"><ele>0</ele><time>2022-11-16T13:45:32Z</time><name>PT7096</name></trkpt>
<trkpt lat="51.601481" lon="03.783318"><ele>0.2</ele><time>2022-11-16T13:45:33Z</time><name>PT7097</name></trkpt>
<trkpt lat="51.601481" lon="03.783303"><ele>0.2</ele><time>2022-11-16T13:45:34Z</time><name>PT7098</name></trkpt>
<trkpt lat="51.601481" lon="03.783287"><ele>0.2</ele><time>2022-11-16T13:45:35Z</time><name>PT7099</name></trkpt>
<trkpt lat="51.601481" lon="03.783269"><ele>0.1</ele><time>2022-11-16T13:45:36Z</time><name>PT7100</name></trkpt>
<trkpt lat="51.601481" lon="03.783251"><ele>0.1</ele><time>2022-11-16T13:45:37Z</time><name>PT7101</name></trkpt>
<trkpt lat="51.601482" lon="03.783233"><ele>0</ele><time>2022-11-16T13:45:38Z</time><name>PT7102</name></trkpt>
<trkpt lat="51.601482" lon="03.783216"><ele>0</ele><time>2022-11-16T13:45:39Z</time><name>PT7103</name></trkpt>
<trkpt lat="51.601483" lon="03.783199"><ele>0</ele><time>2022-11-16T13:45:40Z</time><name>PT7104</name></trkpt>
<trkpt lat="51.601483" lon="03.783182"><ele>0</ele><time>2022-11-16T13:45:41Z</time><name>PT7105</name></trkpt>
<trkpt lat="51.601482" lon="03.783166"><ele>0</ele><time>2022-11-16T13:45:42Z</time><name>PT7106</name></trkpt>
<trkpt lat="51.601482" lon="03.783150"><ele>0.1</ele><time>2022-11-16T13:45:43Z</time><name>PT7107</name></trkpt>
<trkpt lat="51.601482" lon="03.783135"><ele>0.1</ele><time>2022-11-16T13:45:44Z</time><name>PT7108</name></trkpt>
<trkpt lat="51.601483" lon="03.783120"><ele>0.2</ele><time>2022-11-16T13:45:45Z</time><name>PT7109</name></trkpt>
<trkpt lat="51.601484" lon="03.783104"><ele>0.2</ele><time>2022-11-16T13:45:46Z</time><name>PT7110</name></trkpt>
<trkpt lat="51.601485" lon="03.783088"><ele>0</ele><time>2022-11-16T13:45:47Z</time><name>PT7111</name></trkpt>
<trkpt lat="51.601485" lon="03.783072"><ele>0</ele><time>2022-11-16T13:45:48Z</time><name>PT7112</name></trkpt>
<trkpt lat="51.601485" lon="03.783057"><ele>0</ele><time>2022-11-16T13:45:49Z</time><name>PT7113</name></trkpt>
<trkpt lat="51.601484" lon="03.783039"><ele>0</ele><time>2022-11-16T13:45:50Z</time><name>PT7114</name></trkpt>
<trkpt lat="51.601483" lon="03.783026"><ele>0</ele><time>2022-11-16T13:45:51Z</time><name>PT7115</name></trkpt>
<trkpt lat="51.601482" lon="03.783009"><ele>0</ele><time>2022-11-16T13:45:52Z</time><name>PT7116</name></trkpt>
<trkpt lat="51.601483" lon="03.782994"><ele>0</ele><time>2022-11-16T13:45:53Z</time><name>PT7117</name></trkpt>
<trkpt lat="51.601484" lon="03.782979"><ele>0</ele><time>2022-11-16T13:45:54Z</time><name>PT7118</name></trkpt>
<trkpt lat="51.601485" lon="03.782963"><ele>0.1</ele><time>2022-11-16T13:45:55Z</time><name>PT7119</name></trkpt>
<trkpt lat="51.601486" lon="03.782946"><ele>0.1</ele><time>2022-11-16T13:45:56Z</time><name>PT7120</name></trkpt>
<trkpt lat="51.601488" lon="03.782929"><ele>0</ele><time>2022-11-16T13:45:57Z</time><name>PT7121</name></trkpt>
<trkpt lat="51.601489" lon="03.782910"><ele>0.2</ele><time>2022-11-16T13:45:58Z</time><name>PT7122</name></trkpt>
<trkpt lat="51.601490" lon="03.782893"><ele>0.1</ele><time>2022-11-16T13:45:59Z</time><name>PT7123</name></trkpt>
<trkpt lat="51.601489" lon="03.782878"><ele>0.1</ele><time>2022-11-16T13:46:00Z</time><name>PT7124</name></trkpt>
<trkpt lat="51.601489" lon="03.782862"><ele>0.1</ele><time>2022-11-16T13:46:01Z</time><name>PT7125</name></trkpt>
<trkpt lat="51.601488" lon="03.782845"><ele>0.2</ele><time>2022-11-16T13:46:02Z</time><name>PT7126</name></trkpt>
<trkpt lat="51.601488" lon="03.782830"><ele>0.2</ele><time>2022-11-16T13:46:03Z</time><name>PT7127</name></trkpt>
<trkpt lat="51.601489" lon="03.782814"><ele>0.2</ele><time>2022-11-16T13:46:04Z</time><name>PT7128</name></trkpt>
<trkpt lat="51.601492" lon="03.782799"><ele>0.3</ele><time>2022-11-16T13:46:05Z</time><name>PT7129</name></trkpt>
<trkpt lat="51.601493" lon="03.782782"><ele>0.3</ele><time>2022-11-16T13:46:06Z</time><name>PT7130</name></trkpt>
<trkpt lat="51.601494" lon="03.782765"><ele>0.4</ele><time>2022-11-16T13:46:07Z</time><name>PT7131</name></trkpt>
<trkpt lat="51.601493" lon="03.782747"><ele>0.5</ele><time>2022-11-16T13:46:08Z</time><name>PT7132</name></trkpt>
<trkpt lat="51.601494" lon="03.782732"><ele>0.7</ele><time>2022-11-16T13:46:09Z</time><name>PT7133</name></trkpt>
<trkpt lat="51.601494" lon="03.782715"><ele>0.6</ele><time>2022-11-16T13:46:10Z</time><name>PT7134</name></trkpt>
<trkpt lat="51.601494" lon="03.782705"><ele>0.5</ele><time>2022-11-16T13:46:11Z</time><name>PT7135</name></trkpt>
<trkpt lat="51.601494" lon="03.782703"><ele>0.5</ele><time>2022-11-16T13:46:12Z</time><name>PT7136</name></trkpt>
<trkpt lat="51.601495" lon="03.782702"><ele>0.6</ele><time>2022-11-16T13:46:13Z</time><name>PT7137</name></trkpt>
<trkpt lat="51.601493" lon="03.782691"><ele>0.5</ele><time>2022-11-16T13:46:14Z</time><name>PT7138</name></trkpt>
<trkpt lat="51.601493" lon="03.782676"><ele>0.5</ele><time>2022-11-16T13:46:15Z</time><name>PT7139</name></trkpt>
<trkpt lat="51.601492" lon="03.782661"><ele>0.5</ele><time>2022-11-16T13:46:16Z</time><name>PT7140</name></trkpt>
<trkpt lat="51.601492" lon="03.782649"><ele>0.2</ele><time>2022-11-16T13:46:17Z</time><name>PT7141</name></trkpt>
<trkpt lat="51.601493" lon="03.782635"><ele>0.4</ele><time>2022-11-16T13:46:18Z</time><name>PT7142</name></trkpt>
<trkpt lat="51.601490" lon="03.782617"><ele>0.4</ele><time>2022-11-16T13:46:19Z</time><name>PT7143</name></trkpt>
<trkpt lat="51.601489" lon="03.782603"><ele>0.5</ele><time>2022-11-16T13:46:20Z</time><name>PT7144</name></trkpt>
<trkpt lat="51.601488" lon="03.782587"><ele>0.6</ele><time>2022-11-16T13:46:21Z</time><name>PT7145</name></trkpt>
<trkpt lat="51.601487" lon="03.782571"><ele>0.6</ele><time>2022-11-16T13:46:22Z</time><name>PT7146</name></trkpt>
<trkpt lat="51.601487" lon="03.782555"><ele>0.6</ele><time>2022-11-16T13:46:23Z</time><name>PT7147</name></trkpt>
<trkpt lat="51.601487" lon="03.782539"><ele>0.6</ele><time>2022-11-16T13:46:24Z</time><name>PT7148</name></trkpt>
<trkpt lat="51.601487" lon="03.782522"><ele>0.7</ele><time>2022-11-16T13:46:25Z</time><name>PT7149</name></trkpt>
<trkpt lat="51.601487" lon="03.782508"><ele>0.6</ele><time>2022-11-16T13:46:26Z</time><name>PT7150</name></trkpt>
<trkpt lat="51.601487" lon="03.782492"><ele>0.5</ele><time>2022-11-16T13:46:27Z</time><name>PT7151</name></trkpt>
<trkpt lat="51.601485" lon="03.782473"><ele>0.4</ele><time>2022-11-16T13:46:28Z</time><name>PT7152</name></trkpt>
<trkpt lat="51.601484" lon="03.782457"><ele>0.2</ele><time>2022-11-16T13:46:29Z</time><name>PT7153</name></trkpt>
<trkpt lat="51.601484" lon="03.782442"><ele>0.2</ele><time>2022-11-16T13:46:30Z</time><name>PT7154</name></trkpt>
<trkpt lat="51.601485" lon="03.782426"><ele>0.1</ele><time>2022-11-16T13:46:31Z</time><name>PT7155</name></trkpt>
<trkpt lat="51.601488" lon="03.782410"><ele>0.2</ele><time>2022-11-16T13:46:32Z</time><name>PT7156</name></trkpt>
<trkpt lat="51.601489" lon="03.782393"><ele>0.1</ele><time>2022-11-16T13:46:33Z</time><name>PT7157</name></trkpt>
<trkpt lat="51.601490" lon="03.782377"><ele>0.2</ele><time>2022-11-16T13:46:34Z</time><name>PT7158</name></trkpt>
<trkpt lat="51.601489" lon="03.782359"><ele>0.2</ele><time>2022-11-16T13:46:35Z</time><name>PT7159</name></trkpt>
<trkpt lat="51.601488" lon="03.782339"><ele>0.2</ele><time>2022-11-16T13:46:36Z</time><name>PT7160</name></trkpt>
<trkpt lat="51.601487" lon="03.782320"><ele>0.3</ele><time>2022-11-16T13:46:37Z</time><name>PT7161</name></trkpt>
<trkpt lat="51.601487" lon="03.782304"><ele>0.3</ele><time>2022-11-16T13:46:38Z</time><name>PT7162</name></trkpt>
<trkpt lat="51.601487" lon="03.782287"><ele>0.3</ele><time>2022-11-16T13:46:39Z</time><name>PT7163</name></trkpt>
<trkpt lat="51.601488" lon="03.782267"><ele>0.2</ele><time>2022-11-16T13:46:40Z</time><name>PT7164</name></trkpt>
<trkpt lat="51.601489" lon="03.782250"><ele>0.1</ele><time>2022-11-16T13:46:41Z</time><name>PT7165</name></trkpt>
<trkpt lat="51.601489" lon="03.782231"><ele>0.2</ele><time>2022-11-16T13:46:42Z</time><name>PT7166</name></trkpt>
<trkpt lat="51.601489" lon="03.782215"><ele>0.3</ele><time>2022-11-16T13:46:43Z</time><name>PT7167</name></trkpt>
<trkpt lat="51.601490" lon="03.782200"><ele>0.3</ele><time>2022-11-16T13:46:44Z</time><name>PT7168</name></trkpt>
<trkpt lat="51.601490" lon="03.782182"><ele>0.3</ele><time>2022-11-16T13:46:45Z</time><name>PT7169</name></trkpt>
<trkpt lat="51.601490" lon="03.782163"><ele>0.4</ele><time>2022-11-16T13:46:46Z</time><name>PT7170</name></trkpt>
<trkpt lat="51.601490" lon="03.782147"><ele>0.4</ele><time>2022-11-16T13:46:47Z</time><name>PT7171</name></trkpt>
<trkpt lat="51.601491" lon="03.782131"><ele>0.5</ele><time>2022-11-16T13:46:48Z</time><name>PT7172</name></trkpt>
<trkpt lat="51.601492" lon="03.782114"><ele>0.6</ele><time>2022-11-16T13:46:49Z</time><name>PT7173</name></trkpt>
<trkpt lat="51.601492" lon="03.782095"><ele>0.5</ele><time>2022-11-16T13:46:50Z</time><name>PT7174</name></trkpt>
<trkpt lat="51.601492" lon="03.782077"><ele>0.5</ele><time>2022-11-16T13:46:51Z</time><name>PT7175</name></trkpt>
<trkpt lat="51.601493" lon="03.782062"><ele>0.5</ele><time>2022-11-16T13:46:52Z</time><name>PT7176</name></trkpt>
<trkpt lat="51.601492" lon="03.782045"><ele>0.3</ele><time>2022-11-16T13:46:53Z</time><name>PT7177</name></trkpt>
<trkpt lat="51.601492" lon="03.782026"><ele>0.1</ele><time>2022-11-16T13:46:54Z</time><name>PT7178</name></trkpt>
<trkpt lat="51.601491" lon="03.782009"><ele>0.2</ele><time>2022-11-16T13:46:55Z</time><name>PT7179</name></trkpt>
<trkpt lat="51.601492" lon="03.781994"><ele>0.4</ele><time>2022-11-16T13:46:56Z</time><name>PT7180</name></trkpt>
<trkpt lat="51.601493" lon="03.781978"><ele>0.4</ele><time>2022-11-16T13:46:57Z</time><name>PT7181</name></trkpt>
<trkpt lat="51.601495" lon="03.781963"><ele>0.5</ele><time>2022-11-16T13:46:58Z</time><name>PT7182</name></trkpt>
<trkpt lat="51.601495" lon="03.781948"><ele>0.3</ele><time>2022-11-16T13:46:59Z</time><name>PT7183</name></trkpt>
<trkpt lat="51.601495" lon="03.781934"><ele>0.4</ele><time>2022-11-16T13:47:00Z</time><name>PT7184</name></trkpt>
<trkpt lat="51.601495" lon="03.781918"><ele>0.4</ele><time>2022-11-16T13:47:01Z</time><name>PT7185</name></trkpt>
<trkpt lat="51.601494" lon="03.781906"><ele>0.4</ele><time>2022-11-16T13:47:02Z</time><name>PT7186</name></trkpt>
<trkpt lat="51.601494" lon="03.781892"><ele>0.5</ele><time>2022-11-16T13:47:03Z</time><name>PT7187</name></trkpt>
<trkpt lat="51.601494" lon="03.781878"><ele>0.5</ele><time>2022-11-16T13:47:04Z</time><name>PT7188</name></trkpt>
<trkpt lat="51.601495" lon="03.781861"><ele>0.4</ele><time>2022-11-16T13:47:05Z</time><name>PT7189</name></trkpt>
<trkpt lat="51.601495" lon="03.781847"><ele>0.5</ele><time>2022-11-16T13:47:06Z</time><name>PT7190</name></trkpt>
<trkpt lat="51.601496" lon="03.781832"><ele>0.5</ele><time>2022-11-16T13:47:07Z</time><name>PT7191</name></trkpt>
<trkpt lat="51.601496" lon="03.781817"><ele>0.5</ele><time>2022-11-16T13:47:08Z</time><name>PT7192</name></trkpt>
<trkpt lat="51.601495" lon="03.781802"><ele>0.4</ele><time>2022-11-16T13:47:09Z</time><name>PT7193</name></trkpt>
<trkpt lat="51.601496" lon="03.781786"><ele>0.5</ele><time>2022-11-16T13:47:10Z</time><name>PT7194</name></trkpt>
<trkpt lat="51.601497" lon="03.781770"><ele>0.4</ele><time>2022-11-16T13:47:11Z</time><name>PT7195</name></trkpt>
<trkpt lat="51.601497" lon="03.781752"><ele>0.1</ele><time>2022-11-16T13:47:12Z</time><name>PT7196</name></trkpt>
<trkpt lat="51.601497" lon="03.781735"><ele>0</ele><time>2022-11-16T13:47:13Z</time><name>PT7197</name></trkpt>
<trkpt lat="51.601496" lon="03.781717"><ele>0</ele><time>2022-11-16T13:47:14Z</time><name>PT7198</name></trkpt>
<trkpt lat="51.601497" lon="03.781700"><ele>0.1</ele><time>2022-11-16T13:47:15Z</time><name>PT7199</name></trkpt>
<trkpt lat="51.601495" lon="03.781685"><ele>0.2</ele><time>2022-11-16T13:47:16Z</time><name>PT7200</name></trkpt>
<trkpt lat="51.601494" lon="03.781669"><ele>0.5</ele><time>2022-11-16T13:47:17Z</time><name>PT7201</name></trkpt>
<trkpt lat="51.601495" lon="03.781655"><ele>0.5</ele><time>2022-11-16T13:47:18Z</time><name>PT7202</name></trkpt>
<trkpt lat="51.601496" lon="03.781641"><ele>0.4</ele><time>2022-11-16T13:47:19Z</time><name>PT7203</name></trkpt>
<trkpt lat="51.601493" lon="03.781625"><ele>0.4</ele><time>2022-11-16T13:47:20Z</time><name>PT7204</name></trkpt>
<trkpt lat="51.601491" lon="03.781613"><ele>0.4</ele><time>2022-11-16T13:47:21Z</time><name>PT7205</name></trkpt>
<trkpt lat="51.601491" lon="03.781598"><ele>0.4</ele><time>2022-11-16T13:47:22Z</time><name>PT7206</name></trkpt>
<trkpt lat="51.601492" lon="03.781582"><ele>0.4</ele><time>2022-11-16T13:47:23Z</time><name>PT7207</name></trkpt>
<trkpt lat="51.601492" lon="03.781566"><ele>0.3</ele><time>2022-11-16T13:47:24Z</time><name>PT7208</name></trkpt>
<trkpt lat="51.601492" lon="03.781551"><ele>0.3</ele><time>2022-11-16T13:47:25Z</time><name>PT7209</name></trkpt>
<trkpt lat="51.601491" lon="03.781537"><ele>0.2</ele><time>2022-11-16T13:47:26Z</time><name>PT7210</name></trkpt>
<trkpt lat="51.601492" lon="03.781525"><ele>0.2</ele><time>2022-11-16T13:47:27Z</time><name>PT7211</name></trkpt>
<trkpt lat="51.601495" lon="03.781512"><ele>0.4</ele><time>2022-11-16T13:47:28Z</time><name>PT7212</name></trkpt>
<trkpt lat="51.601497" lon="03.781499"><ele>0.5</ele><time>2022-11-16T13:47:29Z</time><name>PT7213</name></trkpt>
<trkpt lat="51.601498" lon="03.781496"><ele>0.6</ele><time>2022-11-16T13:47:30Z</time><name>PT7214</name></trkpt>
<trkpt lat="51.601498" lon="03.781492"><ele>0.8</ele><time>2022-11-16T13:47:31Z</time><name>PT7215</name></trkpt>
<trkpt lat="51.601504" lon="03.781490"><ele>0.7</ele><time>2022-11-16T13:47:32Z</time><name>PT7216</name></trkpt>
<trkpt lat="51.601503" lon="03.781485"><ele>0.9</ele><time>2022-11-16T13:47:33Z</time><name>PT7217</name></trkpt>
<trkpt lat="51.601494" lon="03.781486"><ele>1</ele><time>2022-11-16T13:47:34Z</time><name>PT7218</name></trkpt>
<trkpt lat="51.601492" lon="03.781489"><ele>0.9</ele><time>2022-11-16T13:47:35Z</time><name>PT7219</name></trkpt>
<trkpt lat="51.601494" lon="03.781489"><ele>1</ele><time>2022-11-16T13:47:36Z</time><name>PT7220</name></trkpt>
<trkpt lat="51.601496" lon="03.781473"><ele>0.7</ele><time>2022-11-16T13:47:47Z</time><name>PT7221</name></trkpt>
<trkpt lat="51.601496" lon="03.781449"><ele>0.5</ele><time>2022-11-16T13:47:48Z</time><name>PT7222</name></trkpt>
<trkpt lat="51.601495" lon="03.781424"><ele>0.5</ele><time>2022-11-16T13:47:49Z</time><name>PT7223</name></trkpt>
<trkpt lat="51.601496" lon="03.781399"><ele>0.5</ele><time>2022-11-16T13:47:50Z</time><name>PT7224</name></trkpt>
<trkpt lat="51.601496" lon="03.781380"><ele>0.5</ele><time>2022-11-16T13:47:51Z</time><name>PT7225</name></trkpt>
<trkpt lat="51.601496" lon="03.781363"><ele>0.6</ele><time>2022-11-16T13:47:52Z</time><name>PT7226</name></trkpt>
<trkpt lat="51.601497" lon="03.781342"><ele>0.7</ele><time>2022-11-16T13:47:53Z</time><name>PT7227</name></trkpt>
<trkpt lat="51.601500" lon="03.781324"><ele>0.8</ele><time>2022-11-16T13:47:54Z</time><name>PT7228</name></trkpt>
<trkpt lat="51.601497" lon="03.781302"><ele>0.8</ele><time>2022-11-16T13:47:55Z</time><name>PT7229</name></trkpt>
<trkpt lat="51.601494" lon="03.781279"><ele>0.7</ele><time>2022-11-16T13:47:56Z</time><name>PT7230</name></trkpt>
<trkpt lat="51.601493" lon="03.781262"><ele>0.5</ele><time>2022-11-16T13:47:57Z</time><name>PT7231</name></trkpt>
<trkpt lat="51.601493" lon="03.781244"><ele>0.5</ele><time>2022-11-16T13:47:58Z</time><name>PT7232</name></trkpt>
<trkpt lat="51.601494" lon="03.781224"><ele>0.5</ele><time>2022-11-16T13:47:59Z</time><name>PT7233</name></trkpt>
<trkpt lat="51.601493" lon="03.781210"><ele>0.5</ele><time>2022-11-16T13:48:00Z</time><name>PT7234</name></trkpt>
<trkpt lat="51.601492" lon="03.781198"><ele>0.5</ele><time>2022-11-16T13:48:01Z</time><name>PT7235</name></trkpt>
<trkpt lat="51.601491" lon="03.781182"><ele>0.5</ele><time>2022-11-16T13:48:02Z</time><name>PT7236</name></trkpt>
<trkpt lat="51.601490" lon="03.781166"><ele>0.4</ele><time>2022-11-16T13:48:03Z</time><name>PT7237</name></trkpt>
<trkpt lat="51.601489" lon="03.781150"><ele>0.3</ele><time>2022-11-16T13:48:04Z</time><name>PT7238</name></trkpt>
<trkpt lat="51.601490" lon="03.781132"><ele>0</ele><time>2022-11-16T13:48:05Z</time><name>PT7239</name></trkpt>
<trkpt lat="51.601491" lon="03.781114"><ele>0</ele><time>2022-11-16T13:48:06Z</time><name>PT7240</name></trkpt>
<trkpt lat="51.601492" lon="03.781096"><ele>0</ele><time>2022-11-16T13:48:07Z</time><name>PT7241</name></trkpt>
<trkpt lat="51.601493" lon="03.781079"><ele>0.4</ele><time>2022-11-16T13:48:08Z</time><name>PT7242</name></trkpt>
<trkpt lat="51.601491" lon="03.781061"><ele>0.5</ele><time>2022-11-16T13:48:09Z</time><name>PT7243</name></trkpt>
<trkpt lat="51.601492" lon="03.781046"><ele>0.5</ele><time>2022-11-16T13:48:10Z</time><name>PT7244</name></trkpt>
<trkpt lat="51.601490" lon="03.781027"><ele>0.4</ele><time>2022-11-16T13:48:11Z</time><name>PT7245</name></trkpt>
<trkpt lat="51.601487" lon="03.781010"><ele>0.3</ele><time>2022-11-16T13:48:12Z</time><name>PT7246</name></trkpt>
<trkpt lat="51.601482" lon="03.780993"><ele>0.1</ele><time>2022-11-16T13:48:13Z</time><name>PT7247</name></trkpt>
<trkpt lat="51.601479" lon="03.780980"><ele>0</ele><time>2022-11-16T13:48:14Z</time><name>PT7248</name></trkpt>
<trkpt lat="51.601477" lon="03.780963"><ele>0</ele><time>2022-11-16T13:48:15Z</time><name>PT7249</name></trkpt>
<trkpt lat="51.601475" lon="03.780947"><ele>0</ele><time>2022-11-16T13:48:16Z</time><name>PT7250</name></trkpt>
<trkpt lat="51.601472" lon="03.780929"><ele>0</ele><time>2022-11-16T13:48:17Z</time><name>PT7251</name></trkpt>
<trkpt lat="51.601471" lon="03.780915"><ele>0</ele><time>2022-11-16T13:48:18Z</time><name>PT7252</name></trkpt>
<trkpt lat="51.601469" lon="03.780900"><ele>0.1</ele><time>2022-11-16T13:48:19Z</time><name>PT7253</name></trkpt>
<trkpt lat="51.601465" lon="03.780888"><ele>0.1</ele><time>2022-11-16T13:48:20Z</time><name>PT7254</name></trkpt>
<trkpt lat="51.601460" lon="03.780874"><ele>0</ele><time>2022-11-16T13:48:21Z</time><name>PT7255</name></trkpt>
<trkpt lat="51.601455" lon="03.780859"><ele>0</ele><time>2022-11-16T13:48:22Z</time><name>PT7256</name></trkpt>
<trkpt lat="51.601450" lon="03.780844"><ele>0.3</ele><time>2022-11-16T13:48:23Z</time><name>PT7257</name></trkpt>
<trkpt lat="51.601441" lon="03.780829"><ele>0.2</ele><time>2022-11-16T13:48:24Z</time><name>PT7258</name></trkpt>
<trkpt lat="51.601434" lon="03.780815"><ele>0.3</ele><time>2022-11-16T13:48:25Z</time><name>PT7259</name></trkpt>
<trkpt lat="51.601430" lon="03.780801"><ele>0.1</ele><time>2022-11-16T13:48:26Z</time><name>PT7260</name></trkpt>
<trkpt lat="51.601425" lon="03.780784"><ele>0</ele><time>2022-11-16T13:48:27Z</time><name>PT7261</name></trkpt>
<trkpt lat="51.601421" lon="03.780765"><ele>0</ele><time>2022-11-16T13:48:28Z</time><name>PT7262</name></trkpt>
<trkpt lat="51.601415" lon="03.780748"><ele>0</ele><time>2022-11-16T13:48:29Z</time><name>PT7263</name></trkpt>
<trkpt lat="51.601411" lon="03.780735"><ele>0</ele><time>2022-11-16T13:48:30Z</time><name>PT7264</name></trkpt>
<trkpt lat="51.601405" lon="03.780721"><ele>0.2</ele><time>2022-11-16T13:48:31Z</time><name>PT7265</name></trkpt>
<trkpt lat="51.601398" lon="03.780706"><ele>0.2</ele><time>2022-11-16T13:48:32Z</time><name>PT7266</name></trkpt>
<trkpt lat="51.601391" lon="03.780691"><ele>0</ele><time>2022-11-16T13:48:33Z</time><name>PT7267</name></trkpt>
<trkpt lat="51.601384" lon="03.780677"><ele>0</ele><time>2022-11-16T13:48:34Z</time><name>PT7268</name></trkpt>
<trkpt lat="51.601377" lon="03.780664"><ele>0</ele><time>2022-11-16T13:48:35Z</time><name>PT7269</name></trkpt>
<trkpt lat="51.601372" lon="03.780651"><ele>0</ele><time>2022-11-16T13:48:36Z</time><name>PT7270</name></trkpt>
<trkpt lat="51.601366" lon="03.780635"><ele>0.3</ele><time>2022-11-16T13:48:37Z</time><name>PT7271</name></trkpt>
<trkpt lat="51.601361" lon="03.780620"><ele>0.1</ele><time>2022-11-16T13:48:38Z</time><name>PT7272</name></trkpt>
<trkpt lat="51.601354" lon="03.780602"><ele>0.1</ele><time>2022-11-16T13:48:39Z</time><name>PT7273</name></trkpt>
<trkpt lat="51.601350" lon="03.780588"><ele>0.1</ele><time>2022-11-16T13:48:40Z</time><name>PT7274</name></trkpt>
<trkpt lat="51.601344" lon="03.780573"><ele>0.1</ele><time>2022-11-16T13:48:41Z</time><name>PT7275</name></trkpt>
<trkpt lat="51.601338" lon="03.780558"><ele>0.1</ele><time>2022-11-16T13:48:42Z</time><name>PT7276</name></trkpt>
<trkpt lat="51.601331" lon="03.780542"><ele>0.1</ele><time>2022-11-16T13:48:43Z</time><name>PT7277</name></trkpt>
<trkpt lat="51.601323" lon="03.780527"><ele>0.1</ele><time>2022-11-16T13:48:44Z</time><name>PT7278</name></trkpt>
<trkpt lat="51.601316" lon="03.780515"><ele>0</ele><time>2022-11-16T13:48:45Z</time><name>PT7279</name></trkpt>
<trkpt lat="51.601309" lon="03.780502"><ele>0</ele><time>2022-11-16T13:48:46Z</time><name>PT7280</name></trkpt>
<trkpt lat="51.601304" lon="03.780487"><ele>0</ele><time>2022-11-16T13:48:47Z</time><name>PT7281</name></trkpt>
<trkpt lat="51.601298" lon="03.780472"><ele>0</ele><time>2022-11-16T13:48:48Z</time><name>PT7282</name></trkpt>
<trkpt lat="51.601293" lon="03.780456"><ele>0.1</ele><time>2022-11-16T13:48:49Z</time><name>PT7283</name></trkpt>
<trkpt lat="51.601288" lon="03.780443"><ele>0.2</ele><time>2022-11-16T13:48:50Z</time><name>PT7284</name></trkpt>
<trkpt lat="51.601281" lon="03.780431"><ele>0.5</ele><time>2022-11-16T13:48:51Z</time><name>PT7285</name></trkpt>
<trkpt lat="51.601274" lon="03.780416"><ele>0.3</ele><time>2022-11-16T13:48:52Z</time><name>PT7286</name></trkpt>
<trkpt lat="51.601266" lon="03.780405"><ele>0.4</ele><time>2022-11-16T13:48:53Z</time><name>PT7287</name></trkpt>
<trkpt lat="51.601259" lon="03.780390"><ele>0.4</ele><time>2022-11-16T13:48:54Z</time><name>PT7288</name></trkpt>
<trkpt lat="51.601254" lon="03.780376"><ele>0.4</ele><time>2022-11-16T13:48:55Z</time><name>PT7289</name></trkpt>
<trkpt lat="51.601249" lon="03.780359"><ele>0.3</ele><time>2022-11-16T13:48:56Z</time><name>PT7290</name></trkpt>
<trkpt lat="51.601244" lon="03.780347"><ele>0.4</ele><time>2022-11-16T13:48:57Z</time><name>PT7291</name></trkpt>
<trkpt lat="51.601238" lon="03.780328"><ele>0.4</ele><time>2022-11-16T13:48:58Z</time><name>PT7292</name></trkpt>
<trkpt lat="51.601234" lon="03.780317"><ele>0.3</ele><time>2022-11-16T13:48:59Z</time><name>PT7293</name></trkpt>
<trkpt lat="51.601229" lon="03.780304"><ele>0.3</ele><time>2022-11-16T13:49:00Z</time><name>PT7294</name></trkpt>
<trkpt lat="51.601223" lon="03.780292"><ele>0.4</ele><time>2022-11-16T13:49:01Z</time><name>PT7295</name></trkpt>
<trkpt lat="51.601217" lon="03.780278"><ele>0.5</ele><time>2022-11-16T13:49:02Z</time><name>PT7296</name></trkpt>
<trkpt lat="51.601210" lon="03.780265"><ele>0.6</ele><time>2022-11-16T13:49:03Z</time><name>PT7297</name></trkpt>
<trkpt lat="51.601203" lon="03.780251"><ele>0.6</ele><time>2022-11-16T13:49:04Z</time><name>PT7298</name></trkpt>
<trkpt lat="51.601197" lon="03.780238"><ele>0.5</ele><time>2022-11-16T13:49:05Z</time><name>PT7299</name></trkpt>
<trkpt lat="51.601193" lon="03.780224"><ele>0.5</ele><time>2022-11-16T13:49:06Z</time><name>PT7300</name></trkpt>
<trkpt lat="51.601187" lon="03.780209"><ele>0.4</ele><time>2022-11-16T13:49:07Z</time><name>PT7301</name></trkpt>
<trkpt lat="51.601183" lon="03.780196"><ele>0.2</ele><time>2022-11-16T13:49:08Z</time><name>PT7302</name></trkpt>
<trkpt lat="51.601177" lon="03.780184"><ele>0.2</ele><time>2022-11-16T13:49:09Z</time><name>PT7303</name></trkpt>
<trkpt lat="51.601171" lon="03.780170"><ele>0.2</ele><time>2022-11-16T13:49:10Z</time><name>PT7304</name></trkpt>
<trkpt lat="51.601165" lon="03.780156"><ele>0.2</ele><time>2022-11-16T13:49:11Z</time><name>PT7305</name></trkpt>
<trkpt lat="51.601158" lon="03.780142"><ele>0.2</ele><time>2022-11-16T13:49:12Z</time><name>PT7306</name></trkpt>
<trkpt lat="51.601150" lon="03.780127"><ele>0.3</ele><time>2022-11-16T13:49:13Z</time><name>PT7307</name></trkpt>
<trkpt lat="51.601143" lon="03.780113"><ele>0.3</ele><time>2022-11-16T13:49:14Z</time><name>PT7308</name></trkpt>
<trkpt lat="51.601137" lon="03.780099"><ele>0.4</ele><time>2022-11-16T13:49:15Z</time><name>PT7309</name></trkpt>
<trkpt lat="51.601133" lon="03.780082"><ele>0.4</ele><time>2022-11-16T13:49:16Z</time><name>PT7310</name></trkpt>
<trkpt lat="51.601128" lon="03.780066"><ele>0.2</ele><time>2022-11-16T13:49:17Z</time><name>PT7311</name></trkpt>
<trkpt lat="51.601123" lon="03.780052"><ele>0.1</ele><time>2022-11-16T13:49:18Z</time><name>PT7312</name></trkpt>
<trkpt lat="51.601117" lon="03.780039"><ele>0</ele><time>2022-11-16T13:49:19Z</time><name>PT7313</name></trkpt>
<trkpt lat="51.601112" lon="03.780026"><ele>0</ele><time>2022-11-16T13:49:20Z</time><name>PT7314</name></trkpt>
<trkpt lat="51.601105" lon="03.780013"><ele>0</ele><time>2022-11-16T13:49:21Z</time><name>PT7315</name></trkpt>
<trkpt lat="51.601097" lon="03.779998"><ele>0.1</ele><time>2022-11-16T13:49:22Z</time><name>PT7316</name></trkpt>
<trkpt lat="51.601091" lon="03.779988"><ele>0.1</ele><time>2022-11-16T13:49:23Z</time><name>PT7317</name></trkpt>
<trkpt lat="51.601085" lon="03.779973"><ele>0.4</ele><time>2022-11-16T13:49:24Z</time><name>PT7318</name></trkpt>
<trkpt lat="51.601080" lon="03.779959"><ele>0.3</ele><time>2022-11-16T13:49:25Z</time><name>PT7319</name></trkpt>
<trkpt lat="51.601074" lon="03.779943"><ele>0.3</ele><time>2022-11-16T13:49:26Z</time><name>PT7320</name></trkpt>
<trkpt lat="51.601068" lon="03.779928"><ele>0</ele><time>2022-11-16T13:49:27Z</time><name>PT7321</name></trkpt>
<trkpt lat="51.601062" lon="03.779913"><ele>0</ele><time>2022-11-16T13:49:28Z</time><name>PT7322</name></trkpt>
<trkpt lat="51.601055" lon="03.779903"><ele>0</ele><time>2022-11-16T13:49:29Z</time><name>PT7323</name></trkpt>
<trkpt lat="51.601049" lon="03.779889"><ele>0</ele><time>2022-11-16T13:49:30Z</time><name>PT7324</name></trkpt>
<trkpt lat="51.601042" lon="03.779877"><ele>0</ele><time>2022-11-16T13:49:31Z</time><name>PT7325</name></trkpt>
<trkpt lat="51.601034" lon="03.779863"><ele>0.1</ele><time>2022-11-16T13:49:32Z</time><name>PT7326</name></trkpt>
<trkpt lat="51.601026" lon="03.779850"><ele>0.2</ele><time>2022-11-16T13:49:33Z</time><name>PT7327</name></trkpt>
<trkpt lat="51.601019" lon="03.779837"><ele>0.2</ele><time>2022-11-16T13:49:34Z</time><name>PT7328</name></trkpt>
<trkpt lat="51.601013" lon="03.779824"><ele>0.2</ele><time>2022-11-16T13:49:35Z</time><name>PT7329</name></trkpt>
<trkpt lat="51.601007" lon="03.779807"><ele>0.1</ele><time>2022-11-16T13:49:36Z</time><name>PT7330</name></trkpt>
<trkpt lat="51.601000" lon="03.779793"><ele>0</ele><time>2022-11-16T13:49:37Z</time><name>PT7331</name></trkpt>
<trkpt lat="51.600993" lon="03.779779"><ele>0</ele><time>2022-11-16T13:49:38Z</time><name>PT7332</name></trkpt>
<trkpt lat="51.600985" lon="03.779767"><ele>0</ele><time>2022-11-16T13:49:39Z</time><name>PT7333</name></trkpt>
<trkpt lat="51.600977" lon="03.779756"><ele>0</ele><time>2022-11-16T13:49:40Z</time><name>PT7334</name></trkpt>
<trkpt lat="51.600970" lon="03.779745"><ele>0</ele><time>2022-11-16T13:49:41Z</time><name>PT7335</name></trkpt>
<trkpt lat="51.600960" lon="03.779730"><ele>0.1</ele><time>2022-11-16T13:49:42Z</time><name>PT7336</name></trkpt>
<trkpt lat="51.600952" lon="03.779721"><ele>0.1</ele><time>2022-11-16T13:49:43Z</time><name>PT7337</name></trkpt>
<trkpt lat="51.600944" lon="03.779710"><ele>0.3</ele><time>2022-11-16T13:49:44Z</time><name>PT7338</name></trkpt>
<trkpt lat="51.600938" lon="03.779699"><ele>0.3</ele><time>2022-11-16T13:49:45Z</time><name>PT7339</name></trkpt>
<trkpt lat="51.600931" lon="03.779685"><ele>0.4</ele><time>2022-11-16T13:49:46Z</time><name>PT7340</name></trkpt>
<trkpt lat="51.600922" lon="03.779674"><ele>0.5</ele><time>2022-11-16T13:49:47Z</time><name>PT7341</name></trkpt>
<trkpt lat="51.600914" lon="03.779665"><ele>0.5</ele><time>2022-11-16T13:49:48Z</time><name>PT7342</name></trkpt>
<trkpt lat="51.600905" lon="03.779656"><ele>0.5</ele><time>2022-11-16T13:49:49Z</time><name>PT7343</name></trkpt>
<trkpt lat="51.600894" lon="03.779645"><ele>0.4</ele><time>2022-11-16T13:49:50Z</time><name>PT7344</name></trkpt>
<trkpt lat="51.600885" lon="03.779638"><ele>0.5</ele><time>2022-11-16T13:49:51Z</time><name>PT7345</name></trkpt>
<trkpt lat="51.600875" lon="03.779630"><ele>0.4</ele><time>2022-11-16T13:49:52Z</time><name>PT7346</name></trkpt>
<trkpt lat="51.600868" lon="03.779624"><ele>0.3</ele><time>2022-11-16T13:49:53Z</time><name>PT7347</name></trkpt>
<trkpt lat="51.600859" lon="03.779614"><ele>0.3</ele><time>2022-11-16T13:49:54Z</time><name>PT7348</name></trkpt>
<trkpt lat="51.600850" lon="03.779603"><ele>0.3</ele><time>2022-11-16T13:49:55Z</time><name>PT7349</name></trkpt>
<trkpt lat="51.600840" lon="03.779595"><ele>0.2</ele><time>2022-11-16T13:49:56Z</time><name>PT7350</name></trkpt>
<trkpt lat="51.600831" lon="03.779589"><ele>0.1</ele><time>2022-11-16T13:49:57Z</time><name>PT7351</name></trkpt>
<trkpt lat="51.600822" lon="03.779582"><ele>0.1</ele><time>2022-11-16T13:49:58Z</time><name>PT7352</name></trkpt>
<trkpt lat="51.600811" lon="03.779577"><ele>0.1</ele><time>2022-11-16T13:49:59Z</time><name>PT7353</name></trkpt>
<trkpt lat="51.600800" lon="03.779571"><ele>0.1</ele><time>2022-11-16T13:50:00Z</time><name>PT7354</name></trkpt>
<trkpt lat="51.600791" lon="03.779566"><ele>0.3</ele><time>2022-11-16T13:50:01Z</time><name>PT7355</name></trkpt>
<trkpt lat="51.600783" lon="03.779558"><ele>0.5</ele><time>2022-11-16T13:50:02Z</time><name>PT7356</name></trkpt>
<trkpt lat="51.600775" lon="03.779548"><ele>0.1</ele><time>2022-11-16T13:50:03Z</time><name>PT7357</name></trkpt>
<trkpt lat="51.600767" lon="03.779540"><ele>0</ele><time>2022-11-16T13:50:04Z</time><name>PT7358</name></trkpt>
<trkpt lat="51.600758" lon="03.779532"><ele>0</ele><time>2022-11-16T13:50:05Z</time><name>PT7359</name></trkpt>
<trkpt lat="51.600749" lon="03.779525"><ele>0.3</ele><time>2022-11-16T13:50:06Z</time><name>PT7360</name></trkpt>
<trkpt lat="51.600740" lon="03.779517"><ele>0.4</ele><time>2022-11-16T13:50:07Z</time><name>PT7361</name></trkpt>
<trkpt lat="51.600730" lon="03.779511"><ele>0.3</ele><time>2022-11-16T13:50:08Z</time><name>PT7362</name></trkpt>
<trkpt lat="51.600719" lon="03.779499"><ele>0.2</ele><time>2022-11-16T13:50:09Z</time><name>PT7363</name></trkpt>
<trkpt lat="51.600709" lon="03.779494"><ele>0</ele><time>2022-11-16T13:50:10Z</time><name>PT7364</name></trkpt>
<trkpt lat="51.600700" lon="03.779490"><ele>0</ele><time>2022-11-16T13:50:11Z</time><name>PT7365</name></trkpt>
<trkpt lat="51.600691" lon="03.779485"><ele>0.1</ele><time>2022-11-16T13:50:12Z</time><name>PT7366</name></trkpt>
<trkpt lat="51.600683" lon="03.779478"><ele>0.1</ele><time>2022-11-16T13:50:13Z</time><name>PT7367</name></trkpt>
<trkpt lat="51.600675" lon="03.779471"><ele>0.1</ele><time>2022-11-16T13:50:14Z</time><name>PT7368</name></trkpt>
<trkpt lat="51.600666" lon="03.779463"><ele>0</ele><time>2022-11-16T13:50:15Z</time><name>PT7369</name></trkpt>
<trkpt lat="51.600656" lon="03.779456"><ele>0</ele><time>2022-11-16T13:50:16Z</time><name>PT7370</name></trkpt>
<trkpt lat="51.600647" lon="03.779449"><ele>0.1</ele><time>2022-11-16T13:50:17Z</time><name>PT7371</name></trkpt>
<trkpt lat="51.600637" lon="03.779443"><ele>0.3</ele><time>2022-11-16T13:50:18Z</time><name>PT7372</name></trkpt>
<trkpt lat="51.600627" lon="03.779437"><ele>0.3</ele><time>2022-11-16T13:50:19Z</time><name>PT7373</name></trkpt>
<trkpt lat="51.600617" lon="03.779430"><ele>0.1</ele><time>2022-11-16T13:50:20Z</time><name>PT7374</name></trkpt>
<trkpt lat="51.600607" lon="03.779423"><ele>0.2</ele><time>2022-11-16T13:50:21Z</time><name>PT7375</name></trkpt>
<trkpt lat="51.600598" lon="03.779416"><ele>0.2</ele><time>2022-11-16T13:50:22Z</time><name>PT7376</name></trkpt>
<trkpt lat="51.600588" lon="03.779407"><ele>0.1</ele><time>2022-11-16T13:50:23Z</time><name>PT7377</name></trkpt>
<trkpt lat="51.600578" lon="03.779400"><ele>0</ele><time>2022-11-16T13:50:24Z</time><name>PT7378</name></trkpt>
<trkpt lat="51.600568" lon="03.779391"><ele>0</ele><time>2022-11-16T13:50:25Z</time><name>PT7379</name></trkpt>
<trkpt lat="51.600560" lon="03.779382"><ele>0</ele><time>2022-11-16T13:50:26Z</time><name>PT7380</name></trkpt>
<trkpt lat="51.600551" lon="03.779373"><ele>0</ele><time>2022-11-16T13:50:27Z</time><name>PT7381</name></trkpt>
<trkpt lat="51.600542" lon="03.779367"><ele>0</ele><time>2022-11-16T13:50:28Z</time><name>PT7382</name></trkpt>
<trkpt lat="51.600533" lon="03.779361"><ele>0</ele><time>2022-11-16T13:50:29Z</time><name>PT7383</name></trkpt>
<trkpt lat="51.600522" lon="03.779355"><ele>0.1</ele><time>2022-11-16T13:50:30Z</time><name>PT7384</name></trkpt>
<trkpt lat="51.600513" lon="03.779348"><ele>0</ele><time>2022-11-16T13:50:31Z</time><name>PT7385</name></trkpt>
<trkpt lat="51.600503" lon="03.779342"><ele>0</ele><time>2022-11-16T13:50:32Z</time><name>PT7386</name></trkpt>
<trkpt lat="51.600495" lon="03.779336"><ele>0.2</ele><time>2022-11-16T13:50:33Z</time><name>PT7387</name></trkpt>
<trkpt lat="51.600486" lon="03.779329"><ele>0</ele><time>2022-11-16T13:50:34Z</time><name>PT7388</name></trkpt>
<trkpt lat="51.600476" lon="03.779324"><ele>0</ele><time>2022-11-16T13:50:35Z</time><name>PT7389</name></trkpt>
<trkpt lat="51.600466" lon="03.779316"><ele>0</ele><time>2022-11-16T13:50:36Z</time><name>PT7390</name></trkpt>
<trkpt lat="51.600456" lon="03.779312"><ele>0</ele><time>2022-11-16T13:50:37Z</time><name>PT7391</name></trkpt>
<trkpt lat="51.600446" lon="03.779306"><ele>0.1</ele><time>2022-11-16T13:50:38Z</time><name>PT7392</name></trkpt>
<trkpt lat="51.600437" lon="03.779300"><ele>0.1</ele><time>2022-11-16T13:50:39Z</time><name>PT7393</name></trkpt>
<trkpt lat="51.600427" lon="03.779295"><ele>0.2</ele><time>2022-11-16T13:50:40Z</time><name>PT7394</name></trkpt>
<trkpt lat="51.600417" lon="03.779288"><ele>0.3</ele><time>2022-11-16T13:50:41Z</time><name>PT7395</name></trkpt>
<trkpt lat="51.600408" lon="03.779283"><ele>0.1</ele><time>2022-11-16T13:50:42Z</time><name>PT7396</name></trkpt>
<trkpt lat="51.600400" lon="03.779276"><ele>0</ele><time>2022-11-16T13:50:43Z</time><name>PT7397</name></trkpt>
<trkpt lat="51.600391" lon="03.779268"><ele>0</ele><time>2022-11-16T13:50:44Z</time><name>PT7398</name></trkpt>
<trkpt lat="51.600381" lon="03.779260"><ele>0.3</ele><time>2022-11-16T13:50:45Z</time><name>PT7399</name></trkpt>
<trkpt lat="51.600371" lon="03.779254"><ele>0.4</ele><time>2022-11-16T13:50:46Z</time><name>PT7400</name></trkpt>
<trkpt lat="51.600362" lon="03.779249"><ele>0.5</ele><time>2022-11-16T13:50:47Z</time><name>PT7401</name></trkpt>
<trkpt lat="51.600352" lon="03.779243"><ele>0.5</ele><time>2022-11-16T13:50:48Z</time><name>PT7402</name></trkpt>
<trkpt lat="51.600343" lon="03.779235"><ele>0.4</ele><time>2022-11-16T13:50:49Z</time><name>PT7403</name></trkpt>
<trkpt lat="51.600333" lon="03.779229"><ele>0.1</ele><time>2022-11-16T13:50:50Z</time><name>PT7404</name></trkpt>
<trkpt lat="51.600324" lon="03.779223"><ele>0.3</ele><time>2022-11-16T13:50:51Z</time><name>PT7405</name></trkpt>
<trkpt lat="51.600315" lon="03.779215"><ele>0.2</ele><time>2022-11-16T13:50:52Z</time><name>PT7406</name></trkpt>
<trkpt lat="51.600305" lon="03.779206"><ele>0.2</ele><time>2022-11-16T13:50:53Z</time><name>PT7407</name></trkpt>
<trkpt lat="51.600294" lon="03.779197"><ele>0</ele><time>2022-11-16T13:50:54Z</time><name>PT7408</name></trkpt>
<trkpt lat="51.600285" lon="03.779187"><ele>0</ele><time>2022-11-16T13:50:55Z</time><name>PT7409</name></trkpt>
<trkpt lat="51.600275" lon="03.779181"><ele>0</ele><time>2022-11-16T13:50:56Z</time><name>PT7410</name></trkpt>
<trkpt lat="51.600266" lon="03.779175"><ele>0</ele><time>2022-11-16T13:50:57Z</time><name>PT7411</name></trkpt>
<trkpt lat="51.600256" lon="03.779169"><ele>0</ele><time>2022-11-16T13:50:58Z</time><name>PT7412</name></trkpt>
<trkpt lat="51.600246" lon="03.779160"><ele>0</ele><time>2022-11-16T13:50:59Z</time><name>PT7413</name></trkpt>
<trkpt lat="51.600237" lon="03.779153"><ele>0.1</ele><time>2022-11-16T13:51:00Z</time><name>PT7414</name></trkpt>
<trkpt lat="51.600229" lon="03.779145"><ele>0.1</ele><time>2022-11-16T13:51:01Z</time><name>PT7415</name></trkpt>
<trkpt lat="51.600219" lon="03.779138"><ele>0</ele><time>2022-11-16T13:51:02Z</time><name>PT7416</name></trkpt>
<trkpt lat="51.600209" lon="03.779133"><ele>0</ele><time>2022-11-16T13:51:03Z</time><name>PT7417</name></trkpt>
<trkpt lat="51.600201" lon="03.779129"><ele>0</ele><time>2022-11-16T13:51:04Z</time><name>PT7418</name></trkpt>
<trkpt lat="51.600191" lon="03.779121"><ele>0</ele><time>2022-11-16T13:51:05Z</time><name>PT7419</name></trkpt>
<trkpt lat="51.600181" lon="03.779114"><ele>0</ele><time>2022-11-16T13:51:06Z</time><name>PT7420</name></trkpt>
<trkpt lat="51.600171" lon="03.779106"><ele>0.1</ele><time>2022-11-16T13:51:07Z</time><name>PT7421</name></trkpt>
<trkpt lat="51.600162" lon="03.779100"><ele>0.2</ele><time>2022-11-16T13:51:08Z</time><name>PT7422</name></trkpt>
<trkpt lat="51.600154" lon="03.779092"><ele>0.1</ele><time>2022-11-16T13:51:09Z</time><name>PT7423</name></trkpt>
<trkpt lat="51.600145" lon="03.779085"><ele>0.2</ele><time>2022-11-16T13:51:10Z</time><name>PT7424</name></trkpt>
<trkpt lat="51.600135" lon="03.779074"><ele>0.5</ele><time>2022-11-16T13:51:11Z</time><name>PT7425</name></trkpt>
<trkpt lat="51.600126" lon="03.779065"><ele>0.3</ele><time>2022-11-16T13:51:12Z</time><name>PT7426</name></trkpt>
<trkpt lat="51.600117" lon="03.779058"><ele>0.2</ele><time>2022-11-16T13:51:13Z</time><name>PT7427</name></trkpt>
<trkpt lat="51.600108" lon="03.779052"><ele>0.1</ele><time>2022-11-16T13:51:14Z</time><name>PT7428</name></trkpt>
<trkpt lat="51.600097" lon="03.779045"><ele>0.2</ele><time>2022-11-16T13:51:15Z</time><name>PT7429</name></trkpt>
<trkpt lat="51.600086" lon="03.779038"><ele>0.2</ele><time>2022-11-16T13:51:16Z</time><name>PT7430</name></trkpt>
<trkpt lat="51.600076" lon="03.779032"><ele>0.2</ele><time>2022-11-16T13:51:17Z</time><name>PT7431</name></trkpt>
<trkpt lat="51.600067" lon="03.779025"><ele>0.2</ele><time>2022-11-16T13:51:18Z</time><name>PT7432</name></trkpt>
<trkpt lat="51.600058" lon="03.779017"><ele>0.1</ele><time>2022-11-16T13:51:19Z</time><name>PT7433</name></trkpt>
<trkpt lat="51.600049" lon="03.779009"><ele>0</ele><time>2022-11-16T13:51:20Z</time><name>PT7434</name></trkpt>
<trkpt lat="51.600040" lon="03.779000"><ele>0</ele><time>2022-11-16T13:51:21Z</time><name>PT7435</name></trkpt>
<trkpt lat="51.600032" lon="03.778994"><ele>0</ele><time>2022-11-16T13:51:22Z</time><name>PT7436</name></trkpt>
<trkpt lat="51.600022" lon="03.778989"><ele>0.2</ele><time>2022-11-16T13:51:23Z</time><name>PT7437</name></trkpt>
<trkpt lat="51.600011" lon="03.778983"><ele>0</ele><time>2022-11-16T13:51:24Z</time><name>PT7438</name></trkpt>
<trkpt lat="51.600002" lon="03.778976"><ele>0</ele><time>2022-11-16T13:51:25Z</time><name>PT7439</name></trkpt>
<trkpt lat="51.599993" lon="03.778968"><ele>0</ele><time>2022-11-16T13:51:26Z</time><name>PT7440</name></trkpt>
<trkpt lat="51.599984" lon="03.778959"><ele>0.1</ele><time>2022-11-16T13:51:27Z</time><name>PT7441</name></trkpt>
<trkpt lat="51.599974" lon="03.778950"><ele>0.2</ele><time>2022-11-16T13:51:28Z</time><name>PT7442</name></trkpt>
<trkpt lat="51.599965" lon="03.778943"><ele>0.2</ele><time>2022-11-16T13:51:29Z</time><name>PT7443</name></trkpt>
<trkpt lat="51.599955" lon="03.778935"><ele>0.4</ele><time>2022-11-16T13:51:30Z</time><name>PT7444</name></trkpt>
<trkpt lat="51.599945" lon="03.778928"><ele>0.5</ele><time>2022-11-16T13:51:31Z</time><name>PT7445</name></trkpt>
<trkpt lat="51.599934" lon="03.778922"><ele>0.5</ele><time>2022-11-16T13:51:32Z</time><name>PT7446</name></trkpt>
<trkpt lat="51.599923" lon="03.778916"><ele>0.5</ele><time>2022-11-16T13:51:33Z</time><name>PT7447</name></trkpt>
<trkpt lat="51.599913" lon="03.778913"><ele>0.5</ele><time>2022-11-16T13:51:34Z</time><name>PT7448</name></trkpt>
<trkpt lat="51.599904" lon="03.778908"><ele>0.5</ele><time>2022-11-16T13:51:35Z</time><name>PT7449</name></trkpt>
<trkpt lat="51.599895" lon="03.778902"><ele>0.4</ele><time>2022-11-16T13:51:36Z</time><name>PT7450</name></trkpt>
<trkpt lat="51.599887" lon="03.778894"><ele>0.5</ele><time>2022-11-16T13:51:37Z</time><name>PT7451</name></trkpt>
<trkpt lat="51.599878" lon="03.778884"><ele>0.4</ele><time>2022-11-16T13:51:38Z</time><name>PT7452</name></trkpt>
<trkpt lat="51.599868" lon="03.778874"><ele>0.5</ele><time>2022-11-16T13:51:39Z</time><name>PT7453</name></trkpt>
<trkpt lat="51.599858" lon="03.778866"><ele>0.5</ele><time>2022-11-16T13:51:40Z</time><name>PT7454</name></trkpt>
<trkpt lat="51.599849" lon="03.778858"><ele>0.6</ele><time>2022-11-16T13:51:41Z</time><name>PT7455</name></trkpt>
<trkpt lat="51.599838" lon="03.778853"><ele>0.6</ele><time>2022-11-16T13:51:42Z</time><name>PT7456</name></trkpt>
<trkpt lat="51.599827" lon="03.778847"><ele>0.7</ele><time>2022-11-16T13:51:43Z</time><name>PT7457</name></trkpt>
<trkpt lat="51.599815" lon="03.778839"><ele>0.6</ele><time>2022-11-16T13:51:44Z</time><name>PT7458</name></trkpt>
<trkpt lat="51.599804" lon="03.778831"><ele>0.6</ele><time>2022-11-16T13:51:45Z</time><name>PT7459</name></trkpt>
<trkpt lat="51.599794" lon="03.778825"><ele>0.7</ele><time>2022-11-16T13:51:46Z</time><name>PT7460</name></trkpt>
<trkpt lat="51.599786" lon="03.778818"><ele>0.6</ele><time>2022-11-16T13:51:47Z</time><name>PT7461</name></trkpt>
<trkpt lat="51.599778" lon="03.778810"><ele>0.5</ele><time>2022-11-16T13:51:48Z</time><name>PT7462</name></trkpt>
<trkpt lat="51.599775" lon="03.778808"><ele>0.4</ele><time>2022-11-16T13:51:49Z</time><name>PT7463</name></trkpt>
<trkpt lat="51.599773" lon="03.778806"><ele>0.2</ele><time>2022-11-16T13:51:50Z</time><name>PT7464</name></trkpt>
<trkpt lat="51.599768" lon="03.778803"><ele>0.3</ele><time>2022-11-16T13:51:51Z</time><name>PT7465</name></trkpt>
<trkpt lat="51.599765" lon="03.778794"><ele>0.5</ele><time>2022-11-16T13:51:52Z</time><name>PT7466</name></trkpt>
<trkpt lat="51.599758" lon="03.778785"><ele>0.6</ele><time>2022-11-16T13:51:53Z</time><name>PT7467</name></trkpt>
<trkpt lat="51.599751" lon="03.778778"><ele>1</ele><time>2022-11-16T13:51:54Z</time><name>PT7468</name></trkpt>
<trkpt lat="51.599741" lon="03.778768"><ele>1.2</ele><time>2022-11-16T13:51:55Z</time><name>PT7469</name></trkpt>
<trkpt lat="51.599727" lon="03.778765"><ele>1</ele><time>2022-11-16T13:51:56Z</time><name>PT7470</name></trkpt>
<trkpt lat="51.599716" lon="03.778763"><ele>0.9</ele><time>2022-11-16T13:51:57Z</time><name>PT7471</name></trkpt>
<trkpt lat="51.599710" lon="03.778759"><ele>0.8</ele><time>2022-11-16T13:51:58Z</time><name>PT7472</name></trkpt>
<trkpt lat="51.599699" lon="03.778743"><ele>1</ele><time>2022-11-16T13:51:59Z</time><name>PT7473</name></trkpt>
<trkpt lat="51.599695" lon="03.778738"><ele>0.9</ele><time>2022-11-16T13:52:00Z</time><name>PT7474</name></trkpt>
<trkpt lat="51.599690" lon="03.778733"><ele>0.9</ele><time>2022-11-16T13:52:01Z</time><name>PT7475</name></trkpt>
<trkpt lat="51.599689" lon="03.778732"><ele>1</ele><time>2022-11-16T13:52:02Z</time><name>PT7476</name></trkpt>
<trkpt lat="51.599689" lon="03.778731"><ele>1</ele><time>2022-11-16T13:52:03Z</time><name>PT7477</name></trkpt>
<trkpt lat="51.599689" lon="03.778730"><ele>1</ele><time>2022-11-16T13:52:04Z</time><name>PT7478</name></trkpt>
<trkpt lat="51.599684" lon="03.778722"><ele>0.8</ele><time>2022-11-16T13:52:06Z</time><name>PT7479</name></trkpt>
<trkpt lat="51.599675" lon="03.778713"><ele>0.6</ele><time>2022-11-16T13:52:07Z</time><name>PT7480</name></trkpt>
<trkpt lat="51.599667" lon="03.778706"><ele>0.6</ele><time>2022-11-16T13:52:08Z</time><name>PT7481</name></trkpt>
<trkpt lat="51.599658" lon="03.778697"><ele>0.5</ele><time>2022-11-16T13:52:09Z</time><name>PT7482</name></trkpt>
<trkpt lat="51.599650" lon="03.778691"><ele>0.5</ele><time>2022-11-16T13:52:10Z</time><name>PT7483</name></trkpt>
<trkpt lat="51.599640" lon="03.778687"><ele>0.7</ele><time>2022-11-16T13:52:11Z</time><name>PT7484</name></trkpt>
<trkpt lat="51.599631" lon="03.778685"><ele>0.8</ele><time>2022-11-16T13:52:12Z</time><name>PT7485</name></trkpt>
<trkpt lat="51.599622" lon="03.778679"><ele>0.9</ele><time>2022-11-16T13:52:13Z</time><name>PT7486</name></trkpt>
<trkpt lat="51.599613" lon="03.778669"><ele>1</ele><time>2022-11-16T13:52:14Z</time><name>PT7487</name></trkpt>
<trkpt lat="51.599606" lon="03.778663"><ele>1.1</ele><time>2022-11-16T13:52:15Z</time><name>PT7488</name></trkpt>
<trkpt lat="51.599597" lon="03.778658"><ele>1.1</ele><time>2022-11-16T13:52:16Z</time><name>PT7489</name></trkpt>
<trkpt lat="51.599588" lon="03.778650"><ele>1.2</ele><time>2022-11-16T13:52:17Z</time><name>PT7490</name></trkpt>
<trkpt lat="51.599577" lon="03.778643"><ele>1.1</ele><time>2022-11-16T13:52:18Z</time><name>PT7491</name></trkpt>
<trkpt lat="51.599568" lon="03.778640"><ele>1</ele><time>2022-11-16T13:52:19Z</time><name>PT7492</name></trkpt>
<trkpt lat="51.599559" lon="03.778638"><ele>0.7</ele><time>2022-11-16T13:52:20Z</time><name>PT7493</name></trkpt>
<trkpt lat="51.599551" lon="03.778633"><ele>0.8</ele><time>2022-11-16T13:52:21Z</time><name>PT7494</name></trkpt>
<trkpt lat="51.599543" lon="03.778628"><ele>0.7</ele><time>2022-11-16T13:52:22Z</time><name>PT7495</name></trkpt>
<trkpt lat="51.599535" lon="03.778620"><ele>0.9</ele><time>2022-11-16T13:52:23Z</time><name>PT7496</name></trkpt>
<trkpt lat="51.599529" lon="03.778608"><ele>1</ele><time>2022-11-16T13:52:24Z</time><name>PT7497</name></trkpt>
<trkpt lat="51.599522" lon="03.778602"><ele>0.9</ele><time>2022-11-16T13:52:25Z</time><name>PT7498</name></trkpt>
<trkpt lat="51.599513" lon="03.778598"><ele>0.7</ele><time>2022-11-16T13:52:26Z</time><name>PT7499</name></trkpt>
<trkpt lat="51.599504" lon="03.778594"><ele>0.7</ele><time>2022-11-16T13:52:27Z</time><name>PT7500</name></trkpt>
<trkpt lat="51.599494" lon="03.778591"><ele>0.6</ele><time>2022-11-16T13:52:28Z</time><name>PT7501</name></trkpt>
<trkpt lat="51.599485" lon="03.778586"><ele>0.7</ele><time>2022-11-16T13:52:29Z</time><name>PT7502</name></trkpt>
<trkpt lat="51.599476" lon="03.778579"><ele>0.9</ele><time>2022-11-16T13:52:30Z</time><name>PT7503</name></trkpt>
<trkpt lat="51.599467" lon="03.778572"><ele>0.9</ele><time>2022-11-16T13:52:31Z</time><name>PT7504</name></trkpt>
<trkpt lat="51.599459" lon="03.778566"><ele>0.8</ele><time>2022-11-16T13:52:32Z</time><name>PT7505</name></trkpt>
<trkpt lat="51.599451" lon="03.778559"><ele>1</ele><time>2022-11-16T13:52:33Z</time><name>PT7506</name></trkpt>
<trkpt lat="51.599442" lon="03.778554"><ele>1</ele><time>2022-11-16T13:52:34Z</time><name>PT7507</name></trkpt>
<trkpt lat="51.599435" lon="03.778550"><ele>1.3</ele><time>2022-11-16T13:52:35Z</time><name>PT7508</name></trkpt>
<trkpt lat="51.599428" lon="03.778542"><ele>1.2</ele><time>2022-11-16T13:52:36Z</time><name>PT7509</name></trkpt>
<trkpt lat="51.599421" lon="03.778535"><ele>1</ele><time>2022-11-16T13:52:37Z</time><name>PT7510</name></trkpt>
<trkpt lat="51.599413" lon="03.778530"><ele>0.9</ele><time>2022-11-16T13:52:38Z</time><name>PT7511</name></trkpt>
<trkpt lat="51.599403" lon="03.778526"><ele>0.5</ele><time>2022-11-16T13:52:39Z</time><name>PT7512</name></trkpt>
<trkpt lat="51.599397" lon="03.778525"><ele>0.5</ele><time>2022-11-16T13:52:40Z</time><name>PT7513</name></trkpt>
<trkpt lat="51.599393" lon="03.778522"><ele>0.6</ele><time>2022-11-16T13:52:41Z</time><name>PT7514</name></trkpt>
<trkpt lat="51.599389" lon="03.778520"><ele>0.7</ele><time>2022-11-16T13:52:42Z</time><name>PT7515</name></trkpt>
<trkpt lat="51.599381" lon="03.778515"><ele>0.7</ele><time>2022-11-16T13:52:43Z</time><name>PT7516</name></trkpt>
<trkpt lat="51.599375" lon="03.778509"><ele>1</ele><time>2022-11-16T13:52:44Z</time><name>PT7517</name></trkpt>
<trkpt lat="51.599375" lon="03.778509"><ele>1</ele><time>2022-11-16T13:52:45Z</time><name>PT7518</name></trkpt>
<trkpt lat="51.599375" lon="03.778509"><ele>1</ele><time>2022-11-16T13:52:46Z</time><name>PT7519</name></trkpt>
<trkpt lat="51.599370" lon="03.778504"><ele>0.9</ele><time>2022-11-16T13:52:48Z</time><name>PT7520</name></trkpt>
<trkpt lat="51.599359" lon="03.778492"><ele>0.8</ele><time>2022-11-16T13:52:49Z</time><name>PT7521</name></trkpt>
<trkpt lat="51.599352" lon="03.778488"><ele>1</ele><time>2022-11-16T13:52:50Z</time><name>PT7522</name></trkpt>
<trkpt lat="51.599343" lon="03.778486"><ele>1</ele><time>2022-11-16T13:52:51Z</time><name>PT7523</name></trkpt>
<trkpt lat="51.599335" lon="03.778480"><ele>1</ele><time>2022-11-16T13:52:52Z</time><name>PT7524</name></trkpt>
<trkpt lat="51.599326" lon="03.778472"><ele>1</ele><time>2022-11-16T13:52:53Z</time><name>PT7525</name></trkpt>
<trkpt lat="51.599317" lon="03.778463"><ele>1.2</ele><time>2022-11-16T13:52:54Z</time><name>PT7526</name></trkpt>
<trkpt lat="51.599308" lon="03.778456"><ele>1.2</ele><time>2022-11-16T13:52:55Z</time><name>PT7527</name></trkpt>
<trkpt lat="51.599299" lon="03.778449"><ele>1.2</ele><time>2022-11-16T13:52:56Z</time><name>PT7528</name></trkpt>
<trkpt lat="51.599289" lon="03.778442"><ele>1</ele><time>2022-11-16T13:52:57Z</time><name>PT7529</name></trkpt>
<trkpt lat="51.599280" lon="03.778436"><ele>1</ele><time>2022-11-16T13:52:58Z</time><name>PT7530</name></trkpt>
<trkpt lat="51.599271" lon="03.778429"><ele>0.9</ele><time>2022-11-16T13:52:59Z</time><name>PT7531</name></trkpt>
<trkpt lat="51.599263" lon="03.778424"><ele>0.6</ele><time>2022-11-16T13:53:00Z</time><name>PT7532</name></trkpt>
<trkpt lat="51.599256" lon="03.778416"><ele>0.5</ele><time>2022-11-16T13:53:01Z</time><name>PT7533</name></trkpt>
<trkpt lat="51.599248" lon="03.778408"><ele>0.4</ele><time>2022-11-16T13:53:02Z</time><name>PT7534</name></trkpt>
<trkpt lat="51.599241" lon="03.778398"><ele>0.3</ele><time>2022-11-16T13:53:03Z</time><name>PT7535</name></trkpt>
<trkpt lat="51.599233" lon="03.778388"><ele>0.3</ele><time>2022-11-16T13:53:04Z</time><name>PT7536</name></trkpt>
<trkpt lat="51.599224" lon="03.778380"><ele>0.4</ele><time>2022-11-16T13:53:05Z</time><name>PT7537</name></trkpt>
<trkpt lat="51.599216" lon="03.778371"><ele>0.5</ele><time>2022-11-16T13:53:06Z</time><name>PT7538</name></trkpt>
<trkpt lat="51.599206" lon="03.778364"><ele>0.6</ele><time>2022-11-16T13:53:07Z</time><name>PT7539</name></trkpt>
<trkpt lat="51.599198" lon="03.778359"><ele>0.8</ele><time>2022-11-16T13:53:08Z</time><name>PT7540</name></trkpt>
<trkpt lat="51.599190" lon="03.778351"><ele>1</ele><time>2022-11-16T13:53:09Z</time><name>PT7541</name></trkpt>
<trkpt lat="51.599181" lon="03.778345"><ele>1.1</ele><time>2022-11-16T13:53:10Z</time><name>PT7542</name></trkpt>
<trkpt lat="51.599171" lon="03.778338"><ele>1.2</ele><time>2022-11-16T13:53:11Z</time><name>PT7543</name></trkpt>
<trkpt lat="51.599161" lon="03.778329"><ele>1.3</ele><time>2022-11-16T13:53:12Z</time><name>PT7544</name></trkpt>
<trkpt lat="51.599152" lon="03.778321"><ele>1.4</ele><time>2022-11-16T13:53:13Z</time><name>PT7545</name></trkpt>
<trkpt lat="51.599142" lon="03.778311"><ele>1.2</ele><time>2022-11-16T13:53:14Z</time><name>PT7546</name></trkpt>
<trkpt lat="51.599132" lon="03.778303"><ele>1.1</ele><time>2022-11-16T13:53:15Z</time><name>PT7547</name></trkpt>
<trkpt lat="51.599124" lon="03.778297"><ele>1</ele><time>2022-11-16T13:53:16Z</time><name>PT7548</name></trkpt>
<trkpt lat="51.599115" lon="03.778292"><ele>0.9</ele><time>2022-11-16T13:53:17Z</time><name>PT7549</name></trkpt>
<trkpt lat="51.599109" lon="03.778286"><ele>0.6</ele><time>2022-11-16T13:53:18Z</time><name>PT7550</name></trkpt>
<trkpt lat="51.599099" lon="03.778275"><ele>0.8</ele><time>2022-11-16T13:53:19Z</time><name>PT7551</name></trkpt>
<trkpt lat="51.599091" lon="03.778267"><ele>0.5</ele><time>2022-11-16T13:53:20Z</time><name>PT7552</name></trkpt>
<trkpt lat="51.599084" lon="03.778262"><ele>0.3</ele><time>2022-11-16T13:53:21Z</time><name>PT7553</name></trkpt>
<trkpt lat="51.599073" lon="03.778252"><ele>0.4</ele><time>2022-11-16T13:53:22Z</time><name>PT7554</name></trkpt>
<trkpt lat="51.599062" lon="03.778243"><ele>0.4</ele><time>2022-11-16T13:53:23Z</time><name>PT7555</name></trkpt>
<trkpt lat="51.599055" lon="03.778239"><ele>0.4</ele><time>2022-11-16T13:53:24Z</time><name>PT7556</name></trkpt>
<trkpt lat="51.599045" lon="03.778232"><ele>0.5</ele><time>2022-11-16T13:53:25Z</time><name>PT7557</name></trkpt>
<trkpt lat="51.599039" lon="03.778224"><ele>0.5</ele><time>2022-11-16T13:53:26Z</time><name>PT7558</name></trkpt>
<trkpt lat="51.599031" lon="03.778216"><ele>0.4</ele><time>2022-11-16T13:53:27Z</time><name>PT7559</name></trkpt>
<trkpt lat="51.599023" lon="03.778208"><ele>0.3</ele><time>2022-11-16T13:53:28Z</time><name>PT7560</name></trkpt>
<trkpt lat="51.599015" lon="03.778197"><ele>0.1</ele><time>2022-11-16T13:53:29Z</time><name>PT7561</name></trkpt>
<trkpt lat="51.599007" lon="03.778190"><ele>0</ele><time>2022-11-16T13:53:30Z</time><name>PT7562</name></trkpt>
<trkpt lat="51.598999" lon="03.778183"><ele>0</ele><time>2022-11-16T13:53:31Z</time><name>PT7563</name></trkpt>
<trkpt lat="51.598987" lon="03.778176"><ele>0.3</ele><time>2022-11-16T13:53:32Z</time><name>PT7564</name></trkpt>
<trkpt lat="51.598977" lon="03.778168"><ele>0.8</ele><time>2022-11-16T13:53:33Z</time><name>PT7565</name></trkpt>
<trkpt lat="51.598968" lon="03.778158"><ele>1</ele><time>2022-11-16T13:53:34Z</time><name>PT7566</name></trkpt>
<trkpt lat="51.598959" lon="03.778144"><ele>1.3</ele><time>2022-11-16T13:53:35Z</time><name>PT7567</name></trkpt>
<trkpt lat="51.598952" lon="03.778132"><ele>1.3</ele><time>2022-11-16T13:53:36Z</time><name>PT7568</name></trkpt>
<trkpt lat="51.598944" lon="03.778117"><ele>1.5</ele><time>2022-11-16T13:53:37Z</time><name>PT7569</name></trkpt>
<trkpt lat="51.598937" lon="03.778106"><ele>1.5</ele><time>2022-11-16T13:53:38Z</time><name>PT7570</name></trkpt>
<trkpt lat="51.598929" lon="03.778097"><ele>1.3</ele><time>2022-11-16T13:53:39Z</time><name>PT7571</name></trkpt>
<trkpt lat="51.598922" lon="03.778087"><ele>1.3</ele><time>2022-11-16T13:53:40Z</time><name>PT7572</name></trkpt>
<trkpt lat="51.598914" lon="03.778076"><ele>1.3</ele><time>2022-11-16T13:53:41Z</time><name>PT7573</name></trkpt>
<trkpt lat="51.598905" lon="03.778067"><ele>1</ele><time>2022-11-16T13:53:42Z</time><name>PT7574</name></trkpt>
<trkpt lat="51.598897" lon="03.778057"><ele>0.8</ele><time>2022-11-16T13:53:43Z</time><name>PT7575</name></trkpt>
<trkpt lat="51.598889" lon="03.778045"><ele>0.9</ele><time>2022-11-16T13:53:44Z</time><name>PT7576</name></trkpt>
<trkpt lat="51.598881" lon="03.778033"><ele>1.1</ele><time>2022-11-16T13:53:45Z</time><name>PT7577</name></trkpt>
<trkpt lat="51.598873" lon="03.778020"><ele>1.3</ele><time>2022-11-16T13:53:46Z</time><name>PT7578</name></trkpt>
<trkpt lat="51.598866" lon="03.778007"><ele>1.5</ele><time>2022-11-16T13:53:47Z</time><name>PT7579</name></trkpt>
<trkpt lat="51.598859" lon="03.777993"><ele>1.6</ele><time>2022-11-16T13:53:48Z</time><name>PT7580</name></trkpt>
<trkpt lat="51.598854" lon="03.777979"><ele>1.6</ele><time>2022-11-16T13:53:49Z</time><name>PT7581</name></trkpt>
<trkpt lat="51.598847" lon="03.777967"><ele>1.4</ele><time>2022-11-16T13:53:50Z</time><name>PT7582</name></trkpt>
<trkpt lat="51.598839" lon="03.777957"><ele>1.4</ele><time>2022-11-16T13:53:51Z</time><name>PT7583</name></trkpt>
<trkpt lat="51.598831" lon="03.777944"><ele>1.5</ele><time>2022-11-16T13:53:52Z</time><name>PT7584</name></trkpt>
<trkpt lat="51.598824" lon="03.777931"><ele>1.5</ele><time>2022-11-16T13:53:53Z</time><name>PT7585</name></trkpt>
<trkpt lat="51.598817" lon="03.777921"><ele>1.6</ele><time>2022-11-16T13:53:54Z</time><name>PT7586</name></trkpt>
<trkpt lat="51.598810" lon="03.777911"><ele>1.8</ele><time>2022-11-16T13:53:55Z</time><name>PT7587</name></trkpt>
<trkpt lat="51.598802" lon="03.777898"><ele>1.7</ele><time>2022-11-16T13:53:56Z</time><name>PT7588</name></trkpt>
<trkpt lat="51.598796" lon="03.777886"><ele>1.5</ele><time>2022-11-16T13:53:57Z</time><name>PT7589</name></trkpt>
<trkpt lat="51.598789" lon="03.777869"><ele>1.5</ele><time>2022-11-16T13:53:58Z</time><name>PT7590</name></trkpt>
<trkpt lat="51.598782" lon="03.777855"><ele>1.5</ele><time>2022-11-16T13:53:59Z</time><name>PT7591</name></trkpt>
<trkpt lat="51.598776" lon="03.777839"><ele>1.6</ele><time>2022-11-16T13:54:00Z</time><name>PT7592</name></trkpt>
<trkpt lat="51.598769" lon="03.777824"><ele>1.7</ele><time>2022-11-16T13:54:01Z</time><name>PT7593</name></trkpt>
<trkpt lat="51.598762" lon="03.777813"><ele>2.2</ele><time>2022-11-16T13:54:02Z</time><name>PT7594</name></trkpt>
<trkpt lat="51.598756" lon="03.777801"><ele>2</ele><time>2022-11-16T13:54:03Z</time><name>PT7595</name></trkpt>
<trkpt lat="51.598749" lon="03.777788"><ele>2</ele><time>2022-11-16T13:54:04Z</time><name>PT7596</name></trkpt>
<trkpt lat="51.598743" lon="03.777776"><ele>1.8</ele><time>2022-11-16T13:54:05Z</time><name>PT7597</name></trkpt>
<trkpt lat="51.598735" lon="03.777764"><ele>1.7</ele><time>2022-11-16T13:54:06Z</time><name>PT7598</name></trkpt>
<trkpt lat="51.598729" lon="03.777752"><ele>1.6</ele><time>2022-11-16T13:54:07Z</time><name>PT7599</name></trkpt>
<trkpt lat="51.598723" lon="03.777740"><ele>1.8</ele><time>2022-11-16T13:54:08Z</time><name>PT7600</name></trkpt>
<trkpt lat="51.598717" lon="03.777727"><ele>2</ele><time>2022-11-16T13:54:09Z</time><name>PT7601</name></trkpt>
<trkpt lat="51.598710" lon="03.777715"><ele>2.3</ele><time>2022-11-16T13:54:10Z</time><name>PT7602</name></trkpt>
<trkpt lat="51.598702" lon="03.777703"><ele>2.5</ele><time>2022-11-16T13:54:11Z</time><name>PT7603</name></trkpt>
<trkpt lat="51.598694" lon="03.777690"><ele>2.7</ele><time>2022-11-16T13:54:12Z</time><name>PT7604</name></trkpt>
<trkpt lat="51.598686" lon="03.777676"><ele>3.1</ele><time>2022-11-16T13:54:13Z</time><name>PT7605</name></trkpt>
<trkpt lat="51.598679" lon="03.777664"><ele>3.4</ele><time>2022-11-16T13:54:14Z</time><name>PT7606</name></trkpt>
<trkpt lat="51.598671" lon="03.777651"><ele>3.4</ele><time>2022-11-16T13:54:15Z</time><name>PT7607</name></trkpt>
<trkpt lat="51.598664" lon="03.777639"><ele>3.3</ele><time>2022-11-16T13:54:16Z</time><name>PT7608</name></trkpt>
<trkpt lat="51.598656" lon="03.777629"><ele>3.4</ele><time>2022-11-16T13:54:17Z</time><name>PT7609</name></trkpt>
<trkpt lat="51.598647" lon="03.777618"><ele>3.2</ele><time>2022-11-16T13:54:18Z</time><name>PT7610</name></trkpt>
<trkpt lat="51.598639" lon="03.777606"><ele>3.2</ele><time>2022-11-16T13:54:19Z</time><name>PT7611</name></trkpt>
<trkpt lat="51.598631" lon="03.777595"><ele>3.2</ele><time>2022-11-16T13:54:20Z</time><name>PT7612</name></trkpt>
<trkpt lat="51.598622" lon="03.777587"><ele>3.5</ele><time>2022-11-16T13:54:21Z</time><name>PT7613</name></trkpt>
<trkpt lat="51.598613" lon="03.777578"><ele>3.5</ele><time>2022-11-16T13:54:22Z</time><name>PT7614</name></trkpt>
<trkpt lat="51.598606" lon="03.777565"><ele>3.7</ele><time>2022-11-16T13:54:23Z</time><name>PT7615</name></trkpt>
<trkpt lat="51.598598" lon="03.777553"><ele>4</ele><time>2022-11-16T13:54:24Z</time><name>PT7616</name></trkpt>
<trkpt lat="51.598591" lon="03.777543"><ele>4</ele><time>2022-11-16T13:54:25Z</time><name>PT7617</name></trkpt>
<trkpt lat="51.598583" lon="03.777529"><ele>4.2</ele><time>2022-11-16T13:54:26Z</time><name>PT7618</name></trkpt>
<trkpt lat="51.598575" lon="03.777516"><ele>4.1</ele><time>2022-11-16T13:54:27Z</time><name>PT7619</name></trkpt>
<trkpt lat="51.598566" lon="03.777504"><ele>4</ele><time>2022-11-16T13:54:28Z</time><name>PT7620</name></trkpt>
<trkpt lat="51.598558" lon="03.777493"><ele>3.7</ele><time>2022-11-16T13:54:29Z</time><name>PT7621</name></trkpt>
<trkpt lat="51.598551" lon="03.777485"><ele>3.9</ele><time>2022-11-16T13:54:30Z</time><name>PT7622</name></trkpt>
<trkpt lat="51.598543" lon="03.777475"><ele>3.8</ele><time>2022-11-16T13:54:31Z</time><name>PT7623</name></trkpt>
<trkpt lat="51.598535" lon="03.777465"><ele>3.9</ele><time>2022-11-16T13:54:32Z</time><name>PT7624</name></trkpt>
<trkpt lat="51.598526" lon="03.777457"><ele>4.3</ele><time>2022-11-16T13:54:33Z</time><name>PT7625</name></trkpt>
<trkpt lat="51.598517" lon="03.777447"><ele>4.4</ele><time>2022-11-16T13:54:34Z</time><name>PT7626</name></trkpt>
<trkpt lat="51.598507" lon="03.777438"><ele>4.5</ele><time>2022-11-16T13:54:35Z</time><name>PT7627</name></trkpt>
<trkpt lat="51.598497" lon="03.777431"><ele>4.5</ele><time>2022-11-16T13:54:36Z</time><name>PT7628</name></trkpt>
<trkpt lat="51.598488" lon="03.777424"><ele>4.6</ele><time>2022-11-16T13:54:37Z</time><name>PT7629</name></trkpt>
<trkpt lat="51.598478" lon="03.777416"><ele>4.4</ele><time>2022-11-16T13:54:38Z</time><name>PT7630</name></trkpt>
<trkpt lat="51.598468" lon="03.777407"><ele>4.1</ele><time>2022-11-16T13:54:39Z</time><name>PT7631</name></trkpt>
<trkpt lat="51.598460" lon="03.777397"><ele>4.1</ele><time>2022-11-16T13:54:40Z</time><name>PT7632</name></trkpt>
<trkpt lat="51.598452" lon="03.777385"><ele>4</ele><time>2022-11-16T13:54:41Z</time><name>PT7633</name></trkpt>
<trkpt lat="51.598444" lon="03.777375"><ele>3.9</ele><time>2022-11-16T13:54:42Z</time><name>PT7634</name></trkpt>
<trkpt lat="51.598435" lon="03.777365"><ele>3.9</ele><time>2022-11-16T13:54:43Z</time><name>PT7635</name></trkpt>
<trkpt lat="51.598425" lon="03.777356"><ele>4.1</ele><time>2022-11-16T13:54:44Z</time><name>PT7636</name></trkpt>
<trkpt lat="51.598416" lon="03.777350"><ele>4.3</ele><time>2022-11-16T13:54:45Z</time><name>PT7637</name></trkpt>
<trkpt lat="51.598408" lon="03.777345"><ele>4.3</ele><time>2022-11-16T13:54:46Z</time><name>PT7638</name></trkpt>
<trkpt lat="51.598400" lon="03.777339"><ele>4.5</ele><time>2022-11-16T13:54:47Z</time><name>PT7639</name></trkpt>
<trkpt lat="51.598392" lon="03.777332"><ele>4.5</ele><time>2022-11-16T13:54:48Z</time><name>PT7640</name></trkpt>
<trkpt lat="51.598384" lon="03.777322"><ele>4.2</ele><time>2022-11-16T13:54:49Z</time><name>PT7641</name></trkpt>
<trkpt lat="51.598375" lon="03.777316"><ele>4</ele><time>2022-11-16T13:54:50Z</time><name>PT7642</name></trkpt>
<trkpt lat="51.598366" lon="03.777311"><ele>4</ele><time>2022-11-16T13:54:51Z</time><name>PT7643</name></trkpt>
<trkpt lat="51.598358" lon="03.777308"><ele>3.9</ele><time>2022-11-16T13:54:52Z</time><name>PT7644</name></trkpt>
<trkpt lat="51.598349" lon="03.777303"><ele>4.1</ele><time>2022-11-16T13:54:53Z</time><name>PT7645</name></trkpt>
<trkpt lat="51.598340" lon="03.777300"><ele>4.3</ele><time>2022-11-16T13:54:54Z</time><name>PT7646</name></trkpt>
<trkpt lat="51.598332" lon="03.777297"><ele>4.2</ele><time>2022-11-16T13:54:55Z</time><name>PT7647</name></trkpt>
<trkpt lat="51.598323" lon="03.777292"><ele>4.1</ele><time>2022-11-16T13:54:56Z</time><name>PT7648</name></trkpt>
<trkpt lat="51.598312" lon="03.777283"><ele>4.1</ele><time>2022-11-16T13:54:57Z</time><name>PT7649</name></trkpt>
<trkpt lat="51.598302" lon="03.777277"><ele>3.8</ele><time>2022-11-16T13:54:58Z</time><name>PT7650</name></trkpt>
<trkpt lat="51.598291" lon="03.777272"><ele>3.8</ele><time>2022-11-16T13:54:59Z</time><name>PT7651</name></trkpt>
<trkpt lat="51.598281" lon="03.777267"><ele>4.1</ele><time>2022-11-16T13:55:00Z</time><name>PT7652</name></trkpt>
<trkpt lat="51.598271" lon="03.777263"><ele>4.1</ele><time>2022-11-16T13:55:01Z</time><name>PT7653</name></trkpt>
<trkpt lat="51.598259" lon="03.777259"><ele>4.2</ele><time>2022-11-16T13:55:02Z</time><name>PT7654</name></trkpt>
<trkpt lat="51.598248" lon="03.777257"><ele>4.1</ele><time>2022-11-16T13:55:03Z</time><name>PT7655</name></trkpt>
<trkpt lat="51.598236" lon="03.777255"><ele>4.1</ele><time>2022-11-16T13:55:04Z</time><name>PT7656</name></trkpt>
<trkpt lat="51.598227" lon="03.777254"><ele>4</ele><time>2022-11-16T13:55:05Z</time><name>PT7657</name></trkpt>
<trkpt lat="51.598225" lon="03.777253"><ele>4</ele><time>2022-11-16T13:55:06Z</time><name>PT7658</name></trkpt>
<trkpt lat="51.598224" lon="03.777250"><ele>4.1</ele><time>2022-11-16T13:55:07Z</time><name>PT7659</name></trkpt>
<trkpt lat="51.598218" lon="03.777249"><ele>4.3</ele><time>2022-11-16T13:55:08Z</time><name>PT7660</name></trkpt>
<trkpt lat="51.598211" lon="03.777248"><ele>4.3</ele><time>2022-11-16T13:55:09Z</time><name>PT7661</name></trkpt>
<trkpt lat="51.598201" lon="03.777240"><ele>4.3</ele><time>2022-11-16T13:55:10Z</time><name>PT7662</name></trkpt>
<trkpt lat="51.598191" lon="03.777236"><ele>4.2</ele><time>2022-11-16T13:55:11Z</time><name>PT7663</name></trkpt>
<trkpt lat="51.598182" lon="03.777229"><ele>3.9</ele><time>2022-11-16T13:55:12Z</time><name>PT7664</name></trkpt>
<trkpt lat="51.598173" lon="03.777221"><ele>3.6</ele><time>2022-11-16T13:55:13Z</time><name>PT7665</name></trkpt>
<trkpt lat="51.598164" lon="03.777213"><ele>3.6</ele><time>2022-11-16T13:55:14Z</time><name>PT7666</name></trkpt>
<trkpt lat="51.598155" lon="03.777206"><ele>3.5</ele><time>2022-11-16T13:55:15Z</time><name>PT7667</name></trkpt>
<trkpt lat="51.598145" lon="03.777202"><ele>3.4</ele><time>2022-11-16T13:55:16Z</time><name>PT7668</name></trkpt>
<trkpt lat="51.598134" lon="03.777198"><ele>3.6</ele><time>2022-11-16T13:55:17Z</time><name>PT7669</name></trkpt>
<trkpt lat="51.598124" lon="03.777194"><ele>3.6</ele><time>2022-11-16T13:55:18Z</time><name>PT7670</name></trkpt>
<trkpt lat="51.598118" lon="03.777194"><ele>3.6</ele><time>2022-11-16T13:55:19Z</time><name>PT7671</name></trkpt>
<trkpt lat="51.598112" lon="03.777193"><ele>3.6</ele><time>2022-11-16T13:55:20Z</time><name>PT7672</name></trkpt>
<trkpt lat="51.598108" lon="03.777195"><ele>3.5</ele><time>2022-11-16T13:55:21Z</time><name>PT7673</name></trkpt>
<trkpt lat="51.598100" lon="03.777194"><ele>3.4</ele><time>2022-11-16T13:55:22Z</time><name>PT7674</name></trkpt>
<trkpt lat="51.598093" lon="03.777188"><ele>3.2</ele><time>2022-11-16T13:55:23Z</time><name>PT7675</name></trkpt>
<trkpt lat="51.598087" lon="03.777179"><ele>3.2</ele><time>2022-11-16T13:55:24Z</time><name>PT7676</name></trkpt>
<trkpt lat="51.598080" lon="03.777173"><ele>3.1</ele><time>2022-11-16T13:55:25Z</time><name>PT7677</name></trkpt>
<trkpt lat="51.598072" lon="03.777168"><ele>2.8</ele><time>2022-11-16T13:55:26Z</time><name>PT7678</name></trkpt>
<trkpt lat="51.598062" lon="03.777166"><ele>2.5</ele><time>2022-11-16T13:55:27Z</time><name>PT7679</name></trkpt>
<trkpt lat="51.598052" lon="03.777163"><ele>2.5</ele><time>2022-11-16T13:55:28Z</time><name>PT7680</name></trkpt>
<trkpt lat="51.598043" lon="03.777159"><ele>2.3</ele><time>2022-11-16T13:55:29Z</time><name>PT7681</name></trkpt>
<trkpt lat="51.598036" lon="03.777150"><ele>2.3</ele><time>2022-11-16T13:55:30Z</time><name>PT7682</name></trkpt>
<trkpt lat="51.598027" lon="03.777142"><ele>2.5</ele><time>2022-11-16T13:55:31Z</time><name>PT7683</name></trkpt>
<trkpt lat="51.598018" lon="03.777135"><ele>2.5</ele><time>2022-11-16T13:55:32Z</time><name>PT7684</name></trkpt>
<trkpt lat="51.598009" lon="03.777130"><ele>2.3</ele><time>2022-11-16T13:55:33Z</time><name>PT7685</name></trkpt>
<trkpt lat="51.597999" lon="03.777128"><ele>2.3</ele><time>2022-11-16T13:55:34Z</time><name>PT7686</name></trkpt>
<trkpt lat="51.597988" lon="03.777125"><ele>2.1</ele><time>2022-11-16T13:55:35Z</time><name>PT7687</name></trkpt>
<trkpt lat="51.597977" lon="03.777122"><ele>1.9</ele><time>2022-11-16T13:55:36Z</time><name>PT7688</name></trkpt>
<trkpt lat="51.597967" lon="03.777119"><ele>1.8</ele><time>2022-11-16T13:55:37Z</time><name>PT7689</name></trkpt>
<trkpt lat="51.597958" lon="03.777114"><ele>1.7</ele><time>2022-11-16T13:55:38Z</time><name>PT7690</name></trkpt>
<trkpt lat="51.597950" lon="03.777108"><ele>1.6</ele><time>2022-11-16T13:55:39Z</time><name>PT7691</name></trkpt>
<trkpt lat="51.597941" lon="03.777101"><ele>1.5</ele><time>2022-11-16T13:55:40Z</time><name>PT7692</name></trkpt>
<trkpt lat="51.597931" lon="03.777095"><ele>1.6</ele><time>2022-11-16T13:55:41Z</time><name>PT7693</name></trkpt>
<trkpt lat="51.597921" lon="03.777090"><ele>1.7</ele><time>2022-11-16T13:55:42Z</time><name>PT7694</name></trkpt>
<trkpt lat="51.597912" lon="03.777086"><ele>1.6</ele><time>2022-11-16T13:55:43Z</time><name>PT7695</name></trkpt>
<trkpt lat="51.597902" lon="03.777082"><ele>1.5</ele><time>2022-11-16T13:55:44Z</time><name>PT7696</name></trkpt>
<trkpt lat="51.597892" lon="03.777079"><ele>1.6</ele><time>2022-11-16T13:55:45Z</time><name>PT7697</name></trkpt>
<trkpt lat="51.597883" lon="03.777075"><ele>1.5</ele><time>2022-11-16T13:55:46Z</time><name>PT7698</name></trkpt>
<trkpt lat="51.597873" lon="03.777070"><ele>1.3</ele><time>2022-11-16T13:55:47Z</time><name>PT7699</name></trkpt>
<trkpt lat="51.597864" lon="03.777063"><ele>1</ele><time>2022-11-16T13:55:48Z</time><name>PT7700</name></trkpt>
<trkpt lat="51.597854" lon="03.777057"><ele>1</ele><time>2022-11-16T13:55:49Z</time><name>PT7701</name></trkpt>
<trkpt lat="51.597843" lon="03.777054"><ele>1</ele><time>2022-11-16T13:55:50Z</time><name>PT7702</name></trkpt>
<trkpt lat="51.597833" lon="03.777050"><ele>1</ele><time>2022-11-16T13:55:51Z</time><name>PT7703</name></trkpt>
<trkpt lat="51.597823" lon="03.777046"><ele>1</ele><time>2022-11-16T13:55:52Z</time><name>PT7704</name></trkpt>
<trkpt lat="51.597813" lon="03.777043"><ele>1.1</ele><time>2022-11-16T13:55:53Z</time><name>PT7705</name></trkpt>
<trkpt lat="51.597805" lon="03.777039"><ele>1.1</ele><time>2022-11-16T13:55:54Z</time><name>PT7706</name></trkpt>
<trkpt lat="51.597797" lon="03.777032"><ele>1.1</ele><time>2022-11-16T13:55:55Z</time><name>PT7707</name></trkpt>
<trkpt lat="51.597789" lon="03.777026"><ele>1.4</ele><time>2022-11-16T13:55:56Z</time><name>PT7708</name></trkpt>
<trkpt lat="51.597782" lon="03.777020"><ele>1.3</ele><time>2022-11-16T13:55:57Z</time><name>PT7709</name></trkpt>
<trkpt lat="51.597776" lon="03.777018"><ele>1.1</ele><time>2022-11-16T13:55:58Z</time><name>PT7710</name></trkpt>
<trkpt lat="51.597770" lon="03.777011"><ele>1</ele><time>2022-11-16T13:55:59Z</time><name>PT7711</name></trkpt>
<trkpt lat="51.597767" lon="03.777000"><ele>0.7</ele><time>2022-11-16T13:56:00Z</time><name>PT7712</name></trkpt>
<trkpt lat="51.597764" lon="03.776993"><ele>0.7</ele><time>2022-11-16T13:56:01Z</time><name>PT7713</name></trkpt>
<trkpt lat="51.597760" lon="03.776987"><ele>0.8</ele><time>2022-11-16T13:56:02Z</time><name>PT7714</name></trkpt>
<trkpt lat="51.597755" lon="03.776984"><ele>0.7</ele><time>2022-11-16T13:56:03Z</time><name>PT7715</name></trkpt>
<trkpt lat="51.597751" lon="03.776981"><ele>0.8</ele><time>2022-11-16T13:56:04Z</time><name>PT7716</name></trkpt>
<trkpt lat="51.597749" lon="03.776984"><ele>1</ele><time>2022-11-16T13:56:05Z</time><name>PT7717</name></trkpt>
<trkpt lat="51.597743" lon="03.776982"><ele>1.2</ele><time>2022-11-16T13:56:06Z</time><name>PT7718</name></trkpt>
<trkpt lat="51.597734" lon="03.776984"><ele>1.2</ele><time>2022-11-16T13:56:07Z</time><name>PT7719</name></trkpt>
<trkpt lat="51.597724" lon="03.776984"><ele>1.3</ele><time>2022-11-16T13:56:08Z</time><name>PT7720</name></trkpt>
<trkpt lat="51.597713" lon="03.776982"><ele>1.2</ele><time>2022-11-16T13:56:09Z</time><name>PT7721</name></trkpt>
<trkpt lat="51.597702" lon="03.776980"><ele>1.1</ele><time>2022-11-16T13:56:10Z</time><name>PT7722</name></trkpt>
<trkpt lat="51.597691" lon="03.776976"><ele>1</ele><time>2022-11-16T13:56:11Z</time><name>PT7723</name></trkpt>
<trkpt lat="51.597681" lon="03.776972"><ele>0.8</ele><time>2022-11-16T13:56:12Z</time><name>PT7724</name></trkpt>
<trkpt lat="51.597671" lon="03.776968"><ele>0.7</ele><time>2022-11-16T13:56:13Z</time><name>PT7725</name></trkpt>
<trkpt lat="51.597661" lon="03.776964"><ele>0.5</ele><time>2022-11-16T13:56:14Z</time><name>PT7726</name></trkpt>
<trkpt lat="51.597652" lon="03.776958"><ele>0.2</ele><time>2022-11-16T13:56:15Z</time><name>PT7727</name></trkpt>
<trkpt lat="51.597642" lon="03.776953"><ele>0</ele><time>2022-11-16T13:56:16Z</time><name>PT7728</name></trkpt>
<trkpt lat="51.597631" lon="03.776947"><ele>0</ele><time>2022-11-16T13:56:17Z</time><name>PT7729</name></trkpt>
<trkpt lat="51.597622" lon="03.776940"><ele>0.2</ele><time>2022-11-16T13:56:18Z</time><name>PT7730</name></trkpt>
<trkpt lat="51.597612" lon="03.776935"><ele>0.3</ele><time>2022-11-16T13:56:19Z</time><name>PT7731</name></trkpt>
<trkpt lat="51.597602" lon="03.776930"><ele>0.1</ele><time>2022-11-16T13:56:20Z</time><name>PT7732</name></trkpt>
<trkpt lat="51.597591" lon="03.776927"><ele>0.4</ele><time>2022-11-16T13:56:21Z</time><name>PT7733</name></trkpt>
<trkpt lat="51.597582" lon="03.776925"><ele>0.3</ele><time>2022-11-16T13:56:22Z</time><name>PT7734</name></trkpt>
<trkpt lat="51.597573" lon="03.776922"><ele>0.2</ele><time>2022-11-16T13:56:23Z</time><name>PT7735</name></trkpt>
<trkpt lat="51.597563" lon="03.776918"><ele>0.2</ele><time>2022-11-16T13:56:24Z</time><name>PT7736</name></trkpt>
<trkpt lat="51.597552" lon="03.776912"><ele>0.3</ele><time>2022-11-16T13:56:25Z</time><name>PT7737</name></trkpt>
<trkpt lat="51.597541" lon="03.776905"><ele>0.4</ele><time>2022-11-16T13:56:26Z</time><name>PT7738</name></trkpt>
<trkpt lat="51.597532" lon="03.776900"><ele>0.3</ele><time>2022-11-16T13:56:27Z</time><name>PT7739</name></trkpt>
<trkpt lat="51.597521" lon="03.776898"><ele>0.3</ele><time>2022-11-16T13:56:28Z</time><name>PT7740</name></trkpt>
<trkpt lat="51.597510" lon="03.776895"><ele>0.3</ele><time>2022-11-16T13:56:29Z</time><name>PT7741</name></trkpt>
<trkpt lat="51.597498" lon="03.776891"><ele>0.2</ele><time>2022-11-16T13:56:30Z</time><name>PT7742</name></trkpt>
<trkpt lat="51.597487" lon="03.776887"><ele>0.1</ele><time>2022-11-16T13:56:31Z</time><name>PT7743</name></trkpt>
<trkpt lat="51.597477" lon="03.776884"><ele>0.1</ele><time>2022-11-16T13:56:32Z</time><name>PT7744</name></trkpt>
<trkpt lat="51.597469" lon="03.776879"><ele>0</ele><time>2022-11-16T13:56:33Z</time><name>PT7745</name></trkpt>
<trkpt lat="51.597460" lon="03.776873"><ele>0.1</ele><time>2022-11-16T13:56:34Z</time><name>PT7746</name></trkpt>
<trkpt lat="51.597449" lon="03.776867"><ele>0</ele><time>2022-11-16T13:56:35Z</time><name>PT7747</name></trkpt>
<trkpt lat="51.597439" lon="03.776860"><ele>0</ele><time>2022-11-16T13:56:36Z</time><name>PT7748</name></trkpt>
<trkpt lat="51.597429" lon="03.776855"><ele>0</ele><time>2022-11-16T13:56:37Z</time><name>PT7749</name></trkpt>
<trkpt lat="51.597418" lon="03.776851"><ele>0.1</ele><time>2022-11-16T13:56:38Z</time><name>PT7750</name></trkpt>
<trkpt lat="51.597407" lon="03.776846"><ele>0.4</ele><time>2022-11-16T13:56:39Z</time><name>PT7751</name></trkpt>
<trkpt lat="51.597396" lon="03.776842"><ele>0.3</ele><time>2022-11-16T13:56:40Z</time><name>PT7752</name></trkpt>
<trkpt lat="51.597385" lon="03.776837"><ele>0.3</ele><time>2022-11-16T13:56:41Z</time><name>PT7753</name></trkpt>
<trkpt lat="51.597375" lon="03.776831"><ele>0.1</ele><time>2022-11-16T13:56:42Z</time><name>PT7754</name></trkpt>
<trkpt lat="51.597365" lon="03.776822"><ele>0.2</ele><time>2022-11-16T13:56:43Z</time><name>PT7755</name></trkpt>
<trkpt lat="51.597355" lon="03.776813"><ele>0</ele><time>2022-11-16T13:56:44Z</time><name>PT7756</name></trkpt>
<trkpt lat="51.597345" lon="03.776804"><ele>0</ele><time>2022-11-16T13:56:45Z</time><name>PT7757</name></trkpt>
<trkpt lat="51.597333" lon="03.776797"><ele>0</ele><time>2022-11-16T13:56:46Z</time><name>PT7758</name></trkpt>
<trkpt lat="51.597323" lon="03.776790"><ele>0.1</ele><time>2022-11-16T13:56:47Z</time><name>PT7759</name></trkpt>
<trkpt lat="51.597314" lon="03.776785"><ele>0.2</ele><time>2022-11-16T13:56:48Z</time><name>PT7760</name></trkpt>
<trkpt lat="51.597303" lon="03.776779"><ele>0.2</ele><time>2022-11-16T13:56:49Z</time><name>PT7761</name></trkpt>
<trkpt lat="51.597293" lon="03.776772"><ele>0</ele><time>2022-11-16T13:56:50Z</time><name>PT7762</name></trkpt>
<trkpt lat="51.597285" lon="03.776761"><ele>0.3</ele><time>2022-11-16T13:56:51Z</time><name>PT7763</name></trkpt>
<trkpt lat="51.597277" lon="03.776754"><ele>0.4</ele><time>2022-11-16T13:56:52Z</time><name>PT7764</name></trkpt>
<trkpt lat="51.597272" lon="03.776747"><ele>0.4</ele><time>2022-11-16T13:56:53Z</time><name>PT7765</name></trkpt>
<trkpt lat="51.597267" lon="03.776733"><ele>0.6</ele><time>2022-11-16T13:56:54Z</time><name>PT7766</name></trkpt>
<trkpt lat="51.597261" lon="03.776722"><ele>0.7</ele><time>2022-11-16T13:56:55Z</time><name>PT7767</name></trkpt>
<trkpt lat="51.597251" lon="03.776715"><ele>0.8</ele><time>2022-11-16T13:56:56Z</time><name>PT7768</name></trkpt>
<trkpt lat="51.597241" lon="03.776701"><ele>1</ele><time>2022-11-16T13:56:57Z</time><name>PT7769</name></trkpt>
<trkpt lat="51.597228" lon="03.776689"><ele>1</ele><time>2022-11-16T13:56:58Z</time><name>PT7770</name></trkpt>
<trkpt lat="51.597219" lon="03.776682"><ele>1</ele><time>2022-11-16T13:56:59Z</time><name>PT7771</name></trkpt>
<trkpt lat="51.597212" lon="03.776672"><ele>1.3</ele><time>2022-11-16T13:57:00Z</time><name>PT7772</name></trkpt>
<trkpt lat="51.597206" lon="03.776662"><ele>1.3</ele><time>2022-11-16T13:57:01Z</time><name>PT7773</name></trkpt>
<trkpt lat="51.597198" lon="03.776652"><ele>1.3</ele><time>2022-11-16T13:57:02Z</time><name>PT7774</name></trkpt>
<trkpt lat="51.597189" lon="03.776643"><ele>1.4</ele><time>2022-11-16T13:57:03Z</time><name>PT7775</name></trkpt>
<trkpt lat="51.597180" lon="03.776634"><ele>1.5</ele><time>2022-11-16T13:57:04Z</time><name>PT7776</name></trkpt>
<trkpt lat="51.597171" lon="03.776625"><ele>1.5</ele><time>2022-11-16T13:57:05Z</time><name>PT7777</name></trkpt>
<trkpt lat="51.597163" lon="03.776614"><ele>1.5</ele><time>2022-11-16T13:57:06Z</time><name>PT7778</name></trkpt>
<trkpt lat="51.597155" lon="03.776603"><ele>1.5</ele><time>2022-11-16T13:57:07Z</time><name>PT7779</name></trkpt>
<trkpt lat="51.597146" lon="03.776593"><ele>1.5</ele><time>2022-11-16T13:57:08Z</time><name>PT7780</name></trkpt>
<trkpt lat="51.597139" lon="03.776583"><ele>1.5</ele><time>2022-11-16T13:57:09Z</time><name>PT7781</name></trkpt>
<trkpt lat="51.597132" lon="03.776573"><ele>1.5</ele><time>2022-11-16T13:57:10Z</time><name>PT7782</name></trkpt>
<trkpt lat="51.597125" lon="03.776563"><ele>1.5</ele><time>2022-11-16T13:57:11Z</time><name>PT7783</name></trkpt>
<trkpt lat="51.597116" lon="03.776555"><ele>1.5</ele><time>2022-11-16T13:57:12Z</time><name>PT7784</name></trkpt>
<trkpt lat="51.597109" lon="03.776545"><ele>1.6</ele><time>2022-11-16T13:57:13Z</time><name>PT7785</name></trkpt>
<trkpt lat="51.597102" lon="03.776535"><ele>1.5</ele><time>2022-11-16T13:57:14Z</time><name>PT7786</name></trkpt>
<trkpt lat="51.597094" lon="03.776523"><ele>1.7</ele><time>2022-11-16T13:57:15Z</time><name>PT7787</name></trkpt>
<trkpt lat="51.597088" lon="03.776512"><ele>1.6</ele><time>2022-11-16T13:57:16Z</time><name>PT7788</name></trkpt>
<trkpt lat="51.597081" lon="03.776504"><ele>1.6</ele><time>2022-11-16T13:57:17Z</time><name>PT7789</name></trkpt>
<trkpt lat="51.597073" lon="03.776496"><ele>1.5</ele><time>2022-11-16T13:57:18Z</time><name>PT7790</name></trkpt>
<trkpt lat="51.597064" lon="03.776487"><ele>1.5</ele><time>2022-11-16T13:57:19Z</time><name>PT7791</name></trkpt>
<trkpt lat="51.597056" lon="03.776477"><ele>1.4</ele><time>2022-11-16T13:57:20Z</time><name>PT7792</name></trkpt>
<trkpt lat="51.597049" lon="03.776465"><ele>1.4</ele><time>2022-11-16T13:57:21Z</time><name>PT7793</name></trkpt>
<trkpt lat="51.597043" lon="03.776453"><ele>1.4</ele><time>2022-11-16T13:57:22Z</time><name>PT7794</name></trkpt>
<trkpt lat="51.597036" lon="03.776443"><ele>1.5</ele><time>2022-11-16T13:57:23Z</time><name>PT7795</name></trkpt>
<trkpt lat="51.597028" lon="03.776434"><ele>1.6</ele><time>2022-11-16T13:57:24Z</time><name>PT7796</name></trkpt>
<trkpt lat="51.597020" lon="03.776428"><ele>1.8</ele><time>2022-11-16T13:57:25Z</time><name>PT7797</name></trkpt>
<trkpt lat="51.597012" lon="03.776418"><ele>1.7</ele><time>2022-11-16T13:57:26Z</time><name>PT7798</name></trkpt>
<trkpt lat="51.597005" lon="03.776407"><ele>1.8</ele><time>2022-11-16T13:57:27Z</time><name>PT7799</name></trkpt>
<trkpt lat="51.596999" lon="03.776396"><ele>1.9</ele><time>2022-11-16T13:57:28Z</time><name>PT7800</name></trkpt>
<trkpt lat="51.596992" lon="03.776385"><ele>1.8</ele><time>2022-11-16T13:57:29Z</time><name>PT7801</name></trkpt>
<trkpt lat="51.596984" lon="03.776375"><ele>1.7</ele><time>2022-11-16T13:57:30Z</time><name>PT7802</name></trkpt>
<trkpt lat="51.596977" lon="03.776364"><ele>1.9</ele><time>2022-11-16T13:57:31Z</time><name>PT7803</name></trkpt>
<trkpt lat="51.596973" lon="03.776351"><ele>1.9</ele><time>2022-11-16T13:57:32Z</time><name>PT7804</name></trkpt>
<trkpt lat="51.596969" lon="03.776340"><ele>2</ele><time>2022-11-16T13:57:33Z</time><name>PT7805</name></trkpt>
<trkpt lat="51.596966" lon="03.776330"><ele>2</ele><time>2022-11-16T13:57:34Z</time><name>PT7806</name></trkpt>
<trkpt lat="51.596960" lon="03.776319"><ele>2.4</ele><time>2022-11-16T13:57:35Z</time><name>PT7807</name></trkpt>
<trkpt lat="51.596953" lon="03.776308"><ele>2.4</ele><time>2022-11-16T13:57:36Z</time><name>PT7808</name></trkpt>
<trkpt lat="51.596947" lon="03.776296"><ele>2.3</ele><time>2022-11-16T13:57:37Z</time><name>PT7809</name></trkpt>
<trkpt lat="51.596943" lon="03.776286"><ele>2.4</ele><time>2022-11-16T13:57:38Z</time><name>PT7810</name></trkpt>
<trkpt lat="51.596936" lon="03.776278"><ele>2.2</ele><time>2022-11-16T13:57:39Z</time><name>PT7811</name></trkpt>
<trkpt lat="51.596930" lon="03.776270"><ele>2.1</ele><time>2022-11-16T13:57:40Z</time><name>PT7812</name></trkpt>
<trkpt lat="51.596926" lon="03.776263"><ele>2.1</ele><time>2022-11-16T13:57:41Z</time><name>PT7813</name></trkpt>
<trkpt lat="51.596922" lon="03.776255"><ele>2.2</ele><time>2022-11-16T13:57:42Z</time><name>PT7814</name></trkpt>
<trkpt lat="51.596920" lon="03.776248"><ele>2.2</ele><time>2022-11-16T13:57:43Z</time><name>PT7815</name></trkpt>
<trkpt lat="51.596919" lon="03.776246"><ele>2.4</ele><time>2022-11-16T13:57:44Z</time><name>PT7816</name></trkpt>
<trkpt lat="51.596919" lon="03.776247"><ele>2.4</ele><time>2022-11-16T13:57:45Z</time><name>PT7817</name></trkpt>
<trkpt lat="51.596919" lon="03.776246"><ele>2.4</ele><time>2022-11-16T13:57:46Z</time><name>PT7818</name></trkpt>
<trkpt lat="51.596915" lon="03.776241"><ele>2.4</ele><time>2022-11-16T13:58:29Z</time><name>PT7819</name></trkpt>
<trkpt lat="51.596912" lon="03.776238"><ele>2.5</ele><time>2022-11-16T13:58:30Z</time><name>PT7820</name></trkpt>
<trkpt lat="51.596911" lon="03.776235"><ele>2.5</ele><time>2022-11-16T13:58:31Z</time><name>PT7821</name></trkpt>
<trkpt lat="51.596910" lon="03.776231"><ele>2.4</ele><time>2022-11-16T13:58:32Z</time><name>PT7822</name></trkpt>
<trkpt lat="51.596907" lon="03.776222"><ele>2.2</ele><time>2022-11-16T13:58:35Z</time><name>PT7823</name></trkpt>
<trkpt lat="51.596905" lon="03.776219"><ele>2.2</ele><time>2022-11-16T13:58:36Z</time><name>PT7824</name></trkpt>
<trkpt lat="51.596904" lon="03.776215"><ele>2.1</ele><time>2022-11-16T13:58:52Z</time><name>PT7825</name></trkpt>
<trkpt lat="51.596905" lon="03.776213"><ele>2</ele><time>2022-11-16T13:58:53Z</time><name>PT7826</name></trkpt>
<trkpt lat="51.596903" lon="03.776209"><ele>2</ele><time>2022-11-16T13:58:54Z</time><name>PT7827</name></trkpt>
<trkpt lat="51.596902" lon="03.776206"><ele>2.1</ele><time>2022-11-16T13:58:55Z</time><name>PT7828</name></trkpt>
<trkpt lat="51.596901" lon="03.776205"><ele>2.2</ele><time>2022-11-16T13:58:56Z</time><name>PT7829</name></trkpt>
<trkpt lat="51.596901" lon="03.776203"><ele>2.2</ele><time>2022-11-16T13:58:57Z</time><name>PT7830</name></trkpt>
<trkpt lat="51.597123" lon="03.775899"><ele>5.2</ele><time>2022-11-16T14:01:40Z</time><name>PT7831</name></trkpt>
<trkpt lat="51.596887" lon="03.776171"><ele>3.5</ele><time>2022-11-16T14:03:59Z</time><name>PT7832</name></trkpt>
<trkpt lat="51.596889" lon="03.776169"><ele>3.3</ele><time>2022-11-16T14:04:00Z</time><name>PT7833</name></trkpt>
<trkpt lat="51.596890" lon="03.776166"><ele>3.2</ele><time>2022-11-16T14:04:01Z</time><name>PT7834</name></trkpt>
<trkpt lat="51.596890" lon="03.776166"><ele>3.3</ele><time>2022-11-16T14:04:02Z</time><name>PT7835</name></trkpt>
<trkpt lat="51.596891" lon="03.776162"><ele>3.4</ele><time>2022-11-16T14:04:03Z</time><name>PT7836</name></trkpt>
<trkpt lat="51.596900" lon="03.776151"><ele>3.5</ele><time>2022-11-16T14:04:04Z</time><name>PT7837</name></trkpt>
<trkpt lat="51.596913" lon="03.776136"><ele>3.3</ele><time>2022-11-16T14:04:05Z</time><name>PT7838</name></trkpt>
<trkpt lat="51.596924" lon="03.776124"><ele>3.1</ele><time>2022-11-16T14:04:06Z</time><name>PT7839</name></trkpt>
<trkpt lat="51.596925" lon="03.776123"><ele>3.1</ele><time>2022-11-16T14:04:07Z</time><name>PT7840</name></trkpt>
<trkpt lat="51.596928" lon="03.776124"><ele>3.1</ele><time>2022-11-16T14:04:08Z</time><name>PT7841</name></trkpt>
<trkpt lat="51.596935" lon="03.776122"><ele>3.1</ele><time>2022-11-16T14:04:09Z</time><name>PT7842</name></trkpt>
<trkpt lat="51.596934" lon="03.776120"><ele>3.3</ele><time>2022-11-16T14:04:10Z</time><name>PT7843</name></trkpt>
<trkpt lat="51.596937" lon="03.776119"><ele>3.6</ele><time>2022-11-16T14:04:11Z</time><name>PT7844</name></trkpt>
<trkpt lat="51.596940" lon="03.776115"><ele>3.9</ele><time>2022-11-16T14:04:12Z</time><name>PT7845</name></trkpt>
<trkpt lat="51.596944" lon="03.776112"><ele>4</ele><time>2022-11-16T14:04:13Z</time><name>PT7846</name></trkpt>
<trkpt lat="51.596952" lon="03.776111"><ele>4.3</ele><time>2022-11-16T14:04:15Z</time><name>PT7847</name></trkpt>
<trkpt lat="51.596956" lon="03.776106"><ele>4.3</ele><time>2022-11-16T14:04:16Z</time><name>PT7848</name></trkpt>
<trkpt lat="51.596958" lon="03.776101"><ele>4.2</ele><time>2022-11-16T14:04:17Z</time><name>PT7849</name></trkpt>
<trkpt lat="51.596961" lon="03.776097"><ele>4.6</ele><time>2022-11-16T14:04:18Z</time><name>PT7850</name></trkpt>
<trkpt lat="51.596965" lon="03.776093"><ele>4.7</ele><time>2022-11-16T14:04:19Z</time><name>PT7851</name></trkpt>
<trkpt lat="51.596965" lon="03.776088"><ele>5</ele><time>2022-11-16T14:04:20Z</time><name>PT7852</name></trkpt>
<trkpt lat="51.596969" lon="03.776082"><ele>5.3</ele><time>2022-11-16T14:04:21Z</time><name>PT7853</name></trkpt>
<trkpt lat="51.596973" lon="03.776079"><ele>5.3</ele><time>2022-11-16T14:04:22Z</time><name>PT7854</name></trkpt>
<trkpt lat="51.596981" lon="03.776076"><ele>5.5</ele><time>2022-11-16T14:04:23Z</time><name>PT7855</name></trkpt>
<trkpt lat="51.596986" lon="03.776072"><ele>5.8</ele><time>2022-11-16T14:04:24Z</time><name>PT7856</name></trkpt>
<trkpt lat="51.596992" lon="03.776072"><ele>6</ele><time>2022-11-16T14:04:25Z</time><name>PT7857</name></trkpt>
<trkpt lat="51.596995" lon="03.776068"><ele>6.1</ele><time>2022-11-16T14:04:26Z</time><name>PT7858</name></trkpt>
<trkpt lat="51.596995" lon="03.776066"><ele>6.2</ele><time>2022-11-16T14:04:27Z</time><name>PT7859</name></trkpt>
<trkpt lat="51.597003" lon="03.776059"><ele>6.4</ele><time>2022-11-16T14:04:28Z</time><name>PT7860</name></trkpt>
<trkpt lat="51.597006" lon="03.776048"><ele>6.9</ele><time>2022-11-16T14:04:29Z</time><name>PT7861</name></trkpt>
<trkpt lat="51.597005" lon="03.776042"><ele>7.5</ele><time>2022-11-16T14:04:30Z</time><name>PT7862</name></trkpt>
<trkpt lat="51.597008" lon="03.776040"><ele>7.7</ele><time>2022-11-16T14:04:31Z</time><name>PT7863</name></trkpt>
<trkpt lat="51.597014" lon="03.776035"><ele>7.8</ele><time>2022-11-16T14:04:32Z</time><name>PT7864</name></trkpt>
<trkpt lat="51.597018" lon="03.776032"><ele>7.8</ele><time>2022-11-16T14:04:33Z</time><name>PT7865</name></trkpt>
<trkpt lat="51.597023" lon="03.776029"><ele>7.4</ele><time>2022-11-16T14:04:34Z</time><name>PT7866</name></trkpt>
<trkpt lat="51.597028" lon="03.776024"><ele>7.1</ele><time>2022-11-16T14:04:35Z</time><name>PT7867</name></trkpt>
<trkpt lat="51.597034" lon="03.776021"><ele>7.1</ele><time>2022-11-16T14:04:36Z</time><name>PT7868</name></trkpt>
<trkpt lat="51.597043" lon="03.776014"><ele>7.3</ele><time>2022-11-16T14:04:37Z</time><name>PT7869</name></trkpt>
<trkpt lat="51.597051" lon="03.776005"><ele>7.2</ele><time>2022-11-16T14:04:38Z</time><name>PT7870</name></trkpt>
<trkpt lat="51.597056" lon="03.775999"><ele>7</ele><time>2022-11-16T14:04:39Z</time><name>PT7871</name></trkpt>
<trkpt lat="51.597059" lon="03.775997"><ele>6.9</ele><time>2022-11-16T14:04:40Z</time><name>PT7872</name></trkpt>
<trkpt lat="51.597062" lon="03.775995"><ele>6.8</ele><time>2022-11-16T14:04:41Z</time><name>PT7873</name></trkpt>
<trkpt lat="51.597065" lon="03.775995"><ele>6.7</ele><time>2022-11-16T14:04:42Z</time><name>PT7874</name></trkpt>
<trkpt lat="51.597068" lon="03.775994"><ele>6.7</ele><time>2022-11-16T14:04:43Z</time><name>PT7875</name></trkpt>
<trkpt lat="51.597072" lon="03.775991"><ele>6.6</ele><time>2022-11-16T14:04:44Z</time><name>PT7876</name></trkpt>
<trkpt lat="51.597075" lon="03.775988"><ele>6.3</ele><time>2022-11-16T14:04:45Z</time><name>PT7877</name></trkpt>
<trkpt lat="51.597077" lon="03.775984"><ele>6.2</ele><time>2022-11-16T14:04:46Z</time><name>PT7878</name></trkpt>
<trkpt lat="51.597078" lon="03.775981"><ele>6.1</ele><time>2022-11-16T14:04:47Z</time><name>PT7879</name></trkpt>
<trkpt lat="51.597082" lon="03.775976"><ele>5.8</ele><time>2022-11-16T14:04:48Z</time><name>PT7880</name></trkpt>
<trkpt lat="51.597089" lon="03.775974"><ele>5.5</ele><time>2022-11-16T14:04:49Z</time><name>PT7881</name></trkpt>
<trkpt lat="51.597094" lon="03.775971"><ele>5.4</ele><time>2022-11-16T14:04:50Z</time><name>PT7882</name></trkpt>
<trkpt lat="51.597099" lon="03.775962"><ele>5.2</ele><time>2022-11-16T14:04:51Z</time><name>PT7883</name></trkpt>
<trkpt lat="51.597103" lon="03.775959"><ele>5</ele><time>2022-11-16T14:04:52Z</time><name>PT7884</name></trkpt>
<trkpt lat="51.597109" lon="03.775957"><ele>4.6</ele><time>2022-11-16T14:04:53Z</time><name>PT7885</name></trkpt>
<trkpt lat="51.597116" lon="03.775950"><ele>4.6</ele><time>2022-11-16T14:04:54Z</time><name>PT7886</name></trkpt>
<trkpt lat="51.597122" lon="03.775942"><ele>4.6</ele><time>2022-11-16T14:04:55Z</time><name>PT7887</name></trkpt>
<trkpt lat="51.597125" lon="03.775937"><ele>4.6</ele><time>2022-11-16T14:04:56Z</time><name>PT7888</name></trkpt>
<trkpt lat="51.597128" lon="03.775932"><ele>4.8</ele><time>2022-11-16T14:04:57Z</time><name>PT7889</name></trkpt>
<trkpt lat="51.597132" lon="03.775923"><ele>4.9</ele><time>2022-11-16T14:04:58Z</time><name>PT7890</name></trkpt>
<trkpt lat="51.597134" lon="03.775916"><ele>5.2</ele><time>2022-11-16T14:04:59Z</time><name>PT7891</name></trkpt>
<trkpt lat="51.597133" lon="03.775914"><ele>5.3</ele><time>2022-11-16T14:05:00Z</time><name>PT7892</name></trkpt>
<trkpt lat="51.597131" lon="03.775914"><ele>5.3</ele><time>2022-11-16T14:05:01Z</time><name>PT7893</name></trkpt>
<trkpt lat="51.597129" lon="03.775916"><ele>5.4</ele><time>2022-11-16T14:05:02Z</time><name>PT7894</name></trkpt>
<trkpt lat="51.597128" lon="03.775915"><ele>5.5</ele><time>2022-11-16T14:05:03Z</time><name>PT7895</name></trkpt>
<trkpt lat="51.597127" lon="03.775904"><ele>5.2</ele><time>2022-11-16T14:05:38Z</time><name>PT7896</name></trkpt>
<trkpt lat="51.597124" lon="03.775892"><ele>5.2</ele><time>2022-11-16T14:05:39Z</time><name>PT7897</name></trkpt>
<trkpt lat="51.597121" lon="03.775885"><ele>5.1</ele><time>2022-11-16T14:05:40Z</time><name>PT7898</name></trkpt>
<trkpt lat="51.597122" lon="03.775881"><ele>5.2</ele><time>2022-11-16T14:05:41Z</time><name>PT7899</name></trkpt>
<trkpt lat="51.597121" lon="03.775881"><ele>5.2</ele><time>2022-11-16T14:05:42Z</time><name>PT7900</name></trkpt>
<trkpt lat="51.597121" lon="03.775882"><ele>5.2</ele><time>2022-11-16T14:05:43Z</time><name>PT7901</name></trkpt>
<trkpt lat="51.597118" lon="03.775872"><ele>5</ele><time>2022-11-16T14:05:45Z</time><name>PT7902</name></trkpt>
<trkpt lat="51.597115" lon="03.775860"><ele>5.1</ele><time>2022-11-16T14:05:46Z</time><name>PT7903</name></trkpt>
<trkpt lat="51.597111" lon="03.775849"><ele>5.2</ele><time>2022-11-16T14:05:47Z</time><name>PT7904</name></trkpt>
<trkpt lat="51.597104" lon="03.775824"><ele>5.2</ele><time>2022-11-16T14:05:48Z</time><name>PT7905</name></trkpt>
<trkpt lat="51.597097" lon="03.775806"><ele>5.3</ele><time>2022-11-16T14:05:49Z</time><name>PT7906</name></trkpt>
<trkpt lat="51.597090" lon="03.775795"><ele>5.4</ele><time>2022-11-16T14:05:50Z</time><name>PT7907</name></trkpt>
<trkpt lat="51.597087" lon="03.775788"><ele>5.4</ele><time>2022-11-16T14:05:51Z</time><name>PT7908</name></trkpt>
<trkpt lat="51.597085" lon="03.775776"><ele>5.4</ele><time>2022-11-16T14:05:52Z</time><name>PT7909</name></trkpt>
<trkpt lat="51.597080" lon="03.775756"><ele>5.4</ele><time>2022-11-16T14:05:53Z</time><name>PT7910</name></trkpt>
<trkpt lat="51.597074" lon="03.775738"><ele>5.6</ele><time>2022-11-16T14:05:54Z</time><name>PT7911</name></trkpt>
<trkpt lat="51.597067" lon="03.775721"><ele>5.4</ele><time>2022-11-16T14:05:55Z</time><name>PT7912</name></trkpt>
<trkpt lat="51.597063" lon="03.775709"><ele>5.5</ele><time>2022-11-16T14:05:56Z</time><name>PT7913</name></trkpt>
<trkpt lat="51.597058" lon="03.775698"><ele>5.6</ele><time>2022-11-16T14:05:57Z</time><name>PT7914</name></trkpt>
<trkpt lat="51.597055" lon="03.775687"><ele>5.7</ele><time>2022-11-16T14:05:58Z</time><name>PT7915</name></trkpt>
<trkpt lat="51.597052" lon="03.775676"><ele>5.7</ele><time>2022-11-16T14:05:59Z</time><name>PT7916</name></trkpt>
<trkpt lat="51.597051" lon="03.775663"><ele>5.6</ele><time>2022-11-16T14:06:00Z</time><name>PT7917</name></trkpt>
<trkpt lat="51.597049" lon="03.775647"><ele>5.6</ele><time>2022-11-16T14:06:01Z</time><name>PT7918</name></trkpt>
<trkpt lat="51.597043" lon="03.775621"><ele>5.6</ele><time>2022-11-16T14:06:02Z</time><name>PT7919</name></trkpt>
<trkpt lat="51.597038" lon="03.775603"><ele>5.5</ele><time>2022-11-16T14:06:03Z</time><name>PT7920</name></trkpt>
<trkpt lat="51.597032" lon="03.775585"><ele>5.5</ele><time>2022-11-16T14:06:04Z</time><name>PT7921</name></trkpt>
<trkpt lat="51.597025" lon="03.775572"><ele>5.7</ele><time>2022-11-16T14:06:05Z</time><name>PT7922</name></trkpt>
<trkpt lat="51.597020" lon="03.775559"><ele>5.7</ele><time>2022-11-16T14:06:06Z</time><name>PT7923</name></trkpt>
<trkpt lat="51.597015" lon="03.775545"><ele>5.7</ele><time>2022-11-16T14:06:07Z</time><name>PT7924</name></trkpt>
<trkpt lat="51.597012" lon="03.775531"><ele>5.9</ele><time>2022-11-16T14:06:08Z</time><name>PT7925</name></trkpt>
<trkpt lat="51.597009" lon="03.775517"><ele>5.8</ele><time>2022-11-16T14:06:09Z</time><name>PT7926</name></trkpt>
<trkpt lat="51.597006" lon="03.775501"><ele>6.1</ele><time>2022-11-16T14:06:10Z</time><name>PT7927</name></trkpt>
<trkpt lat="51.597002" lon="03.775485"><ele>6.2</ele><time>2022-11-16T14:06:11Z</time><name>PT7928</name></trkpt>
<trkpt lat="51.596999" lon="03.775469"><ele>6.2</ele><time>2022-11-16T14:06:12Z</time><name>PT7929</name></trkpt>
<trkpt lat="51.596995" lon="03.775454"><ele>6.1</ele><time>2022-11-16T14:06:13Z</time><name>PT7930</name></trkpt>
<trkpt lat="51.596991" lon="03.775440"><ele>6.1</ele><time>2022-11-16T14:06:14Z</time><name>PT7931</name></trkpt>
<trkpt lat="51.596988" lon="03.775426"><ele>6</ele><time>2022-11-16T14:06:15Z</time><name>PT7932</name></trkpt>
<trkpt lat="51.596985" lon="03.775411"><ele>5.9</ele><time>2022-11-16T14:06:16Z</time><name>PT7933</name></trkpt>
<trkpt lat="51.596984" lon="03.775394"><ele>6.1</ele><time>2022-11-16T14:06:17Z</time><name>PT7934</name></trkpt>
<trkpt lat="51.596982" lon="03.775377"><ele>6.2</ele><time>2022-11-16T14:06:18Z</time><name>PT7935</name></trkpt>
<trkpt lat="51.596981" lon="03.775360"><ele>6.2</ele><time>2022-11-16T14:06:19Z</time><name>PT7936</name></trkpt>
<trkpt lat="51.596979" lon="03.775343"><ele>6.2</ele><time>2022-11-16T14:06:20Z</time><name>PT7937</name></trkpt>
<trkpt lat="51.596976" lon="03.775327"><ele>6</ele><time>2022-11-16T14:06:21Z</time><name>PT7938</name></trkpt>
<trkpt lat="51.596973" lon="03.775312"><ele>5.9</ele><time>2022-11-16T14:06:22Z</time><name>PT7939</name></trkpt>
<trkpt lat="51.596970" lon="03.775297"><ele>5.9</ele><time>2022-11-16T14:06:23Z</time><name>PT7940</name></trkpt>
<trkpt lat="51.596971" lon="03.775285"><ele>5.9</ele><time>2022-11-16T14:06:24Z</time><name>PT7941</name></trkpt>
<trkpt lat="51.596973" lon="03.775285"><ele>5.9</ele><time>2022-11-16T14:06:25Z</time><name>PT7942</name></trkpt>
<trkpt lat="51.596972" lon="03.775282"><ele>5.9</ele><time>2022-11-16T14:06:26Z</time><name>PT7943</name></trkpt>
<trkpt lat="51.596971" lon="03.775273"><ele>6</ele><time>2022-11-16T14:06:27Z</time><name>PT7944</name></trkpt>
<trkpt lat="51.596970" lon="03.775258"><ele>6</ele><time>2022-11-16T14:06:28Z</time><name>PT7945</name></trkpt>
<trkpt lat="51.596969" lon="03.775240"><ele>5.7</ele><time>2022-11-16T14:06:29Z</time><name>PT7946</name></trkpt>
<trkpt lat="51.596966" lon="03.775222"><ele>5.7</ele><time>2022-11-16T14:06:30Z</time><name>PT7947</name></trkpt>
<trkpt lat="51.596964" lon="03.775205"><ele>5.7</ele><time>2022-11-16T14:06:31Z</time><name>PT7948</name></trkpt>
<trkpt lat="51.596962" lon="03.775187"><ele>5.7</ele><time>2022-11-16T14:06:32Z</time><name>PT7949</name></trkpt>
<trkpt lat="51.596959" lon="03.775170"><ele>5.9</ele><time>2022-11-16T14:06:33Z</time><name>PT7950</name></trkpt>
<trkpt lat="51.596958" lon="03.775153"><ele>6</ele><time>2022-11-16T14:06:34Z</time><name>PT7951</name></trkpt>
<trkpt lat="51.596957" lon="03.775137"><ele>6.1</ele><time>2022-11-16T14:06:35Z</time><name>PT7952</name></trkpt>
<trkpt lat="51.596956" lon="03.775122"><ele>6.3</ele><time>2022-11-16T14:06:36Z</time><name>PT7953</name></trkpt>
<trkpt lat="51.596956" lon="03.775107"><ele>6.3</ele><time>2022-11-16T14:06:37Z</time><name>PT7954</name></trkpt>
<trkpt lat="51.596956" lon="03.775090"><ele>6.2</ele><time>2022-11-16T14:06:38Z</time><name>PT7955</name></trkpt>
<trkpt lat="51.596956" lon="03.775073"><ele>6.2</ele><time>2022-11-16T14:06:39Z</time><name>PT7956</name></trkpt>
<trkpt lat="51.596955" lon="03.775057"><ele>6.4</ele><time>2022-11-16T14:06:40Z</time><name>PT7957</name></trkpt>
<trkpt lat="51.596955" lon="03.775040"><ele>6.4</ele><time>2022-11-16T14:06:41Z</time><name>PT7958</name></trkpt>
<trkpt lat="51.596954" lon="03.775022"><ele>6.2</ele><time>2022-11-16T14:06:42Z</time><name>PT7959</name></trkpt>
<trkpt lat="51.596954" lon="03.775004"><ele>6.2</ele><time>2022-11-16T14:06:43Z</time><name>PT7960</name></trkpt>
<trkpt lat="51.596953" lon="03.774987"><ele>6.4</ele><time>2022-11-16T14:06:44Z</time><name>PT7961</name></trkpt>
<trkpt lat="51.596952" lon="03.774972"><ele>6.4</ele><time>2022-11-16T14:06:45Z</time><name>PT7962</name></trkpt>
<trkpt lat="51.596951" lon="03.774956"><ele>6.2</ele><time>2022-11-16T14:06:46Z</time><name>PT7963</name></trkpt>
<trkpt lat="51.596951" lon="03.774941"><ele>6.3</ele><time>2022-11-16T14:06:47Z</time><name>PT7964</name></trkpt>
<trkpt lat="51.596951" lon="03.774925"><ele>6.2</ele><time>2022-11-16T14:06:48Z</time><name>PT7965</name></trkpt>
<trkpt lat="51.596951" lon="03.774908"><ele>6</ele><time>2022-11-16T14:06:49Z</time><name>PT7966</name></trkpt>
<trkpt lat="51.596952" lon="03.774891"><ele>5.8</ele><time>2022-11-16T14:06:50Z</time><name>PT7967</name></trkpt>
<trkpt lat="51.596955" lon="03.774875"><ele>5.7</ele><time>2022-11-16T14:06:51Z</time><name>PT7968</name></trkpt>
<trkpt lat="51.596956" lon="03.774859"><ele>5.7</ele><time>2022-11-16T14:06:52Z</time><name>PT7969</name></trkpt>
<trkpt lat="51.596957" lon="03.774843"><ele>5.7</ele><time>2022-11-16T14:06:53Z</time><name>PT7970</name></trkpt>
<trkpt lat="51.596956" lon="03.774826"><ele>5.7</ele><time>2022-11-16T14:06:54Z</time><name>PT7971</name></trkpt>
<trkpt lat="51.596955" lon="03.774810"><ele>5.7</ele><time>2022-11-16T14:06:55Z</time><name>PT7972</name></trkpt>
<trkpt lat="51.596954" lon="03.774794"><ele>5.7</ele><time>2022-11-16T14:06:56Z</time><name>PT7973</name></trkpt>
<trkpt lat="51.596953" lon="03.774785"><ele>5.7</ele><time>2022-11-16T14:06:57Z</time><name>PT7974</name></trkpt>
<trkpt lat="51.596952" lon="03.774778"><ele>5.7</ele><time>2022-11-16T14:06:58Z</time><name>PT7975</name></trkpt>
<trkpt lat="51.596954" lon="03.774768"><ele>5.6</ele><time>2022-11-16T14:06:59Z</time><name>PT7976</name></trkpt>
<trkpt lat="51.596957" lon="03.774751"><ele>5.6</ele><time>2022-11-16T14:07:00Z</time><name>PT7977</name></trkpt>
<trkpt lat="51.596960" lon="03.774728"><ele>5.5</ele><time>2022-11-16T14:07:01Z</time><name>PT7978</name></trkpt>
<trkpt lat="51.596963" lon="03.774704"><ele>5.4</ele><time>2022-11-16T14:07:02Z</time><name>PT7979</name></trkpt>
<trkpt lat="51.596962" lon="03.774678"><ele>5.5</ele><time>2022-11-16T14:07:03Z</time><name>PT7980</name></trkpt>
<trkpt lat="51.596964" lon="03.774658"><ele>5.6</ele><time>2022-11-16T14:07:04Z</time><name>PT7981</name></trkpt>
<trkpt lat="51.596965" lon="03.774641"><ele>5.7</ele><time>2022-11-16T14:07:05Z</time><name>PT7982</name></trkpt>
<trkpt lat="51.596965" lon="03.774622"><ele>5.7</ele><time>2022-11-16T14:07:06Z</time><name>PT7983</name></trkpt>
<trkpt lat="51.596963" lon="03.774610"><ele>5.8</ele><time>2022-11-16T14:07:07Z</time><name>PT7984</name></trkpt>
<trkpt lat="51.596967" lon="03.774592"><ele>6</ele><time>2022-11-16T14:07:08Z</time><name>PT7985</name></trkpt>
<trkpt lat="51.596972" lon="03.774575"><ele>6</ele><time>2022-11-16T14:07:09Z</time><name>PT7986</name></trkpt>
<trkpt lat="51.596974" lon="03.774554"><ele>6</ele><time>2022-11-16T14:07:10Z</time><name>PT7987</name></trkpt>
<trkpt lat="51.596978" lon="03.774535"><ele>5.9</ele><time>2022-11-16T14:07:11Z</time><name>PT7988</name></trkpt>
<trkpt lat="51.596978" lon="03.774521"><ele>6</ele><time>2022-11-16T14:07:12Z</time><name>PT7989</name></trkpt>
<trkpt lat="51.596980" lon="03.774500"><ele>5.9</ele><time>2022-11-16T14:07:13Z</time><name>PT7990</name></trkpt>
<trkpt lat="51.596984" lon="03.774479"><ele>5.9</ele><time>2022-11-16T14:07:14Z</time><name>PT7991</name></trkpt>
<trkpt lat="51.596988" lon="03.774459"><ele>6.1</ele><time>2022-11-16T14:07:15Z</time><name>PT7992</name></trkpt>
<trkpt lat="51.596992" lon="03.774440"><ele>6.2</ele><time>2022-11-16T14:07:16Z</time><name>PT7993</name></trkpt>
<trkpt lat="51.596998" lon="03.774422"><ele>6.2</ele><time>2022-11-16T14:07:17Z</time><name>PT7994</name></trkpt>
<trkpt lat="51.597002" lon="03.774403"><ele>6</ele><time>2022-11-16T14:07:18Z</time><name>PT7995</name></trkpt>
<trkpt lat="51.597007" lon="03.774374"><ele>6</ele><time>2022-11-16T14:07:19Z</time><name>PT7996</name></trkpt>
<trkpt lat="51.597011" lon="03.774346"><ele>5.8</ele><time>2022-11-16T14:07:20Z</time><name>PT7997</name></trkpt>
<trkpt lat="51.597014" lon="03.774325"><ele>5.6</ele><time>2022-11-16T14:07:21Z</time><name>PT7998</name></trkpt>
<trkpt lat="51.597015" lon="03.774307"><ele>5.5</ele><time>2022-11-16T14:07:22Z</time><name>PT7999</name></trkpt>
<trkpt lat="51.597017" lon="03.774293"><ele>5.5</ele><time>2022-11-16T14:07:23Z</time><name>PT8000</name></trkpt>
<trkpt lat="51.597019" lon="03.774279"><ele>5.3</ele><time>2022-11-16T14:07:24Z</time><name>PT8001</name></trkpt>
<trkpt lat="51.597023" lon="03.774265"><ele>5.3</ele><time>2022-11-16T14:07:25Z</time><name>PT8002</name></trkpt>
<trkpt lat="51.597026" lon="03.774252"><ele>5.5</ele><time>2022-11-16T14:07:26Z</time><name>PT8003</name></trkpt>
<trkpt lat="51.597029" lon="03.774243"><ele>5.3</ele><time>2022-11-16T14:07:27Z</time><name>PT8004</name></trkpt>
<trkpt lat="51.597032" lon="03.774235"><ele>5.4</ele><time>2022-11-16T14:07:28Z</time><name>PT8005</name></trkpt>
<trkpt lat="51.597037" lon="03.774226"><ele>5.4</ele><time>2022-11-16T14:07:29Z</time><name>PT8006</name></trkpt>
<trkpt lat="51.597043" lon="03.774214"><ele>5.4</ele><time>2022-11-16T14:07:30Z</time><name>PT8007</name></trkpt>
<trkpt lat="51.597049" lon="03.774202"><ele>5.6</ele><time>2022-11-16T14:07:31Z</time><name>PT8008</name></trkpt>
<trkpt lat="51.597055" lon="03.774188"><ele>5.7</ele><time>2022-11-16T14:07:32Z</time><name>PT8009</name></trkpt>
<trkpt lat="51.597061" lon="03.774174"><ele>5.7</ele><time>2022-11-16T14:07:33Z</time><name>PT8010</name></trkpt>
<trkpt lat="51.597068" lon="03.774163"><ele>5.7</ele><time>2022-11-16T14:07:34Z</time><name>PT8011</name></trkpt>
<trkpt lat="51.597076" lon="03.774149"><ele>5.8</ele><time>2022-11-16T14:07:35Z</time><name>PT8012</name></trkpt>
<trkpt lat="51.597086" lon="03.774130"><ele>5.8</ele><time>2022-11-16T14:07:36Z</time><name>PT8013</name></trkpt>
<trkpt lat="51.597093" lon="03.774110"><ele>5.8</ele><time>2022-11-16T14:07:37Z</time><name>PT8014</name></trkpt>
<trkpt lat="51.597099" lon="03.774088"><ele>5.9</ele><time>2022-11-16T14:07:38Z</time><name>PT8015</name></trkpt>
<trkpt lat="51.597104" lon="03.774062"><ele>5.7</ele><time>2022-11-16T14:07:39Z</time><name>PT8016</name></trkpt>
<trkpt lat="51.597108" lon="03.774037"><ele>5.7</ele><time>2022-11-16T14:07:40Z</time><name>PT8017</name></trkpt>
<trkpt lat="51.597112" lon="03.774011"><ele>5.8</ele><time>2022-11-16T14:07:41Z</time><name>PT8018</name></trkpt>
<trkpt lat="51.597117" lon="03.773991"><ele>5.7</ele><time>2022-11-16T14:07:42Z</time><name>PT8019</name></trkpt>
<trkpt lat="51.597120" lon="03.773971"><ele>5.7</ele><time>2022-11-16T14:07:43Z</time><name>PT8020</name></trkpt>
<trkpt lat="51.597123" lon="03.773954"><ele>5.7</ele><time>2022-11-16T14:07:44Z</time><name>PT8021</name></trkpt>
<trkpt lat="51.597125" lon="03.773940"><ele>5.7</ele><time>2022-11-16T14:07:45Z</time><name>PT8022</name></trkpt>
<trkpt lat="51.597127" lon="03.773926"><ele>5.7</ele><time>2022-11-16T14:07:46Z</time><name>PT8023</name></trkpt>
<trkpt lat="51.597131" lon="03.773915"><ele>5.7</ele><time>2022-11-16T14:07:47Z</time><name>PT8024</name></trkpt>
<trkpt lat="51.597135" lon="03.773903"><ele>5.7</ele><time>2022-11-16T14:07:48Z</time><name>PT8025</name></trkpt>
<trkpt lat="51.597138" lon="03.773892"><ele>5.7</ele><time>2022-11-16T14:07:49Z</time><name>PT8026</name></trkpt>
<trkpt lat="51.597141" lon="03.773882"><ele>5.7</ele><time>2022-11-16T14:07:50Z</time><name>PT8027</name></trkpt>
<trkpt lat="51.597146" lon="03.773873"><ele>5.7</ele><time>2022-11-16T14:07:51Z</time><name>PT8028</name></trkpt>
<trkpt lat="51.597153" lon="03.773859"><ele>5.7</ele><time>2022-11-16T14:07:52Z</time><name>PT8029</name></trkpt>
<trkpt lat="51.597157" lon="03.773846"><ele>5.7</ele><time>2022-11-16T14:07:53Z</time><name>PT8030</name></trkpt>
<trkpt lat="51.597164" lon="03.773830"><ele>5.7</ele><time>2022-11-16T14:07:54Z</time><name>PT8031</name></trkpt>
<trkpt lat="51.597171" lon="03.773811"><ele>5.7</ele><time>2022-11-16T14:07:55Z</time><name>PT8032</name></trkpt>
<trkpt lat="51.597177" lon="03.773791"><ele>5.7</ele><time>2022-11-16T14:07:56Z</time><name>PT8033</name></trkpt>
<trkpt lat="51.597184" lon="03.773767"><ele>5.8</ele><time>2022-11-16T14:07:57Z</time><name>PT8034</name></trkpt>
<trkpt lat="51.597190" lon="03.773740"><ele>5.8</ele><time>2022-11-16T14:07:58Z</time><name>PT8035</name></trkpt>
<trkpt lat="51.597195" lon="03.773717"><ele>5.9</ele><time>2022-11-16T14:07:59Z</time><name>PT8036</name></trkpt>
<trkpt lat="51.597199" lon="03.773699"><ele>6</ele><time>2022-11-16T14:08:00Z</time><name>PT8037</name></trkpt>
<trkpt lat="51.597202" lon="03.773682"><ele>6</ele><time>2022-11-16T14:08:01Z</time><name>PT8038</name></trkpt>
<trkpt lat="51.597204" lon="03.773666"><ele>6</ele><time>2022-11-16T14:08:02Z</time><name>PT8039</name></trkpt>
<trkpt lat="51.597207" lon="03.773656"><ele>5.8</ele><time>2022-11-16T14:08:03Z</time><name>PT8040</name></trkpt>
<trkpt lat="51.597211" lon="03.773643"><ele>5.7</ele><time>2022-11-16T14:08:04Z</time><name>PT8041</name></trkpt>
<trkpt lat="51.597216" lon="03.773631"><ele>5.8</ele><time>2022-11-16T14:08:05Z</time><name>PT8042</name></trkpt>
<trkpt lat="51.597222" lon="03.773617"><ele>5.8</ele><time>2022-11-16T14:08:06Z</time><name>PT8043</name></trkpt>
<trkpt lat="51.597229" lon="03.773602"><ele>5.8</ele><time>2022-11-16T14:08:07Z</time><name>PT8044</name></trkpt>
<trkpt lat="51.597236" lon="03.773583"><ele>5.7</ele><time>2022-11-16T14:08:08Z</time><name>PT8045</name></trkpt>
<trkpt lat="51.597241" lon="03.773561"><ele>5.7</ele><time>2022-11-16T14:08:09Z</time><name>PT8046</name></trkpt>
<trkpt lat="51.597248" lon="03.773537"><ele>5.6</ele><time>2022-11-16T14:08:10Z</time><name>PT8047</name></trkpt>
<trkpt lat="51.597253" lon="03.773514"><ele>5.7</ele><time>2022-11-16T14:08:11Z</time><name>PT8048</name></trkpt>
<trkpt lat="51.597255" lon="03.773491"><ele>5.7</ele><time>2022-11-16T14:08:12Z</time><name>PT8049</name></trkpt>
<trkpt lat="51.597258" lon="03.773472"><ele>5.8</ele><time>2022-11-16T14:08:13Z</time><name>PT8050</name></trkpt>
<trkpt lat="51.597262" lon="03.773454"><ele>5.9</ele><time>2022-11-16T14:08:14Z</time><name>PT8051</name></trkpt>
<trkpt lat="51.597266" lon="03.773440"><ele>5.9</ele><time>2022-11-16T14:08:15Z</time><name>PT8052</name></trkpt>
<trkpt lat="51.597268" lon="03.773429"><ele>5.7</ele><time>2022-11-16T14:08:16Z</time><name>PT8053</name></trkpt>
<trkpt lat="51.597271" lon="03.773417"><ele>5.9</ele><time>2022-11-16T14:08:17Z</time><name>PT8054</name></trkpt>
<trkpt lat="51.597274" lon="03.773405"><ele>6</ele><time>2022-11-16T14:08:18Z</time><name>PT8055</name></trkpt>
<trkpt lat="51.597278" lon="03.773394"><ele>6</ele><time>2022-11-16T14:08:19Z</time><name>PT8056</name></trkpt>
<trkpt lat="51.597284" lon="03.773382"><ele>5.9</ele><time>2022-11-16T14:08:20Z</time><name>PT8057</name></trkpt>
<trkpt lat="51.597291" lon="03.773365"><ele>6.2</ele><time>2022-11-16T14:08:21Z</time><name>PT8058</name></trkpt>
<trkpt lat="51.597296" lon="03.773347"><ele>6.1</ele><time>2022-11-16T14:08:22Z</time><name>PT8059</name></trkpt>
<trkpt lat="51.597300" lon="03.773326"><ele>6</ele><time>2022-11-16T14:08:23Z</time><name>PT8060</name></trkpt>
<trkpt lat="51.597303" lon="03.773304"><ele>6.1</ele><time>2022-11-16T14:08:24Z</time><name>PT8061</name></trkpt>
<trkpt lat="51.597306" lon="03.773287"><ele>6</ele><time>2022-11-16T14:08:25Z</time><name>PT8062</name></trkpt>
<trkpt lat="51.597308" lon="03.773274"><ele>6.1</ele><time>2022-11-16T14:08:26Z</time><name>PT8063</name></trkpt>
<trkpt lat="51.597311" lon="03.773263"><ele>6</ele><time>2022-11-16T14:08:27Z</time><name>PT8064</name></trkpt>
<trkpt lat="51.597315" lon="03.773253"><ele>6.2</ele><time>2022-11-16T14:08:28Z</time><name>PT8065</name></trkpt>
<trkpt lat="51.597320" lon="03.773243"><ele>6.2</ele><time>2022-11-16T14:08:29Z</time><name>PT8066</name></trkpt>
<trkpt lat="51.597326" lon="03.773226"><ele>6.1</ele><time>2022-11-16T14:08:30Z</time><name>PT8067</name></trkpt>
<trkpt lat="51.597332" lon="03.773204"><ele>5.9</ele><time>2022-11-16T14:08:31Z</time><name>PT8068</name></trkpt>
<trkpt lat="51.597337" lon="03.773177"><ele>5.9</ele><time>2022-11-16T14:08:32Z</time><name>PT8069</name></trkpt>
<trkpt lat="51.597340" lon="03.773151"><ele>5.8</ele><time>2022-11-16T14:08:33Z</time><name>PT8070</name></trkpt>
<trkpt lat="51.597343" lon="03.773135"><ele>5.7</ele><time>2022-11-16T14:08:34Z</time><name>PT8071</name></trkpt>
<trkpt lat="51.597347" lon="03.773123"><ele>5.7</ele><time>2022-11-16T14:08:35Z</time><name>PT8072</name></trkpt>
<trkpt lat="51.597351" lon="03.773108"><ele>5.9</ele><time>2022-11-16T14:08:36Z</time><name>PT8073</name></trkpt>
<trkpt lat="51.597354" lon="03.773094"><ele>6.1</ele><time>2022-11-16T14:08:37Z</time><name>PT8074</name></trkpt>
<trkpt lat="51.597355" lon="03.773077"><ele>6.2</ele><time>2022-11-16T14:08:38Z</time><name>PT8075</name></trkpt>
<trkpt lat="51.597355" lon="03.773062"><ele>6.3</ele><time>2022-11-16T14:08:39Z</time><name>PT8076</name></trkpt>
<trkpt lat="51.597360" lon="03.773046"><ele>6.5</ele><time>2022-11-16T14:08:40Z</time><name>PT8077</name></trkpt>
<trkpt lat="51.597366" lon="03.773030"><ele>6.3</ele><time>2022-11-16T14:08:41Z</time><name>PT8078</name></trkpt>
<trkpt lat="51.597369" lon="03.773012"><ele>6.3</ele><time>2022-11-16T14:08:42Z</time><name>PT8079</name></trkpt>
<trkpt lat="51.597371" lon="03.772994"><ele>6.3</ele><time>2022-11-16T14:08:43Z</time><name>PT8080</name></trkpt>
<trkpt lat="51.597372" lon="03.772977"><ele>6.4</ele><time>2022-11-16T14:08:44Z</time><name>PT8081</name></trkpt>
<trkpt lat="51.597374" lon="03.772962"><ele>6.5</ele><time>2022-11-16T14:08:45Z</time><name>PT8082</name></trkpt>
<trkpt lat="51.597378" lon="03.772952"><ele>6.5</ele><time>2022-11-16T14:08:46Z</time><name>PT8083</name></trkpt>
<trkpt lat="51.597384" lon="03.772941"><ele>6.3</ele><time>2022-11-16T14:08:47Z</time><name>PT8084</name></trkpt>
<trkpt lat="51.597392" lon="03.772926"><ele>6.1</ele><time>2022-11-16T14:08:48Z</time><name>PT8085</name></trkpt>
<trkpt lat="51.597400" lon="03.772908"><ele>6</ele><time>2022-11-16T14:08:49Z</time><name>PT8086</name></trkpt>
<trkpt lat="51.597405" lon="03.772891"><ele>5.7</ele><time>2022-11-16T14:08:50Z</time><name>PT8087</name></trkpt>
<trkpt lat="51.597407" lon="03.772875"><ele>5.8</ele><time>2022-11-16T14:08:51Z</time><name>PT8088</name></trkpt>
<trkpt lat="51.597408" lon="03.772862"><ele>5.9</ele><time>2022-11-16T14:08:52Z</time><name>PT8089</name></trkpt>
<trkpt lat="51.597411" lon="03.772850"><ele>6</ele><time>2022-11-16T14:08:53Z</time><name>PT8090</name></trkpt>
<trkpt lat="51.597417" lon="03.772836"><ele>6.1</ele><time>2022-11-16T14:08:54Z</time><name>PT8091</name></trkpt>
<trkpt lat="51.597424" lon="03.772819"><ele>6.1</ele><time>2022-11-16T14:08:55Z</time><name>PT8092</name></trkpt>
<trkpt lat="51.597432" lon="03.772803"><ele>5.9</ele><time>2022-11-16T14:08:56Z</time><name>PT8093</name></trkpt>
<trkpt lat="51.597439" lon="03.772783"><ele>5.8</ele><time>2022-11-16T14:08:57Z</time><name>PT8094</name></trkpt>
<trkpt lat="51.597446" lon="03.772759"><ele>5.8</ele><time>2022-11-16T14:08:58Z</time><name>PT8095</name></trkpt>
<trkpt lat="51.597453" lon="03.772736"><ele>5.8</ele><time>2022-11-16T14:08:59Z</time><name>PT8096</name></trkpt>
<trkpt lat="51.597457" lon="03.772720"><ele>5.9</ele><time>2022-11-16T14:09:00Z</time><name>PT8097</name></trkpt>
<trkpt lat="51.597457" lon="03.772713"><ele>5.9</ele><time>2022-11-16T14:09:01Z</time><name>PT8098</name></trkpt>
<trkpt lat="51.597457" lon="03.772708"><ele>5.9</ele><time>2022-11-16T14:09:02Z</time><name>PT8099</name></trkpt>
<trkpt lat="51.597460" lon="03.772696"><ele>6</ele><time>2022-11-16T14:09:03Z</time><name>PT8100</name></trkpt>
<trkpt lat="51.597468" lon="03.772676"><ele>5.8</ele><time>2022-11-16T14:09:04Z</time><name>PT8101</name></trkpt>
<trkpt lat="51.597478" lon="03.772650"><ele>5.8</ele><time>2022-11-16T14:09:05Z</time><name>PT8102</name></trkpt>
<trkpt lat="51.597487" lon="03.772622"><ele>5.8</ele><time>2022-11-16T14:09:06Z</time><name>PT8103</name></trkpt>
<trkpt lat="51.597494" lon="03.772602"><ele>5.9</ele><time>2022-11-16T14:09:07Z</time><name>PT8104</name></trkpt>
<trkpt lat="51.597497" lon="03.772587"><ele>6.1</ele><time>2022-11-16T14:09:08Z</time><name>PT8105</name></trkpt>
<trkpt lat="51.597497" lon="03.772579"><ele>6.1</ele><time>2022-11-16T14:09:09Z</time><name>PT8106</name></trkpt>
<trkpt lat="51.597497" lon="03.772574"><ele>6.2</ele><time>2022-11-16T14:09:10Z</time><name>PT8107</name></trkpt>
<trkpt lat="51.597502" lon="03.772566"><ele>6</ele><time>2022-11-16T14:09:11Z</time><name>PT8108</name></trkpt>
<trkpt lat="51.597507" lon="03.772552"><ele>6</ele><time>2022-11-16T14:09:12Z</time><name>PT8109</name></trkpt>
<trkpt lat="51.597515" lon="03.772529"><ele>5.8</ele><time>2022-11-16T14:09:13Z</time><name>PT8110</name></trkpt>
<trkpt lat="51.597521" lon="03.772505"><ele>5.9</ele><time>2022-11-16T14:09:14Z</time><name>PT8111</name></trkpt>
<trkpt lat="51.597523" lon="03.772488"><ele>5.8</ele><time>2022-11-16T14:09:15Z</time><name>PT8112</name></trkpt>
<trkpt lat="51.597524" lon="03.772476"><ele>5.8</ele><time>2022-11-16T14:09:16Z</time><name>PT8113</name></trkpt>
<trkpt lat="51.597526" lon="03.772465"><ele>5.7</ele><time>2022-11-16T14:09:17Z</time><name>PT8114</name></trkpt>
<trkpt lat="51.597530" lon="03.772452"><ele>5.7</ele><time>2022-11-16T14:09:18Z</time><name>PT8115</name></trkpt>
<trkpt lat="51.597536" lon="03.772435"><ele>5.7</ele><time>2022-11-16T14:09:19Z</time><name>PT8116</name></trkpt>
<trkpt lat="51.597543" lon="03.772416"><ele>5.7</ele><time>2022-11-16T14:09:20Z</time><name>PT8117</name></trkpt>
<trkpt lat="51.597547" lon="03.772397"><ele>5.8</ele><time>2022-11-16T14:09:21Z</time><name>PT8118</name></trkpt>
<trkpt lat="51.597549" lon="03.772377"><ele>5.8</ele><time>2022-11-16T14:09:22Z</time><name>PT8119</name></trkpt>
<trkpt lat="51.597549" lon="03.772361"><ele>5.9</ele><time>2022-11-16T14:09:23Z</time><name>PT8120</name></trkpt>
<trkpt lat="51.597552" lon="03.772349"><ele>6</ele><time>2022-11-16T14:09:24Z</time><name>PT8121</name></trkpt>
<trkpt lat="51.597555" lon="03.772339"><ele>6</ele><time>2022-11-16T14:09:25Z</time><name>PT8122</name></trkpt>
<trkpt lat="51.597560" lon="03.772327"><ele>6.1</ele><time>2022-11-16T14:09:26Z</time><name>PT8123</name></trkpt>
<trkpt lat="51.597567" lon="03.772308"><ele>6</ele><time>2022-11-16T14:09:27Z</time><name>PT8124</name></trkpt>
<trkpt lat="51.597574" lon="03.772284"><ele>6.1</ele><time>2022-11-16T14:09:28Z</time><name>PT8125</name></trkpt>
<trkpt lat="51.597577" lon="03.772260"><ele>6.2</ele><time>2022-11-16T14:09:29Z</time><name>PT8126</name></trkpt>
<trkpt lat="51.597579" lon="03.772240"><ele>6.2</ele><time>2022-11-16T14:09:30Z</time><name>PT8127</name></trkpt>
<trkpt lat="51.597581" lon="03.772223"><ele>6.2</ele><time>2022-11-16T14:09:31Z</time><name>PT8128</name></trkpt>
<trkpt lat="51.597585" lon="03.772208"><ele>6.2</ele><time>2022-11-16T14:09:32Z</time><name>PT8129</name></trkpt>
<trkpt lat="51.597591" lon="03.772192"><ele>6.1</ele><time>2022-11-16T14:09:33Z</time><name>PT8130</name></trkpt>
<trkpt lat="51.597598" lon="03.772177"><ele>6.1</ele><time>2022-11-16T14:09:34Z</time><name>PT8131</name></trkpt>
<trkpt lat="51.597603" lon="03.772160"><ele>5.7</ele><time>2022-11-16T14:09:35Z</time><name>PT8132</name></trkpt>
<trkpt lat="51.597608" lon="03.772138"><ele>5.7</ele><time>2022-11-16T14:09:36Z</time><name>PT8133</name></trkpt>
<trkpt lat="51.597610" lon="03.772117"><ele>5.7</ele><time>2022-11-16T14:09:37Z</time><name>PT8134</name></trkpt>
<trkpt lat="51.597612" lon="03.772099"><ele>5.6</ele><time>2022-11-16T14:09:38Z</time><name>PT8135</name></trkpt>
<trkpt lat="51.597615" lon="03.772085"><ele>5.7</ele><time>2022-11-16T14:09:39Z</time><name>PT8136</name></trkpt>
<trkpt lat="51.597619" lon="03.772073"><ele>5.8</ele><time>2022-11-16T14:09:40Z</time><name>PT8137</name></trkpt>
<trkpt lat="51.597623" lon="03.772061"><ele>5.7</ele><time>2022-11-16T14:09:41Z</time><name>PT8138</name></trkpt>
<trkpt lat="51.597629" lon="03.772047"><ele>5.9</ele><time>2022-11-16T14:09:42Z</time><name>PT8139</name></trkpt>
<trkpt lat="51.597636" lon="03.772029"><ele>5.9</ele><time>2022-11-16T14:09:43Z</time><name>PT8140</name></trkpt>
<trkpt lat="51.597640" lon="03.772009"><ele>5.8</ele><time>2022-11-16T14:09:44Z</time><name>PT8141</name></trkpt>
<trkpt lat="51.597642" lon="03.771989"><ele>5.7</ele><time>2022-11-16T14:09:45Z</time><name>PT8142</name></trkpt>
<trkpt lat="51.597645" lon="03.771975"><ele>5.8</ele><time>2022-11-16T14:09:46Z</time><name>PT8143</name></trkpt>
<trkpt lat="51.597646" lon="03.771964"><ele>5.7</ele><time>2022-11-16T14:09:47Z</time><name>PT8144</name></trkpt>
<trkpt lat="51.597647" lon="03.771953"><ele>5.8</ele><time>2022-11-16T14:09:48Z</time><name>PT8145</name></trkpt>
<trkpt lat="51.597651" lon="03.771940"><ele>5.9</ele><time>2022-11-16T14:09:49Z</time><name>PT8146</name></trkpt>
<trkpt lat="51.597656" lon="03.771925"><ele>5.9</ele><time>2022-11-16T14:09:50Z</time><name>PT8147</name></trkpt>
<trkpt lat="51.597661" lon="03.771905"><ele>5.9</ele><time>2022-11-16T14:09:51Z</time><name>PT8148</name></trkpt>
<trkpt lat="51.597666" lon="03.771880"><ele>6</ele><time>2022-11-16T14:09:52Z</time><name>PT8149</name></trkpt>
<trkpt lat="51.597670" lon="03.771857"><ele>5.9</ele><time>2022-11-16T14:09:53Z</time><name>PT8150</name></trkpt>
<trkpt lat="51.597673" lon="03.771843"><ele>5.7</ele><time>2022-11-16T14:09:54Z</time><name>PT8151</name></trkpt>
<trkpt lat="51.597674" lon="03.771831"><ele>5.7</ele><time>2022-11-16T14:09:55Z</time><name>PT8152</name></trkpt>
<trkpt lat="51.597675" lon="03.771824"><ele>5.7</ele><time>2022-11-16T14:09:56Z</time><name>PT8153</name></trkpt>
<trkpt lat="51.597677" lon="03.771816"><ele>5.7</ele><time>2022-11-16T14:09:57Z</time><name>PT8154</name></trkpt>
<trkpt lat="51.597681" lon="03.771800"><ele>5.7</ele><time>2022-11-16T14:09:58Z</time><name>PT8155</name></trkpt>
<trkpt lat="51.597686" lon="03.771780"><ele>5.7</ele><time>2022-11-16T14:09:59Z</time><name>PT8156</name></trkpt>
<trkpt lat="51.597689" lon="03.771763"><ele>5.8</ele><time>2022-11-16T14:10:00Z</time><name>PT8157</name></trkpt>
<trkpt lat="51.597689" lon="03.771750"><ele>5.8</ele><time>2022-11-16T14:10:01Z</time><name>PT8158</name></trkpt>
<trkpt lat="51.597688" lon="03.771739"><ele>5.7</ele><time>2022-11-16T14:10:02Z</time><name>PT8159</name></trkpt>
<trkpt lat="51.597689" lon="03.771729"><ele>5.7</ele><time>2022-11-16T14:10:03Z</time><name>PT8160</name></trkpt>
<trkpt lat="51.597692" lon="03.771718"><ele>5.9</ele><time>2022-11-16T14:10:04Z</time><name>PT8161</name></trkpt>
<trkpt lat="51.597697" lon="03.771705"><ele>5.7</ele><time>2022-11-16T14:10:05Z</time><name>PT8162</name></trkpt>
<trkpt lat="51.597700" lon="03.771689"><ele>6</ele><time>2022-11-16T14:10:06Z</time><name>PT8163</name></trkpt>
<trkpt lat="51.597705" lon="03.771669"><ele>6.1</ele><time>2022-11-16T14:10:07Z</time><name>PT8164</name></trkpt>
<trkpt lat="51.597708" lon="03.771652"><ele>6</ele><time>2022-11-16T14:10:08Z</time><name>PT8165</name></trkpt>
<trkpt lat="51.597710" lon="03.771636"><ele>5.9</ele><time>2022-11-16T14:10:09Z</time><name>PT8166</name></trkpt>
<trkpt lat="51.597712" lon="03.771624"><ele>6</ele><time>2022-11-16T14:10:10Z</time><name>PT8167</name></trkpt>
<trkpt lat="51.597714" lon="03.771613"><ele>5.7</ele><time>2022-11-16T14:10:11Z</time><name>PT8168</name></trkpt>
<trkpt lat="51.597717" lon="03.771601"><ele>5.7</ele><time>2022-11-16T14:10:12Z</time><name>PT8169</name></trkpt>
<trkpt lat="51.597721" lon="03.771583"><ele>5.7</ele><time>2022-11-16T14:10:13Z</time><name>PT8170</name></trkpt>
<trkpt lat="51.597724" lon="03.771561"><ele>5.7</ele><time>2022-11-16T14:10:14Z</time><name>PT8171</name></trkpt>
<trkpt lat="51.597728" lon="03.771542"><ele>5.7</ele><time>2022-11-16T14:10:15Z</time><name>PT8172</name></trkpt>
<trkpt lat="51.597729" lon="03.771526"><ele>5.7</ele><time>2022-11-16T14:10:16Z</time><name>PT8173</name></trkpt>
<trkpt lat="51.597730" lon="03.771514"><ele>5.7</ele><time>2022-11-16T14:10:17Z</time><name>PT8174</name></trkpt>
<trkpt lat="51.597731" lon="03.771504"><ele>5.6</ele><time>2022-11-16T14:10:18Z</time><name>PT8175</name></trkpt>
<trkpt lat="51.597735" lon="03.771491"><ele>5.5</ele><time>2022-11-16T14:10:19Z</time><name>PT8176</name></trkpt>
<trkpt lat="51.597739" lon="03.771473"><ele>5.4</ele><time>2022-11-16T14:10:20Z</time><name>PT8177</name></trkpt>
<trkpt lat="51.597743" lon="03.771454"><ele>5.5</ele><time>2022-11-16T14:10:21Z</time><name>PT8178</name></trkpt>
<trkpt lat="51.597745" lon="03.771438"><ele>5.4</ele><time>2022-11-16T14:10:22Z</time><name>PT8179</name></trkpt>
<trkpt lat="51.597746" lon="03.771423"><ele>5.7</ele><time>2022-11-16T14:10:23Z</time><name>PT8180</name></trkpt>
<trkpt lat="51.597746" lon="03.771411"><ele>5.7</ele><time>2022-11-16T14:10:24Z</time><name>PT8181</name></trkpt>
<trkpt lat="51.597748" lon="03.771399"><ele>5.7</ele><time>2022-11-16T14:10:25Z</time><name>PT8182</name></trkpt>
<trkpt lat="51.597752" lon="03.771386"><ele>5.7</ele><time>2022-11-16T14:10:26Z</time><name>PT8183</name></trkpt>
<trkpt lat="51.597757" lon="03.771371"><ele>5.7</ele><time>2022-11-16T14:10:27Z</time><name>PT8184</name></trkpt>
<trkpt lat="51.597762" lon="03.771354"><ele>5.7</ele><time>2022-11-16T14:10:28Z</time><name>PT8185</name></trkpt>
<trkpt lat="51.597763" lon="03.771335"><ele>5.7</ele><time>2022-11-16T14:10:29Z</time><name>PT8186</name></trkpt>
<trkpt lat="51.597765" lon="03.771323"><ele>5.8</ele><time>2022-11-16T14:10:30Z</time><name>PT8187</name></trkpt>
<trkpt lat="51.597766" lon="03.771309"><ele>5.8</ele><time>2022-11-16T14:10:31Z</time><name>PT8188</name></trkpt>
<trkpt lat="51.597768" lon="03.771299"><ele>5.8</ele><time>2022-11-16T14:10:32Z</time><name>PT8189</name></trkpt>
<trkpt lat="51.597771" lon="03.771286"><ele>5.8</ele><time>2022-11-16T14:10:33Z</time><name>PT8190</name></trkpt>
<trkpt lat="51.597775" lon="03.771272"><ele>5.7</ele><time>2022-11-16T14:10:34Z</time><name>PT8191</name></trkpt>
<trkpt lat="51.597779" lon="03.771251"><ele>5.7</ele><time>2022-11-16T14:10:35Z</time><name>PT8192</name></trkpt>
<trkpt lat="51.597784" lon="03.771230"><ele>5.9</ele><time>2022-11-16T14:10:36Z</time><name>PT8193</name></trkpt>
<trkpt lat="51.597786" lon="03.771210"><ele>6</ele><time>2022-11-16T14:10:37Z</time><name>PT8194</name></trkpt>
<trkpt lat="51.597786" lon="03.771195"><ele>6.1</ele><time>2022-11-16T14:10:38Z</time><name>PT8195</name></trkpt>
<trkpt lat="51.597787" lon="03.771182"><ele>6.2</ele><time>2022-11-16T14:10:39Z</time><name>PT8196</name></trkpt>
<trkpt lat="51.597788" lon="03.771172"><ele>6.1</ele><time>2022-11-16T14:10:40Z</time><name>PT8197</name></trkpt>
<trkpt lat="51.597792" lon="03.771159"><ele>6</ele><time>2022-11-16T14:10:41Z</time><name>PT8198</name></trkpt>
<trkpt lat="51.597798" lon="03.771140"><ele>5.9</ele><time>2022-11-16T14:10:42Z</time><name>PT8199</name></trkpt>
<trkpt lat="51.597803" lon="03.771115"><ele>5.9</ele><time>2022-11-16T14:10:43Z</time><name>PT8200</name></trkpt>
<trkpt lat="51.597806" lon="03.771091"><ele>5.9</ele><time>2022-11-16T14:10:44Z</time><name>PT8201</name></trkpt>
<trkpt lat="51.597808" lon="03.771070"><ele>6.1</ele><time>2022-11-16T14:10:45Z</time><name>PT8202</name></trkpt>
<trkpt lat="51.597809" lon="03.771052"><ele>6.2</ele><time>2022-11-16T14:10:46Z</time><name>PT8203</name></trkpt>
<trkpt lat="51.597810" lon="03.771040"><ele>6.2</ele><time>2022-11-16T14:10:47Z</time><name>PT8204</name></trkpt>
<trkpt lat="51.597813" lon="03.771030"><ele>6.3</ele><time>2022-11-16T14:10:48Z</time><name>PT8205</name></trkpt>
<trkpt lat="51.597817" lon="03.771013"><ele>6.2</ele><time>2022-11-16T14:10:49Z</time><name>PT8206</name></trkpt>
<trkpt lat="51.597823" lon="03.770994"><ele>6.2</ele><time>2022-11-16T14:10:50Z</time><name>PT8207</name></trkpt>
<trkpt lat="51.597827" lon="03.770972"><ele>6.3</ele><time>2022-11-16T14:10:51Z</time><name>PT8208</name></trkpt>
<trkpt lat="51.597830" lon="03.770947"><ele>6.2</ele><time>2022-11-16T14:10:52Z</time><name>PT8209</name></trkpt>
<trkpt lat="51.597833" lon="03.770921"><ele>6.1</ele><time>2022-11-16T14:10:53Z</time><name>PT8210</name></trkpt>
<trkpt lat="51.597835" lon="03.770893"><ele>5.9</ele><time>2022-11-16T14:10:54Z</time><name>PT8211</name></trkpt>
<trkpt lat="51.597836" lon="03.770879"><ele>5.9</ele><time>2022-11-16T14:10:55Z</time><name>PT8212</name></trkpt>
<trkpt lat="51.597838" lon="03.770866"><ele>5.7</ele><time>2022-11-16T14:10:56Z</time><name>PT8213</name></trkpt>
<trkpt lat="51.597842" lon="03.770855"><ele>5.7</ele><time>2022-11-16T14:10:57Z</time><name>PT8214</name></trkpt>
<trkpt lat="51.597849" lon="03.770837"><ele>5.7</ele><time>2022-11-16T14:10:58Z</time><name>PT8215</name></trkpt>
<trkpt lat="51.597854" lon="03.770817"><ele>5.8</ele><time>2022-11-16T14:10:59Z</time><name>PT8216</name></trkpt>
<trkpt lat="51.597857" lon="03.770793"><ele>5.8</ele><time>2022-11-16T14:11:00Z</time><name>PT8217</name></trkpt>
<trkpt lat="51.597860" lon="03.770771"><ele>5.9</ele><time>2022-11-16T14:11:01Z</time><name>PT8218</name></trkpt>
<trkpt lat="51.597862" lon="03.770755"><ele>5.9</ele><time>2022-11-16T14:11:02Z</time><name>PT8219</name></trkpt>
<trkpt lat="51.597864" lon="03.770741"><ele>5.8</ele><time>2022-11-16T14:11:03Z</time><name>PT8220</name></trkpt>
<trkpt lat="51.597864" lon="03.770730"><ele>5.9</ele><time>2022-11-16T14:11:04Z</time><name>PT8221</name></trkpt>
<trkpt lat="51.597868" lon="03.770716"><ele>5.8</ele><time>2022-11-16T14:11:05Z</time><name>PT8222</name></trkpt>
<trkpt lat="51.597873" lon="03.770697"><ele>5.7</ele><time>2022-11-16T14:11:06Z</time><name>PT8223</name></trkpt>
<trkpt lat="51.597879" lon="03.770674"><ele>5.9</ele><time>2022-11-16T14:11:07Z</time><name>PT8224</name></trkpt>
<trkpt lat="51.597883" lon="03.770649"><ele>6</ele><time>2022-11-16T14:11:08Z</time><name>PT8225</name></trkpt>
<trkpt lat="51.597885" lon="03.770628"><ele>6.2</ele><time>2022-11-16T14:11:09Z</time><name>PT8226</name></trkpt>
<trkpt lat="51.597886" lon="03.770614"><ele>6.1</ele><time>2022-11-16T14:11:10Z</time><name>PT8227</name></trkpt>
<trkpt lat="51.597887" lon="03.770602"><ele>6.2</ele><time>2022-11-16T14:11:11Z</time><name>PT8228</name></trkpt>
<trkpt lat="51.597890" lon="03.770589"><ele>5.9</ele><time>2022-11-16T14:11:12Z</time><name>PT8229</name></trkpt>
<trkpt lat="51.597892" lon="03.770576"><ele>5.8</ele><time>2022-11-16T14:11:13Z</time><name>PT8230</name></trkpt>
<trkpt lat="51.597896" lon="03.770564"><ele>5.7</ele><time>2022-11-16T14:11:14Z</time><name>PT8231</name></trkpt>
<trkpt lat="51.597901" lon="03.770546"><ele>5.7</ele><time>2022-11-16T14:11:15Z</time><name>PT8232</name></trkpt>
<trkpt lat="51.597905" lon="03.770526"><ele>5.6</ele><time>2022-11-16T14:11:16Z</time><name>PT8233</name></trkpt>
<trkpt lat="51.597909" lon="03.770502"><ele>5.6</ele><time>2022-11-16T14:11:17Z</time><name>PT8234</name></trkpt>
<trkpt lat="51.597912" lon="03.770476"><ele>5.8</ele><time>2022-11-16T14:11:18Z</time><name>PT8235</name></trkpt>
<trkpt lat="51.597914" lon="03.770457"><ele>5.7</ele><time>2022-11-16T14:11:19Z</time><name>PT8236</name></trkpt>
<trkpt lat="51.597916" lon="03.770443"><ele>5.7</ele><time>2022-11-16T14:11:20Z</time><name>PT8237</name></trkpt>
<trkpt lat="51.597920" lon="03.770429"><ele>5.8</ele><time>2022-11-16T14:11:21Z</time><name>PT8238</name></trkpt>
<trkpt lat="51.597923" lon="03.770414"><ele>6</ele><time>2022-11-16T14:11:22Z</time><name>PT8239</name></trkpt>
<trkpt lat="51.597927" lon="03.770399"><ele>6</ele><time>2022-11-16T14:11:23Z</time><name>PT8240</name></trkpt>
<trkpt lat="51.597932" lon="03.770382"><ele>5.9</ele><time>2022-11-16T14:11:24Z</time><name>PT8241</name></trkpt>
<trkpt lat="51.597938" lon="03.770361"><ele>6.1</ele><time>2022-11-16T14:11:25Z</time><name>PT8242</name></trkpt>
<trkpt lat="51.597941" lon="03.770336"><ele>6</ele><time>2022-11-16T14:11:26Z</time><name>PT8243</name></trkpt>
<trkpt lat="51.597943" lon="03.770312"><ele>6</ele><time>2022-11-16T14:11:27Z</time><name>PT8244</name></trkpt>
<trkpt lat="51.597942" lon="03.770295"><ele>5.9</ele><time>2022-11-16T14:11:28Z</time><name>PT8245</name></trkpt>
<trkpt lat="51.597943" lon="03.770280"><ele>6</ele><time>2022-11-16T14:11:29Z</time><name>PT8246</name></trkpt>
<trkpt lat="51.597947" lon="03.770267"><ele>5.9</ele><time>2022-11-16T14:11:30Z</time><name>PT8247</name></trkpt>
<trkpt lat="51.597949" lon="03.770255"><ele>6</ele><time>2022-11-16T14:11:31Z</time><name>PT8248</name></trkpt>
<trkpt lat="51.597953" lon="03.770242"><ele>5.9</ele><time>2022-11-16T14:11:32Z</time><name>PT8249</name></trkpt>
<trkpt lat="51.597954" lon="03.770223"><ele>6.2</ele><time>2022-11-16T14:11:33Z</time><name>PT8250</name></trkpt>
<trkpt lat="51.597958" lon="03.770205"><ele>6.2</ele><time>2022-11-16T14:11:34Z</time><name>PT8251</name></trkpt>
<trkpt lat="51.597960" lon="03.770181"><ele>6.2</ele><time>2022-11-16T14:11:35Z</time><name>PT8252</name></trkpt>
<trkpt lat="51.597963" lon="03.770156"><ele>6.2</ele><time>2022-11-16T14:11:36Z</time><name>PT8253</name></trkpt>
<trkpt lat="51.597966" lon="03.770130"><ele>6.2</ele><time>2022-11-16T14:11:37Z</time><name>PT8254</name></trkpt>
<trkpt lat="51.597967" lon="03.770107"><ele>6</ele><time>2022-11-16T14:11:38Z</time><name>PT8255</name></trkpt>
<trkpt lat="51.597968" lon="03.770091"><ele>6.2</ele><time>2022-11-16T14:11:39Z</time><name>PT8256</name></trkpt>
<trkpt lat="51.597967" lon="03.770067"><ele>6.2</ele><time>2022-11-16T14:11:40Z</time><name>PT8257</name></trkpt>
<trkpt lat="51.597969" lon="03.770055"><ele>6.2</ele><time>2022-11-16T14:11:41Z</time><name>PT8258</name></trkpt>
<trkpt lat="51.597971" lon="03.770040"><ele>6.2</ele><time>2022-11-16T14:11:42Z</time><name>PT8259</name></trkpt>
<trkpt lat="51.597975" lon="03.770029"><ele>6.2</ele><time>2022-11-16T14:11:43Z</time><name>PT8260</name></trkpt>
<trkpt lat="51.597982" lon="03.770013"><ele>5.7</ele><time>2022-11-16T14:11:44Z</time><name>PT8261</name></trkpt>
<trkpt lat="51.597987" lon="03.769993"><ele>5.7</ele><time>2022-11-16T14:11:45Z</time><name>PT8262</name></trkpt>
<trkpt lat="51.597991" lon="03.769972"><ele>5.6</ele><time>2022-11-16T14:11:46Z</time><name>PT8263</name></trkpt>
<trkpt lat="51.597993" lon="03.769953"><ele>5.7</ele><time>2022-11-16T14:11:47Z</time><name>PT8264</name></trkpt>
<trkpt lat="51.597994" lon="03.769936"><ele>5.8</ele><time>2022-11-16T14:11:48Z</time><name>PT8265</name></trkpt>
<trkpt lat="51.597994" lon="03.769919"><ele>6.1</ele><time>2022-11-16T14:11:49Z</time><name>PT8266</name></trkpt>
<trkpt lat="51.597995" lon="03.769898"><ele>6</ele><time>2022-11-16T14:11:50Z</time><name>PT8267</name></trkpt>
<trkpt lat="51.597998" lon="03.769882"><ele>6</ele><time>2022-11-16T14:11:51Z</time><name>PT8268</name></trkpt>
<trkpt lat="51.598002" lon="03.769868"><ele>6</ele><time>2022-11-16T14:11:52Z</time><name>PT8269</name></trkpt>
<trkpt lat="51.598004" lon="03.769858"><ele>6</ele><time>2022-11-16T14:11:53Z</time><name>PT8270</name></trkpt>
<trkpt lat="51.598006" lon="03.769841"><ele>6</ele><time>2022-11-16T14:11:54Z</time><name>PT8271</name></trkpt>
<trkpt lat="51.598008" lon="03.769824"><ele>6.2</ele><time>2022-11-16T14:11:55Z</time><name>PT8272</name></trkpt>
<trkpt lat="51.598010" lon="03.769807"><ele>6.2</ele><time>2022-11-16T14:11:56Z</time><name>PT8273</name></trkpt>
<trkpt lat="51.598015" lon="03.769786"><ele>6.2</ele><time>2022-11-16T14:11:57Z</time><name>PT8274</name></trkpt>
<trkpt lat="51.598021" lon="03.769760"><ele>6.2</ele><time>2022-11-16T14:11:58Z</time><name>PT8275</name></trkpt>
<trkpt lat="51.598024" lon="03.769732"><ele>6.1</ele><time>2022-11-16T14:11:59Z</time><name>PT8276</name></trkpt>
<trkpt lat="51.598027" lon="03.769712"><ele>5.7</ele><time>2022-11-16T14:12:00Z</time><name>PT8277</name></trkpt>
<trkpt lat="51.598028" lon="03.769695"><ele>5.7</ele><time>2022-11-16T14:12:01Z</time><name>PT8278</name></trkpt>
<trkpt lat="51.598029" lon="03.769683"><ele>5.6</ele><time>2022-11-16T14:12:02Z</time><name>PT8279</name></trkpt>
<trkpt lat="51.598032" lon="03.769671"><ele>5.6</ele><time>2022-11-16T14:12:03Z</time><name>PT8280</name></trkpt>
<trkpt lat="51.598037" lon="03.769656"><ele>5.5</ele><time>2022-11-16T14:12:04Z</time><name>PT8281</name></trkpt>
<trkpt lat="51.598042" lon="03.769643"><ele>5.4</ele><time>2022-11-16T14:12:05Z</time><name>PT8282</name></trkpt>
<trkpt lat="51.598046" lon="03.769626"><ele>5.4</ele><time>2022-11-16T14:12:06Z</time><name>PT8283</name></trkpt>
<trkpt lat="51.598050" lon="03.769607"><ele>5.4</ele><time>2022-11-16T14:12:07Z</time><name>PT8284</name></trkpt>
<trkpt lat="51.598052" lon="03.769584"><ele>5.5</ele><time>2022-11-16T14:12:08Z</time><name>PT8285</name></trkpt>
<trkpt lat="51.598055" lon="03.769560"><ele>5.7</ele><time>2022-11-16T14:12:09Z</time><name>PT8286</name></trkpt>
<trkpt lat="51.598058" lon="03.769540"><ele>5.8</ele><time>2022-11-16T14:12:10Z</time><name>PT8287</name></trkpt>
<trkpt lat="51.598061" lon="03.769526"><ele>5.7</ele><time>2022-11-16T14:12:11Z</time><name>PT8288</name></trkpt>
<trkpt lat="51.598063" lon="03.769514"><ele>5.8</ele><time>2022-11-16T14:12:12Z</time><name>PT8289</name></trkpt>
<trkpt lat="51.598066" lon="03.769504"><ele>5.7</ele><time>2022-11-16T14:12:13Z</time><name>PT8290</name></trkpt>
<trkpt lat="51.598069" lon="03.769492"><ele>5.6</ele><time>2022-11-16T14:12:14Z</time><name>PT8291</name></trkpt>
<trkpt lat="51.598073" lon="03.769476"><ele>5.6</ele><time>2022-11-16T14:12:15Z</time><name>PT8292</name></trkpt>
<trkpt lat="51.598079" lon="03.769452"><ele>5.8</ele><time>2022-11-16T14:12:16Z</time><name>PT8293</name></trkpt>
<trkpt lat="51.598087" lon="03.769422"><ele>5.8</ele><time>2022-11-16T14:12:17Z</time><name>PT8294</name></trkpt>
<trkpt lat="51.598093" lon="03.769400"><ele>5.8</ele><time>2022-11-16T14:12:18Z</time><name>PT8295</name></trkpt>
<trkpt lat="51.598092" lon="03.769385"><ele>5.9</ele><time>2022-11-16T14:12:19Z</time><name>PT8296</name></trkpt>
<trkpt lat="51.598093" lon="03.769370"><ele>6.1</ele><time>2022-11-16T14:12:20Z</time><name>PT8297</name></trkpt>
<trkpt lat="51.598094" lon="03.769357"><ele>6.1</ele><time>2022-11-16T14:12:21Z</time><name>PT8298</name></trkpt>
<trkpt lat="51.598096" lon="03.769341"><ele>6.2</ele><time>2022-11-16T14:12:22Z</time><name>PT8299</name></trkpt>
<trkpt lat="51.598097" lon="03.769332"><ele>6.3</ele><time>2022-11-16T14:12:23Z</time><name>PT8300</name></trkpt>
<trkpt lat="51.598099" lon="03.769325"><ele>6.3</ele><time>2022-11-16T14:12:24Z</time><name>PT8301</name></trkpt>
<trkpt lat="51.598101" lon="03.769314"><ele>6.2</ele><time>2022-11-16T14:12:25Z</time><name>PT8302</name></trkpt>
<trkpt lat="51.598106" lon="03.769296"><ele>6.2</ele><time>2022-11-16T14:12:26Z</time><name>PT8303</name></trkpt>
<trkpt lat="51.598109" lon="03.769277"><ele>6.3</ele><time>2022-11-16T14:12:27Z</time><name>PT8304</name></trkpt>
<trkpt lat="51.598112" lon="03.769260"><ele>6.4</ele><time>2022-11-16T14:12:28Z</time><name>PT8305</name></trkpt>
<trkpt lat="51.598114" lon="03.769241"><ele>6.6</ele><time>2022-11-16T14:12:29Z</time><name>PT8306</name></trkpt>
<trkpt lat="51.598114" lon="03.769224"><ele>6.8</ele><time>2022-11-16T14:12:30Z</time><name>PT8307</name></trkpt>
<trkpt lat="51.598116" lon="03.769206"><ele>6.8</ele><time>2022-11-16T14:12:31Z</time><name>PT8308</name></trkpt>
<trkpt lat="51.598116" lon="03.769188"><ele>6.9</ele><time>2022-11-16T14:12:32Z</time><name>PT8309</name></trkpt>
<trkpt lat="51.598116" lon="03.769169"><ele>7</ele><time>2022-11-16T14:12:33Z</time><name>PT8310</name></trkpt>
<trkpt lat="51.598117" lon="03.769149"><ele>6.8</ele><time>2022-11-16T14:12:34Z</time><name>PT8311</name></trkpt>
<trkpt lat="51.598115" lon="03.769128"><ele>6.7</ele><time>2022-11-16T14:12:35Z</time><name>PT8312</name></trkpt>
<trkpt lat="51.598112" lon="03.769110"><ele>6.3</ele><time>2022-11-16T14:12:36Z</time><name>PT8313</name></trkpt>
<trkpt lat="51.598111" lon="03.769099"><ele>6.2</ele><time>2022-11-16T14:12:37Z</time><name>PT8314</name></trkpt>
<trkpt lat="51.598111" lon="03.769088"><ele>6.1</ele><time>2022-11-16T14:12:38Z</time><name>PT8315</name></trkpt>
<trkpt lat="51.598113" lon="03.769077"><ele>6.1</ele><time>2022-11-16T14:12:39Z</time><name>PT8316</name></trkpt>
<trkpt lat="51.598117" lon="03.769062"><ele>5.9</ele><time>2022-11-16T14:12:40Z</time><name>PT8317</name></trkpt>
<trkpt lat="51.598120" lon="03.769044"><ele>5.7</ele><time>2022-11-16T14:12:41Z</time><name>PT8318</name></trkpt>
<trkpt lat="51.598123" lon="03.769023"><ele>5.7</ele><time>2022-11-16T14:12:42Z</time><name>PT8319</name></trkpt>
<trkpt lat="51.598125" lon="03.768998"><ele>5.7</ele><time>2022-11-16T14:12:43Z</time><name>PT8320</name></trkpt>
<trkpt lat="51.598124" lon="03.768972"><ele>5.6</ele><time>2022-11-16T14:12:44Z</time><name>PT8321</name></trkpt>
<trkpt lat="51.598124" lon="03.768949"><ele>5.6</ele><time>2022-11-16T14:12:45Z</time><name>PT8322</name></trkpt>
<trkpt lat="51.598122" lon="03.768921"><ele>5.7</ele><time>2022-11-16T14:12:46Z</time><name>PT8323</name></trkpt>
<trkpt lat="51.598121" lon="03.768906"><ele>5.7</ele><time>2022-11-16T14:12:47Z</time><name>PT8324</name></trkpt>
<trkpt lat="51.598122" lon="03.768895"><ele>5.7</ele><time>2022-11-16T14:12:48Z</time><name>PT8325</name></trkpt>
<trkpt lat="51.598123" lon="03.768878"><ele>5.8</ele><time>2022-11-16T14:12:49Z</time><name>PT8326</name></trkpt>
<trkpt lat="51.598126" lon="03.768865"><ele>5.9</ele><time>2022-11-16T14:12:50Z</time><name>PT8327</name></trkpt>
<trkpt lat="51.598131" lon="03.768846"><ele>6.1</ele><time>2022-11-16T14:12:51Z</time><name>PT8328</name></trkpt>
<trkpt lat="51.598132" lon="03.768820"><ele>6</ele><time>2022-11-16T14:12:52Z</time><name>PT8329</name></trkpt>
<trkpt lat="51.598136" lon="03.768803"><ele>6.2</ele><time>2022-11-16T14:12:53Z</time><name>PT8330</name></trkpt>
<trkpt lat="51.598139" lon="03.768790"><ele>6.3</ele><time>2022-11-16T14:12:54Z</time><name>PT8331</name></trkpt>
<trkpt lat="51.598138" lon="03.768773"><ele>6.5</ele><time>2022-11-16T14:12:55Z</time><name>PT8332</name></trkpt>
<trkpt lat="51.598139" lon="03.768756"><ele>6.7</ele><time>2022-11-16T14:12:56Z</time><name>PT8333</name></trkpt>
<trkpt lat="51.598140" lon="03.768738"><ele>6.5</ele><time>2022-11-16T14:12:57Z</time><name>PT8334</name></trkpt>
<trkpt lat="51.598141" lon="03.768718"><ele>6.6</ele><time>2022-11-16T14:12:58Z</time><name>PT8335</name></trkpt>
<trkpt lat="51.598142" lon="03.768699"><ele>6.7</ele><time>2022-11-16T14:12:59Z</time><name>PT8336</name></trkpt>
<trkpt lat="51.598144" lon="03.768680"><ele>6.7</ele><time>2022-11-16T14:13:00Z</time><name>PT8337</name></trkpt>
<trkpt lat="51.598147" lon="03.768662"><ele>6.7</ele><time>2022-11-16T14:13:01Z</time><name>PT8338</name></trkpt>
<trkpt lat="51.598150" lon="03.768643"><ele>6.8</ele><time>2022-11-16T14:13:02Z</time><name>PT8339</name></trkpt>
<trkpt lat="51.598153" lon="03.768625"><ele>6.7</ele><time>2022-11-16T14:13:03Z</time><name>PT8340</name></trkpt>
<trkpt lat="51.598156" lon="03.768608"><ele>6.7</ele><time>2022-11-16T14:13:04Z</time><name>PT8341</name></trkpt>
<trkpt lat="51.598158" lon="03.768592"><ele>6.4</ele><time>2022-11-16T14:13:05Z</time><name>PT8342</name></trkpt>
<trkpt lat="51.598160" lon="03.768576"><ele>6.4</ele><time>2022-11-16T14:13:06Z</time><name>PT8343</name></trkpt>
<trkpt lat="51.598162" lon="03.768559"><ele>6.2</ele><time>2022-11-16T14:13:07Z</time><name>PT8344</name></trkpt>
<trkpt lat="51.598164" lon="03.768543"><ele>6.2</ele><time>2022-11-16T14:13:08Z</time><name>PT8345</name></trkpt>
<trkpt lat="51.598165" lon="03.768527"><ele>6.2</ele><time>2022-11-16T14:13:09Z</time><name>PT8346</name></trkpt>
<trkpt lat="51.598167" lon="03.768510"><ele>6.2</ele><time>2022-11-16T14:13:10Z</time><name>PT8347</name></trkpt>
<trkpt lat="51.598168" lon="03.768494"><ele>6.5</ele><time>2022-11-16T14:13:11Z</time><name>PT8348</name></trkpt>
<trkpt lat="51.598169" lon="03.768487"><ele>6.5</ele><time>2022-11-16T14:13:12Z</time><name>PT8349</name></trkpt>
<trkpt lat="51.598173" lon="03.768472"><ele>6.6</ele><time>2022-11-16T14:13:13Z</time><name>PT8350</name></trkpt>
<trkpt lat="51.598179" lon="03.768455"><ele>6.8</ele><time>2022-11-16T14:13:14Z</time><name>PT8351</name></trkpt>
<trkpt lat="51.598182" lon="03.768440"><ele>6.7</ele><time>2022-11-16T14:13:15Z</time><name>PT8352</name></trkpt>
<trkpt lat="51.598183" lon="03.768422"><ele>6.6</ele><time>2022-11-16T14:13:16Z</time><name>PT8353</name></trkpt>
<trkpt lat="51.598185" lon="03.768404"><ele>6.6</ele><time>2022-11-16T14:13:17Z</time><name>PT8354</name></trkpt>
<trkpt lat="51.598187" lon="03.768384"><ele>6.2</ele><time>2022-11-16T14:13:18Z</time><name>PT8355</name></trkpt>
<trkpt lat="51.598188" lon="03.768369"><ele>6.2</ele><time>2022-11-16T14:13:19Z</time><name>PT8356</name></trkpt>
<trkpt lat="51.598190" lon="03.768358"><ele>6.2</ele><time>2022-11-16T14:13:20Z</time><name>PT8357</name></trkpt>
<trkpt lat="51.598194" lon="03.768346"><ele>6.2</ele><time>2022-11-16T14:13:21Z</time><name>PT8358</name></trkpt>
<trkpt lat="51.598197" lon="03.768331"><ele>6.2</ele><time>2022-11-16T14:13:22Z</time><name>PT8359</name></trkpt>
<trkpt lat="51.598201" lon="03.768312"><ele>6.2</ele><time>2022-11-16T14:13:23Z</time><name>PT8360</name></trkpt>
<trkpt lat="51.598206" lon="03.768293"><ele>6.5</ele><time>2022-11-16T14:13:24Z</time><name>PT8361</name></trkpt>
<trkpt lat="51.598209" lon="03.768273"><ele>6.4</ele><time>2022-11-16T14:13:25Z</time><name>PT8362</name></trkpt>
<trkpt lat="51.598212" lon="03.768254"><ele>6.4</ele><time>2022-11-16T14:13:26Z</time><name>PT8363</name></trkpt>
<trkpt lat="51.598215" lon="03.768235"><ele>6.5</ele><time>2022-11-16T14:13:27Z</time><name>PT8364</name></trkpt>
<trkpt lat="51.598217" lon="03.768215"><ele>6.5</ele><time>2022-11-16T14:13:28Z</time><name>PT8365</name></trkpt>
<trkpt lat="51.598219" lon="03.768196"><ele>6.5</ele><time>2022-11-16T14:13:29Z</time><name>PT8366</name></trkpt>
<trkpt lat="51.598221" lon="03.768179"><ele>6.5</ele><time>2022-11-16T14:13:30Z</time><name>PT8367</name></trkpt>
<trkpt lat="51.598224" lon="03.768164"><ele>6.5</ele><time>2022-11-16T14:13:31Z</time><name>PT8368</name></trkpt>
<trkpt lat="51.598230" lon="03.768149"><ele>6.3</ele><time>2022-11-16T14:13:32Z</time><name>PT8369</name></trkpt>
<trkpt lat="51.598235" lon="03.768133"><ele>6.2</ele><time>2022-11-16T14:13:33Z</time><name>PT8370</name></trkpt>
<trkpt lat="51.598239" lon="03.768116"><ele>6.4</ele><time>2022-11-16T14:13:34Z</time><name>PT8371</name></trkpt>
<trkpt lat="51.598242" lon="03.768099"><ele>6.5</ele><time>2022-11-16T14:13:35Z</time><name>PT8372</name></trkpt>
<trkpt lat="51.598245" lon="03.768082"><ele>6.7</ele><time>2022-11-16T14:13:36Z</time><name>PT8373</name></trkpt>
<trkpt lat="51.598248" lon="03.768064"><ele>6.7</ele><time>2022-11-16T14:13:37Z</time><name>PT8374</name></trkpt>
<trkpt lat="51.598250" lon="03.768046"><ele>6.8</ele><time>2022-11-16T14:13:38Z</time><name>PT8375</name></trkpt>
<trkpt lat="51.598252" lon="03.768028"><ele>6.5</ele><time>2022-11-16T14:13:39Z</time><name>PT8376</name></trkpt>
<trkpt lat="51.598254" lon="03.768014"><ele>6.4</ele><time>2022-11-16T14:13:40Z</time><name>PT8377</name></trkpt>
<trkpt lat="51.598258" lon="03.767999"><ele>6.3</ele><time>2022-11-16T14:13:41Z</time><name>PT8378</name></trkpt>
<trkpt lat="51.598261" lon="03.767981"><ele>6.2</ele><time>2022-11-16T14:13:42Z</time><name>PT8379</name></trkpt>
<trkpt lat="51.598264" lon="03.767963"><ele>6.1</ele><time>2022-11-16T14:13:43Z</time><name>PT8380</name></trkpt>
<trkpt lat="51.598267" lon="03.767946"><ele>6.1</ele><time>2022-11-16T14:13:44Z</time><name>PT8381</name></trkpt>
<trkpt lat="51.598271" lon="03.767930"><ele>6</ele><time>2022-11-16T14:13:45Z</time><name>PT8382</name></trkpt>
<trkpt lat="51.598274" lon="03.767913"><ele>6</ele><time>2022-11-16T14:13:46Z</time><name>PT8383</name></trkpt>
<trkpt lat="51.598278" lon="03.767896"><ele>6.2</ele><time>2022-11-16T14:13:47Z</time><name>PT8384</name></trkpt>
<trkpt lat="51.598281" lon="03.767877"><ele>6.2</ele><time>2022-11-16T14:13:48Z</time><name>PT8385</name></trkpt>
<trkpt lat="51.598283" lon="03.767857"><ele>6.3</ele><time>2022-11-16T14:13:49Z</time><name>PT8386</name></trkpt>
<trkpt lat="51.598283" lon="03.767839"><ele>6.4</ele><time>2022-11-16T14:13:50Z</time><name>PT8387</name></trkpt>
<trkpt lat="51.598284" lon="03.767822"><ele>6.3</ele><time>2022-11-16T14:13:51Z</time><name>PT8388</name></trkpt>
<trkpt lat="51.598285" lon="03.767805"><ele>6.2</ele><time>2022-11-16T14:13:52Z</time><name>PT8389</name></trkpt>
<trkpt lat="51.598285" lon="03.767788"><ele>6.2</ele><time>2022-11-16T14:13:53Z</time><name>PT8390</name></trkpt>
<trkpt lat="51.598286" lon="03.767771"><ele>6.3</ele><time>2022-11-16T14:13:54Z</time><name>PT8391</name></trkpt>
<trkpt lat="51.598284" lon="03.767753"><ele>6.2</ele><time>2022-11-16T14:13:55Z</time><name>PT8392</name></trkpt>
<trkpt lat="51.598284" lon="03.767732"><ele>6.2</ele><time>2022-11-16T14:13:56Z</time><name>PT8393</name></trkpt>
<trkpt lat="51.598283" lon="03.767706"><ele>6.1</ele><time>2022-11-16T14:13:57Z</time><name>PT8394</name></trkpt>
<trkpt lat="51.598282" lon="03.767680"><ele>5.9</ele><time>2022-11-16T14:13:58Z</time><name>PT8395</name></trkpt>
<trkpt lat="51.598278" lon="03.767660"><ele>5.7</ele><time>2022-11-16T14:13:59Z</time><name>PT8396</name></trkpt>
<trkpt lat="51.598275" lon="03.767643"><ele>5.6</ele><time>2022-11-16T14:14:00Z</time><name>PT8397</name></trkpt>
<trkpt lat="51.598273" lon="03.767629"><ele>5.5</ele><time>2022-11-16T14:14:01Z</time><name>PT8398</name></trkpt>
<trkpt lat="51.598272" lon="03.767617"><ele>5.4</ele><time>2022-11-16T14:14:02Z</time><name>PT8399</name></trkpt>
<trkpt lat="51.598273" lon="03.767604"><ele>5.6</ele><time>2022-11-16T14:14:03Z</time><name>PT8400</name></trkpt>
<trkpt lat="51.598274" lon="03.767589"><ele>5.6</ele><time>2022-11-16T14:14:04Z</time><name>PT8401</name></trkpt>
<trkpt lat="51.598277" lon="03.767573"><ele>5.6</ele><time>2022-11-16T14:14:05Z</time><name>PT8402</name></trkpt>
<trkpt lat="51.598282" lon="03.767536"><ele>5.8</ele><time>2022-11-16T14:14:07Z</time><name>PT8403</name></trkpt>
<trkpt lat="51.598282" lon="03.767515"><ele>5.9</ele><time>2022-11-16T14:14:08Z</time><name>PT8404</name></trkpt>
<trkpt lat="51.598282" lon="03.767492"><ele>5.7</ele><time>2022-11-16T14:14:09Z</time><name>PT8405</name></trkpt>
<trkpt lat="51.598283" lon="03.767473"><ele>5.8</ele><time>2022-11-16T14:14:10Z</time><name>PT8406</name></trkpt>
<trkpt lat="51.598282" lon="03.767453"><ele>5.6</ele><time>2022-11-16T14:14:11Z</time><name>PT8407</name></trkpt>
<trkpt lat="51.598283" lon="03.767436"><ele>5.6</ele><time>2022-11-16T14:14:12Z</time><name>PT8408</name></trkpt>
<trkpt lat="51.598285" lon="03.767420"><ele>5.4</ele><time>2022-11-16T14:14:13Z</time><name>PT8409</name></trkpt>
<trkpt lat="51.598287" lon="03.767409"><ele>5.5</ele><time>2022-11-16T14:14:14Z</time><name>PT8410</name></trkpt>
<trkpt lat="51.598290" lon="03.767397"><ele>5.4</ele><time>2022-11-16T14:14:15Z</time><name>PT8411</name></trkpt>
<trkpt lat="51.598293" lon="03.767386"><ele>5.4</ele><time>2022-11-16T14:14:16Z</time><name>PT8412</name></trkpt>
<trkpt lat="51.598297" lon="03.767372"><ele>5.4</ele><time>2022-11-16T14:14:17Z</time><name>PT8413</name></trkpt>
<trkpt lat="51.598302" lon="03.767352"><ele>5.3</ele><time>2022-11-16T14:14:18Z</time><name>PT8414</name></trkpt>
<trkpt lat="51.598307" lon="03.767329"><ele>5.3</ele><time>2022-11-16T14:14:19Z</time><name>PT8415</name></trkpt>
<trkpt lat="51.598311" lon="03.767301"><ele>5.1</ele><time>2022-11-16T14:14:20Z</time><name>PT8416</name></trkpt>
<trkpt lat="51.598314" lon="03.767276"><ele>4.9</ele><time>2022-11-16T14:14:21Z</time><name>PT8417</name></trkpt>
<trkpt lat="51.598316" lon="03.767256"><ele>5</ele><time>2022-11-16T14:14:22Z</time><name>PT8418</name></trkpt>
<trkpt lat="51.598317" lon="03.767241"><ele>5</ele><time>2022-11-16T14:14:23Z</time><name>PT8419</name></trkpt>
<trkpt lat="51.598318" lon="03.767228"><ele>4.9</ele><time>2022-11-16T14:14:24Z</time><name>PT8420</name></trkpt>
<trkpt lat="51.598322" lon="03.767214"><ele>5.2</ele><time>2022-11-16T14:14:25Z</time><name>PT8421</name></trkpt>
<trkpt lat="51.598326" lon="03.767201"><ele>5.4</ele><time>2022-11-16T14:14:26Z</time><name>PT8422</name></trkpt>
<trkpt lat="51.598331" lon="03.767187"><ele>5.3</ele><time>2022-11-16T14:14:27Z</time><name>PT8423</name></trkpt>
<trkpt lat="51.598337" lon="03.767173"><ele>5.4</ele><time>2022-11-16T14:14:28Z</time><name>PT8424</name></trkpt>
<trkpt lat="51.598341" lon="03.767155"><ele>5.4</ele><time>2022-11-16T14:14:29Z</time><name>PT8425</name></trkpt>
<trkpt lat="51.598346" lon="03.767133"><ele>5.3</ele><time>2022-11-16T14:14:30Z</time><name>PT8426</name></trkpt>
<trkpt lat="51.598350" lon="03.767111"><ele>5.2</ele><time>2022-11-16T14:14:31Z</time><name>PT8427</name></trkpt>
<trkpt lat="51.598354" lon="03.767088"><ele>5.1</ele><time>2022-11-16T14:14:32Z</time><name>PT8428</name></trkpt>
<trkpt lat="51.598359" lon="03.767063"><ele>5</ele><time>2022-11-16T14:14:33Z</time><name>PT8429</name></trkpt>
<trkpt lat="51.598361" lon="03.767040"><ele>5.2</ele><time>2022-11-16T14:14:34Z</time><name>PT8430</name></trkpt>
<trkpt lat="51.598363" lon="03.767018"><ele>5.2</ele><time>2022-11-16T14:14:35Z</time><name>PT8431</name></trkpt>
<trkpt lat="51.598366" lon="03.766996"><ele>5.4</ele><time>2022-11-16T14:14:36Z</time><name>PT8432</name></trkpt>
<trkpt lat="51.598369" lon="03.766977"><ele>5.5</ele><time>2022-11-16T14:14:37Z</time><name>PT8433</name></trkpt>
<trkpt lat="51.598370" lon="03.766962"><ele>5.6</ele><time>2022-11-16T14:14:38Z</time><name>PT8434</name></trkpt>
<trkpt lat="51.598370" lon="03.766953"><ele>5.7</ele><time>2022-11-16T14:14:39Z</time><name>PT8435</name></trkpt>
<trkpt lat="51.598372" lon="03.766940"><ele>5.8</ele><time>2022-11-16T14:14:40Z</time><name>PT8436</name></trkpt>
<trkpt lat="51.598377" lon="03.766924"><ele>6.2</ele><time>2022-11-16T14:14:41Z</time><name>PT8437</name></trkpt>
<trkpt lat="51.598382" lon="03.766908"><ele>6.3</ele><time>2022-11-16T14:14:42Z</time><name>PT8438</name></trkpt>
<trkpt lat="51.598386" lon="03.766892"><ele>6.3</ele><time>2022-11-16T14:14:43Z</time><name>PT8439</name></trkpt>
<trkpt lat="51.598389" lon="03.766876"><ele>6.3</ele><time>2022-11-16T14:14:44Z</time><name>PT8440</name></trkpt>
<trkpt lat="51.598392" lon="03.766858"><ele>6.2</ele><time>2022-11-16T14:14:45Z</time><name>PT8441</name></trkpt>
<trkpt lat="51.598393" lon="03.766839"><ele>6.2</ele><time>2022-11-16T14:14:46Z</time><name>PT8442</name></trkpt>
<trkpt lat="51.598395" lon="03.766833"><ele>6.2</ele><time>2022-11-16T14:14:47Z</time><name>PT8443</name></trkpt>
<trkpt lat="51.598397" lon="03.766826"><ele>6.2</ele><time>2022-11-16T14:14:48Z</time><name>PT8444</name></trkpt>
<trkpt lat="51.598401" lon="03.766817"><ele>6.2</ele><time>2022-11-16T14:14:49Z</time><name>PT8445</name></trkpt>
<trkpt lat="51.598406" lon="03.766803"><ele>6</ele><time>2022-11-16T14:14:50Z</time><name>PT8446</name></trkpt>
<trkpt lat="51.598412" lon="03.766784"><ele>5.8</ele><time>2022-11-16T14:14:51Z</time><name>PT8447</name></trkpt>
<trkpt lat="51.598417" lon="03.766761"><ele>5.9</ele><time>2022-11-16T14:14:52Z</time><name>PT8448</name></trkpt>
<trkpt lat="51.598423" lon="03.766737"><ele>5.8</ele><time>2022-11-16T14:14:53Z</time><name>PT8449</name></trkpt>
<trkpt lat="51.598427" lon="03.766715"><ele>5.9</ele><time>2022-11-16T14:14:54Z</time><name>PT8450</name></trkpt>
<trkpt lat="51.598427" lon="03.766698"><ele>6.1</ele><time>2022-11-16T14:14:55Z</time><name>PT8451</name></trkpt>
<trkpt lat="51.598428" lon="03.766683"><ele>6.2</ele><time>2022-11-16T14:14:56Z</time><name>PT8452</name></trkpt>
<trkpt lat="51.598430" lon="03.766668"><ele>6.2</ele><time>2022-11-16T14:14:57Z</time><name>PT8453</name></trkpt>
<trkpt lat="51.598435" lon="03.766652"><ele>6.2</ele><time>2022-11-16T14:14:58Z</time><name>PT8454</name></trkpt>
<trkpt lat="51.598440" lon="03.766638"><ele>5.9</ele><time>2022-11-16T14:14:59Z</time><name>PT8455</name></trkpt>
<trkpt lat="51.598446" lon="03.766618"><ele>6.1</ele><time>2022-11-16T14:15:00Z</time><name>PT8456</name></trkpt>
<trkpt lat="51.598450" lon="03.766596"><ele>6.1</ele><time>2022-11-16T14:15:01Z</time><name>PT8457</name></trkpt>
<trkpt lat="51.598455" lon="03.766573"><ele>6.2</ele><time>2022-11-16T14:15:02Z</time><name>PT8458</name></trkpt>
<trkpt lat="51.598459" lon="03.766550"><ele>6.2</ele><time>2022-11-16T14:15:03Z</time><name>PT8459</name></trkpt>
<trkpt lat="51.598462" lon="03.766530"><ele>6.3</ele><time>2022-11-16T14:15:04Z</time><name>PT8460</name></trkpt>
<trkpt lat="51.598462" lon="03.766510"><ele>6.2</ele><time>2022-11-16T14:15:05Z</time><name>PT8461</name></trkpt>
<trkpt lat="51.598462" lon="03.766493"><ele>6.1</ele><time>2022-11-16T14:15:06Z</time><name>PT8462</name></trkpt>
<trkpt lat="51.598463" lon="03.766480"><ele>6</ele><time>2022-11-16T14:15:07Z</time><name>PT8463</name></trkpt>
<trkpt lat="51.598466" lon="03.766465"><ele>6</ele><time>2022-11-16T14:15:08Z</time><name>PT8464</name></trkpt>
<trkpt lat="51.598471" lon="03.766451"><ele>5.8</ele><time>2022-11-16T14:15:09Z</time><name>PT8465</name></trkpt>
<trkpt lat="51.598476" lon="03.766435"><ele>5.7</ele><time>2022-11-16T14:15:10Z</time><name>PT8466</name></trkpt>
<trkpt lat="51.598480" lon="03.766414"><ele>5.7</ele><time>2022-11-16T14:15:11Z</time><name>PT8467</name></trkpt>
<trkpt lat="51.598483" lon="03.766393"><ele>5.7</ele><time>2022-11-16T14:15:12Z</time><name>PT8468</name></trkpt>
<trkpt lat="51.598487" lon="03.766370"><ele>5.7</ele><time>2022-11-16T14:15:13Z</time><name>PT8469</name></trkpt>
<trkpt lat="51.598489" lon="03.766348"><ele>5.8</ele><time>2022-11-16T14:15:14Z</time><name>PT8470</name></trkpt>
<trkpt lat="51.598490" lon="03.766330"><ele>5.7</ele><time>2022-11-16T14:15:15Z</time><name>PT8471</name></trkpt>
<trkpt lat="51.598491" lon="03.766316"><ele>5.7</ele><time>2022-11-16T14:15:16Z</time><name>PT8472</name></trkpt>
<trkpt lat="51.598493" lon="03.766306"><ele>5.7</ele><time>2022-11-16T14:15:17Z</time><name>PT8473</name></trkpt>
<trkpt lat="51.598495" lon="03.766297"><ele>5.7</ele><time>2022-11-16T14:15:18Z</time><name>PT8474</name></trkpt>
<trkpt lat="51.598499" lon="03.766285"><ele>5.8</ele><time>2022-11-16T14:15:19Z</time><name>PT8475</name></trkpt>
<trkpt lat="51.598505" lon="03.766272"><ele>6</ele><time>2022-11-16T14:15:20Z</time><name>PT8476</name></trkpt>
<trkpt lat="51.598510" lon="03.766257"><ele>6</ele><time>2022-11-16T14:15:21Z</time><name>PT8477</name></trkpt>
<trkpt lat="51.598513" lon="03.766238"><ele>6</ele><time>2022-11-16T14:15:22Z</time><name>PT8478</name></trkpt>
<trkpt lat="51.598517" lon="03.766216"><ele>6.1</ele><time>2022-11-16T14:15:23Z</time><name>PT8479</name></trkpt>
<trkpt lat="51.598520" lon="03.766194"><ele>6.2</ele><time>2022-11-16T14:15:24Z</time><name>PT8480</name></trkpt>
<trkpt lat="51.598524" lon="03.766172"><ele>6.2</ele><time>2022-11-16T14:15:25Z</time><name>PT8481</name></trkpt>
<trkpt lat="51.598527" lon="03.766150"><ele>6.4</ele><time>2022-11-16T14:15:26Z</time><name>PT8482</name></trkpt>
<trkpt lat="51.598529" lon="03.766128"><ele>6.5</ele><time>2022-11-16T14:15:27Z</time><name>PT8483</name></trkpt>
<trkpt lat="51.598530" lon="03.766110"><ele>6.5</ele><time>2022-11-16T14:15:28Z</time><name>PT8484</name></trkpt>
<trkpt lat="51.598531" lon="03.766091"><ele>6.3</ele><time>2022-11-16T14:15:29Z</time><name>PT8485</name></trkpt>
<trkpt lat="51.598533" lon="03.766075"><ele>6.5</ele><time>2022-11-16T14:15:30Z</time><name>PT8486</name></trkpt>
<trkpt lat="51.598536" lon="03.766061"><ele>6.3</ele><time>2022-11-16T14:15:31Z</time><name>PT8487</name></trkpt>
<trkpt lat="51.598540" lon="03.766052"><ele>6.1</ele><time>2022-11-16T14:15:32Z</time><name>PT8488</name></trkpt>
<trkpt lat="51.598543" lon="03.766042"><ele>6</ele><time>2022-11-16T14:15:33Z</time><name>PT8489</name></trkpt>
<trkpt lat="51.598546" lon="03.766027"><ele>6</ele><time>2022-11-16T14:15:34Z</time><name>PT8490</name></trkpt>
<trkpt lat="51.598549" lon="03.766004"><ele>5.8</ele><time>2022-11-16T14:15:35Z</time><name>PT8491</name></trkpt>
<trkpt lat="51.598555" lon="03.765977"><ele>5.8</ele><time>2022-11-16T14:15:36Z</time><name>PT8492</name></trkpt>
<trkpt lat="51.598560" lon="03.765949"><ele>5.8</ele><time>2022-11-16T14:15:37Z</time><name>PT8493</name></trkpt>
<trkpt lat="51.598563" lon="03.765929"><ele>5.7</ele><time>2022-11-16T14:15:38Z</time><name>PT8494</name></trkpt>
<trkpt lat="51.598564" lon="03.765916"><ele>5.8</ele><time>2022-11-16T14:15:39Z</time><name>PT8495</name></trkpt>
<trkpt lat="51.598564" lon="03.765903"><ele>5.8</ele><time>2022-11-16T14:15:40Z</time><name>PT8496</name></trkpt>
<trkpt lat="51.598565" lon="03.765893"><ele>5.7</ele><time>2022-11-16T14:15:41Z</time><name>PT8497</name></trkpt>
<trkpt lat="51.598569" lon="03.765881"><ele>5.8</ele><time>2022-11-16T14:15:42Z</time><name>PT8498</name></trkpt>
<trkpt lat="51.598572" lon="03.765869"><ele>5.8</ele><time>2022-11-16T14:15:43Z</time><name>PT8499</name></trkpt>
<trkpt lat="51.598576" lon="03.765850"><ele>5.7</ele><time>2022-11-16T14:15:44Z</time><name>PT8500</name></trkpt>
<trkpt lat="51.598580" lon="03.765828"><ele>5.7</ele><time>2022-11-16T14:15:45Z</time><name>PT8501</name></trkpt>
<trkpt lat="51.598582" lon="03.765804"><ele>5.6</ele><time>2022-11-16T14:15:46Z</time><name>PT8502</name></trkpt>
<trkpt lat="51.598584" lon="03.765780"><ele>5.6</ele><time>2022-11-16T14:15:47Z</time><name>PT8503</name></trkpt>
<trkpt lat="51.598585" lon="03.765760"><ele>5.5</ele><time>2022-11-16T14:15:48Z</time><name>PT8504</name></trkpt>
<trkpt lat="51.598587" lon="03.765745"><ele>5.5</ele><time>2022-11-16T14:15:49Z</time><name>PT8505</name></trkpt>
<trkpt lat="51.598589" lon="03.765734"><ele>5.6</ele><time>2022-11-16T14:15:50Z</time><name>PT8506</name></trkpt>
<trkpt lat="51.598592" lon="03.765719"><ele>5.7</ele><time>2022-11-16T14:15:51Z</time><name>PT8507</name></trkpt>
<trkpt lat="51.598596" lon="03.765705"><ele>5.8</ele><time>2022-11-16T14:15:52Z</time><name>PT8508</name></trkpt>
<trkpt lat="51.598601" lon="03.765685"><ele>5.9</ele><time>2022-11-16T14:15:53Z</time><name>PT8509</name></trkpt>
<trkpt lat="51.598606" lon="03.765663"><ele>5.8</ele><time>2022-11-16T14:15:54Z</time><name>PT8510</name></trkpt>
<trkpt lat="51.598609" lon="03.765638"><ele>5.8</ele><time>2022-11-16T14:15:55Z</time><name>PT8511</name></trkpt>
<trkpt lat="51.598611" lon="03.765614"><ele>5.7</ele><time>2022-11-16T14:15:56Z</time><name>PT8512</name></trkpt>
<trkpt lat="51.598612" lon="03.765598"><ele>5.7</ele><time>2022-11-16T14:15:57Z</time><name>PT8513</name></trkpt>
<trkpt lat="51.598613" lon="03.765583"><ele>5.7</ele><time>2022-11-16T14:15:58Z</time><name>PT8514</name></trkpt>
<trkpt lat="51.598614" lon="03.765571"><ele>5.7</ele><time>2022-11-16T14:15:59Z</time><name>PT8515</name></trkpt>
<trkpt lat="51.598620" lon="03.765559"><ele>5.7</ele><time>2022-11-16T14:16:00Z</time><name>PT8516</name></trkpt>
<trkpt lat="51.598625" lon="03.765547"><ele>5.5</ele><time>2022-11-16T14:16:01Z</time><name>PT8517</name></trkpt>
<trkpt lat="51.598630" lon="03.765530"><ele>5.3</ele><time>2022-11-16T14:16:02Z</time><name>PT8518</name></trkpt>
<trkpt lat="51.598633" lon="03.765508"><ele>5.5</ele><time>2022-11-16T14:16:03Z</time><name>PT8519</name></trkpt>
<trkpt lat="51.598638" lon="03.765485"><ele>5.5</ele><time>2022-11-16T14:16:04Z</time><name>PT8520</name></trkpt>
<trkpt lat="51.598640" lon="03.765464"><ele>5.5</ele><time>2022-11-16T14:16:05Z</time><name>PT8521</name></trkpt>
<trkpt lat="51.598641" lon="03.765450"><ele>5.7</ele><time>2022-11-16T14:16:06Z</time><name>PT8522</name></trkpt>
<trkpt lat="51.598645" lon="03.765442"><ele>5.8</ele><time>2022-11-16T14:16:07Z</time><name>PT8523</name></trkpt>
<trkpt lat="51.598646" lon="03.765434"><ele>5.7</ele><time>2022-11-16T14:16:08Z</time><name>PT8524</name></trkpt>
<trkpt lat="51.598649" lon="03.765424"><ele>5.8</ele><time>2022-11-16T14:16:09Z</time><name>PT8525</name></trkpt>
<trkpt lat="51.598652" lon="03.765411"><ele>5.9</ele><time>2022-11-16T14:16:10Z</time><name>PT8526</name></trkpt>
<trkpt lat="51.598655" lon="03.765391"><ele>6.1</ele><time>2022-11-16T14:16:11Z</time><name>PT8527</name></trkpt>
<trkpt lat="51.598661" lon="03.765369"><ele>6.2</ele><time>2022-11-16T14:16:12Z</time><name>PT8528</name></trkpt>
<trkpt lat="51.598666" lon="03.765342"><ele>6.2</ele><time>2022-11-16T14:16:13Z</time><name>PT8529</name></trkpt>
<trkpt lat="51.598669" lon="03.765323"><ele>6.2</ele><time>2022-11-16T14:16:14Z</time><name>PT8530</name></trkpt>
<trkpt lat="51.598670" lon="03.765309"><ele>6</ele><time>2022-11-16T14:16:15Z</time><name>PT8531</name></trkpt>
<trkpt lat="51.598669" lon="03.765297"><ele>5.9</ele><time>2022-11-16T14:16:16Z</time><name>PT8532</name></trkpt>
<trkpt lat="51.598670" lon="03.765287"><ele>5.8</ele><time>2022-11-16T14:16:17Z</time><name>PT8533</name></trkpt>
<trkpt lat="51.598674" lon="03.765275"><ele>5.8</ele><time>2022-11-16T14:16:18Z</time><name>PT8534</name></trkpt>
<trkpt lat="51.598679" lon="03.765261"><ele>5.8</ele><time>2022-11-16T14:16:19Z</time><name>PT8535</name></trkpt>
<trkpt lat="51.598683" lon="03.765245"><ele>6</ele><time>2022-11-16T14:16:20Z</time><name>PT8536</name></trkpt>
<trkpt lat="51.598687" lon="03.765224"><ele>6.2</ele><time>2022-11-16T14:16:21Z</time><name>PT8537</name></trkpt>
<trkpt lat="51.598692" lon="03.765201"><ele>6</ele><time>2022-11-16T14:16:22Z</time><name>PT8538</name></trkpt>
<trkpt lat="51.598694" lon="03.765176"><ele>5.9</ele><time>2022-11-16T14:16:23Z</time><name>PT8539</name></trkpt>
<trkpt lat="51.598695" lon="03.765157"><ele>5.9</ele><time>2022-11-16T14:16:24Z</time><name>PT8540</name></trkpt>
<trkpt lat="51.598695" lon="03.765142"><ele>5.8</ele><time>2022-11-16T14:16:25Z</time><name>PT8541</name></trkpt>
<trkpt lat="51.598698" lon="03.765131"><ele>5.7</ele><time>2022-11-16T14:16:26Z</time><name>PT8542</name></trkpt>
<trkpt lat="51.598702" lon="03.765121"><ele>5.7</ele><time>2022-11-16T14:16:27Z</time><name>PT8543</name></trkpt>
<trkpt lat="51.598709" lon="03.765108"><ele>5.7</ele><time>2022-11-16T14:16:28Z</time><name>PT8544</name></trkpt>
<trkpt lat="51.598714" lon="03.765091"><ele>5.7</ele><time>2022-11-16T14:16:29Z</time><name>PT8545</name></trkpt>
<trkpt lat="51.598720" lon="03.765069"><ele>5.7</ele><time>2022-11-16T14:16:30Z</time><name>PT8546</name></trkpt>
<trkpt lat="51.598723" lon="03.765045"><ele>5.7</ele><time>2022-11-16T14:16:31Z</time><name>PT8547</name></trkpt>
<trkpt lat="51.598727" lon="03.765020"><ele>5.8</ele><time>2022-11-16T14:16:32Z</time><name>PT8548</name></trkpt>
<trkpt lat="51.598730" lon="03.765001"><ele>5.7</ele><time>2022-11-16T14:16:33Z</time><name>PT8549</name></trkpt>
<trkpt lat="51.598733" lon="03.764984"><ele>5.7</ele><time>2022-11-16T14:16:34Z</time><name>PT8550</name></trkpt>
<trkpt lat="51.598736" lon="03.764970"><ele>5.7</ele><time>2022-11-16T14:16:35Z</time><name>PT8551</name></trkpt>
<trkpt lat="51.598738" lon="03.764958"><ele>6</ele><time>2022-11-16T14:16:36Z</time><name>PT8552</name></trkpt>
<trkpt lat="51.598742" lon="03.764944"><ele>5.8</ele><time>2022-11-16T14:16:37Z</time><name>PT8553</name></trkpt>
<trkpt lat="51.598747" lon="03.764931"><ele>6</ele><time>2022-11-16T14:16:38Z</time><name>PT8554</name></trkpt>
<trkpt lat="51.598753" lon="03.764912"><ele>5.9</ele><time>2022-11-16T14:16:39Z</time><name>PT8555</name></trkpt>
<trkpt lat="51.598758" lon="03.764887"><ele>6</ele><time>2022-11-16T14:16:40Z</time><name>PT8556</name></trkpt>
<trkpt lat="51.598762" lon="03.764864"><ele>6</ele><time>2022-11-16T14:16:41Z</time><name>PT8557</name></trkpt>
<trkpt lat="51.598764" lon="03.764848"><ele>6.1</ele><time>2022-11-16T14:16:42Z</time><name>PT8558</name></trkpt>
<trkpt lat="51.598766" lon="03.764837"><ele>6</ele><time>2022-11-16T14:16:43Z</time><name>PT8559</name></trkpt>
<trkpt lat="51.598769" lon="03.764821"><ele>6</ele><time>2022-11-16T14:16:44Z</time><name>PT8560</name></trkpt>
<trkpt lat="51.598772" lon="03.764805"><ele>5.9</ele><time>2022-11-16T14:16:45Z</time><name>PT8561</name></trkpt>
<trkpt lat="51.598778" lon="03.764791"><ele>5.7</ele><time>2022-11-16T14:16:46Z</time><name>PT8562</name></trkpt>
<trkpt lat="51.598783" lon="03.764780"><ele>5.4</ele><time>2022-11-16T14:16:47Z</time><name>PT8563</name></trkpt>
<trkpt lat="51.598786" lon="03.764765"><ele>5.2</ele><time>2022-11-16T14:16:48Z</time><name>PT8564</name></trkpt>
<trkpt lat="51.598789" lon="03.764745"><ele>5.2</ele><time>2022-11-16T14:16:49Z</time><name>PT8565</name></trkpt>
<trkpt lat="51.598793" lon="03.764725"><ele>5.2</ele><time>2022-11-16T14:16:50Z</time><name>PT8566</name></trkpt>
<trkpt lat="51.598795" lon="03.764708"><ele>5.5</ele><time>2022-11-16T14:16:51Z</time><name>PT8567</name></trkpt>
<trkpt lat="51.598798" lon="03.764693"><ele>5.7</ele><time>2022-11-16T14:16:52Z</time><name>PT8568</name></trkpt>
<trkpt lat="51.598800" lon="03.764680"><ele>6</ele><time>2022-11-16T14:16:53Z</time><name>PT8569</name></trkpt>
<trkpt lat="51.598802" lon="03.764670"><ele>6.2</ele><time>2022-11-16T14:16:54Z</time><name>PT8570</name></trkpt>
<trkpt lat="51.598806" lon="03.764659"><ele>6.3</ele><time>2022-11-16T14:16:55Z</time><name>PT8571</name></trkpt>
<trkpt lat="51.598811" lon="03.764647"><ele>6.2</ele><time>2022-11-16T14:16:56Z</time><name>PT8572</name></trkpt>
<trkpt lat="51.598817" lon="03.764633"><ele>6.2</ele><time>2022-11-16T14:16:57Z</time><name>PT8573</name></trkpt>
<trkpt lat="51.598825" lon="03.764616"><ele>6.2</ele><time>2022-11-16T14:16:58Z</time><name>PT8574</name></trkpt>
<trkpt lat="51.598832" lon="03.764595"><ele>5.9</ele><time>2022-11-16T14:16:59Z</time><name>PT8575</name></trkpt>
<trkpt lat="51.598837" lon="03.764573"><ele>6</ele><time>2022-11-16T14:17:00Z</time><name>PT8576</name></trkpt>
<trkpt lat="51.598843" lon="03.764553"><ele>6.1</ele><time>2022-11-16T14:17:01Z</time><name>PT8577</name></trkpt>
<trkpt lat="51.598847" lon="03.764536"><ele>5.8</ele><time>2022-11-16T14:17:02Z</time><name>PT8578</name></trkpt>
<trkpt lat="51.598851" lon="03.764520"><ele>5.8</ele><time>2022-11-16T14:17:03Z</time><name>PT8579</name></trkpt>
<trkpt lat="51.598855" lon="03.764506"><ele>5.9</ele><time>2022-11-16T14:17:04Z</time><name>PT8580</name></trkpt>
<trkpt lat="51.598858" lon="03.764490"><ele>5.7</ele><time>2022-11-16T14:17:05Z</time><name>PT8581</name></trkpt>
<trkpt lat="51.598859" lon="03.764483"><ele>5.7</ele><time>2022-11-16T14:17:06Z</time><name>PT8582</name></trkpt>
<trkpt lat="51.598862" lon="03.764475"><ele>5.7</ele><time>2022-11-16T14:17:07Z</time><name>PT8583</name></trkpt>
<trkpt lat="51.598866" lon="03.764464"><ele>5.8</ele><time>2022-11-16T14:17:08Z</time><name>PT8584</name></trkpt>
<trkpt lat="51.598873" lon="03.764446"><ele>5.9</ele><time>2022-11-16T14:17:09Z</time><name>PT8585</name></trkpt>
<trkpt lat="51.598881" lon="03.764427"><ele>5.9</ele><time>2022-11-16T14:17:10Z</time><name>PT8586</name></trkpt>
<trkpt lat="51.598886" lon="03.764411"><ele>6</ele><time>2022-11-16T14:17:11Z</time><name>PT8587</name></trkpt>
<trkpt lat="51.598887" lon="03.764396"><ele>6.1</ele><time>2022-11-16T14:17:12Z</time><name>PT8588</name></trkpt>
<trkpt lat="51.598887" lon="03.764385"><ele>6</ele><time>2022-11-16T14:17:13Z</time><name>PT8589</name></trkpt>
<trkpt lat="51.598888" lon="03.764374"><ele>5.9</ele><time>2022-11-16T14:17:14Z</time><name>PT8590</name></trkpt>
<trkpt lat="51.598892" lon="03.764364"><ele>5.7</ele><time>2022-11-16T14:17:15Z</time><name>PT8591</name></trkpt>
<trkpt lat="51.598900" lon="03.764347"><ele>5.6</ele><time>2022-11-16T14:17:16Z</time><name>PT8592</name></trkpt>
<trkpt lat="51.598906" lon="03.764331"><ele>5.6</ele><time>2022-11-16T14:17:17Z</time><name>PT8593</name></trkpt>
<trkpt lat="51.598912" lon="03.764314"><ele>5.6</ele><time>2022-11-16T14:17:18Z</time><name>PT8594</name></trkpt>
<trkpt lat="51.598921" lon="03.764292"><ele>5.5</ele><time>2022-11-16T14:17:19Z</time><name>PT8595</name></trkpt>
<trkpt lat="51.598930" lon="03.764266"><ele>5.7</ele><time>2022-11-16T14:17:20Z</time><name>PT8596</name></trkpt>
<trkpt lat="51.598937" lon="03.764243"><ele>5.6</ele><time>2022-11-16T14:17:21Z</time><name>PT8597</name></trkpt>
<trkpt lat="51.598940" lon="03.764224"><ele>5.4</ele><time>2022-11-16T14:17:22Z</time><name>PT8598</name></trkpt>
<trkpt lat="51.598941" lon="03.764210"><ele>5.4</ele><time>2022-11-16T14:17:23Z</time><name>PT8599</name></trkpt>
<trkpt lat="51.598943" lon="03.764200"><ele>5.7</ele><time>2022-11-16T14:17:24Z</time><name>PT8600</name></trkpt>
<trkpt lat="51.598947" lon="03.764190"><ele>5.6</ele><time>2022-11-16T14:17:25Z</time><name>PT8601</name></trkpt>
<trkpt lat="51.598952" lon="03.764176"><ele>5.7</ele><time>2022-11-16T14:17:26Z</time><name>PT8602</name></trkpt>
<trkpt lat="51.598958" lon="03.764158"><ele>5.9</ele><time>2022-11-16T14:17:27Z</time><name>PT8603</name></trkpt>
<trkpt lat="51.598963" lon="03.764136"><ele>6</ele><time>2022-11-16T14:17:28Z</time><name>PT8604</name></trkpt>
<trkpt lat="51.598968" lon="03.764109"><ele>5.8</ele><time>2022-11-16T14:17:29Z</time><name>PT8605</name></trkpt>
<trkpt lat="51.598972" lon="03.764079"><ele>6</ele><time>2022-11-16T14:17:30Z</time><name>PT8606</name></trkpt>
<trkpt lat="51.598974" lon="03.764055"><ele>6</ele><time>2022-11-16T14:17:31Z</time><name>PT8607</name></trkpt>
<trkpt lat="51.598974" lon="03.764038"><ele>5.9</ele><time>2022-11-16T14:17:32Z</time><name>PT8608</name></trkpt>
<trkpt lat="51.598974" lon="03.764027"><ele>5.9</ele><time>2022-11-16T14:17:33Z</time><name>PT8609</name></trkpt>
<trkpt lat="51.598976" lon="03.764018"><ele>5.8</ele><time>2022-11-16T14:17:34Z</time><name>PT8610</name></trkpt>
<trkpt lat="51.598979" lon="03.764006"><ele>5.8</ele><time>2022-11-16T14:17:35Z</time><name>PT8611</name></trkpt>
<trkpt lat="51.598984" lon="03.763991"><ele>5.6</ele><time>2022-11-16T14:17:36Z</time><name>PT8612</name></trkpt>
<trkpt lat="51.598989" lon="03.763972"><ele>5.7</ele><time>2022-11-16T14:17:37Z</time><name>PT8613</name></trkpt>
<trkpt lat="51.598994" lon="03.763951"><ele>5.5</ele><time>2022-11-16T14:17:38Z</time><name>PT8614</name></trkpt>
<trkpt lat="51.599000" lon="03.763928"><ele>5.4</ele><time>2022-11-16T14:17:39Z</time><name>PT8615</name></trkpt>
<trkpt lat="51.599003" lon="03.763908"><ele>5.4</ele><time>2022-11-16T14:17:40Z</time><name>PT8616</name></trkpt>
<trkpt lat="51.599004" lon="03.763894"><ele>5.5</ele><time>2022-11-16T14:17:41Z</time><name>PT8617</name></trkpt>
<trkpt lat="51.599006" lon="03.763883"><ele>5.6</ele><time>2022-11-16T14:17:42Z</time><name>PT8618</name></trkpt>
<trkpt lat="51.599009" lon="03.763870"><ele>5.6</ele><time>2022-11-16T14:17:43Z</time><name>PT8619</name></trkpt>
<trkpt lat="51.599014" lon="03.763857"><ele>5.6</ele><time>2022-11-16T14:17:44Z</time><name>PT8620</name></trkpt>
<trkpt lat="51.599018" lon="03.763842"><ele>5.6</ele><time>2022-11-16T14:17:45Z</time><name>PT8621</name></trkpt>
<trkpt lat="51.599023" lon="03.763823"><ele>5.5</ele><time>2022-11-16T14:17:46Z</time><name>PT8622</name></trkpt>
<trkpt lat="51.599029" lon="03.763802"><ele>5.5</ele><time>2022-11-16T14:17:47Z</time><name>PT8623</name></trkpt>
<trkpt lat="51.599034" lon="03.763780"><ele>5.5</ele><time>2022-11-16T14:17:48Z</time><name>PT8624</name></trkpt>
<trkpt lat="51.599037" lon="03.763758"><ele>5.5</ele><time>2022-11-16T14:17:49Z</time><name>PT8625</name></trkpt>
<trkpt lat="51.599039" lon="03.763740"><ele>5.3</ele><time>2022-11-16T14:17:50Z</time><name>PT8626</name></trkpt>
<trkpt lat="51.599039" lon="03.763728"><ele>5.2</ele><time>2022-11-16T14:17:51Z</time><name>PT8627</name></trkpt>
<trkpt lat="51.599039" lon="03.763723"><ele>5.2</ele><time>2022-11-16T14:17:52Z</time><name>PT8628</name></trkpt>
<trkpt lat="51.599040" lon="03.763717"><ele>5.2</ele><time>2022-11-16T14:17:53Z</time><name>PT8629</name></trkpt>
<trkpt lat="51.599043" lon="03.763710"><ele>5.2</ele><time>2022-11-16T14:17:54Z</time><name>PT8630</name></trkpt>
<trkpt lat="51.599046" lon="03.763701"><ele>5.3</ele><time>2022-11-16T14:17:55Z</time><name>PT8631</name></trkpt>
<trkpt lat="51.599052" lon="03.763680"><ele>5.3</ele><time>2022-11-16T14:17:56Z</time><name>PT8632</name></trkpt>
<trkpt lat="51.599059" lon="03.763652"><ele>5</ele><time>2022-11-16T14:17:57Z</time><name>PT8633</name></trkpt>
<trkpt lat="51.599063" lon="03.763627"><ele>5</ele><time>2022-11-16T14:17:58Z</time><name>PT8634</name></trkpt>
<trkpt lat="51.599063" lon="03.763601"><ele>4.9</ele><time>2022-11-16T14:17:59Z</time><name>PT8635</name></trkpt>
<trkpt lat="51.599064" lon="03.763583"><ele>4.9</ele><time>2022-11-16T14:18:00Z</time><name>PT8636</name></trkpt>
<trkpt lat="51.599065" lon="03.763565"><ele>5</ele><time>2022-11-16T14:18:01Z</time><name>PT8637</name></trkpt>
<trkpt lat="51.599067" lon="03.763552"><ele>5.3</ele><time>2022-11-16T14:18:02Z</time><name>PT8638</name></trkpt>
<trkpt lat="51.599070" lon="03.763539"><ele>5.5</ele><time>2022-11-16T14:18:03Z</time><name>PT8639</name></trkpt>
<trkpt lat="51.599072" lon="03.763527"><ele>5.6</ele><time>2022-11-16T14:18:04Z</time><name>PT8640</name></trkpt>
<trkpt lat="51.599076" lon="03.763512"><ele>5.7</ele><time>2022-11-16T14:18:05Z</time><name>PT8641</name></trkpt>
<trkpt lat="51.599081" lon="03.763493"><ele>5.7</ele><time>2022-11-16T14:18:06Z</time><name>PT8642</name></trkpt>
<trkpt lat="51.599085" lon="03.763471"><ele>5.8</ele><time>2022-11-16T14:18:07Z</time><name>PT8643</name></trkpt>
<trkpt lat="51.599089" lon="03.763446"><ele>5.5</ele><time>2022-11-16T14:18:08Z</time><name>PT8644</name></trkpt>
<trkpt lat="51.599093" lon="03.763421"><ele>5.4</ele><time>2022-11-16T14:18:09Z</time><name>PT8645</name></trkpt>
<trkpt lat="51.599095" lon="03.763396"><ele>5.2</ele><time>2022-11-16T14:18:10Z</time><name>PT8646</name></trkpt>
<trkpt lat="51.599096" lon="03.763367"><ele>5.2</ele><time>2022-11-16T14:18:11Z</time><name>PT8647</name></trkpt>
<trkpt lat="51.599097" lon="03.763348"><ele>5.4</ele><time>2022-11-16T14:18:12Z</time><name>PT8648</name></trkpt>
<trkpt lat="51.599098" lon="03.763333"><ele>5.7</ele><time>2022-11-16T14:18:13Z</time><name>PT8649</name></trkpt>
<trkpt lat="51.599103" lon="03.763322"><ele>5.8</ele><time>2022-11-16T14:18:14Z</time><name>PT8650</name></trkpt>
<trkpt lat="51.599105" lon="03.763307"><ele>6</ele><time>2022-11-16T14:18:15Z</time><name>PT8651</name></trkpt>
<trkpt lat="51.599108" lon="03.763292"><ele>6</ele><time>2022-11-16T14:18:16Z</time><name>PT8652</name></trkpt>
<trkpt lat="51.599113" lon="03.763270"><ele>5.7</ele><time>2022-11-16T14:18:17Z</time><name>PT8653</name></trkpt>
<trkpt lat="51.599118" lon="03.763246"><ele>5.5</ele><time>2022-11-16T14:18:18Z</time><name>PT8654</name></trkpt>
<trkpt lat="51.599122" lon="03.763221"><ele>5.3</ele><time>2022-11-16T14:18:19Z</time><name>PT8655</name></trkpt>
<trkpt lat="51.599125" lon="03.763192"><ele>5.2</ele><time>2022-11-16T14:18:20Z</time><name>PT8656</name></trkpt>
<trkpt lat="51.599129" lon="03.763173"><ele>5.4</ele><time>2022-11-16T14:18:21Z</time><name>PT8657</name></trkpt>
<trkpt lat="51.599130" lon="03.763158"><ele>5.5</ele><time>2022-11-16T14:18:22Z</time><name>PT8658</name></trkpt>
<trkpt lat="51.599132" lon="03.763142"><ele>5.5</ele><time>2022-11-16T14:18:23Z</time><name>PT8659</name></trkpt>
<trkpt lat="51.599134" lon="03.763127"><ele>5.5</ele><time>2022-11-16T14:18:24Z</time><name>PT8660</name></trkpt>
<trkpt lat="51.599136" lon="03.763113"><ele>5.5</ele><time>2022-11-16T14:18:25Z</time><name>PT8661</name></trkpt>
<trkpt lat="51.599140" lon="03.763098"><ele>5.4</ele><time>2022-11-16T14:18:26Z</time><name>PT8662</name></trkpt>
<trkpt lat="51.599144" lon="03.763083"><ele>5.6</ele><time>2022-11-16T14:18:27Z</time><name>PT8663</name></trkpt>
<trkpt lat="51.599148" lon="03.763071"><ele>5.6</ele><time>2022-11-16T14:18:28Z</time><name>PT8664</name></trkpt>
<trkpt lat="51.599153" lon="03.763059"><ele>5.6</ele><time>2022-11-16T14:18:29Z</time><name>PT8665</name></trkpt>
<trkpt lat="51.599158" lon="03.763041"><ele>5.7</ele><time>2022-11-16T14:18:30Z</time><name>PT8666</name></trkpt>
<trkpt lat="51.599164" lon="03.763023"><ele>5.8</ele><time>2022-11-16T14:18:31Z</time><name>PT8667</name></trkpt>
<trkpt lat="51.599169" lon="03.763002"><ele>5.7</ele><time>2022-11-16T14:18:32Z</time><name>PT8668</name></trkpt>
<trkpt lat="51.599175" lon="03.762976"><ele>5.5</ele><time>2022-11-16T14:18:33Z</time><name>PT8669</name></trkpt>
<trkpt lat="51.599181" lon="03.762949"><ele>5.4</ele><time>2022-11-16T14:18:34Z</time><name>PT8670</name></trkpt>
<trkpt lat="51.599185" lon="03.762931"><ele>5.2</ele><time>2022-11-16T14:18:35Z</time><name>PT8671</name></trkpt>
<trkpt lat="51.599185" lon="03.762914"><ele>5.2</ele><time>2022-11-16T14:18:36Z</time><name>PT8672</name></trkpt>
<trkpt lat="51.599185" lon="03.762897"><ele>5.1</ele><time>2022-11-16T14:18:37Z</time><name>PT8673</name></trkpt>
<trkpt lat="51.599186" lon="03.762882"><ele>5.2</ele><time>2022-11-16T14:18:38Z</time><name>PT8674</name></trkpt>
<trkpt lat="51.599188" lon="03.762867"><ele>5.2</ele><time>2022-11-16T14:18:39Z</time><name>PT8675</name></trkpt>
<trkpt lat="51.599192" lon="03.762855"><ele>5.2</ele><time>2022-11-16T14:18:40Z</time><name>PT8676</name></trkpt>
<trkpt lat="51.599195" lon="03.762844"><ele>4.8</ele><time>2022-11-16T14:18:41Z</time><name>PT8677</name></trkpt>
<trkpt lat="51.599198" lon="03.762831"><ele>4.6</ele><time>2022-11-16T14:18:42Z</time><name>PT8678</name></trkpt>
<trkpt lat="51.599201" lon="03.762818"><ele>4.7</ele><time>2022-11-16T14:18:43Z</time><name>PT8679</name></trkpt>
<trkpt lat="51.599205" lon="03.762806"><ele>4.7</ele><time>2022-11-16T14:18:44Z</time><name>PT8680</name></trkpt>
<trkpt lat="51.599209" lon="03.762790"><ele>4.9</ele><time>2022-11-16T14:18:45Z</time><name>PT8681</name></trkpt>
<trkpt lat="51.599215" lon="03.762772"><ele>5.1</ele><time>2022-11-16T14:18:46Z</time><name>PT8682</name></trkpt>
<trkpt lat="51.599221" lon="03.762751"><ele>5.3</ele><time>2022-11-16T14:18:47Z</time><name>PT8683</name></trkpt>
<trkpt lat="51.599227" lon="03.762729"><ele>5.5</ele><time>2022-11-16T14:18:48Z</time><name>PT8684</name></trkpt>
<trkpt lat="51.599232" lon="03.762703"><ele>5.4</ele><time>2022-11-16T14:18:49Z</time><name>PT8685</name></trkpt>
<trkpt lat="51.599237" lon="03.762678"><ele>5.3</ele><time>2022-11-16T14:18:50Z</time><name>PT8686</name></trkpt>
<trkpt lat="51.599240" lon="03.762654"><ele>5.2</ele><time>2022-11-16T14:18:51Z</time><name>PT8687</name></trkpt>
<trkpt lat="51.599242" lon="03.762632"><ele>5.2</ele><time>2022-11-16T14:18:52Z</time><name>PT8688</name></trkpt>
<trkpt lat="51.599242" lon="03.762610"><ele>5.1</ele><time>2022-11-16T14:18:53Z</time><name>PT8689</name></trkpt>
<trkpt lat="51.599242" lon="03.762595"><ele>5.1</ele><time>2022-11-16T14:18:54Z</time><name>PT8690</name></trkpt>
<trkpt lat="51.599243" lon="03.762582"><ele>5.1</ele><time>2022-11-16T14:18:55Z</time><name>PT8691</name></trkpt>
<trkpt lat="51.599246" lon="03.762571"><ele>5</ele><time>2022-11-16T14:18:56Z</time><name>PT8692</name></trkpt>
<trkpt lat="51.599248" lon="03.762560"><ele>5</ele><time>2022-11-16T14:18:57Z</time><name>PT8693</name></trkpt>
<trkpt lat="51.599251" lon="03.762549"><ele>5.1</ele><time>2022-11-16T14:18:58Z</time><name>PT8694</name></trkpt>
<trkpt lat="51.599256" lon="03.762538"><ele>5</ele><time>2022-11-16T14:18:59Z</time><name>PT8695</name></trkpt>
<trkpt lat="51.599262" lon="03.762526"><ele>5</ele><time>2022-11-16T14:19:00Z</time><name>PT8696</name></trkpt>
<trkpt lat="51.599267" lon="03.762511"><ele>4.9</ele><time>2022-11-16T14:19:01Z</time><name>PT8697</name></trkpt>
<trkpt lat="51.599272" lon="03.762494"><ele>5.1</ele><time>2022-11-16T14:19:02Z</time><name>PT8698</name></trkpt>
<trkpt lat="51.599276" lon="03.762473"><ele>5.1</ele><time>2022-11-16T14:19:03Z</time><name>PT8699</name></trkpt>
<trkpt lat="51.599280" lon="03.762450"><ele>5</ele><time>2022-11-16T14:19:04Z</time><name>PT8700</name></trkpt>
<trkpt lat="51.599280" lon="03.762424"><ele>5.1</ele><time>2022-11-16T14:19:05Z</time><name>PT8701</name></trkpt>
<trkpt lat="51.599278" lon="03.762402"><ele>5.2</ele><time>2022-11-16T14:19:06Z</time><name>PT8702</name></trkpt>
<trkpt lat="51.599277" lon="03.762386"><ele>5.2</ele><time>2022-11-16T14:19:07Z</time><name>PT8703</name></trkpt>
<trkpt lat="51.599279" lon="03.762374"><ele>5.2</ele><time>2022-11-16T14:19:08Z</time><name>PT8704</name></trkpt>
<trkpt lat="51.599281" lon="03.762361"><ele>5.3</ele><time>2022-11-16T14:19:09Z</time><name>PT8705</name></trkpt>
<trkpt lat="51.599282" lon="03.762347"><ele>5.3</ele><time>2022-11-16T14:19:10Z</time><name>PT8706</name></trkpt>
<trkpt lat="51.599283" lon="03.762329"><ele>5.2</ele><time>2022-11-16T14:19:11Z</time><name>PT8707</name></trkpt>
<trkpt lat="51.599284" lon="03.762304"><ele>5.2</ele><time>2022-11-16T14:19:12Z</time><name>PT8708</name></trkpt>
<trkpt lat="51.599280" lon="03.762278"><ele>5.3</ele><time>2022-11-16T14:19:13Z</time><name>PT8709</name></trkpt>
<trkpt lat="51.599275" lon="03.762259"><ele>5.3</ele><time>2022-11-16T14:19:14Z</time><name>PT8710</name></trkpt>
<trkpt lat="51.599270" lon="03.762245"><ele>5.2</ele><time>2022-11-16T14:19:15Z</time><name>PT8711</name></trkpt>
<trkpt lat="51.599266" lon="03.762239"><ele>5.2</ele><time>2022-11-16T14:19:16Z</time><name>PT8712</name></trkpt>
<trkpt lat="51.599263" lon="03.762232"><ele>5.4</ele><time>2022-11-16T14:19:17Z</time><name>PT8713</name></trkpt>
<trkpt lat="51.599261" lon="03.762223"><ele>5.2</ele><time>2022-11-16T14:19:18Z</time><name>PT8714</name></trkpt>
<trkpt lat="51.599258" lon="03.762211"><ele>5.2</ele><time>2022-11-16T14:19:19Z</time><name>PT8715</name></trkpt>
<trkpt lat="51.599248" lon="03.762193"><ele>5.2</ele><time>2022-11-16T14:19:20Z</time><name>PT8716</name></trkpt>
<trkpt lat="51.599238" lon="03.762181"><ele>5.2</ele><time>2022-11-16T14:19:21Z</time><name>PT8717</name></trkpt>
<trkpt lat="51.599228" lon="03.762168"><ele>5.1</ele><time>2022-11-16T14:19:22Z</time><name>PT8718</name></trkpt>
<trkpt lat="51.599218" lon="03.762159"><ele>5.1</ele><time>2022-11-16T14:19:23Z</time><name>PT8719</name></trkpt>
<trkpt lat="51.599207" lon="03.762152"><ele>5</ele><time>2022-11-16T14:19:24Z</time><name>PT8720</name></trkpt>
<trkpt lat="51.599195" lon="03.762148"><ele>4.9</ele><time>2022-11-16T14:19:25Z</time><name>PT8721</name></trkpt>
<trkpt lat="51.599190" lon="03.762149"><ele>4.6</ele><time>2022-11-16T14:19:26Z</time><name>PT8722</name></trkpt>
<trkpt lat="51.599184" lon="03.762149"><ele>4.7</ele><time>2022-11-16T14:19:27Z</time><name>PT8723</name></trkpt>
<trkpt lat="51.599177" lon="03.762144"><ele>4.7</ele><time>2022-11-16T14:19:28Z</time><name>PT8724</name></trkpt>
<trkpt lat="51.599170" lon="03.762136"><ele>4.9</ele><time>2022-11-16T14:19:29Z</time><name>PT8725</name></trkpt>
<trkpt lat="51.599162" lon="03.762126"><ele>5.2</ele><time>2022-11-16T14:19:30Z</time><name>PT8726</name></trkpt>
<trkpt lat="51.599150" lon="03.762108"><ele>5.4</ele><time>2022-11-16T14:19:31Z</time><name>PT8727</name></trkpt>
<trkpt lat="51.599138" lon="03.762100"><ele>5.4</ele><time>2022-11-16T14:19:32Z</time><name>PT8728</name></trkpt>
<trkpt lat="51.599126" lon="03.762093"><ele>5.7</ele><time>2022-11-16T14:19:33Z</time><name>PT8729</name></trkpt>
<trkpt lat="51.599114" lon="03.762089"><ele>5.7</ele><time>2022-11-16T14:19:34Z</time><name>PT8730</name></trkpt>
<trkpt lat="51.599105" lon="03.762085"><ele>5.8</ele><time>2022-11-16T14:19:35Z</time><name>PT8731</name></trkpt>
<trkpt lat="51.599097" lon="03.762081"><ele>6.1</ele><time>2022-11-16T14:19:36Z</time><name>PT8732</name></trkpt>
<trkpt lat="51.599089" lon="03.762074"><ele>6.2</ele><time>2022-11-16T14:19:37Z</time><name>PT8733</name></trkpt>
<trkpt lat="51.599081" lon="03.762067"><ele>6.1</ele><time>2022-11-16T14:19:38Z</time><name>PT8734</name></trkpt>
<trkpt lat="51.599070" lon="03.762056"><ele>6.1</ele><time>2022-11-16T14:19:39Z</time><name>PT8735</name></trkpt>
<trkpt lat="51.599057" lon="03.762046"><ele>6.1</ele><time>2022-11-16T14:19:40Z</time><name>PT8736</name></trkpt>
<trkpt lat="51.599045" lon="03.762039"><ele>5.7</ele><time>2022-11-16T14:19:41Z</time><name>PT8737</name></trkpt>
<trkpt lat="51.599035" lon="03.762032"><ele>5.4</ele><time>2022-11-16T14:19:42Z</time><name>PT8738</name></trkpt>
<trkpt lat="51.599027" lon="03.762027"><ele>5.3</ele><time>2022-11-16T14:19:43Z</time><name>PT8739</name></trkpt>
<trkpt lat="51.599020" lon="03.762021"><ele>5.2</ele><time>2022-11-16T14:19:44Z</time><name>PT8740</name></trkpt>
<trkpt lat="51.599013" lon="03.762012"><ele>5.2</ele><time>2022-11-16T14:19:45Z</time><name>PT8741</name></trkpt>
<trkpt lat="51.599004" lon="03.762001"><ele>5.3</ele><time>2022-11-16T14:19:46Z</time><name>PT8742</name></trkpt>
<trkpt lat="51.598994" lon="03.761988"><ele>5.7</ele><time>2022-11-16T14:19:47Z</time><name>PT8743</name></trkpt>
<trkpt lat="51.598983" lon="03.761978"><ele>5.9</ele><time>2022-11-16T14:19:48Z</time><name>PT8744</name></trkpt>
<trkpt lat="51.598970" lon="03.761970"><ele>5.7</ele><time>2022-11-16T14:19:49Z</time><name>PT8745</name></trkpt>
<trkpt lat="51.598957" lon="03.761964"><ele>6.1</ele><time>2022-11-16T14:19:50Z</time><name>PT8746</name></trkpt>
<trkpt lat="51.598948" lon="03.761958"><ele>6</ele><time>2022-11-16T14:19:51Z</time><name>PT8747</name></trkpt>
<trkpt lat="51.598940" lon="03.761955"><ele>6</ele><time>2022-11-16T14:19:52Z</time><name>PT8748</name></trkpt>
<trkpt lat="51.598933" lon="03.761947"><ele>6</ele><time>2022-11-16T14:19:53Z</time><name>PT8749</name></trkpt>
<trkpt lat="51.598926" lon="03.761937"><ele>6</ele><time>2022-11-16T14:19:54Z</time><name>PT8750</name></trkpt>
<trkpt lat="51.598919" lon="03.761927"><ele>5.8</ele><time>2022-11-16T14:19:55Z</time><name>PT8751</name></trkpt>
<trkpt lat="51.598908" lon="03.761915"><ele>5.7</ele><time>2022-11-16T14:19:56Z</time><name>PT8752</name></trkpt>
<trkpt lat="51.598896" lon="03.761900"><ele>5.7</ele><time>2022-11-16T14:19:57Z</time><name>PT8753</name></trkpt>
<trkpt lat="51.598885" lon="03.761885"><ele>5.7</ele><time>2022-11-16T14:19:58Z</time><name>PT8754</name></trkpt>
<trkpt lat="51.598874" lon="03.761874"><ele>5.8</ele><time>2022-11-16T14:19:59Z</time><name>PT8755</name></trkpt>
<trkpt lat="51.598863" lon="03.761867"><ele>6</ele><time>2022-11-16T14:20:00Z</time><name>PT8756</name></trkpt>
<trkpt lat="51.598855" lon="03.761862"><ele>5.8</ele><time>2022-11-16T14:20:01Z</time><name>PT8757</name></trkpt>
<trkpt lat="51.598848" lon="03.761855"><ele>5.6</ele><time>2022-11-16T14:20:02Z</time><name>PT8758</name></trkpt>
<trkpt lat="51.598840" lon="03.761846"><ele>5.4</ele><time>2022-11-16T14:20:03Z</time><name>PT8759</name></trkpt>
<trkpt lat="51.598832" lon="03.761835"><ele>5.3</ele><time>2022-11-16T14:20:04Z</time><name>PT8760</name></trkpt>
<trkpt lat="51.598824" lon="03.761824"><ele>5.2</ele><time>2022-11-16T14:20:05Z</time><name>PT8761</name></trkpt>
<trkpt lat="51.598815" lon="03.761811"><ele>5.5</ele><time>2022-11-16T14:20:06Z</time><name>PT8762</name></trkpt>
<trkpt lat="51.598806" lon="03.761798"><ele>5.7</ele><time>2022-11-16T14:20:07Z</time><name>PT8763</name></trkpt>
<trkpt lat="51.598794" lon="03.761785"><ele>5.9</ele><time>2022-11-16T14:20:08Z</time><name>PT8764</name></trkpt>
<trkpt lat="51.598782" lon="03.761775"><ele>5.8</ele><time>2022-11-16T14:20:09Z</time><name>PT8765</name></trkpt>
<trkpt lat="51.598774" lon="03.761769"><ele>5.9</ele><time>2022-11-16T14:20:10Z</time><name>PT8766</name></trkpt>
<trkpt lat="51.598768" lon="03.761761"><ele>5.7</ele><time>2022-11-16T14:20:11Z</time><name>PT8767</name></trkpt>
<trkpt lat="51.598761" lon="03.761752"><ele>5.4</ele><time>2022-11-16T14:20:12Z</time><name>PT8768</name></trkpt>
<trkpt lat="51.598753" lon="03.761742"><ele>5.4</ele><time>2022-11-16T14:20:13Z</time><name>PT8769</name></trkpt>
<trkpt lat="51.598744" lon="03.761729"><ele>5.5</ele><time>2022-11-16T14:20:14Z</time><name>PT8770</name></trkpt>
<trkpt lat="51.598734" lon="03.761711"><ele>5.5</ele><time>2022-11-16T14:20:15Z</time><name>PT8771</name></trkpt>
<trkpt lat="51.598723" lon="03.761693"><ele>5.7</ele><time>2022-11-16T14:20:16Z</time><name>PT8772</name></trkpt>
<trkpt lat="51.598711" lon="03.761677"><ele>5.6</ele><time>2022-11-16T14:20:17Z</time><name>PT8773</name></trkpt>
<trkpt lat="51.598701" lon="03.761667"><ele>5.6</ele><time>2022-11-16T14:20:18Z</time><name>PT8774</name></trkpt>
<trkpt lat="51.598694" lon="03.761659"><ele>5.5</ele><time>2022-11-16T14:20:19Z</time><name>PT8775</name></trkpt>
<trkpt lat="51.598688" lon="03.761650"><ele>5.4</ele><time>2022-11-16T14:20:20Z</time><name>PT8776</name></trkpt>
<trkpt lat="51.598683" lon="03.761641"><ele>5.3</ele><time>2022-11-16T14:20:21Z</time><name>PT8777</name></trkpt>
<trkpt lat="51.598677" lon="03.761631"><ele>5.2</ele><time>2022-11-16T14:20:22Z</time><name>PT8778</name></trkpt>
<trkpt lat="51.598671" lon="03.761618"><ele>5.2</ele><time>2022-11-16T14:20:23Z</time><name>PT8779</name></trkpt>
<trkpt lat="51.598664" lon="03.761600"><ele>5.2</ele><time>2022-11-16T14:20:24Z</time><name>PT8780</name></trkpt>
<trkpt lat="51.598654" lon="03.761580"><ele>5.1</ele><time>2022-11-16T14:20:25Z</time><name>PT8781</name></trkpt>
<trkpt lat="51.598646" lon="03.761564"><ele>5.1</ele><time>2022-11-16T14:20:26Z</time><name>PT8782</name></trkpt>
<trkpt lat="51.598640" lon="03.761551"><ele>5.4</ele><time>2022-11-16T14:20:27Z</time><name>PT8783</name></trkpt>
<trkpt lat="51.598634" lon="03.761544"><ele>5.4</ele><time>2022-11-16T14:20:28Z</time><name>PT8784</name></trkpt>
<trkpt lat="51.598631" lon="03.761534"><ele>5.3</ele><time>2022-11-16T14:20:29Z</time><name>PT8785</name></trkpt>
<trkpt lat="51.598626" lon="03.761511"><ele>5.6</ele><time>2022-11-16T14:20:30Z</time><name>PT8786</name></trkpt>
<trkpt lat="51.598620" lon="03.761492"><ele>5.5</ele><time>2022-11-16T14:20:31Z</time><name>PT8787</name></trkpt>
<trkpt lat="51.598615" lon="03.761477"><ele>5.3</ele><time>2022-11-16T14:20:32Z</time><name>PT8788</name></trkpt>
<trkpt lat="51.598608" lon="03.761462"><ele>5.3</ele><time>2022-11-16T14:20:33Z</time><name>PT8789</name></trkpt>
<trkpt lat="51.598601" lon="03.761449"><ele>5.5</ele><time>2022-11-16T14:20:34Z</time><name>PT8790</name></trkpt>
<trkpt lat="51.598594" lon="03.761436"><ele>5.6</ele><time>2022-11-16T14:20:35Z</time><name>PT8791</name></trkpt>
<trkpt lat="51.598588" lon="03.761424"><ele>5.7</ele><time>2022-11-16T14:20:36Z</time><name>PT8792</name></trkpt>
<trkpt lat="51.598581" lon="03.761411"><ele>5.6</ele><time>2022-11-16T14:20:37Z</time><name>PT8793</name></trkpt>
<trkpt lat="51.598575" lon="03.761399"><ele>5.4</ele><time>2022-11-16T14:20:38Z</time><name>PT8794</name></trkpt>
<trkpt lat="51.598569" lon="03.761384"><ele>5.2</ele><time>2022-11-16T14:20:39Z</time><name>PT8795</name></trkpt>
<trkpt lat="51.598563" lon="03.761370"><ele>5.2</ele><time>2022-11-16T14:20:40Z</time><name>PT8796</name></trkpt>
<trkpt lat="51.598557" lon="03.761355"><ele>5.2</ele><time>2022-11-16T14:20:41Z</time><name>PT8797</name></trkpt>
<trkpt lat="51.598550" lon="03.761338"><ele>5.2</ele><time>2022-11-16T14:20:42Z</time><name>PT8798</name></trkpt>
<trkpt lat="51.598544" lon="03.761323"><ele>5.2</ele><time>2022-11-16T14:20:43Z</time><name>PT8799</name></trkpt>
<trkpt lat="51.598538" lon="03.761308"><ele>5.2</ele><time>2022-11-16T14:20:44Z</time><name>PT8800</name></trkpt>
<trkpt lat="51.598532" lon="03.761294"><ele>5.2</ele><time>2022-11-16T14:20:45Z</time><name>PT8801</name></trkpt>
<trkpt lat="51.598526" lon="03.761280"><ele>5.2</ele><time>2022-11-16T14:20:46Z</time><name>PT8802</name></trkpt>
<trkpt lat="51.598519" lon="03.761266"><ele>5.2</ele><time>2022-11-16T14:20:47Z</time><name>PT8803</name></trkpt>
<trkpt lat="51.598513" lon="03.761252"><ele>5.3</ele><time>2022-11-16T14:20:48Z</time><name>PT8804</name></trkpt>
<trkpt lat="51.598506" lon="03.761237"><ele>5.2</ele><time>2022-11-16T14:20:49Z</time><name>PT8805</name></trkpt>
<trkpt lat="51.598498" lon="03.761224"><ele>5.2</ele><time>2022-11-16T14:20:50Z</time><name>PT8806</name></trkpt>
<trkpt lat="51.598491" lon="03.761213"><ele>5.3</ele><time>2022-11-16T14:20:51Z</time><name>PT8807</name></trkpt>
<trkpt lat="51.598485" lon="03.761201"><ele>5.3</ele><time>2022-11-16T14:20:52Z</time><name>PT8808</name></trkpt>
<trkpt lat="51.598480" lon="03.761188"><ele>5.2</ele><time>2022-11-16T14:20:53Z</time><name>PT8809</name></trkpt>
<trkpt lat="51.598474" lon="03.761175"><ele>5</ele><time>2022-11-16T14:20:54Z</time><name>PT8810</name></trkpt>
<trkpt lat="51.598469" lon="03.761161"><ele>5.1</ele><time>2022-11-16T14:20:55Z</time><name>PT8811</name></trkpt>
<trkpt lat="51.598465" lon="03.761147"><ele>5</ele><time>2022-11-16T14:20:56Z</time><name>PT8812</name></trkpt>
<trkpt lat="51.598461" lon="03.761132"><ele>5.2</ele><time>2022-11-16T14:20:57Z</time><name>PT8813</name></trkpt>
<trkpt lat="51.598456" lon="03.761118"><ele>5.2</ele><time>2022-11-16T14:20:58Z</time><name>PT8814</name></trkpt>
<trkpt lat="51.598451" lon="03.761104"><ele>5.5</ele><time>2022-11-16T14:20:59Z</time><name>PT8815</name></trkpt>
<trkpt lat="51.598444" lon="03.761092"><ele>5.4</ele><time>2022-11-16T14:21:00Z</time><name>PT8816</name></trkpt>
<trkpt lat="51.598439" lon="03.761081"><ele>5.5</ele><time>2022-11-16T14:21:01Z</time><name>PT8817</name></trkpt>
<trkpt lat="51.598436" lon="03.761069"><ele>5.5</ele><time>2022-11-16T14:21:02Z</time><name>PT8818</name></trkpt>
<trkpt lat="51.598434" lon="03.761063"><ele>5.4</ele><time>2022-11-16T14:21:03Z</time><name>PT8819</name></trkpt>
<trkpt lat="51.598433" lon="03.761060"><ele>5.4</ele><time>2022-11-16T14:21:04Z</time><name>PT8820</name></trkpt>
<trkpt lat="51.598431" lon="03.761054"><ele>5.5</ele><time>2022-11-16T14:21:05Z</time><name>PT8821</name></trkpt>
<trkpt lat="51.598427" lon="03.761045"><ele>5.7</ele><time>2022-11-16T14:21:06Z</time><name>PT8822</name></trkpt>
<trkpt lat="51.598423" lon="03.761036"><ele>5.6</ele><time>2022-11-16T14:21:07Z</time><name>PT8823</name></trkpt>
<trkpt lat="51.598419" lon="03.761026"><ele>5.5</ele><time>2022-11-16T14:21:08Z</time><name>PT8824</name></trkpt>
<trkpt lat="51.598415" lon="03.761015"><ele>5.4</ele><time>2022-11-16T14:21:09Z</time><name>PT8825</name></trkpt>
<trkpt lat="51.598411" lon="03.761003"><ele>5.6</ele><time>2022-11-16T14:21:10Z</time><name>PT8826</name></trkpt>
<trkpt lat="51.598406" lon="03.760992"><ele>5.6</ele><time>2022-11-16T14:21:11Z</time><name>PT8827</name></trkpt>
<trkpt lat="51.598403" lon="03.760984"><ele>5.9</ele><time>2022-11-16T14:21:12Z</time><name>PT8828</name></trkpt>
<trkpt lat="51.598402" lon="03.760982"><ele>5.8</ele><time>2022-11-16T14:21:13Z</time><name>PT8829</name></trkpt>
<trkpt lat="51.598402" lon="03.760980"><ele>6</ele><time>2022-11-16T14:21:15Z</time><name>PT8830</name></trkpt>
<trkpt lat="51.598401" lon="03.760978"><ele>5.8</ele><time>2022-11-16T14:21:17Z</time><name>PT8831</name></trkpt>
<trkpt lat="51.598396" lon="03.760966"><ele>5.7</ele><time>2022-11-16T14:21:18Z</time><name>PT8832</name></trkpt>
<trkpt lat="51.598392" lon="03.760955"><ele>5.7</ele><time>2022-11-16T14:21:19Z</time><name>PT8833</name></trkpt>
<trkpt lat="51.598387" lon="03.760943"><ele>5.6</ele><time>2022-11-16T14:21:20Z</time><name>PT8834</name></trkpt>
<trkpt lat="51.598382" lon="03.760932"><ele>5.3</ele><time>2022-11-16T14:21:21Z</time><name>PT8835</name></trkpt>
<trkpt lat="51.598378" lon="03.760921"><ele>5.2</ele><time>2022-11-16T14:21:22Z</time><name>PT8836</name></trkpt>
<trkpt lat="51.598373" lon="03.760910"><ele>5.1</ele><time>2022-11-16T14:21:23Z</time><name>PT8837</name></trkpt>
<trkpt lat="51.598368" lon="03.760902"><ele>5.1</ele><time>2022-11-16T14:21:24Z</time><name>PT8838</name></trkpt>
<trkpt lat="51.598362" lon="03.760894"><ele>5</ele><time>2022-11-16T14:21:25Z</time><name>PT8839</name></trkpt>
<trkpt lat="51.598357" lon="03.760887"><ele>5</ele><time>2022-11-16T14:21:26Z</time><name>PT8840</name></trkpt>
<trkpt lat="51.598351" lon="03.760879"><ele>5</ele><time>2022-11-16T14:21:27Z</time><name>PT8841</name></trkpt>
<trkpt lat="51.598345" lon="03.760871"><ele>5</ele><time>2022-11-16T14:21:28Z</time><name>PT8842</name></trkpt>
<trkpt lat="51.598339" lon="03.760866"><ele>4.9</ele><time>2022-11-16T14:21:29Z</time><name>PT8843</name></trkpt>
<trkpt lat="51.598331" lon="03.760860"><ele>4.8</ele><time>2022-11-16T14:21:30Z</time><name>PT8844</name></trkpt>
<trkpt lat="51.598324" lon="03.760854"><ele>4.8</ele><time>2022-11-16T14:21:31Z</time><name>PT8845</name></trkpt>
<trkpt lat="51.598316" lon="03.760847"><ele>4.8</ele><time>2022-11-16T14:21:32Z</time><name>PT8846</name></trkpt>
<trkpt lat="51.598308" lon="03.760844"><ele>4.7</ele><time>2022-11-16T14:21:33Z</time><name>PT8847</name></trkpt>
<trkpt lat="51.598298" lon="03.760841"><ele>4.6</ele><time>2022-11-16T14:21:34Z</time><name>PT8848</name></trkpt>
<trkpt lat="51.598289" lon="03.760838"><ele>4.6</ele><time>2022-11-16T14:21:35Z</time><name>PT8849</name></trkpt>
<trkpt lat="51.598280" lon="03.760834"><ele>4.6</ele><time>2022-11-16T14:21:36Z</time><name>PT8850</name></trkpt>
<trkpt lat="51.598271" lon="03.760835"><ele>4.7</ele><time>2022-11-16T14:21:37Z</time><name>PT8851</name></trkpt>
<trkpt lat="51.598261" lon="03.760837"><ele>4.9</ele><time>2022-11-16T14:21:38Z</time><name>PT8852</name></trkpt>
<trkpt lat="51.598251" lon="03.760837"><ele>4.9</ele><time>2022-11-16T14:21:39Z</time><name>PT8853</name></trkpt>
<trkpt lat="51.598242" lon="03.760836"><ele>5</ele><time>2022-11-16T14:21:40Z</time><name>PT8854</name></trkpt>
<trkpt lat="51.598232" lon="03.760833"><ele>4.9</ele><time>2022-11-16T14:21:41Z</time><name>PT8855</name></trkpt>
<trkpt lat="51.598223" lon="03.760832"><ele>4.8</ele><time>2022-11-16T14:21:42Z</time><name>PT8856</name></trkpt>
<trkpt lat="51.598213" lon="03.760832"><ele>4.8</ele><time>2022-11-16T14:21:43Z</time><name>PT8857</name></trkpt>
<trkpt lat="51.598202" lon="03.760833"><ele>4.8</ele><time>2022-11-16T14:21:44Z</time><name>PT8858</name></trkpt>
<trkpt lat="51.598194" lon="03.760832"><ele>4.8</ele><time>2022-11-16T14:21:45Z</time><name>PT8859</name></trkpt>
<trkpt lat="51.598187" lon="03.760831"><ele>5</ele><time>2022-11-16T14:21:46Z</time><name>PT8860</name></trkpt>
<trkpt lat="51.598177" lon="03.760832"><ele>5.2</ele><time>2022-11-16T14:21:47Z</time><name>PT8861</name></trkpt>
<trkpt lat="51.598165" lon="03.760828"><ele>5.3</ele><time>2022-11-16T14:21:48Z</time><name>PT8862</name></trkpt>
<trkpt lat="51.598152" lon="03.760825"><ele>5.2</ele><time>2022-11-16T14:21:49Z</time><name>PT8863</name></trkpt>
<trkpt lat="51.598141" lon="03.760826"><ele>5.2</ele><time>2022-11-16T14:21:50Z</time><name>PT8864</name></trkpt>
<trkpt lat="51.598131" lon="03.760826"><ele>5.2</ele><time>2022-11-16T14:21:51Z</time><name>PT8865</name></trkpt>
<trkpt lat="51.598121" lon="03.760825"><ele>5.1</ele><time>2022-11-16T14:21:52Z</time><name>PT8866</name></trkpt>
<trkpt lat="51.598110" lon="03.760822"><ele>5.2</ele><time>2022-11-16T14:21:53Z</time><name>PT8867</name></trkpt>
<trkpt lat="51.598102" lon="03.760822"><ele>5.3</ele><time>2022-11-16T14:21:54Z</time><name>PT8868</name></trkpt>
<trkpt lat="51.598094" lon="03.760823"><ele>5.4</ele><time>2022-11-16T14:21:55Z</time><name>PT8869</name></trkpt>
<trkpt lat="51.598085" lon="03.760825"><ele>5.4</ele><time>2022-11-16T14:21:56Z</time><name>PT8870</name></trkpt>
<trkpt lat="51.598074" lon="03.760826"><ele>5.4</ele><time>2022-11-16T14:21:57Z</time><name>PT8871</name></trkpt>
<trkpt lat="51.598065" lon="03.760825"><ele>5.2</ele><time>2022-11-16T14:21:58Z</time><name>PT8872</name></trkpt>
<trkpt lat="51.598056" lon="03.760824"><ele>5.2</ele><time>2022-11-16T14:21:59Z</time><name>PT8873</name></trkpt>
<trkpt lat="51.598046" lon="03.760824"><ele>5.2</ele><time>2022-11-16T14:22:00Z</time><name>PT8874</name></trkpt>
<trkpt lat="51.598036" lon="03.760825"><ele>5.1</ele><time>2022-11-16T14:22:01Z</time><name>PT8875</name></trkpt>
<trkpt lat="51.598027" lon="03.760824"><ele>5</ele><time>2022-11-16T14:22:02Z</time><name>PT8876</name></trkpt>
<trkpt lat="51.598019" lon="03.760824"><ele>5.2</ele><time>2022-11-16T14:22:03Z</time><name>PT8877</name></trkpt>
<trkpt lat="51.598010" lon="03.760823"><ele>5.1</ele><time>2022-11-16T14:22:04Z</time><name>PT8878</name></trkpt>
<trkpt lat="51.598000" lon="03.760820"><ele>5</ele><time>2022-11-16T14:22:05Z</time><name>PT8879</name></trkpt>
<trkpt lat="51.597991" lon="03.760820"><ele>5.2</ele><time>2022-11-16T14:22:06Z</time><name>PT8880</name></trkpt>
<trkpt lat="51.597983" lon="03.760819"><ele>5.2</ele><time>2022-11-16T14:22:07Z</time><name>PT8881</name></trkpt>
<trkpt lat="51.597974" lon="03.760817"><ele>5.1</ele><time>2022-11-16T14:22:08Z</time><name>PT8882</name></trkpt>
<trkpt lat="51.597966" lon="03.760818"><ele>5.1</ele><time>2022-11-16T14:22:09Z</time><name>PT8883</name></trkpt>
<trkpt lat="51.597957" lon="03.760817"><ele>5.1</ele><time>2022-11-16T14:22:10Z</time><name>PT8884</name></trkpt>
<trkpt lat="51.597949" lon="03.760815"><ele>4.9</ele><time>2022-11-16T14:22:11Z</time><name>PT8885</name></trkpt>
<trkpt lat="51.597940" lon="03.760814"><ele>5</ele><time>2022-11-16T14:22:12Z</time><name>PT8886</name></trkpt>
<trkpt lat="51.597931" lon="03.760814"><ele>5</ele><time>2022-11-16T14:22:13Z</time><name>PT8887</name></trkpt>
<trkpt lat="51.597922" lon="03.760813"><ele>4.8</ele><time>2022-11-16T14:22:14Z</time><name>PT8888</name></trkpt>
<trkpt lat="51.597914" lon="03.760813"><ele>4.7</ele><time>2022-11-16T14:22:15Z</time><name>PT8889</name></trkpt>
<trkpt lat="51.597906" lon="03.760813"><ele>4.7</ele><time>2022-11-16T14:22:16Z</time><name>PT8890</name></trkpt>
<trkpt lat="51.597899" lon="03.760813"><ele>4.5</ele><time>2022-11-16T14:22:17Z</time><name>PT8891</name></trkpt>
<trkpt lat="51.597893" lon="03.760811"><ele>4.6</ele><time>2022-11-16T14:22:18Z</time><name>PT8892</name></trkpt>
<trkpt lat="51.597890" lon="03.760812"><ele>4.6</ele><time>2022-11-16T14:22:19Z</time><name>PT8893</name></trkpt>
<trkpt lat="51.597887" lon="03.760813"><ele>4.8</ele><time>2022-11-16T14:22:20Z</time><name>PT8894</name></trkpt>
<trkpt lat="51.597887" lon="03.760819"><ele>5</ele><time>2022-11-16T14:22:21Z</time><name>PT8895</name></trkpt>
<trkpt lat="51.597886" lon="03.760818"><ele>5.1</ele><time>2022-11-16T14:22:22Z</time><name>PT8896</name></trkpt>
<trkpt lat="51.597884" lon="03.760813"><ele>4.9</ele><time>2022-11-16T14:22:23Z</time><name>PT8897</name></trkpt>
<trkpt lat="51.597884" lon="03.760814"><ele>4.8</ele><time>2022-11-16T14:22:24Z</time><name>PT8898</name></trkpt>
<trkpt lat="51.597887" lon="03.760814"><ele>4.9</ele><time>2022-11-16T14:22:25Z</time><name>PT8899</name></trkpt>
<trkpt lat="51.597887" lon="03.760813"><ele>4.9</ele><time>2022-11-16T14:22:26Z</time><name>PT8900</name></trkpt>
<trkpt lat="51.597887" lon="03.760812"><ele>5</ele><time>2022-11-16T14:22:27Z</time><name>PT8901</name></trkpt>
<trkpt lat="51.597887" lon="03.760812"><ele>5.2</ele><time>2022-11-16T14:22:28Z</time><name>PT8902</name></trkpt>
<trkpt lat="51.597886" lon="03.760812"><ele>5.3</ele><time>2022-11-16T14:22:29Z</time><name>PT8903</name></trkpt>
<trkpt lat="51.597887" lon="03.760812"><ele>4.9</ele><time>2022-11-16T14:22:31Z</time><name>PT8904</name></trkpt>
<trkpt lat="51.597889" lon="03.760817"><ele>4.7</ele><time>2022-11-16T14:22:32Z</time><name>PT8905</name></trkpt>
<trkpt lat="51.597889" lon="03.760821"><ele>4.6</ele><time>2022-11-16T14:22:33Z</time><name>PT8906</name></trkpt>
<trkpt lat="51.597891" lon="03.760822"><ele>4.6</ele><time>2022-11-16T14:22:34Z</time><name>PT8907</name></trkpt>
<trkpt lat="51.597892" lon="03.760823"><ele>4.7</ele><time>2022-11-16T14:22:35Z</time><name>PT8908</name></trkpt>
<trkpt lat="51.597893" lon="03.760825"><ele>5.2</ele><time>2022-11-16T14:22:36Z</time><name>PT8909</name></trkpt>
<trkpt lat="51.597894" lon="03.760827"><ele>5.4</ele><time>2022-11-16T14:22:37Z</time><name>PT8910</name></trkpt>
<trkpt lat="51.597893" lon="03.760826"><ele>4.6</ele><time>2022-11-16T14:22:50Z</time><name>PT8911</name></trkpt>
<trkpt lat="51.597888" lon="03.760822"><ele>4.9</ele><time>2022-11-16T14:22:51Z</time><name>PT8912</name></trkpt>
<trkpt lat="51.597885" lon="03.760822"><ele>5.1</ele><time>2022-11-16T14:22:52Z</time><name>PT8913</name></trkpt>
<trkpt lat="51.597887" lon="03.760822"><ele>5.4</ele><time>2022-11-16T14:22:53Z</time><name>PT8914</name></trkpt>
<trkpt lat="51.597888" lon="03.760823"><ele>5.3</ele><time>2022-11-16T14:22:54Z</time><name>PT8915</name></trkpt>
<trkpt lat="51.597888" lon="03.760821"><ele>5.3</ele><time>2022-11-16T14:22:55Z</time><name>PT8916</name></trkpt>
<trkpt lat="51.597884" lon="03.760807"><ele>5.2</ele><time>2022-11-16T14:22:56Z</time><name>PT8917</name></trkpt>
<trkpt lat="51.597880" lon="03.760798"><ele>5.1</ele><time>2022-11-16T14:22:57Z</time><name>PT8918</name></trkpt>
<trkpt lat="51.597877" lon="03.760801"><ele>5.2</ele><time>2022-11-16T14:22:59Z</time><name>PT8919</name></trkpt>
<trkpt lat="51.597871" lon="03.760806"><ele>5.4</ele><time>2022-11-16T14:23:00Z</time><name>PT8920</name></trkpt>
<trkpt lat="51.597868" lon="03.760809"><ele>5.6</ele><time>2022-11-16T14:23:01Z</time><name>PT8921</name></trkpt>
<trkpt lat="51.597860" lon="03.760810"><ele>5.7</ele><time>2022-11-16T14:23:02Z</time><name>PT8922</name></trkpt>
<trkpt lat="51.597848" lon="03.760810"><ele>5.7</ele><time>2022-11-16T14:23:03Z</time><name>PT8923</name></trkpt>
<trkpt lat="51.597836" lon="03.760809"><ele>5.8</ele><time>2022-11-16T14:23:04Z</time><name>PT8924</name></trkpt>
<trkpt lat="51.597830" lon="03.760813"><ele>5.9</ele><time>2022-11-16T14:23:05Z</time><name>PT8925</name></trkpt>
<trkpt lat="51.597827" lon="03.760816"><ele>5.7</ele><time>2022-11-16T14:23:06Z</time><name>PT8926</name></trkpt>
<trkpt lat="51.597822" lon="03.760816"><ele>5.7</ele><time>2022-11-16T14:23:07Z</time><name>PT8927</name></trkpt>
<trkpt lat="51.597811" lon="03.760814"><ele>5.7</ele><time>2022-11-16T14:23:08Z</time><name>PT8928</name></trkpt>
<trkpt lat="51.597794" lon="03.760813"><ele>5.4</ele><time>2022-11-16T14:23:09Z</time><name>PT8929</name></trkpt>
<trkpt lat="51.597781" lon="03.760816"><ele>5.4</ele><time>2022-11-16T14:23:10Z</time><name>PT8930</name></trkpt>
<trkpt lat="51.597774" lon="03.760820"><ele>5.4</ele><time>2022-11-16T14:23:11Z</time><name>PT8931</name></trkpt>
<trkpt lat="51.597770" lon="03.760822"><ele>5.3</ele><time>2022-11-16T14:23:12Z</time><name>PT8932</name></trkpt>
<trkpt lat="51.597765" lon="03.760822"><ele>5.2</ele><time>2022-11-16T14:23:13Z</time><name>PT8933</name></trkpt>
<trkpt lat="51.597754" lon="03.760821"><ele>5.3</ele><time>2022-11-16T14:23:14Z</time><name>PT8934</name></trkpt>
<trkpt lat="51.597738" lon="03.760822"><ele>5.2</ele><time>2022-11-16T14:23:15Z</time><name>PT8935</name></trkpt>
<trkpt lat="51.597725" lon="03.760825"><ele>5.3</ele><time>2022-11-16T14:23:16Z</time><name>PT8936</name></trkpt>
<trkpt lat="51.597719" lon="03.760827"><ele>5.6</ele><time>2022-11-16T14:23:17Z</time><name>PT8937</name></trkpt>
<trkpt lat="51.597714" lon="03.760831"><ele>5.6</ele><time>2022-11-16T14:23:18Z</time><name>PT8938</name></trkpt>
<trkpt lat="51.597709" lon="03.760835"><ele>5.7</ele><time>2022-11-16T14:23:19Z</time><name>PT8939</name></trkpt>
<trkpt lat="51.597705" lon="03.760845"><ele>5.7</ele><time>2022-11-16T14:23:20Z</time><name>PT8940</name></trkpt>
<trkpt lat="51.597693" lon="03.760845"><ele>5.7</ele><time>2022-11-16T14:23:21Z</time><name>PT8941</name></trkpt>
<trkpt lat="51.597683" lon="03.760845"><ele>5.7</ele><time>2022-11-16T14:23:22Z</time><name>PT8942</name></trkpt>
<trkpt lat="51.597678" lon="03.760840"><ele>5.7</ele><time>2022-11-16T14:23:23Z</time><name>PT8943</name></trkpt>
<trkpt lat="51.597680" lon="03.760837"><ele>5.7</ele><time>2022-11-16T14:23:24Z</time><name>PT8944</name></trkpt>
<trkpt lat="51.597671" lon="03.760839"><ele>5.7</ele><time>2022-11-16T14:23:25Z</time><name>PT8945</name></trkpt>
<trkpt lat="51.597658" lon="03.760844"><ele>5.9</ele><time>2022-11-16T14:23:26Z</time><name>PT8946</name></trkpt>
<trkpt lat="51.597647" lon="03.760848"><ele>6.2</ele><time>2022-11-16T14:23:27Z</time><name>PT8947</name></trkpt>
<trkpt lat="51.597641" lon="03.760853"><ele>6.5</ele><time>2022-11-16T14:23:28Z</time><name>PT8948</name></trkpt>
<trkpt lat="51.597637" lon="03.760859"><ele>6.8</ele><time>2022-11-16T14:23:29Z</time><name>PT8949</name></trkpt>
<trkpt lat="51.597630" lon="03.760855"><ele>7.3</ele><time>2022-11-16T14:23:30Z</time><name>PT8950</name></trkpt>
<trkpt lat="51.597618" lon="03.760852"><ele>7.3</ele><time>2022-11-16T14:23:31Z</time><name>PT8951</name></trkpt>
<trkpt lat="51.597601" lon="03.760850"><ele>7.3</ele><time>2022-11-16T14:23:32Z</time><name>PT8952</name></trkpt>
<trkpt lat="51.597584" lon="03.760854"><ele>7.3</ele><time>2022-11-16T14:23:33Z</time><name>PT8953</name></trkpt>
<trkpt lat="51.597573" lon="03.760858"><ele>7.3</ele><time>2022-11-16T14:23:34Z</time><name>PT8954</name></trkpt>
<trkpt lat="51.597568" lon="03.760862"><ele>7.3</ele><time>2022-11-16T14:23:35Z</time><name>PT8955</name></trkpt>
<trkpt lat="51.597566" lon="03.760865"><ele>7.4</ele><time>2022-11-16T14:23:36Z</time><name>PT8956</name></trkpt>
<trkpt lat="51.597561" lon="03.760867"><ele>7.4</ele><time>2022-11-16T14:23:37Z</time><name>PT8957</name></trkpt>
<trkpt lat="51.597550" lon="03.760862"><ele>7.2</ele><time>2022-11-16T14:23:38Z</time><name>PT8958</name></trkpt>
<trkpt lat="51.597534" lon="03.760859"><ele>7</ele><time>2022-11-16T14:23:39Z</time><name>PT8959</name></trkpt>
<trkpt lat="51.597519" lon="03.760857"><ele>6.9</ele><time>2022-11-16T14:23:40Z</time><name>PT8960</name></trkpt>
<trkpt lat="51.597510" lon="03.760858"><ele>6.7</ele><time>2022-11-16T14:23:41Z</time><name>PT8961</name></trkpt>
<trkpt lat="51.597505" lon="03.760861"><ele>6.7</ele><time>2022-11-16T14:23:42Z</time><name>PT8962</name></trkpt>
<trkpt lat="51.597500" lon="03.760864"><ele>6.9</ele><time>2022-11-16T14:23:43Z</time><name>PT8963</name></trkpt>
<trkpt lat="51.597492" lon="03.760859"><ele>6.9</ele><time>2022-11-16T14:23:44Z</time><name>PT8964</name></trkpt>
<trkpt lat="51.597480" lon="03.760853"><ele>7.1</ele><time>2022-11-16T14:23:45Z</time><name>PT8965</name></trkpt>
<trkpt lat="51.597464" lon="03.760845"><ele>7.3</ele><time>2022-11-16T14:23:46Z</time><name>PT8966</name></trkpt>
<trkpt lat="51.597452" lon="03.760842"><ele>7.4</ele><time>2022-11-16T14:23:47Z</time><name>PT8967</name></trkpt>
<trkpt lat="51.597445" lon="03.760845"><ele>7.7</ele><time>2022-11-16T14:23:48Z</time><name>PT8968</name></trkpt>
<trkpt lat="51.597442" lon="03.760845"><ele>7.8</ele><time>2022-11-16T14:23:49Z</time><name>PT8969</name></trkpt>
<trkpt lat="51.597437" lon="03.760842"><ele>7.8</ele><time>2022-11-16T14:23:50Z</time><name>PT8970</name></trkpt>
<trkpt lat="51.597426" lon="03.760836"><ele>7.9</ele><time>2022-11-16T14:23:51Z</time><name>PT8971</name></trkpt>
<trkpt lat="51.597414" lon="03.760833"><ele>7.9</ele><time>2022-11-16T14:23:52Z</time><name>PT8972</name></trkpt>
<trkpt lat="51.597407" lon="03.760833"><ele>7.8</ele><time>2022-11-16T14:23:53Z</time><name>PT8973</name></trkpt>
<trkpt lat="51.597402" lon="03.760830"><ele>7.8</ele><time>2022-11-16T14:23:54Z</time><name>PT8974</name></trkpt>
<trkpt lat="51.597396" lon="03.760827"><ele>7.8</ele><time>2022-11-16T14:23:55Z</time><name>PT8975</name></trkpt>
<trkpt lat="51.597386" lon="03.760822"><ele>7.7</ele><time>2022-11-16T14:23:56Z</time><name>PT8976</name></trkpt>
<trkpt lat="51.597373" lon="03.760814"><ele>7.7</ele><time>2022-11-16T14:23:57Z</time><name>PT8977</name></trkpt>
<trkpt lat="51.597363" lon="03.760812"><ele>7.8</ele><time>2022-11-16T14:23:58Z</time><name>PT8978</name></trkpt>
<trkpt lat="51.597358" lon="03.760813"><ele>7.8</ele><time>2022-11-16T14:23:59Z</time><name>PT8979</name></trkpt>
<trkpt lat="51.597354" lon="03.760811"><ele>8.1</ele><time>2022-11-16T14:24:00Z</time><name>PT8980</name></trkpt>
<trkpt lat="51.597347" lon="03.760805"><ele>8.3</ele><time>2022-11-16T14:24:01Z</time><name>PT8981</name></trkpt>
<trkpt lat="51.597335" lon="03.760798"><ele>8.5</ele><time>2022-11-16T14:24:02Z</time><name>PT8982</name></trkpt>
<trkpt lat="51.597326" lon="03.760796"><ele>8.7</ele><time>2022-11-16T14:24:03Z</time><name>PT8983</name></trkpt>
<trkpt lat="51.597321" lon="03.760797"><ele>8.7</ele><time>2022-11-16T14:24:04Z</time><name>PT8984</name></trkpt>
<trkpt lat="51.597316" lon="03.760797"><ele>8.8</ele><time>2022-11-16T14:24:05Z</time><name>PT8985</name></trkpt>
<trkpt lat="51.597305" lon="03.760787"><ele>8.8</ele><time>2022-11-16T14:24:06Z</time><name>PT8986</name></trkpt>
<trkpt lat="51.597292" lon="03.760775"><ele>8.8</ele><time>2022-11-16T14:24:07Z</time><name>PT8987</name></trkpt>
<trkpt lat="51.597282" lon="03.760771"><ele>9</ele><time>2022-11-16T14:24:08Z</time><name>PT8988</name></trkpt>
<trkpt lat="51.597277" lon="03.760770"><ele>9.3</ele><time>2022-11-16T14:24:09Z</time><name>PT8989</name></trkpt>
<trkpt lat="51.597278" lon="03.760769"><ele>9.4</ele><time>2022-11-16T14:24:10Z</time><name>PT8990</name></trkpt>
<trkpt lat="51.597279" lon="03.760770"><ele>9.4</ele><time>2022-11-16T14:24:11Z</time><name>PT8991</name></trkpt>
<trkpt lat="51.597276" lon="03.760768"><ele>9.7</ele><time>2022-11-16T14:24:12Z</time><name>PT8992</name></trkpt>
<trkpt lat="51.597268" lon="03.760760"><ele>9.5</ele><time>2022-11-16T14:24:13Z</time><name>PT8993</name></trkpt>
<trkpt lat="51.597261" lon="03.760754"><ele>9.4</ele><time>2022-11-16T14:24:14Z</time><name>PT8994</name></trkpt>
<trkpt lat="51.597259" lon="03.760754"><ele>9.3</ele><time>2022-11-16T14:24:15Z</time><name>PT8995</name></trkpt>
<trkpt lat="51.597255" lon="03.760750"><ele>9.2</ele><time>2022-11-16T14:24:16Z</time><name>PT8996</name></trkpt>
<trkpt lat="51.597247" lon="03.760739"><ele>9.1</ele><time>2022-11-16T14:24:17Z</time><name>PT8997</name></trkpt>
<trkpt lat="51.597239" lon="03.760733"><ele>9.1</ele><time>2022-11-16T14:24:18Z</time><name>PT8998</name></trkpt>
<trkpt lat="51.597234" lon="03.760731"><ele>9.1</ele><time>2022-11-16T14:24:19Z</time><name>PT8999</name></trkpt>
<trkpt lat="51.597230" lon="03.760728"><ele>9.2</ele><time>2022-11-16T14:24:20Z</time><name>PT9000</name></trkpt>
<trkpt lat="51.597222" lon="03.760718"><ele>9.2</ele><time>2022-11-16T14:24:21Z</time><name>PT9001</name></trkpt>
<trkpt lat="51.597215" lon="03.760714"><ele>9.1</ele><time>2022-11-16T14:24:22Z</time><name>PT9002</name></trkpt>
<trkpt lat="51.597209" lon="03.760714"><ele>9.3</ele><time>2022-11-16T14:24:23Z</time><name>PT9003</name></trkpt>
<trkpt lat="51.597201" lon="03.760708"><ele>9.2</ele><time>2022-11-16T14:24:24Z</time><name>PT9004</name></trkpt>
<trkpt lat="51.597194" lon="03.760704"><ele>9.2</ele><time>2022-11-16T14:24:25Z</time><name>PT9005</name></trkpt>
<trkpt lat="51.597189" lon="03.760701"><ele>9.1</ele><time>2022-11-16T14:24:26Z</time><name>PT9006</name></trkpt>
<trkpt lat="51.597183" lon="03.760699"><ele>9.3</ele><time>2022-11-16T14:24:27Z</time><name>PT9007</name></trkpt>
<trkpt lat="51.597178" lon="03.760697"><ele>9.2</ele><time>2022-11-16T14:24:28Z</time><name>PT9008</name></trkpt>
<trkpt lat="51.597174" lon="03.760695"><ele>9.2</ele><time>2022-11-16T14:24:29Z</time><name>PT9009</name></trkpt>
<trkpt lat="51.597168" lon="03.760692"><ele>9.2</ele><time>2022-11-16T14:24:30Z</time><name>PT9010</name></trkpt>
<trkpt lat="51.597163" lon="03.760688"><ele>9.2</ele><time>2022-11-16T14:24:31Z</time><name>PT9011</name></trkpt>
<trkpt lat="51.597162" lon="03.760687"><ele>9</ele><time>2022-11-16T14:24:32Z</time><name>PT9012</name></trkpt>
<trkpt lat="51.597162" lon="03.760686"><ele>9.1</ele><time>2022-11-16T14:24:33Z</time><name>PT9013</name></trkpt>
<trkpt lat="51.597161" lon="03.760683"><ele>9.1</ele><time>2022-11-16T14:24:34Z</time><name>PT9014</name></trkpt>
<trkpt lat="51.597161" lon="03.760681"><ele>9.2</ele><time>2022-11-16T14:24:35Z</time><name>PT9015</name></trkpt>
<trkpt lat="51.597161" lon="03.760680"><ele>9.4</ele><time>2022-11-16T14:24:36Z</time><name>PT9016</name></trkpt>
<trkpt lat="51.597161" lon="03.760679"><ele>9.4</ele><time>2022-11-16T14:24:37Z</time><name>PT9017</name></trkpt>
<trkpt lat="51.597155" lon="03.760685"><ele>10.3</ele><time>2022-11-16T14:25:14Z</time><name>PT9018</name></trkpt>
<trkpt lat="51.597149" lon="03.760693"><ele>10.5</ele><time>2022-11-16T14:25:15Z</time><name>PT9019</name></trkpt>
<trkpt lat="51.597146" lon="03.760695"><ele>10.5</ele><time>2022-11-16T14:25:16Z</time><name>PT9020</name></trkpt>
<trkpt lat="51.597146" lon="03.760692"><ele>10.4</ele><time>2022-11-16T14:25:17Z</time><name>PT9021</name></trkpt>
<trkpt lat="51.597145" lon="03.760685"><ele>9.9</ele><time>2022-11-16T14:25:18Z</time><name>PT9022</name></trkpt>
<trkpt lat="51.597144" lon="03.760688"><ele>9.8</ele><time>2022-11-16T14:25:19Z</time><name>PT9023</name></trkpt>
<trkpt lat="51.597143" lon="03.760690"><ele>9.4</ele><time>2022-11-16T14:25:20Z</time><name>PT9024</name></trkpt>
<trkpt lat="51.597152" lon="03.760716"><ele>14.6</ele><time>2022-11-16T15:09:53Z</time><name>PT9025</name></trkpt>
<trkpt lat="51.597151" lon="03.760715"><ele>14.2</ele><time>2022-11-16T15:09:58Z</time><name>PT9026</name></trkpt>
<trkpt lat="51.597145" lon="03.760708"><ele>14.1</ele><time>2022-11-16T15:09:59Z</time><name>PT9027</name></trkpt>
<trkpt lat="51.597138" lon="03.760698"><ele>14</ele><time>2022-11-16T15:10:00Z</time><name>PT9028</name></trkpt>
<trkpt lat="51.597132" lon="03.760687"><ele>14</ele><time>2022-11-16T15:10:01Z</time><name>PT9029</name></trkpt>
<trkpt lat="51.597125" lon="03.760678"><ele>14</ele><time>2022-11-16T15:10:02Z</time><name>PT9030</name></trkpt>
<trkpt lat="51.597117" lon="03.760669"><ele>14.1</ele><time>2022-11-16T15:10:03Z</time><name>PT9031</name></trkpt>
<trkpt lat="51.597109" lon="03.760661"><ele>14.3</ele><time>2022-11-16T15:10:04Z</time><name>PT9032</name></trkpt>
<trkpt lat="51.597102" lon="03.760651"><ele>14.5</ele><time>2022-11-16T15:10:05Z</time><name>PT9033</name></trkpt>
<trkpt lat="51.597096" lon="03.760640"><ele>14.6</ele><time>2022-11-16T15:10:06Z</time><name>PT9034</name></trkpt>
<trkpt lat="51.597090" lon="03.760627"><ele>14.8</ele><time>2022-11-16T15:10:07Z</time><name>PT9035</name></trkpt>
<trkpt lat="51.597085" lon="03.760615"><ele>15</ele><time>2022-11-16T15:10:08Z</time><name>PT9036</name></trkpt>
<trkpt lat="51.597078" lon="03.760603"><ele>14.9</ele><time>2022-11-16T15:10:09Z</time><name>PT9037</name></trkpt>
<trkpt lat="51.597071" lon="03.760590"><ele>15</ele><time>2022-11-16T15:10:10Z</time><name>PT9038</name></trkpt>
<trkpt lat="51.597063" lon="03.760577"><ele>14.9</ele><time>2022-11-16T15:10:11Z</time><name>PT9039</name></trkpt>
<trkpt lat="51.597057" lon="03.760562"><ele>14.9</ele><time>2022-11-16T15:10:12Z</time><name>PT9040</name></trkpt>
<trkpt lat="51.597051" lon="03.760548"><ele>14.8</ele><time>2022-11-16T15:10:13Z</time><name>PT9041</name></trkpt>
<trkpt lat="51.597044" lon="03.760533"><ele>15</ele><time>2022-11-16T15:10:14Z</time><name>PT9042</name></trkpt>
<trkpt lat="51.597038" lon="03.760518"><ele>15.1</ele><time>2022-11-16T15:10:15Z</time><name>PT9043</name></trkpt>
<trkpt lat="51.597033" lon="03.760503"><ele>15.2</ele><time>2022-11-16T15:10:16Z</time><name>PT9044</name></trkpt>
<trkpt lat="51.597028" lon="03.760486"><ele>15.3</ele><time>2022-11-16T15:10:17Z</time><name>PT9045</name></trkpt>
<trkpt lat="51.597023" lon="03.760467"><ele>15.4</ele><time>2022-11-16T15:10:18Z</time><name>PT9046</name></trkpt>
<trkpt lat="51.597018" lon="03.760451"><ele>15.2</ele><time>2022-11-16T15:10:19Z</time><name>PT9047</name></trkpt>
<trkpt lat="51.597013" lon="03.760437"><ele>15.1</ele><time>2022-11-16T15:10:20Z</time><name>PT9048</name></trkpt>
<trkpt lat="51.597007" lon="03.760423"><ele>15.2</ele><time>2022-11-16T15:10:21Z</time><name>PT9049</name></trkpt>
<trkpt lat="51.597000" lon="03.760409"><ele>15.2</ele><time>2022-11-16T15:10:22Z</time><name>PT9050</name></trkpt>
<trkpt lat="51.596993" lon="03.760395"><ele>14.9</ele><time>2022-11-16T15:10:23Z</time><name>PT9051</name></trkpt>
<trkpt lat="51.596987" lon="03.760380"><ele>14.9</ele><time>2022-11-16T15:10:24Z</time><name>PT9052</name></trkpt>
<trkpt lat="51.596982" lon="03.760366"><ele>14.8</ele><time>2022-11-16T15:10:25Z</time><name>PT9053</name></trkpt>
<trkpt lat="51.596978" lon="03.760351"><ele>14.5</ele><time>2022-11-16T15:10:26Z</time><name>PT9054</name></trkpt>
<trkpt lat="51.596973" lon="03.760336"><ele>14.4</ele><time>2022-11-16T15:10:27Z</time><name>PT9055</name></trkpt>
<trkpt lat="51.596969" lon="03.760320"><ele>14.1</ele><time>2022-11-16T15:10:28Z</time><name>PT9056</name></trkpt>
<trkpt lat="51.596966" lon="03.760305"><ele>14.1</ele><time>2022-11-16T15:10:29Z</time><name>PT9057</name></trkpt>
<trkpt lat="51.596962" lon="03.760289"><ele>14.1</ele><time>2022-11-16T15:10:30Z</time><name>PT9058</name></trkpt>
<trkpt lat="51.596959" lon="03.760272"><ele>14.1</ele><time>2022-11-16T15:10:31Z</time><name>PT9059</name></trkpt>
<trkpt lat="51.596956" lon="03.760255"><ele>13.9</ele><time>2022-11-16T15:10:32Z</time><name>PT9060</name></trkpt>
<trkpt lat="51.596954" lon="03.760237"><ele>13.9</ele><time>2022-11-16T15:10:33Z</time><name>PT9061</name></trkpt>
<trkpt lat="51.596952" lon="03.760220"><ele>13.8</ele><time>2022-11-16T15:10:34Z</time><name>PT9062</name></trkpt>
<trkpt lat="51.596949" lon="03.760204"><ele>13.6</ele><time>2022-11-16T15:10:35Z</time><name>PT9063</name></trkpt>
<trkpt lat="51.596946" lon="03.760189"><ele>13.5</ele><time>2022-11-16T15:10:36Z</time><name>PT9064</name></trkpt>
<trkpt lat="51.596943" lon="03.760172"><ele>13.3</ele><time>2022-11-16T15:10:37Z</time><name>PT9065</name></trkpt>
<trkpt lat="51.596940" lon="03.760153"><ele>13.3</ele><time>2022-11-16T15:10:38Z</time><name>PT9066</name></trkpt>
<trkpt lat="51.596931" lon="03.760129"><ele>13.1</ele><time>2022-11-16T15:10:39Z</time><name>PT9067</name></trkpt>
<trkpt lat="51.596923" lon="03.760097"><ele>13.2</ele><time>2022-11-16T15:10:40Z</time><name>PT9068</name></trkpt>
<trkpt lat="51.596916" lon="03.760062"><ele>13</ele><time>2022-11-16T15:10:41Z</time><name>PT9069</name></trkpt>
<trkpt lat="51.596911" lon="03.760032"><ele>12.8</ele><time>2022-11-16T15:10:42Z</time><name>PT9070</name></trkpt>
<trkpt lat="51.596908" lon="03.760007"><ele>12.7</ele><time>2022-11-16T15:10:43Z</time><name>PT9071</name></trkpt>
<trkpt lat="51.596904" lon="03.759982"><ele>12.5</ele><time>2022-11-16T15:10:44Z</time><name>PT9072</name></trkpt>
<trkpt lat="51.596901" lon="03.759954"><ele>12.6</ele><time>2022-11-16T15:10:45Z</time><name>PT9073</name></trkpt>
<trkpt lat="51.596898" lon="03.759924"><ele>12.6</ele><time>2022-11-16T15:10:46Z</time><name>PT9074</name></trkpt>
<trkpt lat="51.596895" lon="03.759894"><ele>12.6</ele><time>2022-11-16T15:10:47Z</time><name>PT9075</name></trkpt>
<trkpt lat="51.596893" lon="03.759860"><ele>12.6</ele><time>2022-11-16T15:10:48Z</time><name>PT9076</name></trkpt>
<trkpt lat="51.596892" lon="03.759828"><ele>12.6</ele><time>2022-11-16T15:10:49Z</time><name>PT9077</name></trkpt>
<trkpt lat="51.596890" lon="03.759801"><ele>12.5</ele><time>2022-11-16T15:10:50Z</time><name>PT9078</name></trkpt>
<trkpt lat="51.596888" lon="03.759773"><ele>12.4</ele><time>2022-11-16T15:10:51Z</time><name>PT9079</name></trkpt>
<trkpt lat="51.596885" lon="03.759743"><ele>12.3</ele><time>2022-11-16T15:10:52Z</time><name>PT9080</name></trkpt>
<trkpt lat="51.596883" lon="03.759716"><ele>12.2</ele><time>2022-11-16T15:10:53Z</time><name>PT9081</name></trkpt>
<trkpt lat="51.596882" lon="03.759687"><ele>12</ele><time>2022-11-16T15:10:54Z</time><name>PT9082</name></trkpt>
<trkpt lat="51.596882" lon="03.759658"><ele>12</ele><time>2022-11-16T15:10:55Z</time><name>PT9083</name></trkpt>
<trkpt lat="51.596883" lon="03.759631"><ele>12</ele><time>2022-11-16T15:10:56Z</time><name>PT9084</name></trkpt>
<trkpt lat="51.596884" lon="03.759605"><ele>11.9</ele><time>2022-11-16T15:10:57Z</time><name>PT9085</name></trkpt>
<trkpt lat="51.596885" lon="03.759582"><ele>11.9</ele><time>2022-11-16T15:10:58Z</time><name>PT9086</name></trkpt>
<trkpt lat="51.596887" lon="03.759557"><ele>11.9</ele><time>2022-11-16T15:10:59Z</time><name>PT9087</name></trkpt>
<trkpt lat="51.596888" lon="03.759536"><ele>11.7</ele><time>2022-11-16T15:11:00Z</time><name>PT9088</name></trkpt>
<trkpt lat="51.596889" lon="03.759518"><ele>11.5</ele><time>2022-11-16T15:11:01Z</time><name>PT9089</name></trkpt>
<trkpt lat="51.596891" lon="03.759498"><ele>11.6</ele><time>2022-11-16T15:11:02Z</time><name>PT9090</name></trkpt>
<trkpt lat="51.596892" lon="03.759476"><ele>11.7</ele><time>2022-11-16T15:11:03Z</time><name>PT9091</name></trkpt>
<trkpt lat="51.596893" lon="03.759455"><ele>11.9</ele><time>2022-11-16T15:11:04Z</time><name>PT9092</name></trkpt>
<trkpt lat="51.596893" lon="03.759424"><ele>12</ele><time>2022-11-16T15:11:05Z</time><name>PT9093</name></trkpt>
<trkpt lat="51.596897" lon="03.759405"><ele>11.8</ele><time>2022-11-16T15:11:06Z</time><name>PT9094</name></trkpt>
<trkpt lat="51.596900" lon="03.759385"><ele>11.7</ele><time>2022-11-16T15:11:07Z</time><name>PT9095</name></trkpt>
<trkpt lat="51.596902" lon="03.759364"><ele>11.6</ele><time>2022-11-16T15:11:08Z</time><name>PT9096</name></trkpt>
<trkpt lat="51.596902" lon="03.759348"><ele>11.5</ele><time>2022-11-16T15:11:09Z</time><name>PT9097</name></trkpt>
<trkpt lat="51.596902" lon="03.759333"><ele>11.5</ele><time>2022-11-16T15:11:10Z</time><name>PT9098</name></trkpt>
<trkpt lat="51.596900" lon="03.759315"><ele>11.5</ele><time>2022-11-16T15:11:11Z</time><name>PT9099</name></trkpt>
<trkpt lat="51.596903" lon="03.759301"><ele>11.5</ele><time>2022-11-16T15:11:12Z</time><name>PT9100</name></trkpt>
<trkpt lat="51.596903" lon="03.759289"><ele>11.5</ele><time>2022-11-16T15:11:13Z</time><name>PT9101</name></trkpt>
<trkpt lat="51.596904" lon="03.759274"><ele>11.3</ele><time>2022-11-16T15:11:14Z</time><name>PT9102</name></trkpt>
<trkpt lat="51.596907" lon="03.759262"><ele>11.2</ele><time>2022-11-16T15:11:15Z</time><name>PT9103</name></trkpt>
<trkpt lat="51.596910" lon="03.759251"><ele>11.3</ele><time>2022-11-16T15:11:16Z</time><name>PT9104</name></trkpt>
<trkpt lat="51.596913" lon="03.759239"><ele>11.2</ele><time>2022-11-16T15:11:17Z</time><name>PT9105</name></trkpt>
<trkpt lat="51.596915" lon="03.759225"><ele>11.3</ele><time>2022-11-16T15:11:18Z</time><name>PT9106</name></trkpt>
<trkpt lat="51.596917" lon="03.759210"><ele>11.1</ele><time>2022-11-16T15:11:19Z</time><name>PT9107</name></trkpt>
<trkpt lat="51.596920" lon="03.759196"><ele>11</ele><time>2022-11-16T15:11:20Z</time><name>PT9108</name></trkpt>
<trkpt lat="51.596921" lon="03.759182"><ele>11.2</ele><time>2022-11-16T15:11:21Z</time><name>PT9109</name></trkpt>
<trkpt lat="51.596924" lon="03.759168"><ele>11.2</ele><time>2022-11-16T15:11:22Z</time><name>PT9110</name></trkpt>
<trkpt lat="51.596927" lon="03.759152"><ele>11.1</ele><time>2022-11-16T15:11:23Z</time><name>PT9111</name></trkpt>
<trkpt lat="51.596930" lon="03.759136"><ele>11.4</ele><time>2022-11-16T15:11:24Z</time><name>PT9112</name></trkpt>
<trkpt lat="51.596932" lon="03.759116"><ele>11.2</ele><time>2022-11-16T15:11:25Z</time><name>PT9113</name></trkpt>
<trkpt lat="51.596933" lon="03.759094"><ele>11.1</ele><time>2022-11-16T15:11:26Z</time><name>PT9114</name></trkpt>
<trkpt lat="51.596932" lon="03.759070"><ele>11.2</ele><time>2022-11-16T15:11:27Z</time><name>PT9115</name></trkpt>
<trkpt lat="51.596930" lon="03.759047"><ele>11.2</ele><time>2022-11-16T15:11:28Z</time><name>PT9116</name></trkpt>
<trkpt lat="51.596927" lon="03.759025"><ele>11.1</ele><time>2022-11-16T15:11:29Z</time><name>PT9117</name></trkpt>
<trkpt lat="51.596924" lon="03.759006"><ele>11.1</ele><time>2022-11-16T15:11:30Z</time><name>PT9118</name></trkpt>
<trkpt lat="51.596923" lon="03.758986"><ele>11.1</ele><time>2022-11-16T15:11:31Z</time><name>PT9119</name></trkpt>
<trkpt lat="51.596922" lon="03.758969"><ele>11</ele><time>2022-11-16T15:11:32Z</time><name>PT9120</name></trkpt>
<trkpt lat="51.596919" lon="03.758950"><ele>10.9</ele><time>2022-11-16T15:11:33Z</time><name>PT9121</name></trkpt>
<trkpt lat="51.596916" lon="03.758934"><ele>11</ele><time>2022-11-16T15:11:34Z</time><name>PT9122</name></trkpt>
<trkpt lat="51.596916" lon="03.758921"><ele>10.8</ele><time>2022-11-16T15:11:35Z</time><name>PT9123</name></trkpt>
<trkpt lat="51.596916" lon="03.758909"><ele>10.9</ele><time>2022-11-16T15:11:36Z</time><name>PT9124</name></trkpt>
<trkpt lat="51.596914" lon="03.758895"><ele>10.8</ele><time>2022-11-16T15:11:37Z</time><name>PT9125</name></trkpt>
<trkpt lat="51.596913" lon="03.758885"><ele>10.8</ele><time>2022-11-16T15:11:38Z</time><name>PT9126</name></trkpt>
<trkpt lat="51.596913" lon="03.758876"><ele>10.7</ele><time>2022-11-16T15:11:39Z</time><name>PT9127</name></trkpt>
<trkpt lat="51.596913" lon="03.758866"><ele>10.6</ele><time>2022-11-16T15:11:40Z</time><name>PT9128</name></trkpt>
<trkpt lat="51.596913" lon="03.758854"><ele>10.5</ele><time>2022-11-16T15:11:41Z</time><name>PT9129</name></trkpt>
<trkpt lat="51.596913" lon="03.758842"><ele>10.5</ele><time>2022-11-16T15:11:42Z</time><name>PT9130</name></trkpt>
<trkpt lat="51.596916" lon="03.758825"><ele>10.7</ele><time>2022-11-16T15:11:43Z</time><name>PT9131</name></trkpt>
<trkpt lat="51.596920" lon="03.758809"><ele>10.9</ele><time>2022-11-16T15:11:44Z</time><name>PT9132</name></trkpt>
<trkpt lat="51.596922" lon="03.758793"><ele>11.2</ele><time>2022-11-16T15:11:45Z</time><name>PT9133</name></trkpt>
<trkpt lat="51.596923" lon="03.758778"><ele>11.4</ele><time>2022-11-16T15:11:46Z</time><name>PT9134</name></trkpt>
<trkpt lat="51.596924" lon="03.758761"><ele>11.7</ele><time>2022-11-16T15:11:47Z</time><name>PT9135</name></trkpt>
<trkpt lat="51.596925" lon="03.758744"><ele>11.9</ele><time>2022-11-16T15:11:48Z</time><name>PT9136</name></trkpt>
<trkpt lat="51.596926" lon="03.758727"><ele>11.8</ele><time>2022-11-16T15:11:49Z</time><name>PT9137</name></trkpt>
<trkpt lat="51.596928" lon="03.758711"><ele>11.7</ele><time>2022-11-16T15:11:50Z</time><name>PT9138</name></trkpt>
<trkpt lat="51.596929" lon="03.758695"><ele>11.5</ele><time>2022-11-16T15:11:51Z</time><name>PT9139</name></trkpt>
<trkpt lat="51.596930" lon="03.758678"><ele>11.3</ele><time>2022-11-16T15:11:52Z</time><name>PT9140</name></trkpt>
<trkpt lat="51.596931" lon="03.758661"><ele>11.1</ele><time>2022-11-16T15:11:53Z</time><name>PT9141</name></trkpt>
<trkpt lat="51.596931" lon="03.758645"><ele>11.3</ele><time>2022-11-16T15:11:54Z</time><name>PT9142</name></trkpt>
<trkpt lat="51.596932" lon="03.758628"><ele>11.5</ele><time>2022-11-16T15:11:55Z</time><name>PT9143</name></trkpt>
<trkpt lat="51.596931" lon="03.758611"><ele>11.5</ele><time>2022-11-16T15:11:56Z</time><name>PT9144</name></trkpt>
<trkpt lat="51.596931" lon="03.758593"><ele>11.6</ele><time>2022-11-16T15:11:57Z</time><name>PT9145</name></trkpt>
<trkpt lat="51.596930" lon="03.758574"><ele>11.7</ele><time>2022-11-16T15:11:58Z</time><name>PT9146</name></trkpt>
<trkpt lat="51.596929" lon="03.758556"><ele>11.5</ele><time>2022-11-16T15:11:59Z</time><name>PT9147</name></trkpt>
<trkpt lat="51.596928" lon="03.758540"><ele>11.6</ele><time>2022-11-16T15:12:00Z</time><name>PT9148</name></trkpt>
<trkpt lat="51.596927" lon="03.758524"><ele>11.7</ele><time>2022-11-16T15:12:01Z</time><name>PT9149</name></trkpt>
<trkpt lat="51.596926" lon="03.758507"><ele>11.7</ele><time>2022-11-16T15:12:02Z</time><name>PT9150</name></trkpt>
<trkpt lat="51.596924" lon="03.758490"><ele>11.5</ele><time>2022-11-16T15:12:03Z</time><name>PT9151</name></trkpt>
<trkpt lat="51.596924" lon="03.758473"><ele>11.5</ele><time>2022-11-16T15:12:04Z</time><name>PT9152</name></trkpt>
<trkpt lat="51.596924" lon="03.758456"><ele>11.4</ele><time>2022-11-16T15:12:05Z</time><name>PT9153</name></trkpt>
<trkpt lat="51.596923" lon="03.758439"><ele>11.3</ele><time>2022-11-16T15:12:06Z</time><name>PT9154</name></trkpt>
<trkpt lat="51.596923" lon="03.758422"><ele>11.4</ele><time>2022-11-16T15:12:07Z</time><name>PT9155</name></trkpt>
<trkpt lat="51.596924" lon="03.758404"><ele>11.5</ele><time>2022-11-16T15:12:08Z</time><name>PT9156</name></trkpt>
<trkpt lat="51.596924" lon="03.758387"><ele>11.5</ele><time>2022-11-16T15:12:09Z</time><name>PT9157</name></trkpt>
<trkpt lat="51.596925" lon="03.758371"><ele>11.5</ele><time>2022-11-16T15:12:10Z</time><name>PT9158</name></trkpt>
<trkpt lat="51.596926" lon="03.758356"><ele>11.6</ele><time>2022-11-16T15:12:11Z</time><name>PT9159</name></trkpt>
<trkpt lat="51.596927" lon="03.758340"><ele>11.7</ele><time>2022-11-16T15:12:12Z</time><name>PT9160</name></trkpt>
<trkpt lat="51.596927" lon="03.758322"><ele>11.7</ele><time>2022-11-16T15:12:13Z</time><name>PT9161</name></trkpt>
<trkpt lat="51.596927" lon="03.758305"><ele>11.5</ele><time>2022-11-16T15:12:14Z</time><name>PT9162</name></trkpt>
<trkpt lat="51.596926" lon="03.758287"><ele>11.6</ele><time>2022-11-16T15:12:15Z</time><name>PT9163</name></trkpt>
<trkpt lat="51.596926" lon="03.758269"><ele>11.6</ele><time>2022-11-16T15:12:16Z</time><name>PT9164</name></trkpt>
<trkpt lat="51.596926" lon="03.758250"><ele>11.7</ele><time>2022-11-16T15:12:17Z</time><name>PT9165</name></trkpt>
<trkpt lat="51.596925" lon="03.758230"><ele>12</ele><time>2022-11-16T15:12:18Z</time><name>PT9166</name></trkpt>
<trkpt lat="51.596924" lon="03.758210"><ele>12</ele><time>2022-11-16T15:12:19Z</time><name>PT9167</name></trkpt>
<trkpt lat="51.596923" lon="03.758192"><ele>11.8</ele><time>2022-11-16T15:12:20Z</time><name>PT9168</name></trkpt>
<trkpt lat="51.596922" lon="03.758176"><ele>11.9</ele><time>2022-11-16T15:12:21Z</time><name>PT9169</name></trkpt>
<trkpt lat="51.596919" lon="03.758159"><ele>11.8</ele><time>2022-11-16T15:12:22Z</time><name>PT9170</name></trkpt>
<trkpt lat="51.596918" lon="03.758142"><ele>11.7</ele><time>2022-11-16T15:12:23Z</time><name>PT9171</name></trkpt>
<trkpt lat="51.596917" lon="03.758126"><ele>11.7</ele><time>2022-11-16T15:12:24Z</time><name>PT9172</name></trkpt>
<trkpt lat="51.596916" lon="03.758110"><ele>11.8</ele><time>2022-11-16T15:12:25Z</time><name>PT9173</name></trkpt>
<trkpt lat="51.596916" lon="03.758093"><ele>11.6</ele><time>2022-11-16T15:12:26Z</time><name>PT9174</name></trkpt>
<trkpt lat="51.596915" lon="03.758076"><ele>11.9</ele><time>2022-11-16T15:12:27Z</time><name>PT9175</name></trkpt>
<trkpt lat="51.596916" lon="03.758060"><ele>12</ele><time>2022-11-16T15:12:28Z</time><name>PT9176</name></trkpt>
<trkpt lat="51.596917" lon="03.758042"><ele>12</ele><time>2022-11-16T15:12:29Z</time><name>PT9177</name></trkpt>
<trkpt lat="51.596919" lon="03.758023"><ele>12.1</ele><time>2022-11-16T15:12:30Z</time><name>PT9178</name></trkpt>
<trkpt lat="51.596920" lon="03.758005"><ele>12.1</ele><time>2022-11-16T15:12:31Z</time><name>PT9179</name></trkpt>
<trkpt lat="51.596919" lon="03.757986"><ele>11.9</ele><time>2022-11-16T15:12:32Z</time><name>PT9180</name></trkpt>
<trkpt lat="51.596918" lon="03.757958"><ele>11.7</ele><time>2022-11-16T15:12:33Z</time><name>PT9181</name></trkpt>
<trkpt lat="51.596917" lon="03.757928"><ele>11.6</ele><time>2022-11-16T15:12:34Z</time><name>PT9182</name></trkpt>
<trkpt lat="51.596919" lon="03.757900"><ele>11.8</ele><time>2022-11-16T15:12:35Z</time><name>PT9183</name></trkpt>
<trkpt lat="51.596918" lon="03.757872"><ele>11.9</ele><time>2022-11-16T15:12:36Z</time><name>PT9184</name></trkpt>
<trkpt lat="51.596916" lon="03.757849"><ele>11.7</ele><time>2022-11-16T15:12:37Z</time><name>PT9185</name></trkpt>
<trkpt lat="51.596913" lon="03.757831"><ele>11.9</ele><time>2022-11-16T15:12:38Z</time><name>PT9186</name></trkpt>
<trkpt lat="51.596912" lon="03.757814"><ele>11.9</ele><time>2022-11-16T15:12:39Z</time><name>PT9187</name></trkpt>
<trkpt lat="51.596912" lon="03.757800"><ele>11.9</ele><time>2022-11-16T15:12:40Z</time><name>PT9188</name></trkpt>
<trkpt lat="51.596910" lon="03.757790"><ele>12</ele><time>2022-11-16T15:12:41Z</time><name>PT9189</name></trkpt>
<trkpt lat="51.596909" lon="03.757781"><ele>12</ele><time>2022-11-16T15:12:42Z</time><name>PT9190</name></trkpt>
<trkpt lat="51.596909" lon="03.757770"><ele>12</ele><time>2022-11-16T15:12:43Z</time><name>PT9191</name></trkpt>
<trkpt lat="51.596910" lon="03.757758"><ele>12</ele><time>2022-11-16T15:12:44Z</time><name>PT9192</name></trkpt>
<trkpt lat="51.596912" lon="03.757742"><ele>11.9</ele><time>2022-11-16T15:12:45Z</time><name>PT9193</name></trkpt>
<trkpt lat="51.596915" lon="03.757726"><ele>11.9</ele><time>2022-11-16T15:12:46Z</time><name>PT9194</name></trkpt>
<trkpt lat="51.596917" lon="03.757709"><ele>11.8</ele><time>2022-11-16T15:12:47Z</time><name>PT9195</name></trkpt>
<trkpt lat="51.596918" lon="03.757691"><ele>11.6</ele><time>2022-11-16T15:12:48Z</time><name>PT9196</name></trkpt>
<trkpt lat="51.596919" lon="03.757671"><ele>11.7</ele><time>2022-11-16T15:12:49Z</time><name>PT9197</name></trkpt>
<trkpt lat="51.596919" lon="03.757650"><ele>11.8</ele><time>2022-11-16T15:12:50Z</time><name>PT9198</name></trkpt>
<trkpt lat="51.596920" lon="03.757626"><ele>11.7</ele><time>2022-11-16T15:12:51Z</time><name>PT9199</name></trkpt>
<trkpt lat="51.596919" lon="03.757602"><ele>11.6</ele><time>2022-11-16T15:12:52Z</time><name>PT9200</name></trkpt>
<trkpt lat="51.596917" lon="03.757577"><ele>11.7</ele><time>2022-11-16T15:12:53Z</time><name>PT9201</name></trkpt>
<trkpt lat="51.596915" lon="03.757555"><ele>11.6</ele><time>2022-11-16T15:12:54Z</time><name>PT9202</name></trkpt>
<trkpt lat="51.596913" lon="03.757535"><ele>11.5</ele><time>2022-11-16T15:12:55Z</time><name>PT9203</name></trkpt>
<trkpt lat="51.596911" lon="03.757516"><ele>11.4</ele><time>2022-11-16T15:12:56Z</time><name>PT9204</name></trkpt>
<trkpt lat="51.596909" lon="03.757499"><ele>11.2</ele><time>2022-11-16T15:12:57Z</time><name>PT9205</name></trkpt>
<trkpt lat="51.596907" lon="03.757483"><ele>11.3</ele><time>2022-11-16T15:12:58Z</time><name>PT9206</name></trkpt>
<trkpt lat="51.596907" lon="03.757470"><ele>11.3</ele><time>2022-11-16T15:12:59Z</time><name>PT9207</name></trkpt>
<trkpt lat="51.596907" lon="03.757459"><ele>11.5</ele><time>2022-11-16T15:13:00Z</time><name>PT9208</name></trkpt>
<trkpt lat="51.596907" lon="03.757446"><ele>11.5</ele><time>2022-11-16T15:13:01Z</time><name>PT9209</name></trkpt>
<trkpt lat="51.596908" lon="03.757433"><ele>11.7</ele><time>2022-11-16T15:13:02Z</time><name>PT9210</name></trkpt>
<trkpt lat="51.596910" lon="03.757413"><ele>11.8</ele><time>2022-11-16T15:13:03Z</time><name>PT9211</name></trkpt>
<trkpt lat="51.596912" lon="03.757392"><ele>11.9</ele><time>2022-11-16T15:13:04Z</time><name>PT9212</name></trkpt>
<trkpt lat="51.596915" lon="03.757373"><ele>11.9</ele><time>2022-11-16T15:13:05Z</time><name>PT9213</name></trkpt>
<trkpt lat="51.596916" lon="03.757356"><ele>11.8</ele><time>2022-11-16T15:13:06Z</time><name>PT9214</name></trkpt>
<trkpt lat="51.596917" lon="03.757337"><ele>11.6</ele><time>2022-11-16T15:13:07Z</time><name>PT9215</name></trkpt>
<trkpt lat="51.596918" lon="03.757316"><ele>11.5</ele><time>2022-11-16T15:13:08Z</time><name>PT9216</name></trkpt>
<trkpt lat="51.596916" lon="03.757293"><ele>11.5</ele><time>2022-11-16T15:13:09Z</time><name>PT9217</name></trkpt>
<trkpt lat="51.596914" lon="03.757274"><ele>11.4</ele><time>2022-11-16T15:13:10Z</time><name>PT9218</name></trkpt>
<trkpt lat="51.596911" lon="03.757257"><ele>11.4</ele><time>2022-11-16T15:13:11Z</time><name>PT9219</name></trkpt>
<trkpt lat="51.596909" lon="03.757240"><ele>11.6</ele><time>2022-11-16T15:13:12Z</time><name>PT9220</name></trkpt>
<trkpt lat="51.596908" lon="03.757226"><ele>11.6</ele><time>2022-11-16T15:13:13Z</time><name>PT9221</name></trkpt>
<trkpt lat="51.596908" lon="03.757214"><ele>11.6</ele><time>2022-11-16T15:13:14Z</time><name>PT9222</name></trkpt>
<trkpt lat="51.596907" lon="03.757207"><ele>11.7</ele><time>2022-11-16T15:13:15Z</time><name>PT9223</name></trkpt>
<trkpt lat="51.596907" lon="03.757197"><ele>11.8</ele><time>2022-11-16T15:13:16Z</time><name>PT9224</name></trkpt>
<trkpt lat="51.596909" lon="03.757174"><ele>11.8</ele><time>2022-11-16T15:13:17Z</time><name>PT9225</name></trkpt>
<trkpt lat="51.596911" lon="03.757140"><ele>11.9</ele><time>2022-11-16T15:13:18Z</time><name>PT9226</name></trkpt>
<trkpt lat="51.596912" lon="03.757104"><ele>12</ele><time>2022-11-16T15:13:19Z</time><name>PT9227</name></trkpt>
<trkpt lat="51.596913" lon="03.757071"><ele>11.9</ele><time>2022-11-16T15:13:20Z</time><name>PT9228</name></trkpt>
<trkpt lat="51.596910" lon="03.757043"><ele>11.6</ele><time>2022-11-16T15:13:21Z</time><name>PT9229</name></trkpt>
<trkpt lat="51.596907" lon="03.757019"><ele>11.6</ele><time>2022-11-16T15:13:22Z</time><name>PT9230</name></trkpt>
<trkpt lat="51.596905" lon="03.757001"><ele>11.5</ele><time>2022-11-16T15:13:23Z</time><name>PT9231</name></trkpt>
<trkpt lat="51.596904" lon="03.756990"><ele>11.2</ele><time>2022-11-16T15:13:24Z</time><name>PT9232</name></trkpt>
<trkpt lat="51.596901" lon="03.756980"><ele>11.4</ele><time>2022-11-16T15:13:25Z</time><name>PT9233</name></trkpt>
<trkpt lat="51.596900" lon="03.756973"><ele>11.4</ele><time>2022-11-16T15:13:26Z</time><name>PT9234</name></trkpt>
<trkpt lat="51.596898" lon="03.756966"><ele>11.4</ele><time>2022-11-16T15:13:27Z</time><name>PT9235</name></trkpt>
<trkpt lat="51.596897" lon="03.756957"><ele>11.4</ele><time>2022-11-16T15:13:28Z</time><name>PT9236</name></trkpt>
<trkpt lat="51.596897" lon="03.756947"><ele>11.3</ele><time>2022-11-16T15:13:29Z</time><name>PT9237</name></trkpt>
<trkpt lat="51.596897" lon="03.756934"><ele>11.2</ele><time>2022-11-16T15:13:30Z</time><name>PT9238</name></trkpt>
<trkpt lat="51.596899" lon="03.756917"><ele>11.2</ele><time>2022-11-16T15:13:31Z</time><name>PT9239</name></trkpt>
<trkpt lat="51.596900" lon="03.756895"><ele>11.3</ele><time>2022-11-16T15:13:32Z</time><name>PT9240</name></trkpt>
<trkpt lat="51.596902" lon="03.756869"><ele>11.3</ele><time>2022-11-16T15:13:33Z</time><name>PT9241</name></trkpt>
<trkpt lat="51.596903" lon="03.756838"><ele>11.4</ele><time>2022-11-16T15:13:34Z</time><name>PT9242</name></trkpt>
<trkpt lat="51.596903" lon="03.756808"><ele>11.4</ele><time>2022-11-16T15:13:35Z</time><name>PT9243</name></trkpt>
<trkpt lat="51.596903" lon="03.756782"><ele>11.5</ele><time>2022-11-16T15:13:36Z</time><name>PT9244</name></trkpt>
<trkpt lat="51.596901" lon="03.756761"><ele>11.5</ele><time>2022-11-16T15:13:37Z</time><name>PT9245</name></trkpt>
<trkpt lat="51.596899" lon="03.756745"><ele>11.5</ele><time>2022-11-16T15:13:38Z</time><name>PT9246</name></trkpt>
<trkpt lat="51.596896" lon="03.756731"><ele>11.4</ele><time>2022-11-16T15:13:39Z</time><name>PT9247</name></trkpt>
<trkpt lat="51.596894" lon="03.756720"><ele>11.3</ele><time>2022-11-16T15:13:40Z</time><name>PT9248</name></trkpt>
<trkpt lat="51.596894" lon="03.756711"><ele>11.3</ele><time>2022-11-16T15:13:41Z</time><name>PT9249</name></trkpt>
<trkpt lat="51.596894" lon="03.756705"><ele>11.3</ele><time>2022-11-16T15:13:42Z</time><name>PT9250</name></trkpt>
<trkpt lat="51.596894" lon="03.756695"><ele>11.2</ele><time>2022-11-16T15:13:43Z</time><name>PT9251</name></trkpt>
<trkpt lat="51.596895" lon="03.756687"><ele>11.3</ele><time>2022-11-16T15:13:44Z</time><name>PT9252</name></trkpt>
<trkpt lat="51.596897" lon="03.756672"><ele>11.4</ele><time>2022-11-16T15:13:45Z</time><name>PT9253</name></trkpt>
<trkpt lat="51.596899" lon="03.756650"><ele>11.5</ele><time>2022-11-16T15:13:46Z</time><name>PT9254</name></trkpt>
<trkpt lat="51.596900" lon="03.756624"><ele>11.4</ele><time>2022-11-16T15:13:47Z</time><name>PT9255</name></trkpt>
<trkpt lat="51.596902" lon="03.756594"><ele>11.5</ele><time>2022-11-16T15:13:48Z</time><name>PT9256</name></trkpt>
<trkpt lat="51.596903" lon="03.756561"><ele>11.5</ele><time>2022-11-16T15:13:49Z</time><name>PT9257</name></trkpt>
<trkpt lat="51.596902" lon="03.756530"><ele>11.6</ele><time>2022-11-16T15:13:50Z</time><name>PT9258</name></trkpt>
<trkpt lat="51.596900" lon="03.756503"><ele>11.6</ele><time>2022-11-16T15:13:51Z</time><name>PT9259</name></trkpt>
<trkpt lat="51.596899" lon="03.756482"><ele>11.7</ele><time>2022-11-16T15:13:52Z</time><name>PT9260</name></trkpt>
<trkpt lat="51.596897" lon="03.756464"><ele>11.6</ele><time>2022-11-16T15:13:53Z</time><name>PT9261</name></trkpt>
<trkpt lat="51.596896" lon="03.756451"><ele>11.6</ele><time>2022-11-16T15:13:54Z</time><name>PT9262</name></trkpt>
<trkpt lat="51.596895" lon="03.756445"><ele>11.5</ele><time>2022-11-16T15:13:55Z</time><name>PT9263</name></trkpt>
<trkpt lat="51.596893" lon="03.756436"><ele>11.5</ele><time>2022-11-16T15:13:56Z</time><name>PT9264</name></trkpt>
<trkpt lat="51.596891" lon="03.756429"><ele>11.5</ele><time>2022-11-16T15:13:57Z</time><name>PT9265</name></trkpt>
<trkpt lat="51.596892" lon="03.756419"><ele>11.5</ele><time>2022-11-16T15:13:58Z</time><name>PT9266</name></trkpt>
<trkpt lat="51.596894" lon="03.756404"><ele>11.5</ele><time>2022-11-16T15:13:59Z</time><name>PT9267</name></trkpt>
<trkpt lat="51.596896" lon="03.756381"><ele>11.4</ele><time>2022-11-16T15:14:00Z</time><name>PT9268</name></trkpt>
<trkpt lat="51.596897" lon="03.756351"><ele>11.3</ele><time>2022-11-16T15:14:01Z</time><name>PT9269</name></trkpt>
<trkpt lat="51.596898" lon="03.756319"><ele>11.5</ele><time>2022-11-16T15:14:02Z</time><name>PT9270</name></trkpt>
<trkpt lat="51.596897" lon="03.756288"><ele>11.5</ele><time>2022-11-16T15:14:03Z</time><name>PT9271</name></trkpt>
<trkpt lat="51.596894" lon="03.756259"><ele>11.5</ele><time>2022-11-16T15:14:04Z</time><name>PT9272</name></trkpt>
<trkpt lat="51.596892" lon="03.756237"><ele>11.6</ele><time>2022-11-16T15:14:05Z</time><name>PT9273</name></trkpt>
<trkpt lat="51.596890" lon="03.756223"><ele>11.5</ele><time>2022-11-16T15:14:06Z</time><name>PT9274</name></trkpt>
<trkpt lat="51.596888" lon="03.756214"><ele>11.5</ele><time>2022-11-16T15:14:07Z</time><name>PT9275</name></trkpt>
<trkpt lat="51.596888" lon="03.756207"><ele>11.5</ele><time>2022-11-16T15:14:08Z</time><name>PT9276</name></trkpt>
<trkpt lat="51.596887" lon="03.756203"><ele>11.6</ele><time>2022-11-16T15:14:09Z</time><name>PT9277</name></trkpt>
<trkpt lat="51.596888" lon="03.756193"><ele>11.7</ele><time>2022-11-16T15:14:10Z</time><name>PT9278</name></trkpt>
<trkpt lat="51.596890" lon="03.756176"><ele>12</ele><time>2022-11-16T15:14:11Z</time><name>PT9279</name></trkpt>
<trkpt lat="51.596892" lon="03.756153"><ele>12</ele><time>2022-11-16T15:14:12Z</time><name>PT9280</name></trkpt>
<trkpt lat="51.596892" lon="03.756121"><ele>12</ele><time>2022-11-16T15:14:13Z</time><name>PT9281</name></trkpt>
<trkpt lat="51.596892" lon="03.756086"><ele>12</ele><time>2022-11-16T15:14:14Z</time><name>PT9282</name></trkpt>
<trkpt lat="51.596890" lon="03.756055"><ele>11.9</ele><time>2022-11-16T15:14:15Z</time><name>PT9283</name></trkpt>
<trkpt lat="51.596888" lon="03.756034"><ele>11.8</ele><time>2022-11-16T15:14:16Z</time><name>PT9284</name></trkpt>
<trkpt lat="51.596887" lon="03.756018"><ele>11.7</ele><time>2022-11-16T15:14:17Z</time><name>PT9285</name></trkpt>
<trkpt lat="51.596886" lon="03.756012"><ele>11.6</ele><time>2022-11-16T15:14:18Z</time><name>PT9286</name></trkpt>
<trkpt lat="51.596886" lon="03.756007"><ele>11.5</ele><time>2022-11-16T15:14:19Z</time><name>PT9287</name></trkpt>
<trkpt lat="51.596886" lon="03.756000"><ele>11.5</ele><time>2022-11-16T15:14:20Z</time><name>PT9288</name></trkpt>
<trkpt lat="51.596886" lon="03.755994"><ele>11.3</ele><time>2022-11-16T15:14:21Z</time><name>PT9289</name></trkpt>
<trkpt lat="51.596888" lon="03.755990"><ele>11.3</ele><time>2022-11-16T15:14:23Z</time><name>PT9290</name></trkpt>
<trkpt lat="51.596893" lon="03.755965"><ele>11.4</ele><time>2022-11-16T15:14:24Z</time><name>PT9291</name></trkpt>
<trkpt lat="51.596895" lon="03.755932"><ele>11.4</ele><time>2022-11-16T15:14:25Z</time><name>PT9292</name></trkpt>
<trkpt lat="51.596894" lon="03.755901"><ele>11.5</ele><time>2022-11-16T15:14:26Z</time><name>PT9293</name></trkpt>
<trkpt lat="51.596893" lon="03.755885"><ele>11.5</ele><time>2022-11-16T15:14:27Z</time><name>PT9294</name></trkpt>
<trkpt lat="51.596890" lon="03.755879"><ele>11.5</ele><time>2022-11-16T15:14:28Z</time><name>PT9295</name></trkpt>
<trkpt lat="51.596889" lon="03.755874"><ele>11.6</ele><time>2022-11-16T15:14:29Z</time><name>PT9296</name></trkpt>
<trkpt lat="51.596891" lon="03.755857"><ele>11.6</ele><time>2022-11-16T15:14:30Z</time><name>PT9297</name></trkpt>
<trkpt lat="51.596891" lon="03.755831"><ele>11.7</ele><time>2022-11-16T15:14:31Z</time><name>PT9298</name></trkpt>
<trkpt lat="51.596892" lon="03.755817"><ele>11.7</ele><time>2022-11-16T15:14:32Z</time><name>PT9299</name></trkpt>
<trkpt lat="51.596893" lon="03.755814"><ele>11.6</ele><time>2022-11-16T15:14:33Z</time><name>PT9300</name></trkpt>
<trkpt lat="51.596893" lon="03.755805"><ele>11.6</ele><time>2022-11-16T15:14:34Z</time><name>PT9301</name></trkpt>
<trkpt lat="51.596892" lon="03.755782"><ele>11.5</ele><time>2022-11-16T15:14:35Z</time><name>PT9302</name></trkpt>
<trkpt lat="51.596894" lon="03.755753"><ele>11.4</ele><time>2022-11-16T15:14:36Z</time><name>PT9303</name></trkpt>
<trkpt lat="51.596893" lon="03.755730"><ele>11.5</ele><time>2022-11-16T15:14:37Z</time><name>PT9304</name></trkpt>
<trkpt lat="51.596892" lon="03.755718"><ele>11.4</ele><time>2022-11-16T15:14:38Z</time><name>PT9305</name></trkpt>
<trkpt lat="51.596891" lon="03.755713"><ele>11.4</ele><time>2022-11-16T15:14:39Z</time><name>PT9306</name></trkpt>
<trkpt lat="51.596891" lon="03.755705"><ele>11.5</ele><time>2022-11-16T15:14:40Z</time><name>PT9307</name></trkpt>
<trkpt lat="51.596893" lon="03.755686"><ele>11.5</ele><time>2022-11-16T15:14:41Z</time><name>PT9308</name></trkpt>
<trkpt lat="51.596898" lon="03.755652"><ele>11.4</ele><time>2022-11-16T15:14:42Z</time><name>PT9309</name></trkpt>
<trkpt lat="51.596898" lon="03.755620"><ele>11.5</ele><time>2022-11-16T15:14:43Z</time><name>PT9310</name></trkpt>
<trkpt lat="51.596896" lon="03.755599"><ele>11.6</ele><time>2022-11-16T15:14:44Z</time><name>PT9311</name></trkpt>
<trkpt lat="51.596893" lon="03.755587"><ele>11.5</ele><time>2022-11-16T15:14:45Z</time><name>PT9312</name></trkpt>
<trkpt lat="51.596893" lon="03.755584"><ele>11.5</ele><time>2022-11-16T15:14:46Z</time><name>PT9313</name></trkpt>
<trkpt lat="51.596893" lon="03.755580"><ele>11.6</ele><time>2022-11-16T15:14:47Z</time><name>PT9314</name></trkpt>
<trkpt lat="51.596891" lon="03.755568"><ele>11.5</ele><time>2022-11-16T15:14:48Z</time><name>PT9315</name></trkpt>
<trkpt lat="51.596894" lon="03.755544"><ele>11.5</ele><time>2022-11-16T15:14:49Z</time><name>PT9316</name></trkpt>
<trkpt lat="51.596894" lon="03.755514"><ele>11.5</ele><time>2022-11-16T15:14:50Z</time><name>PT9317</name></trkpt>
<trkpt lat="51.596893" lon="03.755487"><ele>11.8</ele><time>2022-11-16T15:14:51Z</time><name>PT9318</name></trkpt>
<trkpt lat="51.596894" lon="03.755472"><ele>11.6</ele><time>2022-11-16T15:14:52Z</time><name>PT9319</name></trkpt>
<trkpt lat="51.596892" lon="03.755467"><ele>11.8</ele><time>2022-11-16T15:14:53Z</time><name>PT9320</name></trkpt>
<trkpt lat="51.596891" lon="03.755469"><ele>11.7</ele><time>2022-11-16T15:14:54Z</time><name>PT9321</name></trkpt>
<trkpt lat="51.596891" lon="03.755466"><ele>11.7</ele><time>2022-11-16T15:14:55Z</time><name>PT9322</name></trkpt>
<trkpt lat="51.596891" lon="03.755457"><ele>11.5</ele><time>2022-11-16T15:14:56Z</time><name>PT9323</name></trkpt>
<trkpt lat="51.596894" lon="03.755436"><ele>11.6</ele><time>2022-11-16T15:14:57Z</time><name>PT9324</name></trkpt>
<trkpt lat="51.596897" lon="03.755408"><ele>11.5</ele><time>2022-11-16T15:14:58Z</time><name>PT9325</name></trkpt>
<trkpt lat="51.596898" lon="03.755374"><ele>11.8</ele><time>2022-11-16T15:14:59Z</time><name>PT9326</name></trkpt>
<trkpt lat="51.596890" lon="03.755350"><ele>11.8</ele><time>2022-11-16T15:15:00Z</time><name>PT9327</name></trkpt>
<trkpt lat="51.596886" lon="03.755333"><ele>11.8</ele><time>2022-11-16T15:15:01Z</time><name>PT9328</name></trkpt>
<trkpt lat="51.596884" lon="03.755320"><ele>11.9</ele><time>2022-11-16T15:15:02Z</time><name>PT9329</name></trkpt>
<trkpt lat="51.596882" lon="03.755315"><ele>11.8</ele><time>2022-11-16T15:15:03Z</time><name>PT9330</name></trkpt>
<trkpt lat="51.596880" lon="03.755312"><ele>11.7</ele><time>2022-11-16T15:15:04Z</time><name>PT9331</name></trkpt>
<trkpt lat="51.596880" lon="03.755300"><ele>11.7</ele><time>2022-11-16T15:15:05Z</time><name>PT9332</name></trkpt>
<trkpt lat="51.596883" lon="03.755284"><ele>11.9</ele><time>2022-11-16T15:15:06Z</time><name>PT9333</name></trkpt>
<trkpt lat="51.596884" lon="03.755259"><ele>11.9</ele><time>2022-11-16T15:15:07Z</time><name>PT9334</name></trkpt>
<trkpt lat="51.596888" lon="03.755226"><ele>12</ele><time>2022-11-16T15:15:08Z</time><name>PT9335</name></trkpt>
<trkpt lat="51.596890" lon="03.755194"><ele>12</ele><time>2022-11-16T15:15:09Z</time><name>PT9336</name></trkpt>
<trkpt lat="51.596888" lon="03.755167"><ele>12</ele><time>2022-11-16T15:15:10Z</time><name>PT9337</name></trkpt>
<trkpt lat="51.596886" lon="03.755148"><ele>11.9</ele><time>2022-11-16T15:15:11Z</time><name>PT9338</name></trkpt>
<trkpt lat="51.596884" lon="03.755136"><ele>11.7</ele><time>2022-11-16T15:15:12Z</time><name>PT9339</name></trkpt>
<trkpt lat="51.596884" lon="03.755130"><ele>11.7</ele><time>2022-11-16T15:15:13Z</time><name>PT9340</name></trkpt>
<trkpt lat="51.596884" lon="03.755127"><ele>11.7</ele><time>2022-11-16T15:15:14Z</time><name>PT9341</name></trkpt>
<trkpt lat="51.596884" lon="03.755114"><ele>11.7</ele><time>2022-11-16T15:15:15Z</time><name>PT9342</name></trkpt>
<trkpt lat="51.596885" lon="03.755093"><ele>11.8</ele><time>2022-11-16T15:15:16Z</time><name>PT9343</name></trkpt>
<trkpt lat="51.596887" lon="03.755059"><ele>12.1</ele><time>2022-11-16T15:15:17Z</time><name>PT9344</name></trkpt>
<trkpt lat="51.596887" lon="03.755035"><ele>12.2</ele><time>2022-11-16T15:15:18Z</time><name>PT9345</name></trkpt>
<trkpt lat="51.596888" lon="03.755004"><ele>12.4</ele><time>2022-11-16T15:15:19Z</time><name>PT9346</name></trkpt>
<trkpt lat="51.596888" lon="03.754970"><ele>12.5</ele><time>2022-11-16T15:15:20Z</time><name>PT9347</name></trkpt>
<trkpt lat="51.596886" lon="03.754940"><ele>12.3</ele><time>2022-11-16T15:15:21Z</time><name>PT9348</name></trkpt>
<trkpt lat="51.596883" lon="03.754920"><ele>12.1</ele><time>2022-11-16T15:15:22Z</time><name>PT9349</name></trkpt>
<trkpt lat="51.596882" lon="03.754901"><ele>12</ele><time>2022-11-16T15:15:23Z</time><name>PT9350</name></trkpt>
<trkpt lat="51.596878" lon="03.754887"><ele>11.9</ele><time>2022-11-16T15:15:24Z</time><name>PT9351</name></trkpt>
<trkpt lat="51.596875" lon="03.754875"><ele>11.9</ele><time>2022-11-16T15:15:25Z</time><name>PT9352</name></trkpt>
<trkpt lat="51.596872" lon="03.754864"><ele>12</ele><time>2022-11-16T15:15:26Z</time><name>PT9353</name></trkpt>
<trkpt lat="51.596871" lon="03.754851"><ele>12.1</ele><time>2022-11-16T15:15:27Z</time><name>PT9354</name></trkpt>
<trkpt lat="51.596872" lon="03.754838"><ele>11.9</ele><time>2022-11-16T15:15:28Z</time><name>PT9355</name></trkpt>
<trkpt lat="51.596874" lon="03.754820"><ele>11.9</ele><time>2022-11-16T15:15:29Z</time><name>PT9356</name></trkpt>
<trkpt lat="51.596876" lon="03.754793"><ele>11.9</ele><time>2022-11-16T15:15:30Z</time><name>PT9357</name></trkpt>
<trkpt lat="51.596876" lon="03.754761"><ele>11.8</ele><time>2022-11-16T15:15:31Z</time><name>PT9358</name></trkpt>
<trkpt lat="51.596875" lon="03.754736"><ele>11.9</ele><time>2022-11-16T15:15:32Z</time><name>PT9359</name></trkpt>
<trkpt lat="51.596872" lon="03.754722"><ele>12</ele><time>2022-11-16T15:15:33Z</time><name>PT9360</name></trkpt>
<trkpt lat="51.596871" lon="03.754713"><ele>12.1</ele><time>2022-11-16T15:15:34Z</time><name>PT9361</name></trkpt>
<trkpt lat="51.596870" lon="03.754705"><ele>12</ele><time>2022-11-16T15:15:35Z</time><name>PT9362</name></trkpt>
<trkpt lat="51.596869" lon="03.754694"><ele>12.1</ele><time>2022-11-16T15:15:36Z</time><name>PT9363</name></trkpt>
<trkpt lat="51.596871" lon="03.754680"><ele>12</ele><time>2022-11-16T15:15:37Z</time><name>PT9364</name></trkpt>
<trkpt lat="51.596872" lon="03.754657"><ele>12</ele><time>2022-11-16T15:15:38Z</time><name>PT9365</name></trkpt>
<trkpt lat="51.596873" lon="03.754629"><ele>11.7</ele><time>2022-11-16T15:15:39Z</time><name>PT9366</name></trkpt>
<trkpt lat="51.596873" lon="03.754602"><ele>11.7</ele><time>2022-11-16T15:15:40Z</time><name>PT9367</name></trkpt>
<trkpt lat="51.596872" lon="03.754579"><ele>11.5</ele><time>2022-11-16T15:15:41Z</time><name>PT9368</name></trkpt>
<trkpt lat="51.596870" lon="03.754566"><ele>11.6</ele><time>2022-11-16T15:15:42Z</time><name>PT9369</name></trkpt>
<trkpt lat="51.596868" lon="03.754557"><ele>11.6</ele><time>2022-11-16T15:15:43Z</time><name>PT9370</name></trkpt>
<trkpt lat="51.596866" lon="03.754553"><ele>11.6</ele><time>2022-11-16T15:15:44Z</time><name>PT9371</name></trkpt>
<trkpt lat="51.596864" lon="03.754546"><ele>11.7</ele><time>2022-11-16T15:15:45Z</time><name>PT9372</name></trkpt>
<trkpt lat="51.596860" lon="03.754535"><ele>11.8</ele><time>2022-11-16T15:15:46Z</time><name>PT9373</name></trkpt>
<trkpt lat="51.596860" lon="03.754517"><ele>11.9</ele><time>2022-11-16T15:15:47Z</time><name>PT9374</name></trkpt>
<trkpt lat="51.596858" lon="03.754497"><ele>12</ele><time>2022-11-16T15:15:48Z</time><name>PT9375</name></trkpt>
<trkpt lat="51.596857" lon="03.754478"><ele>12</ele><time>2022-11-16T15:15:49Z</time><name>PT9376</name></trkpt>
<trkpt lat="51.596855" lon="03.754460"><ele>12</ele><time>2022-11-16T15:15:50Z</time><name>PT9377</name></trkpt>
<trkpt lat="51.596853" lon="03.754447"><ele>12</ele><time>2022-11-16T15:15:51Z</time><name>PT9378</name></trkpt>
<trkpt lat="51.596851" lon="03.754435"><ele>12</ele><time>2022-11-16T15:15:52Z</time><name>PT9379</name></trkpt>
<trkpt lat="51.596851" lon="03.754422"><ele>12</ele><time>2022-11-16T15:15:53Z</time><name>PT9380</name></trkpt>
<trkpt lat="51.596849" lon="03.754412"><ele>12.1</ele><time>2022-11-16T15:15:54Z</time><name>PT9381</name></trkpt>
<trkpt lat="51.596851" lon="03.754399"><ele>12.2</ele><time>2022-11-16T15:15:55Z</time><name>PT9382</name></trkpt>
<trkpt lat="51.596852" lon="03.754383"><ele>12.3</ele><time>2022-11-16T15:15:56Z</time><name>PT9383</name></trkpt>
<trkpt lat="51.596852" lon="03.754364"><ele>12.1</ele><time>2022-11-16T15:15:57Z</time><name>PT9384</name></trkpt>
<trkpt lat="51.596851" lon="03.754340"><ele>12</ele><time>2022-11-16T15:15:58Z</time><name>PT9385</name></trkpt>
<trkpt lat="51.596851" lon="03.754317"><ele>12</ele><time>2022-11-16T15:15:59Z</time><name>PT9386</name></trkpt>
<trkpt lat="51.596852" lon="03.754293"><ele>12</ele><time>2022-11-16T15:16:00Z</time><name>PT9387</name></trkpt>
<trkpt lat="51.596852" lon="03.754269"><ele>11.9</ele><time>2022-11-16T15:16:01Z</time><name>PT9388</name></trkpt>
<trkpt lat="51.596850" lon="03.754252"><ele>12</ele><time>2022-11-16T15:16:02Z</time><name>PT9389</name></trkpt>
<trkpt lat="51.596848" lon="03.754240"><ele>11.9</ele><time>2022-11-16T15:16:03Z</time><name>PT9390</name></trkpt>
<trkpt lat="51.596845" lon="03.754232"><ele>12</ele><time>2022-11-16T15:16:04Z</time><name>PT9391</name></trkpt>
<trkpt lat="51.596847" lon="03.754214"><ele>12.2</ele><time>2022-11-16T15:16:05Z</time><name>PT9392</name></trkpt>
<trkpt lat="51.596848" lon="03.754197"><ele>12.5</ele><time>2022-11-16T15:16:06Z</time><name>PT9393</name></trkpt>
<trkpt lat="51.596850" lon="03.754181"><ele>12.5</ele><time>2022-11-16T15:16:07Z</time><name>PT9394</name></trkpt>
<trkpt lat="51.596852" lon="03.754166"><ele>12.6</ele><time>2022-11-16T15:16:08Z</time><name>PT9395</name></trkpt>
<trkpt lat="51.596852" lon="03.754151"><ele>12.4</ele><time>2022-11-16T15:16:09Z</time><name>PT9396</name></trkpt>
<trkpt lat="51.596853" lon="03.754137"><ele>12.4</ele><time>2022-11-16T15:16:10Z</time><name>PT9397</name></trkpt>
<trkpt lat="51.596853" lon="03.754121"><ele>12.5</ele><time>2022-11-16T15:16:11Z</time><name>PT9398</name></trkpt>
<trkpt lat="51.596850" lon="03.754104"><ele>12.5</ele><time>2022-11-16T15:16:12Z</time><name>PT9399</name></trkpt>
<trkpt lat="51.596850" lon="03.754088"><ele>12.5</ele><time>2022-11-16T15:16:13Z</time><name>PT9400</name></trkpt>
<trkpt lat="51.596850" lon="03.754072"><ele>12.5</ele><time>2022-11-16T15:16:14Z</time><name>PT9401</name></trkpt>
<trkpt lat="51.596850" lon="03.754054"><ele>12.6</ele><time>2022-11-16T15:16:15Z</time><name>PT9402</name></trkpt>
<trkpt lat="51.596851" lon="03.754036"><ele>12.6</ele><time>2022-11-16T15:16:16Z</time><name>PT9403</name></trkpt>
<trkpt lat="51.596851" lon="03.754019"><ele>12.6</ele><time>2022-11-16T15:16:17Z</time><name>PT9404</name></trkpt>
<trkpt lat="51.596851" lon="03.754004"><ele>12.6</ele><time>2022-11-16T15:16:18Z</time><name>PT9405</name></trkpt>
<trkpt lat="51.596851" lon="03.753986"><ele>12.5</ele><time>2022-11-16T15:16:19Z</time><name>PT9406</name></trkpt>
<trkpt lat="51.596850" lon="03.753968"><ele>12.5</ele><time>2022-11-16T15:16:20Z</time><name>PT9407</name></trkpt>
<trkpt lat="51.596849" lon="03.753953"><ele>12.5</ele><time>2022-11-16T15:16:21Z</time><name>PT9408</name></trkpt>
<trkpt lat="51.596849" lon="03.753939"><ele>12.5</ele><time>2022-11-16T15:16:22Z</time><name>PT9409</name></trkpt>
<trkpt lat="51.596849" lon="03.753923"><ele>12.4</ele><time>2022-11-16T15:16:23Z</time><name>PT9410</name></trkpt>
<trkpt lat="51.596849" lon="03.753908"><ele>12.5</ele><time>2022-11-16T15:16:24Z</time><name>PT9411</name></trkpt>
<trkpt lat="51.596849" lon="03.753893"><ele>12.6</ele><time>2022-11-16T15:16:25Z</time><name>PT9412</name></trkpt>
<trkpt lat="51.596848" lon="03.753877"><ele>12.5</ele><time>2022-11-16T15:16:26Z</time><name>PT9413</name></trkpt>
<trkpt lat="51.596847" lon="03.753862"><ele>12.6</ele><time>2022-11-16T15:16:27Z</time><name>PT9414</name></trkpt>
<trkpt lat="51.596847" lon="03.753848"><ele>12.7</ele><time>2022-11-16T15:16:28Z</time><name>PT9415</name></trkpt>
<trkpt lat="51.596848" lon="03.753834"><ele>12.5</ele><time>2022-11-16T15:16:29Z</time><name>PT9416</name></trkpt>
<trkpt lat="51.596849" lon="03.753819"><ele>12.4</ele><time>2022-11-16T15:16:30Z</time><name>PT9417</name></trkpt>
<trkpt lat="51.596849" lon="03.753804"><ele>12.4</ele><time>2022-11-16T15:16:31Z</time><name>PT9418</name></trkpt>
<trkpt lat="51.596848" lon="03.753790"><ele>12.3</ele><time>2022-11-16T15:16:32Z</time><name>PT9419</name></trkpt>
<trkpt lat="51.596849" lon="03.753778"><ele>12.1</ele><time>2022-11-16T15:16:33Z</time><name>PT9420</name></trkpt>
<trkpt lat="51.596849" lon="03.753766"><ele>12.2</ele><time>2022-11-16T15:16:34Z</time><name>PT9421</name></trkpt>
<trkpt lat="51.596849" lon="03.753754"><ele>12.2</ele><time>2022-11-16T15:16:35Z</time><name>PT9422</name></trkpt>
<trkpt lat="51.596848" lon="03.753745"><ele>12.2</ele><time>2022-11-16T15:16:36Z</time><name>PT9423</name></trkpt>
<trkpt lat="51.596846" lon="03.753736"><ele>12.4</ele><time>2022-11-16T15:16:37Z</time><name>PT9424</name></trkpt>
<trkpt lat="51.596845" lon="03.753730"><ele>12.5</ele><time>2022-11-16T15:16:38Z</time><name>PT9425</name></trkpt>
<trkpt lat="51.596846" lon="03.753722"><ele>12.6</ele><time>2022-11-16T15:16:39Z</time><name>PT9426</name></trkpt>
<trkpt lat="51.596847" lon="03.753713"><ele>12.5</ele><time>2022-11-16T15:16:40Z</time><name>PT9427</name></trkpt>
<trkpt lat="51.596847" lon="03.753702"><ele>12.6</ele><time>2022-11-16T15:16:41Z</time><name>PT9428</name></trkpt>
<trkpt lat="51.596847" lon="03.753694"><ele>12.5</ele><time>2022-11-16T15:16:42Z</time><name>PT9429</name></trkpt>
<trkpt lat="51.596847" lon="03.753685"><ele>12.5</ele><time>2022-11-16T15:16:43Z</time><name>PT9430</name></trkpt>
<trkpt lat="51.596847" lon="03.753678"><ele>12.4</ele><time>2022-11-16T15:16:44Z</time><name>PT9431</name></trkpt>
<trkpt lat="51.596846" lon="03.753677"><ele>12.5</ele><time>2022-11-16T15:16:45Z</time><name>PT9432</name></trkpt>
<trkpt lat="51.596845" lon="03.753673"><ele>12.5</ele><time>2022-11-16T15:16:46Z</time><name>PT9433</name></trkpt>
<trkpt lat="51.596844" lon="03.753665"><ele>12.5</ele><time>2022-11-16T15:16:47Z</time><name>PT9434</name></trkpt>
<trkpt lat="51.596843" lon="03.753657"><ele>12.5</ele><time>2022-11-16T15:16:48Z</time><name>PT9435</name></trkpt>
<trkpt lat="51.596844" lon="03.753646"><ele>12.6</ele><time>2022-11-16T15:16:49Z</time><name>PT9436</name></trkpt>
<trkpt lat="51.596844" lon="03.753637"><ele>12.6</ele><time>2022-11-16T15:16:50Z</time><name>PT9437</name></trkpt>
<trkpt lat="51.596844" lon="03.753632"><ele>12.5</ele><time>2022-11-16T15:16:51Z</time><name>PT9438</name></trkpt>
<trkpt lat="51.596845" lon="03.753624"><ele>12.5</ele><time>2022-11-16T15:16:52Z</time><name>PT9439</name></trkpt>
<trkpt lat="51.596843" lon="03.753616"><ele>12.5</ele><time>2022-11-16T15:16:53Z</time><name>PT9440</name></trkpt>
<trkpt lat="51.596843" lon="03.753611"><ele>12.5</ele><time>2022-11-16T15:16:54Z</time><name>PT9441</name></trkpt>
<trkpt lat="51.596843" lon="03.753610"><ele>12.5</ele><time>2022-11-16T15:16:55Z</time><name>PT9442</name></trkpt>
<trkpt lat="51.596843" lon="03.753609"><ele>12.4</ele><time>2022-11-16T15:16:56Z</time><name>PT9443</name></trkpt>
<trkpt lat="51.596843" lon="03.753608"><ele>12.5</ele><time>2022-11-16T15:16:57Z</time><name>PT9444</name></trkpt>
<trkpt lat="51.596843" lon="03.753605"><ele>13.1</ele><time>2022-11-16T15:17:40Z</time><name>PT9445</name></trkpt>
<trkpt lat="51.596844" lon="03.753591"><ele>13</ele><time>2022-11-16T15:17:41Z</time><name>PT9446</name></trkpt>
<trkpt lat="51.596842" lon="03.753576"><ele>13.1</ele><time>2022-11-16T15:17:42Z</time><name>PT9447</name></trkpt>
<trkpt lat="51.596840" lon="03.753562"><ele>13.1</ele><time>2022-11-16T15:17:43Z</time><name>PT9448</name></trkpt>
<trkpt lat="51.596839" lon="03.753549"><ele>13</ele><time>2022-11-16T15:17:44Z</time><name>PT9449</name></trkpt>
<trkpt lat="51.596839" lon="03.753536"><ele>12.8</ele><time>2022-11-16T15:17:45Z</time><name>PT9450</name></trkpt>
<trkpt lat="51.596841" lon="03.753524"><ele>12.8</ele><time>2022-11-16T15:17:46Z</time><name>PT9451</name></trkpt>
<trkpt lat="51.596841" lon="03.753511"><ele>12.9</ele><time>2022-11-16T15:17:47Z</time><name>PT9452</name></trkpt>
<trkpt lat="51.596841" lon="03.753497"><ele>12.9</ele><time>2022-11-16T15:17:48Z</time><name>PT9453</name></trkpt>
<trkpt lat="51.596840" lon="03.753483"><ele>12.8</ele><time>2022-11-16T15:17:49Z</time><name>PT9454</name></trkpt>
<trkpt lat="51.596840" lon="03.753468"><ele>12.9</ele><time>2022-11-16T15:17:50Z</time><name>PT9455</name></trkpt>
<trkpt lat="51.596841" lon="03.753455"><ele>12.8</ele><time>2022-11-16T15:17:51Z</time><name>PT9456</name></trkpt>
<trkpt lat="51.596843" lon="03.753438"><ele>12.7</ele><time>2022-11-16T15:17:52Z</time><name>PT9457</name></trkpt>
<trkpt lat="51.596843" lon="03.753421"><ele>12.5</ele><time>2022-11-16T15:17:53Z</time><name>PT9458</name></trkpt>
<trkpt lat="51.596843" lon="03.753404"><ele>12.5</ele><time>2022-11-16T15:17:54Z</time><name>PT9459</name></trkpt>
<trkpt lat="51.596844" lon="03.753388"><ele>12.5</ele><time>2022-11-16T15:17:55Z</time><name>PT9460</name></trkpt>
<trkpt lat="51.596844" lon="03.753372"><ele>12.4</ele><time>2022-11-16T15:17:56Z</time><name>PT9461</name></trkpt>
<trkpt lat="51.596843" lon="03.753356"><ele>12.3</ele><time>2022-11-16T15:17:57Z</time><name>PT9462</name></trkpt>
<trkpt lat="51.596843" lon="03.753341"><ele>12.4</ele><time>2022-11-16T15:17:58Z</time><name>PT9463</name></trkpt>
<trkpt lat="51.596843" lon="03.753324"><ele>12.5</ele><time>2022-11-16T15:17:59Z</time><name>PT9464</name></trkpt>
<trkpt lat="51.596844" lon="03.753309"><ele>12.5</ele><time>2022-11-16T15:18:00Z</time><name>PT9465</name></trkpt>
<trkpt lat="51.596844" lon="03.753294"><ele>12.6</ele><time>2022-11-16T15:18:01Z</time><name>PT9466</name></trkpt>
<trkpt lat="51.596843" lon="03.753276"><ele>13</ele><time>2022-11-16T15:18:02Z</time><name>PT9467</name></trkpt>
<trkpt lat="51.596843" lon="03.753257"><ele>12.9</ele><time>2022-11-16T15:18:03Z</time><name>PT9468</name></trkpt>
<trkpt lat="51.596842" lon="03.753240"><ele>12.8</ele><time>2022-11-16T15:18:04Z</time><name>PT9469</name></trkpt>
<trkpt lat="51.596840" lon="03.753225"><ele>12.8</ele><time>2022-11-16T15:18:05Z</time><name>PT9470</name></trkpt>
<trkpt lat="51.596839" lon="03.753210"><ele>12.7</ele><time>2022-11-16T15:18:06Z</time><name>PT9471</name></trkpt>
<trkpt lat="51.596839" lon="03.753194"><ele>12.6</ele><time>2022-11-16T15:18:07Z</time><name>PT9472</name></trkpt>
<trkpt lat="51.596840" lon="03.753174"><ele>12.7</ele><time>2022-11-16T15:18:08Z</time><name>PT9473</name></trkpt>
<trkpt lat="51.596842" lon="03.753157"><ele>12.8</ele><time>2022-11-16T15:18:09Z</time><name>PT9474</name></trkpt>
<trkpt lat="51.596842" lon="03.753138"><ele>12.9</ele><time>2022-11-16T15:18:10Z</time><name>PT9475</name></trkpt>
<trkpt lat="51.596841" lon="03.753121"><ele>12.6</ele><time>2022-11-16T15:18:11Z</time><name>PT9476</name></trkpt>
<trkpt lat="51.596841" lon="03.753102"><ele>12.6</ele><time>2022-11-16T15:18:12Z</time><name>PT9477</name></trkpt>
<trkpt lat="51.596840" lon="03.753081"><ele>12.5</ele><time>2022-11-16T15:18:13Z</time><name>PT9478</name></trkpt>
<trkpt lat="51.596837" lon="03.753060"><ele>12.5</ele><time>2022-11-16T15:18:14Z</time><name>PT9479</name></trkpt>
<trkpt lat="51.596835" lon="03.753041"><ele>12.4</ele><time>2022-11-16T15:18:15Z</time><name>PT9480</name></trkpt>
<trkpt lat="51.596834" lon="03.753022"><ele>12.5</ele><time>2022-11-16T15:18:16Z</time><name>PT9481</name></trkpt>
<trkpt lat="51.596834" lon="03.753007"><ele>12.7</ele><time>2022-11-16T15:18:17Z</time><name>PT9482</name></trkpt>
<trkpt lat="51.596834" lon="03.752989"><ele>12.7</ele><time>2022-11-16T15:18:18Z</time><name>PT9483</name></trkpt>
<trkpt lat="51.596835" lon="03.752970"><ele>12.8</ele><time>2022-11-16T15:18:19Z</time><name>PT9484</name></trkpt>
<trkpt lat="51.596836" lon="03.752950"><ele>12.7</ele><time>2022-11-16T15:18:20Z</time><name>PT9485</name></trkpt>
<trkpt lat="51.596836" lon="03.752935"><ele>12.6</ele><time>2022-11-16T15:18:21Z</time><name>PT9486</name></trkpt>
<trkpt lat="51.596837" lon="03.752918"><ele>12.5</ele><time>2022-11-16T15:18:22Z</time><name>PT9487</name></trkpt>
<trkpt lat="51.596837" lon="03.752900"><ele>12.5</ele><time>2022-11-16T15:18:23Z</time><name>PT9488</name></trkpt>
<trkpt lat="51.596836" lon="03.752882"><ele>12.5</ele><time>2022-11-16T15:18:24Z</time><name>PT9489</name></trkpt>
<trkpt lat="51.596834" lon="03.752861"><ele>12.6</ele><time>2022-11-16T15:18:25Z</time><name>PT9490</name></trkpt>
<trkpt lat="51.596834" lon="03.752843"><ele>12.6</ele><time>2022-11-16T15:18:26Z</time><name>PT9491</name></trkpt>
<trkpt lat="51.596834" lon="03.752828"><ele>12.8</ele><time>2022-11-16T15:18:27Z</time><name>PT9492</name></trkpt>
<trkpt lat="51.596835" lon="03.752813"><ele>12.8</ele><time>2022-11-16T15:18:28Z</time><name>PT9493</name></trkpt>
<trkpt lat="51.596835" lon="03.752796"><ele>12.7</ele><time>2022-11-16T15:18:29Z</time><name>PT9494</name></trkpt>
<trkpt lat="51.596835" lon="03.752781"><ele>12.6</ele><time>2022-11-16T15:18:30Z</time><name>PT9495</name></trkpt>
<trkpt lat="51.596835" lon="03.752767"><ele>12.6</ele><time>2022-11-16T15:18:31Z</time><name>PT9496</name></trkpt>
<trkpt lat="51.596834" lon="03.752749"><ele>12.5</ele><time>2022-11-16T15:18:32Z</time><name>PT9497</name></trkpt>
<trkpt lat="51.596833" lon="03.752729"><ele>12.7</ele><time>2022-11-16T15:18:33Z</time><name>PT9498</name></trkpt>
<trkpt lat="51.596832" lon="03.752711"><ele>12.7</ele><time>2022-11-16T15:18:34Z</time><name>PT9499</name></trkpt>
<trkpt lat="51.596832" lon="03.752695"><ele>12.7</ele><time>2022-11-16T15:18:35Z</time><name>PT9500</name></trkpt>
<trkpt lat="51.596833" lon="03.752679"><ele>12.6</ele><time>2022-11-16T15:18:36Z</time><name>PT9501</name></trkpt>
<trkpt lat="51.596834" lon="03.752662"><ele>12.6</ele><time>2022-11-16T15:18:37Z</time><name>PT9502</name></trkpt>
<trkpt lat="51.596835" lon="03.752643"><ele>12.6</ele><time>2022-11-16T15:18:38Z</time><name>PT9503</name></trkpt>
<trkpt lat="51.596835" lon="03.752625"><ele>12.5</ele><time>2022-11-16T15:18:39Z</time><name>PT9504</name></trkpt>
<trkpt lat="51.596834" lon="03.752608"><ele>12.5</ele><time>2022-11-16T15:18:40Z</time><name>PT9505</name></trkpt>
<trkpt lat="51.596833" lon="03.752590"><ele>12.3</ele><time>2022-11-16T15:18:41Z</time><name>PT9506</name></trkpt>
<trkpt lat="51.596831" lon="03.752574"><ele>12.2</ele><time>2022-11-16T15:18:42Z</time><name>PT9507</name></trkpt>
<trkpt lat="51.596830" lon="03.752558"><ele>12.1</ele><time>2022-11-16T15:18:43Z</time><name>PT9508</name></trkpt>
<trkpt lat="51.596830" lon="03.752542"><ele>12.1</ele><time>2022-11-16T15:18:44Z</time><name>PT9509</name></trkpt>
<trkpt lat="51.596830" lon="03.752526"><ele>12</ele><time>2022-11-16T15:18:45Z</time><name>PT9510</name></trkpt>
<trkpt lat="51.596831" lon="03.752510"><ele>12.1</ele><time>2022-11-16T15:18:46Z</time><name>PT9511</name></trkpt>
<trkpt lat="51.596832" lon="03.752494"><ele>12.3</ele><time>2022-11-16T15:18:47Z</time><name>PT9512</name></trkpt>
<trkpt lat="51.596832" lon="03.752479"><ele>12.4</ele><time>2022-11-16T15:18:48Z</time><name>PT9513</name></trkpt>
<trkpt lat="51.596833" lon="03.752460"><ele>12.5</ele><time>2022-11-16T15:18:49Z</time><name>PT9514</name></trkpt>
<trkpt lat="51.596832" lon="03.752442"><ele>12.6</ele><time>2022-11-16T15:18:50Z</time><name>PT9515</name></trkpt>
<trkpt lat="51.596832" lon="03.752426"><ele>12.6</ele><time>2022-11-16T15:18:51Z</time><name>PT9516</name></trkpt>
<trkpt lat="51.596832" lon="03.752410"><ele>12.5</ele><time>2022-11-16T15:18:52Z</time><name>PT9517</name></trkpt>
<trkpt lat="51.596833" lon="03.752393"><ele>12.6</ele><time>2022-11-16T15:18:53Z</time><name>PT9518</name></trkpt>
<trkpt lat="51.596833" lon="03.752376"><ele>12.5</ele><time>2022-11-16T15:18:54Z</time><name>PT9519</name></trkpt>
<trkpt lat="51.596832" lon="03.752362"><ele>12.6</ele><time>2022-11-16T15:18:55Z</time><name>PT9520</name></trkpt>
<trkpt lat="51.596831" lon="03.752345"><ele>12.6</ele><time>2022-11-16T15:18:56Z</time><name>PT9521</name></trkpt>
<trkpt lat="51.596830" lon="03.752329"><ele>12.7</ele><time>2022-11-16T15:18:57Z</time><name>PT9522</name></trkpt>
<trkpt lat="51.596829" lon="03.752315"><ele>12.8</ele><time>2022-11-16T15:18:58Z</time><name>PT9523</name></trkpt>
<trkpt lat="51.596829" lon="03.752300"><ele>12.5</ele><time>2022-11-16T15:18:59Z</time><name>PT9524</name></trkpt>
<trkpt lat="51.596830" lon="03.752287"><ele>12.5</ele><time>2022-11-16T15:19:00Z</time><name>PT9525</name></trkpt>
<trkpt lat="51.596830" lon="03.752276"><ele>12.5</ele><time>2022-11-16T15:19:01Z</time><name>PT9526</name></trkpt>
<trkpt lat="51.596830" lon="03.752261"><ele>12.5</ele><time>2022-11-16T15:19:02Z</time><name>PT9527</name></trkpt>
<trkpt lat="51.596829" lon="03.752249"><ele>12.5</ele><time>2022-11-16T15:19:03Z</time><name>PT9528</name></trkpt>
<trkpt lat="51.596830" lon="03.752238"><ele>12.6</ele><time>2022-11-16T15:19:04Z</time><name>PT9529</name></trkpt>
<trkpt lat="51.596832" lon="03.752224"><ele>12.6</ele><time>2022-11-16T15:19:05Z</time><name>PT9530</name></trkpt>
<trkpt lat="51.596832" lon="03.752211"><ele>12.7</ele><time>2022-11-16T15:19:06Z</time><name>PT9531</name></trkpt>
<trkpt lat="51.596831" lon="03.752198"><ele>12.7</ele><time>2022-11-16T15:19:07Z</time><name>PT9532</name></trkpt>
<trkpt lat="51.596831" lon="03.752185"><ele>12.7</ele><time>2022-11-16T15:19:08Z</time><name>PT9533</name></trkpt>
<trkpt lat="51.596831" lon="03.752173"><ele>12.7</ele><time>2022-11-16T15:19:09Z</time><name>PT9534</name></trkpt>
<trkpt lat="51.596831" lon="03.752159"><ele>12.6</ele><time>2022-11-16T15:19:10Z</time><name>PT9535</name></trkpt>
<trkpt lat="51.596831" lon="03.752149"><ele>12.8</ele><time>2022-11-16T15:19:11Z</time><name>PT9536</name></trkpt>
<trkpt lat="51.596831" lon="03.752140"><ele>12.6</ele><time>2022-11-16T15:19:12Z</time><name>PT9537</name></trkpt>
<trkpt lat="51.596831" lon="03.752130"><ele>12.5</ele><time>2022-11-16T15:19:13Z</time><name>PT9538</name></trkpt>
<trkpt lat="51.596831" lon="03.752121"><ele>12.5</ele><time>2022-11-16T15:19:14Z</time><name>PT9539</name></trkpt>
<trkpt lat="51.596831" lon="03.752114"><ele>12.6</ele><time>2022-11-16T15:19:15Z</time><name>PT9540</name></trkpt>
<trkpt lat="51.596830" lon="03.752109"><ele>13.1</ele><time>2022-11-16T15:19:30Z</time><name>PT9541</name></trkpt>
<trkpt lat="51.596829" lon="03.752094"><ele>13</ele><time>2022-11-16T15:19:31Z</time><name>PT9542</name></trkpt>
<trkpt lat="51.596831" lon="03.752077"><ele>12.8</ele><time>2022-11-16T15:19:32Z</time><name>PT9543</name></trkpt>
<trkpt lat="51.596833" lon="03.752059"><ele>12.6</ele><time>2022-11-16T15:19:33Z</time><name>PT9544</name></trkpt>
<trkpt lat="51.596832" lon="03.752044"><ele>12.7</ele><time>2022-11-16T15:19:34Z</time><name>PT9545</name></trkpt>
<trkpt lat="51.596830" lon="03.752026"><ele>12.7</ele><time>2022-11-16T15:19:35Z</time><name>PT9546</name></trkpt>
<trkpt lat="51.596828" lon="03.752010"><ele>12.7</ele><time>2022-11-16T15:19:36Z</time><name>PT9547</name></trkpt>
<trkpt lat="51.596828" lon="03.751995"><ele>12.5</ele><time>2022-11-16T15:19:37Z</time><name>PT9548</name></trkpt>
<trkpt lat="51.596829" lon="03.751977"><ele>12.7</ele><time>2022-11-16T15:19:38Z</time><name>PT9549</name></trkpt>
<trkpt lat="51.596829" lon="03.751966"><ele>12.5</ele><time>2022-11-16T15:19:39Z</time><name>PT9550</name></trkpt>
<trkpt lat="51.596827" lon="03.751960"><ele>12.5</ele><time>2022-11-16T15:19:40Z</time><name>PT9551</name></trkpt>
<trkpt lat="51.596826" lon="03.751955"><ele>12.6</ele><time>2022-11-16T15:19:41Z</time><name>PT9552</name></trkpt>
<trkpt lat="51.596824" lon="03.751948"><ele>12.7</ele><time>2022-11-16T15:19:42Z</time><name>PT9553</name></trkpt>
<trkpt lat="51.596826" lon="03.751943"><ele>12.7</ele><time>2022-11-16T15:19:43Z</time><name>PT9554</name></trkpt>
<trkpt lat="51.596823" lon="03.751942"><ele>12.8</ele><time>2022-11-16T15:19:44Z</time><name>PT9555</name></trkpt>
<trkpt lat="51.596823" lon="03.751942"><ele>12.7</ele><time>2022-11-16T15:19:45Z</time><name>PT9556</name></trkpt>
<trkpt lat="51.596825" lon="03.751943"><ele>12.7</ele><time>2022-11-16T15:19:46Z</time><name>PT9557</name></trkpt>
<trkpt lat="51.596827" lon="03.751946"><ele>12.7</ele><time>2022-11-16T15:19:47Z</time><name>PT9558</name></trkpt>
<trkpt lat="51.596828" lon="03.751938"><ele>12.6</ele><time>2022-11-16T15:19:58Z</time><name>PT9559</name></trkpt>
<trkpt lat="51.596827" lon="03.751940"><ele>12.7</ele><time>2022-11-16T15:19:59Z</time><name>PT9560</name></trkpt>
<trkpt lat="51.596825" lon="03.751945"><ele>13</ele><time>2022-11-16T15:20:00Z</time><name>PT9561</name></trkpt>
<trkpt lat="51.596825" lon="03.751951"><ele>13.1</ele><time>2022-11-16T15:20:01Z</time><name>PT9562</name></trkpt>
<trkpt lat="51.596824" lon="03.751954"><ele>13.1</ele><time>2022-11-16T15:20:02Z</time><name>PT9563</name></trkpt>
<trkpt lat="51.596824" lon="03.751955"><ele>13.1</ele><time>2022-11-16T15:20:03Z</time><name>PT9564</name></trkpt>
<trkpt lat="51.596824" lon="03.751954"><ele>13.1</ele><time>2022-11-16T15:20:04Z</time><name>PT9565</name></trkpt>
<trkpt lat="51.596826" lon="03.751958"><ele>13</ele><time>2022-11-16T15:20:05Z</time><name>PT9566</name></trkpt>
<trkpt lat="51.596827" lon="03.751966"><ele>13.1</ele><time>2022-11-16T15:20:06Z</time><name>PT9567</name></trkpt>
<trkpt lat="51.596828" lon="03.751966"><ele>13.1</ele><time>2022-11-16T15:20:07Z</time><name>PT9568</name></trkpt>
<trkpt lat="51.596827" lon="03.751965"><ele>13.3</ele><time>2022-11-16T15:20:08Z</time><name>PT9569</name></trkpt>
<trkpt lat="51.596825" lon="03.751964"><ele>13.6</ele><time>2022-11-16T15:20:09Z</time><name>PT9570</name></trkpt>
<trkpt lat="51.596820" lon="03.751963"><ele>13</ele><time>2022-11-16T15:20:24Z</time><name>PT9571</name></trkpt>
<trkpt lat="51.596819" lon="03.751962"><ele>13</ele><time>2022-11-16T15:20:25Z</time><name>PT9572</name></trkpt>
<trkpt lat="51.596823" lon="03.751939"><ele>13.2</ele><time>2022-11-16T15:21:25Z</time><name>PT9573</name></trkpt>
<trkpt lat="51.596823" lon="03.751915"><ele>13.3</ele><time>2022-11-16T15:21:26Z</time><name>PT9574</name></trkpt>
<trkpt lat="51.596822" lon="03.751891"><ele>13.2</ele><time>2022-11-16T15:21:27Z</time><name>PT9575</name></trkpt>
<trkpt lat="51.596823" lon="03.751866"><ele>13.2</ele><time>2022-11-16T15:21:28Z</time><name>PT9576</name></trkpt>
<trkpt lat="51.596823" lon="03.751839"><ele>13.1</ele><time>2022-11-16T15:21:29Z</time><name>PT9577</name></trkpt>
<trkpt lat="51.596823" lon="03.751816"><ele>13.1</ele><time>2022-11-16T15:21:30Z</time><name>PT9578</name></trkpt>
<trkpt lat="51.596823" lon="03.751790"><ele>13.1</ele><time>2022-11-16T15:21:31Z</time><name>PT9579</name></trkpt>
<trkpt lat="51.596824" lon="03.751766"><ele>13.2</ele><time>2022-11-16T15:21:32Z</time><name>PT9580</name></trkpt>
<trkpt lat="51.596821" lon="03.751744"><ele>13.1</ele><time>2022-11-16T15:21:33Z</time><name>PT9581</name></trkpt>
<trkpt lat="51.596821" lon="03.751722"><ele>13.1</ele><time>2022-11-16T15:21:34Z</time><name>PT9582</name></trkpt>
<trkpt lat="51.596820" lon="03.751704"><ele>12.9</ele><time>2022-11-16T15:21:35Z</time><name>PT9583</name></trkpt>
<trkpt lat="51.596822" lon="03.751686"><ele>12.9</ele><time>2022-11-16T15:21:36Z</time><name>PT9584</name></trkpt>
<trkpt lat="51.596823" lon="03.751666"><ele>12.8</ele><time>2022-11-16T15:21:37Z</time><name>PT9585</name></trkpt>
<trkpt lat="51.596823" lon="03.751646"><ele>12.8</ele><time>2022-11-16T15:21:38Z</time><name>PT9586</name></trkpt>
<trkpt lat="51.596822" lon="03.751625"><ele>12.7</ele><time>2022-11-16T15:21:39Z</time><name>PT9587</name></trkpt>
<trkpt lat="51.596821" lon="03.751606"><ele>12.7</ele><time>2022-11-16T15:21:40Z</time><name>PT9588</name></trkpt>
<trkpt lat="51.596819" lon="03.751588"><ele>12.8</ele><time>2022-11-16T15:21:41Z</time><name>PT9589</name></trkpt>
<trkpt lat="51.596820" lon="03.751571"><ele>13.1</ele><time>2022-11-16T15:21:42Z</time><name>PT9590</name></trkpt>
<trkpt lat="51.596820" lon="03.751554"><ele>13</ele><time>2022-11-16T15:21:43Z</time><name>PT9591</name></trkpt>
<trkpt lat="51.596820" lon="03.751535"><ele>13.1</ele><time>2022-11-16T15:21:44Z</time><name>PT9592</name></trkpt>
<trkpt lat="51.596819" lon="03.751516"><ele>13</ele><time>2022-11-16T15:21:45Z</time><name>PT9593</name></trkpt>
<trkpt lat="51.596819" lon="03.751497"><ele>12.8</ele><time>2022-11-16T15:21:46Z</time><name>PT9594</name></trkpt>
<trkpt lat="51.596818" lon="03.751479"><ele>12.7</ele><time>2022-11-16T15:21:47Z</time><name>PT9595</name></trkpt>
<trkpt lat="51.596817" lon="03.751461"><ele>12.8</ele><time>2022-11-16T15:21:48Z</time><name>PT9596</name></trkpt>
<trkpt lat="51.596816" lon="03.751441"><ele>12.6</ele><time>2022-11-16T15:21:49Z</time><name>PT9597</name></trkpt>
<trkpt lat="51.596814" lon="03.751422"><ele>12.7</ele><time>2022-11-16T15:21:50Z</time><name>PT9598</name></trkpt>
<trkpt lat="51.596813" lon="03.751405"><ele>12.7</ele><time>2022-11-16T15:21:51Z</time><name>PT9599</name></trkpt>
<trkpt lat="51.596813" lon="03.751387"><ele>12.6</ele><time>2022-11-16T15:21:52Z</time><name>PT9600</name></trkpt>
<trkpt lat="51.596814" lon="03.751370"><ele>12.4</ele><time>2022-11-16T15:21:53Z</time><name>PT9601</name></trkpt>
<trkpt lat="51.596813" lon="03.751352"><ele>12.5</ele><time>2022-11-16T15:21:54Z</time><name>PT9602</name></trkpt>
<trkpt lat="51.596813" lon="03.751333"><ele>12.5</ele><time>2022-11-16T15:21:55Z</time><name>PT9603</name></trkpt>
<trkpt lat="51.596813" lon="03.751314"><ele>12.5</ele><time>2022-11-16T15:21:56Z</time><name>PT9604</name></trkpt>
<trkpt lat="51.596813" lon="03.751295"><ele>12.5</ele><time>2022-11-16T15:21:57Z</time><name>PT9605</name></trkpt>
<trkpt lat="51.596811" lon="03.751275"><ele>12.5</ele><time>2022-11-16T15:21:58Z</time><name>PT9606</name></trkpt>
<trkpt lat="51.596805" lon="03.751250"><ele>12.5</ele><time>2022-11-16T15:21:59Z</time><name>PT9607</name></trkpt>
<trkpt lat="51.596802" lon="03.751229"><ele>12.5</ele><time>2022-11-16T15:22:00Z</time><name>PT9608</name></trkpt>
<trkpt lat="51.596801" lon="03.751209"><ele>12.6</ele><time>2022-11-16T15:22:01Z</time><name>PT9609</name></trkpt>
<trkpt lat="51.596800" lon="03.751189"><ele>12.6</ele><time>2022-11-16T15:22:02Z</time><name>PT9610</name></trkpt>
<trkpt lat="51.596799" lon="03.751172"><ele>12.6</ele><time>2022-11-16T15:22:03Z</time><name>PT9611</name></trkpt>
<trkpt lat="51.596799" lon="03.751156"><ele>12.7</ele><time>2022-11-16T15:22:04Z</time><name>PT9612</name></trkpt>
<trkpt lat="51.596799" lon="03.751138"><ele>12.5</ele><time>2022-11-16T15:22:05Z</time><name>PT9613</name></trkpt>
<trkpt lat="51.596802" lon="03.751129"><ele>12.5</ele><time>2022-11-16T15:22:06Z</time><name>PT9614</name></trkpt>
<trkpt lat="51.596802" lon="03.751126"><ele>12.6</ele><time>2022-11-16T15:22:07Z</time><name>PT9615</name></trkpt>
<trkpt lat="51.596801" lon="03.751126"><ele>12.6</ele><time>2022-11-16T15:22:08Z</time><name>PT9616</name></trkpt>
<trkpt lat="51.596802" lon="03.751127"><ele>12.8</ele><time>2022-11-16T15:22:09Z</time><name>PT9617</name></trkpt>
<trkpt lat="51.596801" lon="03.751125"><ele>12.9</ele><time>2022-11-16T15:22:10Z</time><name>PT9618</name></trkpt>
<trkpt lat="51.596794" lon="03.751120"><ele>12.9</ele><time>2022-11-16T15:22:15Z</time><name>PT9619</name></trkpt>
<trkpt lat="51.596795" lon="03.751109"><ele>13</ele><time>2022-11-16T15:22:16Z</time><name>PT9620</name></trkpt>
<trkpt lat="51.596793" lon="03.751096"><ele>13.1</ele><time>2022-11-16T15:22:17Z</time><name>PT9621</name></trkpt>
<trkpt lat="51.596791" lon="03.751080"><ele>13.1</ele><time>2022-11-16T15:22:18Z</time><name>PT9622</name></trkpt>
<trkpt lat="51.596790" lon="03.751065"><ele>13.1</ele><time>2022-11-16T15:22:19Z</time><name>PT9623</name></trkpt>
<trkpt lat="51.596790" lon="03.751052"><ele>13</ele><time>2022-11-16T15:22:20Z</time><name>PT9624</name></trkpt>
<trkpt lat="51.596792" lon="03.751039"><ele>12.8</ele><time>2022-11-16T15:22:21Z</time><name>PT9625</name></trkpt>
<trkpt lat="51.596791" lon="03.751025"><ele>12.8</ele><time>2022-11-16T15:22:22Z</time><name>PT9626</name></trkpt>
<trkpt lat="51.596791" lon="03.751010"><ele>13</ele><time>2022-11-16T15:22:23Z</time><name>PT9627</name></trkpt>
<trkpt lat="51.596791" lon="03.750997"><ele>12.9</ele><time>2022-11-16T15:22:24Z</time><name>PT9628</name></trkpt>
<trkpt lat="51.596794" lon="03.750994"><ele>12.9</ele><time>2022-11-16T15:22:25Z</time><name>PT9629</name></trkpt>
<trkpt lat="51.596793" lon="03.750994"><ele>13</ele><time>2022-11-16T15:22:26Z</time><name>PT9630</name></trkpt>
<trkpt lat="51.596792" lon="03.750996"><ele>12.9</ele><time>2022-11-16T15:22:27Z</time><name>PT9631</name></trkpt>
<trkpt lat="51.596791" lon="03.750995"><ele>12.9</ele><time>2022-11-16T15:22:28Z</time><name>PT9632</name></trkpt>
<trkpt lat="51.596790" lon="03.750994"><ele>13</ele><time>2022-11-16T15:22:29Z</time><name>PT9633</name></trkpt>
<trkpt lat="51.596789" lon="03.750993"><ele>13.5</ele><time>2022-11-16T15:23:32Z</time><name>PT9634</name></trkpt>
<trkpt lat="51.596790" lon="03.750996"><ele>13.3</ele><time>2022-11-16T15:23:33Z</time><name>PT9635</name></trkpt>
<trkpt lat="51.596791" lon="03.750998"><ele>13.2</ele><time>2022-11-16T15:23:34Z</time><name>PT9636</name></trkpt>
<trkpt lat="51.596794" lon="03.750999"><ele>13.3</ele><time>2022-11-16T15:24:04Z</time><name>PT9637</name></trkpt>
<trkpt lat="51.596796" lon="03.750989"><ele>13.4</ele><time>2022-11-16T15:24:05Z</time><name>PT9638</name></trkpt>
<trkpt lat="51.596795" lon="03.750976"><ele>13.3</ele><time>2022-11-16T15:24:06Z</time><name>PT9639</name></trkpt>
<trkpt lat="51.596793" lon="03.750960"><ele>13.2</ele><time>2022-11-16T15:24:07Z</time><name>PT9640</name></trkpt>
<trkpt lat="51.596790" lon="03.750940"><ele>13.3</ele><time>2022-11-16T15:24:08Z</time><name>PT9641</name></trkpt>
<trkpt lat="51.596786" lon="03.750924"><ele>13.3</ele><time>2022-11-16T15:24:09Z</time><name>PT9642</name></trkpt>
<trkpt lat="51.596784" lon="03.750908"><ele>13.3</ele><time>2022-11-16T15:24:10Z</time><name>PT9643</name></trkpt>
<trkpt lat="51.596784" lon="03.750892"><ele>13.5</ele><time>2022-11-16T15:24:11Z</time><name>PT9644</name></trkpt>
<trkpt lat="51.596784" lon="03.750875"><ele>13.6</ele><time>2022-11-16T15:24:12Z</time><name>PT9645</name></trkpt>
<trkpt lat="51.596784" lon="03.750857"><ele>13.6</ele><time>2022-11-16T15:24:13Z</time><name>PT9646</name></trkpt>
<trkpt lat="51.596783" lon="03.750842"><ele>13.3</ele><time>2022-11-16T15:24:14Z</time><name>PT9647</name></trkpt>
<trkpt lat="51.596782" lon="03.750825"><ele>13.3</ele><time>2022-11-16T15:24:15Z</time><name>PT9648</name></trkpt>
<trkpt lat="51.596783" lon="03.750807"><ele>13.2</ele><time>2022-11-16T15:24:16Z</time><name>PT9649</name></trkpt>
<trkpt lat="51.596783" lon="03.750789"><ele>13.1</ele><time>2022-11-16T15:24:17Z</time><name>PT9650</name></trkpt>
<trkpt lat="51.596781" lon="03.750771"><ele>13.2</ele><time>2022-11-16T15:24:18Z</time><name>PT9651</name></trkpt>
<trkpt lat="51.596781" lon="03.750755"><ele>13.2</ele><time>2022-11-16T15:24:19Z</time><name>PT9652</name></trkpt>
<trkpt lat="51.596782" lon="03.750738"><ele>13.2</ele><time>2022-11-16T15:24:20Z</time><name>PT9653</name></trkpt>
<trkpt lat="51.596784" lon="03.750721"><ele>13.2</ele><time>2022-11-16T15:24:21Z</time><name>PT9654</name></trkpt>
<trkpt lat="51.596784" lon="03.750706"><ele>13.1</ele><time>2022-11-16T15:24:22Z</time><name>PT9655</name></trkpt>
<trkpt lat="51.596784" lon="03.750690"><ele>13.3</ele><time>2022-11-16T15:24:23Z</time><name>PT9656</name></trkpt>
<trkpt lat="51.596784" lon="03.750673"><ele>13.4</ele><time>2022-11-16T15:24:24Z</time><name>PT9657</name></trkpt>
<trkpt lat="51.596782" lon="03.750656"><ele>13.5</ele><time>2022-11-16T15:24:25Z</time><name>PT9658</name></trkpt>
<trkpt lat="51.596779" lon="03.750639"><ele>13.6</ele><time>2022-11-16T15:24:26Z</time><name>PT9659</name></trkpt>
<trkpt lat="51.596778" lon="03.750623"><ele>13.6</ele><time>2022-11-16T15:24:27Z</time><name>PT9660</name></trkpt>
<trkpt lat="51.596779" lon="03.750607"><ele>13.6</ele><time>2022-11-16T15:24:28Z</time><name>PT9661</name></trkpt>
<trkpt lat="51.596781" lon="03.750593"><ele>13.6</ele><time>2022-11-16T15:24:29Z</time><name>PT9662</name></trkpt>
<trkpt lat="51.596782" lon="03.750578"><ele>13.5</ele><time>2022-11-16T15:24:30Z</time><name>PT9663</name></trkpt>
<trkpt lat="51.596783" lon="03.750559"><ele>13.6</ele><time>2022-11-16T15:24:31Z</time><name>PT9664</name></trkpt>
<trkpt lat="51.596784" lon="03.750540"><ele>13.6</ele><time>2022-11-16T15:24:32Z</time><name>PT9665</name></trkpt>
<trkpt lat="51.596783" lon="03.750521"><ele>13.4</ele><time>2022-11-16T15:24:33Z</time><name>PT9666</name></trkpt>
<trkpt lat="51.596782" lon="03.750503"><ele>13.4</ele><time>2022-11-16T15:24:34Z</time><name>PT9667</name></trkpt>
<trkpt lat="51.596782" lon="03.750483"><ele>13.5</ele><time>2022-11-16T15:24:35Z</time><name>PT9668</name></trkpt>
<trkpt lat="51.596781" lon="03.750466"><ele>13.3</ele><time>2022-11-16T15:24:36Z</time><name>PT9669</name></trkpt>
<trkpt lat="51.596779" lon="03.750449"><ele>13.2</ele><time>2022-11-16T15:24:37Z</time><name>PT9670</name></trkpt>
<trkpt lat="51.596778" lon="03.750430"><ele>13.3</ele><time>2022-11-16T15:24:38Z</time><name>PT9671</name></trkpt>
<trkpt lat="51.596778" lon="03.750411"><ele>13.3</ele><time>2022-11-16T15:24:39Z</time><name>PT9672</name></trkpt>
<trkpt lat="51.596776" lon="03.750394"><ele>13.3</ele><time>2022-11-16T15:24:40Z</time><name>PT9673</name></trkpt>
<trkpt lat="51.596776" lon="03.750377"><ele>13.3</ele><time>2022-11-16T15:24:41Z</time><name>PT9674</name></trkpt>
<trkpt lat="51.596776" lon="03.750359"><ele>13.3</ele><time>2022-11-16T15:24:42Z</time><name>PT9675</name></trkpt>
<trkpt lat="51.596776" lon="03.750341"><ele>13.3</ele><time>2022-11-16T15:24:43Z</time><name>PT9676</name></trkpt>
<trkpt lat="51.596777" lon="03.750324"><ele>13.4</ele><time>2022-11-16T15:24:44Z</time><name>PT9677</name></trkpt>
<trkpt lat="51.596779" lon="03.750305"><ele>13.4</ele><time>2022-11-16T15:24:45Z</time><name>PT9678</name></trkpt>
<trkpt lat="51.596779" lon="03.750287"><ele>13.5</ele><time>2022-11-16T15:24:46Z</time><name>PT9679</name></trkpt>
<trkpt lat="51.596780" lon="03.750267"><ele>13.6</ele><time>2022-11-16T15:24:47Z</time><name>PT9680</name></trkpt>
<trkpt lat="51.596780" lon="03.750247"><ele>13.5</ele><time>2022-11-16T15:24:48Z</time><name>PT9681</name></trkpt>
<trkpt lat="51.596781" lon="03.750229"><ele>13.5</ele><time>2022-11-16T15:24:49Z</time><name>PT9682</name></trkpt>
<trkpt lat="51.596780" lon="03.750211"><ele>13.6</ele><time>2022-11-16T15:24:50Z</time><name>PT9683</name></trkpt>
<trkpt lat="51.596779" lon="03.750193"><ele>13.4</ele><time>2022-11-16T15:24:51Z</time><name>PT9684</name></trkpt>
<trkpt lat="51.596779" lon="03.750176"><ele>13.4</ele><time>2022-11-16T15:24:52Z</time><name>PT9685</name></trkpt>
<trkpt lat="51.596779" lon="03.750159"><ele>13.6</ele><time>2022-11-16T15:24:53Z</time><name>PT9686</name></trkpt>
<trkpt lat="51.596778" lon="03.750139"><ele>13.6</ele><time>2022-11-16T15:24:54Z</time><name>PT9687</name></trkpt>
<trkpt lat="51.596776" lon="03.750122"><ele>13.5</ele><time>2022-11-16T15:24:55Z</time><name>PT9688</name></trkpt>
<trkpt lat="51.596774" lon="03.750103"><ele>13.4</ele><time>2022-11-16T15:24:56Z</time><name>PT9689</name></trkpt>
<trkpt lat="51.596773" lon="03.750086"><ele>13.5</ele><time>2022-11-16T15:24:57Z</time><name>PT9690</name></trkpt>
<trkpt lat="51.596772" lon="03.750069"><ele>13.4</ele><time>2022-11-16T15:24:58Z</time><name>PT9691</name></trkpt>
<trkpt lat="51.596772" lon="03.750052"><ele>13.5</ele><time>2022-11-16T15:24:59Z</time><name>PT9692</name></trkpt>
<trkpt lat="51.596773" lon="03.750034"><ele>13.5</ele><time>2022-11-16T15:25:00Z</time><name>PT9693</name></trkpt>
<trkpt lat="51.596774" lon="03.750014"><ele>13.5</ele><time>2022-11-16T15:25:01Z</time><name>PT9694</name></trkpt>
<trkpt lat="51.596775" lon="03.749997"><ele>13.4</ele><time>2022-11-16T15:25:02Z</time><name>PT9695</name></trkpt>
<trkpt lat="51.596775" lon="03.749979"><ele>13.3</ele><time>2022-11-16T15:25:03Z</time><name>PT9696</name></trkpt>
<trkpt lat="51.596775" lon="03.749961"><ele>13.2</ele><time>2022-11-16T15:25:04Z</time><name>PT9697</name></trkpt>
<trkpt lat="51.596775" lon="03.749944"><ele>13.3</ele><time>2022-11-16T15:25:05Z</time><name>PT9698</name></trkpt>
<trkpt lat="51.596774" lon="03.749926"><ele>13.4</ele><time>2022-11-16T15:25:06Z</time><name>PT9699</name></trkpt>
<trkpt lat="51.596773" lon="03.749909"><ele>13.4</ele><time>2022-11-16T15:25:07Z</time><name>PT9700</name></trkpt>
<trkpt lat="51.596772" lon="03.749890"><ele>13.5</ele><time>2022-11-16T15:25:08Z</time><name>PT9701</name></trkpt>
<trkpt lat="51.596771" lon="03.749872"><ele>13.5</ele><time>2022-11-16T15:25:09Z</time><name>PT9702</name></trkpt>
<trkpt lat="51.596771" lon="03.749856"><ele>13.5</ele><time>2022-11-16T15:25:10Z</time><name>PT9703</name></trkpt>
<trkpt lat="51.596771" lon="03.749840"><ele>13.5</ele><time>2022-11-16T15:25:11Z</time><name>PT9704</name></trkpt>
<trkpt lat="51.596771" lon="03.749821"><ele>13.7</ele><time>2022-11-16T15:25:12Z</time><name>PT9705</name></trkpt>
<trkpt lat="51.596772" lon="03.749802"><ele>13.6</ele><time>2022-11-16T15:25:13Z</time><name>PT9706</name></trkpt>
<trkpt lat="51.596773" lon="03.749785"><ele>13.8</ele><time>2022-11-16T15:25:14Z</time><name>PT9707</name></trkpt>
<trkpt lat="51.596773" lon="03.749767"><ele>13.7</ele><time>2022-11-16T15:25:15Z</time><name>PT9708</name></trkpt>
<trkpt lat="51.596773" lon="03.749748"><ele>13.8</ele><time>2022-11-16T15:25:16Z</time><name>PT9709</name></trkpt>
<trkpt lat="51.596771" lon="03.749732"><ele>13.8</ele><time>2022-11-16T15:25:17Z</time><name>PT9710</name></trkpt>
<trkpt lat="51.596771" lon="03.749714"><ele>14.1</ele><time>2022-11-16T15:25:18Z</time><name>PT9711</name></trkpt>
<trkpt lat="51.596770" lon="03.749695"><ele>13.9</ele><time>2022-11-16T15:25:19Z</time><name>PT9712</name></trkpt>
<trkpt lat="51.596769" lon="03.749679"><ele>13.9</ele><time>2022-11-16T15:25:20Z</time><name>PT9713</name></trkpt>
<trkpt lat="51.596769" lon="03.749665"><ele>13.7</ele><time>2022-11-16T15:25:21Z</time><name>PT9714</name></trkpt>
<trkpt lat="51.596770" lon="03.749650"><ele>13.6</ele><time>2022-11-16T15:25:22Z</time><name>PT9715</name></trkpt>
<trkpt lat="51.596771" lon="03.749632"><ele>13.7</ele><time>2022-11-16T15:25:23Z</time><name>PT9716</name></trkpt>
<trkpt lat="51.596771" lon="03.749616"><ele>13.8</ele><time>2022-11-16T15:25:24Z</time><name>PT9717</name></trkpt>
<trkpt lat="51.596771" lon="03.749600"><ele>13.7</ele><time>2022-11-16T15:25:25Z</time><name>PT9718</name></trkpt>
<trkpt lat="51.596771" lon="03.749582"><ele>13.7</ele><time>2022-11-16T15:25:26Z</time><name>PT9719</name></trkpt>
<trkpt lat="51.596771" lon="03.749563"><ele>13.6</ele><time>2022-11-16T15:25:27Z</time><name>PT9720</name></trkpt>
<trkpt lat="51.596771" lon="03.749544"><ele>13.6</ele><time>2022-11-16T15:25:28Z</time><name>PT9721</name></trkpt>
<trkpt lat="51.596771" lon="03.749528"><ele>13.6</ele><time>2022-11-16T15:25:29Z</time><name>PT9722</name></trkpt>
<trkpt lat="51.596772" lon="03.749512"><ele>13.6</ele><time>2022-11-16T15:25:30Z</time><name>PT9723</name></trkpt>
<trkpt lat="51.596773" lon="03.749495"><ele>13.6</ele><time>2022-11-16T15:25:31Z</time><name>PT9724</name></trkpt>
<trkpt lat="51.596774" lon="03.749477"><ele>13.6</ele><time>2022-11-16T15:25:32Z</time><name>PT9725</name></trkpt>
<trkpt lat="51.596776" lon="03.749459"><ele>13.6</ele><time>2022-11-16T15:25:33Z</time><name>PT9726</name></trkpt>
<trkpt lat="51.596777" lon="03.749441"><ele>13.6</ele><time>2022-11-16T15:25:34Z</time><name>PT9727</name></trkpt>
<trkpt lat="51.596778" lon="03.749424"><ele>13.6</ele><time>2022-11-16T15:25:35Z</time><name>PT9728</name></trkpt>
<trkpt lat="51.596777" lon="03.749407"><ele>13.6</ele><time>2022-11-16T15:25:36Z</time><name>PT9729</name></trkpt>
<trkpt lat="51.596776" lon="03.749390"><ele>13.6</ele><time>2022-11-16T15:25:37Z</time><name>PT9730</name></trkpt>
<trkpt lat="51.596775" lon="03.749374"><ele>13.6</ele><time>2022-11-16T15:25:38Z</time><name>PT9731</name></trkpt>
<trkpt lat="51.596774" lon="03.749358"><ele>13.6</ele><time>2022-11-16T15:25:39Z</time><name>PT9732</name></trkpt>
<trkpt lat="51.596775" lon="03.749343"><ele>13.6</ele><time>2022-11-16T15:25:40Z</time><name>PT9733</name></trkpt>
<trkpt lat="51.596776" lon="03.749328"><ele>13.6</ele><time>2022-11-16T15:25:41Z</time><name>PT9734</name></trkpt>
<trkpt lat="51.596776" lon="03.749310"><ele>13.9</ele><time>2022-11-16T15:25:42Z</time><name>PT9735</name></trkpt>
<trkpt lat="51.596776" lon="03.749293"><ele>13.8</ele><time>2022-11-16T15:25:43Z</time><name>PT9736</name></trkpt>
<trkpt lat="51.596776" lon="03.749278"><ele>13.9</ele><time>2022-11-16T15:25:44Z</time><name>PT9737</name></trkpt>
<trkpt lat="51.596776" lon="03.749261"><ele>13.7</ele><time>2022-11-16T15:25:45Z</time><name>PT9738</name></trkpt>
<trkpt lat="51.596776" lon="03.749243"><ele>13.8</ele><time>2022-11-16T15:25:46Z</time><name>PT9739</name></trkpt>
<trkpt lat="51.596775" lon="03.749226"><ele>13.8</ele><time>2022-11-16T15:25:47Z</time><name>PT9740</name></trkpt>
<trkpt lat="51.596773" lon="03.749210"><ele>13.8</ele><time>2022-11-16T15:25:48Z</time><name>PT9741</name></trkpt>
<trkpt lat="51.596774" lon="03.749194"><ele>13.8</ele><time>2022-11-16T15:25:49Z</time><name>PT9742</name></trkpt>
<trkpt lat="51.596775" lon="03.749178"><ele>14.1</ele><time>2022-11-16T15:25:50Z</time><name>PT9743</name></trkpt>
<trkpt lat="51.596776" lon="03.749159"><ele>14.1</ele><time>2022-11-16T15:25:51Z</time><name>PT9744</name></trkpt>
<trkpt lat="51.596778" lon="03.749140"><ele>14.2</ele><time>2022-11-16T15:25:52Z</time><name>PT9745</name></trkpt>
<trkpt lat="51.596779" lon="03.749122"><ele>14.4</ele><time>2022-11-16T15:25:53Z</time><name>PT9746</name></trkpt>
<trkpt lat="51.596780" lon="03.749107"><ele>14.3</ele><time>2022-11-16T15:25:54Z</time><name>PT9747</name></trkpt>
<trkpt lat="51.596779" lon="03.749092"><ele>14.2</ele><time>2022-11-16T15:25:55Z</time><name>PT9748</name></trkpt>
<trkpt lat="51.596778" lon="03.749075"><ele>14.3</ele><time>2022-11-16T15:25:56Z</time><name>PT9749</name></trkpt>
<trkpt lat="51.596777" lon="03.749058"><ele>14.2</ele><time>2022-11-16T15:25:57Z</time><name>PT9750</name></trkpt>
<trkpt lat="51.596776" lon="03.749041"><ele>14.1</ele><time>2022-11-16T15:25:58Z</time><name>PT9751</name></trkpt>
<trkpt lat="51.596776" lon="03.749025"><ele>14</ele><time>2022-11-16T15:25:59Z</time><name>PT9752</name></trkpt>
<trkpt lat="51.596777" lon="03.749011"><ele>14.1</ele><time>2022-11-16T15:26:00Z</time><name>PT9753</name></trkpt>
<trkpt lat="51.596778" lon="03.748997"><ele>14.1</ele><time>2022-11-16T15:26:01Z</time><name>PT9754</name></trkpt>
<trkpt lat="51.596778" lon="03.748985"><ele>13.9</ele><time>2022-11-16T15:26:02Z</time><name>PT9755</name></trkpt>
<trkpt lat="51.596777" lon="03.748973"><ele>13.9</ele><time>2022-11-16T15:26:03Z</time><name>PT9756</name></trkpt>
<trkpt lat="51.596775" lon="03.748963"><ele>13.9</ele><time>2022-11-16T15:26:04Z</time><name>PT9757</name></trkpt>
<trkpt lat="51.596772" lon="03.748956"><ele>13.6</ele><time>2022-11-16T15:26:05Z</time><name>PT9758</name></trkpt>
<trkpt lat="51.596768" lon="03.748951"><ele>13.7</ele><time>2022-11-16T15:26:06Z</time><name>PT9759</name></trkpt>
<trkpt lat="51.596762" lon="03.748949"><ele>13.7</ele><time>2022-11-16T15:26:07Z</time><name>PT9760</name></trkpt>
<trkpt lat="51.596756" lon="03.748946"><ele>13.7</ele><time>2022-11-16T15:26:08Z</time><name>PT9761</name></trkpt>
<trkpt lat="51.596751" lon="03.748945"><ele>13.9</ele><time>2022-11-16T15:26:09Z</time><name>PT9762</name></trkpt>
<trkpt lat="51.596744" lon="03.748944"><ele>14</ele><time>2022-11-16T15:26:10Z</time><name>PT9763</name></trkpt>
<trkpt lat="51.596740" lon="03.748942"><ele>14</ele><time>2022-11-16T15:26:11Z</time><name>PT9764</name></trkpt>
<trkpt lat="51.596736" lon="03.748943"><ele>14.3</ele><time>2022-11-16T15:26:12Z</time><name>PT9765</name></trkpt>
<trkpt lat="51.596733" lon="03.748943"><ele>14.3</ele><time>2022-11-16T15:26:13Z</time><name>PT9766</name></trkpt>
<trkpt lat="51.596728" lon="03.748945"><ele>14.6</ele><time>2022-11-16T15:26:14Z</time><name>PT9767</name></trkpt>
<trkpt lat="51.596725" lon="03.748943"><ele>14.7</ele><time>2022-11-16T15:26:15Z</time><name>PT9768</name></trkpt>
<trkpt lat="51.596721" lon="03.748947"><ele>17.1</ele><time>2022-11-16T15:26:39Z</time><name>PT9769</name></trkpt>
<trkpt lat="51.596713" lon="03.748946"><ele>17.1</ele><time>2022-11-16T15:26:40Z</time><name>PT9770</name></trkpt>
<trkpt lat="51.596706" lon="03.748946"><ele>17.3</ele><time>2022-11-16T15:26:41Z</time><name>PT9771</name></trkpt>
<trkpt lat="51.596700" lon="03.748945"><ele>17.4</ele><time>2022-11-16T15:26:42Z</time><name>PT9772</name></trkpt>
<trkpt lat="51.596695" lon="03.748944"><ele>17.2</ele><time>2022-11-16T15:26:43Z</time><name>PT9773</name></trkpt>
<trkpt lat="51.596691" lon="03.748942"><ele>17.2</ele><time>2022-11-16T15:26:44Z</time><name>PT9774</name></trkpt>
<trkpt lat="51.596686" lon="03.748940"><ele>16.9</ele><time>2022-11-16T15:26:45Z</time><name>PT9775</name></trkpt>
<trkpt lat="51.596682" lon="03.748940"><ele>16.8</ele><time>2022-11-16T15:26:46Z</time><name>PT9776</name></trkpt>
<trkpt lat="51.596677" lon="03.748937"><ele>16.9</ele><time>2022-11-16T15:26:47Z</time><name>PT9777</name></trkpt>
<trkpt lat="51.596673" lon="03.748937"><ele>16.9</ele><time>2022-11-16T15:26:48Z</time><name>PT9778</name></trkpt>
<trkpt lat="51.596669" lon="03.748937"><ele>16.8</ele><time>2022-11-16T15:26:49Z</time><name>PT9779</name></trkpt>
<trkpt lat="51.596667" lon="03.748939"><ele>16.5</ele><time>2022-11-16T15:26:50Z</time><name>PT9780</name></trkpt>
<trkpt lat="51.596663" lon="03.748939"><ele>16</ele><time>2022-11-16T15:26:51Z</time><name>PT9781</name></trkpt>
<trkpt lat="51.596659" lon="03.748940"><ele>15.7</ele><time>2022-11-16T15:26:52Z</time><name>PT9782</name></trkpt>
<trkpt lat="51.596656" lon="03.748941"><ele>15.4</ele><time>2022-11-16T15:26:53Z</time><name>PT9783</name></trkpt>
<trkpt lat="51.596651" lon="03.748945"><ele>15.5</ele><time>2022-11-16T15:26:56Z</time><name>PT9784</name></trkpt>
<trkpt lat="51.596646" lon="03.748944"><ele>15.7</ele><time>2022-11-16T15:26:57Z</time><name>PT9785</name></trkpt>
<trkpt lat="51.596641" lon="03.748943"><ele>15.7</ele><time>2022-11-16T15:26:58Z</time><name>PT9786</name></trkpt>
<trkpt lat="51.596637" lon="03.748943"><ele>16</ele><time>2022-11-16T15:26:59Z</time><name>PT9787</name></trkpt>
<trkpt lat="51.596633" lon="03.748943"><ele>16.2</ele><time>2022-11-16T15:27:00Z</time><name>PT9788</name></trkpt>
<trkpt lat="51.596629" lon="03.748943"><ele>16</ele><time>2022-11-16T15:27:01Z</time><name>PT9789</name></trkpt>
<trkpt lat="51.596626" lon="03.748943"><ele>15.2</ele><time>2022-11-16T15:27:14Z</time><name>PT9790</name></trkpt>
<trkpt lat="51.596620" lon="03.748945"><ele>15.2</ele><time>2022-11-16T15:27:15Z</time><name>PT9791</name></trkpt>
<trkpt lat="51.596615" lon="03.748949"><ele>15.2</ele><time>2022-11-16T15:27:16Z</time><name>PT9792</name></trkpt>
<trkpt lat="51.596609" lon="03.748956"><ele>14.9</ele><time>2022-11-16T15:27:17Z</time><name>PT9793</name></trkpt>
<trkpt lat="51.596604" lon="03.748959"><ele>14.7</ele><time>2022-11-16T15:27:18Z</time><name>PT9794</name></trkpt>
<trkpt lat="51.596599" lon="03.748962"><ele>14.6</ele><time>2022-11-16T15:27:19Z</time><name>PT9795</name></trkpt>
<trkpt lat="51.596595" lon="03.748968"><ele>14.5</ele><time>2022-11-16T15:27:20Z</time><name>PT9796</name></trkpt>
<trkpt lat="51.596591" lon="03.748972"><ele>14.3</ele><time>2022-11-16T15:27:21Z</time><name>PT9797</name></trkpt>
<trkpt lat="51.596585" lon="03.748978"><ele>14.4</ele><time>2022-11-16T15:27:22Z</time><name>PT9798</name></trkpt>
<trkpt lat="51.596580" lon="03.748985"><ele>14.4</ele><time>2022-11-16T15:27:23Z</time><name>PT9799</name></trkpt>
<trkpt lat="51.596576" lon="03.748993"><ele>14</ele><time>2022-11-16T15:27:24Z</time><name>PT9800</name></trkpt>
<trkpt lat="51.596573" lon="03.748996"><ele>13.9</ele><time>2022-11-16T15:27:25Z</time><name>PT9801</name></trkpt>
<trkpt lat="51.596570" lon="03.748998"><ele>13.6</ele><time>2022-11-16T15:27:26Z</time><name>PT9802</name></trkpt>
<trkpt lat="51.596568" lon="03.749002"><ele>13.6</ele><time>2022-11-16T15:27:27Z</time><name>PT9803</name></trkpt>
<trkpt lat="51.596566" lon="03.749006"><ele>13.7</ele><time>2022-11-16T15:27:28Z</time><name>PT9804</name></trkpt>
<trkpt lat="51.596560" lon="03.749006"><ele>13.6</ele><time>2022-11-16T15:27:31Z</time><name>PT9805</name></trkpt>
<trkpt lat="51.596557" lon="03.749010"><ele>13.2</ele><time>2022-11-16T15:27:32Z</time><name>PT9806</name></trkpt>
<trkpt lat="51.596553" lon="03.749015"><ele>13.1</ele><time>2022-11-16T15:27:33Z</time><name>PT9807</name></trkpt>
<trkpt lat="51.596549" lon="03.749021"><ele>13.1</ele><time>2022-11-16T15:27:34Z</time><name>PT9808</name></trkpt>
<trkpt lat="51.596546" lon="03.749026"><ele>12.9</ele><time>2022-11-16T15:27:35Z</time><name>PT9809</name></trkpt>
<trkpt lat="51.596544" lon="03.749032"><ele>12.7</ele><time>2022-11-16T15:27:36Z</time><name>PT9810</name></trkpt>
<trkpt lat="51.596540" lon="03.749037"><ele>12.6</ele><time>2022-11-16T15:27:37Z</time><name>PT9811</name></trkpt>
<trkpt lat="51.596537" lon="03.749040"><ele>12.7</ele><time>2022-11-16T15:27:38Z</time><name>PT9812</name></trkpt>
<trkpt lat="51.596534" lon="03.749044"><ele>12.5</ele><time>2022-11-16T15:27:39Z</time><name>PT9813</name></trkpt>
<trkpt lat="51.596533" lon="03.749047"><ele>12.3</ele><time>2022-11-16T15:27:40Z</time><name>PT9814</name></trkpt>
<trkpt lat="51.596530" lon="03.749052"><ele>12.5</ele><time>2022-11-16T15:27:41Z</time><name>PT9815</name></trkpt>
<trkpt lat="51.596527" lon="03.749056"><ele>12.3</ele><time>2022-11-16T15:27:42Z</time><name>PT9816</name></trkpt>
<trkpt lat="51.596523" lon="03.749060"><ele>12.3</ele><time>2022-11-16T15:27:43Z</time><name>PT9817</name></trkpt>
<trkpt lat="51.596519" lon="03.749064"><ele>12.5</ele><time>2022-11-16T15:27:44Z</time><name>PT9818</name></trkpt>
<trkpt lat="51.596517" lon="03.749067"><ele>12.5</ele><time>2022-11-16T15:27:45Z</time><name>PT9819</name></trkpt>
<trkpt lat="51.596515" lon="03.749070"><ele>12.5</ele><time>2022-11-16T15:27:46Z</time><name>PT9820</name></trkpt>
<trkpt lat="51.596510" lon="03.749071"><ele>10.9</ele><time>2022-11-16T15:28:03Z</time><name>PT9821</name></trkpt>
<trkpt lat="51.596504" lon="03.749075"><ele>10.8</ele><time>2022-11-16T15:28:04Z</time><name>PT9822</name></trkpt>
<trkpt lat="51.596498" lon="03.749084"><ele>10.8</ele><time>2022-11-16T15:28:05Z</time><name>PT9823</name></trkpt>
<trkpt lat="51.596494" lon="03.749089"><ele>10.9</ele><time>2022-11-16T15:28:06Z</time><name>PT9824</name></trkpt>
<trkpt lat="51.596488" lon="03.749096"><ele>10.9</ele><time>2022-11-16T15:28:07Z</time><name>PT9825</name></trkpt>
<trkpt lat="51.596478" lon="03.749109"><ele>10.8</ele><time>2022-11-16T15:28:08Z</time><name>PT9826</name></trkpt>
<trkpt lat="51.596469" lon="03.749122"><ele>10.7</ele><time>2022-11-16T15:28:09Z</time><name>PT9827</name></trkpt>
<trkpt lat="51.596463" lon="03.749134"><ele>10.8</ele><time>2022-11-16T15:28:10Z</time><name>PT9828</name></trkpt>
<trkpt lat="51.596455" lon="03.749147"><ele>10.8</ele><time>2022-11-16T15:28:11Z</time><name>PT9829</name></trkpt>
<trkpt lat="51.596446" lon="03.749167"><ele>10.8</ele><time>2022-11-16T15:28:12Z</time><name>PT9830</name></trkpt>
<trkpt lat="51.596437" lon="03.749185"><ele>10.9</ele><time>2022-11-16T15:28:13Z</time><name>PT9831</name></trkpt>
<trkpt lat="51.596431" lon="03.749200"><ele>10.5</ele><time>2022-11-16T15:28:14Z</time><name>PT9832</name></trkpt>
<trkpt lat="51.596424" lon="03.749214"><ele>10.4</ele><time>2022-11-16T15:28:15Z</time><name>PT9833</name></trkpt>
<trkpt lat="51.596416" lon="03.749227"><ele>10.6</ele><time>2022-11-16T15:28:16Z</time><name>PT9834</name></trkpt>
<trkpt lat="51.596408" lon="03.749240"><ele>10.4</ele><time>2022-11-16T15:28:17Z</time><name>PT9835</name></trkpt>
<trkpt lat="51.596403" lon="03.749252"><ele>10.5</ele><time>2022-11-16T15:28:18Z</time><name>PT9836</name></trkpt>
<trkpt lat="51.596397" lon="03.749265"><ele>10.6</ele><time>2022-11-16T15:28:19Z</time><name>PT9837</name></trkpt>
<trkpt lat="51.596388" lon="03.749274"><ele>10.6</ele><time>2022-11-16T15:28:20Z</time><name>PT9838</name></trkpt>
<trkpt lat="51.596379" lon="03.749281"><ele>10.4</ele><time>2022-11-16T15:28:21Z</time><name>PT9839</name></trkpt>
<trkpt lat="51.596369" lon="03.749288"><ele>10.4</ele><time>2022-11-16T15:28:22Z</time><name>PT9840</name></trkpt>
<trkpt lat="51.596359" lon="03.749295"><ele>10.4</ele><time>2022-11-16T15:28:23Z</time><name>PT9841</name></trkpt>
<trkpt lat="51.596349" lon="03.749300"><ele>10.4</ele><time>2022-11-16T15:28:24Z</time><name>PT9842</name></trkpt>
<trkpt lat="51.596340" lon="03.749304"><ele>10.3</ele><time>2022-11-16T15:28:25Z</time><name>PT9843</name></trkpt>
<trkpt lat="51.596331" lon="03.749307"><ele>10.5</ele><time>2022-11-16T15:28:26Z</time><name>PT9844</name></trkpt>
<trkpt lat="51.596320" lon="03.749312"><ele>10.5</ele><time>2022-11-16T15:28:27Z</time><name>PT9845</name></trkpt>
<trkpt lat="51.596309" lon="03.749315"><ele>10.6</ele><time>2022-11-16T15:28:28Z</time><name>PT9846</name></trkpt>
<trkpt lat="51.596299" lon="03.749316"><ele>10.5</ele><time>2022-11-16T15:28:29Z</time><name>PT9847</name></trkpt>
<trkpt lat="51.596290" lon="03.749318"><ele>10.4</ele><time>2022-11-16T15:28:30Z</time><name>PT9848</name></trkpt>
<trkpt lat="51.596281" lon="03.749319"><ele>10.4</ele><time>2022-11-16T15:28:31Z</time><name>PT9849</name></trkpt>
<trkpt lat="51.596271" lon="03.749321"><ele>10.4</ele><time>2022-11-16T15:28:32Z</time><name>PT9850</name></trkpt>
<trkpt lat="51.596261" lon="03.749324"><ele>10.2</ele><time>2022-11-16T15:28:33Z</time><name>PT9851</name></trkpt>
<trkpt lat="51.596251" lon="03.749329"><ele>10.2</ele><time>2022-11-16T15:28:34Z</time><name>PT9852</name></trkpt>
<trkpt lat="51.596241" lon="03.749334"><ele>10.2</ele><time>2022-11-16T15:28:35Z</time><name>PT9853</name></trkpt>
<trkpt lat="51.596231" lon="03.749340"><ele>10.1</ele><time>2022-11-16T15:28:36Z</time><name>PT9854</name></trkpt>
<trkpt lat="51.596223" lon="03.749345"><ele>10</ele><time>2022-11-16T15:28:37Z</time><name>PT9855</name></trkpt>
<trkpt lat="51.596213" lon="03.749350"><ele>10.1</ele><time>2022-11-16T15:28:38Z</time><name>PT9856</name></trkpt>
<trkpt lat="51.596203" lon="03.749354"><ele>10.1</ele><time>2022-11-16T15:28:39Z</time><name>PT9857</name></trkpt>
<trkpt lat="51.596194" lon="03.749357"><ele>10.2</ele><time>2022-11-16T15:28:40Z</time><name>PT9858</name></trkpt>
<trkpt lat="51.596185" lon="03.749361"><ele>10.2</ele><time>2022-11-16T15:28:41Z</time><name>PT9859</name></trkpt>
<trkpt lat="51.596175" lon="03.749364"><ele>10.3</ele><time>2022-11-16T15:28:42Z</time><name>PT9860</name></trkpt>
<trkpt lat="51.596164" lon="03.749369"><ele>10.2</ele><time>2022-11-16T15:28:43Z</time><name>PT9861</name></trkpt>
<trkpt lat="51.596153" lon="03.749373"><ele>10.3</ele><time>2022-11-16T15:28:44Z</time><name>PT9862</name></trkpt>
<trkpt lat="51.596143" lon="03.749378"><ele>10.2</ele><time>2022-11-16T15:28:45Z</time><name>PT9863</name></trkpt>
<trkpt lat="51.596133" lon="03.749384"><ele>10.1</ele><time>2022-11-16T15:28:46Z</time><name>PT9864</name></trkpt>
<trkpt lat="51.596122" lon="03.749391"><ele>10.1</ele><time>2022-11-16T15:28:47Z</time><name>PT9865</name></trkpt>
<trkpt lat="51.596111" lon="03.749397"><ele>10.2</ele><time>2022-11-16T15:28:48Z</time><name>PT9866</name></trkpt>
<trkpt lat="51.596101" lon="03.749400"><ele>10.2</ele><time>2022-11-16T15:28:49Z</time><name>PT9867</name></trkpt>
<trkpt lat="51.596090" lon="03.749405"><ele>10.3</ele><time>2022-11-16T15:28:50Z</time><name>PT9868</name></trkpt>
<trkpt lat="51.596081" lon="03.749411"><ele>10.4</ele><time>2022-11-16T15:28:51Z</time><name>PT9869</name></trkpt>
<trkpt lat="51.596072" lon="03.749417"><ele>10.4</ele><time>2022-11-16T15:28:52Z</time><name>PT9870</name></trkpt>
<trkpt lat="51.596063" lon="03.749423"><ele>10.3</ele><time>2022-11-16T15:28:53Z</time><name>PT9871</name></trkpt>
<trkpt lat="51.596053" lon="03.749430"><ele>10.2</ele><time>2022-11-16T15:28:54Z</time><name>PT9872</name></trkpt>
<trkpt lat="51.596043" lon="03.749438"><ele>10.1</ele><time>2022-11-16T15:28:55Z</time><name>PT9873</name></trkpt>
<trkpt lat="51.596033" lon="03.749446"><ele>10</ele><time>2022-11-16T15:28:56Z</time><name>PT9874</name></trkpt>
<trkpt lat="51.596023" lon="03.749453"><ele>9.9</ele><time>2022-11-16T15:28:57Z</time><name>PT9875</name></trkpt>
<trkpt lat="51.596013" lon="03.749461"><ele>9.9</ele><time>2022-11-16T15:28:58Z</time><name>PT9876</name></trkpt>
<trkpt lat="51.596002" lon="03.749468"><ele>9.9</ele><time>2022-11-16T15:28:59Z</time><name>PT9877</name></trkpt>
<trkpt lat="51.595992" lon="03.749474"><ele>9.9</ele><time>2022-11-16T15:29:00Z</time><name>PT9878</name></trkpt>
<trkpt lat="51.595981" lon="03.749480"><ele>9.9</ele><time>2022-11-16T15:29:01Z</time><name>PT9879</name></trkpt>
<trkpt lat="51.595970" lon="03.749487"><ele>10</ele><time>2022-11-16T15:29:02Z</time><name>PT9880</name></trkpt>
<trkpt lat="51.595959" lon="03.749494"><ele>10.1</ele><time>2022-11-16T15:29:03Z</time><name>PT9881</name></trkpt>
<trkpt lat="51.595950" lon="03.749501"><ele>10.3</ele><time>2022-11-16T15:29:04Z</time><name>PT9882</name></trkpt>
<trkpt lat="51.595940" lon="03.749508"><ele>10.4</ele><time>2022-11-16T15:29:05Z</time><name>PT9883</name></trkpt>
<trkpt lat="51.595930" lon="03.749515"><ele>10.3</ele><time>2022-11-16T15:29:06Z</time><name>PT9884</name></trkpt>
<trkpt lat="51.595920" lon="03.749522"><ele>10.4</ele><time>2022-11-16T15:29:07Z</time><name>PT9885</name></trkpt>
<trkpt lat="51.595910" lon="03.749531"><ele>10.2</ele><time>2022-11-16T15:29:08Z</time><name>PT9886</name></trkpt>
<trkpt lat="51.595900" lon="03.749539"><ele>10.1</ele><time>2022-11-16T15:29:09Z</time><name>PT9887</name></trkpt>
<trkpt lat="51.595889" lon="03.749546"><ele>10.3</ele><time>2022-11-16T15:29:10Z</time><name>PT9888</name></trkpt>
<trkpt lat="51.595878" lon="03.749553"><ele>10.4</ele><time>2022-11-16T15:29:11Z</time><name>PT9889</name></trkpt>
<trkpt lat="51.595868" lon="03.749562"><ele>10.6</ele><time>2022-11-16T15:29:12Z</time><name>PT9890</name></trkpt>
<trkpt lat="51.595857" lon="03.749570"><ele>10.6</ele><time>2022-11-16T15:29:13Z</time><name>PT9891</name></trkpt>
<trkpt lat="51.595846" lon="03.749578"><ele>10.5</ele><time>2022-11-16T15:29:14Z</time><name>PT9892</name></trkpt>
<trkpt lat="51.595835" lon="03.749587"><ele>10.5</ele><time>2022-11-16T15:29:15Z</time><name>PT9893</name></trkpt>
<trkpt lat="51.595824" lon="03.749596"><ele>10.4</ele><time>2022-11-16T15:29:16Z</time><name>PT9894</name></trkpt>
<trkpt lat="51.595812" lon="03.749602"><ele>10.4</ele><time>2022-11-16T15:29:17Z</time><name>PT9895</name></trkpt>
<trkpt lat="51.595802" lon="03.749608"><ele>10.5</ele><time>2022-11-16T15:29:18Z</time><name>PT9896</name></trkpt>
<trkpt lat="51.595792" lon="03.749612"><ele>10.4</ele><time>2022-11-16T15:29:19Z</time><name>PT9897</name></trkpt>
<trkpt lat="51.595782" lon="03.749616"><ele>10.4</ele><time>2022-11-16T15:29:20Z</time><name>PT9898</name></trkpt>
<trkpt lat="51.595772" lon="03.749623"><ele>10.4</ele><time>2022-11-16T15:29:21Z</time><name>PT9899</name></trkpt>
<trkpt lat="51.595763" lon="03.749631"><ele>10.4</ele><time>2022-11-16T15:29:22Z</time><name>PT9900</name></trkpt>
<trkpt lat="51.595753" lon="03.749641"><ele>10.3</ele><time>2022-11-16T15:29:23Z</time><name>PT9901</name></trkpt>
<trkpt lat="51.595743" lon="03.749650"><ele>10.3</ele><time>2022-11-16T15:29:24Z</time><name>PT9902</name></trkpt>
<trkpt lat="51.595732" lon="03.749659"><ele>10.1</ele><time>2022-11-16T15:29:25Z</time><name>PT9903</name></trkpt>
<trkpt lat="51.595720" lon="03.749667"><ele>10</ele><time>2022-11-16T15:29:26Z</time><name>PT9904</name></trkpt>
<trkpt lat="51.595708" lon="03.749674"><ele>10.1</ele><time>2022-11-16T15:29:27Z</time><name>PT9905</name></trkpt>
<trkpt lat="51.595697" lon="03.749681"><ele>10.1</ele><time>2022-11-16T15:29:28Z</time><name>PT9906</name></trkpt>
<trkpt lat="51.595686" lon="03.749687"><ele>10.2</ele><time>2022-11-16T15:29:29Z</time><name>PT9907</name></trkpt>
<trkpt lat="51.595676" lon="03.749693"><ele>10.2</ele><time>2022-11-16T15:29:30Z</time><name>PT9908</name></trkpt>
<trkpt lat="51.595666" lon="03.749699"><ele>10.2</ele><time>2022-11-16T15:29:31Z</time><name>PT9909</name></trkpt>
<trkpt lat="51.595657" lon="03.749705"><ele>10.1</ele><time>2022-11-16T15:29:32Z</time><name>PT9910</name></trkpt>
<trkpt lat="51.595649" lon="03.749712"><ele>10.2</ele><time>2022-11-16T15:29:33Z</time><name>PT9911</name></trkpt>
<trkpt lat="51.595640" lon="03.749720"><ele>10.2</ele><time>2022-11-16T15:29:34Z</time><name>PT9912</name></trkpt>
<trkpt lat="51.595630" lon="03.749728"><ele>10.3</ele><time>2022-11-16T15:29:35Z</time><name>PT9913</name></trkpt>
<trkpt lat="51.595620" lon="03.749735"><ele>10.2</ele><time>2022-11-16T15:29:36Z</time><name>PT9914</name></trkpt>
<trkpt lat="51.595609" lon="03.749744"><ele>10.2</ele><time>2022-11-16T15:29:37Z</time><name>PT9915</name></trkpt>
<trkpt lat="51.595599" lon="03.749752"><ele>10.1</ele><time>2022-11-16T15:29:38Z</time><name>PT9916</name></trkpt>
<trkpt lat="51.595588" lon="03.749761"><ele>10.3</ele><time>2022-11-16T15:29:39Z</time><name>PT9917</name></trkpt>
<trkpt lat="51.595579" lon="03.749767"><ele>10.2</ele><time>2022-11-16T15:29:40Z</time><name>PT9918</name></trkpt>
<trkpt lat="51.595574" lon="03.749775"><ele>10.3</ele><time>2022-11-16T15:29:41Z</time><name>PT9919</name></trkpt>
<trkpt lat="51.595568" lon="03.749782"><ele>10.3</ele><time>2022-11-16T15:29:42Z</time><name>PT9920</name></trkpt>
<trkpt lat="51.595560" lon="03.749789"><ele>10.3</ele><time>2022-11-16T15:29:43Z</time><name>PT9921</name></trkpt>
<trkpt lat="51.595550" lon="03.749795"><ele>10.3</ele><time>2022-11-16T15:29:44Z</time><name>PT9922</name></trkpt>
<trkpt lat="51.595540" lon="03.749801"><ele>10.3</ele><time>2022-11-16T15:29:45Z</time><name>PT9923</name></trkpt>
<trkpt lat="51.595531" lon="03.749809"><ele>10.3</ele><time>2022-11-16T15:29:46Z</time><name>PT9924</name></trkpt>
<trkpt lat="51.595522" lon="03.749816"><ele>10.4</ele><time>2022-11-16T15:29:47Z</time><name>PT9925</name></trkpt>
<trkpt lat="51.595512" lon="03.749821"><ele>10.2</ele><time>2022-11-16T15:29:48Z</time><name>PT9926</name></trkpt>
<trkpt lat="51.595503" lon="03.749826"><ele>10</ele><time>2022-11-16T15:29:49Z</time><name>PT9927</name></trkpt>
<trkpt lat="51.595494" lon="03.749834"><ele>9.9</ele><time>2022-11-16T15:29:50Z</time><name>PT9928</name></trkpt>
<trkpt lat="51.595484" lon="03.749841"><ele>10</ele><time>2022-11-16T15:29:51Z</time><name>PT9929</name></trkpt>
<trkpt lat="51.595474" lon="03.749848"><ele>10</ele><time>2022-11-16T15:29:52Z</time><name>PT9930</name></trkpt>
<trkpt lat="51.595464" lon="03.749854"><ele>10.1</ele><time>2022-11-16T15:29:53Z</time><name>PT9931</name></trkpt>
<trkpt lat="51.595454" lon="03.749861"><ele>10.3</ele><time>2022-11-16T15:29:54Z</time><name>PT9932</name></trkpt>
<trkpt lat="51.595445" lon="03.749867"><ele>10.4</ele><time>2022-11-16T15:29:55Z</time><name>PT9933</name></trkpt>
<trkpt lat="51.595434" lon="03.749873"><ele>10.5</ele><time>2022-11-16T15:29:56Z</time><name>PT9934</name></trkpt>
<trkpt lat="51.595425" lon="03.749878"><ele>10.7</ele><time>2022-11-16T15:29:57Z</time><name>PT9935</name></trkpt>
<trkpt lat="51.595414" lon="03.749884"><ele>10.8</ele><time>2022-11-16T15:29:58Z</time><name>PT9936</name></trkpt>
<trkpt lat="51.595404" lon="03.749891"><ele>10.9</ele><time>2022-11-16T15:29:59Z</time><name>PT9937</name></trkpt>
<trkpt lat="51.595394" lon="03.749898"><ele>10.8</ele><time>2022-11-16T15:30:00Z</time><name>PT9938</name></trkpt>
<trkpt lat="51.595385" lon="03.749904"><ele>10.5</ele><time>2022-11-16T15:30:01Z</time><name>PT9939</name></trkpt>
<trkpt lat="51.595376" lon="03.749909"><ele>10.5</ele><time>2022-11-16T15:30:02Z</time><name>PT9940</name></trkpt>
<trkpt lat="51.595366" lon="03.749916"><ele>10.6</ele><time>2022-11-16T15:30:03Z</time><name>PT9941</name></trkpt>
<trkpt lat="51.595356" lon="03.749924"><ele>10.4</ele><time>2022-11-16T15:30:04Z</time><name>PT9942</name></trkpt>
<trkpt lat="51.595347" lon="03.749932"><ele>10.7</ele><time>2022-11-16T15:30:05Z</time><name>PT9943</name></trkpt>
<trkpt lat="51.595337" lon="03.749939"><ele>11</ele><time>2022-11-16T15:30:06Z</time><name>PT9944</name></trkpt>
<trkpt lat="51.595328" lon="03.749947"><ele>11</ele><time>2022-11-16T15:30:07Z</time><name>PT9945</name></trkpt>
<trkpt lat="51.595319" lon="03.749955"><ele>10.8</ele><time>2022-11-16T15:30:08Z</time><name>PT9946</name></trkpt>
<trkpt lat="51.595310" lon="03.749962"><ele>10.8</ele><time>2022-11-16T15:30:09Z</time><name>PT9947</name></trkpt>
<trkpt lat="51.595301" lon="03.749966"><ele>10.7</ele><time>2022-11-16T15:30:10Z</time><name>PT9948</name></trkpt>
<trkpt lat="51.595291" lon="03.749970"><ele>10.7</ele><time>2022-11-16T15:30:11Z</time><name>PT9949</name></trkpt>
<trkpt lat="51.595282" lon="03.749973"><ele>10.6</ele><time>2022-11-16T15:30:12Z</time><name>PT9950</name></trkpt>
<trkpt lat="51.595274" lon="03.749976"><ele>10.7</ele><time>2022-11-16T15:30:13Z</time><name>PT9951</name></trkpt>
<trkpt lat="51.595266" lon="03.749981"><ele>10.7</ele><time>2022-11-16T15:30:14Z</time><name>PT9952</name></trkpt>
<trkpt lat="51.595257" lon="03.749989"><ele>10.7</ele><time>2022-11-16T15:30:15Z</time><name>PT9953</name></trkpt>
<trkpt lat="51.595248" lon="03.749999"><ele>10.8</ele><time>2022-11-16T15:30:16Z</time><name>PT9954</name></trkpt>
<trkpt lat="51.595239" lon="03.750007"><ele>10.8</ele><time>2022-11-16T15:30:17Z</time><name>PT9955</name></trkpt>
<trkpt lat="51.595229" lon="03.750014"><ele>10.8</ele><time>2022-11-16T15:30:18Z</time><name>PT9956</name></trkpt>
<trkpt lat="51.595219" lon="03.750020"><ele>10.9</ele><time>2022-11-16T15:30:19Z</time><name>PT9957</name></trkpt>
<trkpt lat="51.595210" lon="03.750027"><ele>10.9</ele><time>2022-11-16T15:30:20Z</time><name>PT9958</name></trkpt>
<trkpt lat="51.595202" lon="03.750034"><ele>10.9</ele><time>2022-11-16T15:30:21Z</time><name>PT9959</name></trkpt>
<trkpt lat="51.595197" lon="03.750038"><ele>10.8</ele><time>2022-11-16T15:30:22Z</time><name>PT9960</name></trkpt>
<trkpt lat="51.595196" lon="03.750038"><ele>10.8</ele><time>2022-11-16T15:30:23Z</time><name>PT9961</name></trkpt>
<trkpt lat="51.595196" lon="03.750039"><ele>10.7</ele><time>2022-11-16T15:30:24Z</time><name>PT9962</name></trkpt>
<trkpt lat="51.595196" lon="03.750039"><ele>10.6</ele><time>2022-11-16T15:30:25Z</time><name>PT9963</name></trkpt>
<trkpt lat="51.595194" lon="03.750044"><ele>11</ele><time>2022-11-16T15:30:39Z</time><name>PT9964</name></trkpt>
<trkpt lat="51.595185" lon="03.750050"><ele>10.9</ele><time>2022-11-16T15:30:40Z</time><name>PT9965</name></trkpt>
<trkpt lat="51.595175" lon="03.750056"><ele>10.8</ele><time>2022-11-16T15:30:41Z</time><name>PT9966</name></trkpt>
<trkpt lat="51.595166" lon="03.750063"><ele>10.8</ele><time>2022-11-16T15:30:42Z</time><name>PT9967</name></trkpt>
<trkpt lat="51.595156" lon="03.750069"><ele>10.6</ele><time>2022-11-16T15:30:43Z</time><name>PT9968</name></trkpt>
<trkpt lat="51.595146" lon="03.750073"><ele>10.5</ele><time>2022-11-16T15:30:44Z</time><name>PT9969</name></trkpt>
<trkpt lat="51.595137" lon="03.750079"><ele>10.4</ele><time>2022-11-16T15:30:45Z</time><name>PT9970</name></trkpt>
<trkpt lat="51.595129" lon="03.750085"><ele>10.4</ele><time>2022-11-16T15:30:46Z</time><name>PT9971</name></trkpt>
<trkpt lat="51.595119" lon="03.750091"><ele>10.4</ele><time>2022-11-16T15:30:47Z</time><name>PT9972</name></trkpt>
<trkpt lat="51.595110" lon="03.750096"><ele>10.5</ele><time>2022-11-16T15:30:48Z</time><name>PT9973</name></trkpt>
<trkpt lat="51.595101" lon="03.750101"><ele>10.6</ele><time>2022-11-16T15:30:49Z</time><name>PT9974</name></trkpt>
<trkpt lat="51.595093" lon="03.750106"><ele>10.7</ele><time>2022-11-16T15:30:50Z</time><name>PT9975</name></trkpt>
<trkpt lat="51.595086" lon="03.750116"><ele>10.6</ele><time>2022-11-16T15:30:51Z</time><name>PT9976</name></trkpt>
<trkpt lat="51.595078" lon="03.750120"><ele>10.6</ele><time>2022-11-16T15:30:52Z</time><name>PT9977</name></trkpt>
<trkpt lat="51.595071" lon="03.750123"><ele>10.6</ele><time>2022-11-16T15:30:53Z</time><name>PT9978</name></trkpt>
<trkpt lat="51.595064" lon="03.750122"><ele>10.6</ele><time>2022-11-16T15:30:54Z</time><name>PT9979</name></trkpt>
<trkpt lat="51.595059" lon="03.750124"><ele>10.8</ele><time>2022-11-16T15:30:55Z</time><name>PT9980</name></trkpt>
<trkpt lat="51.595058" lon="03.750125"><ele>11.1</ele><time>2022-11-16T15:30:56Z</time><name>PT9981</name></trkpt>
<trkpt lat="51.595053" lon="03.750127"><ele>11.1</ele><time>2022-11-16T15:30:57Z</time><name>PT9982</name></trkpt>
<trkpt lat="51.595046" lon="03.750131"><ele>11</ele><time>2022-11-16T15:30:58Z</time><name>PT9983</name></trkpt>
<trkpt lat="51.595038" lon="03.750137"><ele>11.1</ele><time>2022-11-16T15:30:59Z</time><name>PT9984</name></trkpt>
<trkpt lat="51.595030" lon="03.750145"><ele>10.8</ele><time>2022-11-16T15:31:00Z</time><name>PT9985</name></trkpt>
<trkpt lat="51.595023" lon="03.750154"><ele>10.8</ele><time>2022-11-16T15:31:01Z</time><name>PT9986</name></trkpt>
<trkpt lat="51.595013" lon="03.750162"><ele>10.7</ele><time>2022-11-16T15:31:02Z</time><name>PT9987</name></trkpt>
<trkpt lat="51.595002" lon="03.750170"><ele>10.6</ele><time>2022-11-16T15:31:03Z</time><name>PT9988</name></trkpt>
<trkpt lat="51.594990" lon="03.750176"><ele>10.6</ele><time>2022-11-16T15:31:04Z</time><name>PT9989</name></trkpt>
<trkpt lat="51.594979" lon="03.750180"><ele>10.8</ele><time>2022-11-16T15:31:05Z</time><name>PT9990</name></trkpt>
<trkpt lat="51.594968" lon="03.750187"><ele>10.7</ele><time>2022-11-16T15:31:06Z</time><name>PT9991</name></trkpt>
<trkpt lat="51.594958" lon="03.750193"><ele>10.8</ele><time>2022-11-16T15:31:07Z</time><name>PT9992</name></trkpt>
<trkpt lat="51.594947" lon="03.750200"><ele>10.9</ele><time>2022-11-16T15:31:08Z</time><name>PT9993</name></trkpt>
<trkpt lat="51.594937" lon="03.750208"><ele>10.7</ele><time>2022-11-16T15:31:09Z</time><name>PT9994</name></trkpt>
<trkpt lat="51.594931" lon="03.750214"><ele>10.7</ele><time>2022-11-16T15:31:10Z</time><name>PT9995</name></trkpt>
<trkpt lat="51.594921" lon="03.750221"><ele>10.8</ele><time>2022-11-16T15:31:11Z</time><name>PT9996</name></trkpt>
<trkpt lat="51.594907" lon="03.750230"><ele>10.9</ele><time>2022-11-16T15:31:12Z</time><name>PT9997</name></trkpt>
<trkpt lat="51.594895" lon="03.750238"><ele>10.8</ele><time>2022-11-16T15:31:13Z</time><name>PT9998</name></trkpt>
<trkpt lat="51.594885" lon="03.750246"><ele>11</ele><time>2022-11-16T15:31:14Z</time><name>PT9999</name></trkpt>
<trkpt lat="51.594878" lon="03.750253"><ele>10.9</ele><time>2022-11-16T15:31:15Z</time><name>PT10000</name></trkpt>
<trkpt lat="51.594873" lon="03.750257"><ele>11</ele><time>2022-11-16T15:31:16Z</time><name>PT10001</name></trkpt>
<trkpt lat="51.594872" lon="03.750257"><ele>11</ele><time>2022-11-16T15:31:17Z</time><name>PT10002</name></trkpt>
<trkpt lat="51.594870" lon="03.750261"><ele>11</ele><time>2022-11-16T15:31:18Z</time><name>PT10003</name></trkpt>
<trkpt lat="51.594866" lon="03.750272"><ele>10.9</ele><time>2022-11-16T15:31:19Z</time><name>PT10004</name></trkpt>
<trkpt lat="51.594861" lon="03.750281"><ele>11</ele><time>2022-11-16T15:31:20Z</time><name>PT10005</name></trkpt>
<trkpt lat="51.594857" lon="03.750289"><ele>10.9</ele><time>2022-11-16T15:31:21Z</time><name>PT10006</name></trkpt>
<trkpt lat="51.594851" lon="03.750297"><ele>10.9</ele><time>2022-11-16T15:31:22Z</time><name>PT10007</name></trkpt>
<trkpt lat="51.594847" lon="03.750302"><ele>10.9</ele><time>2022-11-16T15:31:23Z</time><name>PT10008</name></trkpt>
<trkpt lat="51.594844" lon="03.750304"><ele>10.8</ele><time>2022-11-16T15:31:24Z</time><name>PT10009</name></trkpt>
<trkpt lat="51.594842" lon="03.750304"><ele>10.8</ele><time>2022-11-16T15:31:25Z</time><name>PT10010</name></trkpt>
<trkpt lat="51.594841" lon="03.750305"><ele>10.8</ele><time>2022-11-16T15:31:26Z</time><name>PT10011</name></trkpt>
<trkpt lat="51.594841" lon="03.750305"><ele>10.7</ele><time>2022-11-16T15:31:27Z</time><name>PT10012</name></trkpt>
<trkpt lat="51.594839" lon="03.750309"><ele>10.8</ele><time>2022-11-16T15:32:13Z</time><name>PT10013</name></trkpt>
<trkpt lat="51.594835" lon="03.750315"><ele>10.8</ele><time>2022-11-16T15:32:14Z</time><name>PT10014</name></trkpt>
<trkpt lat="51.594831" lon="03.750318"><ele>11</ele><time>2022-11-16T15:32:15Z</time><name>PT10015</name></trkpt>
<trkpt lat="51.594826" lon="03.750318"><ele>11</ele><time>2022-11-16T15:32:16Z</time><name>PT10016</name></trkpt>
<trkpt lat="51.594814" lon="03.750324"><ele>11</ele><time>2022-11-16T15:32:17Z</time><name>PT10017</name></trkpt>
<trkpt lat="51.594805" lon="03.750329"><ele>10.7</ele><time>2022-11-16T15:32:18Z</time><name>PT10018</name></trkpt>
<trkpt lat="51.594792" lon="03.750338"><ele>10.8</ele><time>2022-11-16T15:32:19Z</time><name>PT10019</name></trkpt>
<trkpt lat="51.594786" lon="03.750343"><ele>10.7</ele><time>2022-11-16T15:32:20Z</time><name>PT10020</name></trkpt>
<trkpt lat="51.594783" lon="03.750342"><ele>10.9</ele><time>2022-11-16T15:32:21Z</time><name>PT10021</name></trkpt>
<trkpt lat="51.594781" lon="03.750340"><ele>10.9</ele><time>2022-11-16T15:32:22Z</time><name>PT10022</name></trkpt>
<trkpt lat="51.594783" lon="03.750339"><ele>11</ele><time>2022-11-16T15:32:23Z</time><name>PT10023</name></trkpt>
<trkpt lat="51.594784" lon="03.750336"><ele>10.9</ele><time>2022-11-16T15:32:24Z</time><name>PT10024</name></trkpt>
<trkpt lat="51.594786" lon="03.750333"><ele>10.8</ele><time>2022-11-16T15:32:25Z</time><name>PT10025</name></trkpt>
<trkpt lat="51.594790" lon="03.750336"><ele>11.1</ele><time>2022-11-16T15:32:42Z</time><name>PT10026</name></trkpt>
<trkpt lat="51.594792" lon="03.750337"><ele>11</ele><time>2022-11-16T15:32:43Z</time><name>PT10027</name></trkpt>
<trkpt lat="51.594792" lon="03.750338"><ele>11</ele><time>2022-11-16T15:32:44Z</time><name>PT10028</name></trkpt>
<trkpt lat="51.594789" lon="03.750339"><ele>11</ele><time>2022-11-16T15:32:46Z</time><name>PT10029</name></trkpt>
<trkpt lat="51.594781" lon="03.750347"><ele>11</ele><time>2022-11-16T15:32:47Z</time><name>PT10030</name></trkpt>
<trkpt lat="51.594772" lon="03.750354"><ele>11.1</ele><time>2022-11-16T15:32:48Z</time><name>PT10031</name></trkpt>
<trkpt lat="51.594762" lon="03.750361"><ele>11</ele><time>2022-11-16T15:32:49Z</time><name>PT10032</name></trkpt>
<trkpt lat="51.594752" lon="03.750363"><ele>11.1</ele><time>2022-11-16T15:32:50Z</time><name>PT10033</name></trkpt>
<trkpt lat="51.594742" lon="03.750368"><ele>11</ele><time>2022-11-16T15:32:51Z</time><name>PT10034</name></trkpt>
<trkpt lat="51.594737" lon="03.750382"><ele>11</ele><time>2022-11-16T15:32:52Z</time><name>PT10035</name></trkpt>
<trkpt lat="51.594727" lon="03.750391"><ele>10.9</ele><time>2022-11-16T15:32:53Z</time><name>PT10036</name></trkpt>
<trkpt lat="51.594716" lon="03.750398"><ele>11</ele><time>2022-11-16T15:32:54Z</time><name>PT10037</name></trkpt>
<trkpt lat="51.594704" lon="03.750410"><ele>11</ele><time>2022-11-16T15:32:55Z</time><name>PT10038</name></trkpt>
<trkpt lat="51.594695" lon="03.750414"><ele>11.1</ele><time>2022-11-16T15:32:56Z</time><name>PT10039</name></trkpt>
<trkpt lat="51.594685" lon="03.750421"><ele>11.2</ele><time>2022-11-16T15:32:57Z</time><name>PT10040</name></trkpt>
<trkpt lat="51.594674" lon="03.750430"><ele>11.1</ele><time>2022-11-16T15:32:58Z</time><name>PT10041</name></trkpt>
<trkpt lat="51.594666" lon="03.750438"><ele>11</ele><time>2022-11-16T15:32:59Z</time><name>PT10042</name></trkpt>
<trkpt lat="51.594658" lon="03.750447"><ele>10.9</ele><time>2022-11-16T15:33:00Z</time><name>PT10043</name></trkpt>
<trkpt lat="51.594649" lon="03.750454"><ele>10.9</ele><time>2022-11-16T15:33:01Z</time><name>PT10044</name></trkpt>
<trkpt lat="51.594640" lon="03.750461"><ele>10.9</ele><time>2022-11-16T15:33:02Z</time><name>PT10045</name></trkpt>
<trkpt lat="51.594629" lon="03.750466"><ele>10.9</ele><time>2022-11-16T15:33:03Z</time><name>PT10046</name></trkpt>
<trkpt lat="51.594619" lon="03.750468"><ele>11</ele><time>2022-11-16T15:33:04Z</time><name>PT10047</name></trkpt>
<trkpt lat="51.594608" lon="03.750471"><ele>10.7</ele><time>2022-11-16T15:33:05Z</time><name>PT10048</name></trkpt>
<trkpt lat="51.594598" lon="03.750476"><ele>10.6</ele><time>2022-11-16T15:33:06Z</time><name>PT10049</name></trkpt>
<trkpt lat="51.594588" lon="03.750483"><ele>10.5</ele><time>2022-11-16T15:33:07Z</time><name>PT10050</name></trkpt>
<trkpt lat="51.594579" lon="03.750492"><ele>10.5</ele><time>2022-11-16T15:33:08Z</time><name>PT10051</name></trkpt>
<trkpt lat="51.594568" lon="03.750493"><ele>10.6</ele><time>2022-11-16T15:33:09Z</time><name>PT10052</name></trkpt>
<trkpt lat="51.594561" lon="03.750499"><ele>10.6</ele><time>2022-11-16T15:33:10Z</time><name>PT10053</name></trkpt>
<trkpt lat="51.594550" lon="03.750507"><ele>10.6</ele><time>2022-11-16T15:33:11Z</time><name>PT10054</name></trkpt>
<trkpt lat="51.594541" lon="03.750512"><ele>10.8</ele><time>2022-11-16T15:33:12Z</time><name>PT10055</name></trkpt>
<trkpt lat="51.594531" lon="03.750518"><ele>10.9</ele><time>2022-11-16T15:33:13Z</time><name>PT10056</name></trkpt>
<trkpt lat="51.594523" lon="03.750524"><ele>11</ele><time>2022-11-16T15:33:14Z</time><name>PT10057</name></trkpt>
<trkpt lat="51.594515" lon="03.750530"><ele>11</ele><time>2022-11-16T15:33:15Z</time><name>PT10058</name></trkpt>
<trkpt lat="51.594506" lon="03.750539"><ele>10.9</ele><time>2022-11-16T15:33:16Z</time><name>PT10059</name></trkpt>
<trkpt lat="51.594495" lon="03.750545"><ele>10.7</ele><time>2022-11-16T15:33:17Z</time><name>PT10060</name></trkpt>
<trkpt lat="51.594487" lon="03.750553"><ele>10.5</ele><time>2022-11-16T15:33:18Z</time><name>PT10061</name></trkpt>
<trkpt lat="51.594479" lon="03.750563"><ele>10.7</ele><time>2022-11-16T15:33:19Z</time><name>PT10062</name></trkpt>
<trkpt lat="51.594471" lon="03.750570"><ele>10.7</ele><time>2022-11-16T15:33:20Z</time><name>PT10063</name></trkpt>
<trkpt lat="51.594463" lon="03.750576"><ele>10.5</ele><time>2022-11-16T15:33:21Z</time><name>PT10064</name></trkpt>
<trkpt lat="51.594455" lon="03.750582"><ele>10.4</ele><time>2022-11-16T15:33:22Z</time><name>PT10065</name></trkpt>
<trkpt lat="51.594448" lon="03.750586"><ele>10.5</ele><time>2022-11-16T15:33:23Z</time><name>PT10066</name></trkpt>
<trkpt lat="51.594443" lon="03.750590"><ele>10.4</ele><time>2022-11-16T15:33:24Z</time><name>PT10067</name></trkpt>
<trkpt lat="51.594439" lon="03.750594"><ele>10.4</ele><time>2022-11-16T15:33:25Z</time><name>PT10068</name></trkpt>
<trkpt lat="51.594433" lon="03.750598"><ele>10.4</ele><time>2022-11-16T15:33:26Z</time><name>PT10069</name></trkpt>
<trkpt lat="51.594424" lon="03.750601"><ele>10.6</ele><time>2022-11-16T15:33:27Z</time><name>PT10070</name></trkpt>
<trkpt lat="51.594415" lon="03.750607"><ele>10.4</ele><time>2022-11-16T15:33:28Z</time><name>PT10071</name></trkpt>
<trkpt lat="51.594407" lon="03.750608"><ele>10.4</ele><time>2022-11-16T15:33:29Z</time><name>PT10072</name></trkpt>
<trkpt lat="51.594397" lon="03.750612"><ele>10.4</ele><time>2022-11-16T15:33:30Z</time><name>PT10073</name></trkpt>
<trkpt lat="51.594387" lon="03.750615"><ele>10.5</ele><time>2022-11-16T15:33:31Z</time><name>PT10074</name></trkpt>
<trkpt lat="51.594377" lon="03.750622"><ele>10.5</ele><time>2022-11-16T15:33:32Z</time><name>PT10075</name></trkpt>
<trkpt lat="51.594368" lon="03.750632"><ele>10.4</ele><time>2022-11-16T15:33:33Z</time><name>PT10076</name></trkpt>
<trkpt lat="51.594357" lon="03.750641"><ele>10.6</ele><time>2022-11-16T15:33:34Z</time><name>PT10077</name></trkpt>
<trkpt lat="51.594347" lon="03.750649"><ele>10.6</ele><time>2022-11-16T15:33:35Z</time><name>PT10078</name></trkpt>
<trkpt lat="51.594337" lon="03.750656"><ele>10.6</ele><time>2022-11-16T15:33:36Z</time><name>PT10079</name></trkpt>
<trkpt lat="51.594328" lon="03.750664"><ele>10.5</ele><time>2022-11-16T15:33:37Z</time><name>PT10080</name></trkpt>
<trkpt lat="51.594318" lon="03.750670"><ele>10.3</ele><time>2022-11-16T15:33:38Z</time><name>PT10081</name></trkpt>
<trkpt lat="51.594309" lon="03.750676"><ele>10.1</ele><time>2022-11-16T15:33:39Z</time><name>PT10082</name></trkpt>
<trkpt lat="51.594298" lon="03.750684"><ele>10.1</ele><time>2022-11-16T15:33:40Z</time><name>PT10083</name></trkpt>
<trkpt lat="51.594288" lon="03.750692"><ele>10</ele><time>2022-11-16T15:33:41Z</time><name>PT10084</name></trkpt>
<trkpt lat="51.594278" lon="03.750697"><ele>9.9</ele><time>2022-11-16T15:33:42Z</time><name>PT10085</name></trkpt>
<trkpt lat="51.594268" lon="03.750704"><ele>10</ele><time>2022-11-16T15:33:43Z</time><name>PT10086</name></trkpt>
<trkpt lat="51.594259" lon="03.750709"><ele>10</ele><time>2022-11-16T15:33:44Z</time><name>PT10087</name></trkpt>
<trkpt lat="51.594251" lon="03.750714"><ele>10.1</ele><time>2022-11-16T15:33:45Z</time><name>PT10088</name></trkpt>
<trkpt lat="51.594241" lon="03.750720"><ele>10.2</ele><time>2022-11-16T15:33:46Z</time><name>PT10089</name></trkpt>
<trkpt lat="51.594232" lon="03.750727"><ele>10.4</ele><time>2022-11-16T15:33:47Z</time><name>PT10090</name></trkpt>
<trkpt lat="51.594224" lon="03.750736"><ele>10.4</ele><time>2022-11-16T15:33:48Z</time><name>PT10091</name></trkpt>
<trkpt lat="51.594215" lon="03.750744"><ele>10.4</ele><time>2022-11-16T15:33:49Z</time><name>PT10092</name></trkpt>
<trkpt lat="51.594207" lon="03.750749"><ele>10.4</ele><time>2022-11-16T15:33:50Z</time><name>PT10093</name></trkpt>
<trkpt lat="51.594199" lon="03.750755"><ele>10.3</ele><time>2022-11-16T15:33:51Z</time><name>PT10094</name></trkpt>
<trkpt lat="51.594189" lon="03.750760"><ele>10.4</ele><time>2022-11-16T15:33:52Z</time><name>PT10095</name></trkpt>
<trkpt lat="51.594180" lon="03.750766"><ele>10.2</ele><time>2022-11-16T15:33:53Z</time><name>PT10096</name></trkpt>
<trkpt lat="51.594169" lon="03.750771"><ele>10.2</ele><time>2022-11-16T15:33:54Z</time><name>PT10097</name></trkpt>
<trkpt lat="51.594160" lon="03.750778"><ele>10.2</ele><time>2022-11-16T15:33:55Z</time><name>PT10098</name></trkpt>
<trkpt lat="51.594152" lon="03.750785"><ele>10.1</ele><time>2022-11-16T15:33:56Z</time><name>PT10099</name></trkpt>
<trkpt lat="51.594143" lon="03.750793"><ele>9.9</ele><time>2022-11-16T15:33:57Z</time><name>PT10100</name></trkpt>
<trkpt lat="51.594135" lon="03.750800"><ele>9.9</ele><time>2022-11-16T15:33:58Z</time><name>PT10101</name></trkpt>
<trkpt lat="51.594125" lon="03.750809"><ele>9.9</ele><time>2022-11-16T15:33:59Z</time><name>PT10102</name></trkpt>
<trkpt lat="51.594115" lon="03.750815"><ele>9.9</ele><time>2022-11-16T15:34:00Z</time><name>PT10103</name></trkpt>
<trkpt lat="51.594105" lon="03.750818"><ele>10</ele><time>2022-11-16T15:34:01Z</time><name>PT10104</name></trkpt>
<trkpt lat="51.594096" lon="03.750821"><ele>10</ele><time>2022-11-16T15:34:02Z</time><name>PT10105</name></trkpt>
<trkpt lat="51.594087" lon="03.750827"><ele>10.1</ele><time>2022-11-16T15:34:03Z</time><name>PT10106</name></trkpt>
<trkpt lat="51.594078" lon="03.750836"><ele>10.2</ele><time>2022-11-16T15:34:04Z</time><name>PT10107</name></trkpt>
<trkpt lat="51.594068" lon="03.750845"><ele>10.2</ele><time>2022-11-16T15:34:05Z</time><name>PT10108</name></trkpt>
<trkpt lat="51.594060" lon="03.750852"><ele>10.1</ele><time>2022-11-16T15:34:06Z</time><name>PT10109</name></trkpt>
<trkpt lat="51.594050" lon="03.750861"><ele>10.3</ele><time>2022-11-16T15:34:07Z</time><name>PT10110</name></trkpt>
<trkpt lat="51.594041" lon="03.750871"><ele>10.2</ele><time>2022-11-16T15:34:08Z</time><name>PT10111</name></trkpt>
<trkpt lat="51.594032" lon="03.750879"><ele>10.2</ele><time>2022-11-16T15:34:09Z</time><name>PT10112</name></trkpt>
<trkpt lat="51.594023" lon="03.750885"><ele>10.4</ele><time>2022-11-16T15:34:10Z</time><name>PT10113</name></trkpt>
<trkpt lat="51.594013" lon="03.750893"><ele>10.2</ele><time>2022-11-16T15:34:11Z</time><name>PT10114</name></trkpt>
<trkpt lat="51.594003" lon="03.750900"><ele>10.3</ele><time>2022-11-16T15:34:12Z</time><name>PT10115</name></trkpt>
<trkpt lat="51.593993" lon="03.750909"><ele>10.3</ele><time>2022-11-16T15:34:13Z</time><name>PT10116</name></trkpt>
<trkpt lat="51.593982" lon="03.750915"><ele>10.4</ele><time>2022-11-16T15:34:14Z</time><name>PT10117</name></trkpt>
<trkpt lat="51.593971" lon="03.750923"><ele>10.3</ele><time>2022-11-16T15:34:15Z</time><name>PT10118</name></trkpt>
<trkpt lat="51.593961" lon="03.750926"><ele>10.4</ele><time>2022-11-16T15:34:16Z</time><name>PT10119</name></trkpt>
<trkpt lat="51.593950" lon="03.750929"><ele>10.4</ele><time>2022-11-16T15:34:17Z</time><name>PT10120</name></trkpt>
<trkpt lat="51.593939" lon="03.750936"><ele>10.4</ele><time>2022-11-16T15:34:18Z</time><name>PT10121</name></trkpt>
<trkpt lat="51.593930" lon="03.750945"><ele>10.4</ele><time>2022-11-16T15:34:19Z</time><name>PT10122</name></trkpt>
<trkpt lat="51.593920" lon="03.750958"><ele>10.7</ele><time>2022-11-16T15:34:20Z</time><name>PT10123</name></trkpt>
<trkpt lat="51.593910" lon="03.750968"><ele>10.6</ele><time>2022-11-16T15:34:21Z</time><name>PT10124</name></trkpt>
<trkpt lat="51.593901" lon="03.750975"><ele>10.6</ele><time>2022-11-16T15:34:22Z</time><name>PT10125</name></trkpt>
<trkpt lat="51.593889" lon="03.750982"><ele>10.6</ele><time>2022-11-16T15:34:23Z</time><name>PT10126</name></trkpt>
<trkpt lat="51.593878" lon="03.750990"><ele>10.5</ele><time>2022-11-16T15:34:24Z</time><name>PT10127</name></trkpt>
<trkpt lat="51.593865" lon="03.750998"><ele>10.4</ele><time>2022-11-16T15:34:25Z</time><name>PT10128</name></trkpt>
<trkpt lat="51.593853" lon="03.751005"><ele>10.4</ele><time>2022-11-16T15:34:26Z</time><name>PT10129</name></trkpt>
<trkpt lat="51.593842" lon="03.751012"><ele>10.3</ele><time>2022-11-16T15:34:27Z</time><name>PT10130</name></trkpt>
<trkpt lat="51.593832" lon="03.751019"><ele>10.4</ele><time>2022-11-16T15:34:28Z</time><name>PT10131</name></trkpt>
<trkpt lat="51.593822" lon="03.751024"><ele>10.4</ele><time>2022-11-16T15:34:29Z</time><name>PT10132</name></trkpt>
<trkpt lat="51.593811" lon="03.751028"><ele>10.4</ele><time>2022-11-16T15:34:30Z</time><name>PT10133</name></trkpt>
<trkpt lat="51.593801" lon="03.751034"><ele>10.6</ele><time>2022-11-16T15:34:31Z</time><name>PT10134</name></trkpt>
<trkpt lat="51.593789" lon="03.751039"><ele>10.6</ele><time>2022-11-16T15:34:32Z</time><name>PT10135</name></trkpt>
<trkpt lat="51.593779" lon="03.751047"><ele>10.6</ele><time>2022-11-16T15:34:33Z</time><name>PT10136</name></trkpt>
<trkpt lat="51.593769" lon="03.751058"><ele>10.4</ele><time>2022-11-16T15:34:34Z</time><name>PT10137</name></trkpt>
<trkpt lat="51.593760" lon="03.751069"><ele>10.4</ele><time>2022-11-16T15:34:35Z</time><name>PT10138</name></trkpt>
<trkpt lat="51.593752" lon="03.751078"><ele>10.3</ele><time>2022-11-16T15:34:36Z</time><name>PT10139</name></trkpt>
<trkpt lat="51.593743" lon="03.751085"><ele>10.4</ele><time>2022-11-16T15:34:37Z</time><name>PT10140</name></trkpt>
<trkpt lat="51.593734" lon="03.751091"><ele>10.1</ele><time>2022-11-16T15:34:38Z</time><name>PT10141</name></trkpt>
<trkpt lat="51.593723" lon="03.751098"><ele>10.4</ele><time>2022-11-16T15:34:39Z</time><name>PT10142</name></trkpt>
<trkpt lat="51.593712" lon="03.751104"><ele>10.4</ele><time>2022-11-16T15:34:40Z</time><name>PT10143</name></trkpt>
<trkpt lat="51.593701" lon="03.751111"><ele>10.4</ele><time>2022-11-16T15:34:41Z</time><name>PT10144</name></trkpt>
<trkpt lat="51.593690" lon="03.751117"><ele>10.4</ele><time>2022-11-16T15:34:42Z</time><name>PT10145</name></trkpt>
<trkpt lat="51.593679" lon="03.751125"><ele>10.4</ele><time>2022-11-16T15:34:43Z</time><name>PT10146</name></trkpt>
<trkpt lat="51.593669" lon="03.751132"><ele>10.4</ele><time>2022-11-16T15:34:44Z</time><name>PT10147</name></trkpt>
<trkpt lat="51.593658" lon="03.751140"><ele>10.3</ele><time>2022-11-16T15:34:45Z</time><name>PT10148</name></trkpt>
<trkpt lat="51.593648" lon="03.751145"><ele>10.2</ele><time>2022-11-16T15:34:46Z</time><name>PT10149</name></trkpt>
<trkpt lat="51.593639" lon="03.751153"><ele>10.4</ele><time>2022-11-16T15:34:47Z</time><name>PT10150</name></trkpt>
<trkpt lat="51.593628" lon="03.751160"><ele>10.5</ele><time>2022-11-16T15:34:48Z</time><name>PT10151</name></trkpt>
<trkpt lat="51.593619" lon="03.751167"><ele>10.4</ele><time>2022-11-16T15:34:49Z</time><name>PT10152</name></trkpt>
<trkpt lat="51.593608" lon="03.751171"><ele>10.4</ele><time>2022-11-16T15:34:50Z</time><name>PT10153</name></trkpt>
<trkpt lat="51.593597" lon="03.751173"><ele>10.7</ele><time>2022-11-16T15:34:51Z</time><name>PT10154</name></trkpt>
<trkpt lat="51.593586" lon="03.751177"><ele>10.5</ele><time>2022-11-16T15:34:52Z</time><name>PT10155</name></trkpt>
<trkpt lat="51.593577" lon="03.751185"><ele>10.5</ele><time>2022-11-16T15:34:53Z</time><name>PT10156</name></trkpt>
<trkpt lat="51.593566" lon="03.751192"><ele>10.4</ele><time>2022-11-16T15:34:54Z</time><name>PT10157</name></trkpt>
<trkpt lat="51.593556" lon="03.751199"><ele>10.4</ele><time>2022-11-16T15:34:55Z</time><name>PT10158</name></trkpt>
<trkpt lat="51.593544" lon="03.751201"><ele>10.2</ele><time>2022-11-16T15:34:56Z</time><name>PT10159</name></trkpt>
<trkpt lat="51.593535" lon="03.751206"><ele>10.3</ele><time>2022-11-16T15:34:57Z</time><name>PT10160</name></trkpt>
<trkpt lat="51.593525" lon="03.751212"><ele>10.2</ele><time>2022-11-16T15:34:58Z</time><name>PT10161</name></trkpt>
<trkpt lat="51.593517" lon="03.751223"><ele>10.2</ele><time>2022-11-16T15:34:59Z</time><name>PT10162</name></trkpt>
<trkpt lat="51.593507" lon="03.751231"><ele>10.4</ele><time>2022-11-16T15:35:00Z</time><name>PT10163</name></trkpt>
<trkpt lat="51.593496" lon="03.751236"><ele>10.3</ele><time>2022-11-16T15:35:01Z</time><name>PT10164</name></trkpt>
<trkpt lat="51.593485" lon="03.751241"><ele>10.2</ele><time>2022-11-16T15:35:02Z</time><name>PT10165</name></trkpt>
<trkpt lat="51.593474" lon="03.751246"><ele>10.3</ele><time>2022-11-16T15:35:03Z</time><name>PT10166</name></trkpt>
<trkpt lat="51.593463" lon="03.751251"><ele>10.3</ele><time>2022-11-16T15:35:04Z</time><name>PT10167</name></trkpt>
<trkpt lat="51.593452" lon="03.751257"><ele>10.2</ele><time>2022-11-16T15:35:05Z</time><name>PT10168</name></trkpt>
<trkpt lat="51.593442" lon="03.751265"><ele>10.4</ele><time>2022-11-16T15:35:06Z</time><name>PT10169</name></trkpt>
<trkpt lat="51.593433" lon="03.751273"><ele>10.6</ele><time>2022-11-16T15:35:07Z</time><name>PT10170</name></trkpt>
<trkpt lat="51.593424" lon="03.751279"><ele>10.5</ele><time>2022-11-16T15:35:08Z</time><name>PT10171</name></trkpt>
<trkpt lat="51.593415" lon="03.751285"><ele>10.4</ele><time>2022-11-16T15:35:09Z</time><name>PT10172</name></trkpt>
<trkpt lat="51.593405" lon="03.751289"><ele>10.6</ele><time>2022-11-16T15:35:10Z</time><name>PT10173</name></trkpt>
<trkpt lat="51.593393" lon="03.751294"><ele>10.6</ele><time>2022-11-16T15:35:11Z</time><name>PT10174</name></trkpt>
<trkpt lat="51.593382" lon="03.751298"><ele>10.5</ele><time>2022-11-16T15:35:12Z</time><name>PT10175</name></trkpt>
<trkpt lat="51.593370" lon="03.751299"><ele>10.5</ele><time>2022-11-16T15:35:13Z</time><name>PT10176</name></trkpt>
<trkpt lat="51.593359" lon="03.751303"><ele>10.4</ele><time>2022-11-16T15:35:14Z</time><name>PT10177</name></trkpt>
<trkpt lat="51.593348" lon="03.751310"><ele>10.6</ele><time>2022-11-16T15:35:15Z</time><name>PT10178</name></trkpt>
<trkpt lat="51.593336" lon="03.751316"><ele>10.5</ele><time>2022-11-16T15:35:16Z</time><name>PT10179</name></trkpt>
<trkpt lat="51.593325" lon="03.751323"><ele>10.7</ele><time>2022-11-16T15:35:17Z</time><name>PT10180</name></trkpt>
<trkpt lat="51.593314" lon="03.751331"><ele>10.9</ele><time>2022-11-16T15:35:18Z</time><name>PT10181</name></trkpt>
<trkpt lat="51.593304" lon="03.751339"><ele>11</ele><time>2022-11-16T15:35:19Z</time><name>PT10182</name></trkpt>
<trkpt lat="51.593293" lon="03.751345"><ele>10.9</ele><time>2022-11-16T15:35:20Z</time><name>PT10183</name></trkpt>
<trkpt lat="51.593283" lon="03.751351"><ele>10.9</ele><time>2022-11-16T15:35:21Z</time><name>PT10184</name></trkpt>
<trkpt lat="51.593273" lon="03.751356"><ele>10.7</ele><time>2022-11-16T15:35:22Z</time><name>PT10185</name></trkpt>
<trkpt lat="51.593263" lon="03.751359"><ele>10.6</ele><time>2022-11-16T15:35:23Z</time><name>PT10186</name></trkpt>
<trkpt lat="51.593253" lon="03.751366"><ele>10.7</ele><time>2022-11-16T15:35:24Z</time><name>PT10187</name></trkpt>
<trkpt lat="51.593241" lon="03.751372"><ele>10.7</ele><time>2022-11-16T15:35:25Z</time><name>PT10188</name></trkpt>
<trkpt lat="51.593230" lon="03.751376"><ele>10.9</ele><time>2022-11-16T15:35:26Z</time><name>PT10189</name></trkpt>
<trkpt lat="51.593218" lon="03.751380"><ele>11.1</ele><time>2022-11-16T15:35:27Z</time><name>PT10190</name></trkpt>
<trkpt lat="51.593207" lon="03.751383"><ele>11.1</ele><time>2022-11-16T15:35:28Z</time><name>PT10191</name></trkpt>
<trkpt lat="51.593195" lon="03.751387"><ele>11.1</ele><time>2022-11-16T15:35:29Z</time><name>PT10192</name></trkpt>
<trkpt lat="51.593183" lon="03.751391"><ele>11</ele><time>2022-11-16T15:35:30Z</time><name>PT10193</name></trkpt>
<trkpt lat="51.593171" lon="03.751394"><ele>11</ele><time>2022-11-16T15:35:31Z</time><name>PT10194</name></trkpt>
<trkpt lat="51.593160" lon="03.751398"><ele>10.9</ele><time>2022-11-16T15:35:32Z</time><name>PT10195</name></trkpt>
<trkpt lat="51.593149" lon="03.751400"><ele>11.2</ele><time>2022-11-16T15:35:33Z</time><name>PT10196</name></trkpt>
<trkpt lat="51.593139" lon="03.751403"><ele>11.3</ele><time>2022-11-16T15:35:34Z</time><name>PT10197</name></trkpt>
<trkpt lat="51.593130" lon="03.751408"><ele>11.4</ele><time>2022-11-16T15:35:35Z</time><name>PT10198</name></trkpt>
<trkpt lat="51.593120" lon="03.751412"><ele>11.6</ele><time>2022-11-16T15:35:36Z</time><name>PT10199</name></trkpt>
<trkpt lat="51.593109" lon="03.751414"><ele>11.6</ele><time>2022-11-16T15:35:37Z</time><name>PT10200</name></trkpt>
<trkpt lat="51.593097" lon="03.751415"><ele>11.5</ele><time>2022-11-16T15:35:38Z</time><name>PT10201</name></trkpt>
<trkpt lat="51.593087" lon="03.751413"><ele>11.5</ele><time>2022-11-16T15:35:39Z</time><name>PT10202</name></trkpt>
<trkpt lat="51.593076" lon="03.751411"><ele>11.4</ele><time>2022-11-16T15:35:40Z</time><name>PT10203</name></trkpt>
<trkpt lat="51.593066" lon="03.751406"><ele>11.4</ele><time>2022-11-16T15:35:41Z</time><name>PT10204</name></trkpt>
<trkpt lat="51.593055" lon="03.751401"><ele>11.4</ele><time>2022-11-16T15:35:42Z</time><name>PT10205</name></trkpt>
<trkpt lat="51.593046" lon="03.751399"><ele>11.5</ele><time>2022-11-16T15:35:43Z</time><name>PT10206</name></trkpt>
<trkpt lat="51.593039" lon="03.751401"><ele>11.5</ele><time>2022-11-16T15:35:44Z</time><name>PT10207</name></trkpt>
<trkpt lat="51.593032" lon="03.751401"><ele>11.7</ele><time>2022-11-16T15:35:45Z</time><name>PT10208</name></trkpt>
<trkpt lat="51.593023" lon="03.751399"><ele>11.8</ele><time>2022-11-16T15:35:46Z</time><name>PT10209</name></trkpt>
<trkpt lat="51.593014" lon="03.751398"><ele>11.8</ele><time>2022-11-16T15:35:47Z</time><name>PT10210</name></trkpt>
<trkpt lat="51.593007" lon="03.751397"><ele>11.8</ele><time>2022-11-16T15:35:48Z</time><name>PT10211</name></trkpt>
<trkpt lat="51.593000" lon="03.751393"><ele>12</ele><time>2022-11-16T15:35:49Z</time><name>PT10212</name></trkpt>
<trkpt lat="51.592992" lon="03.751389"><ele>11.8</ele><time>2022-11-16T15:35:50Z</time><name>PT10213</name></trkpt>
<trkpt lat="51.592984" lon="03.751389"><ele>11.9</ele><time>2022-11-16T15:35:51Z</time><name>PT10214</name></trkpt>
<trkpt lat="51.592977" lon="03.751389"><ele>12</ele><time>2022-11-16T15:35:52Z</time><name>PT10215</name></trkpt>
<trkpt lat="51.592971" lon="03.751386"><ele>12</ele><time>2022-11-16T15:35:53Z</time><name>PT10216</name></trkpt>
<trkpt lat="51.592964" lon="03.751384"><ele>11.9</ele><time>2022-11-16T15:35:54Z</time><name>PT10217</name></trkpt>
<trkpt lat="51.592957" lon="03.751385"><ele>12</ele><time>2022-11-16T15:35:55Z</time><name>PT10218</name></trkpt>
<trkpt lat="51.592950" lon="03.751385"><ele>12</ele><time>2022-11-16T15:35:56Z</time><name>PT10219</name></trkpt>
<trkpt lat="51.592944" lon="03.751385"><ele>11.9</ele><time>2022-11-16T15:35:57Z</time><name>PT10220</name></trkpt>
<trkpt lat="51.592938" lon="03.751387"><ele>11.9</ele><time>2022-11-16T15:35:58Z</time><name>PT10221</name></trkpt>
<trkpt lat="51.592934" lon="03.751389"><ele>11.9</ele><time>2022-11-16T15:35:59Z</time><name>PT10222</name></trkpt>
<trkpt lat="51.592933" lon="03.751390"><ele>12</ele><time>2022-11-16T15:36:00Z</time><name>PT10223</name></trkpt>
<trkpt lat="51.592932" lon="03.751391"><ele>12</ele><time>2022-11-16T15:36:01Z</time><name>PT10224</name></trkpt>
<trkpt lat="51.592929" lon="03.751390"><ele>11.8</ele><time>2022-11-16T15:36:06Z</time><name>PT10225</name></trkpt>
<trkpt lat="51.592927" lon="03.751389"><ele>11.6</ele><time>2022-11-16T15:36:07Z</time><name>PT10226</name></trkpt>
<trkpt lat="51.592924" lon="03.751396"><ele>11.8</ele><time>2022-11-16T15:36:09Z</time><name>PT10227</name></trkpt>
<trkpt lat="51.592923" lon="03.751390"><ele>11.7</ele><time>2022-11-16T15:36:10Z</time><name>PT10228</name></trkpt>
<trkpt lat="51.592921" lon="03.751388"><ele>11.9</ele><time>2022-11-16T15:36:11Z</time><name>PT10229</name></trkpt>
<trkpt lat="51.592923" lon="03.751384"><ele>12</ele><time>2022-11-16T15:36:12Z</time><name>PT10230</name></trkpt>
<trkpt lat="51.592922" lon="03.751386"><ele>12</ele><time>2022-11-16T15:36:13Z</time><name>PT10231</name></trkpt>
<trkpt lat="51.592922" lon="03.751384"><ele>12.1</ele><time>2022-11-16T15:36:14Z</time><name>PT10232</name></trkpt>
<trkpt lat="51.592921" lon="03.751384"><ele>12.3</ele><time>2022-11-16T15:36:15Z</time><name>PT10233</name></trkpt>
<trkpt lat="51.592923" lon="03.751380"><ele>12.4</ele><time>2022-11-16T15:36:17Z</time><name>PT10234</name></trkpt>
<trkpt lat="51.592921" lon="03.751380"><ele>12.3</ele><time>2022-11-16T15:36:18Z</time><name>PT10235</name></trkpt>
<trkpt lat="51.592921" lon="03.751384"><ele>12.2</ele><time>2022-11-16T15:36:19Z</time><name>PT10236</name></trkpt>
<trkpt lat="51.592921" lon="03.751387"><ele>12</ele><time>2022-11-16T15:36:20Z</time><name>PT10237</name></trkpt>
<trkpt lat="51.592919" lon="03.751383"><ele>12</ele><time>2022-11-16T15:36:21Z</time><name>PT10238</name></trkpt>
<trkpt lat="51.592919" lon="03.751377"><ele>12</ele><time>2022-11-16T15:36:22Z</time><name>PT10239</name></trkpt>
<trkpt lat="51.592920" lon="03.751381"><ele>11.9</ele><time>2022-11-16T15:36:23Z</time><name>PT10240</name></trkpt>
<trkpt lat="51.592918" lon="03.751384"><ele>12</ele><time>2022-11-16T15:36:24Z</time><name>PT10241</name></trkpt>
<trkpt lat="51.592918" lon="03.751385"><ele>12</ele><time>2022-11-16T15:36:25Z</time><name>PT10242</name></trkpt>
<trkpt lat="51.592918" lon="03.751385"><ele>12</ele><time>2022-11-16T15:36:26Z</time><name>PT10243</name></trkpt>
<trkpt lat="51.592918" lon="03.751386"><ele>12.2</ele><time>2022-11-16T15:36:27Z</time><name>PT10244</name></trkpt>
<trkpt lat="51.592912" lon="03.751383"><ele>12.2</ele><time>2022-11-16T15:36:28Z</time><name>PT10245</name></trkpt>
<trkpt lat="51.592911" lon="03.751381"><ele>12.1</ele><time>2022-11-16T15:36:29Z</time><name>PT10246</name></trkpt>
<trkpt lat="51.592906" lon="03.751376"><ele>12.2</ele><time>2022-11-16T15:36:30Z</time><name>PT10247</name></trkpt>
<trkpt lat="51.592903" lon="03.751371"><ele>12</ele><time>2022-11-16T15:36:31Z</time><name>PT10248</name></trkpt>
<trkpt lat="51.592900" lon="03.751365"><ele>11.9</ele><time>2022-11-16T15:36:32Z</time><name>PT10249</name></trkpt>
<trkpt lat="51.592897" lon="03.751364"><ele>11.9</ele><time>2022-11-16T15:36:33Z</time><name>PT10250</name></trkpt>
<trkpt lat="51.592896" lon="03.751366"><ele>11.9</ele><time>2022-11-16T15:36:34Z</time><name>PT10251</name></trkpt>
<trkpt lat="51.592898" lon="03.751368"><ele>12</ele><time>2022-11-16T15:36:35Z</time><name>PT10252</name></trkpt>
<trkpt lat="51.592897" lon="03.751367"><ele>12.3</ele><time>2022-11-16T15:36:41Z</time><name>PT10253</name></trkpt>
<trkpt lat="51.592904" lon="03.751364"><ele>12.4</ele><time>2022-11-16T15:36:42Z</time><name>PT10254</name></trkpt>
<trkpt lat="51.592909" lon="03.751366"><ele>12.5</ele><time>2022-11-16T15:36:43Z</time><name>PT10255</name></trkpt>
<trkpt lat="51.592912" lon="03.751368"><ele>12.5</ele><time>2022-11-16T15:36:44Z</time><name>PT10256</name></trkpt>
<trkpt lat="51.592916" lon="03.751373"><ele>12.4</ele><time>2022-11-16T15:36:45Z</time><name>PT10257</name></trkpt>
<trkpt lat="51.592916" lon="03.751380"><ele>12.4</ele><time>2022-11-16T15:36:46Z</time><name>PT10258</name></trkpt>
<trkpt lat="51.592918" lon="03.751381"><ele>12.4</ele><time>2022-11-16T15:36:47Z</time><name>PT10259</name></trkpt>
<trkpt lat="51.592921" lon="03.751383"><ele>12.3</ele><time>2022-11-16T15:36:48Z</time><name>PT10260</name></trkpt>
<trkpt lat="51.592923" lon="03.751382"><ele>12.5</ele><time>2022-11-16T15:36:49Z</time><name>PT10261</name></trkpt>
<trkpt lat="51.592924" lon="03.751388"><ele>12.5</ele><time>2022-11-16T15:37:17Z</time><name>PT10262</name></trkpt>
<trkpt lat="51.592924" lon="03.751375"><ele>12.6</ele><time>2022-11-16T15:37:18Z</time><name>PT10263</name></trkpt>
<trkpt lat="51.592923" lon="03.751375"><ele>12.7</ele><time>2022-11-16T15:37:19Z</time><name>PT10264</name></trkpt>
<trkpt lat="51.592920" lon="03.751373"><ele>12.6</ele><time>2022-11-16T15:37:20Z</time><name>PT10265</name></trkpt>
<trkpt lat="51.592914" lon="03.751370"><ele>12.5</ele><time>2022-11-16T15:37:28Z</time><name>PT10266</name></trkpt>
<trkpt lat="51.592910" lon="03.751361"><ele>12.4</ele><time>2022-11-16T15:37:29Z</time><name>PT10267</name></trkpt>
<trkpt lat="51.592907" lon="03.751347"><ele>12.5</ele><time>2022-11-16T15:37:30Z</time><name>PT10268</name></trkpt>
<trkpt lat="51.592903" lon="03.751338"><ele>12.4</ele><time>2022-11-16T15:37:31Z</time><name>PT10269</name></trkpt>
<trkpt lat="51.592902" lon="03.751333"><ele>12.5</ele><time>2022-11-16T15:37:32Z</time><name>PT10270</name></trkpt>
<trkpt lat="51.592900" lon="03.751331"><ele>12.7</ele><time>2022-11-16T15:37:33Z</time><name>PT10271</name></trkpt>
<trkpt lat="51.592901" lon="03.751332"><ele>12.7</ele><time>2022-11-16T15:37:34Z</time><name>PT10272</name></trkpt>
<trkpt lat="51.592900" lon="03.751330"><ele>12.7</ele><time>2022-11-16T15:37:35Z</time><name>PT10273</name></trkpt>
<trkpt lat="51.592901" lon="03.751331"><ele>12.7</ele><time>2022-11-16T15:37:36Z</time><name>PT10274</name></trkpt>
<trkpt lat="51.592900" lon="03.751336"><ele>13.3</ele><time>2022-11-16T15:38:27Z</time><name>PT10275</name></trkpt>
<trkpt lat="51.592897" lon="03.751336"><ele>13.4</ele><time>2022-11-16T15:38:28Z</time><name>PT10276</name></trkpt>
<trkpt lat="51.592891" lon="03.751334"><ele>13.6</ele><time>2022-11-16T15:38:29Z</time><name>PT10277</name></trkpt>
<trkpt lat="51.592885" lon="03.751331"><ele>13.6</ele><time>2022-11-16T15:38:30Z</time><name>PT10278</name></trkpt>
<trkpt lat="51.592882" lon="03.751331"><ele>13.7</ele><time>2022-11-16T15:38:31Z</time><name>PT10279</name></trkpt>
<trkpt lat="51.592880" lon="03.751334"><ele>13.8</ele><time>2022-11-16T15:38:32Z</time><name>PT10280</name></trkpt>
<trkpt lat="51.592880" lon="03.751336"><ele>13.9</ele><time>2022-11-16T15:38:33Z</time><name>PT10281</name></trkpt>
<trkpt lat="51.592879" lon="03.751335"><ele>13.8</ele><time>2022-11-16T15:38:34Z</time><name>PT10282</name></trkpt>
<trkpt lat="51.592874" lon="03.751331"><ele>13.3</ele><time>2022-11-16T15:38:42Z</time><name>PT10283</name></trkpt>
<trkpt lat="51.592865" lon="03.751321"><ele>13.2</ele><time>2022-11-16T15:38:43Z</time><name>PT10284</name></trkpt>
<trkpt lat="51.592858" lon="03.751317"><ele>13.1</ele><time>2022-11-16T15:38:44Z</time><name>PT10285</name></trkpt>
<trkpt lat="51.592853" lon="03.751311"><ele>13.2</ele><time>2022-11-16T15:38:45Z</time><name>PT10286</name></trkpt>
<trkpt lat="51.592844" lon="03.751313"><ele>13.2</ele><time>2022-11-16T15:38:46Z</time><name>PT10287</name></trkpt>
<trkpt lat="51.592838" lon="03.751316"><ele>13.6</ele><time>2022-11-16T15:38:47Z</time><name>PT10288</name></trkpt>
<trkpt lat="51.592830" lon="03.751322"><ele>13.9</ele><time>2022-11-16T15:38:48Z</time><name>PT10289</name></trkpt>
<trkpt lat="51.592822" lon="03.751328"><ele>13.9</ele><time>2022-11-16T15:38:49Z</time><name>PT10290</name></trkpt>
<trkpt lat="51.592814" lon="03.751324"><ele>13.7</ele><time>2022-11-16T15:38:50Z</time><name>PT10291</name></trkpt>
<trkpt lat="51.592812" lon="03.751325"><ele>13.8</ele><time>2022-11-16T15:38:51Z</time><name>PT10292</name></trkpt>
<trkpt lat="51.592811" lon="03.751323"><ele>13.8</ele><time>2022-11-16T15:38:52Z</time><name>PT10293</name></trkpt>
<trkpt lat="51.592809" lon="03.751324"><ele>13.9</ele><time>2022-11-16T15:38:53Z</time><name>PT10294</name></trkpt>
<trkpt lat="51.592807" lon="03.751324"><ele>13.7</ele><time>2022-11-16T15:38:54Z</time><name>PT10295</name></trkpt>
<trkpt lat="51.592804" lon="03.751332"><ele>13.8</ele><time>2022-11-16T15:39:36Z</time><name>PT10296</name></trkpt>
<trkpt lat="51.592800" lon="03.751348"><ele>13.6</ele><time>2022-11-16T15:39:37Z</time><name>PT10297</name></trkpt>
<trkpt lat="51.592793" lon="03.751354"><ele>13.6</ele><time>2022-11-16T15:39:38Z</time><name>PT10298</name></trkpt>
<trkpt lat="51.592784" lon="03.751356"><ele>13.6</ele><time>2022-11-16T15:39:39Z</time><name>PT10299</name></trkpt>
<trkpt lat="51.592779" lon="03.751355"><ele>13.6</ele><time>2022-11-16T15:39:40Z</time><name>PT10300</name></trkpt>
<trkpt lat="51.592770" lon="03.751360"><ele>13.7</ele><time>2022-11-16T15:39:41Z</time><name>PT10301</name></trkpt>
<trkpt lat="51.592761" lon="03.751362"><ele>13.6</ele><time>2022-11-16T15:39:42Z</time><name>PT10302</name></trkpt>
<trkpt lat="51.592753" lon="03.751359"><ele>13.6</ele><time>2022-11-16T15:39:43Z</time><name>PT10303</name></trkpt>
<trkpt lat="51.592747" lon="03.751359"><ele>13.8</ele><time>2022-11-16T15:39:44Z</time><name>PT10304</name></trkpt>
<trkpt lat="51.592745" lon="03.751360"><ele>13.8</ele><time>2022-11-16T15:39:45Z</time><name>PT10305</name></trkpt>
<trkpt lat="51.592737" lon="03.751362"><ele>13.9</ele><time>2022-11-16T15:39:46Z</time><name>PT10306</name></trkpt>
<trkpt lat="51.592719" lon="03.751373"><ele>14</ele><time>2022-11-16T15:39:47Z</time><name>PT10307</name></trkpt>
<trkpt lat="51.592710" lon="03.751375"><ele>14.1</ele><time>2022-11-16T15:39:48Z</time><name>PT10308</name></trkpt>
<trkpt lat="51.592702" lon="03.751375"><ele>14</ele><time>2022-11-16T15:39:49Z</time><name>PT10309</name></trkpt>
<trkpt lat="51.592694" lon="03.751377"><ele>14</ele><time>2022-11-16T15:39:50Z</time><name>PT10310</name></trkpt>
<trkpt lat="51.592686" lon="03.751377"><ele>14</ele><time>2022-11-16T15:39:51Z</time><name>PT10311</name></trkpt>
<trkpt lat="51.592677" lon="03.751378"><ele>14</ele><time>2022-11-16T15:39:52Z</time><name>PT10312</name></trkpt>
<trkpt lat="51.592668" lon="03.751378"><ele>13.8</ele><time>2022-11-16T15:39:53Z</time><name>PT10313</name></trkpt>
<trkpt lat="51.592660" lon="03.751378"><ele>14</ele><time>2022-11-16T15:39:54Z</time><name>PT10314</name></trkpt>
<trkpt lat="51.592653" lon="03.751373"><ele>14</ele><time>2022-11-16T15:39:55Z</time><name>PT10315</name></trkpt>
<trkpt lat="51.592645" lon="03.751369"><ele>14.1</ele><time>2022-11-16T15:39:56Z</time><name>PT10316</name></trkpt>
<trkpt lat="51.592636" lon="03.751365"><ele>14.3</ele><time>2022-11-16T15:39:57Z</time><name>PT10317</name></trkpt>
<trkpt lat="51.592626" lon="03.751362"><ele>14.2</ele><time>2022-11-16T15:39:58Z</time><name>PT10318</name></trkpt>
<trkpt lat="51.592617" lon="03.751359"><ele>14.2</ele><time>2022-11-16T15:39:59Z</time><name>PT10319</name></trkpt>
<trkpt lat="51.592609" lon="03.751351"><ele>14.1</ele><time>2022-11-16T15:40:00Z</time><name>PT10320</name></trkpt>
<trkpt lat="51.592599" lon="03.751343"><ele>14.1</ele><time>2022-11-16T15:40:01Z</time><name>PT10321</name></trkpt>
<trkpt lat="51.592590" lon="03.751335"><ele>14.1</ele><time>2022-11-16T15:40:02Z</time><name>PT10322</name></trkpt>
<trkpt lat="51.592580" lon="03.751327"><ele>14.2</ele><time>2022-11-16T15:40:03Z</time><name>PT10323</name></trkpt>
<trkpt lat="51.592570" lon="03.751317"><ele>14.4</ele><time>2022-11-16T15:40:04Z</time><name>PT10324</name></trkpt>
<trkpt lat="51.592560" lon="03.751310"><ele>14.5</ele><time>2022-11-16T15:40:05Z</time><name>PT10325</name></trkpt>
<trkpt lat="51.592550" lon="03.751304"><ele>14.5</ele><time>2022-11-16T15:40:06Z</time><name>PT10326</name></trkpt>
<trkpt lat="51.592541" lon="03.751297"><ele>14.6</ele><time>2022-11-16T15:40:07Z</time><name>PT10327</name></trkpt>
<trkpt lat="51.592531" lon="03.751288"><ele>14.7</ele><time>2022-11-16T15:40:08Z</time><name>PT10328</name></trkpt>
<trkpt lat="51.592523" lon="03.751278"><ele>14.8</ele><time>2022-11-16T15:40:09Z</time><name>PT10329</name></trkpt>
<trkpt lat="51.592514" lon="03.751269"><ele>15</ele><time>2022-11-16T15:40:10Z</time><name>PT10330</name></trkpt>
<trkpt lat="51.592505" lon="03.751258"><ele>14.8</ele><time>2022-11-16T15:40:11Z</time><name>PT10331</name></trkpt>
<trkpt lat="51.592496" lon="03.751248"><ele>14.8</ele><time>2022-11-16T15:40:12Z</time><name>PT10332</name></trkpt>
<trkpt lat="51.592487" lon="03.751236"><ele>14.6</ele><time>2022-11-16T15:40:13Z</time><name>PT10333</name></trkpt>
<trkpt lat="51.592479" lon="03.751224"><ele>14.6</ele><time>2022-11-16T15:40:14Z</time><name>PT10334</name></trkpt>
<trkpt lat="51.592470" lon="03.751214"><ele>14.6</ele><time>2022-11-16T15:40:15Z</time><name>PT10335</name></trkpt>
<trkpt lat="51.592460" lon="03.751203"><ele>14.8</ele><time>2022-11-16T15:40:16Z</time><name>PT10336</name></trkpt>
<trkpt lat="51.592449" lon="03.751195"><ele>14.7</ele><time>2022-11-16T15:40:17Z</time><name>PT10337</name></trkpt>
<trkpt lat="51.592439" lon="03.751186"><ele>14.8</ele><time>2022-11-16T15:40:18Z</time><name>PT10338</name></trkpt>
<trkpt lat="51.592428" lon="03.751177"><ele>14.7</ele><time>2022-11-16T15:40:19Z</time><name>PT10339</name></trkpt>
<trkpt lat="51.592417" lon="03.751169"><ele>14.7</ele><time>2022-11-16T15:40:20Z</time><name>PT10340</name></trkpt>
<trkpt lat="51.592406" lon="03.751159"><ele>14.6</ele><time>2022-11-16T15:40:21Z</time><name>PT10341</name></trkpt>
<trkpt lat="51.592396" lon="03.751149"><ele>14.7</ele><time>2022-11-16T15:40:22Z</time><name>PT10342</name></trkpt>
<trkpt lat="51.592387" lon="03.751141"><ele>14.7</ele><time>2022-11-16T15:40:23Z</time><name>PT10343</name></trkpt>
<trkpt lat="51.592378" lon="03.751134"><ele>15</ele><time>2022-11-16T15:40:24Z</time><name>PT10344</name></trkpt>
<trkpt lat="51.592369" lon="03.751125"><ele>15.1</ele><time>2022-11-16T15:40:25Z</time><name>PT10345</name></trkpt>
<trkpt lat="51.592359" lon="03.751116"><ele>15</ele><time>2022-11-16T15:40:26Z</time><name>PT10346</name></trkpt>
<trkpt lat="51.592350" lon="03.751108"><ele>15.2</ele><time>2022-11-16T15:40:27Z</time><name>PT10347</name></trkpt>
<trkpt lat="51.592341" lon="03.751097"><ele>14.9</ele><time>2022-11-16T15:40:28Z</time><name>PT10348</name></trkpt>
<trkpt lat="51.592334" lon="03.751084"><ele>14.8</ele><time>2022-11-16T15:40:29Z</time><name>PT10349</name></trkpt>
<trkpt lat="51.592325" lon="03.751071"><ele>14.8</ele><time>2022-11-16T15:40:30Z</time><name>PT10350</name></trkpt>
<trkpt lat="51.592316" lon="03.751058"><ele>14.9</ele><time>2022-11-16T15:40:31Z</time><name>PT10351</name></trkpt>
<trkpt lat="51.592307" lon="03.751046"><ele>14.6</ele><time>2022-11-16T15:40:32Z</time><name>PT10352</name></trkpt>
<trkpt lat="51.592298" lon="03.751034"><ele>14.8</ele><time>2022-11-16T15:40:33Z</time><name>PT10353</name></trkpt>
<trkpt lat="51.592288" lon="03.751021"><ele>14.7</ele><time>2022-11-16T15:40:34Z</time><name>PT10354</name></trkpt>
<trkpt lat="51.592278" lon="03.751010"><ele>14.6</ele><time>2022-11-16T15:40:35Z</time><name>PT10355</name></trkpt>
<trkpt lat="51.592269" lon="03.750998"><ele>14.5</ele><time>2022-11-16T15:40:36Z</time><name>PT10356</name></trkpt>
<trkpt lat="51.592259" lon="03.750987"><ele>14.7</ele><time>2022-11-16T15:40:37Z</time><name>PT10357</name></trkpt>
<trkpt lat="51.592248" lon="03.750975"><ele>14.6</ele><time>2022-11-16T15:40:38Z</time><name>PT10358</name></trkpt>
<trkpt lat="51.592237" lon="03.750965"><ele>14.6</ele><time>2022-11-16T15:40:39Z</time><name>PT10359</name></trkpt>
<trkpt lat="51.592226" lon="03.750955"><ele>14.8</ele><time>2022-11-16T15:40:40Z</time><name>PT10360</name></trkpt>
<trkpt lat="51.592216" lon="03.750944"><ele>14.8</ele><time>2022-11-16T15:40:41Z</time><name>PT10361</name></trkpt>
<trkpt lat="51.592206" lon="03.750934"><ele>14.6</ele><time>2022-11-16T15:40:42Z</time><name>PT10362</name></trkpt>
<trkpt lat="51.592197" lon="03.750925"><ele>14.6</ele><time>2022-11-16T15:40:43Z</time><name>PT10363</name></trkpt>
<trkpt lat="51.592188" lon="03.750915"><ele>14.6</ele><time>2022-11-16T15:40:44Z</time><name>PT10364</name></trkpt>
<trkpt lat="51.592180" lon="03.750904"><ele>14.6</ele><time>2022-11-16T15:40:45Z</time><name>PT10365</name></trkpt>
<trkpt lat="51.592171" lon="03.750894"><ele>14.4</ele><time>2022-11-16T15:40:46Z</time><name>PT10366</name></trkpt>
<trkpt lat="51.592162" lon="03.750884"><ele>14.5</ele><time>2022-11-16T15:40:47Z</time><name>PT10367</name></trkpt>
<trkpt lat="51.592153" lon="03.750873"><ele>14.2</ele><time>2022-11-16T15:40:48Z</time><name>PT10368</name></trkpt>
<trkpt lat="51.592145" lon="03.750861"><ele>14.2</ele><time>2022-11-16T15:40:49Z</time><name>PT10369</name></trkpt>
<trkpt lat="51.592136" lon="03.750849"><ele>14.2</ele><time>2022-11-16T15:40:50Z</time><name>PT10370</name></trkpt>
<trkpt lat="51.592127" lon="03.750837"><ele>14.3</ele><time>2022-11-16T15:40:51Z</time><name>PT10371</name></trkpt>
<trkpt lat="51.592118" lon="03.750825"><ele>14.1</ele><time>2022-11-16T15:40:52Z</time><name>PT10372</name></trkpt>
<trkpt lat="51.592109" lon="03.750815"><ele>14.3</ele><time>2022-11-16T15:40:53Z</time><name>PT10373</name></trkpt>
<trkpt lat="51.592099" lon="03.750804"><ele>14.3</ele><time>2022-11-16T15:40:54Z</time><name>PT10374</name></trkpt>
<trkpt lat="51.592090" lon="03.750795"><ele>14.4</ele><time>2022-11-16T15:40:55Z</time><name>PT10375</name></trkpt>
<trkpt lat="51.592080" lon="03.750785"><ele>14.4</ele><time>2022-11-16T15:40:56Z</time><name>PT10376</name></trkpt>
<trkpt lat="51.592070" lon="03.750777"><ele>14.4</ele><time>2022-11-16T15:40:57Z</time><name>PT10377</name></trkpt>
<trkpt lat="51.592062" lon="03.750765"><ele>14.5</ele><time>2022-11-16T15:40:58Z</time><name>PT10378</name></trkpt>
<trkpt lat="51.592052" lon="03.750754"><ele>14.6</ele><time>2022-11-16T15:40:59Z</time><name>PT10379</name></trkpt>
<trkpt lat="51.592041" lon="03.750744"><ele>14.6</ele><time>2022-11-16T15:41:00Z</time><name>PT10380</name></trkpt>
<trkpt lat="51.592031" lon="03.750735"><ele>14.6</ele><time>2022-11-16T15:41:01Z</time><name>PT10381</name></trkpt>
<trkpt lat="51.592022" lon="03.750726"><ele>14.6</ele><time>2022-11-16T15:41:02Z</time><name>PT10382</name></trkpt>
<trkpt lat="51.592012" lon="03.750717"><ele>14.6</ele><time>2022-11-16T15:41:03Z</time><name>PT10383</name></trkpt>
<trkpt lat="51.592003" lon="03.750708"><ele>14.5</ele><time>2022-11-16T15:41:04Z</time><name>PT10384</name></trkpt>
<trkpt lat="51.591994" lon="03.750699"><ele>14.4</ele><time>2022-11-16T15:41:05Z</time><name>PT10385</name></trkpt>
<trkpt lat="51.591985" lon="03.750689"><ele>14.4</ele><time>2022-11-16T15:41:06Z</time><name>PT10386</name></trkpt>
<trkpt lat="51.591977" lon="03.750679"><ele>14.5</ele><time>2022-11-16T15:41:07Z</time><name>PT10387</name></trkpt>
<trkpt lat="51.591970" lon="03.750667"><ele>14.6</ele><time>2022-11-16T15:41:08Z</time><name>PT10388</name></trkpt>
<trkpt lat="51.591961" lon="03.750652"><ele>14.4</ele><time>2022-11-16T15:41:09Z</time><name>PT10389</name></trkpt>
<trkpt lat="51.591953" lon="03.750641"><ele>14.4</ele><time>2022-11-16T15:41:10Z</time><name>PT10390</name></trkpt>
<trkpt lat="51.591945" lon="03.750629"><ele>14.5</ele><time>2022-11-16T15:41:11Z</time><name>PT10391</name></trkpt>
<trkpt lat="51.591937" lon="03.750617"><ele>14.3</ele><time>2022-11-16T15:41:12Z</time><name>PT10392</name></trkpt>
<trkpt lat="51.591929" lon="03.750605"><ele>14.2</ele><time>2022-11-16T15:41:13Z</time><name>PT10393</name></trkpt>
<trkpt lat="51.591920" lon="03.750593"><ele>14.4</ele><time>2022-11-16T15:41:14Z</time><name>PT10394</name></trkpt>
<trkpt lat="51.591911" lon="03.750583"><ele>14.4</ele><time>2022-11-16T15:41:15Z</time><name>PT10395</name></trkpt>
<trkpt lat="51.591901" lon="03.750573"><ele>14.5</ele><time>2022-11-16T15:41:16Z</time><name>PT10396</name></trkpt>
<trkpt lat="51.591891" lon="03.750561"><ele>14.7</ele><time>2022-11-16T15:41:17Z</time><name>PT10397</name></trkpt>
<trkpt lat="51.591881" lon="03.750550"><ele>14.6</ele><time>2022-11-16T15:41:18Z</time><name>PT10398</name></trkpt>
<trkpt lat="51.591871" lon="03.750542"><ele>14.7</ele><time>2022-11-16T15:41:19Z</time><name>PT10399</name></trkpt>
<trkpt lat="51.591862" lon="03.750535"><ele>14.6</ele><time>2022-11-16T15:41:20Z</time><name>PT10400</name></trkpt>
<trkpt lat="51.591853" lon="03.750526"><ele>14.5</ele><time>2022-11-16T15:41:21Z</time><name>PT10401</name></trkpt>
<trkpt lat="51.591844" lon="03.750516"><ele>14.5</ele><time>2022-11-16T15:41:22Z</time><name>PT10402</name></trkpt>
<trkpt lat="51.591836" lon="03.750506"><ele>14.5</ele><time>2022-11-16T15:41:23Z</time><name>PT10403</name></trkpt>
<trkpt lat="51.591827" lon="03.750496"><ele>14.5</ele><time>2022-11-16T15:41:24Z</time><name>PT10404</name></trkpt>
<trkpt lat="51.591819" lon="03.750485"><ele>14.3</ele><time>2022-11-16T15:41:25Z</time><name>PT10405</name></trkpt>
<trkpt lat="51.591811" lon="03.750476"><ele>14.4</ele><time>2022-11-16T15:41:26Z</time><name>PT10406</name></trkpt>
<trkpt lat="51.591802" lon="03.750467"><ele>14.4</ele><time>2022-11-16T15:41:27Z</time><name>PT10407</name></trkpt>
<trkpt lat="51.591794" lon="03.750459"><ele>14.2</ele><time>2022-11-16T15:41:28Z</time><name>PT10408</name></trkpt>
<trkpt lat="51.591786" lon="03.750450"><ele>14.1</ele><time>2022-11-16T15:41:29Z</time><name>PT10409</name></trkpt>
<trkpt lat="51.591778" lon="03.750441"><ele>14.4</ele><time>2022-11-16T15:41:30Z</time><name>PT10410</name></trkpt>
<trkpt lat="51.591770" lon="03.750433"><ele>14.3</ele><time>2022-11-16T15:41:31Z</time><name>PT10411</name></trkpt>
<trkpt lat="51.591763" lon="03.750424"><ele>14.2</ele><time>2022-11-16T15:41:32Z</time><name>PT10412</name></trkpt>
<trkpt lat="51.591755" lon="03.750413"><ele>14.1</ele><time>2022-11-16T15:41:33Z</time><name>PT10413</name></trkpt>
<trkpt lat="51.591750" lon="03.750402"><ele>14.1</ele><time>2022-11-16T15:41:34Z</time><name>PT10414</name></trkpt>
<trkpt lat="51.591743" lon="03.750391"><ele>14</ele><time>2022-11-16T15:41:35Z</time><name>PT10415</name></trkpt>
<trkpt lat="51.591736" lon="03.750384"><ele>13.9</ele><time>2022-11-16T15:41:36Z</time><name>PT10416</name></trkpt>
<trkpt lat="51.591728" lon="03.750377"><ele>14</ele><time>2022-11-16T15:41:37Z</time><name>PT10417</name></trkpt>
<trkpt lat="51.591720" lon="03.750369"><ele>13.8</ele><time>2022-11-16T15:41:38Z</time><name>PT10418</name></trkpt>
<trkpt lat="51.591711" lon="03.750359"><ele>13.8</ele><time>2022-11-16T15:41:39Z</time><name>PT10419</name></trkpt>
<trkpt lat="51.591702" lon="03.750348"><ele>13.8</ele><time>2022-11-16T15:41:40Z</time><name>PT10420</name></trkpt>
<trkpt lat="51.591694" lon="03.750336"><ele>13.9</ele><time>2022-11-16T15:41:41Z</time><name>PT10421</name></trkpt>
<trkpt lat="51.591685" lon="03.750325"><ele>14.1</ele><time>2022-11-16T15:41:42Z</time><name>PT10422</name></trkpt>
<trkpt lat="51.591676" lon="03.750314"><ele>13.9</ele><time>2022-11-16T15:41:43Z</time><name>PT10423</name></trkpt>
<trkpt lat="51.591665" lon="03.750303"><ele>13.9</ele><time>2022-11-16T15:41:44Z</time><name>PT10424</name></trkpt>
<trkpt lat="51.591656" lon="03.750291"><ele>13.7</ele><time>2022-11-16T15:41:45Z</time><name>PT10425</name></trkpt>
<trkpt lat="51.591646" lon="03.750280"><ele>13.6</ele><time>2022-11-16T15:41:46Z</time><name>PT10426</name></trkpt>
<trkpt lat="51.591637" lon="03.750271"><ele>13.6</ele><time>2022-11-16T15:41:47Z</time><name>PT10427</name></trkpt>
<trkpt lat="51.591627" lon="03.750263"><ele>13.6</ele><time>2022-11-16T15:41:48Z</time><name>PT10428</name></trkpt>
<trkpt lat="51.591619" lon="03.750254"><ele>13.9</ele><time>2022-11-16T15:41:49Z</time><name>PT10429</name></trkpt>
<trkpt lat="51.591610" lon="03.750245"><ele>14.1</ele><time>2022-11-16T15:41:50Z</time><name>PT10430</name></trkpt>
<trkpt lat="51.591600" lon="03.750236"><ele>14.1</ele><time>2022-11-16T15:41:51Z</time><name>PT10431</name></trkpt>
<trkpt lat="51.591591" lon="03.750226"><ele>14.3</ele><time>2022-11-16T15:41:52Z</time><name>PT10432</name></trkpt>
<trkpt lat="51.591583" lon="03.750215"><ele>14.4</ele><time>2022-11-16T15:41:53Z</time><name>PT10433</name></trkpt>
<trkpt lat="51.591574" lon="03.750202"><ele>14.4</ele><time>2022-11-16T15:41:54Z</time><name>PT10434</name></trkpt>
<trkpt lat="51.591565" lon="03.750190"><ele>14.5</ele><time>2022-11-16T15:41:55Z</time><name>PT10435</name></trkpt>
<trkpt lat="51.591556" lon="03.750177"><ele>14.5</ele><time>2022-11-16T15:41:56Z</time><name>PT10436</name></trkpt>
<trkpt lat="51.591545" lon="03.750167"><ele>14.3</ele><time>2022-11-16T15:41:57Z</time><name>PT10437</name></trkpt>
<trkpt lat="51.591537" lon="03.750156"><ele>14.1</ele><time>2022-11-16T15:41:58Z</time><name>PT10438</name></trkpt>
<trkpt lat="51.591528" lon="03.750147"><ele>14.1</ele><time>2022-11-16T15:41:59Z</time><name>PT10439</name></trkpt>
<trkpt lat="51.591518" lon="03.750135"><ele>14.1</ele><time>2022-11-16T15:42:00Z</time><name>PT10440</name></trkpt>
<trkpt lat="51.591507" lon="03.750123"><ele>14</ele><time>2022-11-16T15:42:01Z</time><name>PT10441</name></trkpt>
<trkpt lat="51.591496" lon="03.750111"><ele>14</ele><time>2022-11-16T15:42:02Z</time><name>PT10442</name></trkpt>
<trkpt lat="51.591487" lon="03.750098"><ele>13.8</ele><time>2022-11-16T15:42:03Z</time><name>PT10443</name></trkpt>
<trkpt lat="51.591476" lon="03.750087"><ele>13.7</ele><time>2022-11-16T15:42:04Z</time><name>PT10444</name></trkpt>
<trkpt lat="51.591467" lon="03.750075"><ele>13.6</ele><time>2022-11-16T15:42:05Z</time><name>PT10445</name></trkpt>
<trkpt lat="51.591458" lon="03.750066"><ele>13.5</ele><time>2022-11-16T15:42:06Z</time><name>PT10446</name></trkpt>
<trkpt lat="51.591449" lon="03.750057"><ele>13.4</ele><time>2022-11-16T15:42:07Z</time><name>PT10447</name></trkpt>
<trkpt lat="51.591440" lon="03.750048"><ele>13.5</ele><time>2022-11-16T15:42:08Z</time><name>PT10448</name></trkpt>
<trkpt lat="51.591431" lon="03.750037"><ele>13.5</ele><time>2022-11-16T15:42:09Z</time><name>PT10449</name></trkpt>
<trkpt lat="51.591421" lon="03.750025"><ele>13.6</ele><time>2022-11-16T15:42:10Z</time><name>PT10450</name></trkpt>
<trkpt lat="51.591412" lon="03.750011"><ele>13.6</ele><time>2022-11-16T15:42:11Z</time><name>PT10451</name></trkpt>
<trkpt lat="51.591403" lon="03.749999"><ele>13.6</ele><time>2022-11-16T15:42:12Z</time><name>PT10452</name></trkpt>
<trkpt lat="51.591393" lon="03.749987"><ele>13.5</ele><time>2022-11-16T15:42:13Z</time><name>PT10453</name></trkpt>
<trkpt lat="51.591384" lon="03.749971"><ele>13.6</ele><time>2022-11-16T15:42:14Z</time><name>PT10454</name></trkpt>
<trkpt lat="51.591375" lon="03.749958"><ele>13.7</ele><time>2022-11-16T15:42:15Z</time><name>PT10455</name></trkpt>
<trkpt lat="51.591366" lon="03.749948"><ele>13.6</ele><time>2022-11-16T15:42:16Z</time><name>PT10456</name></trkpt>
<trkpt lat="51.591355" lon="03.749937"><ele>13.7</ele><time>2022-11-16T15:42:17Z</time><name>PT10457</name></trkpt>
<trkpt lat="51.591346" lon="03.749927"><ele>13.9</ele><time>2022-11-16T15:42:18Z</time><name>PT10458</name></trkpt>
<trkpt lat="51.591336" lon="03.749917"><ele>13.8</ele><time>2022-11-16T15:42:19Z</time><name>PT10459</name></trkpt>
<trkpt lat="51.591328" lon="03.749907"><ele>13.6</ele><time>2022-11-16T15:42:20Z</time><name>PT10460</name></trkpt>
<trkpt lat="51.591319" lon="03.749898"><ele>13.9</ele><time>2022-11-16T15:42:21Z</time><name>PT10461</name></trkpt>
<trkpt lat="51.591310" lon="03.749889"><ele>13.9</ele><time>2022-11-16T15:42:22Z</time><name>PT10462</name></trkpt>
<trkpt lat="51.591300" lon="03.749878"><ele>13.7</ele><time>2022-11-16T15:42:23Z</time><name>PT10463</name></trkpt>
<trkpt lat="51.591291" lon="03.749867"><ele>14.1</ele><time>2022-11-16T15:42:24Z</time><name>PT10464</name></trkpt>
<trkpt lat="51.591282" lon="03.749854"><ele>14.1</ele><time>2022-11-16T15:42:25Z</time><name>PT10465</name></trkpt>
<trkpt lat="51.591272" lon="03.749841"><ele>14</ele><time>2022-11-16T15:42:26Z</time><name>PT10466</name></trkpt>
<trkpt lat="51.591262" lon="03.749828"><ele>13.9</ele><time>2022-11-16T15:42:27Z</time><name>PT10467</name></trkpt>
<trkpt lat="51.591252" lon="03.749814"><ele>14.1</ele><time>2022-11-16T15:42:28Z</time><name>PT10468</name></trkpt>
<trkpt lat="51.591243" lon="03.749801"><ele>13.9</ele><time>2022-11-16T15:42:29Z</time><name>PT10469</name></trkpt>
<trkpt lat="51.591235" lon="03.749787"><ele>14</ele><time>2022-11-16T15:42:30Z</time><name>PT10470</name></trkpt>
<trkpt lat="51.591225" lon="03.749777"><ele>14</ele><time>2022-11-16T15:42:31Z</time><name>PT10471</name></trkpt>
<trkpt lat="51.591215" lon="03.749770"><ele>14</ele><time>2022-11-16T15:42:32Z</time><name>PT10472</name></trkpt>
<trkpt lat="51.591206" lon="03.749763"><ele>14</ele><time>2022-11-16T15:42:33Z</time><name>PT10473</name></trkpt>
<trkpt lat="51.591197" lon="03.749756"><ele>13.9</ele><time>2022-11-16T15:42:34Z</time><name>PT10474</name></trkpt>
<trkpt lat="51.591188" lon="03.749745"><ele>13.8</ele><time>2022-11-16T15:42:35Z</time><name>PT10475</name></trkpt>
<trkpt lat="51.591178" lon="03.749734"><ele>13.9</ele><time>2022-11-16T15:42:36Z</time><name>PT10476</name></trkpt>
<trkpt lat="51.591169" lon="03.749721"><ele>13.9</ele><time>2022-11-16T15:42:37Z</time><name>PT10477</name></trkpt>
<trkpt lat="51.591161" lon="03.749706"><ele>13.6</ele><time>2022-11-16T15:42:38Z</time><name>PT10478</name></trkpt>
<trkpt lat="51.591152" lon="03.749692"><ele>13.5</ele><time>2022-11-16T15:42:39Z</time><name>PT10479</name></trkpt>
<trkpt lat="51.591142" lon="03.749681"><ele>13.5</ele><time>2022-11-16T15:42:40Z</time><name>PT10480</name></trkpt>
<trkpt lat="51.591133" lon="03.749667"><ele>13.5</ele><time>2022-11-16T15:42:41Z</time><name>PT10481</name></trkpt>
<trkpt lat="51.591123" lon="03.749654"><ele>13.6</ele><time>2022-11-16T15:42:42Z</time><name>PT10482</name></trkpt>
<trkpt lat="51.591114" lon="03.749642"><ele>13.6</ele><time>2022-11-16T15:42:43Z</time><name>PT10483</name></trkpt>
<trkpt lat="51.591105" lon="03.749632"><ele>13.8</ele><time>2022-11-16T15:42:44Z</time><name>PT10484</name></trkpt>
<trkpt lat="51.591095" lon="03.749623"><ele>13.9</ele><time>2022-11-16T15:42:45Z</time><name>PT10485</name></trkpt>
<trkpt lat="51.591086" lon="03.749615"><ele>13.8</ele><time>2022-11-16T15:42:46Z</time><name>PT10486</name></trkpt>
<trkpt lat="51.591077" lon="03.749605"><ele>13.7</ele><time>2022-11-16T15:42:47Z</time><name>PT10487</name></trkpt>
<trkpt lat="51.591068" lon="03.749595"><ele>13.7</ele><time>2022-11-16T15:42:48Z</time><name>PT10488</name></trkpt>
<trkpt lat="51.591059" lon="03.749582"><ele>13.6</ele><time>2022-11-16T15:42:49Z</time><name>PT10489</name></trkpt>
<trkpt lat="51.591050" lon="03.749570"><ele>13.8</ele><time>2022-11-16T15:42:50Z</time><name>PT10490</name></trkpt>
<trkpt lat="51.591040" lon="03.749558"><ele>14</ele><time>2022-11-16T15:42:51Z</time><name>PT10491</name></trkpt>
<trkpt lat="51.591031" lon="03.749547"><ele>14.1</ele><time>2022-11-16T15:42:52Z</time><name>PT10492</name></trkpt>
<trkpt lat="51.591021" lon="03.749537"><ele>14.2</ele><time>2022-11-16T15:42:53Z</time><name>PT10493</name></trkpt>
<trkpt lat="51.591011" lon="03.749527"><ele>14.2</ele><time>2022-11-16T15:42:54Z</time><name>PT10494</name></trkpt>
<trkpt lat="51.591002" lon="03.749518"><ele>14.2</ele><time>2022-11-16T15:42:55Z</time><name>PT10495</name></trkpt>
<trkpt lat="51.590993" lon="03.749509"><ele>14.2</ele><time>2022-11-16T15:42:56Z</time><name>PT10496</name></trkpt>
<trkpt lat="51.590985" lon="03.749499"><ele>14.2</ele><time>2022-11-16T15:42:57Z</time><name>PT10497</name></trkpt>
<trkpt lat="51.590976" lon="03.749488"><ele>14.2</ele><time>2022-11-16T15:42:58Z</time><name>PT10498</name></trkpt>
<trkpt lat="51.590968" lon="03.749477"><ele>14.3</ele><time>2022-11-16T15:42:59Z</time><name>PT10499</name></trkpt>
<trkpt lat="51.590959" lon="03.749463"><ele>14.4</ele><time>2022-11-16T15:43:00Z</time><name>PT10500</name></trkpt>
<trkpt lat="51.590950" lon="03.749451"><ele>14.2</ele><time>2022-11-16T15:43:01Z</time><name>PT10501</name></trkpt>
<trkpt lat="51.590940" lon="03.749440"><ele>14.2</ele><time>2022-11-16T15:43:02Z</time><name>PT10502</name></trkpt>
<trkpt lat="51.590930" lon="03.749431"><ele>14.2</ele><time>2022-11-16T15:43:03Z</time><name>PT10503</name></trkpt>
<trkpt lat="51.590920" lon="03.749419"><ele>14.1</ele><time>2022-11-16T15:43:04Z</time><name>PT10504</name></trkpt>
<trkpt lat="51.590911" lon="03.749411"><ele>14.1</ele><time>2022-11-16T15:43:05Z</time><name>PT10505</name></trkpt>
<trkpt lat="51.590902" lon="03.749403"><ele>14.1</ele><time>2022-11-16T15:43:06Z</time><name>PT10506</name></trkpt>
<trkpt lat="51.590894" lon="03.749395"><ele>14.1</ele><time>2022-11-16T15:43:07Z</time><name>PT10507</name></trkpt>
<trkpt lat="51.590885" lon="03.749386"><ele>14.1</ele><time>2022-11-16T15:43:08Z</time><name>PT10508</name></trkpt>
<trkpt lat="51.590876" lon="03.749374"><ele>14.1</ele><time>2022-11-16T15:43:09Z</time><name>PT10509</name></trkpt>
<trkpt lat="51.590868" lon="03.749361"><ele>13.9</ele><time>2022-11-16T15:43:10Z</time><name>PT10510</name></trkpt>
<trkpt lat="51.590860" lon="03.749347"><ele>14</ele><time>2022-11-16T15:43:11Z</time><name>PT10511</name></trkpt>
<trkpt lat="51.590852" lon="03.749334"><ele>14.1</ele><time>2022-11-16T15:43:12Z</time><name>PT10512</name></trkpt>
<trkpt lat="51.590844" lon="03.749324"><ele>14</ele><time>2022-11-16T15:43:13Z</time><name>PT10513</name></trkpt>
<trkpt lat="51.590834" lon="03.749314"><ele>13.9</ele><time>2022-11-16T15:43:14Z</time><name>PT10514</name></trkpt>
<trkpt lat="51.590824" lon="03.749304"><ele>13.9</ele><time>2022-11-16T15:43:15Z</time><name>PT10515</name></trkpt>
<trkpt lat="51.590814" lon="03.749295"><ele>14</ele><time>2022-11-16T15:43:16Z</time><name>PT10516</name></trkpt>
<trkpt lat="51.590805" lon="03.749288"><ele>13.9</ele><time>2022-11-16T15:43:17Z</time><name>PT10517</name></trkpt>
<trkpt lat="51.590797" lon="03.749279"><ele>13.9</ele><time>2022-11-16T15:43:18Z</time><name>PT10518</name></trkpt>
<trkpt lat="51.590790" lon="03.749269"><ele>14</ele><time>2022-11-16T15:43:19Z</time><name>PT10519</name></trkpt>
<trkpt lat="51.590782" lon="03.749256"><ele>14.1</ele><time>2022-11-16T15:43:20Z</time><name>PT10520</name></trkpt>
<trkpt lat="51.590772" lon="03.749245"><ele>14.1</ele><time>2022-11-16T15:43:21Z</time><name>PT10521</name></trkpt>
<trkpt lat="51.590764" lon="03.749233"><ele>14.2</ele><time>2022-11-16T15:43:22Z</time><name>PT10522</name></trkpt>
<trkpt lat="51.590754" lon="03.749221"><ele>14.3</ele><time>2022-11-16T15:43:23Z</time><name>PT10523</name></trkpt>
<trkpt lat="51.590744" lon="03.749208"><ele>14.3</ele><time>2022-11-16T15:43:24Z</time><name>PT10524</name></trkpt>
<trkpt lat="51.590734" lon="03.749197"><ele>14.2</ele><time>2022-11-16T15:43:25Z</time><name>PT10525</name></trkpt>
<trkpt lat="51.590723" lon="03.749189"><ele>14.2</ele><time>2022-11-16T15:43:26Z</time><name>PT10526</name></trkpt>
<trkpt lat="51.590714" lon="03.749182"><ele>13.9</ele><time>2022-11-16T15:43:27Z</time><name>PT10527</name></trkpt>
<trkpt lat="51.590705" lon="03.749174"><ele>14</ele><time>2022-11-16T15:43:28Z</time><name>PT10528</name></trkpt>
<trkpt lat="51.590698" lon="03.749163"><ele>13.9</ele><time>2022-11-16T15:43:29Z</time><name>PT10529</name></trkpt>
<trkpt lat="51.590690" lon="03.749151"><ele>14.1</ele><time>2022-11-16T15:43:30Z</time><name>PT10530</name></trkpt>
<trkpt lat="51.590681" lon="03.749138"><ele>14.1</ele><time>2022-11-16T15:43:31Z</time><name>PT10531</name></trkpt>
<trkpt lat="51.590672" lon="03.749126"><ele>14.3</ele><time>2022-11-16T15:43:32Z</time><name>PT10532</name></trkpt>
<trkpt lat="51.590662" lon="03.749113"><ele>14.4</ele><time>2022-11-16T15:43:33Z</time><name>PT10533</name></trkpt>
<trkpt lat="51.590651" lon="03.749100"><ele>14.4</ele><time>2022-11-16T15:43:34Z</time><name>PT10534</name></trkpt>
<trkpt lat="51.590640" lon="03.749089"><ele>14.4</ele><time>2022-11-16T15:43:35Z</time><name>PT10535</name></trkpt>
<trkpt lat="51.590629" lon="03.749077"><ele>14.4</ele><time>2022-11-16T15:43:36Z</time><name>PT10536</name></trkpt>
<trkpt lat="51.590619" lon="03.749068"><ele>14.4</ele><time>2022-11-16T15:43:37Z</time><name>PT10537</name></trkpt>
<trkpt lat="51.590609" lon="03.749059"><ele>14.2</ele><time>2022-11-16T15:43:38Z</time><name>PT10538</name></trkpt>
<trkpt lat="51.590601" lon="03.749049"><ele>14.1</ele><time>2022-11-16T15:43:39Z</time><name>PT10539</name></trkpt>
<trkpt lat="51.590592" lon="03.749039"><ele>14.1</ele><time>2022-11-16T15:43:40Z</time><name>PT10540</name></trkpt>
<trkpt lat="51.590583" lon="03.749028"><ele>14.1</ele><time>2022-11-16T15:43:41Z</time><name>PT10541</name></trkpt>
<trkpt lat="51.590574" lon="03.749016"><ele>0</ele><time>2022-11-16T15:43:42Z</time><name>PT10542</name></trkpt>
<trkpt lat="51.590565" lon="03.749002"><ele>0</ele><time>2022-11-16T15:43:43Z</time><name>PT10543</name></trkpt>
<trkpt lat="51.590556" lon="03.748989"><ele>0.1</ele><time>2022-11-16T15:43:44Z</time><name>PT10544</name></trkpt>
<trkpt lat="51.590545" lon="03.748977"><ele>0.1</ele><time>2022-11-16T15:43:45Z</time><name>PT10545</name></trkpt>
<trkpt lat="51.590535" lon="03.748967"><ele>0</ele><time>2022-11-16T15:43:46Z</time><name>PT10546</name></trkpt>
<trkpt lat="51.590525" lon="03.748956"><ele>0</ele><time>2022-11-16T15:43:47Z</time><name>PT10547</name></trkpt>
<trkpt lat="51.590515" lon="03.748944"><ele>0.2</ele><time>2022-11-16T15:43:48Z</time><name>PT10548</name></trkpt>
<trkpt lat="51.590505" lon="03.748933"><ele>0.4</ele><time>2022-11-16T15:43:49Z</time><name>PT10549</name></trkpt>
<trkpt lat="51.590495" lon="03.748924"><ele>0.3</ele><time>2022-11-16T15:43:50Z</time><name>PT10550</name></trkpt>
<trkpt lat="51.590485" lon="03.748914"><ele>0.3</ele><time>2022-11-16T15:43:51Z</time><name>PT10551</name></trkpt>
<trkpt lat="51.590475" lon="03.748904"><ele>0.2</ele><time>2022-11-16T15:43:52Z</time><name>PT10552</name></trkpt>
<trkpt lat="51.590464" lon="03.748895"><ele>0</ele><time>2022-11-16T15:43:53Z</time><name>PT10553</name></trkpt>
<trkpt lat="51.590455" lon="03.748883"><ele>0</ele><time>2022-11-16T15:43:54Z</time><name>PT10554</name></trkpt>
<trkpt lat="51.590447" lon="03.748872"><ele>0.1</ele><time>2022-11-16T15:43:55Z</time><name>PT10555</name></trkpt>
<trkpt lat="51.590438" lon="03.748861"><ele>0.1</ele><time>2022-11-16T15:43:56Z</time><name>PT10556</name></trkpt>
<trkpt lat="51.590429" lon="03.748848"><ele>0.2</ele><time>2022-11-16T15:43:57Z</time><name>PT10557</name></trkpt>
<trkpt lat="51.590420" lon="03.748837"><ele>0.2</ele><time>2022-11-16T15:43:58Z</time><name>PT10558</name></trkpt>
<trkpt lat="51.590411" lon="03.748826"><ele>0.2</ele><time>2022-11-16T15:43:59Z</time><name>PT10559</name></trkpt>
<trkpt lat="51.590401" lon="03.748817"><ele>0.3</ele><time>2022-11-16T15:44:00Z</time><name>PT10560</name></trkpt>
<trkpt lat="51.590391" lon="03.748809"><ele>0.3</ele><time>2022-11-16T15:44:01Z</time><name>PT10561</name></trkpt>
<trkpt lat="51.590382" lon="03.748802"><ele>0.3</ele><time>2022-11-16T15:44:02Z</time><name>PT10562</name></trkpt>
<trkpt lat="51.590372" lon="03.748795"><ele>0.4</ele><time>2022-11-16T15:44:03Z</time><name>PT10563</name></trkpt>
<trkpt lat="51.590361" lon="03.748789"><ele>0.2</ele><time>2022-11-16T15:44:04Z</time><name>PT10564</name></trkpt>
<trkpt lat="51.590349" lon="03.748788"><ele>0.1</ele><time>2022-11-16T15:44:05Z</time><name>PT10565</name></trkpt>
<trkpt lat="51.590340" lon="03.748785"><ele>0</ele><time>2022-11-16T15:44:06Z</time><name>PT10566</name></trkpt>
<trkpt lat="51.590332" lon="03.748784"><ele>0</ele><time>2022-11-16T15:44:07Z</time><name>PT10567</name></trkpt>
<trkpt lat="51.590322" lon="03.748782"><ele>0</ele><time>2022-11-16T15:44:08Z</time><name>PT10568</name></trkpt>
<trkpt lat="51.590313" lon="03.748780"><ele>0</ele><time>2022-11-16T15:44:09Z</time><name>PT10569</name></trkpt>
<trkpt lat="51.590303" lon="03.748778"><ele>0</ele><time>2022-11-16T15:44:10Z</time><name>PT10570</name></trkpt>
<trkpt lat="51.590293" lon="03.748777"><ele>0</ele><time>2022-11-16T15:44:11Z</time><name>PT10571</name></trkpt>
<trkpt lat="51.590283" lon="03.748778"><ele>0</ele><time>2022-11-16T15:44:12Z</time><name>PT10572</name></trkpt>
<trkpt lat="51.590273" lon="03.748782"><ele>0</ele><time>2022-11-16T15:44:13Z</time><name>PT10573</name></trkpt>
<trkpt lat="51.590263" lon="03.748784"><ele>0</ele><time>2022-11-16T15:44:14Z</time><name>PT10574</name></trkpt>
<trkpt lat="51.590254" lon="03.748786"><ele>0</ele><time>2022-11-16T15:44:15Z</time><name>PT10575</name></trkpt>
<trkpt lat="51.590243" lon="03.748789"><ele>0</ele><time>2022-11-16T15:44:16Z</time><name>PT10576</name></trkpt>
<trkpt lat="51.590232" lon="03.748790"><ele>0.1</ele><time>2022-11-16T15:44:17Z</time><name>PT10577</name></trkpt>
<trkpt lat="51.590227" lon="03.748791"><ele>0.1</ele><time>2022-11-16T15:44:18Z</time><name>PT10578</name></trkpt>
<trkpt lat="51.590225" lon="03.748790"><ele>0</ele><time>2022-11-16T15:44:19Z</time><name>PT10579</name></trkpt>
<trkpt lat="51.590220" lon="03.748794"><ele>0</ele><time>2022-11-16T15:44:20Z</time><name>PT10580</name></trkpt>
<trkpt lat="51.590210" lon="03.748795"><ele>0</ele><time>2022-11-16T15:44:21Z</time><name>PT10581</name></trkpt>
<trkpt lat="51.590198" lon="03.748795"><ele>0</ele><time>2022-11-16T15:44:22Z</time><name>PT10582</name></trkpt>
<trkpt lat="51.590187" lon="03.748799"><ele>0</ele><time>2022-11-16T15:44:23Z</time><name>PT10583</name></trkpt>
<trkpt lat="51.590181" lon="03.748803"><ele>0</ele><time>2022-11-16T15:44:24Z</time><name>PT10584</name></trkpt>
<trkpt lat="51.590178" lon="03.748808"><ele>0.1</ele><time>2022-11-16T15:44:25Z</time><name>PT10585</name></trkpt>
<trkpt lat="51.590171" lon="03.748812"><ele>0.1</ele><time>2022-11-16T15:44:26Z</time><name>PT10586</name></trkpt>
<trkpt lat="51.590162" lon="03.748814"><ele>0.1</ele><time>2022-11-16T15:44:27Z</time><name>PT10587</name></trkpt>
<trkpt lat="51.590152" lon="03.748819"><ele>0</ele><time>2022-11-16T15:44:28Z</time><name>PT10588</name></trkpt>
<trkpt lat="51.590142" lon="03.748825"><ele>0</ele><time>2022-11-16T15:44:29Z</time><name>PT10589</name></trkpt>
<trkpt lat="51.590133" lon="03.748832"><ele>0</ele><time>2022-11-16T15:44:30Z</time><name>PT10590</name></trkpt>
<trkpt lat="51.590128" lon="03.748840"><ele>0</ele><time>2022-11-16T15:44:31Z</time><name>PT10591</name></trkpt>
<trkpt lat="51.590128" lon="03.748839"><ele>0.1</ele><time>2022-11-16T15:44:32Z</time><name>PT10592</name></trkpt>
<trkpt lat="51.590128" lon="03.748840"><ele>0.2</ele><time>2022-11-16T15:44:33Z</time><name>PT10593</name></trkpt>
<trkpt lat="51.590122" lon="03.748847"><ele>0.2</ele><time>2022-11-16T15:44:34Z</time><name>PT10594</name></trkpt>
<trkpt lat="51.590114" lon="03.748852"><ele>0.1</ele><time>2022-11-16T15:44:35Z</time><name>PT10595</name></trkpt>
<trkpt lat="51.590103" lon="03.748857"><ele>0.2</ele><time>2022-11-16T15:44:36Z</time><name>PT10596</name></trkpt>
<trkpt lat="51.590091" lon="03.748864"><ele>0.1</ele><time>2022-11-16T15:44:37Z</time><name>PT10597</name></trkpt>
<trkpt lat="51.590080" lon="03.748871"><ele>0</ele><time>2022-11-16T15:44:38Z</time><name>PT10598</name></trkpt>
<trkpt lat="51.590069" lon="03.748876"><ele>0</ele><time>2022-11-16T15:44:39Z</time><name>PT10599</name></trkpt>
<trkpt lat="51.590059" lon="03.748883"><ele>0.1</ele><time>2022-11-16T15:44:40Z</time><name>PT10600</name></trkpt>
<trkpt lat="51.590048" lon="03.748891"><ele>0.4</ele><time>2022-11-16T15:44:41Z</time><name>PT10601</name></trkpt>
<trkpt lat="51.590039" lon="03.748897"><ele>0.3</ele><time>2022-11-16T15:44:42Z</time><name>PT10602</name></trkpt>
<trkpt lat="51.590030" lon="03.748903"><ele>0.3</ele><time>2022-11-16T15:44:43Z</time><name>PT10603</name></trkpt>
<trkpt lat="51.590019" lon="03.748907"><ele>0.4</ele><time>2022-11-16T15:44:44Z</time><name>PT10604</name></trkpt>
<trkpt lat="51.590008" lon="03.748914"><ele>0.3</ele><time>2022-11-16T15:44:45Z</time><name>PT10605</name></trkpt>
<trkpt lat="51.589997" lon="03.748919"><ele>0.3</ele><time>2022-11-16T15:44:46Z</time><name>PT10606</name></trkpt>
<trkpt lat="51.589986" lon="03.748925"><ele>0.3</ele><time>2022-11-16T15:44:47Z</time><name>PT10607</name></trkpt>
<trkpt lat="51.589976" lon="03.748932"><ele>0.4</ele><time>2022-11-16T15:44:48Z</time><name>PT10608</name></trkpt>
<trkpt lat="51.589967" lon="03.748940"><ele>0.3</ele><time>2022-11-16T15:44:49Z</time><name>PT10609</name></trkpt>
<trkpt lat="51.589956" lon="03.748948"><ele>0.4</ele><time>2022-11-16T15:44:50Z</time><name>PT10610</name></trkpt>
<trkpt lat="51.589946" lon="03.748954"><ele>0.4</ele><time>2022-11-16T15:44:51Z</time><name>PT10611</name></trkpt>
<trkpt lat="51.589936" lon="03.748961"><ele>0.4</ele><time>2022-11-16T15:44:52Z</time><name>PT10612</name></trkpt>
<trkpt lat="51.589927" lon="03.748968"><ele>0.2</ele><time>2022-11-16T15:44:53Z</time><name>PT10613</name></trkpt>
<trkpt lat="51.589916" lon="03.748972"><ele>0</ele><time>2022-11-16T15:44:54Z</time><name>PT10614</name></trkpt>
<trkpt lat="51.589906" lon="03.748974"><ele>0</ele><time>2022-11-16T15:44:55Z</time><name>PT10615</name></trkpt>
<trkpt lat="51.589895" lon="03.748980"><ele>0</ele><time>2022-11-16T15:44:56Z</time><name>PT10616</name></trkpt>
<trkpt lat="51.589885" lon="03.748986"><ele>0.2</ele><time>2022-11-16T15:44:57Z</time><name>PT10617</name></trkpt>
<trkpt lat="51.589875" lon="03.748996"><ele>0.2</ele><time>2022-11-16T15:44:58Z</time><name>PT10618</name></trkpt>
<trkpt lat="51.589862" lon="03.749003"><ele>0.3</ele><time>2022-11-16T15:44:59Z</time><name>PT10619</name></trkpt>
<trkpt lat="51.589852" lon="03.749010"><ele>0.4</ele><time>2022-11-16T15:45:00Z</time><name>PT10620</name></trkpt>
<trkpt lat="51.589842" lon="03.749020"><ele>0.4</ele><time>2022-11-16T15:45:01Z</time><name>PT10621</name></trkpt>
<trkpt lat="51.589833" lon="03.749028"><ele>0.2</ele><time>2022-11-16T15:45:02Z</time><name>PT10622</name></trkpt>
<trkpt lat="51.589824" lon="03.749035"><ele>0.3</ele><time>2022-11-16T15:45:03Z</time><name>PT10623</name></trkpt>
<trkpt lat="51.589814" lon="03.749040"><ele>0.3</ele><time>2022-11-16T15:45:04Z</time><name>PT10624</name></trkpt>
<trkpt lat="51.589804" lon="03.749045"><ele>0.3</ele><time>2022-11-16T15:45:05Z</time><name>PT10625</name></trkpt>
<trkpt lat="51.589793" lon="03.749050"><ele>0.5</ele><time>2022-11-16T15:45:06Z</time><name>PT10626</name></trkpt>
<trkpt lat="51.589782" lon="03.749054"><ele>0.5</ele><time>2022-11-16T15:45:07Z</time><name>PT10627</name></trkpt>
<trkpt lat="51.589771" lon="03.749059"><ele>0.5</ele><time>2022-11-16T15:45:08Z</time><name>PT10628</name></trkpt>
<trkpt lat="51.589761" lon="03.749066"><ele>0.3</ele><time>2022-11-16T15:45:09Z</time><name>PT10629</name></trkpt>
<trkpt lat="51.589750" lon="03.749073"><ele>0.3</ele><time>2022-11-16T15:45:10Z</time><name>PT10630</name></trkpt>
<trkpt lat="51.589740" lon="03.749082"><ele>0.2</ele><time>2022-11-16T15:45:11Z</time><name>PT10631</name></trkpt>
<trkpt lat="51.589731" lon="03.749088"><ele>0.1</ele><time>2022-11-16T15:45:12Z</time><name>PT10632</name></trkpt>
<trkpt lat="51.589723" lon="03.749094"><ele>0.1</ele><time>2022-11-16T15:45:13Z</time><name>PT10633</name></trkpt>
<trkpt lat="51.589713" lon="03.749098"><ele>0</ele><time>2022-11-16T15:45:14Z</time><name>PT10634</name></trkpt>
<trkpt lat="51.589703" lon="03.749102"><ele>0.1</ele><time>2022-11-16T15:45:15Z</time><name>PT10635</name></trkpt>
<trkpt lat="51.589693" lon="03.749107"><ele>0.2</ele><time>2022-11-16T15:45:16Z</time><name>PT10636</name></trkpt>
<trkpt lat="51.589681" lon="03.749112"><ele>0.2</ele><time>2022-11-16T15:45:17Z</time><name>PT10637</name></trkpt>
<trkpt lat="51.589670" lon="03.749115"><ele>0.2</ele><time>2022-11-16T15:45:18Z</time><name>PT10638</name></trkpt>
<trkpt lat="51.589659" lon="03.749120"><ele>0.4</ele><time>2022-11-16T15:45:19Z</time><name>PT10639</name></trkpt>
<trkpt lat="51.589648" lon="03.749126"><ele>0.3</ele><time>2022-11-16T15:45:20Z</time><name>PT10640</name></trkpt>
<trkpt lat="51.589638" lon="03.749133"><ele>0.4</ele><time>2022-11-16T15:45:21Z</time><name>PT10641</name></trkpt>
<trkpt lat="51.589628" lon="03.749139"><ele>0.3</ele><time>2022-11-16T15:45:22Z</time><name>PT10642</name></trkpt>
<trkpt lat="51.589618" lon="03.749145"><ele>0.2</ele><time>2022-11-16T15:45:23Z</time><name>PT10643</name></trkpt>
<trkpt lat="51.589609" lon="03.749149"><ele>0.1</ele><time>2022-11-16T15:45:24Z</time><name>PT10644</name></trkpt>
<trkpt lat="51.589599" lon="03.749153"><ele>0</ele><time>2022-11-16T15:45:25Z</time><name>PT10645</name></trkpt>
<trkpt lat="51.589588" lon="03.749160"><ele>0</ele><time>2022-11-16T15:45:26Z</time><name>PT10646</name></trkpt>
<trkpt lat="51.589578" lon="03.749163"><ele>0.1</ele><time>2022-11-16T15:45:27Z</time><name>PT10647</name></trkpt>
<trkpt lat="51.589568" lon="03.749166"><ele>0.2</ele><time>2022-11-16T15:45:28Z</time><name>PT10648</name></trkpt>
<trkpt lat="51.589557" lon="03.749171"><ele>0.3</ele><time>2022-11-16T15:45:29Z</time><name>PT10649</name></trkpt>
<trkpt lat="51.589546" lon="03.749174"><ele>0</ele><time>2022-11-16T15:45:30Z</time><name>PT10650</name></trkpt>
<trkpt lat="51.589533" lon="03.749178"><ele>0</ele><time>2022-11-16T15:45:31Z</time><name>PT10651</name></trkpt>
<trkpt lat="51.589520" lon="03.749183"><ele>0.2</ele><time>2022-11-16T15:45:32Z</time><name>PT10652</name></trkpt>
<trkpt lat="51.589509" lon="03.749188"><ele>0.3</ele><time>2022-11-16T15:45:33Z</time><name>PT10653</name></trkpt>
<trkpt lat="51.589498" lon="03.749193"><ele>0.3</ele><time>2022-11-16T15:45:34Z</time><name>PT10654</name></trkpt>
<trkpt lat="51.589487" lon="03.749200"><ele>0.4</ele><time>2022-11-16T15:45:35Z</time><name>PT10655</name></trkpt>
<trkpt lat="51.589478" lon="03.749207"><ele>0.3</ele><time>2022-11-16T15:45:36Z</time><name>PT10656</name></trkpt>
<trkpt lat="51.589468" lon="03.749213"><ele>0.4</ele><time>2022-11-16T15:45:37Z</time><name>PT10657</name></trkpt>
<trkpt lat="51.589458" lon="03.749219"><ele>0.4</ele><time>2022-11-16T15:45:38Z</time><name>PT10658</name></trkpt>
<trkpt lat="51.589449" lon="03.749224"><ele>0.3</ele><time>2022-11-16T15:45:39Z</time><name>PT10659</name></trkpt>
<trkpt lat="51.589438" lon="03.749228"><ele>0.1</ele><time>2022-11-16T15:45:40Z</time><name>PT10660</name></trkpt>
<trkpt lat="51.589427" lon="03.749233"><ele>0</ele><time>2022-11-16T15:45:41Z</time><name>PT10661</name></trkpt>
<trkpt lat="51.589416" lon="03.749239"><ele>0</ele><time>2022-11-16T15:45:42Z</time><name>PT10662</name></trkpt>
<trkpt lat="51.589405" lon="03.749243"><ele>0</ele><time>2022-11-16T15:45:43Z</time><name>PT10663</name></trkpt>
<trkpt lat="51.589395" lon="03.749250"><ele>0</ele><time>2022-11-16T15:45:44Z</time><name>PT10664</name></trkpt>
<trkpt lat="51.589384" lon="03.749257"><ele>0.1</ele><time>2022-11-16T15:45:45Z</time><name>PT10665</name></trkpt>
<trkpt lat="51.589373" lon="03.749265"><ele>0</ele><time>2022-11-16T15:45:46Z</time><name>PT10666</name></trkpt>
<trkpt lat="51.589362" lon="03.749271"><ele>0</ele><time>2022-11-16T15:45:47Z</time><name>PT10667</name></trkpt>
<trkpt lat="51.589353" lon="03.749276"><ele>0</ele><time>2022-11-16T15:45:48Z</time><name>PT10668</name></trkpt>
<trkpt lat="51.589343" lon="03.749279"><ele>0.1</ele><time>2022-11-16T15:45:49Z</time><name>PT10669</name></trkpt>
<trkpt lat="51.589333" lon="03.749283"><ele>0.3</ele><time>2022-11-16T15:45:50Z</time><name>PT10670</name></trkpt>
<trkpt lat="51.589322" lon="03.749287"><ele>0.2</ele><time>2022-11-16T15:45:51Z</time><name>PT10671</name></trkpt>
<trkpt lat="51.589310" lon="03.749290"><ele>0.2</ele><time>2022-11-16T15:45:52Z</time><name>PT10672</name></trkpt>
<trkpt lat="51.589299" lon="03.749297"><ele>0</ele><time>2022-11-16T15:45:53Z</time><name>PT10673</name></trkpt>
<trkpt lat="51.589287" lon="03.749305"><ele>0</ele><time>2022-11-16T15:45:54Z</time><name>PT10674</name></trkpt>
<trkpt lat="51.589275" lon="03.749312"><ele>0.1</ele><time>2022-11-16T15:45:55Z</time><name>PT10675</name></trkpt>
<trkpt lat="51.589265" lon="03.749321"><ele>0.1</ele><time>2022-11-16T15:45:56Z</time><name>PT10676</name></trkpt>
<trkpt lat="51.589255" lon="03.749330"><ele>0.2</ele><time>2022-11-16T15:45:57Z</time><name>PT10677</name></trkpt>
<trkpt lat="51.589246" lon="03.749335"><ele>0</ele><time>2022-11-16T15:45:58Z</time><name>PT10678</name></trkpt>
<trkpt lat="51.589236" lon="03.749340"><ele>0</ele><time>2022-11-16T15:45:59Z</time><name>PT10679</name></trkpt>
<trkpt lat="51.589226" lon="03.749344"><ele>0.1</ele><time>2022-11-16T15:46:00Z</time><name>PT10680</name></trkpt>
<trkpt lat="51.589215" lon="03.749348"><ele>0</ele><time>2022-11-16T15:46:01Z</time><name>PT10681</name></trkpt>
<trkpt lat="51.589203" lon="03.749353"><ele>0</ele><time>2022-11-16T15:46:02Z</time><name>PT10682</name></trkpt>
<trkpt lat="51.589192" lon="03.749359"><ele>0</ele><time>2022-11-16T15:46:03Z</time><name>PT10683</name></trkpt>
<trkpt lat="51.589182" lon="03.749366"><ele>0</ele><time>2022-11-16T15:46:04Z</time><name>PT10684</name></trkpt>
<trkpt lat="51.589172" lon="03.749375"><ele>0</ele><time>2022-11-16T15:46:05Z</time><name>PT10685</name></trkpt>
<trkpt lat="51.589160" lon="03.749383"><ele>0.1</ele><time>2022-11-16T15:46:06Z</time><name>PT10686</name></trkpt>
<trkpt lat="51.589144" lon="03.749390"><ele>0.1</ele><time>2022-11-16T15:46:07Z</time><name>PT10687</name></trkpt>
<trkpt lat="51.589130" lon="03.749398"><ele>0.1</ele><time>2022-11-16T15:46:08Z</time><name>PT10688</name></trkpt>
<trkpt lat="51.589118" lon="03.749406"><ele>0</ele><time>2022-11-16T15:46:09Z</time><name>PT10689</name></trkpt>
<trkpt lat="51.589107" lon="03.749413"><ele>0</ele><time>2022-11-16T15:46:10Z</time><name>PT10690</name></trkpt>
<trkpt lat="51.589097" lon="03.749418"><ele>0</ele><time>2022-11-16T15:46:11Z</time><name>PT10691</name></trkpt>
<trkpt lat="51.589085" lon="03.749424"><ele>0</ele><time>2022-11-16T15:46:12Z</time><name>PT10692</name></trkpt>
<trkpt lat="51.589074" lon="03.749428"><ele>0.1</ele><time>2022-11-16T15:46:13Z</time><name>PT10693</name></trkpt>
<trkpt lat="51.589062" lon="03.749433"><ele>0.2</ele><time>2022-11-16T15:46:14Z</time><name>PT10694</name></trkpt>
<trkpt lat="51.589051" lon="03.749439"><ele>0.2</ele><time>2022-11-16T15:46:15Z</time><name>PT10695</name></trkpt>
<trkpt lat="51.589039" lon="03.749445"><ele>0.2</ele><time>2022-11-16T15:46:16Z</time><name>PT10696</name></trkpt>
<trkpt lat="51.589027" lon="03.749450"><ele>0.3</ele><time>2022-11-16T15:46:17Z</time><name>PT10697</name></trkpt>
<trkpt lat="51.589016" lon="03.749457"><ele>0</ele><time>2022-11-16T15:46:18Z</time><name>PT10698</name></trkpt>
<trkpt lat="51.589004" lon="03.749464"><ele>0</ele><time>2022-11-16T15:46:19Z</time><name>PT10699</name></trkpt>
<trkpt lat="51.588993" lon="03.749471"><ele>0</ele><time>2022-11-16T15:46:20Z</time><name>PT10700</name></trkpt>
<trkpt lat="51.588982" lon="03.749478"><ele>0</ele><time>2022-11-16T15:46:21Z</time><name>PT10701</name></trkpt>
<trkpt lat="51.588972" lon="03.749486"><ele>0</ele><time>2022-11-16T15:46:22Z</time><name>PT10702</name></trkpt>
<trkpt lat="51.588962" lon="03.749494"><ele>0.1</ele><time>2022-11-16T15:46:23Z</time><name>PT10703</name></trkpt>
<trkpt lat="51.588952" lon="03.749500"><ele>0.2</ele><time>2022-11-16T15:46:24Z</time><name>PT10704</name></trkpt>
<trkpt lat="51.588941" lon="03.749505"><ele>0.1</ele><time>2022-11-16T15:46:25Z</time><name>PT10705</name></trkpt>
<trkpt lat="51.588930" lon="03.749512"><ele>0.1</ele><time>2022-11-16T15:46:26Z</time><name>PT10706</name></trkpt>
<trkpt lat="51.588918" lon="03.749518"><ele>0</ele><time>2022-11-16T15:46:27Z</time><name>PT10707</name></trkpt>
<trkpt lat="51.588907" lon="03.749523"><ele>0</ele><time>2022-11-16T15:46:28Z</time><name>PT10708</name></trkpt>
<trkpt lat="51.588895" lon="03.749528"><ele>0</ele><time>2022-11-16T15:46:29Z</time><name>PT10709</name></trkpt>
<trkpt lat="51.588884" lon="03.749535"><ele>0</ele><time>2022-11-16T15:46:30Z</time><name>PT10710</name></trkpt>
<trkpt lat="51.588873" lon="03.749543"><ele>0.1</ele><time>2022-11-16T15:46:31Z</time><name>PT10711</name></trkpt>
<trkpt lat="51.588862" lon="03.749550"><ele>0</ele><time>2022-11-16T15:46:32Z</time><name>PT10712</name></trkpt>
<trkpt lat="51.588852" lon="03.749556"><ele>0.1</ele><time>2022-11-16T15:46:33Z</time><name>PT10713</name></trkpt>
<trkpt lat="51.588842" lon="03.749562"><ele>0</ele><time>2022-11-16T15:46:34Z</time><name>PT10714</name></trkpt>
<trkpt lat="51.588834" lon="03.749568"><ele>0.1</ele><time>2022-11-16T15:46:35Z</time><name>PT10715</name></trkpt>
<trkpt lat="51.588824" lon="03.749573"><ele>0</ele><time>2022-11-16T15:46:36Z</time><name>PT10716</name></trkpt>
<trkpt lat="51.588813" lon="03.749578"><ele>0</ele><time>2022-11-16T15:46:37Z</time><name>PT10717</name></trkpt>
<trkpt lat="51.588801" lon="03.749587"><ele>0</ele><time>2022-11-16T15:46:38Z</time><name>PT10718</name></trkpt>
<trkpt lat="51.588790" lon="03.749592"><ele>0</ele><time>2022-11-16T15:46:39Z</time><name>PT10719</name></trkpt>
<trkpt lat="51.588778" lon="03.749601"><ele>0</ele><time>2022-11-16T15:46:40Z</time><name>PT10720</name></trkpt>
<trkpt lat="51.588767" lon="03.749607"><ele>0.1</ele><time>2022-11-16T15:46:41Z</time><name>PT10721</name></trkpt>
<trkpt lat="51.588756" lon="03.749613"><ele>0.1</ele><time>2022-11-16T15:46:42Z</time><name>PT10722</name></trkpt>
<trkpt lat="51.588747" lon="03.749619"><ele>0.1</ele><time>2022-11-16T15:46:43Z</time><name>PT10723</name></trkpt>
<trkpt lat="51.588739" lon="03.749624"><ele>0</ele><time>2022-11-16T15:46:44Z</time><name>PT10724</name></trkpt>
<trkpt lat="51.588726" lon="03.749628"><ele>0.2</ele><time>2022-11-16T15:46:45Z</time><name>PT10725</name></trkpt>
<trkpt lat="51.588714" lon="03.749635"><ele>0.1</ele><time>2022-11-16T15:46:46Z</time><name>PT10726</name></trkpt>
<trkpt lat="51.588703" lon="03.749642"><ele>0.1</ele><time>2022-11-16T15:46:47Z</time><name>PT10727</name></trkpt>
<trkpt lat="51.588693" lon="03.749646"><ele>0</ele><time>2022-11-16T15:46:48Z</time><name>PT10728</name></trkpt>
<trkpt lat="51.588681" lon="03.749653"><ele>0.2</ele><time>2022-11-16T15:46:49Z</time><name>PT10729</name></trkpt>
<trkpt lat="51.588669" lon="03.749660"><ele>0.1</ele><time>2022-11-16T15:46:50Z</time><name>PT10730</name></trkpt>
<trkpt lat="51.588658" lon="03.749667"><ele>0.2</ele><time>2022-11-16T15:46:51Z</time><name>PT10731</name></trkpt>
<trkpt lat="51.588647" lon="03.749675"><ele>0.2</ele><time>2022-11-16T15:46:52Z</time><name>PT10732</name></trkpt>
<trkpt lat="51.588636" lon="03.749686"><ele>0.2</ele><time>2022-11-16T15:46:53Z</time><name>PT10733</name></trkpt>
<trkpt lat="51.588626" lon="03.749691"><ele>0.2</ele><time>2022-11-16T15:46:54Z</time><name>PT10734</name></trkpt>
<trkpt lat="51.588616" lon="03.749699"><ele>0.2</ele><time>2022-11-16T15:46:55Z</time><name>PT10735</name></trkpt>
<trkpt lat="51.588608" lon="03.749707"><ele>0.4</ele><time>2022-11-16T15:46:56Z</time><name>PT10736</name></trkpt>
<trkpt lat="51.588599" lon="03.749712"><ele>0.5</ele><time>2022-11-16T15:46:57Z</time><name>PT10737</name></trkpt>
<trkpt lat="51.588589" lon="03.749715"><ele>0.5</ele><time>2022-11-16T15:46:58Z</time><name>PT10738</name></trkpt>
<trkpt lat="51.588579" lon="03.749724"><ele>0.5</ele><time>2022-11-16T15:46:59Z</time><name>PT10739</name></trkpt>
<trkpt lat="51.588568" lon="03.749729"><ele>0.5</ele><time>2022-11-16T15:47:00Z</time><name>PT10740</name></trkpt>
<trkpt lat="51.588558" lon="03.749734"><ele>0.4</ele><time>2022-11-16T15:47:01Z</time><name>PT10741</name></trkpt>
<trkpt lat="51.588546" lon="03.749738"><ele>0.4</ele><time>2022-11-16T15:47:02Z</time><name>PT10742</name></trkpt>
<trkpt lat="51.588536" lon="03.749744"><ele>0.3</ele><time>2022-11-16T15:47:03Z</time><name>PT10743</name></trkpt>
<trkpt lat="51.588525" lon="03.749751"><ele>0.2</ele><time>2022-11-16T15:47:04Z</time><name>PT10744</name></trkpt>
<trkpt lat="51.588515" lon="03.749758"><ele>0.2</ele><time>2022-11-16T15:47:05Z</time><name>PT10745</name></trkpt>
<trkpt lat="51.588504" lon="03.749768"><ele>0.1</ele><time>2022-11-16T15:47:06Z</time><name>PT10746</name></trkpt>
<trkpt lat="51.588494" lon="03.749778"><ele>0.1</ele><time>2022-11-16T15:47:07Z</time><name>PT10747</name></trkpt>
<trkpt lat="51.588483" lon="03.749786"><ele>0.1</ele><time>2022-11-16T15:47:08Z</time><name>PT10748</name></trkpt>
<trkpt lat="51.588473" lon="03.749793"><ele>0.1</ele><time>2022-11-16T15:47:09Z</time><name>PT10749</name></trkpt>
<trkpt lat="51.588464" lon="03.749800"><ele>0</ele><time>2022-11-16T15:47:10Z</time><name>PT10750</name></trkpt>
<trkpt lat="51.588455" lon="03.749806"><ele>0</ele><time>2022-11-16T15:47:11Z</time><name>PT10751</name></trkpt>
<trkpt lat="51.588445" lon="03.749812"><ele>0.2</ele><time>2022-11-16T15:47:12Z</time><name>PT10752</name></trkpt>
<trkpt lat="51.588435" lon="03.749816"><ele>0.3</ele><time>2022-11-16T15:47:13Z</time><name>PT10753</name></trkpt>
<trkpt lat="51.588424" lon="03.749822"><ele>0.2</ele><time>2022-11-16T15:47:14Z</time><name>PT10754</name></trkpt>
<trkpt lat="51.588414" lon="03.749830"><ele>0.1</ele><time>2022-11-16T15:47:15Z</time><name>PT10755</name></trkpt>
<trkpt lat="51.588402" lon="03.749834"><ele>0.2</ele><time>2022-11-16T15:47:16Z</time><name>PT10756</name></trkpt>
<trkpt lat="51.588391" lon="03.749839"><ele>0</ele><time>2022-11-16T15:47:17Z</time><name>PT10757</name></trkpt>
<trkpt lat="51.588379" lon="03.749846"><ele>0</ele><time>2022-11-16T15:47:18Z</time><name>PT10758</name></trkpt>
<trkpt lat="51.588368" lon="03.749853"><ele>0.1</ele><time>2022-11-16T15:47:19Z</time><name>PT10759</name></trkpt>
<trkpt lat="51.588357" lon="03.749860"><ele>0.3</ele><time>2022-11-16T15:47:20Z</time><name>PT10760</name></trkpt>
<trkpt lat="51.588345" lon="03.749868"><ele>0</ele><time>2022-11-16T15:47:21Z</time><name>PT10761</name></trkpt>
<trkpt lat="51.588332" lon="03.749879"><ele>0.1</ele><time>2022-11-16T15:47:22Z</time><name>PT10762</name></trkpt>
<trkpt lat="51.588322" lon="03.749885"><ele>0.2</ele><time>2022-11-16T15:47:23Z</time><name>PT10763</name></trkpt>
<trkpt lat="51.588312" lon="03.749891"><ele>0</ele><time>2022-11-16T15:47:24Z</time><name>PT10764</name></trkpt>
<trkpt lat="51.588302" lon="03.749896"><ele>0</ele><time>2022-11-16T15:47:25Z</time><name>PT10765</name></trkpt>
<trkpt lat="51.588293" lon="03.749901"><ele>0.1</ele><time>2022-11-16T15:47:26Z</time><name>PT10766</name></trkpt>
<trkpt lat="51.588283" lon="03.749907"><ele>0</ele><time>2022-11-16T15:47:27Z</time><name>PT10767</name></trkpt>
<trkpt lat="51.588272" lon="03.749913"><ele>0</ele><time>2022-11-16T15:47:28Z</time><name>PT10768</name></trkpt>
<trkpt lat="51.588261" lon="03.749917"><ele>0</ele><time>2022-11-16T15:47:29Z</time><name>PT10769</name></trkpt>
<trkpt lat="51.588250" lon="03.749921"><ele>0.1</ele><time>2022-11-16T15:47:30Z</time><name>PT10770</name></trkpt>
<trkpt lat="51.588239" lon="03.749925"><ele>0</ele><time>2022-11-16T15:47:31Z</time><name>PT10771</name></trkpt>
<trkpt lat="51.588228" lon="03.749930"><ele>0</ele><time>2022-11-16T15:47:32Z</time><name>PT10772</name></trkpt>
<trkpt lat="51.588217" lon="03.749936"><ele>0</ele><time>2022-11-16T15:47:33Z</time><name>PT10773</name></trkpt>
<trkpt lat="51.588206" lon="03.749944"><ele>0</ele><time>2022-11-16T15:47:34Z</time><name>PT10774</name></trkpt>
<trkpt lat="51.588195" lon="03.749952"><ele>0</ele><time>2022-11-16T15:47:35Z</time><name>PT10775</name></trkpt>
<trkpt lat="51.588183" lon="03.749962"><ele>0.1</ele><time>2022-11-16T15:47:36Z</time><name>PT10776</name></trkpt>
<trkpt lat="51.588173" lon="03.749970"><ele>0</ele><time>2022-11-16T15:47:37Z</time><name>PT10777</name></trkpt>
<trkpt lat="51.588163" lon="03.749977"><ele>0.2</ele><time>2022-11-16T15:47:38Z</time><name>PT10778</name></trkpt>
<trkpt lat="51.588154" lon="03.749982"><ele>0.2</ele><time>2022-11-16T15:47:39Z</time><name>PT10779</name></trkpt>
<trkpt lat="51.588145" lon="03.749986"><ele>0.1</ele><time>2022-11-16T15:47:40Z</time><name>PT10780</name></trkpt>
<trkpt lat="51.588134" lon="03.749993"><ele>0</ele><time>2022-11-16T15:47:41Z</time><name>PT10781</name></trkpt>
<trkpt lat="51.588121" lon="03.750001"><ele>0</ele><time>2022-11-16T15:47:42Z</time><name>PT10782</name></trkpt>
<trkpt lat="51.588110" lon="03.750006"><ele>0</ele><time>2022-11-16T15:47:43Z</time><name>PT10783</name></trkpt>
<trkpt lat="51.588100" lon="03.750010"><ele>0</ele><time>2022-11-16T15:47:44Z</time><name>PT10784</name></trkpt>
<trkpt lat="51.588087" lon="03.750016"><ele>0</ele><time>2022-11-16T15:47:45Z</time><name>PT10785</name></trkpt>
<trkpt lat="51.588076" lon="03.750024"><ele>0</ele><time>2022-11-16T15:47:46Z</time><name>PT10786</name></trkpt>
<trkpt lat="51.588063" lon="03.750033"><ele>0.1</ele><time>2022-11-16T15:47:47Z</time><name>PT10787</name></trkpt>
<trkpt lat="51.588054" lon="03.750038"><ele>0</ele><time>2022-11-16T15:47:48Z</time><name>PT10788</name></trkpt>
<trkpt lat="51.588044" lon="03.750048"><ele>0</ele><time>2022-11-16T15:47:49Z</time><name>PT10789</name></trkpt>
<trkpt lat="51.588034" lon="03.750054"><ele>0</ele><time>2022-11-16T15:47:50Z</time><name>PT10790</name></trkpt>
<trkpt lat="51.588025" lon="03.750059"><ele>0</ele><time>2022-11-16T15:47:51Z</time><name>PT10791</name></trkpt>
<trkpt lat="51.588014" lon="03.750064"><ele>0</ele><time>2022-11-16T15:47:52Z</time><name>PT10792</name></trkpt>
<trkpt lat="51.588004" lon="03.750070"><ele>0.2</ele><time>2022-11-16T15:47:53Z</time><name>PT10793</name></trkpt>
<trkpt lat="51.587992" lon="03.750077"><ele>0</ele><time>2022-11-16T15:47:54Z</time><name>PT10794</name></trkpt>
<trkpt lat="51.587980" lon="03.750084"><ele>0.1</ele><time>2022-11-16T15:47:55Z</time><name>PT10795</name></trkpt>
<trkpt lat="51.587969" lon="03.750091"><ele>0.2</ele><time>2022-11-16T15:47:56Z</time><name>PT10796</name></trkpt>
<trkpt lat="51.587964" lon="03.750096"><ele>0</ele><time>2022-11-16T15:47:57Z</time><name>PT10797</name></trkpt>
<trkpt lat="51.587959" lon="03.750115"><ele>0</ele><time>2022-11-16T15:47:58Z</time><name>PT10798</name></trkpt>
<trkpt lat="51.587952" lon="03.750124"><ele>0.1</ele><time>2022-11-16T15:47:59Z</time><name>PT10799</name></trkpt>
<trkpt lat="51.587943" lon="03.750133"><ele>0.1</ele><time>2022-11-16T15:48:00Z</time><name>PT10800</name></trkpt>
<trkpt lat="51.587935" lon="03.750143"><ele>0</ele><time>2022-11-16T15:48:01Z</time><name>PT10801</name></trkpt>
<trkpt lat="51.587925" lon="03.750150"><ele>0.2</ele><time>2022-11-16T15:48:02Z</time><name>PT10802</name></trkpt>
<trkpt lat="51.587915" lon="03.750156"><ele>0.4</ele><time>2022-11-16T15:48:03Z</time><name>PT10803</name></trkpt>
<trkpt lat="51.587906" lon="03.750162"><ele>0.3</ele><time>2022-11-16T15:48:04Z</time><name>PT10804</name></trkpt>
<trkpt lat="51.587895" lon="03.750167"><ele>0.2</ele><time>2022-11-16T15:48:05Z</time><name>PT10805</name></trkpt>
<trkpt lat="51.587885" lon="03.750175"><ele>0.3</ele><time>2022-11-16T15:48:06Z</time><name>PT10806</name></trkpt>
<trkpt lat="51.587876" lon="03.750182"><ele>0.1</ele><time>2022-11-16T15:48:07Z</time><name>PT10807</name></trkpt>
<trkpt lat="51.587868" lon="03.750190"><ele>0.2</ele><time>2022-11-16T15:48:08Z</time><name>PT10808</name></trkpt>
<trkpt lat="51.587859" lon="03.750196"><ele>0.2</ele><time>2022-11-16T15:48:09Z</time><name>PT10809</name></trkpt>
<trkpt lat="51.587849" lon="03.750204"><ele>0.2</ele><time>2022-11-16T15:48:10Z</time><name>PT10810</name></trkpt>
<trkpt lat="51.587840" lon="03.750211"><ele>0.3</ele><time>2022-11-16T15:48:11Z</time><name>PT10811</name></trkpt>
<trkpt lat="51.587830" lon="03.750218"><ele>0.4</ele><time>2022-11-16T15:48:12Z</time><name>PT10812</name></trkpt>
<trkpt lat="51.587820" lon="03.750224"><ele>0.4</ele><time>2022-11-16T15:48:13Z</time><name>PT10813</name></trkpt>
<trkpt lat="51.587811" lon="03.750231"><ele>0.4</ele><time>2022-11-16T15:48:14Z</time><name>PT10814</name></trkpt>
<trkpt lat="51.587802" lon="03.750237"><ele>0.3</ele><time>2022-11-16T15:48:15Z</time><name>PT10815</name></trkpt>
<trkpt lat="51.587794" lon="03.750242"><ele>0.2</ele><time>2022-11-16T15:48:16Z</time><name>PT10816</name></trkpt>
<trkpt lat="51.587785" lon="03.750250"><ele>0.2</ele><time>2022-11-16T15:48:17Z</time><name>PT10817</name></trkpt>
<trkpt lat="51.587775" lon="03.750257"><ele>0.1</ele><time>2022-11-16T15:48:18Z</time><name>PT10818</name></trkpt>
<trkpt lat="51.587766" lon="03.750263"><ele>0</ele><time>2022-11-16T15:48:19Z</time><name>PT10819</name></trkpt>
<trkpt lat="51.587758" lon="03.750267"><ele>0.1</ele><time>2022-11-16T15:48:20Z</time><name>PT10820</name></trkpt>
<trkpt lat="51.587746" lon="03.750274"><ele>0.1</ele><time>2022-11-16T15:48:21Z</time><name>PT10821</name></trkpt>
<trkpt lat="51.587735" lon="03.750283"><ele>0.1</ele><time>2022-11-16T15:48:22Z</time><name>PT10822</name></trkpt>
<trkpt lat="51.587726" lon="03.750293"><ele>0.2</ele><time>2022-11-16T15:48:23Z</time><name>PT10823</name></trkpt>
<trkpt lat="51.587718" lon="03.750298"><ele>0.3</ele><time>2022-11-16T15:48:24Z</time><name>PT10824</name></trkpt>
<trkpt lat="51.587710" lon="03.750303"><ele>0.2</ele><time>2022-11-16T15:48:25Z</time><name>PT10825</name></trkpt>
<trkpt lat="51.587699" lon="03.750308"><ele>0.2</ele><time>2022-11-16T15:48:26Z</time><name>PT10826</name></trkpt>
<trkpt lat="51.587689" lon="03.750315"><ele>0.1</ele><time>2022-11-16T15:48:27Z</time><name>PT10827</name></trkpt>
<trkpt lat="51.587681" lon="03.750319"><ele>0</ele><time>2022-11-16T15:48:28Z</time><name>PT10828</name></trkpt>
<trkpt lat="51.587673" lon="03.750320"><ele>0</ele><time>2022-11-16T15:48:29Z</time><name>PT10829</name></trkpt>
<trkpt lat="51.587664" lon="03.750324"><ele>0</ele><time>2022-11-16T15:48:30Z</time><name>PT10830</name></trkpt>
<trkpt lat="51.587656" lon="03.750328"><ele>0</ele><time>2022-11-16T15:48:31Z</time><name>PT10831</name></trkpt>
<trkpt lat="51.587647" lon="03.750333"><ele>0.1</ele><time>2022-11-16T15:48:32Z</time><name>PT10832</name></trkpt>
<trkpt lat="51.587636" lon="03.750339"><ele>0.2</ele><time>2022-11-16T15:48:33Z</time><name>PT10833</name></trkpt>
<trkpt lat="51.587624" lon="03.750344"><ele>0.3</ele><time>2022-11-16T15:48:34Z</time><name>PT10834</name></trkpt>
<trkpt lat="51.587615" lon="03.750347"><ele>0.2</ele><time>2022-11-16T15:48:35Z</time><name>PT10835</name></trkpt>
<trkpt lat="51.587605" lon="03.750350"><ele>0.5</ele><time>2022-11-16T15:48:36Z</time><name>PT10836</name></trkpt>
<trkpt lat="51.587595" lon="03.750354"><ele>0.4</ele><time>2022-11-16T15:48:37Z</time><name>PT10837</name></trkpt>
<trkpt lat="51.587584" lon="03.750360"><ele>0.5</ele><time>2022-11-16T15:48:38Z</time><name>PT10838</name></trkpt>
<trkpt lat="51.587577" lon="03.750368"><ele>0.5</ele><time>2022-11-16T15:48:39Z</time><name>PT10839</name></trkpt>
<trkpt lat="51.587565" lon="03.750372"><ele>0.6</ele><time>2022-11-16T15:48:40Z</time><name>PT10840</name></trkpt>
<trkpt lat="51.587554" lon="03.750376"><ele>0.5</ele><time>2022-11-16T15:48:41Z</time><name>PT10841</name></trkpt>
<trkpt lat="51.587541" lon="03.750378"><ele>0.5</ele><time>2022-11-16T15:48:42Z</time><name>PT10842</name></trkpt>
<trkpt lat="51.587531" lon="03.750381"><ele>0.4</ele><time>2022-11-16T15:48:43Z</time><name>PT10843</name></trkpt>
<trkpt lat="51.587520" lon="03.750385"><ele>0.4</ele><time>2022-11-16T15:48:44Z</time><name>PT10844</name></trkpt>
<trkpt lat="51.587510" lon="03.750389"><ele>0.3</ele><time>2022-11-16T15:48:45Z</time><name>PT10845</name></trkpt>
<trkpt lat="51.587500" lon="03.750395"><ele>0.3</ele><time>2022-11-16T15:48:46Z</time><name>PT10846</name></trkpt>
<trkpt lat="51.587492" lon="03.750402"><ele>0.4</ele><time>2022-11-16T15:48:47Z</time><name>PT10847</name></trkpt>
<trkpt lat="51.587484" lon="03.750409"><ele>0.4</ele><time>2022-11-16T15:48:48Z</time><name>PT10848</name></trkpt>
<trkpt lat="51.587474" lon="03.750414"><ele>0.4</ele><time>2022-11-16T15:48:49Z</time><name>PT10849</name></trkpt>
<trkpt lat="51.587465" lon="03.750418"><ele>0.3</ele><time>2022-11-16T15:48:50Z</time><name>PT10850</name></trkpt>
<trkpt lat="51.587457" lon="03.750422"><ele>0.3</ele><time>2022-11-16T15:48:51Z</time><name>PT10851</name></trkpt>
<trkpt lat="51.587449" lon="03.750428"><ele>0.2</ele><time>2022-11-16T15:48:52Z</time><name>PT10852</name></trkpt>
<trkpt lat="51.587441" lon="03.750433"><ele>0.2</ele><time>2022-11-16T15:48:53Z</time><name>PT10853</name></trkpt>
<trkpt lat="51.587433" lon="03.750435"><ele>0.2</ele><time>2022-11-16T15:48:54Z</time><name>PT10854</name></trkpt>
<trkpt lat="51.587426" lon="03.750437"><ele>0.3</ele><time>2022-11-16T15:48:55Z</time><name>PT10855</name></trkpt>
<trkpt lat="51.587418" lon="03.750441"><ele>0.2</ele><time>2022-11-16T15:48:56Z</time><name>PT10856</name></trkpt>
<trkpt lat="51.587410" lon="03.750444"><ele>0.4</ele><time>2022-11-16T15:48:57Z</time><name>PT10857</name></trkpt>
<trkpt lat="51.587402" lon="03.750445"><ele>0.4</ele><time>2022-11-16T15:48:58Z</time><name>PT10858</name></trkpt>
<trkpt lat="51.587395" lon="03.750448"><ele>0.4</ele><time>2022-11-16T15:48:59Z</time><name>PT10859</name></trkpt>
<trkpt lat="51.587387" lon="03.750451"><ele>0.5</ele><time>2022-11-16T15:49:00Z</time><name>PT10860</name></trkpt>
<trkpt lat="51.587380" lon="03.750450"><ele>0.5</ele><time>2022-11-16T15:49:01Z</time><name>PT10861</name></trkpt>
<trkpt lat="51.587374" lon="03.750453"><ele>0.5</ele><time>2022-11-16T15:49:02Z</time><name>PT10862</name></trkpt>
<trkpt lat="51.587370" lon="03.750459"><ele>0.6</ele><time>2022-11-16T15:49:03Z</time><name>PT10863</name></trkpt>
<trkpt lat="51.587365" lon="03.750461"><ele>0.5</ele><time>2022-11-16T15:49:04Z</time><name>PT10864</name></trkpt>
<trkpt lat="51.587363" lon="03.750460"><ele>0.5</ele><time>2022-11-16T15:49:05Z</time><name>PT10865</name></trkpt>
<trkpt lat="51.587362" lon="03.750459"><ele>0.4</ele><time>2022-11-16T15:49:06Z</time><name>PT10866</name></trkpt>
<trkpt lat="51.587362" lon="03.750459"><ele>0.3</ele><time>2022-11-16T15:49:07Z</time><name>PT10867</name></trkpt>
<trkpt lat="51.587358" lon="03.750460"><ele>0.4</ele><time>2022-11-16T15:49:09Z</time><name>PT10868</name></trkpt>
<trkpt lat="51.587353" lon="03.750461"><ele>0.4</ele><time>2022-11-16T15:49:10Z</time><name>PT10869</name></trkpt>
<trkpt lat="51.587346" lon="03.750466"><ele>0.4</ele><time>2022-11-16T15:49:11Z</time><name>PT10870</name></trkpt>
<trkpt lat="51.587338" lon="03.750465"><ele>0.2</ele><time>2022-11-16T15:49:12Z</time><name>PT10871</name></trkpt>
<trkpt lat="51.587332" lon="03.750467"><ele>0</ele><time>2022-11-16T15:49:13Z</time><name>PT10872</name></trkpt>
<trkpt lat="51.587324" lon="03.750469"><ele>0</ele><time>2022-11-16T15:49:14Z</time><name>PT10873</name></trkpt>
<trkpt lat="51.587317" lon="03.750465"><ele>0</ele><time>2022-11-16T15:49:15Z</time><name>PT10874</name></trkpt>
<trkpt lat="51.587311" lon="03.750462"><ele>0</ele><time>2022-11-16T15:49:16Z</time><name>PT10875</name></trkpt>
<trkpt lat="51.587304" lon="03.750460"><ele>0.1</ele><time>2022-11-16T15:49:17Z</time><name>PT10876</name></trkpt>
<trkpt lat="51.587299" lon="03.750458"><ele>0.2</ele><time>2022-11-16T15:49:18Z</time><name>PT10877</name></trkpt>
<trkpt lat="51.587295" lon="03.750460"><ele>0.2</ele><time>2022-11-16T15:49:19Z</time><name>PT10878</name></trkpt>
<trkpt lat="51.587292" lon="03.750461"><ele>0.2</ele><time>2022-11-16T15:49:20Z</time><name>PT10879</name></trkpt>
<trkpt lat="51.587287" lon="03.750459"><ele>0.3</ele><time>2022-11-16T15:49:21Z</time><name>PT10880</name></trkpt>
<trkpt lat="51.587285" lon="03.750461"><ele>0.2</ele><time>2022-11-16T15:49:22Z</time><name>PT10881</name></trkpt>
<trkpt lat="51.587281" lon="03.750460"><ele>0.2</ele><time>2022-11-16T15:49:23Z</time><name>PT10882</name></trkpt>
<trkpt lat="51.587276" lon="03.750458"><ele>0</ele><time>2022-11-16T15:49:24Z</time><name>PT10883</name></trkpt>
<trkpt lat="51.587272" lon="03.750453"><ele>0</ele><time>2022-11-16T15:49:25Z</time><name>PT10884</name></trkpt>
<trkpt lat="51.587267" lon="03.750448"><ele>0</ele><time>2022-11-16T15:49:26Z</time><name>PT10885</name></trkpt>
<trkpt lat="51.587261" lon="03.750445"><ele>0</ele><time>2022-11-16T15:49:27Z</time><name>PT10886</name></trkpt>
<trkpt lat="51.587254" lon="03.750443"><ele>0</ele><time>2022-11-16T15:49:28Z</time><name>PT10887</name></trkpt>
<trkpt lat="51.587249" lon="03.750443"><ele>0</ele><time>2022-11-16T15:49:29Z</time><name>PT10888</name></trkpt>
<trkpt lat="51.587244" lon="03.750438"><ele>0</ele><time>2022-11-16T15:49:30Z</time><name>PT10889</name></trkpt>
<trkpt lat="51.587242" lon="03.750430"><ele>0.1</ele><time>2022-11-16T15:49:31Z</time><name>PT10890</name></trkpt>
<trkpt lat="51.587240" lon="03.750422"><ele>0</ele><time>2022-11-16T15:49:32Z</time><name>PT10891</name></trkpt>
<trkpt lat="51.587238" lon="03.750421"><ele>0</ele><time>2022-11-16T15:49:33Z</time><name>PT10892</name></trkpt>
<trkpt lat="51.587238" lon="03.750420"><ele>0.3</ele><time>2022-11-16T15:49:34Z</time><name>PT10893</name></trkpt>
<trkpt lat="51.587237" lon="03.750420"><ele>0.4</ele><time>2022-11-16T15:49:35Z</time><name>PT10894</name></trkpt>
<trkpt lat="51.587237" lon="03.750400"><ele>0.1</ele><time>2022-11-16T15:49:41Z</time><name>PT10895</name></trkpt>
<trkpt lat="51.587234" lon="03.750382"><ele>0.2</ele><time>2022-11-16T15:49:42Z</time><name>PT10896</name></trkpt>
<trkpt lat="51.587230" lon="03.750369"><ele>0.2</ele><time>2022-11-16T15:49:43Z</time><name>PT10897</name></trkpt>
<trkpt lat="51.587225" lon="03.750358"><ele>0.3</ele><time>2022-11-16T15:49:44Z</time><name>PT10898</name></trkpt>
<trkpt lat="51.587220" lon="03.750345"><ele>0.3</ele><time>2022-11-16T15:49:45Z</time><name>PT10899</name></trkpt>
<trkpt lat="51.587215" lon="03.750332"><ele>0.2</ele><time>2022-11-16T15:49:46Z</time><name>PT10900</name></trkpt>
<trkpt lat="51.587212" lon="03.750318"><ele>0.3</ele><time>2022-11-16T15:49:47Z</time><name>PT10901</name></trkpt>
<trkpt lat="51.587207" lon="03.750304"><ele>0.2</ele><time>2022-11-16T15:49:48Z</time><name>PT10902</name></trkpt>
<trkpt lat="51.587203" lon="03.750291"><ele>0.1</ele><time>2022-11-16T15:49:49Z</time><name>PT10903</name></trkpt>
<trkpt lat="51.587199" lon="03.750276"><ele>0</ele><time>2022-11-16T15:49:50Z</time><name>PT10904</name></trkpt>
<trkpt lat="51.587195" lon="03.750261"><ele>0.2</ele><time>2022-11-16T15:49:51Z</time><name>PT10905</name></trkpt>
<trkpt lat="51.587189" lon="03.750247"><ele>0.3</ele><time>2022-11-16T15:49:52Z</time><name>PT10906</name></trkpt>
<trkpt lat="51.587185" lon="03.750230"><ele>0.5</ele><time>2022-11-16T15:49:53Z</time><name>PT10907</name></trkpt>
<trkpt lat="51.587181" lon="03.750213"><ele>0.7</ele><time>2022-11-16T15:49:54Z</time><name>PT10908</name></trkpt>
<trkpt lat="51.587179" lon="03.750199"><ele>0.7</ele><time>2022-11-16T15:49:55Z</time><name>PT10909</name></trkpt>
<trkpt lat="51.587174" lon="03.750184"><ele>0.6</ele><time>2022-11-16T15:49:56Z</time><name>PT10910</name></trkpt>
<trkpt lat="51.587168" lon="03.750169"><ele>0.7</ele><time>2022-11-16T15:49:57Z</time><name>PT10911</name></trkpt>
<trkpt lat="51.587165" lon="03.750157"><ele>0.7</ele><time>2022-11-16T15:49:58Z</time><name>PT10912</name></trkpt>
<trkpt lat="51.587162" lon="03.750143"><ele>0.5</ele><time>2022-11-16T15:49:59Z</time><name>PT10913</name></trkpt>
<trkpt lat="51.587159" lon="03.750130"><ele>0.5</ele><time>2022-11-16T15:50:00Z</time><name>PT10914</name></trkpt>
<trkpt lat="51.587153" lon="03.750114"><ele>0.5</ele><time>2022-11-16T15:50:01Z</time><name>PT10915</name></trkpt>
<trkpt lat="51.587150" lon="03.750100"><ele>0.5</ele><time>2022-11-16T15:50:02Z</time><name>PT10916</name></trkpt>
<trkpt lat="51.587146" lon="03.750086"><ele>0.4</ele><time>2022-11-16T15:50:03Z</time><name>PT10917</name></trkpt>
<trkpt lat="51.587142" lon="03.750072"><ele>0.5</ele><time>2022-11-16T15:50:04Z</time><name>PT10918</name></trkpt>
<trkpt lat="51.587138" lon="03.750056"><ele>0.5</ele><time>2022-11-16T15:50:05Z</time><name>PT10919</name></trkpt>
<trkpt lat="51.587135" lon="03.750040"><ele>0.4</ele><time>2022-11-16T15:50:06Z</time><name>PT10920</name></trkpt>
<trkpt lat="51.587132" lon="03.750024"><ele>0.5</ele><time>2022-11-16T15:50:07Z</time><name>PT10921</name></trkpt>
<trkpt lat="51.587129" lon="03.750007"><ele>0.5</ele><time>2022-11-16T15:50:08Z</time><name>PT10922</name></trkpt>
<trkpt lat="51.587123" lon="03.749992"><ele>0.5</ele><time>2022-11-16T15:50:09Z</time><name>PT10923</name></trkpt>
<trkpt lat="51.587117" lon="03.749974"><ele>0.5</ele><time>2022-11-16T15:50:10Z</time><name>PT10924</name></trkpt>
<trkpt lat="51.587113" lon="03.749958"><ele>0.6</ele><time>2022-11-16T15:50:11Z</time><name>PT10925</name></trkpt>
<trkpt lat="51.587109" lon="03.749943"><ele>0.6</ele><time>2022-11-16T15:50:12Z</time><name>PT10926</name></trkpt>
<trkpt lat="51.587105" lon="03.749928"><ele>0.6</ele><time>2022-11-16T15:50:13Z</time><name>PT10927</name></trkpt>
<trkpt lat="51.587101" lon="03.749914"><ele>0.6</ele><time>2022-11-16T15:50:14Z</time><name>PT10928</name></trkpt>
<trkpt lat="51.587099" lon="03.749899"><ele>0.5</ele><time>2022-11-16T15:50:15Z</time><name>PT10929</name></trkpt>
<trkpt lat="51.587093" lon="03.749882"><ele>0.5</ele><time>2022-11-16T15:50:16Z</time><name>PT10930</name></trkpt>
<trkpt lat="51.587088" lon="03.749864"><ele>0.5</ele><time>2022-11-16T15:50:17Z</time><name>PT10931</name></trkpt>
<trkpt lat="51.587083" lon="03.749847"><ele>0.7</ele><time>2022-11-16T15:50:18Z</time><name>PT10932</name></trkpt>
<trkpt lat="51.587080" lon="03.749831"><ele>0.7</ele><time>2022-11-16T15:50:19Z</time><name>PT10933</name></trkpt>
<trkpt lat="51.587076" lon="03.749816"><ele>0.8</ele><time>2022-11-16T15:50:20Z</time><name>PT10934</name></trkpt>
<trkpt lat="51.587074" lon="03.749802"><ele>0.5</ele><time>2022-11-16T15:50:21Z</time><name>PT10935</name></trkpt>
<trkpt lat="51.587071" lon="03.749785"><ele>0.4</ele><time>2022-11-16T15:50:22Z</time><name>PT10936</name></trkpt>
<trkpt lat="51.587067" lon="03.749767"><ele>0.3</ele><time>2022-11-16T15:50:23Z</time><name>PT10937</name></trkpt>
<trkpt lat="51.587065" lon="03.749750"><ele>0.4</ele><time>2022-11-16T15:50:24Z</time><name>PT10938</name></trkpt>
<trkpt lat="51.587062" lon="03.749734"><ele>0.4</ele><time>2022-11-16T15:50:25Z</time><name>PT10939</name></trkpt>
<trkpt lat="51.587058" lon="03.749718"><ele>0.5</ele><time>2022-11-16T15:50:26Z</time><name>PT10940</name></trkpt>
<trkpt lat="51.587054" lon="03.749703"><ele>0.5</ele><time>2022-11-16T15:50:27Z</time><name>PT10941</name></trkpt>
<trkpt lat="51.587051" lon="03.749686"><ele>0.5</ele><time>2022-11-16T15:50:28Z</time><name>PT10942</name></trkpt>
<trkpt lat="51.587049" lon="03.749670"><ele>0.4</ele><time>2022-11-16T15:50:29Z</time><name>PT10943</name></trkpt>
<trkpt lat="51.587047" lon="03.749654"><ele>0.6</ele><time>2022-11-16T15:50:30Z</time><name>PT10944</name></trkpt>
<trkpt lat="51.587043" lon="03.749639"><ele>0.6</ele><time>2022-11-16T15:50:31Z</time><name>PT10945</name></trkpt>
<trkpt lat="51.587040" lon="03.749626"><ele>0.6</ele><time>2022-11-16T15:50:32Z</time><name>PT10946</name></trkpt>
<trkpt lat="51.587035" lon="03.749612"><ele>0.5</ele><time>2022-11-16T15:50:33Z</time><name>PT10947</name></trkpt>
<trkpt lat="51.587032" lon="03.749598"><ele>0.5</ele><time>2022-11-16T15:50:34Z</time><name>PT10948</name></trkpt>
<trkpt lat="51.587029" lon="03.749585"><ele>0.3</ele><time>2022-11-16T15:50:35Z</time><name>PT10949</name></trkpt>
<trkpt lat="51.587027" lon="03.749571"><ele>0.4</ele><time>2022-11-16T15:50:36Z</time><name>PT10950</name></trkpt>
<trkpt lat="51.587022" lon="03.749556"><ele>0.5</ele><time>2022-11-16T15:50:37Z</time><name>PT10951</name></trkpt>
<trkpt lat="51.587014" lon="03.749543"><ele>0.6</ele><time>2022-11-16T15:50:38Z</time><name>PT10952</name></trkpt>
<trkpt lat="51.587011" lon="03.749530"><ele>0.7</ele><time>2022-11-16T15:50:39Z</time><name>PT10953</name></trkpt>
<trkpt lat="51.587005" lon="03.749518"><ele>0.7</ele><time>2022-11-16T15:50:40Z</time><name>PT10954</name></trkpt>
<trkpt lat="51.587001" lon="03.749505"><ele>0.7</ele><time>2022-11-16T15:50:41Z</time><name>PT10955</name></trkpt>
<trkpt lat="51.586998" lon="03.749490"><ele>0.6</ele><time>2022-11-16T15:50:42Z</time><name>PT10956</name></trkpt>
<trkpt lat="51.586994" lon="03.749473"><ele>0.6</ele><time>2022-11-16T15:50:43Z</time><name>PT10957</name></trkpt>
<trkpt lat="51.586991" lon="03.749458"><ele>0.6</ele><time>2022-11-16T15:50:44Z</time><name>PT10958</name></trkpt>
<trkpt lat="51.586987" lon="03.749444"><ele>0.5</ele><time>2022-11-16T15:50:45Z</time><name>PT10959</name></trkpt>
<trkpt lat="51.586984" lon="03.749431"><ele>0.5</ele><time>2022-11-16T15:50:46Z</time><name>PT10960</name></trkpt>
<trkpt lat="51.586978" lon="03.749421"><ele>0.5</ele><time>2022-11-16T15:50:47Z</time><name>PT10961</name></trkpt>
<trkpt lat="51.586974" lon="03.749413"><ele>0.5</ele><time>2022-11-16T15:50:48Z</time><name>PT10962</name></trkpt>
<trkpt lat="51.586972" lon="03.749405"><ele>0.5</ele><time>2022-11-16T15:50:49Z</time><name>PT10963</name></trkpt>
<trkpt lat="51.586967" lon="03.749398"><ele>0.7</ele><time>2022-11-16T15:50:50Z</time><name>PT10964</name></trkpt>
<trkpt lat="51.586967" lon="03.749396"><ele>0.7</ele><time>2022-11-16T15:50:51Z</time><name>PT10965</name></trkpt>
<trkpt lat="51.586968" lon="03.749394"><ele>0.7</ele><time>2022-11-16T15:50:52Z</time><name>PT10966</name></trkpt>
<trkpt lat="51.586967" lon="03.749394"><ele>0.7</ele><time>2022-11-16T15:50:53Z</time><name>PT10967</name></trkpt>
<trkpt lat="51.586966" lon="03.749386"><ele>0.4</ele><time>2022-11-16T15:51:01Z</time><name>PT10968</name></trkpt>
<trkpt lat="51.586963" lon="03.749377"><ele>0.5</ele><time>2022-11-16T15:51:02Z</time><name>PT10969</name></trkpt>
<trkpt lat="51.586959" lon="03.749367"><ele>0.5</ele><time>2022-11-16T15:51:03Z</time><name>PT10970</name></trkpt>
<trkpt lat="51.586955" lon="03.749359"><ele>0.5</ele><time>2022-11-16T15:51:04Z</time><name>PT10971</name></trkpt>
<trkpt lat="51.586951" lon="03.749351"><ele>0.6</ele><time>2022-11-16T15:51:05Z</time><name>PT10972</name></trkpt>
<trkpt lat="51.586948" lon="03.749340"><ele>0.5</ele><time>2022-11-16T15:51:06Z</time><name>PT10973</name></trkpt>
<trkpt lat="51.586944" lon="03.749330"><ele>0.5</ele><time>2022-11-16T15:51:07Z</time><name>PT10974</name></trkpt>
<trkpt lat="51.586939" lon="03.749322"><ele>0.5</ele><time>2022-11-16T15:51:08Z</time><name>PT10975</name></trkpt>
<trkpt lat="51.586937" lon="03.749312"><ele>0.5</ele><time>2022-11-16T15:51:09Z</time><name>PT10976</name></trkpt>
<trkpt lat="51.586931" lon="03.749301"><ele>0.6</ele><time>2022-11-16T15:51:10Z</time><name>PT10977</name></trkpt>
<trkpt lat="51.586922" lon="03.749291"><ele>0.6</ele><time>2022-11-16T15:51:11Z</time><name>PT10978</name></trkpt>
<trkpt lat="51.586919" lon="03.749285"><ele>0.6</ele><time>2022-11-16T15:51:12Z</time><name>PT10979</name></trkpt>
<trkpt lat="51.586915" lon="03.749276"><ele>0.7</ele><time>2022-11-16T15:51:13Z</time><name>PT10980</name></trkpt>
<trkpt lat="51.586911" lon="03.749265"><ele>0.8</ele><time>2022-11-16T15:51:14Z</time><name>PT10981</name></trkpt>
<trkpt lat="51.586907" lon="03.749253"><ele>0.9</ele><time>2022-11-16T15:51:15Z</time><name>PT10982</name></trkpt>
<trkpt lat="51.586903" lon="03.749242"><ele>-1</ele><time>2022-11-16T15:51:16Z</time><name>PT10983</name></trkpt>
<trkpt lat="51.586897" lon="03.749232"><ele>-1.1</ele><time>2022-11-16T15:51:17Z</time><name>PT10984</name></trkpt>
<trkpt lat="51.586890" lon="03.749223"><ele>-1</ele><time>2022-11-16T15:51:18Z</time><name>PT10985</name></trkpt>
<trkpt lat="51.586887" lon="03.749215"><ele>-1</ele><time>2022-11-16T15:51:19Z</time><name>PT10986</name></trkpt>
<trkpt lat="51.586883" lon="03.749206"><ele>-1</ele><time>2022-11-16T15:51:20Z</time><name>PT10987</name></trkpt>
<trkpt lat="51.586878" lon="03.749199"><ele>-1</ele><time>2022-11-16T15:51:21Z</time><name>PT10988</name></trkpt>
<trkpt lat="51.586875" lon="03.749191"><ele>-1</ele><time>2022-11-16T15:51:22Z</time><name>PT10989</name></trkpt>
<trkpt lat="51.586872" lon="03.749182"><ele>-1</ele><time>2022-11-16T15:51:23Z</time><name>PT10990</name></trkpt>
<trkpt lat="51.586869" lon="03.749172"><ele>-1.1</ele><time>2022-11-16T15:51:24Z</time><name>PT10991</name></trkpt>
<trkpt lat="51.586865" lon="03.749163"><ele>-1</ele><time>2022-11-16T15:51:25Z</time><name>PT10992</name></trkpt>
<trkpt lat="51.586861" lon="03.749154"><ele>-1.1</ele><time>2022-11-16T15:51:26Z</time><name>PT10993</name></trkpt>
<trkpt lat="51.586858" lon="03.749144"><ele>-1</ele><time>2022-11-16T15:51:27Z</time><name>PT10994</name></trkpt>
<trkpt lat="51.586855" lon="03.749135"><ele>-1.2</ele><time>2022-11-16T15:51:28Z</time><name>PT10995</name></trkpt>
<trkpt lat="51.586852" lon="03.749124"><ele>-1.3</ele><time>2022-11-16T15:51:29Z</time><name>PT10996</name></trkpt>
<trkpt lat="51.586848" lon="03.749114"><ele>-1.6</ele><time>2022-11-16T15:51:30Z</time><name>PT10997</name></trkpt>
<trkpt lat="51.586846" lon="03.749103"><ele>-1.6</ele><time>2022-11-16T15:51:31Z</time><name>PT10998</name></trkpt>
<trkpt lat="51.586844" lon="03.749091"><ele>-1.8</ele><time>2022-11-16T15:51:32Z</time><name>PT10999</name></trkpt>
<trkpt lat="51.586841" lon="03.749079"><ele>-1.7</ele><time>2022-11-16T15:51:33Z</time><name>PT11000</name></trkpt>
<trkpt lat="51.586837" lon="03.749069"><ele>-1.7</ele><time>2022-11-16T15:51:34Z</time><name>PT11001</name></trkpt>
<trkpt lat="51.586832" lon="03.749059"><ele>-1.6</ele><time>2022-11-16T15:51:35Z</time><name>PT11002</name></trkpt>
<trkpt lat="51.586829" lon="03.749048"><ele>-1.4</ele><time>2022-11-16T15:51:36Z</time><name>PT11003</name></trkpt>
<trkpt lat="51.586826" lon="03.749039"><ele>-1.5</ele><time>2022-11-16T15:51:37Z</time><name>PT11004</name></trkpt>
<trkpt lat="51.586821" lon="03.749029"><ele>-1.4</ele><time>2022-11-16T15:51:38Z</time><name>PT11005</name></trkpt>
<trkpt lat="51.586817" lon="03.749019"><ele>-1.5</ele><time>2022-11-16T15:51:39Z</time><name>PT11006</name></trkpt>
<trkpt lat="51.586812" lon="03.749010"><ele>-1.7</ele><time>2022-11-16T15:51:40Z</time><name>PT11007</name></trkpt>
<trkpt lat="51.586810" lon="03.748995"><ele>-1.9</ele><time>2022-11-16T15:51:41Z</time><name>PT11008</name></trkpt>
<trkpt lat="51.586807" lon="03.748980"><ele>-2</ele><time>2022-11-16T15:51:42Z</time><name>PT11009</name></trkpt>
<trkpt lat="51.586803" lon="03.748969"><ele>-2.1</ele><time>2022-11-16T15:51:43Z</time><name>PT11010</name></trkpt>
<trkpt lat="51.586799" lon="03.748956"><ele>-2.2</ele><time>2022-11-16T15:51:44Z</time><name>PT11011</name></trkpt>
<trkpt lat="51.586797" lon="03.748941"><ele>-2.3</ele><time>2022-11-16T15:51:45Z</time><name>PT11012</name></trkpt>
<trkpt lat="51.586796" lon="03.748926"><ele>-2.4</ele><time>2022-11-16T15:51:46Z</time><name>PT11013</name></trkpt>
<trkpt lat="51.586793" lon="03.748912"><ele>-2.4</ele><time>2022-11-16T15:51:47Z</time><name>PT11014</name></trkpt>
<trkpt lat="51.586790" lon="03.748900"><ele>-2.3</ele><time>2022-11-16T15:51:48Z</time><name>PT11015</name></trkpt>
<trkpt lat="51.586787" lon="03.748890"><ele>-2.3</ele><time>2022-11-16T15:51:49Z</time><name>PT11016</name></trkpt>
<trkpt lat="51.586782" lon="03.748876"><ele>-2.2</ele><time>2022-11-16T15:51:50Z</time><name>PT11017</name></trkpt>
<trkpt lat="51.586780" lon="03.748862"><ele>-2.1</ele><time>2022-11-16T15:51:51Z</time><name>PT11018</name></trkpt>
<trkpt lat="51.586778" lon="03.748848"><ele>-2.2</ele><time>2022-11-16T15:51:52Z</time><name>PT11019</name></trkpt>
<trkpt lat="51.586775" lon="03.748834"><ele>-2.2</ele><time>2022-11-16T15:51:53Z</time><name>PT11020</name></trkpt>
<trkpt lat="51.586771" lon="03.748819"><ele>-2.2</ele><time>2022-11-16T15:51:54Z</time><name>PT11021</name></trkpt>
<trkpt lat="51.586767" lon="03.748807"><ele>-2.1</ele><time>2022-11-16T15:51:55Z</time><name>PT11022</name></trkpt>
<trkpt lat="51.586763" lon="03.748794"><ele>-2.3</ele><time>2022-11-16T15:51:56Z</time><name>PT11023</name></trkpt>
<trkpt lat="51.586759" lon="03.748779"><ele>-2.2</ele><time>2022-11-16T15:51:57Z</time><name>PT11024</name></trkpt>
<trkpt lat="51.586756" lon="03.748766"><ele>-2.4</ele><time>2022-11-16T15:51:58Z</time><name>PT11025</name></trkpt>
<trkpt lat="51.586754" lon="03.748752"><ele>-2.4</ele><time>2022-11-16T15:51:59Z</time><name>PT11026</name></trkpt>
<trkpt lat="51.586752" lon="03.748739"><ele>-2.3</ele><time>2022-11-16T15:52:00Z</time><name>PT11027</name></trkpt>
<trkpt lat="51.586748" lon="03.748723"><ele>-2.3</ele><time>2022-11-16T15:52:01Z</time><name>PT11028</name></trkpt>
<trkpt lat="51.586746" lon="03.748709"><ele>-2.3</ele><time>2022-11-16T15:52:02Z</time><name>PT11029</name></trkpt>
<trkpt lat="51.586743" lon="03.748694"><ele>-2.3</ele><time>2022-11-16T15:52:03Z</time><name>PT11030</name></trkpt>
<trkpt lat="51.586741" lon="03.748678"><ele>-2.3</ele><time>2022-11-16T15:52:04Z</time><name>PT11031</name></trkpt>
<trkpt lat="51.586737" lon="03.748663"><ele>-2.4</ele><time>2022-11-16T15:52:05Z</time><name>PT11032</name></trkpt>
<trkpt lat="51.586732" lon="03.748649"><ele>-2.6</ele><time>2022-11-16T15:52:06Z</time><name>PT11033</name></trkpt>
<trkpt lat="51.586729" lon="03.748636"><ele>-2.4</ele><time>2022-11-16T15:52:07Z</time><name>PT11034</name></trkpt>
<trkpt lat="51.586727" lon="03.748620"><ele>-2.3</ele><time>2022-11-16T15:52:08Z</time><name>PT11035</name></trkpt>
<trkpt lat="51.586725" lon="03.748606"><ele>-2.4</ele><time>2022-11-16T15:52:09Z</time><name>PT11036</name></trkpt>
<trkpt lat="51.586723" lon="03.748593"><ele>-2.5</ele><time>2022-11-16T15:52:10Z</time><name>PT11037</name></trkpt>
<trkpt lat="51.586720" lon="03.748577"><ele>-2.2</ele><time>2022-11-16T15:52:11Z</time><name>PT11038</name></trkpt>
<trkpt lat="51.586714" lon="03.748560"><ele>-2.3</ele><time>2022-11-16T15:52:12Z</time><name>PT11039</name></trkpt>
<trkpt lat="51.586708" lon="03.748545"><ele>-2.3</ele><time>2022-11-16T15:52:13Z</time><name>PT11040</name></trkpt>
<trkpt lat="51.586703" lon="03.748529"><ele>-2.3</ele><time>2022-11-16T15:52:14Z</time><name>PT11041</name></trkpt>
<trkpt lat="51.586697" lon="03.748515"><ele>-2.4</ele><time>2022-11-16T15:52:15Z</time><name>PT11042</name></trkpt>
<trkpt lat="51.586690" lon="03.748501"><ele>-2.5</ele><time>2022-11-16T15:52:16Z</time><name>PT11043</name></trkpt>
<trkpt lat="51.586682" lon="03.748488"><ele>-2.6</ele><time>2022-11-16T15:52:17Z</time><name>PT11044</name></trkpt>
<trkpt lat="51.586675" lon="03.748475"><ele>-2.7</ele><time>2022-11-16T15:52:18Z</time><name>PT11045</name></trkpt>
<trkpt lat="51.586668" lon="03.748465"><ele>-2.7</ele><time>2022-11-16T15:52:19Z</time><name>PT11046</name></trkpt>
<trkpt lat="51.586661" lon="03.748454"><ele>-2.6</ele><time>2022-11-16T15:52:20Z</time><name>PT11047</name></trkpt>
<trkpt lat="51.586654" lon="03.748443"><ele>-2.5</ele><time>2022-11-16T15:52:21Z</time><name>PT11048</name></trkpt>
<trkpt lat="51.586646" lon="03.748432"><ele>-2.5</ele><time>2022-11-16T15:52:22Z</time><name>PT11049</name></trkpt>
<trkpt lat="51.586638" lon="03.748425"><ele>-2.4</ele><time>2022-11-16T15:52:23Z</time><name>PT11050</name></trkpt>
<trkpt lat="51.586629" lon="03.748417"><ele>-2.4</ele><time>2022-11-16T15:52:24Z</time><name>PT11051</name></trkpt>
<trkpt lat="51.586621" lon="03.748410"><ele>-2.4</ele><time>2022-11-16T15:52:25Z</time><name>PT11052</name></trkpt>
<trkpt lat="51.586615" lon="03.748402"><ele>-2.6</ele><time>2022-11-16T15:52:26Z</time><name>PT11053</name></trkpt>
<trkpt lat="51.586608" lon="03.748393"><ele>-2.6</ele><time>2022-11-16T15:52:27Z</time><name>PT11054</name></trkpt>
<trkpt lat="51.586600" lon="03.748379"><ele>-2.6</ele><time>2022-11-16T15:52:28Z</time><name>PT11055</name></trkpt>
<trkpt lat="51.586593" lon="03.748368"><ele>-2.6</ele><time>2022-11-16T15:52:29Z</time><name>PT11056</name></trkpt>
<trkpt lat="51.586586" lon="03.748358"><ele>-2.6</ele><time>2022-11-16T15:52:30Z</time><name>PT11057</name></trkpt>
<trkpt lat="51.586578" lon="03.748345"><ele>-2.6</ele><time>2022-11-16T15:52:31Z</time><name>PT11058</name></trkpt>
<trkpt lat="51.586573" lon="03.748337"><ele>-2.5</ele><time>2022-11-16T15:52:32Z</time><name>PT11059</name></trkpt>
<trkpt lat="51.586567" lon="03.748327"><ele>-2.4</ele><time>2022-11-16T15:52:33Z</time><name>PT11060</name></trkpt>
<trkpt lat="51.586558" lon="03.748317"><ele>-2.3</ele><time>2022-11-16T15:52:34Z</time><name>PT11061</name></trkpt>
<trkpt lat="51.586552" lon="03.748306"><ele>-2.4</ele><time>2022-11-16T15:52:35Z</time><name>PT11062</name></trkpt>
<trkpt lat="51.586546" lon="03.748293"><ele>-2.5</ele><time>2022-11-16T15:52:36Z</time><name>PT11063</name></trkpt>
<trkpt lat="51.586541" lon="03.748281"><ele>-2.4</ele><time>2022-11-16T15:52:37Z</time><name>PT11064</name></trkpt>
<trkpt lat="51.586535" lon="03.748270"><ele>-2.6</ele><time>2022-11-16T15:52:38Z</time><name>PT11065</name></trkpt>
<trkpt lat="51.586527" lon="03.748259"><ele>-2.6</ele><time>2022-11-16T15:52:39Z</time><name>PT11066</name></trkpt>
<trkpt lat="51.586522" lon="03.748250"><ele>-2.6</ele><time>2022-11-16T15:52:40Z</time><name>PT11067</name></trkpt>
<trkpt lat="51.586517" lon="03.748237"><ele>-2.7</ele><time>2022-11-16T15:52:41Z</time><name>PT11068</name></trkpt>
<trkpt lat="51.586514" lon="03.748225"><ele>-2.7</ele><time>2022-11-16T15:52:42Z</time><name>PT11069</name></trkpt>
<trkpt lat="51.586507" lon="03.748209"><ele>-2.6</ele><time>2022-11-16T15:52:43Z</time><name>PT11070</name></trkpt>
<trkpt lat="51.586503" lon="03.748193"><ele>-2.5</ele><time>2022-11-16T15:52:44Z</time><name>PT11071</name></trkpt>
<trkpt lat="51.586500" lon="03.748178"><ele>-2.4</ele><time>2022-11-16T15:52:45Z</time><name>PT11072</name></trkpt>
<trkpt lat="51.586497" lon="03.748164"><ele>-2.4</ele><time>2022-11-16T15:52:46Z</time><name>PT11073</name></trkpt>
<trkpt lat="51.586496" lon="03.748145"><ele>-2.3</ele><time>2022-11-16T15:52:47Z</time><name>PT11074</name></trkpt>
<trkpt lat="51.586494" lon="03.748129"><ele>-2.2</ele><time>2022-11-16T15:52:48Z</time><name>PT11075</name></trkpt>
<trkpt lat="51.586489" lon="03.748112"><ele>-2.2</ele><time>2022-11-16T15:52:49Z</time><name>PT11076</name></trkpt>
<trkpt lat="51.586484" lon="03.748094"><ele>-2.2</ele><time>2022-11-16T15:52:50Z</time><name>PT11077</name></trkpt>
<trkpt lat="51.586479" lon="03.748078"><ele>-2.4</ele><time>2022-11-16T15:52:51Z</time><name>PT11078</name></trkpt>
<trkpt lat="51.586475" lon="03.748063"><ele>-2.6</ele><time>2022-11-16T15:52:52Z</time><name>PT11079</name></trkpt>
<trkpt lat="51.586473" lon="03.748046"><ele>-2.5</ele><time>2022-11-16T15:52:53Z</time><name>PT11080</name></trkpt>
<trkpt lat="51.586468" lon="03.748030"><ele>-2.4</ele><time>2022-11-16T15:52:54Z</time><name>PT11081</name></trkpt>
<trkpt lat="51.586464" lon="03.748015"><ele>-2.3</ele><time>2022-11-16T15:52:55Z</time><name>PT11082</name></trkpt>
<trkpt lat="51.586460" lon="03.748000"><ele>-2.1</ele><time>2022-11-16T15:52:56Z</time><name>PT11083</name></trkpt>
<trkpt lat="51.586456" lon="03.747984"><ele>-2.3</ele><time>2022-11-16T15:52:57Z</time><name>PT11084</name></trkpt>
<trkpt lat="51.586451" lon="03.747966"><ele>-2.4</ele><time>2022-11-16T15:52:58Z</time><name>PT11085</name></trkpt>
<trkpt lat="51.586448" lon="03.747948"><ele>-2.5</ele><time>2022-11-16T15:52:59Z</time><name>PT11086</name></trkpt>
<trkpt lat="51.586444" lon="03.747927"><ele>-2.4</ele><time>2022-11-16T15:53:00Z</time><name>PT11087</name></trkpt>
<trkpt lat="51.586441" lon="03.747909"><ele>-2.3</ele><time>2022-11-16T15:53:01Z</time><name>PT11088</name></trkpt>
<trkpt lat="51.586436" lon="03.747891"><ele>-2.3</ele><time>2022-11-16T15:53:02Z</time><name>PT11089</name></trkpt>
<trkpt lat="51.586429" lon="03.747874"><ele>-2.5</ele><time>2022-11-16T15:53:03Z</time><name>PT11090</name></trkpt>
<trkpt lat="51.586426" lon="03.747859"><ele>-2.6</ele><time>2022-11-16T15:53:04Z</time><name>PT11091</name></trkpt>
<trkpt lat="51.586422" lon="03.747843"><ele>-2.5</ele><time>2022-11-16T15:53:05Z</time><name>PT11092</name></trkpt>
<trkpt lat="51.586419" lon="03.747829"><ele>-2.6</ele><time>2022-11-16T15:53:06Z</time><name>PT11093</name></trkpt>
<trkpt lat="51.586418" lon="03.747816"><ele>-2.6</ele><time>2022-11-16T15:53:07Z</time><name>PT11094</name></trkpt>
<trkpt lat="51.586416" lon="03.747802"><ele>-2.6</ele><time>2022-11-16T15:53:08Z</time><name>PT11095</name></trkpt>
<trkpt lat="51.586414" lon="03.747788"><ele>-2.5</ele><time>2022-11-16T15:53:09Z</time><name>PT11096</name></trkpt>
<trkpt lat="51.586410" lon="03.747770"><ele>-2.4</ele><time>2022-11-16T15:53:10Z</time><name>PT11097</name></trkpt>
<trkpt lat="51.586405" lon="03.747755"><ele>-2.2</ele><time>2022-11-16T15:53:11Z</time><name>PT11098</name></trkpt>
<trkpt lat="51.586401" lon="03.747739"><ele>-2.1</ele><time>2022-11-16T15:53:12Z</time><name>PT11099</name></trkpt>
<trkpt lat="51.586396" lon="03.747724"><ele>-2.1</ele><time>2022-11-16T15:53:13Z</time><name>PT11100</name></trkpt>
<trkpt lat="51.586392" lon="03.747708"><ele>-2.2</ele><time>2022-11-16T15:53:14Z</time><name>PT11101</name></trkpt>
<trkpt lat="51.586389" lon="03.747695"><ele>-2.3</ele><time>2022-11-16T15:53:15Z</time><name>PT11102</name></trkpt>
<trkpt lat="51.586385" lon="03.747682"><ele>-2.3</ele><time>2022-11-16T15:53:16Z</time><name>PT11103</name></trkpt>
<trkpt lat="51.586382" lon="03.747666"><ele>-2.4</ele><time>2022-11-16T15:53:17Z</time><name>PT11104</name></trkpt>
<trkpt lat="51.586376" lon="03.747651"><ele>-2.3</ele><time>2022-11-16T15:53:18Z</time><name>PT11105</name></trkpt>
<trkpt lat="51.586372" lon="03.747636"><ele>-2.5</ele><time>2022-11-16T15:53:19Z</time><name>PT11106</name></trkpt>
<trkpt lat="51.586367" lon="03.747624"><ele>-2.4</ele><time>2022-11-16T15:53:20Z</time><name>PT11107</name></trkpt>
<trkpt lat="51.586362" lon="03.747612"><ele>-2.2</ele><time>2022-11-16T15:53:21Z</time><name>PT11108</name></trkpt>
<trkpt lat="51.586357" lon="03.747596"><ele>-2.2</ele><time>2022-11-16T15:53:22Z</time><name>PT11109</name></trkpt>
<trkpt lat="51.586353" lon="03.747580"><ele>-2.3</ele><time>2022-11-16T15:53:23Z</time><name>PT11110</name></trkpt>
<trkpt lat="51.586349" lon="03.747567"><ele>-2.3</ele><time>2022-11-16T15:53:24Z</time><name>PT11111</name></trkpt>
<trkpt lat="51.586344" lon="03.747552"><ele>-2.4</ele><time>2022-11-16T15:53:25Z</time><name>PT11112</name></trkpt>
<trkpt lat="51.586342" lon="03.747537"><ele>-2.5</ele><time>2022-11-16T15:53:26Z</time><name>PT11113</name></trkpt>
<trkpt lat="51.586337" lon="03.747527"><ele>-2.3</ele><time>2022-11-16T15:53:27Z</time><name>PT11114</name></trkpt>
<trkpt lat="51.586334" lon="03.747513"><ele>-2.6</ele><time>2022-11-16T15:53:28Z</time><name>PT11115</name></trkpt>
<trkpt lat="51.586331" lon="03.747496"><ele>-2.6</ele><time>2022-11-16T15:53:29Z</time><name>PT11116</name></trkpt>
<trkpt lat="51.586328" lon="03.747481"><ele>-2.6</ele><time>2022-11-16T15:53:30Z</time><name>PT11117</name></trkpt>
<trkpt lat="51.586325" lon="03.747466"><ele>-2.7</ele><time>2022-11-16T15:53:31Z</time><name>PT11118</name></trkpt>
<trkpt lat="51.586320" lon="03.747452"><ele>-2.6</ele><time>2022-11-16T15:53:32Z</time><name>PT11119</name></trkpt>
<trkpt lat="51.586317" lon="03.747438"><ele>-2.6</ele><time>2022-11-16T15:53:33Z</time><name>PT11120</name></trkpt>
<trkpt lat="51.586318" lon="03.747421"><ele>-2.4</ele><time>2022-11-16T15:53:34Z</time><name>PT11121</name></trkpt>
<trkpt lat="51.586320" lon="03.747401"><ele>-2.5</ele><time>2022-11-16T15:53:35Z</time><name>PT11122</name></trkpt>
<trkpt lat="51.586322" lon="03.747383"><ele>-2.5</ele><time>2022-11-16T15:53:36Z</time><name>PT11123</name></trkpt>
<trkpt lat="51.586323" lon="03.747364"><ele>-2.5</ele><time>2022-11-16T15:53:37Z</time><name>PT11124</name></trkpt>
<trkpt lat="51.586322" lon="03.747347"><ele>-2.4</ele><time>2022-11-16T15:53:38Z</time><name>PT11125</name></trkpt>
<trkpt lat="51.586320" lon="03.747333"><ele>-2.3</ele><time>2022-11-16T15:53:39Z</time><name>PT11126</name></trkpt>
<trkpt lat="51.586316" lon="03.747323"><ele>-2.2</ele><time>2022-11-16T15:53:40Z</time><name>PT11127</name></trkpt>
<trkpt lat="51.586315" lon="03.747318"><ele>-2.2</ele><time>2022-11-16T15:53:41Z</time><name>PT11128</name></trkpt>
<trkpt lat="51.586313" lon="03.747317"><ele>-2.2</ele><time>2022-11-16T15:53:42Z</time><name>PT11129</name></trkpt>
<trkpt lat="51.586313" lon="03.747316"><ele>-2.2</ele><time>2022-11-16T15:53:43Z</time><name>PT11130</name></trkpt>
<trkpt lat="51.586315" lon="03.747314"><ele>-2.3</ele><time>2022-11-16T15:53:45Z</time><name>PT11131</name></trkpt>
<trkpt lat="51.586315" lon="03.747320"><ele>-2.2</ele><time>2022-11-16T15:53:46Z</time><name>PT11132</name></trkpt>
<trkpt lat="51.586316" lon="03.747319"><ele>-2.5</ele><time>2022-11-16T15:53:47Z</time><name>PT11133</name></trkpt>
<trkpt lat="51.586318" lon="03.747314"><ele>-2.5</ele><time>2022-11-16T15:53:48Z</time><name>PT11134</name></trkpt>
<trkpt lat="51.586320" lon="03.747310"><ele>-2.3</ele><time>2022-11-16T15:53:49Z</time><name>PT11135</name></trkpt>
<trkpt lat="51.586317" lon="03.747306"><ele>-2.3</ele><time>2022-11-16T15:53:51Z</time><name>PT11136</name></trkpt>
<trkpt lat="51.586312" lon="03.747297"><ele>-2.2</ele><time>2022-11-16T15:53:52Z</time><name>PT11137</name></trkpt>
<trkpt lat="51.586311" lon="03.747285"><ele>-2.1</ele><time>2022-11-16T15:53:53Z</time><name>PT11138</name></trkpt>
<trkpt lat="51.586307" lon="03.747270"><ele>-2.1</ele><time>2022-11-16T15:53:54Z</time><name>PT11139</name></trkpt>
<trkpt lat="51.586301" lon="03.747258"><ele>-2.1</ele><time>2022-11-16T15:53:55Z</time><name>PT11140</name></trkpt>
<trkpt lat="51.586299" lon="03.747243"><ele>-2.2</ele><time>2022-11-16T15:53:56Z</time><name>PT11141</name></trkpt>
<trkpt lat="51.586294" lon="03.747227"><ele>-2.3</ele><time>2022-11-16T15:53:57Z</time><name>PT11142</name></trkpt>
<trkpt lat="51.586292" lon="03.747214"><ele>-2.1</ele><time>2022-11-16T15:53:58Z</time><name>PT11143</name></trkpt>
<trkpt lat="51.586288" lon="03.747199"><ele>-2.2</ele><time>2022-11-16T15:53:59Z</time><name>PT11144</name></trkpt>
<trkpt lat="51.586286" lon="03.747183"><ele>-2.2</ele><time>2022-11-16T15:54:00Z</time><name>PT11145</name></trkpt>
<trkpt lat="51.586282" lon="03.747166"><ele>-2.2</ele><time>2022-11-16T15:54:01Z</time><name>PT11146</name></trkpt>
<trkpt lat="51.586283" lon="03.747146"><ele>-2.5</ele><time>2022-11-16T15:54:02Z</time><name>PT11147</name></trkpt>
<trkpt lat="51.586279" lon="03.747131"><ele>-2.5</ele><time>2022-11-16T15:54:03Z</time><name>PT11148</name></trkpt>
<trkpt lat="51.586275" lon="03.747117"><ele>-2.6</ele><time>2022-11-16T15:54:04Z</time><name>PT11149</name></trkpt>
<trkpt lat="51.586272" lon="03.747102"><ele>-2.5</ele><time>2022-11-16T15:54:05Z</time><name>PT11150</name></trkpt>
<trkpt lat="51.586268" lon="03.747088"><ele>-2.5</ele><time>2022-11-16T15:54:06Z</time><name>PT11151</name></trkpt>
<trkpt lat="51.586263" lon="03.747072"><ele>-2.5</ele><time>2022-11-16T15:54:07Z</time><name>PT11152</name></trkpt>
<trkpt lat="51.586262" lon="03.747055"><ele>-2.6</ele><time>2022-11-16T15:54:08Z</time><name>PT11153</name></trkpt>
<trkpt lat="51.586258" lon="03.747041"><ele>-2.6</ele><time>2022-11-16T15:54:09Z</time><name>PT11154</name></trkpt>
<trkpt lat="51.586251" lon="03.747027"><ele>-2.5</ele><time>2022-11-16T15:54:10Z</time><name>PT11155</name></trkpt>
<trkpt lat="51.586247" lon="03.747013"><ele>-2.5</ele><time>2022-11-16T15:54:11Z</time><name>PT11156</name></trkpt>
<trkpt lat="51.586243" lon="03.746999"><ele>-2.6</ele><time>2022-11-16T15:54:12Z</time><name>PT11157</name></trkpt>
<trkpt lat="51.586239" lon="03.746986"><ele>-2.6</ele><time>2022-11-16T15:54:13Z</time><name>PT11158</name></trkpt>
<trkpt lat="51.586238" lon="03.746966"><ele>-2.7</ele><time>2022-11-16T15:54:14Z</time><name>PT11159</name></trkpt>
<trkpt lat="51.586235" lon="03.746949"><ele>-2.8</ele><time>2022-11-16T15:54:15Z</time><name>PT11160</name></trkpt>
<trkpt lat="51.586231" lon="03.746932"><ele>-2.8</ele><time>2022-11-16T15:54:16Z</time><name>PT11161</name></trkpt>
<trkpt lat="51.586230" lon="03.746916"><ele>-2.9</ele><time>2022-11-16T15:54:17Z</time><name>PT11162</name></trkpt>
<trkpt lat="51.586227" lon="03.746898"><ele>-2.9</ele><time>2022-11-16T15:54:18Z</time><name>PT11163</name></trkpt>
<trkpt lat="51.586226" lon="03.746878"><ele>-2.9</ele><time>2022-11-16T15:54:19Z</time><name>PT11164</name></trkpt>
<trkpt lat="51.586219" lon="03.746861"><ele>-2.8</ele><time>2022-11-16T15:54:20Z</time><name>PT11165</name></trkpt>
<trkpt lat="51.586214" lon="03.746847"><ele>-2.7</ele><time>2022-11-16T15:54:21Z</time><name>PT11166</name></trkpt>
<trkpt lat="51.586209" lon="03.746832"><ele>-2.7</ele><time>2022-11-16T15:54:22Z</time><name>PT11167</name></trkpt>
<trkpt lat="51.586203" lon="03.746818"><ele>-2.6</ele><time>2022-11-16T15:54:23Z</time><name>PT11168</name></trkpt>
<trkpt lat="51.586195" lon="03.746808"><ele>-2.5</ele><time>2022-11-16T15:54:24Z</time><name>PT11169</name></trkpt>
<trkpt lat="51.586195" lon="03.746796"><ele>-2.4</ele><time>2022-11-16T15:54:25Z</time><name>PT11170</name></trkpt>
<trkpt lat="51.586193" lon="03.746786"><ele>-2.5</ele><time>2022-11-16T15:54:26Z</time><name>PT11171</name></trkpt>
<trkpt lat="51.586190" lon="03.746780"><ele>-2.3</ele><time>2022-11-16T15:54:27Z</time><name>PT11172</name></trkpt>
<trkpt lat="51.586194" lon="03.746773"><ele>-2.4</ele><time>2022-11-16T15:54:28Z</time><name>PT11173</name></trkpt>
<trkpt lat="51.586191" lon="03.746774"><ele>-2.3</ele><time>2022-11-16T15:54:29Z</time><name>PT11174</name></trkpt>
<trkpt lat="51.586189" lon="03.746769"><ele>-2.2</ele><time>2022-11-16T15:54:30Z</time><name>PT11175</name></trkpt>
<trkpt lat="51.586185" lon="03.746764"><ele>-2.5</ele><time>2022-11-16T15:54:31Z</time><name>PT11176</name></trkpt>
<trkpt lat="51.586179" lon="03.746760"><ele>-2.5</ele><time>2022-11-16T15:54:32Z</time><name>PT11177</name></trkpt>
<trkpt lat="51.586173" lon="03.746759"><ele>-2.7</ele><time>2022-11-16T15:54:33Z</time><name>PT11178</name></trkpt>
<trkpt lat="51.586164" lon="03.746759"><ele>-2.6</ele><time>2022-11-16T15:54:34Z</time><name>PT11179</name></trkpt>
<trkpt lat="51.586153" lon="03.746764"><ele>-2.6</ele><time>2022-11-16T15:54:35Z</time><name>PT11180</name></trkpt>
<trkpt lat="51.586144" lon="03.746765"><ele>-2.6</ele><time>2022-11-16T15:54:36Z</time><name>PT11181</name></trkpt>
<trkpt lat="51.586135" lon="03.746764"><ele>-2.6</ele><time>2022-11-16T15:54:37Z</time><name>PT11182</name></trkpt>
<trkpt lat="51.586125" lon="03.746763"><ele>-2.7</ele><time>2022-11-16T15:54:38Z</time><name>PT11183</name></trkpt>
<trkpt lat="51.586116" lon="03.746762"><ele>-2.7</ele><time>2022-11-16T15:54:39Z</time><name>PT11184</name></trkpt>
<trkpt lat="51.586107" lon="03.746762"><ele>-2.6</ele><time>2022-11-16T15:54:40Z</time><name>PT11185</name></trkpt>
<trkpt lat="51.586098" lon="03.746765"><ele>-2.5</ele><time>2022-11-16T15:54:41Z</time><name>PT11186</name></trkpt>
<trkpt lat="51.586090" lon="03.746769"><ele>-2.4</ele><time>2022-11-16T15:54:42Z</time><name>PT11187</name></trkpt>
<trkpt lat="51.586082" lon="03.746774"><ele>-2.5</ele><time>2022-11-16T15:54:43Z</time><name>PT11188</name></trkpt>
<trkpt lat="51.586078" lon="03.746781"><ele>-2.6</ele><time>2022-11-16T15:54:44Z</time><name>PT11189</name></trkpt>
<trkpt lat="51.586068" lon="03.746784"><ele>-2.6</ele><time>2022-11-16T15:54:45Z</time><name>PT11190</name></trkpt>
<trkpt lat="51.586061" lon="03.746788"><ele>-2.8</ele><time>2022-11-16T15:54:46Z</time><name>PT11191</name></trkpt>
<trkpt lat="51.586052" lon="03.746790"><ele>-2.6</ele><time>2022-11-16T15:54:47Z</time><name>PT11192</name></trkpt>
<trkpt lat="51.586043" lon="03.746792"><ele>-2.5</ele><time>2022-11-16T15:54:48Z</time><name>PT11193</name></trkpt>
<trkpt lat="51.586032" lon="03.746799"><ele>-2.4</ele><time>2022-11-16T15:54:49Z</time><name>PT11194</name></trkpt>
<trkpt lat="51.586020" lon="03.746802"><ele>-2.4</ele><time>2022-11-16T15:54:50Z</time><name>PT11195</name></trkpt>
<trkpt lat="51.586007" lon="03.746804"><ele>-2.5</ele><time>2022-11-16T15:54:51Z</time><name>PT11196</name></trkpt>
<trkpt lat="51.585997" lon="03.746806"><ele>-2.5</ele><time>2022-11-16T15:54:52Z</time><name>PT11197</name></trkpt>
<trkpt lat="51.585988" lon="03.746807"><ele>-2.6</ele><time>2022-11-16T15:54:53Z</time><name>PT11198</name></trkpt>
<trkpt lat="51.585979" lon="03.746812"><ele>-2.8</ele><time>2022-11-16T15:54:54Z</time><name>PT11199</name></trkpt>
<trkpt lat="51.585969" lon="03.746816"><ele>-2.9</ele><time>2022-11-16T15:54:55Z</time><name>PT11200</name></trkpt>
<trkpt lat="51.585961" lon="03.746821"><ele>-3</ele><time>2022-11-16T15:54:56Z</time><name>PT11201</name></trkpt>
<trkpt lat="51.585952" lon="03.746828"><ele>-2.8</ele><time>2022-11-16T15:54:57Z</time><name>PT11202</name></trkpt>
<trkpt lat="51.585947" lon="03.746836"><ele>-2.8</ele><time>2022-11-16T15:54:58Z</time><name>PT11203</name></trkpt>
<trkpt lat="51.585942" lon="03.746838"><ele>-2.6</ele><time>2022-11-16T15:54:59Z</time><name>PT11204</name></trkpt>
<trkpt lat="51.585931" lon="03.746831"><ele>-2.5</ele><time>2022-11-16T15:55:00Z</time><name>PT11205</name></trkpt>
<trkpt lat="51.585926" lon="03.746830"><ele>-2.5</ele><time>2022-11-16T15:55:01Z</time><name>PT11206</name></trkpt>
<trkpt lat="51.585922" lon="03.746833"><ele>-2.4</ele><time>2022-11-16T15:55:02Z</time><name>PT11207</name></trkpt>
<trkpt lat="51.585913" lon="03.746839"><ele>-2.5</ele><time>2022-11-16T15:55:03Z</time><name>PT11208</name></trkpt>
<trkpt lat="51.585903" lon="03.746846"><ele>-2.6</ele><time>2022-11-16T15:55:04Z</time><name>PT11209</name></trkpt>
<trkpt lat="51.585893" lon="03.746849"><ele>-2.6</ele><time>2022-11-16T15:55:05Z</time><name>PT11210</name></trkpt>
<trkpt lat="51.585884" lon="03.746852"><ele>-2.6</ele><time>2022-11-16T15:55:06Z</time><name>PT11211</name></trkpt>
<trkpt lat="51.585872" lon="03.746854"><ele>-2.6</ele><time>2022-11-16T15:55:07Z</time><name>PT11212</name></trkpt>
<trkpt lat="51.585862" lon="03.746855"><ele>-2.3</ele><time>2022-11-16T15:55:08Z</time><name>PT11213</name></trkpt>
<trkpt lat="51.585848" lon="03.746855"><ele>-2.2</ele><time>2022-11-16T15:55:09Z</time><name>PT11214</name></trkpt>
<trkpt lat="51.585838" lon="03.746853"><ele>-2.4</ele><time>2022-11-16T15:55:10Z</time><name>PT11215</name></trkpt>
<trkpt lat="51.585828" lon="03.746854"><ele>-2.5</ele><time>2022-11-16T15:55:11Z</time><name>PT11216</name></trkpt>
<trkpt lat="51.585818" lon="03.746853"><ele>-2.7</ele><time>2022-11-16T15:55:12Z</time><name>PT11217</name></trkpt>
<trkpt lat="51.585807" lon="03.746855"><ele>-2.9</ele><time>2022-11-16T15:55:13Z</time><name>PT11218</name></trkpt>
<trkpt lat="51.585798" lon="03.746861"><ele>-2.8</ele><time>2022-11-16T15:55:14Z</time><name>PT11219</name></trkpt>
<trkpt lat="51.585790" lon="03.746867"><ele>-2.9</ele><time>2022-11-16T15:55:15Z</time><name>PT11220</name></trkpt>
<trkpt lat="51.585781" lon="03.746876"><ele>-2.9</ele><time>2022-11-16T15:55:16Z</time><name>PT11221</name></trkpt>
<trkpt lat="51.585775" lon="03.746888"><ele>-2.8</ele><time>2022-11-16T15:55:17Z</time><name>PT11222</name></trkpt>
<trkpt lat="51.585764" lon="03.746889"><ele>-3</ele><time>2022-11-16T15:55:18Z</time><name>PT11223</name></trkpt>
<trkpt lat="51.585748" lon="03.746875"><ele>-2.9</ele><time>2022-11-16T15:55:19Z</time><name>PT11224</name></trkpt>
<trkpt lat="51.585736" lon="03.746874"><ele>-2.8</ele><time>2022-11-16T15:55:20Z</time><name>PT11225</name></trkpt>
<trkpt lat="51.585724" lon="03.746875"><ele>-2.8</ele><time>2022-11-16T15:55:21Z</time><name>PT11226</name></trkpt>
<trkpt lat="51.585714" lon="03.746876"><ele>-2.8</ele><time>2022-11-16T15:55:22Z</time><name>PT11227</name></trkpt>
<trkpt lat="51.585703" lon="03.746878"><ele>-2.8</ele><time>2022-11-16T15:55:23Z</time><name>PT11228</name></trkpt>
<trkpt lat="51.585691" lon="03.746880"><ele>-2.8</ele><time>2022-11-16T15:55:24Z</time><name>PT11229</name></trkpt>
<trkpt lat="51.585678" lon="03.746882"><ele>-2.8</ele><time>2022-11-16T15:55:25Z</time><name>PT11230</name></trkpt>
<trkpt lat="51.585669" lon="03.746886"><ele>-2.9</ele><time>2022-11-16T15:55:26Z</time><name>PT11231</name></trkpt>
<trkpt lat="51.585660" lon="03.746890"><ele>-2.9</ele><time>2022-11-16T15:55:27Z</time><name>PT11232</name></trkpt>
<trkpt lat="51.585651" lon="03.746891"><ele>-2.9</ele><time>2022-11-16T15:55:28Z</time><name>PT11233</name></trkpt>
<trkpt lat="51.585641" lon="03.746889"><ele>-2.8</ele><time>2022-11-16T15:55:29Z</time><name>PT11234</name></trkpt>
<trkpt lat="51.585630" lon="03.746880"><ele>-2.9</ele><time>2022-11-16T15:55:30Z</time><name>PT11235</name></trkpt>
<trkpt lat="51.585621" lon="03.746877"><ele>-2.7</ele><time>2022-11-16T15:55:31Z</time><name>PT11236</name></trkpt>
<trkpt lat="51.585605" lon="03.746865"><ele>-2.6</ele><time>2022-11-16T15:55:32Z</time><name>PT11237</name></trkpt>
<trkpt lat="51.585591" lon="03.746859"><ele>-2.6</ele><time>2022-11-16T15:55:33Z</time><name>PT11238</name></trkpt>
<trkpt lat="51.585581" lon="03.746856"><ele>-2.6</ele><time>2022-11-16T15:55:34Z</time><name>PT11239</name></trkpt>
<trkpt lat="51.585569" lon="03.746850"><ele>-2.5</ele><time>2022-11-16T15:55:35Z</time><name>PT11240</name></trkpt>
<trkpt lat="51.585559" lon="03.746846"><ele>-2.6</ele><time>2022-11-16T15:55:36Z</time><name>PT11241</name></trkpt>
<trkpt lat="51.585547" lon="03.746844"><ele>-2.5</ele><time>2022-11-16T15:55:37Z</time><name>PT11242</name></trkpt>
<trkpt lat="51.585538" lon="03.746840"><ele>-2.6</ele><time>2022-11-16T15:55:38Z</time><name>PT11243</name></trkpt>
<trkpt lat="51.585527" lon="03.746837"><ele>-2.7</ele><time>2022-11-16T15:55:39Z</time><name>PT11244</name></trkpt>
<trkpt lat="51.585518" lon="03.746837"><ele>-2.7</ele><time>2022-11-16T15:55:40Z</time><name>PT11245</name></trkpt>
<trkpt lat="51.585505" lon="03.746837"><ele>-2.7</ele><time>2022-11-16T15:55:41Z</time><name>PT11246</name></trkpt>
<trkpt lat="51.585497" lon="03.746840"><ele>-2.6</ele><time>2022-11-16T15:55:42Z</time><name>PT11247</name></trkpt>
<trkpt lat="51.585488" lon="03.746842"><ele>-2.4</ele><time>2022-11-16T15:55:43Z</time><name>PT11248</name></trkpt>
<trkpt lat="51.585477" lon="03.746841"><ele>-2.5</ele><time>2022-11-16T15:55:44Z</time><name>PT11249</name></trkpt>
<trkpt lat="51.585465" lon="03.746836"><ele>-2.4</ele><time>2022-11-16T15:55:45Z</time><name>PT11250</name></trkpt>
<trkpt lat="51.585455" lon="03.746840"><ele>-2.6</ele><time>2022-11-16T15:55:46Z</time><name>PT11251</name></trkpt>
<trkpt lat="51.585445" lon="03.746843"><ele>-2.6</ele><time>2022-11-16T15:55:47Z</time><name>PT11252</name></trkpt>
<trkpt lat="51.585435" lon="03.746844"><ele>-2.4</ele><time>2022-11-16T15:55:48Z</time><name>PT11253</name></trkpt>
<trkpt lat="51.585426" lon="03.746848"><ele>-2.5</ele><time>2022-11-16T15:55:49Z</time><name>PT11254</name></trkpt>
<trkpt lat="51.585417" lon="03.746852"><ele>-2.4</ele><time>2022-11-16T15:55:50Z</time><name>PT11255</name></trkpt>
<trkpt lat="51.585407" lon="03.746855"><ele>-2.6</ele><time>2022-11-16T15:55:51Z</time><name>PT11256</name></trkpt>
<trkpt lat="51.585398" lon="03.746858"><ele>-2.5</ele><time>2022-11-16T15:55:52Z</time><name>PT11257</name></trkpt>
<trkpt lat="51.585388" lon="03.746855"><ele>-2.5</ele><time>2022-11-16T15:55:53Z</time><name>PT11258</name></trkpt>
<trkpt lat="51.585376" lon="03.746858"><ele>-2.4</ele><time>2022-11-16T15:55:54Z</time><name>PT11259</name></trkpt>
<trkpt lat="51.585365" lon="03.746863"><ele>-2.4</ele><time>2022-11-16T15:55:55Z</time><name>PT11260</name></trkpt>
<trkpt lat="51.585354" lon="03.746866"><ele>-2.3</ele><time>2022-11-16T15:55:56Z</time><name>PT11261</name></trkpt>
<trkpt lat="51.585343" lon="03.746866"><ele>-2.3</ele><time>2022-11-16T15:55:57Z</time><name>PT11262</name></trkpt>
<trkpt lat="51.585333" lon="03.746867"><ele>-2.2</ele><time>2022-11-16T15:55:58Z</time><name>PT11263</name></trkpt>
<trkpt lat="51.585323" lon="03.746870"><ele>-2.3</ele><time>2022-11-16T15:55:59Z</time><name>PT11264</name></trkpt>
<trkpt lat="51.585314" lon="03.746873"><ele>-2.6</ele><time>2022-11-16T15:56:00Z</time><name>PT11265</name></trkpt>
<trkpt lat="51.585304" lon="03.746875"><ele>-2.7</ele><time>2022-11-16T15:56:01Z</time><name>PT11266</name></trkpt>
<trkpt lat="51.585293" lon="03.746877"><ele>-2.7</ele><time>2022-11-16T15:56:02Z</time><name>PT11267</name></trkpt>
<trkpt lat="51.585283" lon="03.746879"><ele>-2.7</ele><time>2022-11-16T15:56:03Z</time><name>PT11268</name></trkpt>
<trkpt lat="51.585276" lon="03.746883"><ele>-2.7</ele><time>2022-11-16T15:56:04Z</time><name>PT11269</name></trkpt>
<trkpt lat="51.585265" lon="03.746883"><ele>-2.6</ele><time>2022-11-16T15:56:05Z</time><name>PT11270</name></trkpt>
<trkpt lat="51.585256" lon="03.746885"><ele>-2.6</ele><time>2022-11-16T15:56:06Z</time><name>PT11271</name></trkpt>
<trkpt lat="51.585243" lon="03.746884"><ele>-2.7</ele><time>2022-11-16T15:56:07Z</time><name>PT11272</name></trkpt>
<trkpt lat="51.585234" lon="03.746884"><ele>-2.7</ele><time>2022-11-16T15:56:08Z</time><name>PT11273</name></trkpt>
<trkpt lat="51.585224" lon="03.746887"><ele>-2.7</ele><time>2022-11-16T15:56:09Z</time><name>PT11274</name></trkpt>
<trkpt lat="51.585215" lon="03.746891"><ele>-2.6</ele><time>2022-11-16T15:56:10Z</time><name>PT11275</name></trkpt>
<trkpt lat="51.585207" lon="03.746892"><ele>-2.6</ele><time>2022-11-16T15:56:11Z</time><name>PT11276</name></trkpt>
<trkpt lat="51.585195" lon="03.746898"><ele>-2.6</ele><time>2022-11-16T15:56:12Z</time><name>PT11277</name></trkpt>
<trkpt lat="51.585185" lon="03.746904"><ele>-2.6</ele><time>2022-11-16T15:56:13Z</time><name>PT11278</name></trkpt>
<trkpt lat="51.585175" lon="03.746908"><ele>-2.6</ele><time>2022-11-16T15:56:14Z</time><name>PT11279</name></trkpt>
<trkpt lat="51.585166" lon="03.746911"><ele>-2.7</ele><time>2022-11-16T15:56:15Z</time><name>PT11280</name></trkpt>
<trkpt lat="51.585157" lon="03.746916"><ele>-2.6</ele><time>2022-11-16T15:56:16Z</time><name>PT11281</name></trkpt>
<trkpt lat="51.585148" lon="03.746920"><ele>-2.6</ele><time>2022-11-16T15:56:17Z</time><name>PT11282</name></trkpt>
<trkpt lat="51.585138" lon="03.746924"><ele>-2.6</ele><time>2022-11-16T15:56:18Z</time><name>PT11283</name></trkpt>
<trkpt lat="51.585128" lon="03.746927"><ele>-2.6</ele><time>2022-11-16T15:56:19Z</time><name>PT11284</name></trkpt>
<trkpt lat="51.585119" lon="03.746927"><ele>-2.6</ele><time>2022-11-16T15:56:20Z</time><name>PT11285</name></trkpt>
<trkpt lat="51.585111" lon="03.746932"><ele>-2.6</ele><time>2022-11-16T15:56:21Z</time><name>PT11286</name></trkpt>
<trkpt lat="51.585106" lon="03.746939"><ele>-2.6</ele><time>2022-11-16T15:56:22Z</time><name>PT11287</name></trkpt>
<trkpt lat="51.585100" lon="03.746946"><ele>-2.6</ele><time>2022-11-16T15:56:23Z</time><name>PT11288</name></trkpt>
<trkpt lat="51.585094" lon="03.746951"><ele>-2.6</ele><time>2022-11-16T15:56:24Z</time><name>PT11289</name></trkpt>
<trkpt lat="51.585086" lon="03.746955"><ele>-2.6</ele><time>2022-11-16T15:56:25Z</time><name>PT11290</name></trkpt>
<trkpt lat="51.585078" lon="03.746962"><ele>-2.6</ele><time>2022-11-16T15:56:26Z</time><name>PT11291</name></trkpt>
<trkpt lat="51.585073" lon="03.746968"><ele>-2.6</ele><time>2022-11-16T15:56:27Z</time><name>PT11292</name></trkpt>
<trkpt lat="51.585066" lon="03.746972"><ele>-2.6</ele><time>2022-11-16T15:56:28Z</time><name>PT11293</name></trkpt>
<trkpt lat="51.585061" lon="03.746978"><ele>-2.6</ele><time>2022-11-16T15:56:29Z</time><name>PT11294</name></trkpt>
<trkpt lat="51.585055" lon="03.746981"><ele>-2.6</ele><time>2022-11-16T15:56:30Z</time><name>PT11295</name></trkpt>
<trkpt lat="51.585052" lon="03.746983"><ele>-2.5</ele><time>2022-11-16T15:56:31Z</time><name>PT11296</name></trkpt>
<trkpt lat="51.585051" lon="03.746983"><ele>-2.6</ele><time>2022-11-16T15:56:32Z</time><name>PT11297</name></trkpt>
<trkpt lat="51.585050" lon="03.746983"><ele>-2.6</ele><time>2022-11-16T15:56:33Z</time><name>PT11298</name></trkpt>
<trkpt lat="51.585048" lon="03.746982"><ele>-2.6</ele><time>2022-11-16T15:56:34Z</time><name>PT11299</name></trkpt>
<trkpt lat="51.585046" lon="03.746980"><ele>-2.6</ele><time>2022-11-16T15:56:35Z</time><name>PT11300</name></trkpt></trkseg></trk></gpx>